<?xml version="1.0" encoding="UTF-8" standalone="no" ?>
<gpx xmlns="http://www.topografix.com/GPX/1/1" xmlns:xsi="http://www.w3.org/2001/XMLSchema-instance" xsi:schemaLocation="http://www.topografix.com/GPX/1/1 http://www.topografix.com/GPX/1/1/gpx.xsd" version="1.1" creator="VisuGPX - https://www.visugpx.com">
  <metadata>
    <name>Randonnée familiale du dimanche 19 août 2018 : les Trois Croix - Chaumasses Prélager</name>
    <desc><![CDATA[Randonnée familiale du dimanche 19 août 2018 : les Trois Croix - Chaumasses Prélager]]></desc>
  </metadata>
  <trk>
    <name><![CDATA[Running]]></name>
    <trkseg>
      <trkpt lat="45.326" lon="4.48121">
        <ele>1142.4</ele>
        <time>2018-08-19T09:20:30.000Z</time>
      </trkpt>
      <trkpt lat="45.32599" lon="4.48122">
        <ele>1142.3</ele>
        <time>2018-08-19T09:20:31.000Z</time>
      </trkpt>
      <trkpt lat="45.32598" lon="4.48123">
        <ele>1142.3</ele>
        <time>2018-08-19T09:20:32.000Z</time>
      </trkpt>
      <trkpt lat="45.32597" lon="4.48124">
        <ele>1142.2</ele>
        <time>2018-08-19T09:20:33.000Z</time>
      </trkpt>
      <trkpt lat="45.32597" lon="4.48125">
        <ele>1142.2</ele>
        <time>2018-08-19T09:20:34.000Z</time>
      </trkpt>
      <trkpt lat="45.32596" lon="4.48126">
        <ele>1142.1</ele>
        <time>2018-08-19T09:20:35.000Z</time>
      </trkpt>
      <trkpt lat="45.32595" lon="4.48127">
        <ele>1142</ele>
        <time>2018-08-19T09:20:36.000Z</time>
      </trkpt>
      <trkpt lat="45.32594" lon="4.48128">
        <ele>1141.9</ele>
        <time>2018-08-19T09:20:37.000Z</time>
      </trkpt>
      <trkpt lat="45.32593" lon="4.4813">
        <ele>1141.8</ele>
        <time>2018-08-19T09:20:38.000Z</time>
      </trkpt>
      <trkpt lat="45.32593" lon="4.48131">
        <ele>1141.7</ele>
        <time>2018-08-19T09:20:39.000Z</time>
      </trkpt>
      <trkpt lat="45.32592" lon="4.48132">
        <ele>1141.6</ele>
        <time>2018-08-19T09:20:40.000Z</time>
      </trkpt>
      <trkpt lat="45.32591" lon="4.48134">
        <ele>1141.5</ele>
        <time>2018-08-19T09:20:41.000Z</time>
      </trkpt>
      <trkpt lat="45.3259" lon="4.48135">
        <ele>1141.4</ele>
        <time>2018-08-19T09:20:42.000Z</time>
      </trkpt>
      <trkpt lat="45.32589" lon="4.48137">
        <ele>1141.3</ele>
        <time>2018-08-19T09:20:43.000Z</time>
      </trkpt>
      <trkpt lat="45.32588" lon="4.48138">
        <ele>1141.2</ele>
        <time>2018-08-19T09:20:44.000Z</time>
      </trkpt>
      <trkpt lat="45.32588" lon="4.4814">
        <ele>1141.1</ele>
        <time>2018-08-19T09:20:45.000Z</time>
      </trkpt>
      <trkpt lat="45.32587" lon="4.48141">
        <ele>1141</ele>
        <time>2018-08-19T09:20:46.000Z</time>
      </trkpt>
      <trkpt lat="45.32586" lon="4.48142">
        <ele>1140.8</ele>
        <time>2018-08-19T09:20:47.000Z</time>
      </trkpt>
      <trkpt lat="45.32585" lon="4.48144">
        <ele>1140.7</ele>
        <time>2018-08-19T09:20:48.000Z</time>
      </trkpt>
      <trkpt lat="45.32584" lon="4.48145">
        <ele>1140.6</ele>
        <time>2018-08-19T09:20:49.000Z</time>
      </trkpt>
      <trkpt lat="45.32583" lon="4.48147">
        <ele>1140.5</ele>
        <time>2018-08-19T09:20:50.000Z</time>
      </trkpt>
      <trkpt lat="45.32582" lon="4.48148">
        <ele>1140.5</ele>
        <time>2018-08-19T09:20:51.000Z</time>
      </trkpt>
      <trkpt lat="45.32581" lon="4.48149">
        <ele>1140.5</ele>
        <time>2018-08-19T09:20:52.000Z</time>
      </trkpt>
      <trkpt lat="45.3258" lon="4.4815">
        <ele>1140.5</ele>
        <time>2018-08-19T09:20:53.000Z</time>
      </trkpt>
      <trkpt lat="45.32579" lon="4.48152">
        <ele>1140.6</ele>
        <time>2018-08-19T09:20:54.000Z</time>
      </trkpt>
      <trkpt lat="45.32578" lon="4.48153">
        <ele>1140.6</ele>
        <time>2018-08-19T09:20:55.000Z</time>
      </trkpt>
      <trkpt lat="45.32577" lon="4.48154">
        <ele>1140.6</ele>
        <time>2018-08-19T09:20:56.000Z</time>
      </trkpt>
      <trkpt lat="45.32576" lon="4.48155">
        <ele>1140.7</ele>
        <time>2018-08-19T09:20:57.000Z</time>
      </trkpt>
      <trkpt lat="45.32574" lon="4.48156">
        <ele>1140.7</ele>
        <time>2018-08-19T09:20:58.000Z</time>
      </trkpt>
      <trkpt lat="45.32573" lon="4.48157">
        <ele>1140.7</ele>
        <time>2018-08-19T09:20:59.000Z</time>
      </trkpt>
      <trkpt lat="45.32572" lon="4.48158">
        <ele>1140.8</ele>
        <time>2018-08-19T09:21:00.000Z</time>
      </trkpt>
      <trkpt lat="45.32571" lon="4.48159">
        <ele>1140.8</ele>
        <time>2018-08-19T09:21:01.000Z</time>
      </trkpt>
      <trkpt lat="45.3257" lon="4.4816">
        <ele>1140.9</ele>
        <time>2018-08-19T09:21:02.000Z</time>
      </trkpt>
      <trkpt lat="45.32569" lon="4.4816">
        <ele>1140.9</ele>
        <time>2018-08-19T09:21:03.000Z</time>
      </trkpt>
      <trkpt lat="45.32568" lon="4.48161">
        <ele>1140.9</ele>
        <time>2018-08-19T09:21:04.000Z</time>
      </trkpt>
      <trkpt lat="45.32567" lon="4.48162">
        <ele>1141</ele>
        <time>2018-08-19T09:21:05.000Z</time>
      </trkpt>
      <trkpt lat="45.32566" lon="4.48163">
        <ele>1141</ele>
        <time>2018-08-19T09:21:06.000Z</time>
      </trkpt>
      <trkpt lat="45.32565" lon="4.48164">
        <ele>1141.1</ele>
        <time>2018-08-19T09:21:07.000Z</time>
      </trkpt>
      <trkpt lat="45.32564" lon="4.48164">
        <ele>1141.1</ele>
        <time>2018-08-19T09:21:08.000Z</time>
      </trkpt>
      <trkpt lat="45.32562" lon="4.48165">
        <ele>1141.1</ele>
        <time>2018-08-19T09:21:09.000Z</time>
      </trkpt>
      <trkpt lat="45.32561" lon="4.48166">
        <ele>1141.2</ele>
        <time>2018-08-19T09:21:10.000Z</time>
      </trkpt>
      <trkpt lat="45.3256" lon="4.48166">
        <ele>1141.2</ele>
        <time>2018-08-19T09:21:11.000Z</time>
      </trkpt>
      <trkpt lat="45.32559" lon="4.48167">
        <ele>1141.3</ele>
        <time>2018-08-19T09:21:12.000Z</time>
      </trkpt>
      <trkpt lat="45.32558" lon="4.48168">
        <ele>1141.3</ele>
        <time>2018-08-19T09:21:13.000Z</time>
      </trkpt>
      <trkpt lat="45.32557" lon="4.48168">
        <ele>1141.4</ele>
        <time>2018-08-19T09:21:14.000Z</time>
      </trkpt>
      <trkpt lat="45.32556" lon="4.48169">
        <ele>1141.4</ele>
        <time>2018-08-19T09:21:15.000Z</time>
      </trkpt>
      <trkpt lat="45.32555" lon="4.4817">
        <ele>1141.4</ele>
        <time>2018-08-19T09:21:16.000Z</time>
      </trkpt>
      <trkpt lat="45.32554" lon="4.4817">
        <ele>1141.5</ele>
        <time>2018-08-19T09:21:17.000Z</time>
      </trkpt>
      <trkpt lat="45.32553" lon="4.48171">
        <ele>1141.5</ele>
        <time>2018-08-19T09:21:18.000Z</time>
      </trkpt>
      <trkpt lat="45.32552" lon="4.48172">
        <ele>1141.5</ele>
        <time>2018-08-19T09:21:19.000Z</time>
      </trkpt>
      <trkpt lat="45.3255" lon="4.48172">
        <ele>1141.6</ele>
        <time>2018-08-19T09:21:20.000Z</time>
      </trkpt>
      <trkpt lat="45.32549" lon="4.48173">
        <ele>1141.6</ele>
        <time>2018-08-19T09:21:21.000Z</time>
      </trkpt>
      <trkpt lat="45.32548" lon="4.48173">
        <ele>1141.6</ele>
        <time>2018-08-19T09:21:22.000Z</time>
      </trkpt>
      <trkpt lat="45.32547" lon="4.48174">
        <ele>1141.7</ele>
        <time>2018-08-19T09:21:23.000Z</time>
      </trkpt>
      <trkpt lat="45.32546" lon="4.48175">
        <ele>1141.7</ele>
        <time>2018-08-19T09:21:24.000Z</time>
      </trkpt>
      <trkpt lat="45.32545" lon="4.48175">
        <ele>1141.7</ele>
        <time>2018-08-19T09:21:25.000Z</time>
      </trkpt>
      <trkpt lat="45.32544" lon="4.48176">
        <ele>1141.8</ele>
        <time>2018-08-19T09:21:26.000Z</time>
      </trkpt>
      <trkpt lat="45.32543" lon="4.48177">
        <ele>1141.8</ele>
        <time>2018-08-19T09:21:27.000Z</time>
      </trkpt>
      <trkpt lat="45.32541" lon="4.48177">
        <ele>1141.8</ele>
        <time>2018-08-19T09:21:28.000Z</time>
      </trkpt>
      <trkpt lat="45.3254" lon="4.48178">
        <ele>1141.9</ele>
        <time>2018-08-19T09:21:29.000Z</time>
      </trkpt>
      <trkpt lat="45.32539" lon="4.48179">
        <ele>1141.9</ele>
        <time>2018-08-19T09:21:30.000Z</time>
      </trkpt>
      <trkpt lat="45.32538" lon="4.48179">
        <ele>1141.9</ele>
        <time>2018-08-19T09:21:31.000Z</time>
      </trkpt>
      <trkpt lat="45.32537" lon="4.4818">
        <ele>1141.9</ele>
        <time>2018-08-19T09:21:32.000Z</time>
      </trkpt>
      <trkpt lat="45.32535" lon="4.4818">
        <ele>1142</ele>
        <time>2018-08-19T09:21:33.000Z</time>
      </trkpt>
      <trkpt lat="45.32534" lon="4.48181">
        <ele>1142</ele>
        <time>2018-08-19T09:21:34.000Z</time>
      </trkpt>
      <trkpt lat="45.32533" lon="4.48182">
        <ele>1142</ele>
        <time>2018-08-19T09:21:35.000Z</time>
      </trkpt>
      <trkpt lat="45.32532" lon="4.48182">
        <ele>1142.1</ele>
        <time>2018-08-19T09:21:36.000Z</time>
      </trkpt>
      <trkpt lat="45.32531" lon="4.48183">
        <ele>1142.1</ele>
        <time>2018-08-19T09:21:37.000Z</time>
      </trkpt>
      <trkpt lat="45.32529" lon="4.48183">
        <ele>1142.1</ele>
        <time>2018-08-19T09:21:38.000Z</time>
      </trkpt>
      <trkpt lat="45.32528" lon="4.48184">
        <ele>1142.2</ele>
        <time>2018-08-19T09:21:39.000Z</time>
      </trkpt>
      <trkpt lat="45.32527" lon="4.48185">
        <ele>1142.2</ele>
        <time>2018-08-19T09:21:40.000Z</time>
      </trkpt>
      <trkpt lat="45.32526" lon="4.48185">
        <ele>1142.2</ele>
        <time>2018-08-19T09:21:41.000Z</time>
      </trkpt>
      <trkpt lat="45.32524" lon="4.48186">
        <ele>1142.3</ele>
        <time>2018-08-19T09:21:42.000Z</time>
      </trkpt>
      <trkpt lat="45.32523" lon="4.48186">
        <ele>1142.3</ele>
        <time>2018-08-19T09:21:43.000Z</time>
      </trkpt>
      <trkpt lat="45.32522" lon="4.48187">
        <ele>1142.3</ele>
        <time>2018-08-19T09:21:44.000Z</time>
      </trkpt>
      <trkpt lat="45.32521" lon="4.48187">
        <ele>1142.4</ele>
        <time>2018-08-19T09:21:45.000Z</time>
      </trkpt>
      <trkpt lat="45.32519" lon="4.48188">
        <ele>1142.4</ele>
        <time>2018-08-19T09:21:46.000Z</time>
      </trkpt>
      <trkpt lat="45.32518" lon="4.48188">
        <ele>1142.4</ele>
        <time>2018-08-19T09:21:47.000Z</time>
      </trkpt>
      <trkpt lat="45.32517" lon="4.48189">
        <ele>1142.4</ele>
        <time>2018-08-19T09:21:48.000Z</time>
      </trkpt>
      <trkpt lat="45.32516" lon="4.4819">
        <ele>1142.5</ele>
        <time>2018-08-19T09:21:49.000Z</time>
      </trkpt>
      <trkpt lat="45.32515" lon="4.4819">
        <ele>1142.5</ele>
        <time>2018-08-19T09:21:50.000Z</time>
      </trkpt>
      <trkpt lat="45.32513" lon="4.48191">
        <ele>1142.5</ele>
        <time>2018-08-19T09:21:51.000Z</time>
      </trkpt>
      <trkpt lat="45.32512" lon="4.48192">
        <ele>1142.5</ele>
        <time>2018-08-19T09:21:52.000Z</time>
      </trkpt>
      <trkpt lat="45.32511" lon="4.48192">
        <ele>1142.5</ele>
        <time>2018-08-19T09:21:53.000Z</time>
      </trkpt>
      <trkpt lat="45.3251" lon="4.48193">
        <ele>1142.5</ele>
        <time>2018-08-19T09:21:54.000Z</time>
      </trkpt>
      <trkpt lat="45.32509" lon="4.48194">
        <ele>1142.4</ele>
        <time>2018-08-19T09:21:55.000Z</time>
      </trkpt>
      <trkpt lat="45.32508" lon="4.48195">
        <ele>1142.4</ele>
        <time>2018-08-19T09:21:56.000Z</time>
      </trkpt>
      <trkpt lat="45.32506" lon="4.48195">
        <ele>1142.4</ele>
        <time>2018-08-19T09:21:57.000Z</time>
      </trkpt>
      <trkpt lat="45.32505" lon="4.48196">
        <ele>1142.4</ele>
        <time>2018-08-19T09:21:58.000Z</time>
      </trkpt>
      <trkpt lat="45.32504" lon="4.48197">
        <ele>1142.4</ele>
        <time>2018-08-19T09:21:59.000Z</time>
      </trkpt>
      <trkpt lat="45.32503" lon="4.48198">
        <ele>1142.3</ele>
        <time>2018-08-19T09:22:00.000Z</time>
      </trkpt>
      <trkpt lat="45.32502" lon="4.48198">
        <ele>1142.3</ele>
        <time>2018-08-19T09:22:01.000Z</time>
      </trkpt>
      <trkpt lat="45.32501" lon="4.48199">
        <ele>1142.2</ele>
        <time>2018-08-19T09:22:02.000Z</time>
      </trkpt>
      <trkpt lat="45.325" lon="4.482">
        <ele>1142.2</ele>
        <time>2018-08-19T09:22:03.000Z</time>
      </trkpt>
      <trkpt lat="45.32499" lon="4.48201">
        <ele>1142.2</ele>
        <time>2018-08-19T09:22:04.000Z</time>
      </trkpt>
      <trkpt lat="45.32498" lon="4.48202">
        <ele>1142.2</ele>
        <time>2018-08-19T09:22:05.000Z</time>
      </trkpt>
      <trkpt lat="45.32496" lon="4.48203">
        <ele>1142.2</ele>
        <time>2018-08-19T09:22:06.000Z</time>
      </trkpt>
      <trkpt lat="45.32495" lon="4.48204">
        <ele>1142.2</ele>
        <time>2018-08-19T09:22:07.000Z</time>
      </trkpt>
      <trkpt lat="45.32494" lon="4.48204">
        <ele>1142.2</ele>
        <time>2018-08-19T09:22:08.000Z</time>
      </trkpt>
      <trkpt lat="45.32493" lon="4.48205">
        <ele>1142.2</ele>
        <time>2018-08-19T09:22:09.000Z</time>
      </trkpt>
      <trkpt lat="45.32492" lon="4.48206">
        <ele>1142.2</ele>
        <time>2018-08-19T09:22:10.000Z</time>
      </trkpt>
      <trkpt lat="45.32491" lon="4.48207">
        <ele>1142.2</ele>
        <time>2018-08-19T09:22:11.000Z</time>
      </trkpt>
      <trkpt lat="45.3249" lon="4.48208">
        <ele>1142.2</ele>
        <time>2018-08-19T09:22:12.000Z</time>
      </trkpt>
      <trkpt lat="45.32489" lon="4.48209">
        <ele>1142.2</ele>
        <time>2018-08-19T09:22:13.000Z</time>
      </trkpt>
      <trkpt lat="45.32488" lon="4.4821">
        <ele>1142.1</ele>
        <time>2018-08-19T09:22:14.000Z</time>
      </trkpt>
      <trkpt lat="45.32486" lon="4.48211">
        <ele>1142.1</ele>
        <time>2018-08-19T09:22:15.000Z</time>
      </trkpt>
      <trkpt lat="45.32485" lon="4.48212">
        <ele>1142.1</ele>
        <time>2018-08-19T09:22:16.000Z</time>
      </trkpt>
      <trkpt lat="45.32484" lon="4.48213">
        <ele>1142.1</ele>
        <time>2018-08-19T09:22:17.000Z</time>
      </trkpt>
      <trkpt lat="45.32483" lon="4.48214">
        <ele>1142.1</ele>
        <time>2018-08-19T09:22:18.000Z</time>
      </trkpt>
      <trkpt lat="45.32481" lon="4.48215">
        <ele>1142.1</ele>
        <time>2018-08-19T09:22:19.000Z</time>
      </trkpt>
      <trkpt lat="45.3248" lon="4.48216">
        <ele>1142.1</ele>
        <time>2018-08-19T09:22:20.000Z</time>
      </trkpt>
      <trkpt lat="45.32479" lon="4.48217">
        <ele>1142</ele>
        <time>2018-08-19T09:22:21.000Z</time>
      </trkpt>
      <trkpt lat="45.32477" lon="4.48218">
        <ele>1142</ele>
        <time>2018-08-19T09:22:22.000Z</time>
      </trkpt>
      <trkpt lat="45.32476" lon="4.48219">
        <ele>1142</ele>
        <time>2018-08-19T09:22:23.000Z</time>
      </trkpt>
      <trkpt lat="45.32475" lon="4.4822">
        <ele>1142</ele>
        <time>2018-08-19T09:22:24.000Z</time>
      </trkpt>
      <trkpt lat="45.32473" lon="4.48221">
        <ele>1142</ele>
        <time>2018-08-19T09:22:25.000Z</time>
      </trkpt>
      <trkpt lat="45.32472" lon="4.48222">
        <ele>1142</ele>
        <time>2018-08-19T09:22:26.000Z</time>
      </trkpt>
      <trkpt lat="45.3247" lon="4.48223">
        <ele>1142</ele>
        <time>2018-08-19T09:22:27.000Z</time>
      </trkpt>
      <trkpt lat="45.32469" lon="4.48224">
        <ele>1142</ele>
        <time>2018-08-19T09:22:28.000Z</time>
      </trkpt>
      <trkpt lat="45.32467" lon="4.48225">
        <ele>1141.9</ele>
        <time>2018-08-19T09:22:29.000Z</time>
      </trkpt>
      <trkpt lat="45.32466" lon="4.48226">
        <ele>1141.9</ele>
        <time>2018-08-19T09:22:30.000Z</time>
      </trkpt>
      <trkpt lat="45.32465" lon="4.48227">
        <ele>1141.9</ele>
        <time>2018-08-19T09:22:31.000Z</time>
      </trkpt>
      <trkpt lat="45.32463" lon="4.48228">
        <ele>1141.9</ele>
        <time>2018-08-19T09:22:32.000Z</time>
      </trkpt>
      <trkpt lat="45.32462" lon="4.48229">
        <ele>1141.9</ele>
        <time>2018-08-19T09:22:33.000Z</time>
      </trkpt>
      <trkpt lat="45.3246" lon="4.4823">
        <ele>1141.9</ele>
        <time>2018-08-19T09:22:34.000Z</time>
      </trkpt>
      <trkpt lat="45.32459" lon="4.48231">
        <ele>1141.9</ele>
        <time>2018-08-19T09:22:35.000Z</time>
      </trkpt>
      <trkpt lat="45.32457" lon="4.48232">
        <ele>1141.9</ele>
        <time>2018-08-19T09:22:36.000Z</time>
      </trkpt>
      <trkpt lat="45.32456" lon="4.48234">
        <ele>1141.8</ele>
        <time>2018-08-19T09:22:37.000Z</time>
      </trkpt>
      <trkpt lat="45.32455" lon="4.48235">
        <ele>1141.8</ele>
        <time>2018-08-19T09:22:38.000Z</time>
      </trkpt>
      <trkpt lat="45.32453" lon="4.48236">
        <ele>1141.8</ele>
        <time>2018-08-19T09:22:39.000Z</time>
      </trkpt>
      <trkpt lat="45.32452" lon="4.48236">
        <ele>1141.8</ele>
        <time>2018-08-19T09:22:40.000Z</time>
      </trkpt>
      <trkpt lat="45.3245" lon="4.48237">
        <ele>1141.8</ele>
        <time>2018-08-19T09:22:41.000Z</time>
      </trkpt>
      <trkpt lat="45.32449" lon="4.48238">
        <ele>1141.7</ele>
        <time>2018-08-19T09:22:42.000Z</time>
      </trkpt>
      <trkpt lat="45.32448" lon="4.48239">
        <ele>1141.7</ele>
        <time>2018-08-19T09:22:43.000Z</time>
      </trkpt>
      <trkpt lat="45.32447" lon="4.4824">
        <ele>1141.7</ele>
        <time>2018-08-19T09:22:44.000Z</time>
      </trkpt>
      <trkpt lat="45.32445" lon="4.48241">
        <ele>1141.7</ele>
        <time>2018-08-19T09:22:45.000Z</time>
      </trkpt>
      <trkpt lat="45.32444" lon="4.48242">
        <ele>1141.7</ele>
        <time>2018-08-19T09:22:46.000Z</time>
      </trkpt>
      <trkpt lat="45.32443" lon="4.48243">
        <ele>1141.7</ele>
        <time>2018-08-19T09:22:47.000Z</time>
      </trkpt>
      <trkpt lat="45.32442" lon="4.48244">
        <ele>1141.6</ele>
        <time>2018-08-19T09:22:48.000Z</time>
      </trkpt>
      <trkpt lat="45.3244" lon="4.48244">
        <ele>1141.6</ele>
        <time>2018-08-19T09:22:49.000Z</time>
      </trkpt>
      <trkpt lat="45.32439" lon="4.48245">
        <ele>1141.6</ele>
        <time>2018-08-19T09:22:50.000Z</time>
      </trkpt>
      <trkpt lat="45.32438" lon="4.48246">
        <ele>1141.6</ele>
        <time>2018-08-19T09:22:51.000Z</time>
      </trkpt>
      <trkpt lat="45.32437" lon="4.48247">
        <ele>1141.6</ele>
        <time>2018-08-19T09:22:52.000Z</time>
      </trkpt>
      <trkpt lat="45.32436" lon="4.48248">
        <ele>1141.5</ele>
        <time>2018-08-19T09:22:53.000Z</time>
      </trkpt>
      <trkpt lat="45.32434" lon="4.48249">
        <ele>1141.5</ele>
        <time>2018-08-19T09:22:54.000Z</time>
      </trkpt>
      <trkpt lat="45.32433" lon="4.4825">
        <ele>1141.5</ele>
        <time>2018-08-19T09:22:55.000Z</time>
      </trkpt>
      <trkpt lat="45.32432" lon="4.48251">
        <ele>1141.5</ele>
        <time>2018-08-19T09:22:56.000Z</time>
      </trkpt>
      <trkpt lat="45.32431" lon="4.48252">
        <ele>1141.5</ele>
        <time>2018-08-19T09:22:57.000Z</time>
      </trkpt>
      <trkpt lat="45.32429" lon="4.48253">
        <ele>1141.4</ele>
        <time>2018-08-19T09:22:58.000Z</time>
      </trkpt>
      <trkpt lat="45.32428" lon="4.48254">
        <ele>1141.4</ele>
        <time>2018-08-19T09:22:59.000Z</time>
      </trkpt>
      <trkpt lat="45.32427" lon="4.48255">
        <ele>1141.4</ele>
        <time>2018-08-19T09:23:00.000Z</time>
      </trkpt>
      <trkpt lat="45.32425" lon="4.48256">
        <ele>1141.4</ele>
        <time>2018-08-19T09:23:01.000Z</time>
      </trkpt>
      <trkpt lat="45.32424" lon="4.48257">
        <ele>1141.4</ele>
        <time>2018-08-19T09:23:02.000Z</time>
      </trkpt>
      <trkpt lat="45.32423" lon="4.48258">
        <ele>1141.4</ele>
        <time>2018-08-19T09:23:03.000Z</time>
      </trkpt>
      <trkpt lat="45.32421" lon="4.48259">
        <ele>1141.4</ele>
        <time>2018-08-19T09:23:04.000Z</time>
      </trkpt>
      <trkpt lat="45.3242" lon="4.4826">
        <ele>1141.3</ele>
        <time>2018-08-19T09:23:05.000Z</time>
      </trkpt>
      <trkpt lat="45.32419" lon="4.48261">
        <ele>1141.3</ele>
        <time>2018-08-19T09:23:06.000Z</time>
      </trkpt>
      <trkpt lat="45.32418" lon="4.48262">
        <ele>1141.3</ele>
        <time>2018-08-19T09:23:07.000Z</time>
      </trkpt>
      <trkpt lat="45.32417" lon="4.48263">
        <ele>1141.3</ele>
        <time>2018-08-19T09:23:08.000Z</time>
      </trkpt>
      <trkpt lat="45.32415" lon="4.48264">
        <ele>1141.4</ele>
        <time>2018-08-19T09:23:09.000Z</time>
      </trkpt>
      <trkpt lat="45.32414" lon="4.48266">
        <ele>1141.5</ele>
        <time>2018-08-19T09:23:10.000Z</time>
      </trkpt>
      <trkpt lat="45.32413" lon="4.48267">
        <ele>1141.6</ele>
        <time>2018-08-19T09:23:11.000Z</time>
      </trkpt>
      <trkpt lat="45.32412" lon="4.48268">
        <ele>1141.7</ele>
        <time>2018-08-19T09:23:12.000Z</time>
      </trkpt>
      <trkpt lat="45.32412" lon="4.48269">
        <ele>1141.8</ele>
        <time>2018-08-19T09:23:13.000Z</time>
      </trkpt>
      <trkpt lat="45.32411" lon="4.4827">
        <ele>1141.9</ele>
        <time>2018-08-19T09:23:14.000Z</time>
      </trkpt>
      <trkpt lat="45.3241" lon="4.48271">
        <ele>1142</ele>
        <time>2018-08-19T09:23:15.000Z</time>
      </trkpt>
      <trkpt lat="45.32409" lon="4.48272">
        <ele>1142</ele>
        <time>2018-08-19T09:23:16.000Z</time>
      </trkpt>
      <trkpt lat="45.32408" lon="4.48273">
        <ele>1142.1</ele>
        <time>2018-08-19T09:23:17.000Z</time>
      </trkpt>
      <trkpt lat="45.32407" lon="4.48274">
        <ele>1142.1</ele>
        <time>2018-08-19T09:23:18.000Z</time>
      </trkpt>
      <trkpt lat="45.32406" lon="4.48275">
        <ele>1142.1</ele>
        <time>2018-08-19T09:23:19.000Z</time>
      </trkpt>
      <trkpt lat="45.32406" lon="4.48276">
        <ele>1142.2</ele>
        <time>2018-08-19T09:23:20.000Z</time>
      </trkpt>
      <trkpt lat="45.32405" lon="4.48277">
        <ele>1142.2</ele>
        <time>2018-08-19T09:23:21.000Z</time>
      </trkpt>
      <trkpt lat="45.32404" lon="4.48278">
        <ele>1142.3</ele>
        <time>2018-08-19T09:23:22.000Z</time>
      </trkpt>
      <trkpt lat="45.32403" lon="4.48279">
        <ele>1142.3</ele>
        <time>2018-08-19T09:23:23.000Z</time>
      </trkpt>
      <trkpt lat="45.32402" lon="4.48281">
        <ele>1142.3</ele>
        <time>2018-08-19T09:23:24.000Z</time>
      </trkpt>
      <trkpt lat="45.32401" lon="4.48282">
        <ele>1142.3</ele>
        <time>2018-08-19T09:23:25.000Z</time>
      </trkpt>
      <trkpt lat="45.324" lon="4.48283">
        <ele>1142.4</ele>
        <time>2018-08-19T09:23:26.000Z</time>
      </trkpt>
      <trkpt lat="45.32399" lon="4.48284">
        <ele>1142.4</ele>
        <time>2018-08-19T09:23:27.000Z</time>
      </trkpt>
      <trkpt lat="45.32398" lon="4.48286">
        <ele>1142.4</ele>
        <time>2018-08-19T09:23:28.000Z</time>
      </trkpt>
      <trkpt lat="45.32397" lon="4.48287">
        <ele>1142.4</ele>
        <time>2018-08-19T09:23:29.000Z</time>
      </trkpt>
      <trkpt lat="45.32396" lon="4.48288">
        <ele>1142.4</ele>
        <time>2018-08-19T09:23:30.000Z</time>
      </trkpt>
      <trkpt lat="45.32395" lon="4.4829">
        <ele>1142.5</ele>
        <time>2018-08-19T09:23:31.000Z</time>
      </trkpt>
      <trkpt lat="45.32394" lon="4.48291">
        <ele>1142.5</ele>
        <time>2018-08-19T09:23:32.000Z</time>
      </trkpt>
      <trkpt lat="45.32393" lon="4.48292">
        <ele>1142.5</ele>
        <time>2018-08-19T09:23:33.000Z</time>
      </trkpt>
      <trkpt lat="45.32392" lon="4.48294">
        <ele>1142.4</ele>
        <time>2018-08-19T09:23:34.000Z</time>
      </trkpt>
      <trkpt lat="45.32391" lon="4.48295">
        <ele>1142.4</ele>
        <time>2018-08-19T09:23:35.000Z</time>
      </trkpt>
      <trkpt lat="45.3239" lon="4.48297">
        <ele>1142.4</ele>
        <time>2018-08-19T09:23:36.000Z</time>
      </trkpt>
      <trkpt lat="45.32389" lon="4.48299">
        <ele>1142.4</ele>
        <time>2018-08-19T09:23:37.000Z</time>
      </trkpt>
      <trkpt lat="45.32388" lon="4.483">
        <ele>1142.3</ele>
        <time>2018-08-19T09:23:38.000Z</time>
      </trkpt>
      <trkpt lat="45.32387" lon="4.48302">
        <ele>1142.3</ele>
        <time>2018-08-19T09:23:39.000Z</time>
      </trkpt>
      <trkpt lat="45.32385" lon="4.48304">
        <ele>1142.3</ele>
        <time>2018-08-19T09:23:40.000Z</time>
      </trkpt>
      <trkpt lat="45.32384" lon="4.48305">
        <ele>1142.2</ele>
        <time>2018-08-19T09:23:41.000Z</time>
      </trkpt>
      <trkpt lat="45.32383" lon="4.48307">
        <ele>1142.1</ele>
        <time>2018-08-19T09:23:42.000Z</time>
      </trkpt>
      <trkpt lat="45.32382" lon="4.48309">
        <ele>1142.1</ele>
        <time>2018-08-19T09:23:43.000Z</time>
      </trkpt>
      <trkpt lat="45.32381" lon="4.48311">
        <ele>1142</ele>
        <time>2018-08-19T09:23:44.000Z</time>
      </trkpt>
      <trkpt lat="45.32379" lon="4.48313">
        <ele>1141.9</ele>
        <time>2018-08-19T09:23:45.000Z</time>
      </trkpt>
      <trkpt lat="45.32378" lon="4.48314">
        <ele>1141.9</ele>
        <time>2018-08-19T09:23:46.000Z</time>
      </trkpt>
      <trkpt lat="45.32377" lon="4.48316">
        <ele>1141.8</ele>
        <time>2018-08-19T09:23:47.000Z</time>
      </trkpt>
      <trkpt lat="45.32376" lon="4.48317">
        <ele>1141.7</ele>
        <time>2018-08-19T09:23:48.000Z</time>
      </trkpt>
      <trkpt lat="45.32375" lon="4.48319">
        <ele>1141.7</ele>
        <time>2018-08-19T09:23:49.000Z</time>
      </trkpt>
      <trkpt lat="45.32374" lon="4.4832">
        <ele>1141.6</ele>
        <time>2018-08-19T09:23:50.000Z</time>
      </trkpt>
      <trkpt lat="45.32373" lon="4.48322">
        <ele>1141.6</ele>
        <time>2018-08-19T09:23:51.000Z</time>
      </trkpt>
      <trkpt lat="45.32371" lon="4.48323">
        <ele>1141.5</ele>
        <time>2018-08-19T09:23:52.000Z</time>
      </trkpt>
      <trkpt lat="45.3237" lon="4.48324">
        <ele>1141.5</ele>
        <time>2018-08-19T09:23:53.000Z</time>
      </trkpt>
      <trkpt lat="45.32369" lon="4.48325">
        <ele>1141.5</ele>
        <time>2018-08-19T09:23:54.000Z</time>
      </trkpt>
      <trkpt lat="45.32368" lon="4.48327">
        <ele>1141.4</ele>
        <time>2018-08-19T09:23:55.000Z</time>
      </trkpt>
      <trkpt lat="45.32367" lon="4.48328">
        <ele>1141.4</ele>
        <time>2018-08-19T09:23:56.000Z</time>
      </trkpt>
      <trkpt lat="45.32366" lon="4.48329">
        <ele>1141.4</ele>
        <time>2018-08-19T09:23:57.000Z</time>
      </trkpt>
      <trkpt lat="45.32365" lon="4.4833">
        <ele>1141.3</ele>
        <time>2018-08-19T09:23:58.000Z</time>
      </trkpt>
      <trkpt lat="45.32364" lon="4.48331">
        <ele>1141.3</ele>
        <time>2018-08-19T09:23:59.000Z</time>
      </trkpt>
      <trkpt lat="45.32363" lon="4.48332">
        <ele>1141.2</ele>
        <time>2018-08-19T09:24:00.000Z</time>
      </trkpt>
      <trkpt lat="45.32362" lon="4.48334">
        <ele>1141.2</ele>
        <time>2018-08-19T09:24:01.000Z</time>
      </trkpt>
      <trkpt lat="45.32361" lon="4.48335">
        <ele>1141.1</ele>
        <time>2018-08-19T09:24:02.000Z</time>
      </trkpt>
      <trkpt lat="45.3236" lon="4.48336">
        <ele>1141</ele>
        <time>2018-08-19T09:24:03.000Z</time>
      </trkpt>
      <trkpt lat="45.32359" lon="4.48337">
        <ele>1141</ele>
        <time>2018-08-19T09:24:04.000Z</time>
      </trkpt>
      <trkpt lat="45.32358" lon="4.48338">
        <ele>1140.9</ele>
        <time>2018-08-19T09:24:05.000Z</time>
      </trkpt>
      <trkpt lat="45.32357" lon="4.4834">
        <ele>1140.8</ele>
        <time>2018-08-19T09:24:06.000Z</time>
      </trkpt>
      <trkpt lat="45.32356" lon="4.48341">
        <ele>1140.7</ele>
        <time>2018-08-19T09:24:07.000Z</time>
      </trkpt>
      <trkpt lat="45.32355" lon="4.48342">
        <ele>1140.6</ele>
        <time>2018-08-19T09:24:08.000Z</time>
      </trkpt>
      <trkpt lat="45.32354" lon="4.48343">
        <ele>1140.5</ele>
        <time>2018-08-19T09:24:09.000Z</time>
      </trkpt>
      <trkpt lat="45.32353" lon="4.48345">
        <ele>1140.3</ele>
        <time>2018-08-19T09:24:10.000Z</time>
      </trkpt>
      <trkpt lat="45.32352" lon="4.48346">
        <ele>1140.2</ele>
        <time>2018-08-19T09:24:11.000Z</time>
      </trkpt>
      <trkpt lat="45.32351" lon="4.48347">
        <ele>1140.1</ele>
        <time>2018-08-19T09:24:12.000Z</time>
      </trkpt>
      <trkpt lat="45.3235" lon="4.48349">
        <ele>1140</ele>
        <time>2018-08-19T09:24:13.000Z</time>
      </trkpt>
      <trkpt lat="45.32349" lon="4.4835">
        <ele>1139.9</ele>
        <time>2018-08-19T09:24:14.000Z</time>
      </trkpt>
      <trkpt lat="45.32348" lon="4.48351">
        <ele>1139.7</ele>
        <time>2018-08-19T09:24:15.000Z</time>
      </trkpt>
      <trkpt lat="45.32348" lon="4.48352">
        <ele>1139.6</ele>
        <time>2018-08-19T09:24:16.000Z</time>
      </trkpt>
      <trkpt lat="45.32347" lon="4.48354">
        <ele>1139.5</ele>
        <time>2018-08-19T09:24:17.000Z</time>
      </trkpt>
      <trkpt lat="45.32346" lon="4.48355">
        <ele>1139.3</ele>
        <time>2018-08-19T09:24:18.000Z</time>
      </trkpt>
      <trkpt lat="45.32345" lon="4.48356">
        <ele>1139.2</ele>
        <time>2018-08-19T09:24:19.000Z</time>
      </trkpt>
      <trkpt lat="45.32344" lon="4.48357">
        <ele>1139.1</ele>
        <time>2018-08-19T09:24:20.000Z</time>
      </trkpt>
      <trkpt lat="45.32343" lon="4.48358">
        <ele>1139</ele>
        <time>2018-08-19T09:24:21.000Z</time>
      </trkpt>
      <trkpt lat="45.32342" lon="4.4836">
        <ele>1138.8</ele>
        <time>2018-08-19T09:24:22.000Z</time>
      </trkpt>
      <trkpt lat="45.32341" lon="4.48361">
        <ele>1138.7</ele>
        <time>2018-08-19T09:24:23.000Z</time>
      </trkpt>
      <trkpt lat="45.3234" lon="4.48362">
        <ele>1138.6</ele>
        <time>2018-08-19T09:24:24.000Z</time>
      </trkpt>
      <trkpt lat="45.32339" lon="4.48363">
        <ele>1138.4</ele>
        <time>2018-08-19T09:24:25.000Z</time>
      </trkpt>
      <trkpt lat="45.32338" lon="4.48364">
        <ele>1138.3</ele>
        <time>2018-08-19T09:24:26.000Z</time>
      </trkpt>
      <trkpt lat="45.32337" lon="4.48365">
        <ele>1138.2</ele>
        <time>2018-08-19T09:24:27.000Z</time>
      </trkpt>
      <trkpt lat="45.32336" lon="4.48366">
        <ele>1138.1</ele>
        <time>2018-08-19T09:24:28.000Z</time>
      </trkpt>
      <trkpt lat="45.32335" lon="4.48367">
        <ele>1138</ele>
        <time>2018-08-19T09:24:29.000Z</time>
      </trkpt>
      <trkpt lat="45.32334" lon="4.48369">
        <ele>1137.8</ele>
        <time>2018-08-19T09:24:30.000Z</time>
      </trkpt>
      <trkpt lat="45.32334" lon="4.4837">
        <ele>1137.7</ele>
        <time>2018-08-19T09:24:31.000Z</time>
      </trkpt>
      <trkpt lat="45.32333" lon="4.48371">
        <ele>1137.7</ele>
        <time>2018-08-19T09:24:32.000Z</time>
      </trkpt>
      <trkpt lat="45.32332" lon="4.48372">
        <ele>1137.6</ele>
        <time>2018-08-19T09:24:33.000Z</time>
      </trkpt>
      <trkpt lat="45.32331" lon="4.48373">
        <ele>1137.5</ele>
        <time>2018-08-19T09:24:34.000Z</time>
      </trkpt>
      <trkpt lat="45.3233" lon="4.48374">
        <ele>1137.5</ele>
        <time>2018-08-19T09:24:35.000Z</time>
      </trkpt>
      <trkpt lat="45.32328" lon="4.48375">
        <ele>1137.4</ele>
        <time>2018-08-19T09:24:36.000Z</time>
      </trkpt>
      <trkpt lat="45.32327" lon="4.48376">
        <ele>1137.4</ele>
        <time>2018-08-19T09:24:37.000Z</time>
      </trkpt>
      <trkpt lat="45.32326" lon="4.48377">
        <ele>1137.3</ele>
        <time>2018-08-19T09:24:38.000Z</time>
      </trkpt>
      <trkpt lat="45.32325" lon="4.48378">
        <ele>1137.2</ele>
        <time>2018-08-19T09:24:39.000Z</time>
      </trkpt>
      <trkpt lat="45.32324" lon="4.4838">
        <ele>1137.1</ele>
        <time>2018-08-19T09:24:40.000Z</time>
      </trkpt>
      <trkpt lat="45.32322" lon="4.48381">
        <ele>1137.1</ele>
        <time>2018-08-19T09:24:41.000Z</time>
      </trkpt>
      <trkpt lat="45.32321" lon="4.48382">
        <ele>1137</ele>
        <time>2018-08-19T09:24:42.000Z</time>
      </trkpt>
      <trkpt lat="45.32319" lon="4.48384">
        <ele>1136.9</ele>
        <time>2018-08-19T09:24:43.000Z</time>
      </trkpt>
      <trkpt lat="45.32318" lon="4.48385">
        <ele>1136.8</ele>
        <time>2018-08-19T09:24:44.000Z</time>
      </trkpt>
      <trkpt lat="45.32316" lon="4.48387">
        <ele>1136.7</ele>
        <time>2018-08-19T09:24:45.000Z</time>
      </trkpt>
      <trkpt lat="45.32315" lon="4.48388">
        <ele>1136.6</ele>
        <time>2018-08-19T09:24:46.000Z</time>
      </trkpt>
      <trkpt lat="45.32314" lon="4.4839">
        <ele>1136.5</ele>
        <time>2018-08-19T09:24:47.000Z</time>
      </trkpt>
      <trkpt lat="45.32312" lon="4.48391">
        <ele>1136.4</ele>
        <time>2018-08-19T09:24:48.000Z</time>
      </trkpt>
      <trkpt lat="45.32311" lon="4.48392">
        <ele>1136.3</ele>
        <time>2018-08-19T09:24:49.000Z</time>
      </trkpt>
      <trkpt lat="45.3231" lon="4.48393">
        <ele>1136.2</ele>
        <time>2018-08-19T09:24:50.000Z</time>
      </trkpt>
      <trkpt lat="45.32309" lon="4.48394">
        <ele>1136.1</ele>
        <time>2018-08-19T09:24:51.000Z</time>
      </trkpt>
      <trkpt lat="45.32308" lon="4.48395">
        <ele>1136</ele>
        <time>2018-08-19T09:24:52.000Z</time>
      </trkpt>
      <trkpt lat="45.32307" lon="4.48397">
        <ele>1135.9</ele>
        <time>2018-08-19T09:24:53.000Z</time>
      </trkpt>
      <trkpt lat="45.32306" lon="4.48398">
        <ele>1135.7</ele>
        <time>2018-08-19T09:24:54.000Z</time>
      </trkpt>
      <trkpt lat="45.32305" lon="4.48399">
        <ele>1135.6</ele>
        <time>2018-08-19T09:24:55.000Z</time>
      </trkpt>
      <trkpt lat="45.32304" lon="4.484">
        <ele>1135.4</ele>
        <time>2018-08-19T09:24:56.000Z</time>
      </trkpt>
      <trkpt lat="45.32303" lon="4.48401">
        <ele>1135.2</ele>
        <time>2018-08-19T09:24:57.000Z</time>
      </trkpt>
      <trkpt lat="45.32303" lon="4.48403">
        <ele>1135</ele>
        <time>2018-08-19T09:24:58.000Z</time>
      </trkpt>
      <trkpt lat="45.32302" lon="4.48404">
        <ele>1134.8</ele>
        <time>2018-08-19T09:24:59.000Z</time>
      </trkpt>
      <trkpt lat="45.32301" lon="4.48405">
        <ele>1134.6</ele>
        <time>2018-08-19T09:25:00.000Z</time>
      </trkpt>
      <trkpt lat="45.323" lon="4.48407">
        <ele>1134.4</ele>
        <time>2018-08-19T09:25:01.000Z</time>
      </trkpt>
      <trkpt lat="45.32299" lon="4.48408">
        <ele>1134.2</ele>
        <time>2018-08-19T09:25:02.000Z</time>
      </trkpt>
      <trkpt lat="45.32299" lon="4.48409">
        <ele>1133.9</ele>
        <time>2018-08-19T09:25:03.000Z</time>
      </trkpt>
      <trkpt lat="45.32298" lon="4.48411">
        <ele>1133.7</ele>
        <time>2018-08-19T09:25:04.000Z</time>
      </trkpt>
      <trkpt lat="45.32297" lon="4.48412">
        <ele>1133.5</ele>
        <time>2018-08-19T09:25:05.000Z</time>
      </trkpt>
      <trkpt lat="45.32296" lon="4.48413">
        <ele>1133.4</ele>
        <time>2018-08-19T09:25:06.000Z</time>
      </trkpt>
      <trkpt lat="45.32295" lon="4.48414">
        <ele>1133.2</ele>
        <time>2018-08-19T09:25:07.000Z</time>
      </trkpt>
      <trkpt lat="45.32294" lon="4.48415">
        <ele>1133.1</ele>
        <time>2018-08-19T09:25:08.000Z</time>
      </trkpt>
      <trkpt lat="45.32293" lon="4.48416">
        <ele>1133</ele>
        <time>2018-08-19T09:25:09.000Z</time>
      </trkpt>
      <trkpt lat="45.32292" lon="4.48417">
        <ele>1132.9</ele>
        <time>2018-08-19T09:25:10.000Z</time>
      </trkpt>
      <trkpt lat="45.32291" lon="4.48418">
        <ele>1132.9</ele>
        <time>2018-08-19T09:25:11.000Z</time>
      </trkpt>
      <trkpt lat="45.3229" lon="4.48419">
        <ele>1133</ele>
        <time>2018-08-19T09:25:12.000Z</time>
      </trkpt>
      <trkpt lat="45.32289" lon="4.48419">
        <ele>1133.1</ele>
        <time>2018-08-19T09:25:13.000Z</time>
      </trkpt>
      <trkpt lat="45.32288" lon="4.4842">
        <ele>1133.1</ele>
        <time>2018-08-19T09:25:14.000Z</time>
      </trkpt>
      <trkpt lat="45.32287" lon="4.48421">
        <ele>1133.2</ele>
        <time>2018-08-19T09:25:15.000Z</time>
      </trkpt>
      <trkpt lat="45.32286" lon="4.48422">
        <ele>1133.3</ele>
        <time>2018-08-19T09:25:16.000Z</time>
      </trkpt>
      <trkpt lat="45.32285" lon="4.48422">
        <ele>1133.4</ele>
        <time>2018-08-19T09:25:17.000Z</time>
      </trkpt>
      <trkpt lat="45.32284" lon="4.48423">
        <ele>1133.4</ele>
        <time>2018-08-19T09:25:18.000Z</time>
      </trkpt>
      <trkpt lat="45.32283" lon="4.48424">
        <ele>1133.5</ele>
        <time>2018-08-19T09:25:19.000Z</time>
      </trkpt>
      <trkpt lat="45.32282" lon="4.48424">
        <ele>1133.6</ele>
        <time>2018-08-19T09:25:20.000Z</time>
      </trkpt>
      <trkpt lat="45.32281" lon="4.48425">
        <ele>1133.7</ele>
        <time>2018-08-19T09:25:21.000Z</time>
      </trkpt>
      <trkpt lat="45.3228" lon="4.48426">
        <ele>1133.7</ele>
        <time>2018-08-19T09:25:22.000Z</time>
      </trkpt>
      <trkpt lat="45.32279" lon="4.48426">
        <ele>1133.8</ele>
        <time>2018-08-19T09:25:23.000Z</time>
      </trkpt>
      <trkpt lat="45.32278" lon="4.48427">
        <ele>1133.9</ele>
        <time>2018-08-19T09:25:24.000Z</time>
      </trkpt>
      <trkpt lat="45.32277" lon="4.48428">
        <ele>1133.9</ele>
        <time>2018-08-19T09:25:25.000Z</time>
      </trkpt>
      <trkpt lat="45.32276" lon="4.48428">
        <ele>1134</ele>
        <time>2018-08-19T09:25:26.000Z</time>
      </trkpt>
      <trkpt lat="45.32275" lon="4.48429">
        <ele>1134.1</ele>
        <time>2018-08-19T09:25:27.000Z</time>
      </trkpt>
      <trkpt lat="45.32274" lon="4.4843">
        <ele>1134.1</ele>
        <time>2018-08-19T09:25:28.000Z</time>
      </trkpt>
      <trkpt lat="45.32273" lon="4.4843">
        <ele>1134.2</ele>
        <time>2018-08-19T09:25:29.000Z</time>
      </trkpt>
      <trkpt lat="45.32272" lon="4.48431">
        <ele>1134.2</ele>
        <time>2018-08-19T09:25:30.000Z</time>
      </trkpt>
      <trkpt lat="45.32271" lon="4.48432">
        <ele>1134.3</ele>
        <time>2018-08-19T09:25:31.000Z</time>
      </trkpt>
      <trkpt lat="45.3227" lon="4.48433">
        <ele>1134.4</ele>
        <time>2018-08-19T09:25:32.000Z</time>
      </trkpt>
      <trkpt lat="45.32269" lon="4.48433">
        <ele>1134.4</ele>
        <time>2018-08-19T09:25:33.000Z</time>
      </trkpt>
      <trkpt lat="45.32268" lon="4.48434">
        <ele>1134.5</ele>
        <time>2018-08-19T09:25:34.000Z</time>
      </trkpt>
      <trkpt lat="45.32267" lon="4.48435">
        <ele>1134.5</ele>
        <time>2018-08-19T09:25:35.000Z</time>
      </trkpt>
      <trkpt lat="45.32266" lon="4.48435">
        <ele>1134.6</ele>
        <time>2018-08-19T09:25:36.000Z</time>
      </trkpt>
      <trkpt lat="45.32265" lon="4.48436">
        <ele>1134.7</ele>
        <time>2018-08-19T09:25:37.000Z</time>
      </trkpt>
      <trkpt lat="45.32264" lon="4.48437">
        <ele>1134.8</ele>
        <time>2018-08-19T09:25:38.000Z</time>
      </trkpt>
      <trkpt lat="45.32263" lon="4.48437">
        <ele>1134.9</ele>
        <time>2018-08-19T09:25:39.000Z</time>
      </trkpt>
      <trkpt lat="45.32262" lon="4.48438">
        <ele>1135</ele>
        <time>2018-08-19T09:25:40.000Z</time>
      </trkpt>
      <trkpt lat="45.32261" lon="4.48438">
        <ele>1135.1</ele>
        <time>2018-08-19T09:25:41.000Z</time>
      </trkpt>
      <trkpt lat="45.3226" lon="4.48438">
        <ele>1135.2</ele>
        <time>2018-08-19T09:25:42.000Z</time>
      </trkpt>
      <trkpt lat="45.32259" lon="4.48438">
        <ele>1135.3</ele>
        <time>2018-08-19T09:25:43.000Z</time>
      </trkpt>
      <trkpt lat="45.32258" lon="4.48439">
        <ele>1135.4</ele>
        <time>2018-08-19T09:25:44.000Z</time>
      </trkpt>
      <trkpt lat="45.32257" lon="4.48439">
        <ele>1135.5</ele>
        <time>2018-08-19T09:25:45.000Z</time>
      </trkpt>
      <trkpt lat="45.32256" lon="4.48439">
        <ele>1135.6</ele>
        <time>2018-08-19T09:25:46.000Z</time>
      </trkpt>
      <trkpt lat="45.32255" lon="4.4844">
        <ele>1135.7</ele>
        <time>2018-08-19T09:25:47.000Z</time>
      </trkpt>
      <trkpt lat="45.32254" lon="4.4844">
        <ele>1135.8</ele>
        <time>2018-08-19T09:25:48.000Z</time>
      </trkpt>
      <trkpt lat="45.32254" lon="4.48441">
        <ele>1135.9</ele>
        <time>2018-08-19T09:25:49.000Z</time>
      </trkpt>
      <trkpt lat="45.32253" lon="4.48441">
        <ele>1136</ele>
        <time>2018-08-19T09:25:50.000Z</time>
      </trkpt>
      <trkpt lat="45.32252" lon="4.48442">
        <ele>1136</ele>
        <time>2018-08-19T09:25:51.000Z</time>
      </trkpt>
      <trkpt lat="45.32251" lon="4.48443">
        <ele>1136.1</ele>
        <time>2018-08-19T09:25:52.000Z</time>
      </trkpt>
      <trkpt lat="45.3225" lon="4.48444">
        <ele>1136.1</ele>
        <time>2018-08-19T09:25:53.000Z</time>
      </trkpt>
      <trkpt lat="45.32249" lon="4.48444">
        <ele>1136.1</ele>
        <time>2018-08-19T09:25:54.000Z</time>
      </trkpt>
      <trkpt lat="45.32248" lon="4.48445">
        <ele>1136.2</ele>
        <time>2018-08-19T09:25:55.000Z</time>
      </trkpt>
      <trkpt lat="45.32248" lon="4.48446">
        <ele>1136.2</ele>
        <time>2018-08-19T09:25:56.000Z</time>
      </trkpt>
      <trkpt lat="45.32247" lon="4.48447">
        <ele>1136.3</ele>
        <time>2018-08-19T09:25:57.000Z</time>
      </trkpt>
      <trkpt lat="45.32246" lon="4.48447">
        <ele>1136.4</ele>
        <time>2018-08-19T09:25:58.000Z</time>
      </trkpt>
      <trkpt lat="45.32245" lon="4.48448">
        <ele>1136.4</ele>
        <time>2018-08-19T09:25:59.000Z</time>
      </trkpt>
      <trkpt lat="45.32244" lon="4.48448">
        <ele>1136.6</ele>
        <time>2018-08-19T09:26:00.000Z</time>
      </trkpt>
      <trkpt lat="45.32243" lon="4.48448">
        <ele>1136.7</ele>
        <time>2018-08-19T09:26:01.000Z</time>
      </trkpt>
      <trkpt lat="45.32242" lon="4.48448">
        <ele>1136.9</ele>
        <time>2018-08-19T09:26:02.000Z</time>
      </trkpt>
      <trkpt lat="45.32241" lon="4.48448">
        <ele>1137</ele>
        <time>2018-08-19T09:26:03.000Z</time>
      </trkpt>
      <trkpt lat="45.3224" lon="4.48448">
        <ele>1137.2</ele>
        <time>2018-08-19T09:26:04.000Z</time>
      </trkpt>
      <trkpt lat="45.32239" lon="4.48448">
        <ele>1137.5</ele>
        <time>2018-08-19T09:26:05.000Z</time>
      </trkpt>
      <trkpt lat="45.32237" lon="4.48448">
        <ele>1137.6</ele>
        <time>2018-08-19T09:26:06.000Z</time>
      </trkpt>
      <trkpt lat="45.32236" lon="4.48448">
        <ele>1137.8</ele>
        <time>2018-08-19T09:26:07.000Z</time>
      </trkpt>
      <trkpt lat="45.32235" lon="4.48448">
        <ele>1138</ele>
        <time>2018-08-19T09:26:08.000Z</time>
      </trkpt>
      <trkpt lat="45.32234" lon="4.48448">
        <ele>1138.1</ele>
        <time>2018-08-19T09:26:09.000Z</time>
      </trkpt>
      <trkpt lat="45.32233" lon="4.48448">
        <ele>1138.3</ele>
        <time>2018-08-19T09:26:10.000Z</time>
      </trkpt>
      <trkpt lat="45.32232" lon="4.48448">
        <ele>1138.4</ele>
        <time>2018-08-19T09:26:11.000Z</time>
      </trkpt>
      <trkpt lat="45.32231" lon="4.48448">
        <ele>1138.5</ele>
        <time>2018-08-19T09:26:12.000Z</time>
      </trkpt>
      <trkpt lat="45.3223" lon="4.48448">
        <ele>1138.7</ele>
        <time>2018-08-19T09:26:13.000Z</time>
      </trkpt>
      <trkpt lat="45.32229" lon="4.48448">
        <ele>1138.9</ele>
        <time>2018-08-19T09:26:14.000Z</time>
      </trkpt>
      <trkpt lat="45.32228" lon="4.48448">
        <ele>1139.1</ele>
        <time>2018-08-19T09:26:15.000Z</time>
      </trkpt>
      <trkpt lat="45.32227" lon="4.48447">
        <ele>1139.3</ele>
        <time>2018-08-19T09:26:16.000Z</time>
      </trkpt>
      <trkpt lat="45.32226" lon="4.48447">
        <ele>1139.5</ele>
        <time>2018-08-19T09:26:17.000Z</time>
      </trkpt>
      <trkpt lat="45.32225" lon="4.48447">
        <ele>1139.7</ele>
        <time>2018-08-19T09:26:18.000Z</time>
      </trkpt>
      <trkpt lat="45.32224" lon="4.48447">
        <ele>1139.9</ele>
        <time>2018-08-19T09:26:19.000Z</time>
      </trkpt>
      <trkpt lat="45.32223" lon="4.48447">
        <ele>1140.1</ele>
        <time>2018-08-19T09:26:20.000Z</time>
      </trkpt>
      <trkpt lat="45.32222" lon="4.48447">
        <ele>1140.2</ele>
        <time>2018-08-19T09:26:21.000Z</time>
      </trkpt>
      <trkpt lat="45.32221" lon="4.48448">
        <ele>1140.3</ele>
        <time>2018-08-19T09:26:22.000Z</time>
      </trkpt>
      <trkpt lat="45.32219" lon="4.48448">
        <ele>1140.4</ele>
        <time>2018-08-19T09:26:23.000Z</time>
      </trkpt>
      <trkpt lat="45.32218" lon="4.48449">
        <ele>1140.5</ele>
        <time>2018-08-19T09:26:24.000Z</time>
      </trkpt>
      <trkpt lat="45.32217" lon="4.4845">
        <ele>1140.6</ele>
        <time>2018-08-19T09:26:25.000Z</time>
      </trkpt>
      <trkpt lat="45.32216" lon="4.4845">
        <ele>1140.7</ele>
        <time>2018-08-19T09:26:26.000Z</time>
      </trkpt>
      <trkpt lat="45.32215" lon="4.48451">
        <ele>1140.8</ele>
        <time>2018-08-19T09:26:27.000Z</time>
      </trkpt>
      <trkpt lat="45.32214" lon="4.48451">
        <ele>1140.9</ele>
        <time>2018-08-19T09:26:28.000Z</time>
      </trkpt>
      <trkpt lat="45.32213" lon="4.48451">
        <ele>1141</ele>
        <time>2018-08-19T09:26:29.000Z</time>
      </trkpt>
      <trkpt lat="45.32212" lon="4.48451">
        <ele>1141.1</ele>
        <time>2018-08-19T09:26:30.000Z</time>
      </trkpt>
      <trkpt lat="45.32211" lon="4.48452">
        <ele>1141.3</ele>
        <time>2018-08-19T09:26:31.000Z</time>
      </trkpt>
      <trkpt lat="45.3221" lon="4.48451">
        <ele>1141.4</ele>
        <time>2018-08-19T09:26:32.000Z</time>
      </trkpt>
      <trkpt lat="45.32209" lon="4.48451">
        <ele>1141.6</ele>
        <time>2018-08-19T09:26:33.000Z</time>
      </trkpt>
      <trkpt lat="45.32208" lon="4.48451">
        <ele>1141.8</ele>
        <time>2018-08-19T09:26:34.000Z</time>
      </trkpt>
      <trkpt lat="45.32207" lon="4.48451">
        <ele>1142</ele>
        <time>2018-08-19T09:26:35.000Z</time>
      </trkpt>
      <trkpt lat="45.32206" lon="4.4845">
        <ele>1142.1</ele>
        <time>2018-08-19T09:26:36.000Z</time>
      </trkpt>
      <trkpt lat="45.32206" lon="4.4845">
        <ele>1142.3</ele>
        <time>2018-08-19T09:26:37.000Z</time>
      </trkpt>
      <trkpt lat="45.32205" lon="4.4845">
        <ele>1142.5</ele>
        <time>2018-08-19T09:26:38.000Z</time>
      </trkpt>
      <trkpt lat="45.32204" lon="4.48449">
        <ele>1142.8</ele>
        <time>2018-08-19T09:26:39.000Z</time>
      </trkpt>
      <trkpt lat="45.32203" lon="4.48449">
        <ele>1142.9</ele>
        <time>2018-08-19T09:26:40.000Z</time>
      </trkpt>
      <trkpt lat="45.32202" lon="4.48448">
        <ele>1143.2</ele>
        <time>2018-08-19T09:26:41.000Z</time>
      </trkpt>
      <trkpt lat="45.32201" lon="4.48448">
        <ele>1143.4</ele>
        <time>2018-08-19T09:26:42.000Z</time>
      </trkpt>
      <trkpt lat="45.322" lon="4.48447">
        <ele>1143.6</ele>
        <time>2018-08-19T09:26:43.000Z</time>
      </trkpt>
      <trkpt lat="45.322" lon="4.48446">
        <ele>1143.8</ele>
        <time>2018-08-19T09:26:44.000Z</time>
      </trkpt>
      <trkpt lat="45.32199" lon="4.48446">
        <ele>1144</ele>
        <time>2018-08-19T09:26:45.000Z</time>
      </trkpt>
      <trkpt lat="45.32198" lon="4.48445">
        <ele>1144.2</ele>
        <time>2018-08-19T09:26:46.000Z</time>
      </trkpt>
      <trkpt lat="45.32197" lon="4.48444">
        <ele>1144.5</ele>
        <time>2018-08-19T09:26:47.000Z</time>
      </trkpt>
      <trkpt lat="45.32196" lon="4.48444">
        <ele>1144.7</ele>
        <time>2018-08-19T09:26:48.000Z</time>
      </trkpt>
      <trkpt lat="45.32196" lon="4.48443">
        <ele>1144.9</ele>
        <time>2018-08-19T09:26:49.000Z</time>
      </trkpt>
      <trkpt lat="45.32195" lon="4.48442">
        <ele>1145.2</ele>
        <time>2018-08-19T09:26:50.000Z</time>
      </trkpt>
      <trkpt lat="45.32194" lon="4.48441">
        <ele>1145.5</ele>
        <time>2018-08-19T09:26:51.000Z</time>
      </trkpt>
      <trkpt lat="45.32193" lon="4.4844">
        <ele>1145.7</ele>
        <time>2018-08-19T09:26:52.000Z</time>
      </trkpt>
      <trkpt lat="45.32193" lon="4.48439">
        <ele>1146</ele>
        <time>2018-08-19T09:26:53.000Z</time>
      </trkpt>
      <trkpt lat="45.32192" lon="4.48438">
        <ele>1146.3</ele>
        <time>2018-08-19T09:26:54.000Z</time>
      </trkpt>
      <trkpt lat="45.32191" lon="4.48437">
        <ele>1146.5</ele>
        <time>2018-08-19T09:26:55.000Z</time>
      </trkpt>
      <trkpt lat="45.32191" lon="4.48436">
        <ele>1146.7</ele>
        <time>2018-08-19T09:26:56.000Z</time>
      </trkpt>
      <trkpt lat="45.32191" lon="4.48436">
        <ele>1146.9</ele>
        <time>2018-08-19T09:26:57.000Z</time>
      </trkpt>
      <trkpt lat="45.3219" lon="4.48435">
        <ele>1147</ele>
        <time>2018-08-19T09:26:58.000Z</time>
      </trkpt>
      <trkpt lat="45.3219" lon="4.48435">
        <ele>1147</ele>
        <time>2018-08-19T09:26:59.000Z</time>
      </trkpt>
      <trkpt lat="45.3219" lon="4.48435">
        <ele>1147.1</ele>
        <time>2018-08-19T09:27:00.000Z</time>
      </trkpt>
      <trkpt lat="45.3219" lon="4.48434">
        <ele>1147.2</ele>
        <time>2018-08-19T09:27:01.000Z</time>
      </trkpt>
      <trkpt lat="45.32189" lon="4.48434">
        <ele>1147.3</ele>
        <time>2018-08-19T09:27:02.000Z</time>
      </trkpt>
      <trkpt lat="45.32189" lon="4.48433">
        <ele>1147.5</ele>
        <time>2018-08-19T09:27:03.000Z</time>
      </trkpt>
      <trkpt lat="45.32187" lon="4.48432">
        <ele>1147.9</ele>
        <time>2018-08-19T09:27:04.000Z</time>
      </trkpt>
      <trkpt lat="45.32186" lon="4.48431">
        <ele>1148.2</ele>
        <time>2018-08-19T09:27:05.000Z</time>
      </trkpt>
      <trkpt lat="45.32185" lon="4.48431">
        <ele>1148.5</ele>
        <time>2018-08-19T09:27:06.000Z</time>
      </trkpt>
      <trkpt lat="45.32184" lon="4.48431">
        <ele>1148.7</ele>
        <time>2018-08-19T09:27:07.000Z</time>
      </trkpt>
      <trkpt lat="45.32183" lon="4.4843">
        <ele>1148.9</ele>
        <time>2018-08-19T09:27:08.000Z</time>
      </trkpt>
      <trkpt lat="45.32182" lon="4.4843">
        <ele>1149.1</ele>
        <time>2018-08-19T09:27:09.000Z</time>
      </trkpt>
      <trkpt lat="45.32181" lon="4.4843">
        <ele>1149.3</ele>
        <time>2018-08-19T09:27:10.000Z</time>
      </trkpt>
      <trkpt lat="45.32181" lon="4.48429">
        <ele>1149.5</ele>
        <time>2018-08-19T09:27:11.000Z</time>
      </trkpt>
      <trkpt lat="45.3218" lon="4.48429">
        <ele>1149.6</ele>
        <time>2018-08-19T09:27:12.000Z</time>
      </trkpt>
      <trkpt lat="45.32179" lon="4.48429">
        <ele>1149.8</ele>
        <time>2018-08-19T09:27:13.000Z</time>
      </trkpt>
      <trkpt lat="45.32178" lon="4.48429">
        <ele>1150</ele>
        <time>2018-08-19T09:27:14.000Z</time>
      </trkpt>
      <trkpt lat="45.32178" lon="4.48429">
        <ele>1150.1</ele>
        <time>2018-08-19T09:27:15.000Z</time>
      </trkpt>
      <trkpt lat="45.32177" lon="4.48428">
        <ele>1150.2</ele>
        <time>2018-08-19T09:27:16.000Z</time>
      </trkpt>
      <trkpt lat="45.32177" lon="4.48428">
        <ele>1150.4</ele>
        <time>2018-08-19T09:27:17.000Z</time>
      </trkpt>
      <trkpt lat="45.32176" lon="4.48428">
        <ele>1150.5</ele>
        <time>2018-08-19T09:27:18.000Z</time>
      </trkpt>
      <trkpt lat="45.32176" lon="4.48427">
        <ele>1150.7</ele>
        <time>2018-08-19T09:27:19.000Z</time>
      </trkpt>
      <trkpt lat="45.32175" lon="4.48427">
        <ele>1150.8</ele>
        <time>2018-08-19T09:27:20.000Z</time>
      </trkpt>
      <trkpt lat="45.32175" lon="4.48427">
        <ele>1151</ele>
        <time>2018-08-19T09:27:21.000Z</time>
      </trkpt>
      <trkpt lat="45.32174" lon="4.48426">
        <ele>1151.1</ele>
        <time>2018-08-19T09:27:22.000Z</time>
      </trkpt>
      <trkpt lat="45.32174" lon="4.48426">
        <ele>1151.2</ele>
        <time>2018-08-19T09:27:23.000Z</time>
      </trkpt>
      <trkpt lat="45.32173" lon="4.48426">
        <ele>1151.4</ele>
        <time>2018-08-19T09:27:24.000Z</time>
      </trkpt>
      <trkpt lat="45.32172" lon="4.48425">
        <ele>1151.7</ele>
        <time>2018-08-19T09:27:25.000Z</time>
      </trkpt>
      <trkpt lat="45.32171" lon="4.48425">
        <ele>1151.9</ele>
        <time>2018-08-19T09:27:26.000Z</time>
      </trkpt>
      <trkpt lat="45.3217" lon="4.48424">
        <ele>1152.2</ele>
        <time>2018-08-19T09:27:27.000Z</time>
      </trkpt>
      <trkpt lat="45.32169" lon="4.48424">
        <ele>1152.4</ele>
        <time>2018-08-19T09:27:28.000Z</time>
      </trkpt>
      <trkpt lat="45.32168" lon="4.48424">
        <ele>1152.6</ele>
        <time>2018-08-19T09:27:29.000Z</time>
      </trkpt>
      <trkpt lat="45.32167" lon="4.48423">
        <ele>1152.8</ele>
        <time>2018-08-19T09:27:30.000Z</time>
      </trkpt>
      <trkpt lat="45.32166" lon="4.48423">
        <ele>1153</ele>
        <time>2018-08-19T09:27:31.000Z</time>
      </trkpt>
      <trkpt lat="45.32165" lon="4.48422">
        <ele>1153.1</ele>
        <time>2018-08-19T09:27:32.000Z</time>
      </trkpt>
      <trkpt lat="45.32165" lon="4.48422">
        <ele>1153.3</ele>
        <time>2018-08-19T09:27:33.000Z</time>
      </trkpt>
      <trkpt lat="45.32164" lon="4.48421">
        <ele>1153.4</ele>
        <time>2018-08-19T09:27:34.000Z</time>
      </trkpt>
      <trkpt lat="45.32163" lon="4.48421">
        <ele>1153.6</ele>
        <time>2018-08-19T09:27:35.000Z</time>
      </trkpt>
      <trkpt lat="45.32162" lon="4.4842">
        <ele>1153.8</ele>
        <time>2018-08-19T09:27:36.000Z</time>
      </trkpt>
      <trkpt lat="45.32161" lon="4.48419">
        <ele>1154</ele>
        <time>2018-08-19T09:27:37.000Z</time>
      </trkpt>
      <trkpt lat="45.3216" lon="4.48418">
        <ele>1154.2</ele>
        <time>2018-08-19T09:27:38.000Z</time>
      </trkpt>
      <trkpt lat="45.32159" lon="4.48418">
        <ele>1154.4</ele>
        <time>2018-08-19T09:27:39.000Z</time>
      </trkpt>
      <trkpt lat="45.32159" lon="4.48417">
        <ele>1154.6</ele>
        <time>2018-08-19T09:27:40.000Z</time>
      </trkpt>
      <trkpt lat="45.32158" lon="4.48416">
        <ele>1154.9</ele>
        <time>2018-08-19T09:27:41.000Z</time>
      </trkpt>
      <trkpt lat="45.32157" lon="4.48415">
        <ele>1155.2</ele>
        <time>2018-08-19T09:27:42.000Z</time>
      </trkpt>
      <trkpt lat="45.32156" lon="4.48414">
        <ele>1155.5</ele>
        <time>2018-08-19T09:27:43.000Z</time>
      </trkpt>
      <trkpt lat="45.32156" lon="4.48413">
        <ele>1155.8</ele>
        <time>2018-08-19T09:27:44.000Z</time>
      </trkpt>
      <trkpt lat="45.32155" lon="4.48412">
        <ele>1156.1</ele>
        <time>2018-08-19T09:27:45.000Z</time>
      </trkpt>
      <trkpt lat="45.32155" lon="4.48411">
        <ele>1156.5</ele>
        <time>2018-08-19T09:27:46.000Z</time>
      </trkpt>
      <trkpt lat="45.32154" lon="4.4841">
        <ele>1156.8</ele>
        <time>2018-08-19T09:27:47.000Z</time>
      </trkpt>
      <trkpt lat="45.32154" lon="4.48409">
        <ele>1157.1</ele>
        <time>2018-08-19T09:27:48.000Z</time>
      </trkpt>
      <trkpt lat="45.32153" lon="4.48408">
        <ele>1157.4</ele>
        <time>2018-08-19T09:27:49.000Z</time>
      </trkpt>
      <trkpt lat="45.32153" lon="4.48407">
        <ele>1157.7</ele>
        <time>2018-08-19T09:27:50.000Z</time>
      </trkpt>
      <trkpt lat="45.32152" lon="4.48406">
        <ele>1158</ele>
        <time>2018-08-19T09:27:51.000Z</time>
      </trkpt>
      <trkpt lat="45.32152" lon="4.48405">
        <ele>1158.3</ele>
        <time>2018-08-19T09:27:52.000Z</time>
      </trkpt>
      <trkpt lat="45.32152" lon="4.48404">
        <ele>1158.6</ele>
        <time>2018-08-19T09:27:53.000Z</time>
      </trkpt>
      <trkpt lat="45.32151" lon="4.48403">
        <ele>1158.9</ele>
        <time>2018-08-19T09:27:54.000Z</time>
      </trkpt>
      <trkpt lat="45.3215" lon="4.48402">
        <ele>1159.2</ele>
        <time>2018-08-19T09:27:55.000Z</time>
      </trkpt>
      <trkpt lat="45.32149" lon="4.48401">
        <ele>1159.6</ele>
        <time>2018-08-19T09:27:56.000Z</time>
      </trkpt>
      <trkpt lat="45.32148" lon="4.484">
        <ele>1160.1</ele>
        <time>2018-08-19T09:27:57.000Z</time>
      </trkpt>
      <trkpt lat="45.32147" lon="4.48398">
        <ele>1160.5</ele>
        <time>2018-08-19T09:27:58.000Z</time>
      </trkpt>
      <trkpt lat="45.32146" lon="4.48397">
        <ele>1161</ele>
        <time>2018-08-19T09:27:59.000Z</time>
      </trkpt>
      <trkpt lat="45.32145" lon="4.48396">
        <ele>1161.4</ele>
        <time>2018-08-19T09:28:00.000Z</time>
      </trkpt>
      <trkpt lat="45.32145" lon="4.48394">
        <ele>1161.7</ele>
        <time>2018-08-19T09:28:01.000Z</time>
      </trkpt>
      <trkpt lat="45.32144" lon="4.48393">
        <ele>1162.1</ele>
        <time>2018-08-19T09:28:02.000Z</time>
      </trkpt>
      <trkpt lat="45.32143" lon="4.48392">
        <ele>1162.4</ele>
        <time>2018-08-19T09:28:03.000Z</time>
      </trkpt>
      <trkpt lat="45.32143" lon="4.48391">
        <ele>1162.7</ele>
        <time>2018-08-19T09:28:04.000Z</time>
      </trkpt>
      <trkpt lat="45.32143" lon="4.48391">
        <ele>1162.9</ele>
        <time>2018-08-19T09:28:05.000Z</time>
      </trkpt>
      <trkpt lat="45.32142" lon="4.4839">
        <ele>1163.2</ele>
        <time>2018-08-19T09:28:06.000Z</time>
      </trkpt>
      <trkpt lat="45.32142" lon="4.48389">
        <ele>1163.5</ele>
        <time>2018-08-19T09:28:07.000Z</time>
      </trkpt>
      <trkpt lat="45.32142" lon="4.48388">
        <ele>1163.7</ele>
        <time>2018-08-19T09:28:08.000Z</time>
      </trkpt>
      <trkpt lat="45.32142" lon="4.48387">
        <ele>1163.9</ele>
        <time>2018-08-19T09:28:09.000Z</time>
      </trkpt>
      <trkpt lat="45.32141" lon="4.48386">
        <ele>1164.2</ele>
        <time>2018-08-19T09:28:10.000Z</time>
      </trkpt>
      <trkpt lat="45.32141" lon="4.48385">
        <ele>1164.5</ele>
        <time>2018-08-19T09:28:11.000Z</time>
      </trkpt>
      <trkpt lat="45.3214" lon="4.48384">
        <ele>1164.9</ele>
        <time>2018-08-19T09:28:12.000Z</time>
      </trkpt>
      <trkpt lat="45.3214" lon="4.48383">
        <ele>1165.2</ele>
        <time>2018-08-19T09:28:13.000Z</time>
      </trkpt>
      <trkpt lat="45.32139" lon="4.48382">
        <ele>1165.6</ele>
        <time>2018-08-19T09:28:14.000Z</time>
      </trkpt>
      <trkpt lat="45.32139" lon="4.48381">
        <ele>1166</ele>
        <time>2018-08-19T09:28:15.000Z</time>
      </trkpt>
      <trkpt lat="45.32138" lon="4.48379">
        <ele>1166.4</ele>
        <time>2018-08-19T09:28:16.000Z</time>
      </trkpt>
      <trkpt lat="45.32138" lon="4.48378">
        <ele>1166.8</ele>
        <time>2018-08-19T09:28:17.000Z</time>
      </trkpt>
      <trkpt lat="45.32137" lon="4.48377">
        <ele>1167.2</ele>
        <time>2018-08-19T09:28:18.000Z</time>
      </trkpt>
      <trkpt lat="45.32137" lon="4.48375">
        <ele>1167.6</ele>
        <time>2018-08-19T09:28:19.000Z</time>
      </trkpt>
      <trkpt lat="45.32136" lon="4.48374">
        <ele>1168</ele>
        <time>2018-08-19T09:28:20.000Z</time>
      </trkpt>
      <trkpt lat="45.32136" lon="4.48373">
        <ele>1168.4</ele>
        <time>2018-08-19T09:28:21.000Z</time>
      </trkpt>
      <trkpt lat="45.32135" lon="4.48371">
        <ele>1168.8</ele>
        <time>2018-08-19T09:28:22.000Z</time>
      </trkpt>
      <trkpt lat="45.32135" lon="4.4837">
        <ele>1169.1</ele>
        <time>2018-08-19T09:28:23.000Z</time>
      </trkpt>
      <trkpt lat="45.32135" lon="4.48369">
        <ele>1169.4</ele>
        <time>2018-08-19T09:28:24.000Z</time>
      </trkpt>
      <trkpt lat="45.32134" lon="4.48368">
        <ele>1169.7</ele>
        <time>2018-08-19T09:28:25.000Z</time>
      </trkpt>
      <trkpt lat="45.32134" lon="4.48367">
        <ele>1170</ele>
        <time>2018-08-19T09:28:26.000Z</time>
      </trkpt>
      <trkpt lat="45.32134" lon="4.48367">
        <ele>1170.2</ele>
        <time>2018-08-19T09:28:27.000Z</time>
      </trkpt>
      <trkpt lat="45.32134" lon="4.48366">
        <ele>1170.4</ele>
        <time>2018-08-19T09:28:28.000Z</time>
      </trkpt>
      <trkpt lat="45.32134" lon="4.48365">
        <ele>1170.6</ele>
        <time>2018-08-19T09:28:29.000Z</time>
      </trkpt>
      <trkpt lat="45.32133" lon="4.48364">
        <ele>1170.9</ele>
        <time>2018-08-19T09:28:30.000Z</time>
      </trkpt>
      <trkpt lat="45.32133" lon="4.48363">
        <ele>1171.1</ele>
        <time>2018-08-19T09:28:31.000Z</time>
      </trkpt>
      <trkpt lat="45.32133" lon="4.48363">
        <ele>1171.4</ele>
        <time>2018-08-19T09:28:32.000Z</time>
      </trkpt>
      <trkpt lat="45.32132" lon="4.48362">
        <ele>1171.6</ele>
        <time>2018-08-19T09:28:33.000Z</time>
      </trkpt>
      <trkpt lat="45.32132" lon="4.48361">
        <ele>1171.9</ele>
        <time>2018-08-19T09:28:34.000Z</time>
      </trkpt>
      <trkpt lat="45.32132" lon="4.4836">
        <ele>1172.1</ele>
        <time>2018-08-19T09:28:35.000Z</time>
      </trkpt>
      <trkpt lat="45.32131" lon="4.4836">
        <ele>1172.3</ele>
        <time>2018-08-19T09:28:36.000Z</time>
      </trkpt>
      <trkpt lat="45.32131" lon="4.48359">
        <ele>1172.4</ele>
        <time>2018-08-19T09:28:37.000Z</time>
      </trkpt>
      <trkpt lat="45.32131" lon="4.48359">
        <ele>1172.5</ele>
        <time>2018-08-19T09:28:38.000Z</time>
      </trkpt>
      <trkpt lat="45.32131" lon="4.48359">
        <ele>1172.6</ele>
        <time>2018-08-19T09:28:39.000Z</time>
      </trkpt>
      <trkpt lat="45.32131" lon="4.48358">
        <ele>1172.7</ele>
        <time>2018-08-19T09:28:40.000Z</time>
      </trkpt>
      <trkpt lat="45.3213" lon="4.48358">
        <ele>1172.8</ele>
        <time>2018-08-19T09:28:41.000Z</time>
      </trkpt>
      <trkpt lat="45.32129" lon="4.48358">
        <ele>1173</ele>
        <time>2018-08-19T09:28:42.000Z</time>
      </trkpt>
      <trkpt lat="45.32128" lon="4.48358">
        <ele>1173.1</ele>
        <time>2018-08-19T09:28:43.000Z</time>
      </trkpt>
      <trkpt lat="45.32127" lon="4.48357">
        <ele>1173.2</ele>
        <time>2018-08-19T09:28:44.000Z</time>
      </trkpt>
      <trkpt lat="45.32125" lon="4.48358">
        <ele>1173.3</ele>
        <time>2018-08-19T09:28:45.000Z</time>
      </trkpt>
      <trkpt lat="45.32124" lon="4.48358">
        <ele>1173.4</ele>
        <time>2018-08-19T09:28:46.000Z</time>
      </trkpt>
      <trkpt lat="45.32123" lon="4.48358">
        <ele>1173.4</ele>
        <time>2018-08-19T09:28:47.000Z</time>
      </trkpt>
      <trkpt lat="45.32122" lon="4.48358">
        <ele>1173.4</ele>
        <time>2018-08-19T09:28:48.000Z</time>
      </trkpt>
      <trkpt lat="45.32121" lon="4.48359">
        <ele>1173.3</ele>
        <time>2018-08-19T09:28:49.000Z</time>
      </trkpt>
      <trkpt lat="45.3212" lon="4.48359">
        <ele>1173.3</ele>
        <time>2018-08-19T09:28:50.000Z</time>
      </trkpt>
      <trkpt lat="45.32119" lon="4.48359">
        <ele>1173.3</ele>
        <time>2018-08-19T09:28:51.000Z</time>
      </trkpt>
      <trkpt lat="45.32118" lon="4.48359">
        <ele>1173.3</ele>
        <time>2018-08-19T09:28:52.000Z</time>
      </trkpt>
      <trkpt lat="45.32117" lon="4.4836">
        <ele>1173.3</ele>
        <time>2018-08-19T09:28:53.000Z</time>
      </trkpt>
      <trkpt lat="45.32116" lon="4.4836">
        <ele>1173.3</ele>
        <time>2018-08-19T09:28:54.000Z</time>
      </trkpt>
      <trkpt lat="45.32116" lon="4.4836">
        <ele>1173.3</ele>
        <time>2018-08-19T09:28:55.000Z</time>
      </trkpt>
      <trkpt lat="45.32115" lon="4.4836">
        <ele>1173.3</ele>
        <time>2018-08-19T09:28:56.000Z</time>
      </trkpt>
      <trkpt lat="45.32114" lon="4.48361">
        <ele>1173.2</ele>
        <time>2018-08-19T09:28:57.000Z</time>
      </trkpt>
      <trkpt lat="45.32113" lon="4.48361">
        <ele>1173.2</ele>
        <time>2018-08-19T09:28:58.000Z</time>
      </trkpt>
      <trkpt lat="45.32112" lon="4.48362">
        <ele>1173.1</ele>
        <time>2018-08-19T09:28:59.000Z</time>
      </trkpt>
      <trkpt lat="45.32111" lon="4.48363">
        <ele>1173</ele>
        <time>2018-08-19T09:29:00.000Z</time>
      </trkpt>
      <trkpt lat="45.3211" lon="4.48363">
        <ele>1172.9</ele>
        <time>2018-08-19T09:29:01.000Z</time>
      </trkpt>
      <trkpt lat="45.32109" lon="4.48364">
        <ele>1172.8</ele>
        <time>2018-08-19T09:29:02.000Z</time>
      </trkpt>
      <trkpt lat="45.32108" lon="4.48364">
        <ele>1172.8</ele>
        <time>2018-08-19T09:29:03.000Z</time>
      </trkpt>
      <trkpt lat="45.32107" lon="4.48364">
        <ele>1172.8</ele>
        <time>2018-08-19T09:29:04.000Z</time>
      </trkpt>
      <trkpt lat="45.32106" lon="4.48364">
        <ele>1172.9</ele>
        <time>2018-08-19T09:29:05.000Z</time>
      </trkpt>
      <trkpt lat="45.32105" lon="4.48364">
        <ele>1172.9</ele>
        <time>2018-08-19T09:29:06.000Z</time>
      </trkpt>
      <trkpt lat="45.32105" lon="4.48364">
        <ele>1173</ele>
        <time>2018-08-19T09:29:07.000Z</time>
      </trkpt>
      <trkpt lat="45.32105" lon="4.48364">
        <ele>1173</ele>
        <time>2018-08-19T09:29:08.000Z</time>
      </trkpt>
      <trkpt lat="45.32104" lon="4.48364">
        <ele>1172.9</ele>
        <time>2018-08-19T09:29:09.000Z</time>
      </trkpt>
      <trkpt lat="45.32103" lon="4.48365">
        <ele>1172.9</ele>
        <time>2018-08-19T09:29:10.000Z</time>
      </trkpt>
      <trkpt lat="45.32102" lon="4.48365">
        <ele>1173</ele>
        <time>2018-08-19T09:29:11.000Z</time>
      </trkpt>
      <trkpt lat="45.32101" lon="4.48365">
        <ele>1173.1</ele>
        <time>2018-08-19T09:29:12.000Z</time>
      </trkpt>
      <trkpt lat="45.32099" lon="4.48365">
        <ele>1173.2</ele>
        <time>2018-08-19T09:29:13.000Z</time>
      </trkpt>
      <trkpt lat="45.32098" lon="4.48365">
        <ele>1173.3</ele>
        <time>2018-08-19T09:29:14.000Z</time>
      </trkpt>
      <trkpt lat="45.32097" lon="4.48365">
        <ele>1173.4</ele>
        <time>2018-08-19T09:29:15.000Z</time>
      </trkpt>
      <trkpt lat="45.32096" lon="4.48365">
        <ele>1173.4</ele>
        <time>2018-08-19T09:29:16.000Z</time>
      </trkpt>
      <trkpt lat="45.32096" lon="4.48365">
        <ele>1173.5</ele>
        <time>2018-08-19T09:29:17.000Z</time>
      </trkpt>
      <trkpt lat="45.32095" lon="4.48365">
        <ele>1173.5</ele>
        <time>2018-08-19T09:29:18.000Z</time>
      </trkpt>
      <trkpt lat="45.32094" lon="4.48365">
        <ele>1173.5</ele>
        <time>2018-08-19T09:29:19.000Z</time>
      </trkpt>
      <trkpt lat="45.32092" lon="4.48366">
        <ele>1173.5</ele>
        <time>2018-08-19T09:29:20.000Z</time>
      </trkpt>
      <trkpt lat="45.3209" lon="4.48366">
        <ele>1173.5</ele>
        <time>2018-08-19T09:29:21.000Z</time>
      </trkpt>
      <trkpt lat="45.32089" lon="4.48367">
        <ele>1173.4</ele>
        <time>2018-08-19T09:29:22.000Z</time>
      </trkpt>
      <trkpt lat="45.32088" lon="4.48367">
        <ele>1173.4</ele>
        <time>2018-08-19T09:29:23.000Z</time>
      </trkpt>
      <trkpt lat="45.32087" lon="4.48367">
        <ele>1173.4</ele>
        <time>2018-08-19T09:29:24.000Z</time>
      </trkpt>
      <trkpt lat="45.32085" lon="4.48368">
        <ele>1173.4</ele>
        <time>2018-08-19T09:29:25.000Z</time>
      </trkpt>
      <trkpt lat="45.32084" lon="4.48368">
        <ele>1173.5</ele>
        <time>2018-08-19T09:29:26.000Z</time>
      </trkpt>
      <trkpt lat="45.32082" lon="4.48368">
        <ele>1173.6</ele>
        <time>2018-08-19T09:29:27.000Z</time>
      </trkpt>
      <trkpt lat="45.32081" lon="4.48368">
        <ele>1173.7</ele>
        <time>2018-08-19T09:29:28.000Z</time>
      </trkpt>
      <trkpt lat="45.3208" lon="4.48368">
        <ele>1173.8</ele>
        <time>2018-08-19T09:29:29.000Z</time>
      </trkpt>
      <trkpt lat="45.32078" lon="4.48368">
        <ele>1174</ele>
        <time>2018-08-19T09:29:30.000Z</time>
      </trkpt>
      <trkpt lat="45.32077" lon="4.48368">
        <ele>1174.1</ele>
        <time>2018-08-19T09:29:31.000Z</time>
      </trkpt>
      <trkpt lat="45.32076" lon="4.48367">
        <ele>1174.3</ele>
        <time>2018-08-19T09:29:32.000Z</time>
      </trkpt>
      <trkpt lat="45.32075" lon="4.48367">
        <ele>1174.4</ele>
        <time>2018-08-19T09:29:33.000Z</time>
      </trkpt>
      <trkpt lat="45.32073" lon="4.48367">
        <ele>1174.6</ele>
        <time>2018-08-19T09:29:34.000Z</time>
      </trkpt>
      <trkpt lat="45.32072" lon="4.48367">
        <ele>1174.8</ele>
        <time>2018-08-19T09:29:35.000Z</time>
      </trkpt>
      <trkpt lat="45.32071" lon="4.48366">
        <ele>1175</ele>
        <time>2018-08-19T09:29:36.000Z</time>
      </trkpt>
      <trkpt lat="45.3207" lon="4.48366">
        <ele>1175.2</ele>
        <time>2018-08-19T09:29:37.000Z</time>
      </trkpt>
      <trkpt lat="45.32069" lon="4.48366">
        <ele>1175.3</ele>
        <time>2018-08-19T09:29:38.000Z</time>
      </trkpt>
      <trkpt lat="45.32068" lon="4.48365">
        <ele>1175.5</ele>
        <time>2018-08-19T09:29:39.000Z</time>
      </trkpt>
      <trkpt lat="45.32067" lon="4.48365">
        <ele>1175.7</ele>
        <time>2018-08-19T09:29:40.000Z</time>
      </trkpt>
      <trkpt lat="45.32066" lon="4.48365">
        <ele>1175.9</ele>
        <time>2018-08-19T09:29:41.000Z</time>
      </trkpt>
      <trkpt lat="45.32065" lon="4.48364">
        <ele>1176.1</ele>
        <time>2018-08-19T09:29:42.000Z</time>
      </trkpt>
      <trkpt lat="45.32064" lon="4.48364">
        <ele>1176.2</ele>
        <time>2018-08-19T09:29:43.000Z</time>
      </trkpt>
      <trkpt lat="45.32062" lon="4.48364">
        <ele>1176.4</ele>
        <time>2018-08-19T09:29:44.000Z</time>
      </trkpt>
      <trkpt lat="45.32061" lon="4.48363">
        <ele>1176.6</ele>
        <time>2018-08-19T09:29:45.000Z</time>
      </trkpt>
      <trkpt lat="45.3206" lon="4.48363">
        <ele>1176.7</ele>
        <time>2018-08-19T09:29:46.000Z</time>
      </trkpt>
      <trkpt lat="45.32059" lon="4.48363">
        <ele>1176.8</ele>
        <time>2018-08-19T09:29:47.000Z</time>
      </trkpt>
      <trkpt lat="45.32058" lon="4.48363">
        <ele>1176.9</ele>
        <time>2018-08-19T09:29:48.000Z</time>
      </trkpt>
      <trkpt lat="45.32057" lon="4.48363">
        <ele>1177</ele>
        <time>2018-08-19T09:29:49.000Z</time>
      </trkpt>
      <trkpt lat="45.32056" lon="4.48363">
        <ele>1177</ele>
        <time>2018-08-19T09:29:50.000Z</time>
      </trkpt>
      <trkpt lat="45.32054" lon="4.48364">
        <ele>1177</ele>
        <time>2018-08-19T09:29:51.000Z</time>
      </trkpt>
      <trkpt lat="45.32053" lon="4.48364">
        <ele>1177.1</ele>
        <time>2018-08-19T09:29:52.000Z</time>
      </trkpt>
      <trkpt lat="45.32052" lon="4.48364">
        <ele>1177</ele>
        <time>2018-08-19T09:29:53.000Z</time>
      </trkpt>
      <trkpt lat="45.32051" lon="4.48365">
        <ele>1177</ele>
        <time>2018-08-19T09:29:54.000Z</time>
      </trkpt>
      <trkpt lat="45.3205" lon="4.48365">
        <ele>1177</ele>
        <time>2018-08-19T09:29:55.000Z</time>
      </trkpt>
      <trkpt lat="45.32049" lon="4.48365">
        <ele>1177.1</ele>
        <time>2018-08-19T09:29:56.000Z</time>
      </trkpt>
      <trkpt lat="45.32048" lon="4.48365">
        <ele>1177.1</ele>
        <time>2018-08-19T09:29:57.000Z</time>
      </trkpt>
      <trkpt lat="45.32047" lon="4.48365">
        <ele>1177.2</ele>
        <time>2018-08-19T09:29:58.000Z</time>
      </trkpt>
      <trkpt lat="45.32046" lon="4.48365">
        <ele>1177.4</ele>
        <time>2018-08-19T09:29:59.000Z</time>
      </trkpt>
      <trkpt lat="45.32045" lon="4.48365">
        <ele>1177.5</ele>
        <time>2018-08-19T09:30:00.000Z</time>
      </trkpt>
      <trkpt lat="45.32045" lon="4.48365">
        <ele>1177.7</ele>
        <time>2018-08-19T09:30:01.000Z</time>
      </trkpt>
      <trkpt lat="45.32044" lon="4.48364">
        <ele>1177.8</ele>
        <time>2018-08-19T09:30:02.000Z</time>
      </trkpt>
      <trkpt lat="45.32043" lon="4.48364">
        <ele>1177.9</ele>
        <time>2018-08-19T09:30:03.000Z</time>
      </trkpt>
      <trkpt lat="45.32043" lon="4.48364">
        <ele>1178</ele>
        <time>2018-08-19T09:30:04.000Z</time>
      </trkpt>
      <trkpt lat="45.32042" lon="4.48364">
        <ele>1178.1</ele>
        <time>2018-08-19T09:30:05.000Z</time>
      </trkpt>
      <trkpt lat="45.32042" lon="4.48363">
        <ele>1178.3</ele>
        <time>2018-08-19T09:30:06.000Z</time>
      </trkpt>
      <trkpt lat="45.32041" lon="4.48362">
        <ele>1178.6</ele>
        <time>2018-08-19T09:30:07.000Z</time>
      </trkpt>
      <trkpt lat="45.3204" lon="4.48361">
        <ele>1178.9</ele>
        <time>2018-08-19T09:30:08.000Z</time>
      </trkpt>
      <trkpt lat="45.3204" lon="4.4836">
        <ele>1179.2</ele>
        <time>2018-08-19T09:30:09.000Z</time>
      </trkpt>
      <trkpt lat="45.32039" lon="4.4836">
        <ele>1179.5</ele>
        <time>2018-08-19T09:30:10.000Z</time>
      </trkpt>
      <trkpt lat="45.32037" lon="4.48359">
        <ele>1179.8</ele>
        <time>2018-08-19T09:30:11.000Z</time>
      </trkpt>
      <trkpt lat="45.32036" lon="4.48358">
        <ele>1180</ele>
        <time>2018-08-19T09:30:12.000Z</time>
      </trkpt>
      <trkpt lat="45.32035" lon="4.48358">
        <ele>1180.3</ele>
        <time>2018-08-19T09:30:13.000Z</time>
      </trkpt>
      <trkpt lat="45.32034" lon="4.48358">
        <ele>1180.5</ele>
        <time>2018-08-19T09:30:14.000Z</time>
      </trkpt>
      <trkpt lat="45.32033" lon="4.48357">
        <ele>1180.7</ele>
        <time>2018-08-19T09:30:15.000Z</time>
      </trkpt>
      <trkpt lat="45.32032" lon="4.48357">
        <ele>1180.8</ele>
        <time>2018-08-19T09:30:16.000Z</time>
      </trkpt>
      <trkpt lat="45.3203" lon="4.48357">
        <ele>1181</ele>
        <time>2018-08-19T09:30:17.000Z</time>
      </trkpt>
      <trkpt lat="45.32029" lon="4.48356">
        <ele>1181.2</ele>
        <time>2018-08-19T09:30:18.000Z</time>
      </trkpt>
      <trkpt lat="45.32028" lon="4.48356">
        <ele>1181.3</ele>
        <time>2018-08-19T09:30:19.000Z</time>
      </trkpt>
      <trkpt lat="45.32028" lon="4.48356">
        <ele>1181.4</ele>
        <time>2018-08-19T09:30:20.000Z</time>
      </trkpt>
      <trkpt lat="45.32027" lon="4.48356">
        <ele>1181.6</ele>
        <time>2018-08-19T09:30:21.000Z</time>
      </trkpt>
      <trkpt lat="45.32026" lon="4.48356">
        <ele>1181.7</ele>
        <time>2018-08-19T09:30:22.000Z</time>
      </trkpt>
      <trkpt lat="45.32026" lon="4.48355">
        <ele>1181.8</ele>
        <time>2018-08-19T09:30:23.000Z</time>
      </trkpt>
      <trkpt lat="45.32025" lon="4.48355">
        <ele>1182</ele>
        <time>2018-08-19T09:30:24.000Z</time>
      </trkpt>
      <trkpt lat="45.32025" lon="4.48355">
        <ele>1182.1</ele>
        <time>2018-08-19T09:30:25.000Z</time>
      </trkpt>
      <trkpt lat="45.32025" lon="4.48354">
        <ele>1182.2</ele>
        <time>2018-08-19T09:30:26.000Z</time>
      </trkpt>
      <trkpt lat="45.32024" lon="4.48354">
        <ele>1182.2</ele>
        <time>2018-08-19T09:30:27.000Z</time>
      </trkpt>
      <trkpt lat="45.32023" lon="4.48354">
        <ele>1182.3</ele>
        <time>2018-08-19T09:30:28.000Z</time>
      </trkpt>
      <trkpt lat="45.32022" lon="4.48354">
        <ele>1182.4</ele>
        <time>2018-08-19T09:30:29.000Z</time>
      </trkpt>
      <trkpt lat="45.32021" lon="4.48354">
        <ele>1182.6</ele>
        <time>2018-08-19T09:30:30.000Z</time>
      </trkpt>
      <trkpt lat="45.3202" lon="4.48354">
        <ele>1182.7</ele>
        <time>2018-08-19T09:30:31.000Z</time>
      </trkpt>
      <trkpt lat="45.32019" lon="4.48354">
        <ele>1182.8</ele>
        <time>2018-08-19T09:30:32.000Z</time>
      </trkpt>
      <trkpt lat="45.32019" lon="4.48353">
        <ele>1182.9</ele>
        <time>2018-08-19T09:30:33.000Z</time>
      </trkpt>
      <trkpt lat="45.32018" lon="4.48353">
        <ele>1183</ele>
        <time>2018-08-19T09:30:34.000Z</time>
      </trkpt>
      <trkpt lat="45.32018" lon="4.48353">
        <ele>1183</ele>
        <time>2018-08-19T09:30:35.000Z</time>
      </trkpt>
      <trkpt lat="45.32016" lon="4.48354">
        <ele>1183</ele>
        <time>2018-08-19T09:30:36.000Z</time>
      </trkpt>
      <trkpt lat="45.32015" lon="4.48354">
        <ele>1183.1</ele>
        <time>2018-08-19T09:30:37.000Z</time>
      </trkpt>
      <trkpt lat="45.32013" lon="4.48354">
        <ele>1183.1</ele>
        <time>2018-08-19T09:30:38.000Z</time>
      </trkpt>
      <trkpt lat="45.32013" lon="4.48354">
        <ele>1183.2</ele>
        <time>2018-08-19T09:30:39.000Z</time>
      </trkpt>
      <trkpt lat="45.32012" lon="4.48354">
        <ele>1183.2</ele>
        <time>2018-08-19T09:30:40.000Z</time>
      </trkpt>
      <trkpt lat="45.32011" lon="4.48354">
        <ele>1183.3</ele>
        <time>2018-08-19T09:30:41.000Z</time>
      </trkpt>
      <trkpt lat="45.32011" lon="4.48354">
        <ele>1183.3</ele>
        <time>2018-08-19T09:30:42.000Z</time>
      </trkpt>
      <trkpt lat="45.3201" lon="4.48354">
        <ele>1183.4</ele>
        <time>2018-08-19T09:30:43.000Z</time>
      </trkpt>
      <trkpt lat="45.32009" lon="4.48354">
        <ele>1183.4</ele>
        <time>2018-08-19T09:30:44.000Z</time>
      </trkpt>
      <trkpt lat="45.32008" lon="4.48354">
        <ele>1183.6</ele>
        <time>2018-08-19T09:30:45.000Z</time>
      </trkpt>
      <trkpt lat="45.32007" lon="4.48354">
        <ele>1183.7</ele>
        <time>2018-08-19T09:30:46.000Z</time>
      </trkpt>
      <trkpt lat="45.32006" lon="4.48354">
        <ele>1183.9</ele>
        <time>2018-08-19T09:30:47.000Z</time>
      </trkpt>
      <trkpt lat="45.32005" lon="4.48354">
        <ele>1184</ele>
        <time>2018-08-19T09:30:48.000Z</time>
      </trkpt>
      <trkpt lat="45.32004" lon="4.48353">
        <ele>1184.2</ele>
        <time>2018-08-19T09:30:49.000Z</time>
      </trkpt>
      <trkpt lat="45.32003" lon="4.48353">
        <ele>1184.3</ele>
        <time>2018-08-19T09:30:50.000Z</time>
      </trkpt>
      <trkpt lat="45.32002" lon="4.48353">
        <ele>1184.5</ele>
        <time>2018-08-19T09:30:51.000Z</time>
      </trkpt>
      <trkpt lat="45.32002" lon="4.48352">
        <ele>1184.6</ele>
        <time>2018-08-19T09:30:52.000Z</time>
      </trkpt>
      <trkpt lat="45.32001" lon="4.48352">
        <ele>1184.7</ele>
        <time>2018-08-19T09:30:53.000Z</time>
      </trkpt>
      <trkpt lat="45.32001" lon="4.48352">
        <ele>1184.9</ele>
        <time>2018-08-19T09:30:54.000Z</time>
      </trkpt>
      <trkpt lat="45.32" lon="4.48352">
        <ele>1184.9</ele>
        <time>2018-08-19T09:30:55.000Z</time>
      </trkpt>
      <trkpt lat="45.32" lon="4.48351">
        <ele>1185</ele>
        <time>2018-08-19T09:30:56.000Z</time>
      </trkpt>
      <trkpt lat="45.31999" lon="4.48351">
        <ele>1185.2</ele>
        <time>2018-08-19T09:30:57.000Z</time>
      </trkpt>
      <trkpt lat="45.31999" lon="4.48351">
        <ele>1185.4</ele>
        <time>2018-08-19T09:30:58.000Z</time>
      </trkpt>
      <trkpt lat="45.31997" lon="4.4835">
        <ele>1185.8</ele>
        <time>2018-08-19T09:30:59.000Z</time>
      </trkpt>
      <trkpt lat="45.31996" lon="4.4835">
        <ele>1186.3</ele>
        <time>2018-08-19T09:31:00.000Z</time>
      </trkpt>
      <trkpt lat="45.31995" lon="4.48349">
        <ele>1186.6</ele>
        <time>2018-08-19T09:31:01.000Z</time>
      </trkpt>
      <trkpt lat="45.31994" lon="4.48348">
        <ele>1186.9</ele>
        <time>2018-08-19T09:31:02.000Z</time>
      </trkpt>
      <trkpt lat="45.31993" lon="4.48348">
        <ele>1187.3</ele>
        <time>2018-08-19T09:31:03.000Z</time>
      </trkpt>
      <trkpt lat="45.31992" lon="4.48347">
        <ele>1187.7</ele>
        <time>2018-08-19T09:31:04.000Z</time>
      </trkpt>
      <trkpt lat="45.31992" lon="4.48346">
        <ele>1188.1</ele>
        <time>2018-08-19T09:31:05.000Z</time>
      </trkpt>
      <trkpt lat="45.31991" lon="4.48345">
        <ele>1188.4</ele>
        <time>2018-08-19T09:31:06.000Z</time>
      </trkpt>
      <trkpt lat="45.3199" lon="4.48345">
        <ele>1188.8</ele>
        <time>2018-08-19T09:31:07.000Z</time>
      </trkpt>
      <trkpt lat="45.31989" lon="4.48344">
        <ele>1189.1</ele>
        <time>2018-08-19T09:31:08.000Z</time>
      </trkpt>
      <trkpt lat="45.31988" lon="4.48343">
        <ele>1189.3</ele>
        <time>2018-08-19T09:31:09.000Z</time>
      </trkpt>
      <trkpt lat="45.31988" lon="4.48343">
        <ele>1189.5</ele>
        <time>2018-08-19T09:31:10.000Z</time>
      </trkpt>
      <trkpt lat="45.31987" lon="4.48343">
        <ele>1189.7</ele>
        <time>2018-08-19T09:31:11.000Z</time>
      </trkpt>
      <trkpt lat="45.31986" lon="4.48342">
        <ele>1190</ele>
        <time>2018-08-19T09:31:12.000Z</time>
      </trkpt>
      <trkpt lat="45.31986" lon="4.48342">
        <ele>1190.3</ele>
        <time>2018-08-19T09:31:13.000Z</time>
      </trkpt>
      <trkpt lat="45.31985" lon="4.48341">
        <ele>1190.6</ele>
        <time>2018-08-19T09:31:14.000Z</time>
      </trkpt>
      <trkpt lat="45.31984" lon="4.4834">
        <ele>1191</ele>
        <time>2018-08-19T09:31:15.000Z</time>
      </trkpt>
      <trkpt lat="45.31983" lon="4.48339">
        <ele>1191.4</ele>
        <time>2018-08-19T09:31:16.000Z</time>
      </trkpt>
      <trkpt lat="45.31982" lon="4.48339">
        <ele>1191.7</ele>
        <time>2018-08-19T09:31:17.000Z</time>
      </trkpt>
      <trkpt lat="45.31981" lon="4.48338">
        <ele>1192.1</ele>
        <time>2018-08-19T09:31:18.000Z</time>
      </trkpt>
      <trkpt lat="45.3198" lon="4.48337">
        <ele>1192.5</ele>
        <time>2018-08-19T09:31:19.000Z</time>
      </trkpt>
      <trkpt lat="45.31979" lon="4.48336">
        <ele>1192.8</ele>
        <time>2018-08-19T09:31:20.000Z</time>
      </trkpt>
      <trkpt lat="45.31979" lon="4.48335">
        <ele>1193.1</ele>
        <time>2018-08-19T09:31:21.000Z</time>
      </trkpt>
      <trkpt lat="45.31978" lon="4.48334">
        <ele>1193.4</ele>
        <time>2018-08-19T09:31:22.000Z</time>
      </trkpt>
      <trkpt lat="45.31977" lon="4.48334">
        <ele>1193.8</ele>
        <time>2018-08-19T09:31:23.000Z</time>
      </trkpt>
      <trkpt lat="45.31977" lon="4.48333">
        <ele>1194.1</ele>
        <time>2018-08-19T09:31:24.000Z</time>
      </trkpt>
      <trkpt lat="45.31976" lon="4.48332">
        <ele>1194.3</ele>
        <time>2018-08-19T09:31:25.000Z</time>
      </trkpt>
      <trkpt lat="45.31975" lon="4.48331">
        <ele>1194.6</ele>
        <time>2018-08-19T09:31:26.000Z</time>
      </trkpt>
      <trkpt lat="45.31974" lon="4.48331">
        <ele>1194.9</ele>
        <time>2018-08-19T09:31:27.000Z</time>
      </trkpt>
      <trkpt lat="45.31974" lon="4.4833">
        <ele>1195.2</ele>
        <time>2018-08-19T09:31:28.000Z</time>
      </trkpt>
      <trkpt lat="45.31973" lon="4.4833">
        <ele>1195.4</ele>
        <time>2018-08-19T09:31:29.000Z</time>
      </trkpt>
      <trkpt lat="45.31972" lon="4.48329">
        <ele>1195.7</ele>
        <time>2018-08-19T09:31:30.000Z</time>
      </trkpt>
      <trkpt lat="45.31971" lon="4.48329">
        <ele>1196</ele>
        <time>2018-08-19T09:31:31.000Z</time>
      </trkpt>
      <trkpt lat="45.3197" lon="4.48328">
        <ele>1196.2</ele>
        <time>2018-08-19T09:31:32.000Z</time>
      </trkpt>
      <trkpt lat="45.31969" lon="4.48328">
        <ele>1196.5</ele>
        <time>2018-08-19T09:31:33.000Z</time>
      </trkpt>
      <trkpt lat="45.31968" lon="4.48328">
        <ele>1196.7</ele>
        <time>2018-08-19T09:31:34.000Z</time>
      </trkpt>
      <trkpt lat="45.31966" lon="4.48327">
        <ele>1196.9</ele>
        <time>2018-08-19T09:31:35.000Z</time>
      </trkpt>
      <trkpt lat="45.31965" lon="4.48327">
        <ele>1197.2</ele>
        <time>2018-08-19T09:31:36.000Z</time>
      </trkpt>
      <trkpt lat="45.31964" lon="4.48327">
        <ele>1197.4</ele>
        <time>2018-08-19T09:31:37.000Z</time>
      </trkpt>
      <trkpt lat="45.31963" lon="4.48327">
        <ele>1197.7</ele>
        <time>2018-08-19T09:31:38.000Z</time>
      </trkpt>
      <trkpt lat="45.31962" lon="4.48326">
        <ele>1197.9</ele>
        <time>2018-08-19T09:31:39.000Z</time>
      </trkpt>
      <trkpt lat="45.31961" lon="4.48326">
        <ele>1198.1</ele>
        <time>2018-08-19T09:31:40.000Z</time>
      </trkpt>
      <trkpt lat="45.3196" lon="4.48326">
        <ele>1198.4</ele>
        <time>2018-08-19T09:31:41.000Z</time>
      </trkpt>
      <trkpt lat="45.31959" lon="4.48325">
        <ele>1198.6</ele>
        <time>2018-08-19T09:31:42.000Z</time>
      </trkpt>
      <trkpt lat="45.31958" lon="4.48325">
        <ele>1198.8</ele>
        <time>2018-08-19T09:31:43.000Z</time>
      </trkpt>
      <trkpt lat="45.31957" lon="4.48324">
        <ele>1199.1</ele>
        <time>2018-08-19T09:31:44.000Z</time>
      </trkpt>
      <trkpt lat="45.31956" lon="4.48324">
        <ele>1199.3</ele>
        <time>2018-08-19T09:31:45.000Z</time>
      </trkpt>
      <trkpt lat="45.31955" lon="4.48324">
        <ele>1199.6</ele>
        <time>2018-08-19T09:31:46.000Z</time>
      </trkpt>
      <trkpt lat="45.31954" lon="4.48323">
        <ele>1199.8</ele>
        <time>2018-08-19T09:31:47.000Z</time>
      </trkpt>
      <trkpt lat="45.31954" lon="4.48323">
        <ele>1200</ele>
        <time>2018-08-19T09:31:48.000Z</time>
      </trkpt>
      <trkpt lat="45.31953" lon="4.48322">
        <ele>1200.2</ele>
        <time>2018-08-19T09:31:49.000Z</time>
      </trkpt>
      <trkpt lat="45.31952" lon="4.48322">
        <ele>1200.4</ele>
        <time>2018-08-19T09:31:50.000Z</time>
      </trkpt>
      <trkpt lat="45.31951" lon="4.48321">
        <ele>1200.7</ele>
        <time>2018-08-19T09:31:51.000Z</time>
      </trkpt>
      <trkpt lat="45.3195" lon="4.48321">
        <ele>1200.9</ele>
        <time>2018-08-19T09:31:52.000Z</time>
      </trkpt>
      <trkpt lat="45.3195" lon="4.48321">
        <ele>1201.1</ele>
        <time>2018-08-19T09:31:53.000Z</time>
      </trkpt>
      <trkpt lat="45.31949" lon="4.4832">
        <ele>1201.3</ele>
        <time>2018-08-19T09:31:54.000Z</time>
      </trkpt>
      <trkpt lat="45.31948" lon="4.4832">
        <ele>1201.4</ele>
        <time>2018-08-19T09:31:55.000Z</time>
      </trkpt>
      <trkpt lat="45.31947" lon="4.4832">
        <ele>1201.6</ele>
        <time>2018-08-19T09:31:56.000Z</time>
      </trkpt>
      <trkpt lat="45.31947" lon="4.48319">
        <ele>1201.8</ele>
        <time>2018-08-19T09:31:57.000Z</time>
      </trkpt>
      <trkpt lat="45.31946" lon="4.48319">
        <ele>1202</ele>
        <time>2018-08-19T09:31:58.000Z</time>
      </trkpt>
      <trkpt lat="45.31945" lon="4.48319">
        <ele>1202.2</ele>
        <time>2018-08-19T09:31:59.000Z</time>
      </trkpt>
      <trkpt lat="45.31944" lon="4.48318">
        <ele>1202.5</ele>
        <time>2018-08-19T09:32:00.000Z</time>
      </trkpt>
      <trkpt lat="45.31943" lon="4.48318">
        <ele>1202.7</ele>
        <time>2018-08-19T09:32:01.000Z</time>
      </trkpt>
      <trkpt lat="45.31942" lon="4.48317">
        <ele>1202.9</ele>
        <time>2018-08-19T09:32:02.000Z</time>
      </trkpt>
      <trkpt lat="45.31942" lon="4.48317">
        <ele>1203</ele>
        <time>2018-08-19T09:32:03.000Z</time>
      </trkpt>
      <trkpt lat="45.31941" lon="4.48317">
        <ele>1203.2</ele>
        <time>2018-08-19T09:32:04.000Z</time>
      </trkpt>
      <trkpt lat="45.3194" lon="4.48317">
        <ele>1203.3</ele>
        <time>2018-08-19T09:32:05.000Z</time>
      </trkpt>
      <trkpt lat="45.31939" lon="4.48317">
        <ele>1203.5</ele>
        <time>2018-08-19T09:32:06.000Z</time>
      </trkpt>
      <trkpt lat="45.31938" lon="4.48317">
        <ele>1203.6</ele>
        <time>2018-08-19T09:32:07.000Z</time>
      </trkpt>
      <trkpt lat="45.31937" lon="4.48317">
        <ele>1203.8</ele>
        <time>2018-08-19T09:32:08.000Z</time>
      </trkpt>
      <trkpt lat="45.31936" lon="4.48317">
        <ele>1204</ele>
        <time>2018-08-19T09:32:09.000Z</time>
      </trkpt>
      <trkpt lat="45.31935" lon="4.48317">
        <ele>1204.1</ele>
        <time>2018-08-19T09:32:10.000Z</time>
      </trkpt>
      <trkpt lat="45.31934" lon="4.48317">
        <ele>1204.3</ele>
        <time>2018-08-19T09:32:11.000Z</time>
      </trkpt>
      <trkpt lat="45.31933" lon="4.48316">
        <ele>1204.5</ele>
        <time>2018-08-19T09:32:12.000Z</time>
      </trkpt>
      <trkpt lat="45.31933" lon="4.48316">
        <ele>1204.6</ele>
        <time>2018-08-19T09:32:13.000Z</time>
      </trkpt>
      <trkpt lat="45.31932" lon="4.48316">
        <ele>1204.7</ele>
        <time>2018-08-19T09:32:14.000Z</time>
      </trkpt>
      <trkpt lat="45.31932" lon="4.48316">
        <ele>1204.8</ele>
        <time>2018-08-19T09:32:15.000Z</time>
      </trkpt>
      <trkpt lat="45.31932" lon="4.48316">
        <ele>1204.8</ele>
        <time>2018-08-19T09:32:16.000Z</time>
      </trkpt>
      <trkpt lat="45.31932" lon="4.48316">
        <ele>1204.9</ele>
        <time>2018-08-19T09:32:17.000Z</time>
      </trkpt>
      <trkpt lat="45.31931" lon="4.48315">
        <ele>1205</ele>
        <time>2018-08-19T09:32:18.000Z</time>
      </trkpt>
      <trkpt lat="45.3193" lon="4.48315">
        <ele>1205.1</ele>
        <time>2018-08-19T09:32:19.000Z</time>
      </trkpt>
      <trkpt lat="45.3193" lon="4.48315">
        <ele>1205.3</ele>
        <time>2018-08-19T09:32:20.000Z</time>
      </trkpt>
      <trkpt lat="45.31929" lon="4.48314">
        <ele>1205.6</ele>
        <time>2018-08-19T09:32:21.000Z</time>
      </trkpt>
      <trkpt lat="45.31928" lon="4.48313">
        <ele>1205.9</ele>
        <time>2018-08-19T09:32:22.000Z</time>
      </trkpt>
      <trkpt lat="45.31927" lon="4.48312">
        <ele>1206.2</ele>
        <time>2018-08-19T09:32:23.000Z</time>
      </trkpt>
      <trkpt lat="45.31926" lon="4.48311">
        <ele>1206.5</ele>
        <time>2018-08-19T09:32:24.000Z</time>
      </trkpt>
      <trkpt lat="45.31926" lon="4.48311">
        <ele>1206.8</ele>
        <time>2018-08-19T09:32:25.000Z</time>
      </trkpt>
      <trkpt lat="45.31925" lon="4.4831">
        <ele>1207</ele>
        <time>2018-08-19T09:32:26.000Z</time>
      </trkpt>
      <trkpt lat="45.31924" lon="4.48309">
        <ele>1207.2</ele>
        <time>2018-08-19T09:32:27.000Z</time>
      </trkpt>
      <trkpt lat="45.31924" lon="4.48309">
        <ele>1207.4</ele>
        <time>2018-08-19T09:32:28.000Z</time>
      </trkpt>
      <trkpt lat="45.31923" lon="4.48309">
        <ele>1207.5</ele>
        <time>2018-08-19T09:32:29.000Z</time>
      </trkpt>
      <trkpt lat="45.31922" lon="4.48308">
        <ele>1207.7</ele>
        <time>2018-08-19T09:32:30.000Z</time>
      </trkpt>
      <trkpt lat="45.31921" lon="4.48308">
        <ele>1207.9</ele>
        <time>2018-08-19T09:32:31.000Z</time>
      </trkpt>
      <trkpt lat="45.3192" lon="4.48307">
        <ele>1208.2</ele>
        <time>2018-08-19T09:32:32.000Z</time>
      </trkpt>
      <trkpt lat="45.3192" lon="4.48307">
        <ele>1208.4</ele>
        <time>2018-08-19T09:32:33.000Z</time>
      </trkpt>
      <trkpt lat="45.31919" lon="4.48306">
        <ele>1208.5</ele>
        <time>2018-08-19T09:32:34.000Z</time>
      </trkpt>
      <trkpt lat="45.31918" lon="4.48306">
        <ele>1208.7</ele>
        <time>2018-08-19T09:32:35.000Z</time>
      </trkpt>
      <trkpt lat="45.31918" lon="4.48306">
        <ele>1208.8</ele>
        <time>2018-08-19T09:32:36.000Z</time>
      </trkpt>
      <trkpt lat="45.31918" lon="4.48306">
        <ele>1208.9</ele>
        <time>2018-08-19T09:32:37.000Z</time>
      </trkpt>
      <trkpt lat="45.31917" lon="4.48305">
        <ele>1208.9</ele>
        <time>2018-08-19T09:32:38.000Z</time>
      </trkpt>
      <trkpt lat="45.31917" lon="4.48305">
        <ele>1209</ele>
        <time>2018-08-19T09:32:39.000Z</time>
      </trkpt>
      <trkpt lat="45.31917" lon="4.48305">
        <ele>1209.1</ele>
        <time>2018-08-19T09:32:40.000Z</time>
      </trkpt>
      <trkpt lat="45.31917" lon="4.48305">
        <ele>1209.1</ele>
        <time>2018-08-19T09:32:41.000Z</time>
      </trkpt>
      <trkpt lat="45.31916" lon="4.48304">
        <ele>1209.4</ele>
        <time>2018-08-19T09:32:42.000Z</time>
      </trkpt>
      <trkpt lat="45.31915" lon="4.48303">
        <ele>1209.7</ele>
        <time>2018-08-19T09:32:43.000Z</time>
      </trkpt>
      <trkpt lat="45.31914" lon="4.48303">
        <ele>1209.9</ele>
        <time>2018-08-19T09:32:44.000Z</time>
      </trkpt>
      <trkpt lat="45.31914" lon="4.48302">
        <ele>1210.1</ele>
        <time>2018-08-19T09:32:45.000Z</time>
      </trkpt>
      <trkpt lat="45.31913" lon="4.48301">
        <ele>1210.3</ele>
        <time>2018-08-19T09:32:46.000Z</time>
      </trkpt>
      <trkpt lat="45.31913" lon="4.48301">
        <ele>1210.4</ele>
        <time>2018-08-19T09:32:47.000Z</time>
      </trkpt>
      <trkpt lat="45.31913" lon="4.48301">
        <ele>1210.4</ele>
        <time>2018-08-19T09:32:48.000Z</time>
      </trkpt>
      <trkpt lat="45.31913" lon="4.48301">
        <ele>1210.5</ele>
        <time>2018-08-19T09:32:49.000Z</time>
      </trkpt>
      <trkpt lat="45.31912" lon="4.483">
        <ele>1210.7</ele>
        <time>2018-08-19T09:32:50.000Z</time>
      </trkpt>
      <trkpt lat="45.31911" lon="4.48299">
        <ele>1210.9</ele>
        <time>2018-08-19T09:32:51.000Z</time>
      </trkpt>
      <trkpt lat="45.31911" lon="4.48299">
        <ele>1211.2</ele>
        <time>2018-08-19T09:32:52.000Z</time>
      </trkpt>
      <trkpt lat="45.3191" lon="4.48298">
        <ele>1211.4</ele>
        <time>2018-08-19T09:32:53.000Z</time>
      </trkpt>
      <trkpt lat="45.3191" lon="4.48298">
        <ele>1211.6</ele>
        <time>2018-08-19T09:32:54.000Z</time>
      </trkpt>
      <trkpt lat="45.31909" lon="4.48297">
        <ele>1211.7</ele>
        <time>2018-08-19T09:32:55.000Z</time>
      </trkpt>
      <trkpt lat="45.31908" lon="4.48296">
        <ele>1211.9</ele>
        <time>2018-08-19T09:32:56.000Z</time>
      </trkpt>
      <trkpt lat="45.31908" lon="4.48296">
        <ele>1212.1</ele>
        <time>2018-08-19T09:32:57.000Z</time>
      </trkpt>
      <trkpt lat="45.31907" lon="4.48295">
        <ele>1212.3</ele>
        <time>2018-08-19T09:32:58.000Z</time>
      </trkpt>
      <trkpt lat="45.31906" lon="4.48294">
        <ele>1212.6</ele>
        <time>2018-08-19T09:32:59.000Z</time>
      </trkpt>
      <trkpt lat="45.31906" lon="4.48294">
        <ele>1212.8</ele>
        <time>2018-08-19T09:33:00.000Z</time>
      </trkpt>
      <trkpt lat="45.31905" lon="4.48293">
        <ele>1213</ele>
        <time>2018-08-19T09:33:01.000Z</time>
      </trkpt>
      <trkpt lat="45.31904" lon="4.48292">
        <ele>1213.3</ele>
        <time>2018-08-19T09:33:02.000Z</time>
      </trkpt>
      <trkpt lat="45.31904" lon="4.48291">
        <ele>1213.5</ele>
        <time>2018-08-19T09:33:03.000Z</time>
      </trkpt>
      <trkpt lat="45.31903" lon="4.4829">
        <ele>1213.7</ele>
        <time>2018-08-19T09:33:04.000Z</time>
      </trkpt>
      <trkpt lat="45.31903" lon="4.4829">
        <ele>1213.9</ele>
        <time>2018-08-19T09:33:05.000Z</time>
      </trkpt>
      <trkpt lat="45.31902" lon="4.48289">
        <ele>1214</ele>
        <time>2018-08-19T09:33:06.000Z</time>
      </trkpt>
      <trkpt lat="45.31902" lon="4.48289">
        <ele>1214</ele>
        <time>2018-08-19T09:33:07.000Z</time>
      </trkpt>
      <trkpt lat="45.31902" lon="4.48289">
        <ele>1214.1</ele>
        <time>2018-08-19T09:33:08.000Z</time>
      </trkpt>
      <trkpt lat="45.31902" lon="4.48289">
        <ele>1214.2</ele>
        <time>2018-08-19T09:33:09.000Z</time>
      </trkpt>
      <trkpt lat="45.31901" lon="4.48288">
        <ele>1214.2</ele>
        <time>2018-08-19T09:33:10.000Z</time>
      </trkpt>
      <trkpt lat="45.31901" lon="4.48288">
        <ele>1214.3</ele>
        <time>2018-08-19T09:33:11.000Z</time>
      </trkpt>
      <trkpt lat="45.31901" lon="4.48288">
        <ele>1214.4</ele>
        <time>2018-08-19T09:33:12.000Z</time>
      </trkpt>
      <trkpt lat="45.319" lon="4.48287">
        <ele>1214.6</ele>
        <time>2018-08-19T09:33:13.000Z</time>
      </trkpt>
      <trkpt lat="45.31899" lon="4.48287">
        <ele>1214.8</ele>
        <time>2018-08-19T09:33:14.000Z</time>
      </trkpt>
      <trkpt lat="45.31899" lon="4.48286">
        <ele>1214.9</ele>
        <time>2018-08-19T09:33:15.000Z</time>
      </trkpt>
      <trkpt lat="45.31898" lon="4.48285">
        <ele>1215.1</ele>
        <time>2018-08-19T09:33:16.000Z</time>
      </trkpt>
      <trkpt lat="45.31898" lon="4.48285">
        <ele>1215.3</ele>
        <time>2018-08-19T09:33:17.000Z</time>
      </trkpt>
      <trkpt lat="45.31897" lon="4.48284">
        <ele>1215.4</ele>
        <time>2018-08-19T09:33:18.000Z</time>
      </trkpt>
      <trkpt lat="45.31897" lon="4.48283">
        <ele>1215.6</ele>
        <time>2018-08-19T09:33:19.000Z</time>
      </trkpt>
      <trkpt lat="45.31896" lon="4.48283">
        <ele>1215.8</ele>
        <time>2018-08-19T09:33:20.000Z</time>
      </trkpt>
      <trkpt lat="45.31895" lon="4.48282">
        <ele>1216</ele>
        <time>2018-08-19T09:33:21.000Z</time>
      </trkpt>
      <trkpt lat="45.31894" lon="4.48282">
        <ele>1216.2</ele>
        <time>2018-08-19T09:33:22.000Z</time>
      </trkpt>
      <trkpt lat="45.31894" lon="4.48281">
        <ele>1216.3</ele>
        <time>2018-08-19T09:33:23.000Z</time>
      </trkpt>
      <trkpt lat="45.31893" lon="4.48281">
        <ele>1216.4</ele>
        <time>2018-08-19T09:33:24.000Z</time>
      </trkpt>
      <trkpt lat="45.31893" lon="4.4828">
        <ele>1216.5</ele>
        <time>2018-08-19T09:33:25.000Z</time>
      </trkpt>
      <trkpt lat="45.31892" lon="4.4828">
        <ele>1216.6</ele>
        <time>2018-08-19T09:33:26.000Z</time>
      </trkpt>
      <trkpt lat="45.31892" lon="4.4828">
        <ele>1216.7</ele>
        <time>2018-08-19T09:33:27.000Z</time>
      </trkpt>
      <trkpt lat="45.31892" lon="4.4828">
        <ele>1216.7</ele>
        <time>2018-08-19T09:33:28.000Z</time>
      </trkpt>
      <trkpt lat="45.31891" lon="4.4828">
        <ele>1216.8</ele>
        <time>2018-08-19T09:33:29.000Z</time>
      </trkpt>
      <trkpt lat="45.3189" lon="4.48279">
        <ele>1217</ele>
        <time>2018-08-19T09:33:30.000Z</time>
      </trkpt>
      <trkpt lat="45.31889" lon="4.48279">
        <ele>1217.1</ele>
        <time>2018-08-19T09:33:31.000Z</time>
      </trkpt>
      <trkpt lat="45.31889" lon="4.48279">
        <ele>1217.2</ele>
        <time>2018-08-19T09:33:32.000Z</time>
      </trkpt>
      <trkpt lat="45.31889" lon="4.48279">
        <ele>1217.2</ele>
        <time>2018-08-19T09:33:33.000Z</time>
      </trkpt>
      <trkpt lat="45.31888" lon="4.48279">
        <ele>1217.3</ele>
        <time>2018-08-19T09:33:34.000Z</time>
      </trkpt>
      <trkpt lat="45.31888" lon="4.48279">
        <ele>1217.3</ele>
        <time>2018-08-19T09:33:35.000Z</time>
      </trkpt>
      <trkpt lat="45.31888" lon="4.48279">
        <ele>1217.4</ele>
        <time>2018-08-19T09:33:36.000Z</time>
      </trkpt>
      <trkpt lat="45.31887" lon="4.48279">
        <ele>1217.4</ele>
        <time>2018-08-19T09:33:37.000Z</time>
      </trkpt>
      <trkpt lat="45.31887" lon="4.48279">
        <ele>1217.5</ele>
        <time>2018-08-19T09:33:38.000Z</time>
      </trkpt>
      <trkpt lat="45.31885" lon="4.48279">
        <ele>1217.6</ele>
        <time>2018-08-19T09:33:39.000Z</time>
      </trkpt>
      <trkpt lat="45.31884" lon="4.48279">
        <ele>1217.8</ele>
        <time>2018-08-19T09:33:40.000Z</time>
      </trkpt>
      <trkpt lat="45.31884" lon="4.48278">
        <ele>1217.9</ele>
        <time>2018-08-19T09:33:41.000Z</time>
      </trkpt>
      <trkpt lat="45.31883" lon="4.48278">
        <ele>1218.1</ele>
        <time>2018-08-19T09:33:42.000Z</time>
      </trkpt>
      <trkpt lat="45.31882" lon="4.48277">
        <ele>1218.2</ele>
        <time>2018-08-19T09:33:43.000Z</time>
      </trkpt>
      <trkpt lat="45.31881" lon="4.48277">
        <ele>1218.3</ele>
        <time>2018-08-19T09:33:44.000Z</time>
      </trkpt>
      <trkpt lat="45.31881" lon="4.48277">
        <ele>1218.4</ele>
        <time>2018-08-19T09:33:45.000Z</time>
      </trkpt>
      <trkpt lat="45.3188" lon="4.48277">
        <ele>1218.5</ele>
        <time>2018-08-19T09:33:46.000Z</time>
      </trkpt>
      <trkpt lat="45.31879" lon="4.48277">
        <ele>1218.6</ele>
        <time>2018-08-19T09:33:47.000Z</time>
      </trkpt>
      <trkpt lat="45.31878" lon="4.48277">
        <ele>1218.7</ele>
        <time>2018-08-19T09:33:48.000Z</time>
      </trkpt>
      <trkpt lat="45.31878" lon="4.48277">
        <ele>1218.7</ele>
        <time>2018-08-19T09:33:49.000Z</time>
      </trkpt>
      <trkpt lat="45.31877" lon="4.48277">
        <ele>1218.8</ele>
        <time>2018-08-19T09:33:50.000Z</time>
      </trkpt>
      <trkpt lat="45.31877" lon="4.48277">
        <ele>1218.9</ele>
        <time>2018-08-19T09:33:51.000Z</time>
      </trkpt>
      <trkpt lat="45.31876" lon="4.48277">
        <ele>1218.9</ele>
        <time>2018-08-19T09:33:52.000Z</time>
      </trkpt>
      <trkpt lat="45.31876" lon="4.48277">
        <ele>1219</ele>
        <time>2018-08-19T09:33:53.000Z</time>
      </trkpt>
      <trkpt lat="45.31875" lon="4.48277">
        <ele>1219.1</ele>
        <time>2018-08-19T09:33:54.000Z</time>
      </trkpt>
      <trkpt lat="45.31874" lon="4.48277">
        <ele>1219.2</ele>
        <time>2018-08-19T09:33:55.000Z</time>
      </trkpt>
      <trkpt lat="45.31873" lon="4.48276">
        <ele>1219.4</ele>
        <time>2018-08-19T09:33:56.000Z</time>
      </trkpt>
      <trkpt lat="45.31872" lon="4.48276">
        <ele>1219.5</ele>
        <time>2018-08-19T09:33:57.000Z</time>
      </trkpt>
      <trkpt lat="45.31872" lon="4.48276">
        <ele>1219.6</ele>
        <time>2018-08-19T09:33:58.000Z</time>
      </trkpt>
      <trkpt lat="45.31871" lon="4.48275">
        <ele>1219.8</ele>
        <time>2018-08-19T09:33:59.000Z</time>
      </trkpt>
      <trkpt lat="45.3187" lon="4.48275">
        <ele>1219.9</ele>
        <time>2018-08-19T09:34:00.000Z</time>
      </trkpt>
      <trkpt lat="45.31869" lon="4.48274">
        <ele>1220.1</ele>
        <time>2018-08-19T09:34:01.000Z</time>
      </trkpt>
      <trkpt lat="45.31868" lon="4.48274">
        <ele>1220.2</ele>
        <time>2018-08-19T09:34:02.000Z</time>
      </trkpt>
      <trkpt lat="45.31867" lon="4.48273">
        <ele>1220.4</ele>
        <time>2018-08-19T09:34:03.000Z</time>
      </trkpt>
      <trkpt lat="45.31866" lon="4.48273">
        <ele>1220.6</ele>
        <time>2018-08-19T09:34:04.000Z</time>
      </trkpt>
      <trkpt lat="45.31865" lon="4.48272">
        <ele>1220.7</ele>
        <time>2018-08-19T09:34:05.000Z</time>
      </trkpt>
      <trkpt lat="45.31864" lon="4.48271">
        <ele>1220.9</ele>
        <time>2018-08-19T09:34:06.000Z</time>
      </trkpt>
      <trkpt lat="45.31863" lon="4.48271">
        <ele>1221</ele>
        <time>2018-08-19T09:34:07.000Z</time>
      </trkpt>
      <trkpt lat="45.31862" lon="4.4827">
        <ele>1221.2</ele>
        <time>2018-08-19T09:34:08.000Z</time>
      </trkpt>
      <trkpt lat="45.31861" lon="4.48269">
        <ele>1221.4</ele>
        <time>2018-08-19T09:34:09.000Z</time>
      </trkpt>
      <trkpt lat="45.31861" lon="4.48268">
        <ele>1221.5</ele>
        <time>2018-08-19T09:34:10.000Z</time>
      </trkpt>
      <trkpt lat="45.3186" lon="4.48267">
        <ele>1221.7</ele>
        <time>2018-08-19T09:34:11.000Z</time>
      </trkpt>
      <trkpt lat="45.31859" lon="4.48267">
        <ele>1221.8</ele>
        <time>2018-08-19T09:34:12.000Z</time>
      </trkpt>
      <trkpt lat="45.31858" lon="4.48266">
        <ele>1222</ele>
        <time>2018-08-19T09:34:13.000Z</time>
      </trkpt>
      <trkpt lat="45.31857" lon="4.48265">
        <ele>1222.2</ele>
        <time>2018-08-19T09:34:14.000Z</time>
      </trkpt>
      <trkpt lat="45.31856" lon="4.48264">
        <ele>1222.3</ele>
        <time>2018-08-19T09:34:15.000Z</time>
      </trkpt>
      <trkpt lat="45.31855" lon="4.48263">
        <ele>1222.4</ele>
        <time>2018-08-19T09:34:16.000Z</time>
      </trkpt>
      <trkpt lat="45.31854" lon="4.48263">
        <ele>1222.6</ele>
        <time>2018-08-19T09:34:17.000Z</time>
      </trkpt>
      <trkpt lat="45.31853" lon="4.48262">
        <ele>1222.7</ele>
        <time>2018-08-19T09:34:18.000Z</time>
      </trkpt>
      <trkpt lat="45.31852" lon="4.48261">
        <ele>1222.9</ele>
        <time>2018-08-19T09:34:19.000Z</time>
      </trkpt>
      <trkpt lat="45.31851" lon="4.48261">
        <ele>1223</ele>
        <time>2018-08-19T09:34:20.000Z</time>
      </trkpt>
      <trkpt lat="45.3185" lon="4.4826">
        <ele>1223.1</ele>
        <time>2018-08-19T09:34:21.000Z</time>
      </trkpt>
      <trkpt lat="45.31849" lon="4.4826">
        <ele>1223.2</ele>
        <time>2018-08-19T09:34:22.000Z</time>
      </trkpt>
      <trkpt lat="45.31848" lon="4.48259">
        <ele>1223.4</ele>
        <time>2018-08-19T09:34:23.000Z</time>
      </trkpt>
      <trkpt lat="45.31847" lon="4.48259">
        <ele>1223.5</ele>
        <time>2018-08-19T09:34:24.000Z</time>
      </trkpt>
      <trkpt lat="45.31847" lon="4.48258">
        <ele>1223.6</ele>
        <time>2018-08-19T09:34:25.000Z</time>
      </trkpt>
      <trkpt lat="45.31846" lon="4.48258">
        <ele>1223.7</ele>
        <time>2018-08-19T09:34:26.000Z</time>
      </trkpt>
      <trkpt lat="45.31845" lon="4.48258">
        <ele>1223.8</ele>
        <time>2018-08-19T09:34:27.000Z</time>
      </trkpt>
      <trkpt lat="45.31844" lon="4.48257">
        <ele>1223.8</ele>
        <time>2018-08-19T09:34:28.000Z</time>
      </trkpt>
      <trkpt lat="45.31843" lon="4.48257">
        <ele>1223.9</ele>
        <time>2018-08-19T09:34:29.000Z</time>
      </trkpt>
      <trkpt lat="45.31842" lon="4.48257">
        <ele>1224</ele>
        <time>2018-08-19T09:34:30.000Z</time>
      </trkpt>
      <trkpt lat="45.31841" lon="4.48257">
        <ele>1224.1</ele>
        <time>2018-08-19T09:34:31.000Z</time>
      </trkpt>
      <trkpt lat="45.3184" lon="4.48256">
        <ele>1224.2</ele>
        <time>2018-08-19T09:34:32.000Z</time>
      </trkpt>
      <trkpt lat="45.3184" lon="4.48256">
        <ele>1224.3</ele>
        <time>2018-08-19T09:34:33.000Z</time>
      </trkpt>
      <trkpt lat="45.31839" lon="4.48256">
        <ele>1224.4</ele>
        <time>2018-08-19T09:34:34.000Z</time>
      </trkpt>
      <trkpt lat="45.31838" lon="4.48255">
        <ele>1224.4</ele>
        <time>2018-08-19T09:34:35.000Z</time>
      </trkpt>
      <trkpt lat="45.31837" lon="4.48255">
        <ele>1224.5</ele>
        <time>2018-08-19T09:34:36.000Z</time>
      </trkpt>
      <trkpt lat="45.31837" lon="4.48254">
        <ele>1224.6</ele>
        <time>2018-08-19T09:34:37.000Z</time>
      </trkpt>
      <trkpt lat="45.31836" lon="4.48253">
        <ele>1224.7</ele>
        <time>2018-08-19T09:34:38.000Z</time>
      </trkpt>
      <trkpt lat="45.31835" lon="4.48253">
        <ele>1224.8</ele>
        <time>2018-08-19T09:34:39.000Z</time>
      </trkpt>
      <trkpt lat="45.31834" lon="4.48252">
        <ele>1224.9</ele>
        <time>2018-08-19T09:34:40.000Z</time>
      </trkpt>
      <trkpt lat="45.31834" lon="4.48251">
        <ele>1224.9</ele>
        <time>2018-08-19T09:34:41.000Z</time>
      </trkpt>
      <trkpt lat="45.31833" lon="4.4825">
        <ele>1225</ele>
        <time>2018-08-19T09:34:42.000Z</time>
      </trkpt>
      <trkpt lat="45.31832" lon="4.4825">
        <ele>1225</ele>
        <time>2018-08-19T09:34:43.000Z</time>
      </trkpt>
      <trkpt lat="45.31832" lon="4.48249">
        <ele>1225.1</ele>
        <time>2018-08-19T09:34:44.000Z</time>
      </trkpt>
      <trkpt lat="45.31831" lon="4.48248">
        <ele>1225.1</ele>
        <time>2018-08-19T09:34:45.000Z</time>
      </trkpt>
      <trkpt lat="45.3183" lon="4.48247">
        <ele>1225.1</ele>
        <time>2018-08-19T09:34:46.000Z</time>
      </trkpt>
      <trkpt lat="45.31829" lon="4.48247">
        <ele>1225.2</ele>
        <time>2018-08-19T09:34:47.000Z</time>
      </trkpt>
      <trkpt lat="45.31829" lon="4.48246">
        <ele>1225.2</ele>
        <time>2018-08-19T09:34:48.000Z</time>
      </trkpt>
      <trkpt lat="45.31828" lon="4.48245">
        <ele>1225.2</ele>
        <time>2018-08-19T09:34:49.000Z</time>
      </trkpt>
      <trkpt lat="45.31827" lon="4.48244">
        <ele>1225.3</ele>
        <time>2018-08-19T09:34:50.000Z</time>
      </trkpt>
      <trkpt lat="45.31827" lon="4.48243">
        <ele>1225.3</ele>
        <time>2018-08-19T09:34:51.000Z</time>
      </trkpt>
      <trkpt lat="45.31826" lon="4.48242">
        <ele>1225.3</ele>
        <time>2018-08-19T09:34:52.000Z</time>
      </trkpt>
      <trkpt lat="45.31825" lon="4.48241">
        <ele>1225.4</ele>
        <time>2018-08-19T09:34:53.000Z</time>
      </trkpt>
      <trkpt lat="45.31825" lon="4.4824">
        <ele>1225.4</ele>
        <time>2018-08-19T09:34:54.000Z</time>
      </trkpt>
      <trkpt lat="45.31824" lon="4.48239">
        <ele>1225.4</ele>
        <time>2018-08-19T09:34:55.000Z</time>
      </trkpt>
      <trkpt lat="45.31823" lon="4.48238">
        <ele>1225.5</ele>
        <time>2018-08-19T09:34:56.000Z</time>
      </trkpt>
      <trkpt lat="45.31823" lon="4.48237">
        <ele>1225.5</ele>
        <time>2018-08-19T09:34:57.000Z</time>
      </trkpt>
      <trkpt lat="45.31822" lon="4.48236">
        <ele>1225.5</ele>
        <time>2018-08-19T09:34:58.000Z</time>
      </trkpt>
      <trkpt lat="45.31822" lon="4.48235">
        <ele>1225.6</ele>
        <time>2018-08-19T09:34:59.000Z</time>
      </trkpt>
      <trkpt lat="45.31821" lon="4.48233">
        <ele>1225.6</ele>
        <time>2018-08-19T09:35:00.000Z</time>
      </trkpt>
      <trkpt lat="45.31821" lon="4.48232">
        <ele>1225.6</ele>
        <time>2018-08-19T09:35:01.000Z</time>
      </trkpt>
      <trkpt lat="45.3182" lon="4.48231">
        <ele>1225.7</ele>
        <time>2018-08-19T09:35:02.000Z</time>
      </trkpt>
      <trkpt lat="45.31819" lon="4.48229">
        <ele>1225.7</ele>
        <time>2018-08-19T09:35:03.000Z</time>
      </trkpt>
      <trkpt lat="45.31819" lon="4.48228">
        <ele>1225.7</ele>
        <time>2018-08-19T09:35:04.000Z</time>
      </trkpt>
      <trkpt lat="45.31818" lon="4.48227">
        <ele>1225.8</ele>
        <time>2018-08-19T09:35:05.000Z</time>
      </trkpt>
      <trkpt lat="45.31818" lon="4.48225">
        <ele>1225.8</ele>
        <time>2018-08-19T09:35:06.000Z</time>
      </trkpt>
      <trkpt lat="45.31817" lon="4.48224">
        <ele>1225.8</ele>
        <time>2018-08-19T09:35:07.000Z</time>
      </trkpt>
      <trkpt lat="45.31817" lon="4.48222">
        <ele>1225.9</ele>
        <time>2018-08-19T09:35:08.000Z</time>
      </trkpt>
      <trkpt lat="45.31817" lon="4.48221">
        <ele>1225.9</ele>
        <time>2018-08-19T09:35:09.000Z</time>
      </trkpt>
      <trkpt lat="45.31816" lon="4.4822">
        <ele>1225.9</ele>
        <time>2018-08-19T09:35:10.000Z</time>
      </trkpt>
      <trkpt lat="45.31816" lon="4.48218">
        <ele>1226</ele>
        <time>2018-08-19T09:35:11.000Z</time>
      </trkpt>
      <trkpt lat="45.31815" lon="4.48217">
        <ele>1226</ele>
        <time>2018-08-19T09:35:12.000Z</time>
      </trkpt>
      <trkpt lat="45.31815" lon="4.48216">
        <ele>1226</ele>
        <time>2018-08-19T09:35:13.000Z</time>
      </trkpt>
      <trkpt lat="45.31814" lon="4.48215">
        <ele>1226</ele>
        <time>2018-08-19T09:35:14.000Z</time>
      </trkpt>
      <trkpt lat="45.31814" lon="4.48214">
        <ele>1226</ele>
        <time>2018-08-19T09:35:15.000Z</time>
      </trkpt>
      <trkpt lat="45.31814" lon="4.48213">
        <ele>1226.1</ele>
        <time>2018-08-19T09:35:16.000Z</time>
      </trkpt>
      <trkpt lat="45.31813" lon="4.48211">
        <ele>1226.1</ele>
        <time>2018-08-19T09:35:17.000Z</time>
      </trkpt>
      <trkpt lat="45.31812" lon="4.48211">
        <ele>1226.1</ele>
        <time>2018-08-19T09:35:18.000Z</time>
      </trkpt>
      <trkpt lat="45.31812" lon="4.4821">
        <ele>1226.1</ele>
        <time>2018-08-19T09:35:19.000Z</time>
      </trkpt>
      <trkpt lat="45.31811" lon="4.48209">
        <ele>1226.1</ele>
        <time>2018-08-19T09:35:20.000Z</time>
      </trkpt>
      <trkpt lat="45.3181" lon="4.48208">
        <ele>1226</ele>
        <time>2018-08-19T09:35:21.000Z</time>
      </trkpt>
      <trkpt lat="45.3181" lon="4.48207">
        <ele>1226</ele>
        <time>2018-08-19T09:35:22.000Z</time>
      </trkpt>
      <trkpt lat="45.31809" lon="4.48206">
        <ele>1226</ele>
        <time>2018-08-19T09:35:23.000Z</time>
      </trkpt>
      <trkpt lat="45.31808" lon="4.48206">
        <ele>1226</ele>
        <time>2018-08-19T09:35:24.000Z</time>
      </trkpt>
      <trkpt lat="45.31808" lon="4.48205">
        <ele>1226</ele>
        <time>2018-08-19T09:35:25.000Z</time>
      </trkpt>
      <trkpt lat="45.31807" lon="4.48204">
        <ele>1226</ele>
        <time>2018-08-19T09:35:26.000Z</time>
      </trkpt>
      <trkpt lat="45.31806" lon="4.48203">
        <ele>1226</ele>
        <time>2018-08-19T09:35:27.000Z</time>
      </trkpt>
      <trkpt lat="45.31806" lon="4.48202">
        <ele>1226</ele>
        <time>2018-08-19T09:35:28.000Z</time>
      </trkpt>
      <trkpt lat="45.31805" lon="4.48201">
        <ele>1226</ele>
        <time>2018-08-19T09:35:29.000Z</time>
      </trkpt>
      <trkpt lat="45.31805" lon="4.482">
        <ele>1225.9</ele>
        <time>2018-08-19T09:35:30.000Z</time>
      </trkpt>
      <trkpt lat="45.31804" lon="4.482">
        <ele>1225.9</ele>
        <time>2018-08-19T09:35:31.000Z</time>
      </trkpt>
      <trkpt lat="45.31803" lon="4.48199">
        <ele>1225.9</ele>
        <time>2018-08-19T09:35:32.000Z</time>
      </trkpt>
      <trkpt lat="45.31803" lon="4.48198">
        <ele>1225.9</ele>
        <time>2018-08-19T09:35:33.000Z</time>
      </trkpt>
      <trkpt lat="45.31802" lon="4.48197">
        <ele>1225.9</ele>
        <time>2018-08-19T09:35:34.000Z</time>
      </trkpt>
      <trkpt lat="45.31801" lon="4.48196">
        <ele>1225.9</ele>
        <time>2018-08-19T09:35:35.000Z</time>
      </trkpt>
      <trkpt lat="45.31801" lon="4.48195">
        <ele>1225.8</ele>
        <time>2018-08-19T09:35:36.000Z</time>
      </trkpt>
      <trkpt lat="45.318" lon="4.48194">
        <ele>1225.8</ele>
        <time>2018-08-19T09:35:37.000Z</time>
      </trkpt>
      <trkpt lat="45.31799" lon="4.48193">
        <ele>1225.8</ele>
        <time>2018-08-19T09:35:38.000Z</time>
      </trkpt>
      <trkpt lat="45.31799" lon="4.48191">
        <ele>1225.8</ele>
        <time>2018-08-19T09:35:39.000Z</time>
      </trkpt>
      <trkpt lat="45.31798" lon="4.4819">
        <ele>1225.8</ele>
        <time>2018-08-19T09:35:40.000Z</time>
      </trkpt>
      <trkpt lat="45.31798" lon="4.48189">
        <ele>1225.7</ele>
        <time>2018-08-19T09:35:41.000Z</time>
      </trkpt>
      <trkpt lat="45.31797" lon="4.48187">
        <ele>1225.7</ele>
        <time>2018-08-19T09:35:42.000Z</time>
      </trkpt>
      <trkpt lat="45.31797" lon="4.48186">
        <ele>1225.7</ele>
        <time>2018-08-19T09:35:43.000Z</time>
      </trkpt>
      <trkpt lat="45.31796" lon="4.48185">
        <ele>1225.7</ele>
        <time>2018-08-19T09:35:44.000Z</time>
      </trkpt>
      <trkpt lat="45.31795" lon="4.48183">
        <ele>1225.6</ele>
        <time>2018-08-19T09:35:45.000Z</time>
      </trkpt>
      <trkpt lat="45.31795" lon="4.48182">
        <ele>1225.6</ele>
        <time>2018-08-19T09:35:46.000Z</time>
      </trkpt>
      <trkpt lat="45.31794" lon="4.48181">
        <ele>1225.6</ele>
        <time>2018-08-19T09:35:47.000Z</time>
      </trkpt>
      <trkpt lat="45.31793" lon="4.4818">
        <ele>1225.5</ele>
        <time>2018-08-19T09:35:48.000Z</time>
      </trkpt>
      <trkpt lat="45.31792" lon="4.48179">
        <ele>1225.5</ele>
        <time>2018-08-19T09:35:49.000Z</time>
      </trkpt>
      <trkpt lat="45.31791" lon="4.48177">
        <ele>1225.4</ele>
        <time>2018-08-19T09:35:50.000Z</time>
      </trkpt>
      <trkpt lat="45.3179" lon="4.48176">
        <ele>1225.3</ele>
        <time>2018-08-19T09:35:51.000Z</time>
      </trkpt>
      <trkpt lat="45.3179" lon="4.48176">
        <ele>1225.3</ele>
        <time>2018-08-19T09:35:52.000Z</time>
      </trkpt>
      <trkpt lat="45.31789" lon="4.48175">
        <ele>1225.2</ele>
        <time>2018-08-19T09:35:53.000Z</time>
      </trkpt>
      <trkpt lat="45.31788" lon="4.48174">
        <ele>1225.1</ele>
        <time>2018-08-19T09:35:54.000Z</time>
      </trkpt>
      <trkpt lat="45.31787" lon="4.48173">
        <ele>1225.1</ele>
        <time>2018-08-19T09:35:55.000Z</time>
      </trkpt>
      <trkpt lat="45.31786" lon="4.48172">
        <ele>1225</ele>
        <time>2018-08-19T09:35:56.000Z</time>
      </trkpt>
      <trkpt lat="45.31785" lon="4.48171">
        <ele>1224.9</ele>
        <time>2018-08-19T09:35:57.000Z</time>
      </trkpt>
      <trkpt lat="45.31784" lon="4.4817">
        <ele>1224.8</ele>
        <time>2018-08-19T09:35:58.000Z</time>
      </trkpt>
      <trkpt lat="45.31783" lon="4.48169">
        <ele>1224.8</ele>
        <time>2018-08-19T09:35:59.000Z</time>
      </trkpt>
      <trkpt lat="45.31782" lon="4.48168">
        <ele>1224.7</ele>
        <time>2018-08-19T09:36:00.000Z</time>
      </trkpt>
      <trkpt lat="45.31781" lon="4.48167">
        <ele>1224.6</ele>
        <time>2018-08-19T09:36:01.000Z</time>
      </trkpt>
      <trkpt lat="45.3178" lon="4.48166">
        <ele>1224.6</ele>
        <time>2018-08-19T09:36:02.000Z</time>
      </trkpt>
      <trkpt lat="45.3178" lon="4.48165">
        <ele>1224.5</ele>
        <time>2018-08-19T09:36:03.000Z</time>
      </trkpt>
      <trkpt lat="45.31779" lon="4.48164">
        <ele>1224.5</ele>
        <time>2018-08-19T09:36:04.000Z</time>
      </trkpt>
      <trkpt lat="45.31778" lon="4.48163">
        <ele>1224.4</ele>
        <time>2018-08-19T09:36:05.000Z</time>
      </trkpt>
      <trkpt lat="45.31777" lon="4.48161">
        <ele>1224.4</ele>
        <time>2018-08-19T09:36:06.000Z</time>
      </trkpt>
      <trkpt lat="45.31776" lon="4.4816">
        <ele>1224.3</ele>
        <time>2018-08-19T09:36:07.000Z</time>
      </trkpt>
      <trkpt lat="45.31775" lon="4.48159">
        <ele>1224.2</ele>
        <time>2018-08-19T09:36:08.000Z</time>
      </trkpt>
      <trkpt lat="45.31774" lon="4.48158">
        <ele>1224.1</ele>
        <time>2018-08-19T09:36:09.000Z</time>
      </trkpt>
      <trkpt lat="45.31773" lon="4.48157">
        <ele>1224.1</ele>
        <time>2018-08-19T09:36:10.000Z</time>
      </trkpt>
      <trkpt lat="45.31772" lon="4.48156">
        <ele>1224</ele>
        <time>2018-08-19T09:36:11.000Z</time>
      </trkpt>
      <trkpt lat="45.3177" lon="4.48155">
        <ele>1223.9</ele>
        <time>2018-08-19T09:36:12.000Z</time>
      </trkpt>
      <trkpt lat="45.31769" lon="4.48153">
        <ele>1223.8</ele>
        <time>2018-08-19T09:36:13.000Z</time>
      </trkpt>
      <trkpt lat="45.31768" lon="4.48152">
        <ele>1223.7</ele>
        <time>2018-08-19T09:36:14.000Z</time>
      </trkpt>
      <trkpt lat="45.31767" lon="4.48151">
        <ele>1223.6</ele>
        <time>2018-08-19T09:36:15.000Z</time>
      </trkpt>
      <trkpt lat="45.31766" lon="4.4815">
        <ele>1223.5</ele>
        <time>2018-08-19T09:36:16.000Z</time>
      </trkpt>
      <trkpt lat="45.31764" lon="4.48149">
        <ele>1223.4</ele>
        <time>2018-08-19T09:36:17.000Z</time>
      </trkpt>
      <trkpt lat="45.31763" lon="4.48148">
        <ele>1223.3</ele>
        <time>2018-08-19T09:36:18.000Z</time>
      </trkpt>
      <trkpt lat="45.31762" lon="4.48147">
        <ele>1223.2</ele>
        <time>2018-08-19T09:36:19.000Z</time>
      </trkpt>
      <trkpt lat="45.31761" lon="4.48145">
        <ele>1223.1</ele>
        <time>2018-08-19T09:36:20.000Z</time>
      </trkpt>
      <trkpt lat="45.31759" lon="4.48144">
        <ele>1222.9</ele>
        <time>2018-08-19T09:36:21.000Z</time>
      </trkpt>
      <trkpt lat="45.31758" lon="4.48143">
        <ele>1222.8</ele>
        <time>2018-08-19T09:36:22.000Z</time>
      </trkpt>
      <trkpt lat="45.31757" lon="4.48142">
        <ele>1222.7</ele>
        <time>2018-08-19T09:36:23.000Z</time>
      </trkpt>
      <trkpt lat="45.31756" lon="4.48141">
        <ele>1222.6</ele>
        <time>2018-08-19T09:36:24.000Z</time>
      </trkpt>
      <trkpt lat="45.31754" lon="4.4814">
        <ele>1222.4</ele>
        <time>2018-08-19T09:36:25.000Z</time>
      </trkpt>
      <trkpt lat="45.31753" lon="4.48139">
        <ele>1222.3</ele>
        <time>2018-08-19T09:36:26.000Z</time>
      </trkpt>
      <trkpt lat="45.31752" lon="4.48138">
        <ele>1222.2</ele>
        <time>2018-08-19T09:36:27.000Z</time>
      </trkpt>
      <trkpt lat="45.31751" lon="4.48137">
        <ele>1222.1</ele>
        <time>2018-08-19T09:36:28.000Z</time>
      </trkpt>
      <trkpt lat="45.3175" lon="4.48136">
        <ele>1222</ele>
        <time>2018-08-19T09:36:29.000Z</time>
      </trkpt>
      <trkpt lat="45.31748" lon="4.48135">
        <ele>1221.9</ele>
        <time>2018-08-19T09:36:30.000Z</time>
      </trkpt>
      <trkpt lat="45.31747" lon="4.48134">
        <ele>1221.9</ele>
        <time>2018-08-19T09:36:31.000Z</time>
      </trkpt>
      <trkpt lat="45.31746" lon="4.48133">
        <ele>1221.9</ele>
        <time>2018-08-19T09:36:32.000Z</time>
      </trkpt>
      <trkpt lat="45.31745" lon="4.48132">
        <ele>1221.8</ele>
        <time>2018-08-19T09:36:33.000Z</time>
      </trkpt>
      <trkpt lat="45.31744" lon="4.48132">
        <ele>1221.8</ele>
        <time>2018-08-19T09:36:34.000Z</time>
      </trkpt>
      <trkpt lat="45.31743" lon="4.48131">
        <ele>1221.8</ele>
        <time>2018-08-19T09:36:35.000Z</time>
      </trkpt>
      <trkpt lat="45.31742" lon="4.4813">
        <ele>1221.7</ele>
        <time>2018-08-19T09:36:36.000Z</time>
      </trkpt>
      <trkpt lat="45.31741" lon="4.48129">
        <ele>1221.7</ele>
        <time>2018-08-19T09:36:37.000Z</time>
      </trkpt>
      <trkpt lat="45.3174" lon="4.48129">
        <ele>1221.7</ele>
        <time>2018-08-19T09:36:38.000Z</time>
      </trkpt>
      <trkpt lat="45.31739" lon="4.48128">
        <ele>1221.6</ele>
        <time>2018-08-19T09:36:39.000Z</time>
      </trkpt>
      <trkpt lat="45.31738" lon="4.48127">
        <ele>1221.6</ele>
        <time>2018-08-19T09:36:40.000Z</time>
      </trkpt>
      <trkpt lat="45.31737" lon="4.48127">
        <ele>1221.5</ele>
        <time>2018-08-19T09:36:41.000Z</time>
      </trkpt>
      <trkpt lat="45.31736" lon="4.48126">
        <ele>1221.5</ele>
        <time>2018-08-19T09:36:42.000Z</time>
      </trkpt>
      <trkpt lat="45.31735" lon="4.48126">
        <ele>1221.5</ele>
        <time>2018-08-19T09:36:43.000Z</time>
      </trkpt>
      <trkpt lat="45.31734" lon="4.48125">
        <ele>1221.4</ele>
        <time>2018-08-19T09:36:44.000Z</time>
      </trkpt>
      <trkpt lat="45.31733" lon="4.48124">
        <ele>1221.4</ele>
        <time>2018-08-19T09:36:45.000Z</time>
      </trkpt>
      <trkpt lat="45.31732" lon="4.48124">
        <ele>1221.3</ele>
        <time>2018-08-19T09:36:46.000Z</time>
      </trkpt>
      <trkpt lat="45.31731" lon="4.48123">
        <ele>1221.3</ele>
        <time>2018-08-19T09:36:47.000Z</time>
      </trkpt>
      <trkpt lat="45.31729" lon="4.48123">
        <ele>1221.2</ele>
        <time>2018-08-19T09:36:48.000Z</time>
      </trkpt>
      <trkpt lat="45.31728" lon="4.48122">
        <ele>1221.2</ele>
        <time>2018-08-19T09:36:49.000Z</time>
      </trkpt>
      <trkpt lat="45.31727" lon="4.48122">
        <ele>1221.1</ele>
        <time>2018-08-19T09:36:50.000Z</time>
      </trkpt>
      <trkpt lat="45.31726" lon="4.48121">
        <ele>1221.1</ele>
        <time>2018-08-19T09:36:51.000Z</time>
      </trkpt>
      <trkpt lat="45.31724" lon="4.48121">
        <ele>1221</ele>
        <time>2018-08-19T09:36:52.000Z</time>
      </trkpt>
      <trkpt lat="45.31723" lon="4.48121">
        <ele>1221</ele>
        <time>2018-08-19T09:36:53.000Z</time>
      </trkpt>
      <trkpt lat="45.31722" lon="4.4812">
        <ele>1220.9</ele>
        <time>2018-08-19T09:36:54.000Z</time>
      </trkpt>
      <trkpt lat="45.3172" lon="4.4812">
        <ele>1220.9</ele>
        <time>2018-08-19T09:36:55.000Z</time>
      </trkpt>
      <trkpt lat="45.31719" lon="4.48119">
        <ele>1220.8</ele>
        <time>2018-08-19T09:36:56.000Z</time>
      </trkpt>
      <trkpt lat="45.31718" lon="4.48119">
        <ele>1220.8</ele>
        <time>2018-08-19T09:36:57.000Z</time>
      </trkpt>
      <trkpt lat="45.31716" lon="4.48119">
        <ele>1220.7</ele>
        <time>2018-08-19T09:36:58.000Z</time>
      </trkpt>
      <trkpt lat="45.31715" lon="4.48119">
        <ele>1220.7</ele>
        <time>2018-08-19T09:36:59.000Z</time>
      </trkpt>
      <trkpt lat="45.31714" lon="4.48118">
        <ele>1220.6</ele>
        <time>2018-08-19T09:37:00.000Z</time>
      </trkpt>
      <trkpt lat="45.31713" lon="4.48118">
        <ele>1220.6</ele>
        <time>2018-08-19T09:37:01.000Z</time>
      </trkpt>
      <trkpt lat="45.31712" lon="4.48118">
        <ele>1220.5</ele>
        <time>2018-08-19T09:37:02.000Z</time>
      </trkpt>
      <trkpt lat="45.3171" lon="4.48118">
        <ele>1220.5</ele>
        <time>2018-08-19T09:37:03.000Z</time>
      </trkpt>
      <trkpt lat="45.31709" lon="4.48118">
        <ele>1220.4</ele>
        <time>2018-08-19T09:37:04.000Z</time>
      </trkpt>
      <trkpt lat="45.31708" lon="4.48117">
        <ele>1220.4</ele>
        <time>2018-08-19T09:37:05.000Z</time>
      </trkpt>
      <trkpt lat="45.31707" lon="4.48117">
        <ele>1220.3</ele>
        <time>2018-08-19T09:37:06.000Z</time>
      </trkpt>
      <trkpt lat="45.31706" lon="4.48117">
        <ele>1220.3</ele>
        <time>2018-08-19T09:37:07.000Z</time>
      </trkpt>
      <trkpt lat="45.31704" lon="4.48117">
        <ele>1220.3</ele>
        <time>2018-08-19T09:37:08.000Z</time>
      </trkpt>
      <trkpt lat="45.31703" lon="4.48117">
        <ele>1220.2</ele>
        <time>2018-08-19T09:37:09.000Z</time>
      </trkpt>
      <trkpt lat="45.31702" lon="4.48117">
        <ele>1220.2</ele>
        <time>2018-08-19T09:37:10.000Z</time>
      </trkpt>
      <trkpt lat="45.31701" lon="4.48117">
        <ele>1220.1</ele>
        <time>2018-08-19T09:37:11.000Z</time>
      </trkpt>
      <trkpt lat="45.317" lon="4.48116">
        <ele>1220.1</ele>
        <time>2018-08-19T09:37:12.000Z</time>
      </trkpt>
      <trkpt lat="45.31699" lon="4.48116">
        <ele>1220</ele>
        <time>2018-08-19T09:37:13.000Z</time>
      </trkpt>
      <trkpt lat="45.31697" lon="4.48116">
        <ele>1220</ele>
        <time>2018-08-19T09:37:14.000Z</time>
      </trkpt>
      <trkpt lat="45.31696" lon="4.48116">
        <ele>1219.9</ele>
        <time>2018-08-19T09:37:15.000Z</time>
      </trkpt>
      <trkpt lat="45.31695" lon="4.48116">
        <ele>1219.9</ele>
        <time>2018-08-19T09:37:16.000Z</time>
      </trkpt>
      <trkpt lat="45.31694" lon="4.48115">
        <ele>1219.8</ele>
        <time>2018-08-19T09:37:17.000Z</time>
      </trkpt>
      <trkpt lat="45.31693" lon="4.48115">
        <ele>1219.8</ele>
        <time>2018-08-19T09:37:18.000Z</time>
      </trkpt>
      <trkpt lat="45.31691" lon="4.48115">
        <ele>1219.7</ele>
        <time>2018-08-19T09:37:19.000Z</time>
      </trkpt>
      <trkpt lat="45.3169" lon="4.48114">
        <ele>1219.6</ele>
        <time>2018-08-19T09:37:20.000Z</time>
      </trkpt>
      <trkpt lat="45.31689" lon="4.48114">
        <ele>1219.6</ele>
        <time>2018-08-19T09:37:21.000Z</time>
      </trkpt>
      <trkpt lat="45.31687" lon="4.48113">
        <ele>1219.5</ele>
        <time>2018-08-19T09:37:22.000Z</time>
      </trkpt>
      <trkpt lat="45.31686" lon="4.48113">
        <ele>1219.5</ele>
        <time>2018-08-19T09:37:23.000Z</time>
      </trkpt>
      <trkpt lat="45.31685" lon="4.48112">
        <ele>1219.4</ele>
        <time>2018-08-19T09:37:24.000Z</time>
      </trkpt>
      <trkpt lat="45.31683" lon="4.48112">
        <ele>1219.3</ele>
        <time>2018-08-19T09:37:25.000Z</time>
      </trkpt>
      <trkpt lat="45.31682" lon="4.48111">
        <ele>1219.3</ele>
        <time>2018-08-19T09:37:26.000Z</time>
      </trkpt>
      <trkpt lat="45.3168" lon="4.4811">
        <ele>1219.2</ele>
        <time>2018-08-19T09:37:27.000Z</time>
      </trkpt>
      <trkpt lat="45.31679" lon="4.4811">
        <ele>1219.1</ele>
        <time>2018-08-19T09:37:28.000Z</time>
      </trkpt>
      <trkpt lat="45.31678" lon="4.48109">
        <ele>1219.1</ele>
        <time>2018-08-19T09:37:29.000Z</time>
      </trkpt>
      <trkpt lat="45.31676" lon="4.48108">
        <ele>1219</ele>
        <time>2018-08-19T09:37:30.000Z</time>
      </trkpt>
      <trkpt lat="45.31675" lon="4.48107">
        <ele>1218.9</ele>
        <time>2018-08-19T09:37:31.000Z</time>
      </trkpt>
      <trkpt lat="45.31674" lon="4.48107">
        <ele>1218.9</ele>
        <time>2018-08-19T09:37:32.000Z</time>
      </trkpt>
      <trkpt lat="45.31673" lon="4.48106">
        <ele>1218.8</ele>
        <time>2018-08-19T09:37:33.000Z</time>
      </trkpt>
      <trkpt lat="45.31672" lon="4.48105">
        <ele>1218.7</ele>
        <time>2018-08-19T09:37:34.000Z</time>
      </trkpt>
      <trkpt lat="45.31671" lon="4.48105">
        <ele>1218.7</ele>
        <time>2018-08-19T09:37:35.000Z</time>
      </trkpt>
      <trkpt lat="45.3167" lon="4.48104">
        <ele>1218.6</ele>
        <time>2018-08-19T09:37:36.000Z</time>
      </trkpt>
      <trkpt lat="45.31669" lon="4.48104">
        <ele>1218.6</ele>
        <time>2018-08-19T09:37:37.000Z</time>
      </trkpt>
      <trkpt lat="45.31668" lon="4.48103">
        <ele>1218.5</ele>
        <time>2018-08-19T09:37:38.000Z</time>
      </trkpt>
      <trkpt lat="45.31667" lon="4.48102">
        <ele>1218.5</ele>
        <time>2018-08-19T09:37:39.000Z</time>
      </trkpt>
      <trkpt lat="45.31666" lon="4.48102">
        <ele>1218.4</ele>
        <time>2018-08-19T09:37:40.000Z</time>
      </trkpt>
      <trkpt lat="45.31665" lon="4.48101">
        <ele>1218.3</ele>
        <time>2018-08-19T09:37:41.000Z</time>
      </trkpt>
      <trkpt lat="45.31664" lon="4.48101">
        <ele>1218.3</ele>
        <time>2018-08-19T09:37:42.000Z</time>
      </trkpt>
      <trkpt lat="45.31663" lon="4.481">
        <ele>1218.2</ele>
        <time>2018-08-19T09:37:43.000Z</time>
      </trkpt>
      <trkpt lat="45.31662" lon="4.481">
        <ele>1218.1</ele>
        <time>2018-08-19T09:37:44.000Z</time>
      </trkpt>
      <trkpt lat="45.31661" lon="4.48099">
        <ele>1218</ele>
        <time>2018-08-19T09:37:45.000Z</time>
      </trkpt>
      <trkpt lat="45.3166" lon="4.48098">
        <ele>1217.9</ele>
        <time>2018-08-19T09:37:46.000Z</time>
      </trkpt>
      <trkpt lat="45.31659" lon="4.48097">
        <ele>1217.8</ele>
        <time>2018-08-19T09:37:47.000Z</time>
      </trkpt>
      <trkpt lat="45.31658" lon="4.48097">
        <ele>1217.7</ele>
        <time>2018-08-19T09:37:48.000Z</time>
      </trkpt>
      <trkpt lat="45.31657" lon="4.48096">
        <ele>1217.6</ele>
        <time>2018-08-19T09:37:49.000Z</time>
      </trkpt>
      <trkpt lat="45.31656" lon="4.48095">
        <ele>1217.5</ele>
        <time>2018-08-19T09:37:50.000Z</time>
      </trkpt>
      <trkpt lat="45.31655" lon="4.48094">
        <ele>1217.4</ele>
        <time>2018-08-19T09:37:51.000Z</time>
      </trkpt>
      <trkpt lat="45.31654" lon="4.48093">
        <ele>1217.3</ele>
        <time>2018-08-19T09:37:52.000Z</time>
      </trkpt>
      <trkpt lat="45.31653" lon="4.48092">
        <ele>1217.2</ele>
        <time>2018-08-19T09:37:53.000Z</time>
      </trkpt>
      <trkpt lat="45.31652" lon="4.48091">
        <ele>1217.2</ele>
        <time>2018-08-19T09:37:54.000Z</time>
      </trkpt>
      <trkpt lat="45.31651" lon="4.4809">
        <ele>1217</ele>
        <time>2018-08-19T09:37:55.000Z</time>
      </trkpt>
      <trkpt lat="45.3165" lon="4.48089">
        <ele>1216.9</ele>
        <time>2018-08-19T09:37:56.000Z</time>
      </trkpt>
      <trkpt lat="45.31649" lon="4.48087">
        <ele>1216.8</ele>
        <time>2018-08-19T09:37:57.000Z</time>
      </trkpt>
      <trkpt lat="45.31648" lon="4.48086">
        <ele>1216.7</ele>
        <time>2018-08-19T09:37:58.000Z</time>
      </trkpt>
      <trkpt lat="45.31647" lon="4.48084">
        <ele>1216.6</ele>
        <time>2018-08-19T09:37:59.000Z</time>
      </trkpt>
      <trkpt lat="45.31646" lon="4.48082">
        <ele>1216.4</ele>
        <time>2018-08-19T09:38:00.000Z</time>
      </trkpt>
      <trkpt lat="45.31645" lon="4.48081">
        <ele>1216.3</ele>
        <time>2018-08-19T09:38:01.000Z</time>
      </trkpt>
      <trkpt lat="45.31644" lon="4.48079">
        <ele>1216.1</ele>
        <time>2018-08-19T09:38:02.000Z</time>
      </trkpt>
      <trkpt lat="45.31643" lon="4.48077">
        <ele>1215.9</ele>
        <time>2018-08-19T09:38:03.000Z</time>
      </trkpt>
      <trkpt lat="45.31643" lon="4.48075">
        <ele>1215.8</ele>
        <time>2018-08-19T09:38:04.000Z</time>
      </trkpt>
      <trkpt lat="45.31642" lon="4.48074">
        <ele>1215.7</ele>
        <time>2018-08-19T09:38:05.000Z</time>
      </trkpt>
      <trkpt lat="45.31642" lon="4.48072">
        <ele>1215.5</ele>
        <time>2018-08-19T09:38:06.000Z</time>
      </trkpt>
      <trkpt lat="45.31642" lon="4.48071">
        <ele>1215.4</ele>
        <time>2018-08-19T09:38:07.000Z</time>
      </trkpt>
      <trkpt lat="45.31641" lon="4.48069">
        <ele>1215.3</ele>
        <time>2018-08-19T09:38:08.000Z</time>
      </trkpt>
      <trkpt lat="45.31641" lon="4.48067">
        <ele>1215.2</ele>
        <time>2018-08-19T09:38:09.000Z</time>
      </trkpt>
      <trkpt lat="45.3164" lon="4.48066">
        <ele>1215</ele>
        <time>2018-08-19T09:38:10.000Z</time>
      </trkpt>
      <trkpt lat="45.31639" lon="4.48064">
        <ele>1214.9</ele>
        <time>2018-08-19T09:38:11.000Z</time>
      </trkpt>
      <trkpt lat="45.31639" lon="4.48063">
        <ele>1214.8</ele>
        <time>2018-08-19T09:38:12.000Z</time>
      </trkpt>
      <trkpt lat="45.31638" lon="4.48062">
        <ele>1214.6</ele>
        <time>2018-08-19T09:38:13.000Z</time>
      </trkpt>
      <trkpt lat="45.31637" lon="4.4806">
        <ele>1214.5</ele>
        <time>2018-08-19T09:38:14.000Z</time>
      </trkpt>
      <trkpt lat="45.31636" lon="4.48059">
        <ele>1214.3</ele>
        <time>2018-08-19T09:38:15.000Z</time>
      </trkpt>
      <trkpt lat="45.31635" lon="4.48057">
        <ele>1214.1</ele>
        <time>2018-08-19T09:38:16.000Z</time>
      </trkpt>
      <trkpt lat="45.31634" lon="4.48056">
        <ele>1214</ele>
        <time>2018-08-19T09:38:17.000Z</time>
      </trkpt>
      <trkpt lat="45.31632" lon="4.48055">
        <ele>1213.8</ele>
        <time>2018-08-19T09:38:18.000Z</time>
      </trkpt>
      <trkpt lat="45.31631" lon="4.48054">
        <ele>1213.7</ele>
        <time>2018-08-19T09:38:19.000Z</time>
      </trkpt>
      <trkpt lat="45.3163" lon="4.48052">
        <ele>1213.5</ele>
        <time>2018-08-19T09:38:20.000Z</time>
      </trkpt>
      <trkpt lat="45.31629" lon="4.48051">
        <ele>1213.3</ele>
        <time>2018-08-19T09:38:21.000Z</time>
      </trkpt>
      <trkpt lat="45.31628" lon="4.4805">
        <ele>1213.2</ele>
        <time>2018-08-19T09:38:22.000Z</time>
      </trkpt>
      <trkpt lat="45.31626" lon="4.48049">
        <ele>1213</ele>
        <time>2018-08-19T09:38:23.000Z</time>
      </trkpt>
      <trkpt lat="45.31625" lon="4.48048">
        <ele>1212.8</ele>
        <time>2018-08-19T09:38:24.000Z</time>
      </trkpt>
      <trkpt lat="45.31624" lon="4.48046">
        <ele>1212.7</ele>
        <time>2018-08-19T09:38:25.000Z</time>
      </trkpt>
      <trkpt lat="45.31623" lon="4.48045">
        <ele>1212.5</ele>
        <time>2018-08-19T09:38:26.000Z</time>
      </trkpt>
      <trkpt lat="45.31621" lon="4.48044">
        <ele>1212.4</ele>
        <time>2018-08-19T09:38:27.000Z</time>
      </trkpt>
      <trkpt lat="45.3162" lon="4.48042">
        <ele>1212.2</ele>
        <time>2018-08-19T09:38:28.000Z</time>
      </trkpt>
      <trkpt lat="45.31619" lon="4.48041">
        <ele>1212</ele>
        <time>2018-08-19T09:38:29.000Z</time>
      </trkpt>
      <trkpt lat="45.31618" lon="4.48039">
        <ele>1211.9</ele>
        <time>2018-08-19T09:38:30.000Z</time>
      </trkpt>
      <trkpt lat="45.31618" lon="4.48037">
        <ele>1211.7</ele>
        <time>2018-08-19T09:38:31.000Z</time>
      </trkpt>
      <trkpt lat="45.31617" lon="4.48036">
        <ele>1211.6</ele>
        <time>2018-08-19T09:38:32.000Z</time>
      </trkpt>
      <trkpt lat="45.31616" lon="4.48034">
        <ele>1211.4</ele>
        <time>2018-08-19T09:38:33.000Z</time>
      </trkpt>
      <trkpt lat="45.31615" lon="4.48033">
        <ele>1211.3</ele>
        <time>2018-08-19T09:38:34.000Z</time>
      </trkpt>
      <trkpt lat="45.31615" lon="4.48031">
        <ele>1211.1</ele>
        <time>2018-08-19T09:38:35.000Z</time>
      </trkpt>
      <trkpt lat="45.31614" lon="4.4803">
        <ele>1211</ele>
        <time>2018-08-19T09:38:36.000Z</time>
      </trkpt>
      <trkpt lat="45.31613" lon="4.48028">
        <ele>1210.9</ele>
        <time>2018-08-19T09:38:37.000Z</time>
      </trkpt>
      <trkpt lat="45.31613" lon="4.48027">
        <ele>1210.7</ele>
        <time>2018-08-19T09:38:38.000Z</time>
      </trkpt>
      <trkpt lat="45.31612" lon="4.48026">
        <ele>1210.6</ele>
        <time>2018-08-19T09:38:39.000Z</time>
      </trkpt>
      <trkpt lat="45.31611" lon="4.48025">
        <ele>1210.5</ele>
        <time>2018-08-19T09:38:40.000Z</time>
      </trkpt>
      <trkpt lat="45.31611" lon="4.48024">
        <ele>1210.4</ele>
        <time>2018-08-19T09:38:41.000Z</time>
      </trkpt>
      <trkpt lat="45.3161" lon="4.48023">
        <ele>1210.3</ele>
        <time>2018-08-19T09:38:42.000Z</time>
      </trkpt>
      <trkpt lat="45.31609" lon="4.48022">
        <ele>1210.2</ele>
        <time>2018-08-19T09:38:43.000Z</time>
      </trkpt>
      <trkpt lat="45.31608" lon="4.48021">
        <ele>1210</ele>
        <time>2018-08-19T09:38:44.000Z</time>
      </trkpt>
      <trkpt lat="45.31607" lon="4.48019">
        <ele>1209.9</ele>
        <time>2018-08-19T09:38:45.000Z</time>
      </trkpt>
      <trkpt lat="45.31606" lon="4.48018">
        <ele>1209.7</ele>
        <time>2018-08-19T09:38:46.000Z</time>
      </trkpt>
      <trkpt lat="45.31605" lon="4.48017">
        <ele>1209.6</ele>
        <time>2018-08-19T09:38:47.000Z</time>
      </trkpt>
      <trkpt lat="45.31604" lon="4.48015">
        <ele>1209.4</ele>
        <time>2018-08-19T09:38:48.000Z</time>
      </trkpt>
      <trkpt lat="45.31603" lon="4.48014">
        <ele>1209.3</ele>
        <time>2018-08-19T09:38:49.000Z</time>
      </trkpt>
      <trkpt lat="45.31602" lon="4.48013">
        <ele>1209.1</ele>
        <time>2018-08-19T09:38:50.000Z</time>
      </trkpt>
      <trkpt lat="45.31601" lon="4.48011">
        <ele>1208.9</ele>
        <time>2018-08-19T09:38:51.000Z</time>
      </trkpt>
      <trkpt lat="45.316" lon="4.4801">
        <ele>1208.8</ele>
        <time>2018-08-19T09:38:52.000Z</time>
      </trkpt>
      <trkpt lat="45.31599" lon="4.48008">
        <ele>1208.6</ele>
        <time>2018-08-19T09:38:53.000Z</time>
      </trkpt>
      <trkpt lat="45.31598" lon="4.48007">
        <ele>1208.4</ele>
        <time>2018-08-19T09:38:54.000Z</time>
      </trkpt>
      <trkpt lat="45.31597" lon="4.48005">
        <ele>1208.3</ele>
        <time>2018-08-19T09:38:55.000Z</time>
      </trkpt>
      <trkpt lat="45.31596" lon="4.48004">
        <ele>1208.1</ele>
        <time>2018-08-19T09:38:56.000Z</time>
      </trkpt>
      <trkpt lat="45.31595" lon="4.48003">
        <ele>1208</ele>
        <time>2018-08-19T09:38:57.000Z</time>
      </trkpt>
      <trkpt lat="45.31594" lon="4.48001">
        <ele>1207.8</ele>
        <time>2018-08-19T09:38:58.000Z</time>
      </trkpt>
      <trkpt lat="45.31593" lon="4.48">
        <ele>1207.7</ele>
        <time>2018-08-19T09:38:59.000Z</time>
      </trkpt>
      <trkpt lat="45.31592" lon="4.47998">
        <ele>1207.5</ele>
        <time>2018-08-19T09:39:00.000Z</time>
      </trkpt>
      <trkpt lat="45.31591" lon="4.47997">
        <ele>1207.4</ele>
        <time>2018-08-19T09:39:01.000Z</time>
      </trkpt>
      <trkpt lat="45.3159" lon="4.47996">
        <ele>1207.3</ele>
        <time>2018-08-19T09:39:02.000Z</time>
      </trkpt>
      <trkpt lat="45.31589" lon="4.47995">
        <ele>1207.1</ele>
        <time>2018-08-19T09:39:03.000Z</time>
      </trkpt>
      <trkpt lat="45.31588" lon="4.47993">
        <ele>1207</ele>
        <time>2018-08-19T09:39:04.000Z</time>
      </trkpt>
      <trkpt lat="45.31587" lon="4.47992">
        <ele>1206.9</ele>
        <time>2018-08-19T09:39:05.000Z</time>
      </trkpt>
      <trkpt lat="45.31587" lon="4.47991">
        <ele>1206.8</ele>
        <time>2018-08-19T09:39:06.000Z</time>
      </trkpt>
      <trkpt lat="45.31586" lon="4.4799">
        <ele>1206.7</ele>
        <time>2018-08-19T09:39:07.000Z</time>
      </trkpt>
      <trkpt lat="45.31585" lon="4.47989">
        <ele>1206.6</ele>
        <time>2018-08-19T09:39:08.000Z</time>
      </trkpt>
      <trkpt lat="45.31584" lon="4.47988">
        <ele>1206.4</ele>
        <time>2018-08-19T09:39:09.000Z</time>
      </trkpt>
      <trkpt lat="45.31583" lon="4.47987">
        <ele>1206.3</ele>
        <time>2018-08-19T09:39:10.000Z</time>
      </trkpt>
      <trkpt lat="45.31582" lon="4.47986">
        <ele>1206.2</ele>
        <time>2018-08-19T09:39:11.000Z</time>
      </trkpt>
      <trkpt lat="45.31581" lon="4.47985">
        <ele>1206.1</ele>
        <time>2018-08-19T09:39:12.000Z</time>
      </trkpt>
      <trkpt lat="45.3158" lon="4.47984">
        <ele>1206.1</ele>
        <time>2018-08-19T09:39:13.000Z</time>
      </trkpt>
      <trkpt lat="45.31579" lon="4.47983">
        <ele>1206</ele>
        <time>2018-08-19T09:39:14.000Z</time>
      </trkpt>
      <trkpt lat="45.31578" lon="4.47983">
        <ele>1205.9</ele>
        <time>2018-08-19T09:39:15.000Z</time>
      </trkpt>
      <trkpt lat="45.31577" lon="4.47982">
        <ele>1205.8</ele>
        <time>2018-08-19T09:39:16.000Z</time>
      </trkpt>
      <trkpt lat="45.31577" lon="4.47981">
        <ele>1205.7</ele>
        <time>2018-08-19T09:39:17.000Z</time>
      </trkpt>
      <trkpt lat="45.31576" lon="4.4798">
        <ele>1205.6</ele>
        <time>2018-08-19T09:39:18.000Z</time>
      </trkpt>
      <trkpt lat="45.31575" lon="4.47979">
        <ele>1205.5</ele>
        <time>2018-08-19T09:39:19.000Z</time>
      </trkpt>
      <trkpt lat="45.31574" lon="4.47978">
        <ele>1205.4</ele>
        <time>2018-08-19T09:39:20.000Z</time>
      </trkpt>
      <trkpt lat="45.31573" lon="4.47977">
        <ele>1205.3</ele>
        <time>2018-08-19T09:39:21.000Z</time>
      </trkpt>
      <trkpt lat="45.31572" lon="4.47976">
        <ele>1205.2</ele>
        <time>2018-08-19T09:39:22.000Z</time>
      </trkpt>
      <trkpt lat="45.31571" lon="4.47975">
        <ele>1205.1</ele>
        <time>2018-08-19T09:39:23.000Z</time>
      </trkpt>
      <trkpt lat="45.31571" lon="4.47973">
        <ele>1205</ele>
        <time>2018-08-19T09:39:24.000Z</time>
      </trkpt>
      <trkpt lat="45.3157" lon="4.47972">
        <ele>1204.8</ele>
        <time>2018-08-19T09:39:25.000Z</time>
      </trkpt>
      <trkpt lat="45.31569" lon="4.47971">
        <ele>1204.7</ele>
        <time>2018-08-19T09:39:26.000Z</time>
      </trkpt>
      <trkpt lat="45.31568" lon="4.4797">
        <ele>1204.6</ele>
        <time>2018-08-19T09:39:27.000Z</time>
      </trkpt>
      <trkpt lat="45.31568" lon="4.47968">
        <ele>1204.5</ele>
        <time>2018-08-19T09:39:28.000Z</time>
      </trkpt>
      <trkpt lat="45.31567" lon="4.47967">
        <ele>1204.4</ele>
        <time>2018-08-19T09:39:29.000Z</time>
      </trkpt>
      <trkpt lat="45.31566" lon="4.47966">
        <ele>1204.3</ele>
        <time>2018-08-19T09:39:30.000Z</time>
      </trkpt>
      <trkpt lat="45.31565" lon="4.47965">
        <ele>1204.2</ele>
        <time>2018-08-19T09:39:31.000Z</time>
      </trkpt>
      <trkpt lat="45.31565" lon="4.47964">
        <ele>1204.1</ele>
        <time>2018-08-19T09:39:32.000Z</time>
      </trkpt>
      <trkpt lat="45.31564" lon="4.47963">
        <ele>1204</ele>
        <time>2018-08-19T09:39:33.000Z</time>
      </trkpt>
      <trkpt lat="45.31563" lon="4.47962">
        <ele>1204</ele>
        <time>2018-08-19T09:39:34.000Z</time>
      </trkpt>
      <trkpt lat="45.31562" lon="4.47962">
        <ele>1203.9</ele>
        <time>2018-08-19T09:39:35.000Z</time>
      </trkpt>
      <trkpt lat="45.31562" lon="4.47961">
        <ele>1203.8</ele>
        <time>2018-08-19T09:39:36.000Z</time>
      </trkpt>
      <trkpt lat="45.31561" lon="4.47961">
        <ele>1203.8</ele>
        <time>2018-08-19T09:39:37.000Z</time>
      </trkpt>
      <trkpt lat="45.3156" lon="4.4796">
        <ele>1203.7</ele>
        <time>2018-08-19T09:39:38.000Z</time>
      </trkpt>
      <trkpt lat="45.3156" lon="4.4796">
        <ele>1203.6</ele>
        <time>2018-08-19T09:39:39.000Z</time>
      </trkpt>
      <trkpt lat="45.31559" lon="4.4796">
        <ele>1203.6</ele>
        <time>2018-08-19T09:39:40.000Z</time>
      </trkpt>
      <trkpt lat="45.31559" lon="4.47959">
        <ele>1203.6</ele>
        <time>2018-08-19T09:39:41.000Z</time>
      </trkpt>
      <trkpt lat="45.31559" lon="4.47959">
        <ele>1203.6</ele>
        <time>2018-08-19T09:39:42.000Z</time>
      </trkpt>
      <trkpt lat="45.31558" lon="4.47959">
        <ele>1203.6</ele>
        <time>2018-08-19T09:39:43.000Z</time>
      </trkpt>
      <trkpt lat="45.31558" lon="4.47959">
        <ele>1203.6</ele>
        <time>2018-08-19T09:39:44.000Z</time>
      </trkpt>
      <trkpt lat="45.31558" lon="4.47959">
        <ele>1203.6</ele>
        <time>2018-08-19T09:39:45.000Z</time>
      </trkpt>
      <trkpt lat="45.31558" lon="4.47959">
        <ele>1203.6</ele>
        <time>2018-08-19T09:39:46.000Z</time>
      </trkpt>
      <trkpt lat="45.31558" lon="4.47959">
        <ele>1203.6</ele>
        <time>2018-08-19T09:39:47.000Z</time>
      </trkpt>
      <trkpt lat="45.31558" lon="4.47959">
        <ele>1203.6</ele>
        <time>2018-08-19T09:39:48.000Z</time>
      </trkpt>
      <trkpt lat="45.31558" lon="4.47959">
        <ele>1203.5</ele>
        <time>2018-08-19T09:39:49.000Z</time>
      </trkpt>
      <trkpt lat="45.31558" lon="4.47959">
        <ele>1203.5</ele>
        <time>2018-08-19T09:39:50.000Z</time>
      </trkpt>
      <trkpt lat="45.31558" lon="4.47959">
        <ele>1203.5</ele>
        <time>2018-08-19T09:39:51.000Z</time>
      </trkpt>
      <trkpt lat="45.31557" lon="4.47959">
        <ele>1203.4</ele>
        <time>2018-08-19T09:39:52.000Z</time>
      </trkpt>
      <trkpt lat="45.31556" lon="4.47958">
        <ele>1203.4</ele>
        <time>2018-08-19T09:39:53.000Z</time>
      </trkpt>
      <trkpt lat="45.31556" lon="4.47958">
        <ele>1203.3</ele>
        <time>2018-08-19T09:39:54.000Z</time>
      </trkpt>
      <trkpt lat="45.31555" lon="4.47957">
        <ele>1203.2</ele>
        <time>2018-08-19T09:39:55.000Z</time>
      </trkpt>
      <trkpt lat="45.31554" lon="4.47956">
        <ele>1203.1</ele>
        <time>2018-08-19T09:39:56.000Z</time>
      </trkpt>
      <trkpt lat="45.31554" lon="4.47955">
        <ele>1203</ele>
        <time>2018-08-19T09:39:57.000Z</time>
      </trkpt>
      <trkpt lat="45.31553" lon="4.47954">
        <ele>1203</ele>
        <time>2018-08-19T09:39:58.000Z</time>
      </trkpt>
      <trkpt lat="45.31553" lon="4.47952">
        <ele>1202.9</ele>
        <time>2018-08-19T09:39:59.000Z</time>
      </trkpt>
      <trkpt lat="45.31552" lon="4.47951">
        <ele>1202.8</ele>
        <time>2018-08-19T09:40:00.000Z</time>
      </trkpt>
      <trkpt lat="45.31552" lon="4.4795">
        <ele>1202.7</ele>
        <time>2018-08-19T09:40:01.000Z</time>
      </trkpt>
      <trkpt lat="45.31551" lon="4.47949">
        <ele>1202.6</ele>
        <time>2018-08-19T09:40:02.000Z</time>
      </trkpt>
      <trkpt lat="45.3155" lon="4.47947">
        <ele>1202.5</ele>
        <time>2018-08-19T09:40:03.000Z</time>
      </trkpt>
      <trkpt lat="45.3155" lon="4.47946">
        <ele>1202.4</ele>
        <time>2018-08-19T09:40:04.000Z</time>
      </trkpt>
      <trkpt lat="45.31549" lon="4.47944">
        <ele>1202.3</ele>
        <time>2018-08-19T09:40:05.000Z</time>
      </trkpt>
      <trkpt lat="45.31548" lon="4.47943">
        <ele>1202.1</ele>
        <time>2018-08-19T09:40:06.000Z</time>
      </trkpt>
      <trkpt lat="45.31547" lon="4.47941">
        <ele>1202</ele>
        <time>2018-08-19T09:40:07.000Z</time>
      </trkpt>
      <trkpt lat="45.31547" lon="4.4794">
        <ele>1201.9</ele>
        <time>2018-08-19T09:40:08.000Z</time>
      </trkpt>
      <trkpt lat="45.31546" lon="4.47939">
        <ele>1201.8</ele>
        <time>2018-08-19T09:40:09.000Z</time>
      </trkpt>
      <trkpt lat="45.31545" lon="4.47937">
        <ele>1201.7</ele>
        <time>2018-08-19T09:40:10.000Z</time>
      </trkpt>
      <trkpt lat="45.31544" lon="4.47936">
        <ele>1201.5</ele>
        <time>2018-08-19T09:40:11.000Z</time>
      </trkpt>
      <trkpt lat="45.31543" lon="4.47934">
        <ele>1201.4</ele>
        <time>2018-08-19T09:40:12.000Z</time>
      </trkpt>
      <trkpt lat="45.31542" lon="4.47933">
        <ele>1201.3</ele>
        <time>2018-08-19T09:40:13.000Z</time>
      </trkpt>
      <trkpt lat="45.31541" lon="4.47932">
        <ele>1201.2</ele>
        <time>2018-08-19T09:40:14.000Z</time>
      </trkpt>
      <trkpt lat="45.3154" lon="4.47931">
        <ele>1201</ele>
        <time>2018-08-19T09:40:15.000Z</time>
      </trkpt>
      <trkpt lat="45.31538" lon="4.47929">
        <ele>1200.9</ele>
        <time>2018-08-19T09:40:16.000Z</time>
      </trkpt>
      <trkpt lat="45.31537" lon="4.47928">
        <ele>1200.8</ele>
        <time>2018-08-19T09:40:17.000Z</time>
      </trkpt>
      <trkpt lat="45.31536" lon="4.47927">
        <ele>1200.7</ele>
        <time>2018-08-19T09:40:18.000Z</time>
      </trkpt>
      <trkpt lat="45.31535" lon="4.47926">
        <ele>1200.6</ele>
        <time>2018-08-19T09:40:19.000Z</time>
      </trkpt>
      <trkpt lat="45.31534" lon="4.47925">
        <ele>1200.4</ele>
        <time>2018-08-19T09:40:20.000Z</time>
      </trkpt>
      <trkpt lat="45.31533" lon="4.47924">
        <ele>1200.3</ele>
        <time>2018-08-19T09:40:21.000Z</time>
      </trkpt>
      <trkpt lat="45.31532" lon="4.47923">
        <ele>1200.2</ele>
        <time>2018-08-19T09:40:22.000Z</time>
      </trkpt>
      <trkpt lat="45.31531" lon="4.47922">
        <ele>1200.1</ele>
        <time>2018-08-19T09:40:23.000Z</time>
      </trkpt>
      <trkpt lat="45.3153" lon="4.47921">
        <ele>1200</ele>
        <time>2018-08-19T09:40:24.000Z</time>
      </trkpt>
      <trkpt lat="45.3153" lon="4.47921">
        <ele>1200</ele>
        <time>2018-08-19T09:40:25.000Z</time>
      </trkpt>
      <trkpt lat="45.31529" lon="4.4792">
        <ele>1199.9</ele>
        <time>2018-08-19T09:40:26.000Z</time>
      </trkpt>
      <trkpt lat="45.31528" lon="4.47919">
        <ele>1199.8</ele>
        <time>2018-08-19T09:40:27.000Z</time>
      </trkpt>
      <trkpt lat="45.31527" lon="4.47919">
        <ele>1199.7</ele>
        <time>2018-08-19T09:40:28.000Z</time>
      </trkpt>
      <trkpt lat="45.31526" lon="4.47918">
        <ele>1199.6</ele>
        <time>2018-08-19T09:40:29.000Z</time>
      </trkpt>
      <trkpt lat="45.31525" lon="4.47918">
        <ele>1199.6</ele>
        <time>2018-08-19T09:40:30.000Z</time>
      </trkpt>
      <trkpt lat="45.31524" lon="4.47918">
        <ele>1199.5</ele>
        <time>2018-08-19T09:40:31.000Z</time>
      </trkpt>
      <trkpt lat="45.31523" lon="4.47917">
        <ele>1199.4</ele>
        <time>2018-08-19T09:40:32.000Z</time>
      </trkpt>
      <trkpt lat="45.31522" lon="4.47917">
        <ele>1199.3</ele>
        <time>2018-08-19T09:40:33.000Z</time>
      </trkpt>
      <trkpt lat="45.31521" lon="4.47917">
        <ele>1199.3</ele>
        <time>2018-08-19T09:40:34.000Z</time>
      </trkpt>
      <trkpt lat="45.3152" lon="4.47917">
        <ele>1199.2</ele>
        <time>2018-08-19T09:40:35.000Z</time>
      </trkpt>
      <trkpt lat="45.31519" lon="4.47917">
        <ele>1199.2</ele>
        <time>2018-08-19T09:40:36.000Z</time>
      </trkpt>
      <trkpt lat="45.31519" lon="4.47916">
        <ele>1199.2</ele>
        <time>2018-08-19T09:40:37.000Z</time>
      </trkpt>
      <trkpt lat="45.31518" lon="4.47916">
        <ele>1199.1</ele>
        <time>2018-08-19T09:40:38.000Z</time>
      </trkpt>
      <trkpt lat="45.31518" lon="4.47916">
        <ele>1199.1</ele>
        <time>2018-08-19T09:40:39.000Z</time>
      </trkpt>
      <trkpt lat="45.31517" lon="4.47916">
        <ele>1199.1</ele>
        <time>2018-08-19T09:40:40.000Z</time>
      </trkpt>
      <trkpt lat="45.31517" lon="4.47915">
        <ele>1199.1</ele>
        <time>2018-08-19T09:40:41.000Z</time>
      </trkpt>
      <trkpt lat="45.31517" lon="4.47915">
        <ele>1199.1</ele>
        <time>2018-08-19T09:40:42.000Z</time>
      </trkpt>
      <trkpt lat="45.31516" lon="4.47915">
        <ele>1199.1</ele>
        <time>2018-08-19T09:40:43.000Z</time>
      </trkpt>
      <trkpt lat="45.31516" lon="4.47915">
        <ele>1199.1</ele>
        <time>2018-08-19T09:40:44.000Z</time>
      </trkpt>
      <trkpt lat="45.31516" lon="4.47915">
        <ele>1199.1</ele>
        <time>2018-08-19T09:40:45.000Z</time>
      </trkpt>
      <trkpt lat="45.31516" lon="4.47915">
        <ele>1199.1</ele>
        <time>2018-08-19T09:40:46.000Z</time>
      </trkpt>
      <trkpt lat="45.31515" lon="4.47914">
        <ele>1199.1</ele>
        <time>2018-08-19T09:40:47.000Z</time>
      </trkpt>
      <trkpt lat="45.31515" lon="4.47914">
        <ele>1199.1</ele>
        <time>2018-08-19T09:40:48.000Z</time>
      </trkpt>
      <trkpt lat="45.31514" lon="4.47913">
        <ele>1199.2</ele>
        <time>2018-08-19T09:40:49.000Z</time>
      </trkpt>
      <trkpt lat="45.31514" lon="4.47912">
        <ele>1199.2</ele>
        <time>2018-08-19T09:40:50.000Z</time>
      </trkpt>
      <trkpt lat="45.31513" lon="4.47911">
        <ele>1199.3</ele>
        <time>2018-08-19T09:40:51.000Z</time>
      </trkpt>
      <trkpt lat="45.31513" lon="4.4791">
        <ele>1199.4</ele>
        <time>2018-08-19T09:40:52.000Z</time>
      </trkpt>
      <trkpt lat="45.31513" lon="4.47909">
        <ele>1199.5</ele>
        <time>2018-08-19T09:40:53.000Z</time>
      </trkpt>
      <trkpt lat="45.31513" lon="4.47908">
        <ele>1199.6</ele>
        <time>2018-08-19T09:40:54.000Z</time>
      </trkpt>
      <trkpt lat="45.31512" lon="4.47907">
        <ele>1199.6</ele>
        <time>2018-08-19T09:40:55.000Z</time>
      </trkpt>
      <trkpt lat="45.31512" lon="4.47907">
        <ele>1199.6</ele>
        <time>2018-08-19T09:40:56.000Z</time>
      </trkpt>
      <trkpt lat="45.31512" lon="4.47906">
        <ele>1199.7</ele>
        <time>2018-08-19T09:40:57.000Z</time>
      </trkpt>
      <trkpt lat="45.31512" lon="4.47906">
        <ele>1199.7</ele>
        <time>2018-08-19T09:40:58.000Z</time>
      </trkpt>
      <trkpt lat="45.31512" lon="4.47906">
        <ele>1199.7</ele>
        <time>2018-08-19T09:40:59.000Z</time>
      </trkpt>
      <trkpt lat="45.31512" lon="4.47905">
        <ele>1199.7</ele>
        <time>2018-08-19T09:41:00.000Z</time>
      </trkpt>
      <trkpt lat="45.31512" lon="4.47905">
        <ele>1199.7</ele>
        <time>2018-08-19T09:41:01.000Z</time>
      </trkpt>
      <trkpt lat="45.31512" lon="4.47905">
        <ele>1199.8</ele>
        <time>2018-08-19T09:41:02.000Z</time>
      </trkpt>
      <trkpt lat="45.31511" lon="4.47904">
        <ele>1199.8</ele>
        <time>2018-08-19T09:41:03.000Z</time>
      </trkpt>
      <trkpt lat="45.3151" lon="4.47902">
        <ele>1199.9</ele>
        <time>2018-08-19T09:41:04.000Z</time>
      </trkpt>
      <trkpt lat="45.31509" lon="4.47901">
        <ele>1200</ele>
        <time>2018-08-19T09:41:05.000Z</time>
      </trkpt>
      <trkpt lat="45.31508" lon="4.479">
        <ele>1200.1</ele>
        <time>2018-08-19T09:41:06.000Z</time>
      </trkpt>
      <trkpt lat="45.31508" lon="4.47899">
        <ele>1200.2</ele>
        <time>2018-08-19T09:41:07.000Z</time>
      </trkpt>
      <trkpt lat="45.31508" lon="4.47898">
        <ele>1200.2</ele>
        <time>2018-08-19T09:41:08.000Z</time>
      </trkpt>
      <trkpt lat="45.31507" lon="4.47898">
        <ele>1200.3</ele>
        <time>2018-08-19T09:41:09.000Z</time>
      </trkpt>
      <trkpt lat="45.31507" lon="4.47897">
        <ele>1200.3</ele>
        <time>2018-08-19T09:41:10.000Z</time>
      </trkpt>
      <trkpt lat="45.31507" lon="4.47897">
        <ele>1200.4</ele>
        <time>2018-08-19T09:41:11.000Z</time>
      </trkpt>
      <trkpt lat="45.31507" lon="4.47896">
        <ele>1200.5</ele>
        <time>2018-08-19T09:41:12.000Z</time>
      </trkpt>
      <trkpt lat="45.31507" lon="4.47895">
        <ele>1200.6</ele>
        <time>2018-08-19T09:41:13.000Z</time>
      </trkpt>
      <trkpt lat="45.31506" lon="4.47893">
        <ele>1200.7</ele>
        <time>2018-08-19T09:41:14.000Z</time>
      </trkpt>
      <trkpt lat="45.31506" lon="4.47892">
        <ele>1200.8</ele>
        <time>2018-08-19T09:41:15.000Z</time>
      </trkpt>
      <trkpt lat="45.31505" lon="4.47891">
        <ele>1200.9</ele>
        <time>2018-08-19T09:41:16.000Z</time>
      </trkpt>
      <trkpt lat="45.31505" lon="4.4789">
        <ele>1200.9</ele>
        <time>2018-08-19T09:41:17.000Z</time>
      </trkpt>
      <trkpt lat="45.31504" lon="4.47889">
        <ele>1201</ele>
        <time>2018-08-19T09:41:18.000Z</time>
      </trkpt>
      <trkpt lat="45.31503" lon="4.47889">
        <ele>1201.1</ele>
        <time>2018-08-19T09:41:19.000Z</time>
      </trkpt>
      <trkpt lat="45.31502" lon="4.47888">
        <ele>1201.1</ele>
        <time>2018-08-19T09:41:20.000Z</time>
      </trkpt>
      <trkpt lat="45.31501" lon="4.47888">
        <ele>1201.2</ele>
        <time>2018-08-19T09:41:21.000Z</time>
      </trkpt>
      <trkpt lat="45.315" lon="4.47887">
        <ele>1201.2</ele>
        <time>2018-08-19T09:41:22.000Z</time>
      </trkpt>
      <trkpt lat="45.31499" lon="4.47887">
        <ele>1201.1</ele>
        <time>2018-08-19T09:41:23.000Z</time>
      </trkpt>
      <trkpt lat="45.31498" lon="4.47887">
        <ele>1201.1</ele>
        <time>2018-08-19T09:41:24.000Z</time>
      </trkpt>
      <trkpt lat="45.31497" lon="4.47886">
        <ele>1201.1</ele>
        <time>2018-08-19T09:41:25.000Z</time>
      </trkpt>
      <trkpt lat="45.31495" lon="4.47886">
        <ele>1201</ele>
        <time>2018-08-19T09:41:26.000Z</time>
      </trkpt>
      <trkpt lat="45.31494" lon="4.47885">
        <ele>1201</ele>
        <time>2018-08-19T09:41:27.000Z</time>
      </trkpt>
      <trkpt lat="45.31493" lon="4.47885">
        <ele>1201</ele>
        <time>2018-08-19T09:41:28.000Z</time>
      </trkpt>
      <trkpt lat="45.31492" lon="4.47884">
        <ele>1201</ele>
        <time>2018-08-19T09:41:29.000Z</time>
      </trkpt>
      <trkpt lat="45.3149" lon="4.47883">
        <ele>1201</ele>
        <time>2018-08-19T09:41:30.000Z</time>
      </trkpt>
      <trkpt lat="45.31489" lon="4.47883">
        <ele>1201</ele>
        <time>2018-08-19T09:41:31.000Z</time>
      </trkpt>
      <trkpt lat="45.31488" lon="4.47882">
        <ele>1201</ele>
        <time>2018-08-19T09:41:32.000Z</time>
      </trkpt>
      <trkpt lat="45.31487" lon="4.47881">
        <ele>1201</ele>
        <time>2018-08-19T09:41:33.000Z</time>
      </trkpt>
      <trkpt lat="45.31485" lon="4.47881">
        <ele>1201</ele>
        <time>2018-08-19T09:41:34.000Z</time>
      </trkpt>
      <trkpt lat="45.31484" lon="4.4788">
        <ele>1200.9</ele>
        <time>2018-08-19T09:41:35.000Z</time>
      </trkpt>
      <trkpt lat="45.31483" lon="4.47879">
        <ele>1200.9</ele>
        <time>2018-08-19T09:41:36.000Z</time>
      </trkpt>
      <trkpt lat="45.31482" lon="4.47879">
        <ele>1200.9</ele>
        <time>2018-08-19T09:41:37.000Z</time>
      </trkpt>
      <trkpt lat="45.3148" lon="4.47878">
        <ele>1200.9</ele>
        <time>2018-08-19T09:41:38.000Z</time>
      </trkpt>
      <trkpt lat="45.31479" lon="4.47878">
        <ele>1200.9</ele>
        <time>2018-08-19T09:41:39.000Z</time>
      </trkpt>
      <trkpt lat="45.31478" lon="4.47877">
        <ele>1200.8</ele>
        <time>2018-08-19T09:41:40.000Z</time>
      </trkpt>
      <trkpt lat="45.31477" lon="4.47877">
        <ele>1200.8</ele>
        <time>2018-08-19T09:41:41.000Z</time>
      </trkpt>
      <trkpt lat="45.31475" lon="4.47876">
        <ele>1200.8</ele>
        <time>2018-08-19T09:41:42.000Z</time>
      </trkpt>
      <trkpt lat="45.31474" lon="4.47876">
        <ele>1200.7</ele>
        <time>2018-08-19T09:41:43.000Z</time>
      </trkpt>
      <trkpt lat="45.31473" lon="4.47875">
        <ele>1200.7</ele>
        <time>2018-08-19T09:41:44.000Z</time>
      </trkpt>
      <trkpt lat="45.31472" lon="4.47875">
        <ele>1200.7</ele>
        <time>2018-08-19T09:41:45.000Z</time>
      </trkpt>
      <trkpt lat="45.31471" lon="4.47874">
        <ele>1200.6</ele>
        <time>2018-08-19T09:41:46.000Z</time>
      </trkpt>
      <trkpt lat="45.31469" lon="4.47874">
        <ele>1200.6</ele>
        <time>2018-08-19T09:41:47.000Z</time>
      </trkpt>
      <trkpt lat="45.31468" lon="4.47873">
        <ele>1200.6</ele>
        <time>2018-08-19T09:41:48.000Z</time>
      </trkpt>
      <trkpt lat="45.31467" lon="4.47873">
        <ele>1200.5</ele>
        <time>2018-08-19T09:41:49.000Z</time>
      </trkpt>
      <trkpt lat="45.31466" lon="4.47873">
        <ele>1200.5</ele>
        <time>2018-08-19T09:41:50.000Z</time>
      </trkpt>
      <trkpt lat="45.31465" lon="4.47872">
        <ele>1200.4</ele>
        <time>2018-08-19T09:41:51.000Z</time>
      </trkpt>
      <trkpt lat="45.31464" lon="4.47872">
        <ele>1200.4</ele>
        <time>2018-08-19T09:41:52.000Z</time>
      </trkpt>
      <trkpt lat="45.31463" lon="4.47871">
        <ele>1200.4</ele>
        <time>2018-08-19T09:41:53.000Z</time>
      </trkpt>
      <trkpt lat="45.31461" lon="4.47871">
        <ele>1200.3</ele>
        <time>2018-08-19T09:41:54.000Z</time>
      </trkpt>
      <trkpt lat="45.3146" lon="4.4787">
        <ele>1200.3</ele>
        <time>2018-08-19T09:41:55.000Z</time>
      </trkpt>
      <trkpt lat="45.31459" lon="4.4787">
        <ele>1200.3</ele>
        <time>2018-08-19T09:41:56.000Z</time>
      </trkpt>
      <trkpt lat="45.31458" lon="4.47869">
        <ele>1200.2</ele>
        <time>2018-08-19T09:41:57.000Z</time>
      </trkpt>
      <trkpt lat="45.31457" lon="4.47869">
        <ele>1200.2</ele>
        <time>2018-08-19T09:41:58.000Z</time>
      </trkpt>
      <trkpt lat="45.31456" lon="4.47868">
        <ele>1200.2</ele>
        <time>2018-08-19T09:41:59.000Z</time>
      </trkpt>
      <trkpt lat="45.31455" lon="4.47868">
        <ele>1200.2</ele>
        <time>2018-08-19T09:42:00.000Z</time>
      </trkpt>
      <trkpt lat="45.31454" lon="4.47867">
        <ele>1200.1</ele>
        <time>2018-08-19T09:42:01.000Z</time>
      </trkpt>
      <trkpt lat="45.31453" lon="4.47867">
        <ele>1200.1</ele>
        <time>2018-08-19T09:42:02.000Z</time>
      </trkpt>
      <trkpt lat="45.31452" lon="4.47866">
        <ele>1200.1</ele>
        <time>2018-08-19T09:42:03.000Z</time>
      </trkpt>
      <trkpt lat="45.31451" lon="4.47865">
        <ele>1200.1</ele>
        <time>2018-08-19T09:42:04.000Z</time>
      </trkpt>
      <trkpt lat="45.31449" lon="4.47865">
        <ele>1200.1</ele>
        <time>2018-08-19T09:42:05.000Z</time>
      </trkpt>
      <trkpt lat="45.31448" lon="4.47864">
        <ele>1200</ele>
        <time>2018-08-19T09:42:06.000Z</time>
      </trkpt>
      <trkpt lat="45.31447" lon="4.47863">
        <ele>1200</ele>
        <time>2018-08-19T09:42:07.000Z</time>
      </trkpt>
      <trkpt lat="45.31446" lon="4.47863">
        <ele>1200</ele>
        <time>2018-08-19T09:42:08.000Z</time>
      </trkpt>
      <trkpt lat="45.31445" lon="4.47862">
        <ele>1200</ele>
        <time>2018-08-19T09:42:09.000Z</time>
      </trkpt>
      <trkpt lat="45.31444" lon="4.47862">
        <ele>1199.9</ele>
        <time>2018-08-19T09:42:10.000Z</time>
      </trkpt>
      <trkpt lat="45.31443" lon="4.47861">
        <ele>1199.9</ele>
        <time>2018-08-19T09:42:11.000Z</time>
      </trkpt>
      <trkpt lat="45.31442" lon="4.47861">
        <ele>1199.8</ele>
        <time>2018-08-19T09:42:12.000Z</time>
      </trkpt>
      <trkpt lat="45.31441" lon="4.4786">
        <ele>1199.8</ele>
        <time>2018-08-19T09:42:13.000Z</time>
      </trkpt>
      <trkpt lat="45.31439" lon="4.4786">
        <ele>1199.8</ele>
        <time>2018-08-19T09:42:14.000Z</time>
      </trkpt>
      <trkpt lat="45.31438" lon="4.47859">
        <ele>1199.7</ele>
        <time>2018-08-19T09:42:15.000Z</time>
      </trkpt>
      <trkpt lat="45.31437" lon="4.47859">
        <ele>1199.7</ele>
        <time>2018-08-19T09:42:16.000Z</time>
      </trkpt>
      <trkpt lat="45.31436" lon="4.47858">
        <ele>1199.6</ele>
        <time>2018-08-19T09:42:17.000Z</time>
      </trkpt>
      <trkpt lat="45.31435" lon="4.47858">
        <ele>1199.5</ele>
        <time>2018-08-19T09:42:18.000Z</time>
      </trkpt>
      <trkpt lat="45.31434" lon="4.47858">
        <ele>1199.5</ele>
        <time>2018-08-19T09:42:19.000Z</time>
      </trkpt>
      <trkpt lat="45.31432" lon="4.47857">
        <ele>1199.4</ele>
        <time>2018-08-19T09:42:20.000Z</time>
      </trkpt>
      <trkpt lat="45.31431" lon="4.47857">
        <ele>1199.4</ele>
        <time>2018-08-19T09:42:21.000Z</time>
      </trkpt>
      <trkpt lat="45.3143" lon="4.47857">
        <ele>1199.3</ele>
        <time>2018-08-19T09:42:22.000Z</time>
      </trkpt>
      <trkpt lat="45.31429" lon="4.47857">
        <ele>1199.2</ele>
        <time>2018-08-19T09:42:23.000Z</time>
      </trkpt>
      <trkpt lat="45.31428" lon="4.47856">
        <ele>1199.2</ele>
        <time>2018-08-19T09:42:24.000Z</time>
      </trkpt>
      <trkpt lat="45.31427" lon="4.47856">
        <ele>1199.1</ele>
        <time>2018-08-19T09:42:25.000Z</time>
      </trkpt>
      <trkpt lat="45.31426" lon="4.47856">
        <ele>1199</ele>
        <time>2018-08-19T09:42:26.000Z</time>
      </trkpt>
      <trkpt lat="45.31425" lon="4.47856">
        <ele>1199</ele>
        <time>2018-08-19T09:42:27.000Z</time>
      </trkpt>
      <trkpt lat="45.31424" lon="4.47856">
        <ele>1198.9</ele>
        <time>2018-08-19T09:42:28.000Z</time>
      </trkpt>
      <trkpt lat="45.31423" lon="4.47855">
        <ele>1198.9</ele>
        <time>2018-08-19T09:42:29.000Z</time>
      </trkpt>
      <trkpt lat="45.31422" lon="4.47855">
        <ele>1198.8</ele>
        <time>2018-08-19T09:42:30.000Z</time>
      </trkpt>
      <trkpt lat="45.31421" lon="4.47855">
        <ele>1198.7</ele>
        <time>2018-08-19T09:42:31.000Z</time>
      </trkpt>
      <trkpt lat="45.3142" lon="4.47855">
        <ele>1198.7</ele>
        <time>2018-08-19T09:42:32.000Z</time>
      </trkpt>
      <trkpt lat="45.31419" lon="4.47854">
        <ele>1198.6</ele>
        <time>2018-08-19T09:42:33.000Z</time>
      </trkpt>
      <trkpt lat="45.31418" lon="4.47854">
        <ele>1198.6</ele>
        <time>2018-08-19T09:42:34.000Z</time>
      </trkpt>
      <trkpt lat="45.31417" lon="4.47854">
        <ele>1198.5</ele>
        <time>2018-08-19T09:42:35.000Z</time>
      </trkpt>
      <trkpt lat="45.31416" lon="4.47853">
        <ele>1198.5</ele>
        <time>2018-08-19T09:42:36.000Z</time>
      </trkpt>
      <trkpt lat="45.31415" lon="4.47853">
        <ele>1198.4</ele>
        <time>2018-08-19T09:42:37.000Z</time>
      </trkpt>
      <trkpt lat="45.31414" lon="4.47853">
        <ele>1198.4</ele>
        <time>2018-08-19T09:42:38.000Z</time>
      </trkpt>
      <trkpt lat="45.31413" lon="4.47852">
        <ele>1198.4</ele>
        <time>2018-08-19T09:42:39.000Z</time>
      </trkpt>
      <trkpt lat="45.31411" lon="4.47851">
        <ele>1198.3</ele>
        <time>2018-08-19T09:42:40.000Z</time>
      </trkpt>
      <trkpt lat="45.3141" lon="4.47851">
        <ele>1198.3</ele>
        <time>2018-08-19T09:42:41.000Z</time>
      </trkpt>
      <trkpt lat="45.31409" lon="4.4785">
        <ele>1198.3</ele>
        <time>2018-08-19T09:42:42.000Z</time>
      </trkpt>
      <trkpt lat="45.31408" lon="4.47849">
        <ele>1198.2</ele>
        <time>2018-08-19T09:42:43.000Z</time>
      </trkpt>
      <trkpt lat="45.31407" lon="4.47848">
        <ele>1198.2</ele>
        <time>2018-08-19T09:42:44.000Z</time>
      </trkpt>
      <trkpt lat="45.31406" lon="4.47847">
        <ele>1198.2</ele>
        <time>2018-08-19T09:42:45.000Z</time>
      </trkpt>
      <trkpt lat="45.31405" lon="4.47847">
        <ele>1198.2</ele>
        <time>2018-08-19T09:42:46.000Z</time>
      </trkpt>
      <trkpt lat="45.31405" lon="4.47846">
        <ele>1198.2</ele>
        <time>2018-08-19T09:42:47.000Z</time>
      </trkpt>
      <trkpt lat="45.31404" lon="4.47845">
        <ele>1198.2</ele>
        <time>2018-08-19T09:42:48.000Z</time>
      </trkpt>
      <trkpt lat="45.31403" lon="4.47845">
        <ele>1198.1</ele>
        <time>2018-08-19T09:42:49.000Z</time>
      </trkpt>
      <trkpt lat="45.31402" lon="4.47844">
        <ele>1198.1</ele>
        <time>2018-08-19T09:42:50.000Z</time>
      </trkpt>
      <trkpt lat="45.31402" lon="4.47844">
        <ele>1198.1</ele>
        <time>2018-08-19T09:42:51.000Z</time>
      </trkpt>
      <trkpt lat="45.31401" lon="4.47843">
        <ele>1198</ele>
        <time>2018-08-19T09:42:52.000Z</time>
      </trkpt>
      <trkpt lat="45.314" lon="4.47843">
        <ele>1198</ele>
        <time>2018-08-19T09:42:53.000Z</time>
      </trkpt>
      <trkpt lat="45.31399" lon="4.47843">
        <ele>1197.9</ele>
        <time>2018-08-19T09:42:54.000Z</time>
      </trkpt>
      <trkpt lat="45.31399" lon="4.47843">
        <ele>1197.9</ele>
        <time>2018-08-19T09:42:55.000Z</time>
      </trkpt>
      <trkpt lat="45.31398" lon="4.47843">
        <ele>1197.8</ele>
        <time>2018-08-19T09:42:56.000Z</time>
      </trkpt>
      <trkpt lat="45.31397" lon="4.47843">
        <ele>1197.8</ele>
        <time>2018-08-19T09:42:57.000Z</time>
      </trkpt>
      <trkpt lat="45.31397" lon="4.47842">
        <ele>1197.8</ele>
        <time>2018-08-19T09:42:58.000Z</time>
      </trkpt>
      <trkpt lat="45.31397" lon="4.47841">
        <ele>1197.8</ele>
        <time>2018-08-19T09:42:59.000Z</time>
      </trkpt>
      <trkpt lat="45.31396" lon="4.47841">
        <ele>1197.8</ele>
        <time>2018-08-19T09:43:00.000Z</time>
      </trkpt>
      <trkpt lat="45.31396" lon="4.4784">
        <ele>1197.9</ele>
        <time>2018-08-19T09:43:01.000Z</time>
      </trkpt>
      <trkpt lat="45.31396" lon="4.47839">
        <ele>1197.9</ele>
        <time>2018-08-19T09:43:02.000Z</time>
      </trkpt>
      <trkpt lat="45.31395" lon="4.47838">
        <ele>1197.9</ele>
        <time>2018-08-19T09:43:03.000Z</time>
      </trkpt>
      <trkpt lat="45.31395" lon="4.47837">
        <ele>1198</ele>
        <time>2018-08-19T09:43:04.000Z</time>
      </trkpt>
      <trkpt lat="45.31394" lon="4.47836">
        <ele>1198</ele>
        <time>2018-08-19T09:43:05.000Z</time>
      </trkpt>
      <trkpt lat="45.31394" lon="4.47835">
        <ele>1198</ele>
        <time>2018-08-19T09:43:06.000Z</time>
      </trkpt>
      <trkpt lat="45.31393" lon="4.47834">
        <ele>1198</ele>
        <time>2018-08-19T09:43:07.000Z</time>
      </trkpt>
      <trkpt lat="45.31392" lon="4.47833">
        <ele>1197.9</ele>
        <time>2018-08-19T09:43:08.000Z</time>
      </trkpt>
      <trkpt lat="45.31391" lon="4.47833">
        <ele>1198</ele>
        <time>2018-08-19T09:43:09.000Z</time>
      </trkpt>
      <trkpt lat="45.31391" lon="4.47832">
        <ele>1198.1</ele>
        <time>2018-08-19T09:43:10.000Z</time>
      </trkpt>
      <trkpt lat="45.3139" lon="4.47831">
        <ele>1198.2</ele>
        <time>2018-08-19T09:43:11.000Z</time>
      </trkpt>
      <trkpt lat="45.31389" lon="4.4783">
        <ele>1198.3</ele>
        <time>2018-08-19T09:43:12.000Z</time>
      </trkpt>
      <trkpt lat="45.31388" lon="4.47829">
        <ele>1198.4</ele>
        <time>2018-08-19T09:43:13.000Z</time>
      </trkpt>
      <trkpt lat="45.31387" lon="4.47828">
        <ele>1198.6</ele>
        <time>2018-08-19T09:43:14.000Z</time>
      </trkpt>
      <trkpt lat="45.31386" lon="4.47827">
        <ele>1198.7</ele>
        <time>2018-08-19T09:43:15.000Z</time>
      </trkpt>
      <trkpt lat="45.31385" lon="4.47826">
        <ele>1198.8</ele>
        <time>2018-08-19T09:43:16.000Z</time>
      </trkpt>
      <trkpt lat="45.31384" lon="4.47825">
        <ele>1198.8</ele>
        <time>2018-08-19T09:43:17.000Z</time>
      </trkpt>
      <trkpt lat="45.31383" lon="4.47825">
        <ele>1198.9</ele>
        <time>2018-08-19T09:43:18.000Z</time>
      </trkpt>
      <trkpt lat="45.31382" lon="4.47824">
        <ele>1198.9</ele>
        <time>2018-08-19T09:43:19.000Z</time>
      </trkpt>
      <trkpt lat="45.31381" lon="4.47823">
        <ele>1198.9</ele>
        <time>2018-08-19T09:43:20.000Z</time>
      </trkpt>
      <trkpt lat="45.31379" lon="4.47823">
        <ele>1198.9</ele>
        <time>2018-08-19T09:43:21.000Z</time>
      </trkpt>
      <trkpt lat="45.31378" lon="4.47822">
        <ele>1198.9</ele>
        <time>2018-08-19T09:43:22.000Z</time>
      </trkpt>
      <trkpt lat="45.31377" lon="4.47822">
        <ele>1198.9</ele>
        <time>2018-08-19T09:43:23.000Z</time>
      </trkpt>
      <trkpt lat="45.31375" lon="4.47821">
        <ele>1198.8</ele>
        <time>2018-08-19T09:43:24.000Z</time>
      </trkpt>
      <trkpt lat="45.31374" lon="4.47821">
        <ele>1198.8</ele>
        <time>2018-08-19T09:43:25.000Z</time>
      </trkpt>
      <trkpt lat="45.31373" lon="4.47821">
        <ele>1198.7</ele>
        <time>2018-08-19T09:43:26.000Z</time>
      </trkpt>
      <trkpt lat="45.31371" lon="4.4782">
        <ele>1198.7</ele>
        <time>2018-08-19T09:43:27.000Z</time>
      </trkpt>
      <trkpt lat="45.3137" lon="4.4782">
        <ele>1198.6</ele>
        <time>2018-08-19T09:43:28.000Z</time>
      </trkpt>
      <trkpt lat="45.31369" lon="4.47819">
        <ele>1198.6</ele>
        <time>2018-08-19T09:43:29.000Z</time>
      </trkpt>
      <trkpt lat="45.31367" lon="4.47819">
        <ele>1198.6</ele>
        <time>2018-08-19T09:43:30.000Z</time>
      </trkpt>
      <trkpt lat="45.31366" lon="4.47818">
        <ele>1198.5</ele>
        <time>2018-08-19T09:43:31.000Z</time>
      </trkpt>
      <trkpt lat="45.31365" lon="4.47818">
        <ele>1198.5</ele>
        <time>2018-08-19T09:43:32.000Z</time>
      </trkpt>
      <trkpt lat="45.31364" lon="4.47817">
        <ele>1198.6</ele>
        <time>2018-08-19T09:43:33.000Z</time>
      </trkpt>
      <trkpt lat="45.31363" lon="4.47817">
        <ele>1198.6</ele>
        <time>2018-08-19T09:43:34.000Z</time>
      </trkpt>
      <trkpt lat="45.31362" lon="4.47816">
        <ele>1198.6</ele>
        <time>2018-08-19T09:43:35.000Z</time>
      </trkpt>
      <trkpt lat="45.31361" lon="4.47816">
        <ele>1198.6</ele>
        <time>2018-08-19T09:43:36.000Z</time>
      </trkpt>
      <trkpt lat="45.31359" lon="4.47815">
        <ele>1198.5</ele>
        <time>2018-08-19T09:43:37.000Z</time>
      </trkpt>
      <trkpt lat="45.31358" lon="4.47815">
        <ele>1198.5</ele>
        <time>2018-08-19T09:43:38.000Z</time>
      </trkpt>
      <trkpt lat="45.31357" lon="4.47815">
        <ele>1198.4</ele>
        <time>2018-08-19T09:43:39.000Z</time>
      </trkpt>
      <trkpt lat="45.31356" lon="4.47815">
        <ele>1198.3</ele>
        <time>2018-08-19T09:43:40.000Z</time>
      </trkpt>
      <trkpt lat="45.31355" lon="4.47815">
        <ele>1198.1</ele>
        <time>2018-08-19T09:43:41.000Z</time>
      </trkpt>
      <trkpt lat="45.31354" lon="4.47815">
        <ele>1198</ele>
        <time>2018-08-19T09:43:42.000Z</time>
      </trkpt>
      <trkpt lat="45.31352" lon="4.47815">
        <ele>1197.8</ele>
        <time>2018-08-19T09:43:43.000Z</time>
      </trkpt>
      <trkpt lat="45.31351" lon="4.47815">
        <ele>1197.7</ele>
        <time>2018-08-19T09:43:44.000Z</time>
      </trkpt>
      <trkpt lat="45.3135" lon="4.47815">
        <ele>1197.6</ele>
        <time>2018-08-19T09:43:45.000Z</time>
      </trkpt>
      <trkpt lat="45.31349" lon="4.47815">
        <ele>1197.5</ele>
        <time>2018-08-19T09:43:46.000Z</time>
      </trkpt>
      <trkpt lat="45.31348" lon="4.47815">
        <ele>1197.4</ele>
        <time>2018-08-19T09:43:47.000Z</time>
      </trkpt>
      <trkpt lat="45.31346" lon="4.47815">
        <ele>1197.4</ele>
        <time>2018-08-19T09:43:48.000Z</time>
      </trkpt>
      <trkpt lat="45.31345" lon="4.47814">
        <ele>1197.3</ele>
        <time>2018-08-19T09:43:49.000Z</time>
      </trkpt>
      <trkpt lat="45.31344" lon="4.47814">
        <ele>1197.3</ele>
        <time>2018-08-19T09:43:50.000Z</time>
      </trkpt>
      <trkpt lat="45.31343" lon="4.47814">
        <ele>1197.2</ele>
        <time>2018-08-19T09:43:51.000Z</time>
      </trkpt>
      <trkpt lat="45.31342" lon="4.47813">
        <ele>1197.2</ele>
        <time>2018-08-19T09:43:52.000Z</time>
      </trkpt>
      <trkpt lat="45.31341" lon="4.47813">
        <ele>1197.2</ele>
        <time>2018-08-19T09:43:53.000Z</time>
      </trkpt>
      <trkpt lat="45.3134" lon="4.47812">
        <ele>1197.1</ele>
        <time>2018-08-19T09:43:54.000Z</time>
      </trkpt>
      <trkpt lat="45.31338" lon="4.47812">
        <ele>1197.1</ele>
        <time>2018-08-19T09:43:55.000Z</time>
      </trkpt>
      <trkpt lat="45.31337" lon="4.47811">
        <ele>1197.1</ele>
        <time>2018-08-19T09:43:56.000Z</time>
      </trkpt>
      <trkpt lat="45.31336" lon="4.47811">
        <ele>1197</ele>
        <time>2018-08-19T09:43:57.000Z</time>
      </trkpt>
      <trkpt lat="45.31335" lon="4.4781">
        <ele>1197</ele>
        <time>2018-08-19T09:43:58.000Z</time>
      </trkpt>
      <trkpt lat="45.31334" lon="4.4781">
        <ele>1197</ele>
        <time>2018-08-19T09:43:59.000Z</time>
      </trkpt>
      <trkpt lat="45.31333" lon="4.4781">
        <ele>1197</ele>
        <time>2018-08-19T09:44:00.000Z</time>
      </trkpt>
      <trkpt lat="45.31331" lon="4.47809">
        <ele>1197</ele>
        <time>2018-08-19T09:44:01.000Z</time>
      </trkpt>
      <trkpt lat="45.3133" lon="4.47809">
        <ele>1197.1</ele>
        <time>2018-08-19T09:44:02.000Z</time>
      </trkpt>
      <trkpt lat="45.31329" lon="4.47809">
        <ele>1197.2</ele>
        <time>2018-08-19T09:44:03.000Z</time>
      </trkpt>
      <trkpt lat="45.31328" lon="4.47808">
        <ele>1197.2</ele>
        <time>2018-08-19T09:44:04.000Z</time>
      </trkpt>
      <trkpt lat="45.31327" lon="4.47808">
        <ele>1197.3</ele>
        <time>2018-08-19T09:44:05.000Z</time>
      </trkpt>
      <trkpt lat="45.31325" lon="4.47808">
        <ele>1197.3</ele>
        <time>2018-08-19T09:44:06.000Z</time>
      </trkpt>
      <trkpt lat="45.31324" lon="4.47807">
        <ele>1197.3</ele>
        <time>2018-08-19T09:44:07.000Z</time>
      </trkpt>
      <trkpt lat="45.31323" lon="4.47807">
        <ele>1197.4</ele>
        <time>2018-08-19T09:44:08.000Z</time>
      </trkpt>
      <trkpt lat="45.31322" lon="4.47807">
        <ele>1197.4</ele>
        <time>2018-08-19T09:44:09.000Z</time>
      </trkpt>
      <trkpt lat="45.31321" lon="4.47806">
        <ele>1197.5</ele>
        <time>2018-08-19T09:44:10.000Z</time>
      </trkpt>
      <trkpt lat="45.3132" lon="4.47806">
        <ele>1197.5</ele>
        <time>2018-08-19T09:44:11.000Z</time>
      </trkpt>
      <trkpt lat="45.31319" lon="4.47806">
        <ele>1197.5</ele>
        <time>2018-08-19T09:44:12.000Z</time>
      </trkpt>
      <trkpt lat="45.31318" lon="4.47805">
        <ele>1197.6</ele>
        <time>2018-08-19T09:44:13.000Z</time>
      </trkpt>
      <trkpt lat="45.31317" lon="4.47805">
        <ele>1197.6</ele>
        <time>2018-08-19T09:44:14.000Z</time>
      </trkpt>
      <trkpt lat="45.31316" lon="4.47805">
        <ele>1197.7</ele>
        <time>2018-08-19T09:44:15.000Z</time>
      </trkpt>
      <trkpt lat="45.31315" lon="4.47804">
        <ele>1197.7</ele>
        <time>2018-08-19T09:44:16.000Z</time>
      </trkpt>
      <trkpt lat="45.31314" lon="4.47804">
        <ele>1197.8</ele>
        <time>2018-08-19T09:44:17.000Z</time>
      </trkpt>
      <trkpt lat="45.31312" lon="4.47803">
        <ele>1197.8</ele>
        <time>2018-08-19T09:44:18.000Z</time>
      </trkpt>
      <trkpt lat="45.31311" lon="4.47803">
        <ele>1197.9</ele>
        <time>2018-08-19T09:44:19.000Z</time>
      </trkpt>
      <trkpt lat="45.3131" lon="4.47803">
        <ele>1197.9</ele>
        <time>2018-08-19T09:44:20.000Z</time>
      </trkpt>
      <trkpt lat="45.31309" lon="4.47802">
        <ele>1197.9</ele>
        <time>2018-08-19T09:44:21.000Z</time>
      </trkpt>
      <trkpt lat="45.31308" lon="4.47802">
        <ele>1198</ele>
        <time>2018-08-19T09:44:22.000Z</time>
      </trkpt>
      <trkpt lat="45.31307" lon="4.47802">
        <ele>1198</ele>
        <time>2018-08-19T09:44:23.000Z</time>
      </trkpt>
      <trkpt lat="45.31306" lon="4.47801">
        <ele>1198.1</ele>
        <time>2018-08-19T09:44:24.000Z</time>
      </trkpt>
      <trkpt lat="45.31305" lon="4.47801">
        <ele>1198.1</ele>
        <time>2018-08-19T09:44:25.000Z</time>
      </trkpt>
      <trkpt lat="45.31304" lon="4.478">
        <ele>1198.1</ele>
        <time>2018-08-19T09:44:26.000Z</time>
      </trkpt>
      <trkpt lat="45.31303" lon="4.478">
        <ele>1198.2</ele>
        <time>2018-08-19T09:44:27.000Z</time>
      </trkpt>
      <trkpt lat="45.31302" lon="4.478">
        <ele>1198.2</ele>
        <time>2018-08-19T09:44:28.000Z</time>
      </trkpt>
      <trkpt lat="45.313" lon="4.47799">
        <ele>1198.2</ele>
        <time>2018-08-19T09:44:29.000Z</time>
      </trkpt>
      <trkpt lat="45.31299" lon="4.47799">
        <ele>1198.3</ele>
        <time>2018-08-19T09:44:30.000Z</time>
      </trkpt>
      <trkpt lat="45.31298" lon="4.47798">
        <ele>1198.3</ele>
        <time>2018-08-19T09:44:31.000Z</time>
      </trkpt>
      <trkpt lat="45.31297" lon="4.47798">
        <ele>1198.3</ele>
        <time>2018-08-19T09:44:32.000Z</time>
      </trkpt>
      <trkpt lat="45.31295" lon="4.47798">
        <ele>1198.4</ele>
        <time>2018-08-19T09:44:33.000Z</time>
      </trkpt>
      <trkpt lat="45.31294" lon="4.47797">
        <ele>1198.4</ele>
        <time>2018-08-19T09:44:34.000Z</time>
      </trkpt>
      <trkpt lat="45.31293" lon="4.47797">
        <ele>1198.4</ele>
        <time>2018-08-19T09:44:35.000Z</time>
      </trkpt>
      <trkpt lat="45.31292" lon="4.47797">
        <ele>1198.4</ele>
        <time>2018-08-19T09:44:36.000Z</time>
      </trkpt>
      <trkpt lat="45.3129" lon="4.47796">
        <ele>1198.4</ele>
        <time>2018-08-19T09:44:37.000Z</time>
      </trkpt>
      <trkpt lat="45.31289" lon="4.47796">
        <ele>1198.5</ele>
        <time>2018-08-19T09:44:38.000Z</time>
      </trkpt>
      <trkpt lat="45.31288" lon="4.47796">
        <ele>1198.5</ele>
        <time>2018-08-19T09:44:39.000Z</time>
      </trkpt>
      <trkpt lat="45.31286" lon="4.47795">
        <ele>1198.5</ele>
        <time>2018-08-19T09:44:40.000Z</time>
      </trkpt>
      <trkpt lat="45.31285" lon="4.47795">
        <ele>1198.5</ele>
        <time>2018-08-19T09:44:41.000Z</time>
      </trkpt>
      <trkpt lat="45.31283" lon="4.47795">
        <ele>1198.5</ele>
        <time>2018-08-19T09:44:42.000Z</time>
      </trkpt>
      <trkpt lat="45.31282" lon="4.47795">
        <ele>1198.5</ele>
        <time>2018-08-19T09:44:43.000Z</time>
      </trkpt>
      <trkpt lat="45.31281" lon="4.47794">
        <ele>1198.5</ele>
        <time>2018-08-19T09:44:44.000Z</time>
      </trkpt>
      <trkpt lat="45.31279" lon="4.47794">
        <ele>1198.5</ele>
        <time>2018-08-19T09:44:45.000Z</time>
      </trkpt>
      <trkpt lat="45.31278" lon="4.47794">
        <ele>1198.4</ele>
        <time>2018-08-19T09:44:46.000Z</time>
      </trkpt>
      <trkpt lat="45.31276" lon="4.47794">
        <ele>1198.4</ele>
        <time>2018-08-19T09:44:47.000Z</time>
      </trkpt>
      <trkpt lat="45.31275" lon="4.47794">
        <ele>1198.4</ele>
        <time>2018-08-19T09:44:48.000Z</time>
      </trkpt>
      <trkpt lat="45.31273" lon="4.47793">
        <ele>1198.4</ele>
        <time>2018-08-19T09:44:49.000Z</time>
      </trkpt>
      <trkpt lat="45.31272" lon="4.47793">
        <ele>1198.4</ele>
        <time>2018-08-19T09:44:50.000Z</time>
      </trkpt>
      <trkpt lat="45.3127" lon="4.47793">
        <ele>1198.4</ele>
        <time>2018-08-19T09:44:51.000Z</time>
      </trkpt>
      <trkpt lat="45.31269" lon="4.47793">
        <ele>1198.3</ele>
        <time>2018-08-19T09:44:52.000Z</time>
      </trkpt>
      <trkpt lat="45.31267" lon="4.47793">
        <ele>1198.3</ele>
        <time>2018-08-19T09:44:53.000Z</time>
      </trkpt>
      <trkpt lat="45.31266" lon="4.47793">
        <ele>1198.3</ele>
        <time>2018-08-19T09:44:54.000Z</time>
      </trkpt>
      <trkpt lat="45.31264" lon="4.47793">
        <ele>1198.3</ele>
        <time>2018-08-19T09:44:55.000Z</time>
      </trkpt>
      <trkpt lat="45.31263" lon="4.47792">
        <ele>1198.3</ele>
        <time>2018-08-19T09:44:56.000Z</time>
      </trkpt>
      <trkpt lat="45.31262" lon="4.47792">
        <ele>1198.2</ele>
        <time>2018-08-19T09:44:57.000Z</time>
      </trkpt>
      <trkpt lat="45.3126" lon="4.47792">
        <ele>1198.2</ele>
        <time>2018-08-19T09:44:58.000Z</time>
      </trkpt>
      <trkpt lat="45.31259" lon="4.47792">
        <ele>1198.2</ele>
        <time>2018-08-19T09:44:59.000Z</time>
      </trkpt>
      <trkpt lat="45.31257" lon="4.47791">
        <ele>1198.2</ele>
        <time>2018-08-19T09:45:00.000Z</time>
      </trkpt>
      <trkpt lat="45.31256" lon="4.47791">
        <ele>1198.2</ele>
        <time>2018-08-19T09:45:01.000Z</time>
      </trkpt>
      <trkpt lat="45.31255" lon="4.4779">
        <ele>1198.2</ele>
        <time>2018-08-19T09:45:02.000Z</time>
      </trkpt>
      <trkpt lat="45.31253" lon="4.4779">
        <ele>1198.2</ele>
        <time>2018-08-19T09:45:03.000Z</time>
      </trkpt>
      <trkpt lat="45.31252" lon="4.47789">
        <ele>1198.2</ele>
        <time>2018-08-19T09:45:04.000Z</time>
      </trkpt>
      <trkpt lat="45.31251" lon="4.47788">
        <ele>1198.3</ele>
        <time>2018-08-19T09:45:05.000Z</time>
      </trkpt>
      <trkpt lat="45.3125" lon="4.47788">
        <ele>1198.3</ele>
        <time>2018-08-19T09:45:06.000Z</time>
      </trkpt>
      <trkpt lat="45.31248" lon="4.47787">
        <ele>1198.3</ele>
        <time>2018-08-19T09:45:07.000Z</time>
      </trkpt>
      <trkpt lat="45.31247" lon="4.47786">
        <ele>1198.3</ele>
        <time>2018-08-19T09:45:08.000Z</time>
      </trkpt>
      <trkpt lat="45.31246" lon="4.47786">
        <ele>1198.3</ele>
        <time>2018-08-19T09:45:09.000Z</time>
      </trkpt>
      <trkpt lat="45.31245" lon="4.47785">
        <ele>1198.3</ele>
        <time>2018-08-19T09:45:10.000Z</time>
      </trkpt>
      <trkpt lat="45.31243" lon="4.47785">
        <ele>1198.3</ele>
        <time>2018-08-19T09:45:11.000Z</time>
      </trkpt>
      <trkpt lat="45.31242" lon="4.47784">
        <ele>1198.3</ele>
        <time>2018-08-19T09:45:12.000Z</time>
      </trkpt>
      <trkpt lat="45.31241" lon="4.47784">
        <ele>1198.3</ele>
        <time>2018-08-19T09:45:13.000Z</time>
      </trkpt>
      <trkpt lat="45.3124" lon="4.47783">
        <ele>1198.3</ele>
        <time>2018-08-19T09:45:14.000Z</time>
      </trkpt>
      <trkpt lat="45.31239" lon="4.47783">
        <ele>1198.3</ele>
        <time>2018-08-19T09:45:15.000Z</time>
      </trkpt>
      <trkpt lat="45.31238" lon="4.47782">
        <ele>1198.3</ele>
        <time>2018-08-19T09:45:16.000Z</time>
      </trkpt>
      <trkpt lat="45.31236" lon="4.47781">
        <ele>1198.3</ele>
        <time>2018-08-19T09:45:17.000Z</time>
      </trkpt>
      <trkpt lat="45.31235" lon="4.47781">
        <ele>1198.3</ele>
        <time>2018-08-19T09:45:18.000Z</time>
      </trkpt>
      <trkpt lat="45.31234" lon="4.4778">
        <ele>1198.3</ele>
        <time>2018-08-19T09:45:19.000Z</time>
      </trkpt>
      <trkpt lat="45.31233" lon="4.4778">
        <ele>1198.3</ele>
        <time>2018-08-19T09:45:20.000Z</time>
      </trkpt>
      <trkpt lat="45.31232" lon="4.47779">
        <ele>1198.3</ele>
        <time>2018-08-19T09:45:21.000Z</time>
      </trkpt>
      <trkpt lat="45.31231" lon="4.47778">
        <ele>1198.3</ele>
        <time>2018-08-19T09:45:22.000Z</time>
      </trkpt>
      <trkpt lat="45.3123" lon="4.47778">
        <ele>1198.3</ele>
        <time>2018-08-19T09:45:23.000Z</time>
      </trkpt>
      <trkpt lat="45.31229" lon="4.47777">
        <ele>1198.3</ele>
        <time>2018-08-19T09:45:24.000Z</time>
      </trkpt>
      <trkpt lat="45.31228" lon="4.47777">
        <ele>1198.3</ele>
        <time>2018-08-19T09:45:25.000Z</time>
      </trkpt>
      <trkpt lat="45.31227" lon="4.47776">
        <ele>1198.3</ele>
        <time>2018-08-19T09:45:26.000Z</time>
      </trkpt>
      <trkpt lat="45.31226" lon="4.47775">
        <ele>1198.3</ele>
        <time>2018-08-19T09:45:27.000Z</time>
      </trkpt>
      <trkpt lat="45.31225" lon="4.47775">
        <ele>1198.3</ele>
        <time>2018-08-19T09:45:28.000Z</time>
      </trkpt>
      <trkpt lat="45.31224" lon="4.47774">
        <ele>1198.3</ele>
        <time>2018-08-19T09:45:29.000Z</time>
      </trkpt>
      <trkpt lat="45.31223" lon="4.47774">
        <ele>1198.3</ele>
        <time>2018-08-19T09:45:30.000Z</time>
      </trkpt>
      <trkpt lat="45.31222" lon="4.47773">
        <ele>1198.3</ele>
        <time>2018-08-19T09:45:31.000Z</time>
      </trkpt>
      <trkpt lat="45.31221" lon="4.47773">
        <ele>1198.3</ele>
        <time>2018-08-19T09:45:32.000Z</time>
      </trkpt>
      <trkpt lat="45.3122" lon="4.47772">
        <ele>1198.3</ele>
        <time>2018-08-19T09:45:33.000Z</time>
      </trkpt>
      <trkpt lat="45.31219" lon="4.47772">
        <ele>1198.2</ele>
        <time>2018-08-19T09:45:34.000Z</time>
      </trkpt>
      <trkpt lat="45.31217" lon="4.47771">
        <ele>1198.2</ele>
        <time>2018-08-19T09:45:35.000Z</time>
      </trkpt>
      <trkpt lat="45.31216" lon="4.4777">
        <ele>1198.2</ele>
        <time>2018-08-19T09:45:36.000Z</time>
      </trkpt>
      <trkpt lat="45.31215" lon="4.4777">
        <ele>1198.2</ele>
        <time>2018-08-19T09:45:37.000Z</time>
      </trkpt>
      <trkpt lat="45.31213" lon="4.47769">
        <ele>1198.2</ele>
        <time>2018-08-19T09:45:38.000Z</time>
      </trkpt>
      <trkpt lat="45.31212" lon="4.47769">
        <ele>1198.1</ele>
        <time>2018-08-19T09:45:39.000Z</time>
      </trkpt>
      <trkpt lat="45.3121" lon="4.47768">
        <ele>1198.1</ele>
        <time>2018-08-19T09:45:40.000Z</time>
      </trkpt>
      <trkpt lat="45.31209" lon="4.47768">
        <ele>1198.1</ele>
        <time>2018-08-19T09:45:41.000Z</time>
      </trkpt>
      <trkpt lat="45.31207" lon="4.47767">
        <ele>1198</ele>
        <time>2018-08-19T09:45:42.000Z</time>
      </trkpt>
      <trkpt lat="45.31206" lon="4.47767">
        <ele>1198</ele>
        <time>2018-08-19T09:45:43.000Z</time>
      </trkpt>
      <trkpt lat="45.31204" lon="4.47767">
        <ele>1197.9</ele>
        <time>2018-08-19T09:45:44.000Z</time>
      </trkpt>
      <trkpt lat="45.31203" lon="4.47767">
        <ele>1197.9</ele>
        <time>2018-08-19T09:45:45.000Z</time>
      </trkpt>
      <trkpt lat="45.31201" lon="4.47766">
        <ele>1197.8</ele>
        <time>2018-08-19T09:45:46.000Z</time>
      </trkpt>
      <trkpt lat="45.312" lon="4.47766">
        <ele>1197.8</ele>
        <time>2018-08-19T09:45:47.000Z</time>
      </trkpt>
      <trkpt lat="45.31198" lon="4.47766">
        <ele>1197.7</ele>
        <time>2018-08-19T09:45:48.000Z</time>
      </trkpt>
      <trkpt lat="45.31197" lon="4.47766">
        <ele>1197.7</ele>
        <time>2018-08-19T09:45:49.000Z</time>
      </trkpt>
      <trkpt lat="45.31196" lon="4.47765">
        <ele>1197.7</ele>
        <time>2018-08-19T09:45:50.000Z</time>
      </trkpt>
      <trkpt lat="45.31194" lon="4.47765">
        <ele>1197.6</ele>
        <time>2018-08-19T09:45:51.000Z</time>
      </trkpt>
      <trkpt lat="45.31193" lon="4.47764">
        <ele>1197.6</ele>
        <time>2018-08-19T09:45:52.000Z</time>
      </trkpt>
      <trkpt lat="45.31192" lon="4.47763">
        <ele>1197.6</ele>
        <time>2018-08-19T09:45:53.000Z</time>
      </trkpt>
      <trkpt lat="45.3119" lon="4.47763">
        <ele>1197.5</ele>
        <time>2018-08-19T09:45:54.000Z</time>
      </trkpt>
      <trkpt lat="45.31189" lon="4.47762">
        <ele>1197.5</ele>
        <time>2018-08-19T09:45:55.000Z</time>
      </trkpt>
      <trkpt lat="45.31187" lon="4.47762">
        <ele>1197.5</ele>
        <time>2018-08-19T09:45:56.000Z</time>
      </trkpt>
      <trkpt lat="45.31186" lon="4.47761">
        <ele>1197.4</ele>
        <time>2018-08-19T09:45:57.000Z</time>
      </trkpt>
      <trkpt lat="45.31184" lon="4.47761">
        <ele>1197.4</ele>
        <time>2018-08-19T09:45:58.000Z</time>
      </trkpt>
      <trkpt lat="45.31183" lon="4.4776">
        <ele>1197.3</ele>
        <time>2018-08-19T09:45:59.000Z</time>
      </trkpt>
      <trkpt lat="45.31181" lon="4.4776">
        <ele>1197.3</ele>
        <time>2018-08-19T09:46:00.000Z</time>
      </trkpt>
      <trkpt lat="45.3118" lon="4.47759">
        <ele>1197.2</ele>
        <time>2018-08-19T09:46:01.000Z</time>
      </trkpt>
      <trkpt lat="45.31178" lon="4.47759">
        <ele>1197.2</ele>
        <time>2018-08-19T09:46:02.000Z</time>
      </trkpt>
      <trkpt lat="45.31177" lon="4.47758">
        <ele>1197.1</ele>
        <time>2018-08-19T09:46:03.000Z</time>
      </trkpt>
      <trkpt lat="45.31175" lon="4.47758">
        <ele>1197.1</ele>
        <time>2018-08-19T09:46:04.000Z</time>
      </trkpt>
      <trkpt lat="45.31174" lon="4.47758">
        <ele>1197</ele>
        <time>2018-08-19T09:46:05.000Z</time>
      </trkpt>
      <trkpt lat="45.31172" lon="4.47757">
        <ele>1197</ele>
        <time>2018-08-19T09:46:06.000Z</time>
      </trkpt>
      <trkpt lat="45.31171" lon="4.47757">
        <ele>1197</ele>
        <time>2018-08-19T09:46:07.000Z</time>
      </trkpt>
      <trkpt lat="45.31169" lon="4.47756">
        <ele>1196.9</ele>
        <time>2018-08-19T09:46:08.000Z</time>
      </trkpt>
      <trkpt lat="45.31168" lon="4.47756">
        <ele>1196.9</ele>
        <time>2018-08-19T09:46:09.000Z</time>
      </trkpt>
      <trkpt lat="45.31167" lon="4.47755">
        <ele>1196.8</ele>
        <time>2018-08-19T09:46:10.000Z</time>
      </trkpt>
      <trkpt lat="45.31165" lon="4.47755">
        <ele>1196.7</ele>
        <time>2018-08-19T09:46:11.000Z</time>
      </trkpt>
      <trkpt lat="45.31164" lon="4.47754">
        <ele>1196.7</ele>
        <time>2018-08-19T09:46:12.000Z</time>
      </trkpt>
      <trkpt lat="45.31163" lon="4.47754">
        <ele>1196.6</ele>
        <time>2018-08-19T09:46:13.000Z</time>
      </trkpt>
      <trkpt lat="45.31161" lon="4.47753">
        <ele>1196.6</ele>
        <time>2018-08-19T09:46:14.000Z</time>
      </trkpt>
      <trkpt lat="45.3116" lon="4.47752">
        <ele>1196.5</ele>
        <time>2018-08-19T09:46:15.000Z</time>
      </trkpt>
      <trkpt lat="45.31159" lon="4.47752">
        <ele>1196.4</ele>
        <time>2018-08-19T09:46:16.000Z</time>
      </trkpt>
      <trkpt lat="45.31157" lon="4.47751">
        <ele>1196.4</ele>
        <time>2018-08-19T09:46:17.000Z</time>
      </trkpt>
      <trkpt lat="45.31156" lon="4.47751">
        <ele>1196.3</ele>
        <time>2018-08-19T09:46:18.000Z</time>
      </trkpt>
      <trkpt lat="45.31155" lon="4.4775">
        <ele>1196.3</ele>
        <time>2018-08-19T09:46:19.000Z</time>
      </trkpt>
      <trkpt lat="45.31154" lon="4.4775">
        <ele>1196.2</ele>
        <time>2018-08-19T09:46:20.000Z</time>
      </trkpt>
      <trkpt lat="45.31153" lon="4.47749">
        <ele>1196.2</ele>
        <time>2018-08-19T09:46:21.000Z</time>
      </trkpt>
      <trkpt lat="45.31151" lon="4.47749">
        <ele>1196.2</ele>
        <time>2018-08-19T09:46:22.000Z</time>
      </trkpt>
      <trkpt lat="45.3115" lon="4.47748">
        <ele>1196.1</ele>
        <time>2018-08-19T09:46:23.000Z</time>
      </trkpt>
      <trkpt lat="45.31149" lon="4.47748">
        <ele>1196.1</ele>
        <time>2018-08-19T09:46:24.000Z</time>
      </trkpt>
      <trkpt lat="45.31148" lon="4.47747">
        <ele>1196</ele>
        <time>2018-08-19T09:46:25.000Z</time>
      </trkpt>
      <trkpt lat="45.31147" lon="4.47747">
        <ele>1196</ele>
        <time>2018-08-19T09:46:26.000Z</time>
      </trkpt>
      <trkpt lat="45.31146" lon="4.47746">
        <ele>1196</ele>
        <time>2018-08-19T09:46:27.000Z</time>
      </trkpt>
      <trkpt lat="45.31144" lon="4.47746">
        <ele>1195.9</ele>
        <time>2018-08-19T09:46:28.000Z</time>
      </trkpt>
      <trkpt lat="45.31143" lon="4.47745">
        <ele>1195.9</ele>
        <time>2018-08-19T09:46:29.000Z</time>
      </trkpt>
      <trkpt lat="45.31142" lon="4.47745">
        <ele>1195.9</ele>
        <time>2018-08-19T09:46:30.000Z</time>
      </trkpt>
      <trkpt lat="45.31141" lon="4.47745">
        <ele>1195.8</ele>
        <time>2018-08-19T09:46:31.000Z</time>
      </trkpt>
      <trkpt lat="45.3114" lon="4.47744">
        <ele>1195.8</ele>
        <time>2018-08-19T09:46:32.000Z</time>
      </trkpt>
      <trkpt lat="45.31139" lon="4.47744">
        <ele>1195.7</ele>
        <time>2018-08-19T09:46:33.000Z</time>
      </trkpt>
      <trkpt lat="45.31138" lon="4.47744">
        <ele>1195.7</ele>
        <time>2018-08-19T09:46:34.000Z</time>
      </trkpt>
      <trkpt lat="45.31137" lon="4.47743">
        <ele>1195.6</ele>
        <time>2018-08-19T09:46:35.000Z</time>
      </trkpt>
      <trkpt lat="45.31136" lon="4.47743">
        <ele>1195.6</ele>
        <time>2018-08-19T09:46:36.000Z</time>
      </trkpt>
      <trkpt lat="45.31135" lon="4.47743">
        <ele>1195.6</ele>
        <time>2018-08-19T09:46:37.000Z</time>
      </trkpt>
      <trkpt lat="45.31134" lon="4.47743">
        <ele>1195.5</ele>
        <time>2018-08-19T09:46:38.000Z</time>
      </trkpt>
      <trkpt lat="45.31133" lon="4.47742">
        <ele>1195.5</ele>
        <time>2018-08-19T09:46:39.000Z</time>
      </trkpt>
      <trkpt lat="45.31132" lon="4.47742">
        <ele>1195.4</ele>
        <time>2018-08-19T09:46:40.000Z</time>
      </trkpt>
      <trkpt lat="45.31131" lon="4.47742">
        <ele>1195.4</ele>
        <time>2018-08-19T09:46:41.000Z</time>
      </trkpt>
      <trkpt lat="45.3113" lon="4.47742">
        <ele>1195.3</ele>
        <time>2018-08-19T09:46:42.000Z</time>
      </trkpt>
      <trkpt lat="45.31129" lon="4.47742">
        <ele>1195.3</ele>
        <time>2018-08-19T09:46:43.000Z</time>
      </trkpt>
      <trkpt lat="45.31128" lon="4.47742">
        <ele>1195.2</ele>
        <time>2018-08-19T09:46:44.000Z</time>
      </trkpt>
      <trkpt lat="45.31127" lon="4.47742">
        <ele>1195.2</ele>
        <time>2018-08-19T09:46:45.000Z</time>
      </trkpt>
      <trkpt lat="45.31126" lon="4.47741">
        <ele>1195.1</ele>
        <time>2018-08-19T09:46:46.000Z</time>
      </trkpt>
      <trkpt lat="45.31125" lon="4.47741">
        <ele>1195.1</ele>
        <time>2018-08-19T09:46:47.000Z</time>
      </trkpt>
      <trkpt lat="45.31124" lon="4.47741">
        <ele>1195</ele>
        <time>2018-08-19T09:46:48.000Z</time>
      </trkpt>
      <trkpt lat="45.31123" lon="4.47741">
        <ele>1195</ele>
        <time>2018-08-19T09:46:49.000Z</time>
      </trkpt>
      <trkpt lat="45.31122" lon="4.47741">
        <ele>1194.9</ele>
        <time>2018-08-19T09:46:50.000Z</time>
      </trkpt>
      <trkpt lat="45.31121" lon="4.47741">
        <ele>1194.9</ele>
        <time>2018-08-19T09:46:51.000Z</time>
      </trkpt>
      <trkpt lat="45.3112" lon="4.47741">
        <ele>1194.8</ele>
        <time>2018-08-19T09:46:52.000Z</time>
      </trkpt>
      <trkpt lat="45.31119" lon="4.4774">
        <ele>1194.8</ele>
        <time>2018-08-19T09:46:53.000Z</time>
      </trkpt>
      <trkpt lat="45.31117" lon="4.4774">
        <ele>1194.7</ele>
        <time>2018-08-19T09:46:54.000Z</time>
      </trkpt>
      <trkpt lat="45.31116" lon="4.4774">
        <ele>1194.6</ele>
        <time>2018-08-19T09:46:55.000Z</time>
      </trkpt>
      <trkpt lat="45.31115" lon="4.4774">
        <ele>1194.6</ele>
        <time>2018-08-19T09:46:56.000Z</time>
      </trkpt>
      <trkpt lat="45.31114" lon="4.4774">
        <ele>1194.5</ele>
        <time>2018-08-19T09:46:57.000Z</time>
      </trkpt>
      <trkpt lat="45.31113" lon="4.4774">
        <ele>1194.5</ele>
        <time>2018-08-19T09:46:58.000Z</time>
      </trkpt>
      <trkpt lat="45.31111" lon="4.47739">
        <ele>1194.4</ele>
        <time>2018-08-19T09:46:59.000Z</time>
      </trkpt>
      <trkpt lat="45.3111" lon="4.47739">
        <ele>1194.4</ele>
        <time>2018-08-19T09:47:00.000Z</time>
      </trkpt>
      <trkpt lat="45.31109" lon="4.47739">
        <ele>1194.3</ele>
        <time>2018-08-19T09:47:01.000Z</time>
      </trkpt>
      <trkpt lat="45.31108" lon="4.47738">
        <ele>1194.3</ele>
        <time>2018-08-19T09:47:02.000Z</time>
      </trkpt>
      <trkpt lat="45.31107" lon="4.47738">
        <ele>1194.2</ele>
        <time>2018-08-19T09:47:03.000Z</time>
      </trkpt>
      <trkpt lat="45.31106" lon="4.47738">
        <ele>1194.2</ele>
        <time>2018-08-19T09:47:04.000Z</time>
      </trkpt>
      <trkpt lat="45.31105" lon="4.47738">
        <ele>1194.2</ele>
        <time>2018-08-19T09:47:05.000Z</time>
      </trkpt>
      <trkpt lat="45.31104" lon="4.47737">
        <ele>1194.1</ele>
        <time>2018-08-19T09:47:06.000Z</time>
      </trkpt>
      <trkpt lat="45.31103" lon="4.47737">
        <ele>1194.1</ele>
        <time>2018-08-19T09:47:07.000Z</time>
      </trkpt>
      <trkpt lat="45.31101" lon="4.47737">
        <ele>1194</ele>
        <time>2018-08-19T09:47:08.000Z</time>
      </trkpt>
      <trkpt lat="45.311" lon="4.47736">
        <ele>1193.9</ele>
        <time>2018-08-19T09:47:09.000Z</time>
      </trkpt>
      <trkpt lat="45.31098" lon="4.47736">
        <ele>1193.9</ele>
        <time>2018-08-19T09:47:10.000Z</time>
      </trkpt>
      <trkpt lat="45.31096" lon="4.47736">
        <ele>1193.8</ele>
        <time>2018-08-19T09:47:11.000Z</time>
      </trkpt>
      <trkpt lat="45.31095" lon="4.47735">
        <ele>1193.7</ele>
        <time>2018-08-19T09:47:12.000Z</time>
      </trkpt>
      <trkpt lat="45.31093" lon="4.47735">
        <ele>1193.6</ele>
        <time>2018-08-19T09:47:13.000Z</time>
      </trkpt>
      <trkpt lat="45.31091" lon="4.47735">
        <ele>1193.6</ele>
        <time>2018-08-19T09:47:14.000Z</time>
      </trkpt>
      <trkpt lat="45.3109" lon="4.47734">
        <ele>1193.5</ele>
        <time>2018-08-19T09:47:15.000Z</time>
      </trkpt>
      <trkpt lat="45.31089" lon="4.47734">
        <ele>1193.5</ele>
        <time>2018-08-19T09:47:16.000Z</time>
      </trkpt>
      <trkpt lat="45.31088" lon="4.47734">
        <ele>1193.4</ele>
        <time>2018-08-19T09:47:17.000Z</time>
      </trkpt>
      <trkpt lat="45.31086" lon="4.47733">
        <ele>1193.4</ele>
        <time>2018-08-19T09:47:18.000Z</time>
      </trkpt>
      <trkpt lat="45.31085" lon="4.47733">
        <ele>1193.3</ele>
        <time>2018-08-19T09:47:19.000Z</time>
      </trkpt>
      <trkpt lat="45.31084" lon="4.47733">
        <ele>1193.3</ele>
        <time>2018-08-19T09:47:20.000Z</time>
      </trkpt>
      <trkpt lat="45.31083" lon="4.47733">
        <ele>1193.3</ele>
        <time>2018-08-19T09:47:21.000Z</time>
      </trkpt>
      <trkpt lat="45.31081" lon="4.47732">
        <ele>1193.4</ele>
        <time>2018-08-19T09:47:22.000Z</time>
      </trkpt>
      <trkpt lat="45.31079" lon="4.47732">
        <ele>1193.5</ele>
        <time>2018-08-19T09:47:23.000Z</time>
      </trkpt>
      <trkpt lat="45.31077" lon="4.47732">
        <ele>1193.6</ele>
        <time>2018-08-19T09:47:24.000Z</time>
      </trkpt>
      <trkpt lat="45.31076" lon="4.47732">
        <ele>1193.7</ele>
        <time>2018-08-19T09:47:25.000Z</time>
      </trkpt>
      <trkpt lat="45.31074" lon="4.47731">
        <ele>1193.8</ele>
        <time>2018-08-19T09:47:26.000Z</time>
      </trkpt>
      <trkpt lat="45.31072" lon="4.47731">
        <ele>1193.9</ele>
        <time>2018-08-19T09:47:27.000Z</time>
      </trkpt>
      <trkpt lat="45.3107" lon="4.47731">
        <ele>1194</ele>
        <time>2018-08-19T09:47:28.000Z</time>
      </trkpt>
      <trkpt lat="45.31068" lon="4.47731">
        <ele>1194.1</ele>
        <time>2018-08-19T09:47:29.000Z</time>
      </trkpt>
      <trkpt lat="45.31067" lon="4.47731">
        <ele>1194.1</ele>
        <time>2018-08-19T09:47:30.000Z</time>
      </trkpt>
      <trkpt lat="45.31065" lon="4.47731">
        <ele>1194.2</ele>
        <time>2018-08-19T09:47:31.000Z</time>
      </trkpt>
      <trkpt lat="45.31064" lon="4.47731">
        <ele>1194.3</ele>
        <time>2018-08-19T09:47:32.000Z</time>
      </trkpt>
      <trkpt lat="45.31062" lon="4.47731">
        <ele>1194.4</ele>
        <time>2018-08-19T09:47:33.000Z</time>
      </trkpt>
      <trkpt lat="45.31061" lon="4.4773">
        <ele>1194.4</ele>
        <time>2018-08-19T09:47:34.000Z</time>
      </trkpt>
      <trkpt lat="45.3106" lon="4.4773">
        <ele>1194.5</ele>
        <time>2018-08-19T09:47:35.000Z</time>
      </trkpt>
      <trkpt lat="45.31058" lon="4.4773">
        <ele>1194.5</ele>
        <time>2018-08-19T09:47:36.000Z</time>
      </trkpt>
      <trkpt lat="45.31057" lon="4.4773">
        <ele>1194.6</ele>
        <time>2018-08-19T09:47:37.000Z</time>
      </trkpt>
      <trkpt lat="45.31056" lon="4.4773">
        <ele>1194.7</ele>
        <time>2018-08-19T09:47:38.000Z</time>
      </trkpt>
      <trkpt lat="45.31055" lon="4.4773">
        <ele>1194.7</ele>
        <time>2018-08-19T09:47:39.000Z</time>
      </trkpt>
      <trkpt lat="45.31053" lon="4.4773">
        <ele>1194.8</ele>
        <time>2018-08-19T09:47:40.000Z</time>
      </trkpt>
      <trkpt lat="45.31052" lon="4.4773">
        <ele>1194.8</ele>
        <time>2018-08-19T09:47:41.000Z</time>
      </trkpt>
      <trkpt lat="45.31051" lon="4.4773">
        <ele>1194.9</ele>
        <time>2018-08-19T09:47:42.000Z</time>
      </trkpt>
      <trkpt lat="45.31049" lon="4.4773">
        <ele>1195</ele>
        <time>2018-08-19T09:47:43.000Z</time>
      </trkpt>
      <trkpt lat="45.31048" lon="4.4773">
        <ele>1195</ele>
        <time>2018-08-19T09:47:44.000Z</time>
      </trkpt>
      <trkpt lat="45.31046" lon="4.4773">
        <ele>1195.1</ele>
        <time>2018-08-19T09:47:45.000Z</time>
      </trkpt>
      <trkpt lat="45.31045" lon="4.47731">
        <ele>1195.1</ele>
        <time>2018-08-19T09:47:46.000Z</time>
      </trkpt>
      <trkpt lat="45.31044" lon="4.47731">
        <ele>1195.2</ele>
        <time>2018-08-19T09:47:47.000Z</time>
      </trkpt>
      <trkpt lat="45.31042" lon="4.47731">
        <ele>1195.2</ele>
        <time>2018-08-19T09:47:48.000Z</time>
      </trkpt>
      <trkpt lat="45.31041" lon="4.47731">
        <ele>1195.3</ele>
        <time>2018-08-19T09:47:49.000Z</time>
      </trkpt>
      <trkpt lat="45.31039" lon="4.47731">
        <ele>1195.4</ele>
        <time>2018-08-19T09:47:50.000Z</time>
      </trkpt>
      <trkpt lat="45.31038" lon="4.47731">
        <ele>1195.4</ele>
        <time>2018-08-19T09:47:51.000Z</time>
      </trkpt>
      <trkpt lat="45.31037" lon="4.47732">
        <ele>1195.4</ele>
        <time>2018-08-19T09:47:52.000Z</time>
      </trkpt>
      <trkpt lat="45.31036" lon="4.47732">
        <ele>1195.5</ele>
        <time>2018-08-19T09:47:53.000Z</time>
      </trkpt>
      <trkpt lat="45.31034" lon="4.47732">
        <ele>1195.5</ele>
        <time>2018-08-19T09:47:54.000Z</time>
      </trkpt>
      <trkpt lat="45.31033" lon="4.47732">
        <ele>1195.6</ele>
        <time>2018-08-19T09:47:55.000Z</time>
      </trkpt>
      <trkpt lat="45.31032" lon="4.47733">
        <ele>1195.6</ele>
        <time>2018-08-19T09:47:56.000Z</time>
      </trkpt>
      <trkpt lat="45.31031" lon="4.47733">
        <ele>1195.6</ele>
        <time>2018-08-19T09:47:57.000Z</time>
      </trkpt>
      <trkpt lat="45.31029" lon="4.47733">
        <ele>1195.7</ele>
        <time>2018-08-19T09:47:58.000Z</time>
      </trkpt>
      <trkpt lat="45.31028" lon="4.47734">
        <ele>1195.7</ele>
        <time>2018-08-19T09:47:59.000Z</time>
      </trkpt>
      <trkpt lat="45.31027" lon="4.47734">
        <ele>1195.7</ele>
        <time>2018-08-19T09:48:00.000Z</time>
      </trkpt>
      <trkpt lat="45.31026" lon="4.47735">
        <ele>1195.7</ele>
        <time>2018-08-19T09:48:01.000Z</time>
      </trkpt>
      <trkpt lat="45.31025" lon="4.47735">
        <ele>1195.8</ele>
        <time>2018-08-19T09:48:02.000Z</time>
      </trkpt>
      <trkpt lat="45.31023" lon="4.47735">
        <ele>1195.8</ele>
        <time>2018-08-19T09:48:03.000Z</time>
      </trkpt>
      <trkpt lat="45.31022" lon="4.47736">
        <ele>1195.8</ele>
        <time>2018-08-19T09:48:04.000Z</time>
      </trkpt>
      <trkpt lat="45.31021" lon="4.47736">
        <ele>1195.9</ele>
        <time>2018-08-19T09:48:05.000Z</time>
      </trkpt>
      <trkpt lat="45.3102" lon="4.47737">
        <ele>1195.9</ele>
        <time>2018-08-19T09:48:06.000Z</time>
      </trkpt>
      <trkpt lat="45.31019" lon="4.47737">
        <ele>1195.9</ele>
        <time>2018-08-19T09:48:07.000Z</time>
      </trkpt>
      <trkpt lat="45.31017" lon="4.47737">
        <ele>1196</ele>
        <time>2018-08-19T09:48:08.000Z</time>
      </trkpt>
      <trkpt lat="45.31016" lon="4.47738">
        <ele>1196</ele>
        <time>2018-08-19T09:48:09.000Z</time>
      </trkpt>
      <trkpt lat="45.31015" lon="4.47738">
        <ele>1196.1</ele>
        <time>2018-08-19T09:48:10.000Z</time>
      </trkpt>
      <trkpt lat="45.31013" lon="4.47738">
        <ele>1196.1</ele>
        <time>2018-08-19T09:48:11.000Z</time>
      </trkpt>
      <trkpt lat="45.31012" lon="4.47739">
        <ele>1196.1</ele>
        <time>2018-08-19T09:48:12.000Z</time>
      </trkpt>
      <trkpt lat="45.31011" lon="4.47739">
        <ele>1196.2</ele>
        <time>2018-08-19T09:48:13.000Z</time>
      </trkpt>
      <trkpt lat="45.31009" lon="4.47739">
        <ele>1196.2</ele>
        <time>2018-08-19T09:48:14.000Z</time>
      </trkpt>
      <trkpt lat="45.31008" lon="4.47739">
        <ele>1196.3</ele>
        <time>2018-08-19T09:48:15.000Z</time>
      </trkpt>
      <trkpt lat="45.31007" lon="4.4774">
        <ele>1196.3</ele>
        <time>2018-08-19T09:48:16.000Z</time>
      </trkpt>
      <trkpt lat="45.31005" lon="4.4774">
        <ele>1196.4</ele>
        <time>2018-08-19T09:48:17.000Z</time>
      </trkpt>
      <trkpt lat="45.31004" lon="4.4774">
        <ele>1196.4</ele>
        <time>2018-08-19T09:48:18.000Z</time>
      </trkpt>
      <trkpt lat="45.31002" lon="4.47741">
        <ele>1196.4</ele>
        <time>2018-08-19T09:48:19.000Z</time>
      </trkpt>
      <trkpt lat="45.31001" lon="4.47741">
        <ele>1196.5</ele>
        <time>2018-08-19T09:48:20.000Z</time>
      </trkpt>
      <trkpt lat="45.31" lon="4.47742">
        <ele>1196.5</ele>
        <time>2018-08-19T09:48:21.000Z</time>
      </trkpt>
      <trkpt lat="45.30998" lon="4.47742">
        <ele>1196.5</ele>
        <time>2018-08-19T09:48:22.000Z</time>
      </trkpt>
      <trkpt lat="45.30997" lon="4.47742">
        <ele>1196.5</ele>
        <time>2018-08-19T09:48:23.000Z</time>
      </trkpt>
      <trkpt lat="45.30995" lon="4.47743">
        <ele>1196.4</ele>
        <time>2018-08-19T09:48:24.000Z</time>
      </trkpt>
      <trkpt lat="45.30994" lon="4.47743">
        <ele>1196.4</ele>
        <time>2018-08-19T09:48:25.000Z</time>
      </trkpt>
      <trkpt lat="45.30993" lon="4.47744">
        <ele>1196.4</ele>
        <time>2018-08-19T09:48:26.000Z</time>
      </trkpt>
      <trkpt lat="45.30991" lon="4.47744">
        <ele>1196.4</ele>
        <time>2018-08-19T09:48:27.000Z</time>
      </trkpt>
      <trkpt lat="45.3099" lon="4.47744">
        <ele>1196.4</ele>
        <time>2018-08-19T09:48:28.000Z</time>
      </trkpt>
      <trkpt lat="45.30989" lon="4.47744">
        <ele>1196.4</ele>
        <time>2018-08-19T09:48:29.000Z</time>
      </trkpt>
      <trkpt lat="45.30988" lon="4.47744">
        <ele>1196.3</ele>
        <time>2018-08-19T09:48:30.000Z</time>
      </trkpt>
      <trkpt lat="45.30987" lon="4.47744">
        <ele>1196.3</ele>
        <time>2018-08-19T09:48:31.000Z</time>
      </trkpt>
      <trkpt lat="45.30986" lon="4.47744">
        <ele>1196.4</ele>
        <time>2018-08-19T09:48:32.000Z</time>
      </trkpt>
      <trkpt lat="45.30985" lon="4.47744">
        <ele>1196.4</ele>
        <time>2018-08-19T09:48:33.000Z</time>
      </trkpt>
      <trkpt lat="45.30984" lon="4.47744">
        <ele>1196.4</ele>
        <time>2018-08-19T09:48:34.000Z</time>
      </trkpt>
      <trkpt lat="45.30982" lon="4.47744">
        <ele>1196.4</ele>
        <time>2018-08-19T09:48:35.000Z</time>
      </trkpt>
      <trkpt lat="45.30981" lon="4.47744">
        <ele>1196.4</ele>
        <time>2018-08-19T09:48:36.000Z</time>
      </trkpt>
      <trkpt lat="45.3098" lon="4.47744">
        <ele>1196.3</ele>
        <time>2018-08-19T09:48:37.000Z</time>
      </trkpt>
      <trkpt lat="45.30979" lon="4.47745">
        <ele>1196.3</ele>
        <time>2018-08-19T09:48:38.000Z</time>
      </trkpt>
      <trkpt lat="45.30977" lon="4.47746">
        <ele>1196.3</ele>
        <time>2018-08-19T09:48:39.000Z</time>
      </trkpt>
      <trkpt lat="45.30976" lon="4.47746">
        <ele>1196.2</ele>
        <time>2018-08-19T09:48:40.000Z</time>
      </trkpt>
      <trkpt lat="45.30975" lon="4.47746">
        <ele>1196.2</ele>
        <time>2018-08-19T09:48:41.000Z</time>
      </trkpt>
      <trkpt lat="45.30974" lon="4.47747">
        <ele>1196.2</ele>
        <time>2018-08-19T09:48:42.000Z</time>
      </trkpt>
      <trkpt lat="45.30972" lon="4.47747">
        <ele>1196.2</ele>
        <time>2018-08-19T09:48:43.000Z</time>
      </trkpt>
      <trkpt lat="45.30971" lon="4.47747">
        <ele>1196.2</ele>
        <time>2018-08-19T09:48:44.000Z</time>
      </trkpt>
      <trkpt lat="45.3097" lon="4.47748">
        <ele>1196.1</ele>
        <time>2018-08-19T09:48:45.000Z</time>
      </trkpt>
      <trkpt lat="45.30968" lon="4.47748">
        <ele>1196.1</ele>
        <time>2018-08-19T09:48:46.000Z</time>
      </trkpt>
      <trkpt lat="45.30967" lon="4.47748">
        <ele>1196.1</ele>
        <time>2018-08-19T09:48:47.000Z</time>
      </trkpt>
      <trkpt lat="45.30966" lon="4.47749">
        <ele>1196.1</ele>
        <time>2018-08-19T09:48:48.000Z</time>
      </trkpt>
      <trkpt lat="45.30965" lon="4.47749">
        <ele>1196</ele>
        <time>2018-08-19T09:48:49.000Z</time>
      </trkpt>
      <trkpt lat="45.30963" lon="4.4775">
        <ele>1196</ele>
        <time>2018-08-19T09:48:50.000Z</time>
      </trkpt>
      <trkpt lat="45.30962" lon="4.4775">
        <ele>1196</ele>
        <time>2018-08-19T09:48:51.000Z</time>
      </trkpt>
      <trkpt lat="45.30961" lon="4.4775">
        <ele>1196</ele>
        <time>2018-08-19T09:48:52.000Z</time>
      </trkpt>
      <trkpt lat="45.3096" lon="4.4775">
        <ele>1196</ele>
        <time>2018-08-19T09:48:53.000Z</time>
      </trkpt>
      <trkpt lat="45.30958" lon="4.47751">
        <ele>1195.9</ele>
        <time>2018-08-19T09:48:54.000Z</time>
      </trkpt>
      <trkpt lat="45.30957" lon="4.4775">
        <ele>1196</ele>
        <time>2018-08-19T09:48:55.000Z</time>
      </trkpt>
      <trkpt lat="45.30956" lon="4.4775">
        <ele>1196</ele>
        <time>2018-08-19T09:48:56.000Z</time>
      </trkpt>
      <trkpt lat="45.30955" lon="4.4775">
        <ele>1196</ele>
        <time>2018-08-19T09:48:57.000Z</time>
      </trkpt>
      <trkpt lat="45.30953" lon="4.4775">
        <ele>1196</ele>
        <time>2018-08-19T09:48:58.000Z</time>
      </trkpt>
      <trkpt lat="45.30952" lon="4.4775">
        <ele>1196</ele>
        <time>2018-08-19T09:48:59.000Z</time>
      </trkpt>
      <trkpt lat="45.30951" lon="4.4775">
        <ele>1196</ele>
        <time>2018-08-19T09:49:00.000Z</time>
      </trkpt>
      <trkpt lat="45.3095" lon="4.47749">
        <ele>1196</ele>
        <time>2018-08-19T09:49:01.000Z</time>
      </trkpt>
      <trkpt lat="45.30949" lon="4.4775">
        <ele>1196</ele>
        <time>2018-08-19T09:49:02.000Z</time>
      </trkpt>
      <trkpt lat="45.30948" lon="4.4775">
        <ele>1196</ele>
        <time>2018-08-19T09:49:03.000Z</time>
      </trkpt>
      <trkpt lat="45.30946" lon="4.4775">
        <ele>1196</ele>
        <time>2018-08-19T09:49:04.000Z</time>
      </trkpt>
      <trkpt lat="45.30945" lon="4.4775">
        <ele>1196</ele>
        <time>2018-08-19T09:49:05.000Z</time>
      </trkpt>
      <trkpt lat="45.30944" lon="4.4775">
        <ele>1196</ele>
        <time>2018-08-19T09:49:06.000Z</time>
      </trkpt>
      <trkpt lat="45.30943" lon="4.47751">
        <ele>1195.9</ele>
        <time>2018-08-19T09:49:07.000Z</time>
      </trkpt>
      <trkpt lat="45.30942" lon="4.47751">
        <ele>1195.9</ele>
        <time>2018-08-19T09:49:08.000Z</time>
      </trkpt>
      <trkpt lat="45.30941" lon="4.47751">
        <ele>1195.9</ele>
        <time>2018-08-19T09:49:09.000Z</time>
      </trkpt>
      <trkpt lat="45.3094" lon="4.47752">
        <ele>1195.8</ele>
        <time>2018-08-19T09:49:10.000Z</time>
      </trkpt>
      <trkpt lat="45.30938" lon="4.47752">
        <ele>1195.8</ele>
        <time>2018-08-19T09:49:11.000Z</time>
      </trkpt>
      <trkpt lat="45.30937" lon="4.47753">
        <ele>1195.7</ele>
        <time>2018-08-19T09:49:12.000Z</time>
      </trkpt>
      <trkpt lat="45.30936" lon="4.47753">
        <ele>1195.7</ele>
        <time>2018-08-19T09:49:13.000Z</time>
      </trkpt>
      <trkpt lat="45.30935" lon="4.47753">
        <ele>1195.6</ele>
        <time>2018-08-19T09:49:14.000Z</time>
      </trkpt>
      <trkpt lat="45.30933" lon="4.47754">
        <ele>1195.6</ele>
        <time>2018-08-19T09:49:15.000Z</time>
      </trkpt>
      <trkpt lat="45.30932" lon="4.47754">
        <ele>1195.5</ele>
        <time>2018-08-19T09:49:16.000Z</time>
      </trkpt>
      <trkpt lat="45.30931" lon="4.47755">
        <ele>1195.5</ele>
        <time>2018-08-19T09:49:17.000Z</time>
      </trkpt>
      <trkpt lat="45.30929" lon="4.47755">
        <ele>1195.4</ele>
        <time>2018-08-19T09:49:18.000Z</time>
      </trkpt>
      <trkpt lat="45.30928" lon="4.47755">
        <ele>1195.4</ele>
        <time>2018-08-19T09:49:19.000Z</time>
      </trkpt>
      <trkpt lat="45.30926" lon="4.47755">
        <ele>1195.4</ele>
        <time>2018-08-19T09:49:20.000Z</time>
      </trkpt>
      <trkpt lat="45.30925" lon="4.47756">
        <ele>1195.3</ele>
        <time>2018-08-19T09:49:21.000Z</time>
      </trkpt>
      <trkpt lat="45.30924" lon="4.47756">
        <ele>1195.3</ele>
        <time>2018-08-19T09:49:22.000Z</time>
      </trkpt>
      <trkpt lat="45.30922" lon="4.47756">
        <ele>1195.3</ele>
        <time>2018-08-19T09:49:23.000Z</time>
      </trkpt>
      <trkpt lat="45.30921" lon="4.47756">
        <ele>1195.3</ele>
        <time>2018-08-19T09:49:24.000Z</time>
      </trkpt>
      <trkpt lat="45.3092" lon="4.47756">
        <ele>1195.3</ele>
        <time>2018-08-19T09:49:25.000Z</time>
      </trkpt>
      <trkpt lat="45.30918" lon="4.47756">
        <ele>1195.3</ele>
        <time>2018-08-19T09:49:26.000Z</time>
      </trkpt>
      <trkpt lat="45.30917" lon="4.47755">
        <ele>1195.4</ele>
        <time>2018-08-19T09:49:27.000Z</time>
      </trkpt>
      <trkpt lat="45.30916" lon="4.47755">
        <ele>1195.3</ele>
        <time>2018-08-19T09:49:28.000Z</time>
      </trkpt>
      <trkpt lat="45.30914" lon="4.47755">
        <ele>1195.2</ele>
        <time>2018-08-19T09:49:29.000Z</time>
      </trkpt>
      <trkpt lat="45.30913" lon="4.47755">
        <ele>1195.1</ele>
        <time>2018-08-19T09:49:30.000Z</time>
      </trkpt>
      <trkpt lat="45.30912" lon="4.47754">
        <ele>1194.9</ele>
        <time>2018-08-19T09:49:31.000Z</time>
      </trkpt>
      <trkpt lat="45.3091" lon="4.47754">
        <ele>1194.8</ele>
        <time>2018-08-19T09:49:32.000Z</time>
      </trkpt>
      <trkpt lat="45.30909" lon="4.47754">
        <ele>1194.7</ele>
        <time>2018-08-19T09:49:33.000Z</time>
      </trkpt>
      <trkpt lat="45.30907" lon="4.47753">
        <ele>1194.6</ele>
        <time>2018-08-19T09:49:34.000Z</time>
      </trkpt>
      <trkpt lat="45.30906" lon="4.47753">
        <ele>1194.5</ele>
        <time>2018-08-19T09:49:35.000Z</time>
      </trkpt>
      <trkpt lat="45.30904" lon="4.47753">
        <ele>1194.3</ele>
        <time>2018-08-19T09:49:36.000Z</time>
      </trkpt>
      <trkpt lat="45.30903" lon="4.47752">
        <ele>1194.2</ele>
        <time>2018-08-19T09:49:37.000Z</time>
      </trkpt>
      <trkpt lat="45.30901" lon="4.47752">
        <ele>1194.1</ele>
        <time>2018-08-19T09:49:38.000Z</time>
      </trkpt>
      <trkpt lat="45.309" lon="4.47752">
        <ele>1194</ele>
        <time>2018-08-19T09:49:39.000Z</time>
      </trkpt>
      <trkpt lat="45.30898" lon="4.47751">
        <ele>1193.9</ele>
        <time>2018-08-19T09:49:40.000Z</time>
      </trkpt>
      <trkpt lat="45.30897" lon="4.47751">
        <ele>1193.8</ele>
        <time>2018-08-19T09:49:41.000Z</time>
      </trkpt>
      <trkpt lat="45.30896" lon="4.4775">
        <ele>1193.7</ele>
        <time>2018-08-19T09:49:42.000Z</time>
      </trkpt>
      <trkpt lat="45.30895" lon="4.47749">
        <ele>1193.6</ele>
        <time>2018-08-19T09:49:43.000Z</time>
      </trkpt>
      <trkpt lat="45.30893" lon="4.47749">
        <ele>1193.6</ele>
        <time>2018-08-19T09:49:44.000Z</time>
      </trkpt>
      <trkpt lat="45.30892" lon="4.47748">
        <ele>1193.5</ele>
        <time>2018-08-19T09:49:45.000Z</time>
      </trkpt>
      <trkpt lat="45.30891" lon="4.47747">
        <ele>1193.4</ele>
        <time>2018-08-19T09:49:46.000Z</time>
      </trkpt>
      <trkpt lat="45.3089" lon="4.47746">
        <ele>1193.3</ele>
        <time>2018-08-19T09:49:47.000Z</time>
      </trkpt>
      <trkpt lat="45.30889" lon="4.47745">
        <ele>1193.3</ele>
        <time>2018-08-19T09:49:48.000Z</time>
      </trkpt>
      <trkpt lat="45.30888" lon="4.47743">
        <ele>1193.2</ele>
        <time>2018-08-19T09:49:49.000Z</time>
      </trkpt>
      <trkpt lat="45.30886" lon="4.47742">
        <ele>1193.1</ele>
        <time>2018-08-19T09:49:50.000Z</time>
      </trkpt>
      <trkpt lat="45.30885" lon="4.47741">
        <ele>1193.1</ele>
        <time>2018-08-19T09:49:51.000Z</time>
      </trkpt>
      <trkpt lat="45.30884" lon="4.4774">
        <ele>1193</ele>
        <time>2018-08-19T09:49:52.000Z</time>
      </trkpt>
      <trkpt lat="45.30883" lon="4.47739">
        <ele>1192.9</ele>
        <time>2018-08-19T09:49:53.000Z</time>
      </trkpt>
      <trkpt lat="45.30882" lon="4.47738">
        <ele>1192.8</ele>
        <time>2018-08-19T09:49:54.000Z</time>
      </trkpt>
      <trkpt lat="45.30881" lon="4.47738">
        <ele>1192.7</ele>
        <time>2018-08-19T09:49:55.000Z</time>
      </trkpt>
      <trkpt lat="45.3088" lon="4.47737">
        <ele>1192.7</ele>
        <time>2018-08-19T09:49:56.000Z</time>
      </trkpt>
      <trkpt lat="45.30879" lon="4.47736">
        <ele>1192.6</ele>
        <time>2018-08-19T09:49:57.000Z</time>
      </trkpt>
      <trkpt lat="45.30878" lon="4.47736">
        <ele>1192.5</ele>
        <time>2018-08-19T09:49:58.000Z</time>
      </trkpt>
      <trkpt lat="45.30876" lon="4.47735">
        <ele>1192.4</ele>
        <time>2018-08-19T09:49:59.000Z</time>
      </trkpt>
      <trkpt lat="45.30875" lon="4.47735">
        <ele>1192.3</ele>
        <time>2018-08-19T09:50:00.000Z</time>
      </trkpt>
      <trkpt lat="45.30874" lon="4.47734">
        <ele>1192.2</ele>
        <time>2018-08-19T09:50:01.000Z</time>
      </trkpt>
      <trkpt lat="45.30873" lon="4.47734">
        <ele>1192.1</ele>
        <time>2018-08-19T09:50:02.000Z</time>
      </trkpt>
      <trkpt lat="45.30872" lon="4.47734">
        <ele>1192</ele>
        <time>2018-08-19T09:50:03.000Z</time>
      </trkpt>
      <trkpt lat="45.30871" lon="4.47733">
        <ele>1191.9</ele>
        <time>2018-08-19T09:50:04.000Z</time>
      </trkpt>
      <trkpt lat="45.3087" lon="4.47732">
        <ele>1191.7</ele>
        <time>2018-08-19T09:50:05.000Z</time>
      </trkpt>
      <trkpt lat="45.30869" lon="4.47732">
        <ele>1191.6</ele>
        <time>2018-08-19T09:50:06.000Z</time>
      </trkpt>
      <trkpt lat="45.30867" lon="4.47731">
        <ele>1191.5</ele>
        <time>2018-08-19T09:50:07.000Z</time>
      </trkpt>
      <trkpt lat="45.30866" lon="4.4773">
        <ele>1191.5</ele>
        <time>2018-08-19T09:50:08.000Z</time>
      </trkpt>
      <trkpt lat="45.30865" lon="4.4773">
        <ele>1191.3</ele>
        <time>2018-08-19T09:50:09.000Z</time>
      </trkpt>
      <trkpt lat="45.30864" lon="4.47729">
        <ele>1191.3</ele>
        <time>2018-08-19T09:50:10.000Z</time>
      </trkpt>
      <trkpt lat="45.30863" lon="4.47728">
        <ele>1191.2</ele>
        <time>2018-08-19T09:50:11.000Z</time>
      </trkpt>
      <trkpt lat="45.30862" lon="4.47727">
        <ele>1191.1</ele>
        <time>2018-08-19T09:50:12.000Z</time>
      </trkpt>
      <trkpt lat="45.30861" lon="4.47726">
        <ele>1191</ele>
        <time>2018-08-19T09:50:13.000Z</time>
      </trkpt>
      <trkpt lat="45.30859" lon="4.47725">
        <ele>1190.9</ele>
        <time>2018-08-19T09:50:14.000Z</time>
      </trkpt>
      <trkpt lat="45.30858" lon="4.47724">
        <ele>1190.8</ele>
        <time>2018-08-19T09:50:15.000Z</time>
      </trkpt>
      <trkpt lat="45.30857" lon="4.47724">
        <ele>1190.7</ele>
        <time>2018-08-19T09:50:16.000Z</time>
      </trkpt>
      <trkpt lat="45.30856" lon="4.47723">
        <ele>1190.6</ele>
        <time>2018-08-19T09:50:17.000Z</time>
      </trkpt>
      <trkpt lat="45.30855" lon="4.47722">
        <ele>1190.5</ele>
        <time>2018-08-19T09:50:18.000Z</time>
      </trkpt>
      <trkpt lat="45.30854" lon="4.47721">
        <ele>1190.4</ele>
        <time>2018-08-19T09:50:19.000Z</time>
      </trkpt>
      <trkpt lat="45.30853" lon="4.4772">
        <ele>1190.4</ele>
        <time>2018-08-19T09:50:20.000Z</time>
      </trkpt>
      <trkpt lat="45.30852" lon="4.47719">
        <ele>1190.3</ele>
        <time>2018-08-19T09:50:21.000Z</time>
      </trkpt>
      <trkpt lat="45.30851" lon="4.47718">
        <ele>1190.2</ele>
        <time>2018-08-19T09:50:22.000Z</time>
      </trkpt>
      <trkpt lat="45.3085" lon="4.47717">
        <ele>1190.1</ele>
        <time>2018-08-19T09:50:23.000Z</time>
      </trkpt>
      <trkpt lat="45.30849" lon="4.47716">
        <ele>1190</ele>
        <time>2018-08-19T09:50:24.000Z</time>
      </trkpt>
      <trkpt lat="45.30848" lon="4.47715">
        <ele>1190</ele>
        <time>2018-08-19T09:50:25.000Z</time>
      </trkpt>
      <trkpt lat="45.30847" lon="4.47714">
        <ele>1189.9</ele>
        <time>2018-08-19T09:50:26.000Z</time>
      </trkpt>
      <trkpt lat="45.30846" lon="4.47713">
        <ele>1189.8</ele>
        <time>2018-08-19T09:50:27.000Z</time>
      </trkpt>
      <trkpt lat="45.30845" lon="4.47712">
        <ele>1189.7</ele>
        <time>2018-08-19T09:50:28.000Z</time>
      </trkpt>
      <trkpt lat="45.30844" lon="4.47711">
        <ele>1189.7</ele>
        <time>2018-08-19T09:50:29.000Z</time>
      </trkpt>
      <trkpt lat="45.30843" lon="4.4771">
        <ele>1189.6</ele>
        <time>2018-08-19T09:50:30.000Z</time>
      </trkpt>
      <trkpt lat="45.30842" lon="4.47709">
        <ele>1189.5</ele>
        <time>2018-08-19T09:50:31.000Z</time>
      </trkpt>
      <trkpt lat="45.30841" lon="4.47708">
        <ele>1189.4</ele>
        <time>2018-08-19T09:50:32.000Z</time>
      </trkpt>
      <trkpt lat="45.3084" lon="4.47707">
        <ele>1189.4</ele>
        <time>2018-08-19T09:50:33.000Z</time>
      </trkpt>
      <trkpt lat="45.3084" lon="4.47706">
        <ele>1189.3</ele>
        <time>2018-08-19T09:50:34.000Z</time>
      </trkpt>
      <trkpt lat="45.30839" lon="4.47705">
        <ele>1189.3</ele>
        <time>2018-08-19T09:50:35.000Z</time>
      </trkpt>
      <trkpt lat="45.30838" lon="4.47704">
        <ele>1189.2</ele>
        <time>2018-08-19T09:50:36.000Z</time>
      </trkpt>
      <trkpt lat="45.30837" lon="4.47703">
        <ele>1189.1</ele>
        <time>2018-08-19T09:50:37.000Z</time>
      </trkpt>
      <trkpt lat="45.30836" lon="4.47702">
        <ele>1189.1</ele>
        <time>2018-08-19T09:50:38.000Z</time>
      </trkpt>
      <trkpt lat="45.30835" lon="4.47701">
        <ele>1189</ele>
        <time>2018-08-19T09:50:39.000Z</time>
      </trkpt>
      <trkpt lat="45.30834" lon="4.477">
        <ele>1188.9</ele>
        <time>2018-08-19T09:50:40.000Z</time>
      </trkpt>
      <trkpt lat="45.30834" lon="4.47699">
        <ele>1188.9</ele>
        <time>2018-08-19T09:50:41.000Z</time>
      </trkpt>
      <trkpt lat="45.30833" lon="4.47698">
        <ele>1188.8</ele>
        <time>2018-08-19T09:50:42.000Z</time>
      </trkpt>
      <trkpt lat="45.30832" lon="4.47697">
        <ele>1188.7</ele>
        <time>2018-08-19T09:50:43.000Z</time>
      </trkpt>
      <trkpt lat="45.30831" lon="4.47696">
        <ele>1188.7</ele>
        <time>2018-08-19T09:50:44.000Z</time>
      </trkpt>
      <trkpt lat="45.3083" lon="4.47695">
        <ele>1188.6</ele>
        <time>2018-08-19T09:50:45.000Z</time>
      </trkpt>
      <trkpt lat="45.30829" lon="4.47694">
        <ele>1188.5</ele>
        <time>2018-08-19T09:50:46.000Z</time>
      </trkpt>
      <trkpt lat="45.30829" lon="4.47693">
        <ele>1188.4</ele>
        <time>2018-08-19T09:50:47.000Z</time>
      </trkpt>
      <trkpt lat="45.30828" lon="4.47692">
        <ele>1188.4</ele>
        <time>2018-08-19T09:50:48.000Z</time>
      </trkpt>
      <trkpt lat="45.30827" lon="4.47692">
        <ele>1188.3</ele>
        <time>2018-08-19T09:50:49.000Z</time>
      </trkpt>
      <trkpt lat="45.30826" lon="4.47691">
        <ele>1188.2</ele>
        <time>2018-08-19T09:50:50.000Z</time>
      </trkpt>
      <trkpt lat="45.30825" lon="4.4769">
        <ele>1188.1</ele>
        <time>2018-08-19T09:50:51.000Z</time>
      </trkpt>
      <trkpt lat="45.30824" lon="4.47689">
        <ele>1188</ele>
        <time>2018-08-19T09:50:52.000Z</time>
      </trkpt>
      <trkpt lat="45.30823" lon="4.47689">
        <ele>1187.9</ele>
        <time>2018-08-19T09:50:53.000Z</time>
      </trkpt>
      <trkpt lat="45.30823" lon="4.47688">
        <ele>1187.9</ele>
        <time>2018-08-19T09:50:54.000Z</time>
      </trkpt>
      <trkpt lat="45.30822" lon="4.47687">
        <ele>1187.8</ele>
        <time>2018-08-19T09:50:55.000Z</time>
      </trkpt>
      <trkpt lat="45.30821" lon="4.47686">
        <ele>1187.7</ele>
        <time>2018-08-19T09:50:56.000Z</time>
      </trkpt>
      <trkpt lat="45.3082" lon="4.47685">
        <ele>1187.6</ele>
        <time>2018-08-19T09:50:57.000Z</time>
      </trkpt>
      <trkpt lat="45.30819" lon="4.47684">
        <ele>1187.5</ele>
        <time>2018-08-19T09:50:58.000Z</time>
      </trkpt>
      <trkpt lat="45.30819" lon="4.47683">
        <ele>1187.5</ele>
        <time>2018-08-19T09:50:59.000Z</time>
      </trkpt>
      <trkpt lat="45.30818" lon="4.47682">
        <ele>1187.4</ele>
        <time>2018-08-19T09:51:00.000Z</time>
      </trkpt>
      <trkpt lat="45.30817" lon="4.47681">
        <ele>1187.4</ele>
        <time>2018-08-19T09:51:01.000Z</time>
      </trkpt>
      <trkpt lat="45.30817" lon="4.4768">
        <ele>1187.3</ele>
        <time>2018-08-19T09:51:02.000Z</time>
      </trkpt>
      <trkpt lat="45.30816" lon="4.47679">
        <ele>1187.3</ele>
        <time>2018-08-19T09:51:03.000Z</time>
      </trkpt>
      <trkpt lat="45.30815" lon="4.47679">
        <ele>1187.2</ele>
        <time>2018-08-19T09:51:04.000Z</time>
      </trkpt>
      <trkpt lat="45.30815" lon="4.47678">
        <ele>1187.2</ele>
        <time>2018-08-19T09:51:05.000Z</time>
      </trkpt>
      <trkpt lat="45.30815" lon="4.47677">
        <ele>1187.2</ele>
        <time>2018-08-19T09:51:06.000Z</time>
      </trkpt>
      <trkpt lat="45.30815" lon="4.47677">
        <ele>1187.2</ele>
        <time>2018-08-19T09:51:07.000Z</time>
      </trkpt>
      <trkpt lat="45.30815" lon="4.47677">
        <ele>1187.2</ele>
        <time>2018-08-19T09:51:08.000Z</time>
      </trkpt>
      <trkpt lat="45.30815" lon="4.47677">
        <ele>1187.2</ele>
        <time>2018-08-19T09:51:09.000Z</time>
      </trkpt>
      <trkpt lat="45.30815" lon="4.47677">
        <ele>1187.2</ele>
        <time>2018-08-19T09:51:10.000Z</time>
      </trkpt>
      <trkpt lat="45.30815" lon="4.47677">
        <ele>1187.2</ele>
        <time>2018-08-19T09:51:11.000Z</time>
      </trkpt>
      <trkpt lat="45.30815" lon="4.47677">
        <ele>1187.2</ele>
        <time>2018-08-19T09:51:12.000Z</time>
      </trkpt>
      <trkpt lat="45.30815" lon="4.47677">
        <ele>1187.2</ele>
        <time>2018-08-19T09:51:13.000Z</time>
      </trkpt>
      <trkpt lat="45.30814" lon="4.47676">
        <ele>1187.2</ele>
        <time>2018-08-19T09:51:14.000Z</time>
      </trkpt>
      <trkpt lat="45.30814" lon="4.47676">
        <ele>1187.2</ele>
        <time>2018-08-19T09:51:15.000Z</time>
      </trkpt>
      <trkpt lat="45.30814" lon="4.47676">
        <ele>1187.2</ele>
        <time>2018-08-19T09:51:16.000Z</time>
      </trkpt>
      <trkpt lat="45.30814" lon="4.47675">
        <ele>1187.1</ele>
        <time>2018-08-19T09:51:17.000Z</time>
      </trkpt>
      <trkpt lat="45.30813" lon="4.47674">
        <ele>1187</ele>
        <time>2018-08-19T09:51:18.000Z</time>
      </trkpt>
      <trkpt lat="45.30812" lon="4.47673">
        <ele>1186.9</ele>
        <time>2018-08-19T09:51:19.000Z</time>
      </trkpt>
      <trkpt lat="45.3081" lon="4.47673">
        <ele>1186.7</ele>
        <time>2018-08-19T09:51:20.000Z</time>
      </trkpt>
      <trkpt lat="45.30809" lon="4.47673">
        <ele>1186.6</ele>
        <time>2018-08-19T09:51:21.000Z</time>
      </trkpt>
      <trkpt lat="45.30808" lon="4.47672">
        <ele>1186.5</ele>
        <time>2018-08-19T09:51:22.000Z</time>
      </trkpt>
      <trkpt lat="45.30808" lon="4.47672">
        <ele>1186.5</ele>
        <time>2018-08-19T09:51:23.000Z</time>
      </trkpt>
      <trkpt lat="45.30808" lon="4.47672">
        <ele>1186.4</ele>
        <time>2018-08-19T09:51:24.000Z</time>
      </trkpt>
      <trkpt lat="45.30808" lon="4.47672">
        <ele>1186.4</ele>
        <time>2018-08-19T09:51:25.000Z</time>
      </trkpt>
      <trkpt lat="45.30808" lon="4.47672">
        <ele>1186.4</ele>
        <time>2018-08-19T09:51:26.000Z</time>
      </trkpt>
      <trkpt lat="45.30808" lon="4.47672">
        <ele>1186.4</ele>
        <time>2018-08-19T09:51:27.000Z</time>
      </trkpt>
      <trkpt lat="45.30808" lon="4.47672">
        <ele>1186.4</ele>
        <time>2018-08-19T09:51:28.000Z</time>
      </trkpt>
      <trkpt lat="45.30808" lon="4.47672">
        <ele>1186.4</ele>
        <time>2018-08-19T09:51:29.000Z</time>
      </trkpt>
      <trkpt lat="45.30808" lon="4.47672">
        <ele>1186.4</ele>
        <time>2018-08-19T09:51:30.000Z</time>
      </trkpt>
      <trkpt lat="45.30808" lon="4.47672">
        <ele>1186.4</ele>
        <time>2018-08-19T09:51:31.000Z</time>
      </trkpt>
      <trkpt lat="45.30808" lon="4.47672">
        <ele>1186.4</ele>
        <time>2018-08-19T09:51:32.000Z</time>
      </trkpt>
      <trkpt lat="45.30808" lon="4.47672">
        <ele>1186.4</ele>
        <time>2018-08-19T09:51:33.000Z</time>
      </trkpt>
      <trkpt lat="45.30808" lon="4.47672">
        <ele>1186.4</ele>
        <time>2018-08-19T09:51:34.000Z</time>
      </trkpt>
      <trkpt lat="45.30808" lon="4.47672">
        <ele>1186.4</ele>
        <time>2018-08-19T09:51:35.000Z</time>
      </trkpt>
      <trkpt lat="45.30807" lon="4.47672">
        <ele>1186.4</ele>
        <time>2018-08-19T09:51:36.000Z</time>
      </trkpt>
      <trkpt lat="45.30807" lon="4.47672">
        <ele>1186.4</ele>
        <time>2018-08-19T09:51:37.000Z</time>
      </trkpt>
      <trkpt lat="45.30807" lon="4.47672">
        <ele>1186.3</ele>
        <time>2018-08-19T09:51:38.000Z</time>
      </trkpt>
      <trkpt lat="45.30806" lon="4.47672">
        <ele>1186.2</ele>
        <time>2018-08-19T09:51:39.000Z</time>
      </trkpt>
      <trkpt lat="45.30805" lon="4.47672">
        <ele>1186.2</ele>
        <time>2018-08-19T09:51:40.000Z</time>
      </trkpt>
      <trkpt lat="45.30805" lon="4.47672">
        <ele>1186</ele>
        <time>2018-08-19T09:51:41.000Z</time>
      </trkpt>
      <trkpt lat="45.30804" lon="4.47671">
        <ele>1185.9</ele>
        <time>2018-08-19T09:51:42.000Z</time>
      </trkpt>
      <trkpt lat="45.30802" lon="4.47671">
        <ele>1185.8</ele>
        <time>2018-08-19T09:51:43.000Z</time>
      </trkpt>
      <trkpt lat="45.30801" lon="4.47671">
        <ele>1185.6</ele>
        <time>2018-08-19T09:51:44.000Z</time>
      </trkpt>
      <trkpt lat="45.308" lon="4.47671">
        <ele>1185.4</ele>
        <time>2018-08-19T09:51:45.000Z</time>
      </trkpt>
      <trkpt lat="45.30798" lon="4.4767">
        <ele>1185.3</ele>
        <time>2018-08-19T09:51:46.000Z</time>
      </trkpt>
      <trkpt lat="45.30797" lon="4.4767">
        <ele>1185.1</ele>
        <time>2018-08-19T09:51:47.000Z</time>
      </trkpt>
      <trkpt lat="45.30797" lon="4.4767">
        <ele>1185</ele>
        <time>2018-08-19T09:51:48.000Z</time>
      </trkpt>
      <trkpt lat="45.30796" lon="4.4767">
        <ele>1185</ele>
        <time>2018-08-19T09:51:49.000Z</time>
      </trkpt>
      <trkpt lat="45.30796" lon="4.4767">
        <ele>1185</ele>
        <time>2018-08-19T09:51:50.000Z</time>
      </trkpt>
      <trkpt lat="45.30796" lon="4.4767">
        <ele>1185</ele>
        <time>2018-08-19T09:51:51.000Z</time>
      </trkpt>
      <trkpt lat="45.30796" lon="4.4767">
        <ele>1185</ele>
        <time>2018-08-19T09:51:52.000Z</time>
      </trkpt>
      <trkpt lat="45.30796" lon="4.4767">
        <ele>1185</ele>
        <time>2018-08-19T09:51:53.000Z</time>
      </trkpt>
      <trkpt lat="45.30796" lon="4.4767">
        <ele>1184.9</ele>
        <time>2018-08-19T09:51:54.000Z</time>
      </trkpt>
      <trkpt lat="45.30795" lon="4.4767">
        <ele>1184.8</ele>
        <time>2018-08-19T09:51:55.000Z</time>
      </trkpt>
      <trkpt lat="45.30794" lon="4.4767">
        <ele>1184.7</ele>
        <time>2018-08-19T09:51:56.000Z</time>
      </trkpt>
      <trkpt lat="45.30792" lon="4.47669">
        <ele>1184.5</ele>
        <time>2018-08-19T09:51:57.000Z</time>
      </trkpt>
      <trkpt lat="45.30791" lon="4.47669">
        <ele>1184.3</ele>
        <time>2018-08-19T09:51:58.000Z</time>
      </trkpt>
      <trkpt lat="45.3079" lon="4.47669">
        <ele>1184.1</ele>
        <time>2018-08-19T09:51:59.000Z</time>
      </trkpt>
      <trkpt lat="45.30788" lon="4.47669">
        <ele>1184</ele>
        <time>2018-08-19T09:52:00.000Z</time>
      </trkpt>
      <trkpt lat="45.30787" lon="4.47669">
        <ele>1183.8</ele>
        <time>2018-08-19T09:52:01.000Z</time>
      </trkpt>
      <trkpt lat="45.30786" lon="4.47669">
        <ele>1183.7</ele>
        <time>2018-08-19T09:52:02.000Z</time>
      </trkpt>
      <trkpt lat="45.30785" lon="4.47669">
        <ele>1183.5</ele>
        <time>2018-08-19T09:52:03.000Z</time>
      </trkpt>
      <trkpt lat="45.30783" lon="4.47669">
        <ele>1183.3</ele>
        <time>2018-08-19T09:52:04.000Z</time>
      </trkpt>
      <trkpt lat="45.30782" lon="4.47668">
        <ele>1183.2</ele>
        <time>2018-08-19T09:52:05.000Z</time>
      </trkpt>
      <trkpt lat="45.30781" lon="4.47668">
        <ele>1183</ele>
        <time>2018-08-19T09:52:06.000Z</time>
      </trkpt>
      <trkpt lat="45.30779" lon="4.47668">
        <ele>1182.9</ele>
        <time>2018-08-19T09:52:07.000Z</time>
      </trkpt>
      <trkpt lat="45.30778" lon="4.47667">
        <ele>1182.7</ele>
        <time>2018-08-19T09:52:08.000Z</time>
      </trkpt>
      <trkpt lat="45.30777" lon="4.47667">
        <ele>1182.5</ele>
        <time>2018-08-19T09:52:09.000Z</time>
      </trkpt>
      <trkpt lat="45.30776" lon="4.47666">
        <ele>1182.4</ele>
        <time>2018-08-19T09:52:10.000Z</time>
      </trkpt>
      <trkpt lat="45.30774" lon="4.47666">
        <ele>1182.2</ele>
        <time>2018-08-19T09:52:11.000Z</time>
      </trkpt>
      <trkpt lat="45.30773" lon="4.47666">
        <ele>1182.1</ele>
        <time>2018-08-19T09:52:12.000Z</time>
      </trkpt>
      <trkpt lat="45.30772" lon="4.47666">
        <ele>1181.9</ele>
        <time>2018-08-19T09:52:13.000Z</time>
      </trkpt>
      <trkpt lat="45.3077" lon="4.47666">
        <ele>1181.7</ele>
        <time>2018-08-19T09:52:14.000Z</time>
      </trkpt>
      <trkpt lat="45.30769" lon="4.47665">
        <ele>1181.6</ele>
        <time>2018-08-19T09:52:15.000Z</time>
      </trkpt>
      <trkpt lat="45.30768" lon="4.47665">
        <ele>1181.4</ele>
        <time>2018-08-19T09:52:16.000Z</time>
      </trkpt>
      <trkpt lat="45.30766" lon="4.47665">
        <ele>1181.2</ele>
        <time>2018-08-19T09:52:17.000Z</time>
      </trkpt>
      <trkpt lat="45.30765" lon="4.47665">
        <ele>1181.1</ele>
        <time>2018-08-19T09:52:18.000Z</time>
      </trkpt>
      <trkpt lat="45.30764" lon="4.47665">
        <ele>1180.9</ele>
        <time>2018-08-19T09:52:19.000Z</time>
      </trkpt>
      <trkpt lat="45.30762" lon="4.47664">
        <ele>1180.7</ele>
        <time>2018-08-19T09:52:20.000Z</time>
      </trkpt>
      <trkpt lat="45.30761" lon="4.47664">
        <ele>1180.6</ele>
        <time>2018-08-19T09:52:21.000Z</time>
      </trkpt>
      <trkpt lat="45.3076" lon="4.47664">
        <ele>1180.4</ele>
        <time>2018-08-19T09:52:22.000Z</time>
      </trkpt>
      <trkpt lat="45.30758" lon="4.47664">
        <ele>1180.2</ele>
        <time>2018-08-19T09:52:23.000Z</time>
      </trkpt>
      <trkpt lat="45.30757" lon="4.47663">
        <ele>1180.1</ele>
        <time>2018-08-19T09:52:24.000Z</time>
      </trkpt>
      <trkpt lat="45.30756" lon="4.47663">
        <ele>1179.9</ele>
        <time>2018-08-19T09:52:25.000Z</time>
      </trkpt>
      <trkpt lat="45.30755" lon="4.47663">
        <ele>1179.8</ele>
        <time>2018-08-19T09:52:26.000Z</time>
      </trkpt>
      <trkpt lat="45.30753" lon="4.47662">
        <ele>1179.7</ele>
        <time>2018-08-19T09:52:27.000Z</time>
      </trkpt>
      <trkpt lat="45.30752" lon="4.47662">
        <ele>1179.5</ele>
        <time>2018-08-19T09:52:28.000Z</time>
      </trkpt>
      <trkpt lat="45.30751" lon="4.47662">
        <ele>1179.4</ele>
        <time>2018-08-19T09:52:29.000Z</time>
      </trkpt>
      <trkpt lat="45.3075" lon="4.47661">
        <ele>1179.3</ele>
        <time>2018-08-19T09:52:30.000Z</time>
      </trkpt>
      <trkpt lat="45.30749" lon="4.47661">
        <ele>1179.2</ele>
        <time>2018-08-19T09:52:31.000Z</time>
      </trkpt>
      <trkpt lat="45.30748" lon="4.47661">
        <ele>1179.2</ele>
        <time>2018-08-19T09:52:32.000Z</time>
      </trkpt>
      <trkpt lat="45.30747" lon="4.47661">
        <ele>1179.1</ele>
        <time>2018-08-19T09:52:33.000Z</time>
      </trkpt>
      <trkpt lat="45.30747" lon="4.47661">
        <ele>1179.1</ele>
        <time>2018-08-19T09:52:34.000Z</time>
      </trkpt>
      <trkpt lat="45.30746" lon="4.47661">
        <ele>1179.1</ele>
        <time>2018-08-19T09:52:35.000Z</time>
      </trkpt>
      <trkpt lat="45.30746" lon="4.47661">
        <ele>1179.1</ele>
        <time>2018-08-19T09:52:36.000Z</time>
      </trkpt>
      <trkpt lat="45.30746" lon="4.47661">
        <ele>1179</ele>
        <time>2018-08-19T09:52:37.000Z</time>
      </trkpt>
      <trkpt lat="45.30746" lon="4.47661">
        <ele>1179</ele>
        <time>2018-08-19T09:52:38.000Z</time>
      </trkpt>
      <trkpt lat="45.30746" lon="4.47661">
        <ele>1179</ele>
        <time>2018-08-19T09:52:39.000Z</time>
      </trkpt>
      <trkpt lat="45.30745" lon="4.47661">
        <ele>1179</ele>
        <time>2018-08-19T09:52:40.000Z</time>
      </trkpt>
      <trkpt lat="45.30745" lon="4.47661">
        <ele>1179</ele>
        <time>2018-08-19T09:52:41.000Z</time>
      </trkpt>
      <trkpt lat="45.30744" lon="4.4766">
        <ele>1179</ele>
        <time>2018-08-19T09:52:42.000Z</time>
      </trkpt>
      <trkpt lat="45.30743" lon="4.47659">
        <ele>1179</ele>
        <time>2018-08-19T09:52:43.000Z</time>
      </trkpt>
      <trkpt lat="45.30742" lon="4.47658">
        <ele>1179</ele>
        <time>2018-08-19T09:52:44.000Z</time>
      </trkpt>
      <trkpt lat="45.30742" lon="4.47657">
        <ele>1179</ele>
        <time>2018-08-19T09:52:45.000Z</time>
      </trkpt>
      <trkpt lat="45.30741" lon="4.47656">
        <ele>1179</ele>
        <time>2018-08-19T09:52:46.000Z</time>
      </trkpt>
      <trkpt lat="45.30741" lon="4.47655">
        <ele>1179</ele>
        <time>2018-08-19T09:52:47.000Z</time>
      </trkpt>
      <trkpt lat="45.3074" lon="4.47653">
        <ele>1179.1</ele>
        <time>2018-08-19T09:52:48.000Z</time>
      </trkpt>
      <trkpt lat="45.3074" lon="4.47652">
        <ele>1179.1</ele>
        <time>2018-08-19T09:52:49.000Z</time>
      </trkpt>
      <trkpt lat="45.30739" lon="4.47651">
        <ele>1179.1</ele>
        <time>2018-08-19T09:52:50.000Z</time>
      </trkpt>
      <trkpt lat="45.30739" lon="4.47649">
        <ele>1179.2</ele>
        <time>2018-08-19T09:52:51.000Z</time>
      </trkpt>
      <trkpt lat="45.30738" lon="4.47648">
        <ele>1179.2</ele>
        <time>2018-08-19T09:52:52.000Z</time>
      </trkpt>
      <trkpt lat="45.30738" lon="4.47646">
        <ele>1179.2</ele>
        <time>2018-08-19T09:52:53.000Z</time>
      </trkpt>
      <trkpt lat="45.30738" lon="4.47645">
        <ele>1179.3</ele>
        <time>2018-08-19T09:52:54.000Z</time>
      </trkpt>
      <trkpt lat="45.30737" lon="4.47643">
        <ele>1179.3</ele>
        <time>2018-08-19T09:52:55.000Z</time>
      </trkpt>
      <trkpt lat="45.30737" lon="4.47642">
        <ele>1179.3</ele>
        <time>2018-08-19T09:52:56.000Z</time>
      </trkpt>
      <trkpt lat="45.30736" lon="4.4764">
        <ele>1179.3</ele>
        <time>2018-08-19T09:52:57.000Z</time>
      </trkpt>
      <trkpt lat="45.30736" lon="4.47639">
        <ele>1179.4</ele>
        <time>2018-08-19T09:52:58.000Z</time>
      </trkpt>
      <trkpt lat="45.30735" lon="4.47637">
        <ele>1179.4</ele>
        <time>2018-08-19T09:52:59.000Z</time>
      </trkpt>
      <trkpt lat="45.30735" lon="4.47636">
        <ele>1179.4</ele>
        <time>2018-08-19T09:53:00.000Z</time>
      </trkpt>
      <trkpt lat="45.30734" lon="4.47635">
        <ele>1179.4</ele>
        <time>2018-08-19T09:53:01.000Z</time>
      </trkpt>
      <trkpt lat="45.30734" lon="4.47633">
        <ele>1179.4</ele>
        <time>2018-08-19T09:53:02.000Z</time>
      </trkpt>
      <trkpt lat="45.30733" lon="4.47632">
        <ele>1179.4</ele>
        <time>2018-08-19T09:53:03.000Z</time>
      </trkpt>
      <trkpt lat="45.30732" lon="4.47631">
        <ele>1179.4</ele>
        <time>2018-08-19T09:53:04.000Z</time>
      </trkpt>
      <trkpt lat="45.30731" lon="4.47629">
        <ele>1179.4</ele>
        <time>2018-08-19T09:53:05.000Z</time>
      </trkpt>
      <trkpt lat="45.30731" lon="4.47628">
        <ele>1179.4</ele>
        <time>2018-08-19T09:53:06.000Z</time>
      </trkpt>
      <trkpt lat="45.3073" lon="4.47627">
        <ele>1179.3</ele>
        <time>2018-08-19T09:53:07.000Z</time>
      </trkpt>
      <trkpt lat="45.30729" lon="4.47626">
        <ele>1179.3</ele>
        <time>2018-08-19T09:53:08.000Z</time>
      </trkpt>
      <trkpt lat="45.30728" lon="4.47626">
        <ele>1179.2</ele>
        <time>2018-08-19T09:53:09.000Z</time>
      </trkpt>
      <trkpt lat="45.30727" lon="4.47625">
        <ele>1179.2</ele>
        <time>2018-08-19T09:53:10.000Z</time>
      </trkpt>
      <trkpt lat="45.30726" lon="4.47625">
        <ele>1179.1</ele>
        <time>2018-08-19T09:53:11.000Z</time>
      </trkpt>
      <trkpt lat="45.30724" lon="4.47624">
        <ele>1179</ele>
        <time>2018-08-19T09:53:12.000Z</time>
      </trkpt>
      <trkpt lat="45.30723" lon="4.47624">
        <ele>1178.9</ele>
        <time>2018-08-19T09:53:13.000Z</time>
      </trkpt>
      <trkpt lat="45.30722" lon="4.47624">
        <ele>1178.9</ele>
        <time>2018-08-19T09:53:14.000Z</time>
      </trkpt>
      <trkpt lat="45.30721" lon="4.47625">
        <ele>1178.7</ele>
        <time>2018-08-19T09:53:15.000Z</time>
      </trkpt>
      <trkpt lat="45.3072" lon="4.47625">
        <ele>1178.7</ele>
        <time>2018-08-19T09:53:16.000Z</time>
      </trkpt>
      <trkpt lat="45.30719" lon="4.47626">
        <ele>1178.5</ele>
        <time>2018-08-19T09:53:17.000Z</time>
      </trkpt>
      <trkpt lat="45.30718" lon="4.47627">
        <ele>1178.4</ele>
        <time>2018-08-19T09:53:18.000Z</time>
      </trkpt>
      <trkpt lat="45.30717" lon="4.47628">
        <ele>1178.3</ele>
        <time>2018-08-19T09:53:19.000Z</time>
      </trkpt>
      <trkpt lat="45.30716" lon="4.47629">
        <ele>1178.2</ele>
        <time>2018-08-19T09:53:20.000Z</time>
      </trkpt>
      <trkpt lat="45.30715" lon="4.47631">
        <ele>1178.1</ele>
        <time>2018-08-19T09:53:21.000Z</time>
      </trkpt>
      <trkpt lat="45.30714" lon="4.47632">
        <ele>1178</ele>
        <time>2018-08-19T09:53:22.000Z</time>
      </trkpt>
      <trkpt lat="45.30713" lon="4.47633">
        <ele>1177.9</ele>
        <time>2018-08-19T09:53:23.000Z</time>
      </trkpt>
      <trkpt lat="45.30712" lon="4.47633">
        <ele>1177.8</ele>
        <time>2018-08-19T09:53:24.000Z</time>
      </trkpt>
      <trkpt lat="45.30711" lon="4.47634">
        <ele>1177.8</ele>
        <time>2018-08-19T09:53:25.000Z</time>
      </trkpt>
      <trkpt lat="45.3071" lon="4.47635">
        <ele>1177.7</ele>
        <time>2018-08-19T09:53:26.000Z</time>
      </trkpt>
      <trkpt lat="45.30708" lon="4.47635">
        <ele>1177.6</ele>
        <time>2018-08-19T09:53:27.000Z</time>
      </trkpt>
      <trkpt lat="45.30707" lon="4.47636">
        <ele>1177.5</ele>
        <time>2018-08-19T09:53:28.000Z</time>
      </trkpt>
      <trkpt lat="45.30706" lon="4.47636">
        <ele>1177.4</ele>
        <time>2018-08-19T09:53:29.000Z</time>
      </trkpt>
      <trkpt lat="45.30705" lon="4.47637">
        <ele>1177.3</ele>
        <time>2018-08-19T09:53:30.000Z</time>
      </trkpt>
      <trkpt lat="45.30704" lon="4.47637">
        <ele>1177.2</ele>
        <time>2018-08-19T09:53:31.000Z</time>
      </trkpt>
      <trkpt lat="45.30703" lon="4.47638">
        <ele>1177.1</ele>
        <time>2018-08-19T09:53:32.000Z</time>
      </trkpt>
      <trkpt lat="45.30701" lon="4.47639">
        <ele>1177</ele>
        <time>2018-08-19T09:53:33.000Z</time>
      </trkpt>
      <trkpt lat="45.307" lon="4.47639">
        <ele>1176.9</ele>
        <time>2018-08-19T09:53:34.000Z</time>
      </trkpt>
      <trkpt lat="45.30699" lon="4.4764">
        <ele>1176.8</ele>
        <time>2018-08-19T09:53:35.000Z</time>
      </trkpt>
      <trkpt lat="45.30697" lon="4.4764">
        <ele>1176.7</ele>
        <time>2018-08-19T09:53:36.000Z</time>
      </trkpt>
      <trkpt lat="45.30696" lon="4.47641">
        <ele>1176.6</ele>
        <time>2018-08-19T09:53:37.000Z</time>
      </trkpt>
      <trkpt lat="45.30695" lon="4.47641">
        <ele>1176.5</ele>
        <time>2018-08-19T09:53:38.000Z</time>
      </trkpt>
      <trkpt lat="45.30693" lon="4.47642">
        <ele>1176.5</ele>
        <time>2018-08-19T09:53:39.000Z</time>
      </trkpt>
      <trkpt lat="45.30692" lon="4.47642">
        <ele>1176.4</ele>
        <time>2018-08-19T09:53:40.000Z</time>
      </trkpt>
      <trkpt lat="45.30691" lon="4.47642">
        <ele>1176.3</ele>
        <time>2018-08-19T09:53:41.000Z</time>
      </trkpt>
      <trkpt lat="45.3069" lon="4.47643">
        <ele>1176.2</ele>
        <time>2018-08-19T09:53:42.000Z</time>
      </trkpt>
      <trkpt lat="45.3069" lon="4.47643">
        <ele>1176.2</ele>
        <time>2018-08-19T09:53:43.000Z</time>
      </trkpt>
      <trkpt lat="45.30689" lon="4.47643">
        <ele>1176.2</ele>
        <time>2018-08-19T09:53:44.000Z</time>
      </trkpt>
      <trkpt lat="45.30689" lon="4.47643">
        <ele>1176.2</ele>
        <time>2018-08-19T09:53:45.000Z</time>
      </trkpt>
      <trkpt lat="45.30689" lon="4.47643">
        <ele>1176.2</ele>
        <time>2018-08-19T09:53:46.000Z</time>
      </trkpt>
      <trkpt lat="45.30689" lon="4.47643">
        <ele>1176.1</ele>
        <time>2018-08-19T09:53:47.000Z</time>
      </trkpt>
      <trkpt lat="45.30689" lon="4.47643">
        <ele>1176.1</ele>
        <time>2018-08-19T09:53:48.000Z</time>
      </trkpt>
      <trkpt lat="45.30689" lon="4.47643">
        <ele>1176.1</ele>
        <time>2018-08-19T09:53:49.000Z</time>
      </trkpt>
      <trkpt lat="45.30689" lon="4.47643">
        <ele>1176.1</ele>
        <time>2018-08-19T09:53:50.000Z</time>
      </trkpt>
      <trkpt lat="45.30689" lon="4.47643">
        <ele>1176.1</ele>
        <time>2018-08-19T09:53:51.000Z</time>
      </trkpt>
      <trkpt lat="45.30689" lon="4.47643">
        <ele>1176.1</ele>
        <time>2018-08-19T09:53:52.000Z</time>
      </trkpt>
      <trkpt lat="45.30689" lon="4.47643">
        <ele>1176.2</ele>
        <time>2018-08-19T09:53:53.000Z</time>
      </trkpt>
      <trkpt lat="45.30689" lon="4.47643">
        <ele>1176.2</ele>
        <time>2018-08-19T09:53:54.000Z</time>
      </trkpt>
      <trkpt lat="45.30689" lon="4.47643">
        <ele>1176.2</ele>
        <time>2018-08-19T09:53:55.000Z</time>
      </trkpt>
      <trkpt lat="45.30689" lon="4.47643">
        <ele>1176.2</ele>
        <time>2018-08-19T09:53:56.000Z</time>
      </trkpt>
      <trkpt lat="45.30689" lon="4.47643">
        <ele>1176.2</ele>
        <time>2018-08-19T09:53:57.000Z</time>
      </trkpt>
      <trkpt lat="45.30689" lon="4.47643">
        <ele>1176.2</ele>
        <time>2018-08-19T09:53:58.000Z</time>
      </trkpt>
      <trkpt lat="45.30689" lon="4.47643">
        <ele>1176.2</ele>
        <time>2018-08-19T09:53:59.000Z</time>
      </trkpt>
      <trkpt lat="45.30689" lon="4.47643">
        <ele>1176.2</ele>
        <time>2018-08-19T09:54:00.000Z</time>
      </trkpt>
      <trkpt lat="45.30689" lon="4.47643">
        <ele>1176.2</ele>
        <time>2018-08-19T09:54:01.000Z</time>
      </trkpt>
      <trkpt lat="45.30689" lon="4.47643">
        <ele>1176.2</ele>
        <time>2018-08-19T09:54:02.000Z</time>
      </trkpt>
      <trkpt lat="45.30689" lon="4.47643">
        <ele>1176.2</ele>
        <time>2018-08-19T09:54:03.000Z</time>
      </trkpt>
      <trkpt lat="45.30689" lon="4.47643">
        <ele>1176.2</ele>
        <time>2018-08-19T09:54:04.000Z</time>
      </trkpt>
      <trkpt lat="45.30689" lon="4.47643">
        <ele>1176.2</ele>
        <time>2018-08-19T09:54:05.000Z</time>
      </trkpt>
      <trkpt lat="45.30689" lon="4.47643">
        <ele>1176.2</ele>
        <time>2018-08-19T09:54:06.000Z</time>
      </trkpt>
      <trkpt lat="45.30689" lon="4.47643">
        <ele>1176.2</ele>
        <time>2018-08-19T09:54:07.000Z</time>
      </trkpt>
      <trkpt lat="45.30689" lon="4.47643">
        <ele>1176.2</ele>
        <time>2018-08-19T09:54:08.000Z</time>
      </trkpt>
      <trkpt lat="45.30689" lon="4.47643">
        <ele>1176.2</ele>
        <time>2018-08-19T09:54:09.000Z</time>
      </trkpt>
      <trkpt lat="45.30689" lon="4.47643">
        <ele>1176.2</ele>
        <time>2018-08-19T09:54:10.000Z</time>
      </trkpt>
      <trkpt lat="45.30689" lon="4.47643">
        <ele>1176.2</ele>
        <time>2018-08-19T09:54:11.000Z</time>
      </trkpt>
      <trkpt lat="45.30689" lon="4.47643">
        <ele>1176.2</ele>
        <time>2018-08-19T09:54:12.000Z</time>
      </trkpt>
      <trkpt lat="45.30689" lon="4.47643">
        <ele>1176.2</ele>
        <time>2018-08-19T09:54:13.000Z</time>
      </trkpt>
      <trkpt lat="45.30689" lon="4.47643">
        <ele>1176.2</ele>
        <time>2018-08-19T09:54:14.000Z</time>
      </trkpt>
      <trkpt lat="45.30689" lon="4.47643">
        <ele>1176.2</ele>
        <time>2018-08-19T09:54:15.000Z</time>
      </trkpt>
      <trkpt lat="45.30689" lon="4.47643">
        <ele>1176.1</ele>
        <time>2018-08-19T09:54:16.000Z</time>
      </trkpt>
      <trkpt lat="45.30689" lon="4.47643">
        <ele>1176.1</ele>
        <time>2018-08-19T09:54:17.000Z</time>
      </trkpt>
      <trkpt lat="45.30689" lon="4.47643">
        <ele>1176.1</ele>
        <time>2018-08-19T09:54:18.000Z</time>
      </trkpt>
      <trkpt lat="45.30689" lon="4.47643">
        <ele>1176.1</ele>
        <time>2018-08-19T09:54:19.000Z</time>
      </trkpt>
      <trkpt lat="45.30689" lon="4.47643">
        <ele>1176.1</ele>
        <time>2018-08-19T09:54:20.000Z</time>
      </trkpt>
      <trkpt lat="45.30689" lon="4.47643">
        <ele>1176.1</ele>
        <time>2018-08-19T09:54:21.000Z</time>
      </trkpt>
      <trkpt lat="45.30689" lon="4.47644">
        <ele>1176.1</ele>
        <time>2018-08-19T09:54:22.000Z</time>
      </trkpt>
      <trkpt lat="45.30689" lon="4.47644">
        <ele>1176.1</ele>
        <time>2018-08-19T09:54:23.000Z</time>
      </trkpt>
      <trkpt lat="45.30689" lon="4.47643">
        <ele>1176.1</ele>
        <time>2018-08-19T09:54:24.000Z</time>
      </trkpt>
      <trkpt lat="45.30689" lon="4.47643">
        <ele>1176.1</ele>
        <time>2018-08-19T09:54:25.000Z</time>
      </trkpt>
      <trkpt lat="45.30689" lon="4.47643">
        <ele>1176.2</ele>
        <time>2018-08-19T09:54:26.000Z</time>
      </trkpt>
      <trkpt lat="45.30689" lon="4.47643">
        <ele>1176.2</ele>
        <time>2018-08-19T09:54:27.000Z</time>
      </trkpt>
      <trkpt lat="45.30689" lon="4.47643">
        <ele>1176.2</ele>
        <time>2018-08-19T09:54:28.000Z</time>
      </trkpt>
      <trkpt lat="45.30689" lon="4.47643">
        <ele>1176.2</ele>
        <time>2018-08-19T09:54:29.000Z</time>
      </trkpt>
      <trkpt lat="45.30689" lon="4.47643">
        <ele>1176.2</ele>
        <time>2018-08-19T09:54:30.000Z</time>
      </trkpt>
      <trkpt lat="45.30689" lon="4.47643">
        <ele>1176.2</ele>
        <time>2018-08-19T09:54:31.000Z</time>
      </trkpt>
      <trkpt lat="45.30689" lon="4.47643">
        <ele>1176.2</ele>
        <time>2018-08-19T09:54:32.000Z</time>
      </trkpt>
      <trkpt lat="45.30689" lon="4.47643">
        <ele>1176.1</ele>
        <time>2018-08-19T09:54:33.000Z</time>
      </trkpt>
      <trkpt lat="45.30689" lon="4.47644">
        <ele>1176.1</ele>
        <time>2018-08-19T09:54:34.000Z</time>
      </trkpt>
      <trkpt lat="45.30688" lon="4.47644">
        <ele>1176.1</ele>
        <time>2018-08-19T09:54:35.000Z</time>
      </trkpt>
      <trkpt lat="45.30688" lon="4.47644">
        <ele>1176.1</ele>
        <time>2018-08-19T09:54:36.000Z</time>
      </trkpt>
      <trkpt lat="45.30688" lon="4.47645">
        <ele>1176.1</ele>
        <time>2018-08-19T09:54:37.000Z</time>
      </trkpt>
      <trkpt lat="45.30687" lon="4.47645">
        <ele>1176</ele>
        <time>2018-08-19T09:54:38.000Z</time>
      </trkpt>
      <trkpt lat="45.30686" lon="4.47646">
        <ele>1176</ele>
        <time>2018-08-19T09:54:39.000Z</time>
      </trkpt>
      <trkpt lat="45.30686" lon="4.47647">
        <ele>1175.9</ele>
        <time>2018-08-19T09:54:40.000Z</time>
      </trkpt>
      <trkpt lat="45.30685" lon="4.47648">
        <ele>1175.9</ele>
        <time>2018-08-19T09:54:41.000Z</time>
      </trkpt>
      <trkpt lat="45.30684" lon="4.47649">
        <ele>1175.8</ele>
        <time>2018-08-19T09:54:42.000Z</time>
      </trkpt>
      <trkpt lat="45.30683" lon="4.4765">
        <ele>1175.8</ele>
        <time>2018-08-19T09:54:43.000Z</time>
      </trkpt>
      <trkpt lat="45.30682" lon="4.47651">
        <ele>1175.7</ele>
        <time>2018-08-19T09:54:44.000Z</time>
      </trkpt>
      <trkpt lat="45.30682" lon="4.47652">
        <ele>1175.7</ele>
        <time>2018-08-19T09:54:45.000Z</time>
      </trkpt>
      <trkpt lat="45.30681" lon="4.47653">
        <ele>1175.7</ele>
        <time>2018-08-19T09:54:46.000Z</time>
      </trkpt>
      <trkpt lat="45.30681" lon="4.47654">
        <ele>1175.6</ele>
        <time>2018-08-19T09:54:47.000Z</time>
      </trkpt>
      <trkpt lat="45.3068" lon="4.47655">
        <ele>1175.6</ele>
        <time>2018-08-19T09:54:48.000Z</time>
      </trkpt>
      <trkpt lat="45.30679" lon="4.47657">
        <ele>1175.6</ele>
        <time>2018-08-19T09:54:49.000Z</time>
      </trkpt>
      <trkpt lat="45.30679" lon="4.47658">
        <ele>1175.6</ele>
        <time>2018-08-19T09:54:50.000Z</time>
      </trkpt>
      <trkpt lat="45.30678" lon="4.4766">
        <ele>1175.5</ele>
        <time>2018-08-19T09:54:51.000Z</time>
      </trkpt>
      <trkpt lat="45.30678" lon="4.47661">
        <ele>1175.5</ele>
        <time>2018-08-19T09:54:52.000Z</time>
      </trkpt>
      <trkpt lat="45.30677" lon="4.47662">
        <ele>1175.5</ele>
        <time>2018-08-19T09:54:53.000Z</time>
      </trkpt>
      <trkpt lat="45.30677" lon="4.47663">
        <ele>1175.5</ele>
        <time>2018-08-19T09:54:54.000Z</time>
      </trkpt>
      <trkpt lat="45.30677" lon="4.47663">
        <ele>1175.5</ele>
        <time>2018-08-19T09:54:55.000Z</time>
      </trkpt>
      <trkpt lat="45.30677" lon="4.47663">
        <ele>1175.5</ele>
        <time>2018-08-19T09:54:56.000Z</time>
      </trkpt>
      <trkpt lat="45.30677" lon="4.47664">
        <ele>1175.5</ele>
        <time>2018-08-19T09:54:57.000Z</time>
      </trkpt>
      <trkpt lat="45.30676" lon="4.47664">
        <ele>1175.5</ele>
        <time>2018-08-19T09:54:58.000Z</time>
      </trkpt>
      <trkpt lat="45.30676" lon="4.47665">
        <ele>1175.4</ele>
        <time>2018-08-19T09:54:59.000Z</time>
      </trkpt>
      <trkpt lat="45.30675" lon="4.47666">
        <ele>1175.4</ele>
        <time>2018-08-19T09:55:00.000Z</time>
      </trkpt>
      <trkpt lat="45.30674" lon="4.47668">
        <ele>1175.4</ele>
        <time>2018-08-19T09:55:01.000Z</time>
      </trkpt>
      <trkpt lat="45.30673" lon="4.47669">
        <ele>1175.3</ele>
        <time>2018-08-19T09:55:02.000Z</time>
      </trkpt>
      <trkpt lat="45.30672" lon="4.47671">
        <ele>1175.3</ele>
        <time>2018-08-19T09:55:03.000Z</time>
      </trkpt>
      <trkpt lat="45.30672" lon="4.47672">
        <ele>1175.2</ele>
        <time>2018-08-19T09:55:04.000Z</time>
      </trkpt>
      <trkpt lat="45.30671" lon="4.47674">
        <ele>1175.2</ele>
        <time>2018-08-19T09:55:05.000Z</time>
      </trkpt>
      <trkpt lat="45.3067" lon="4.47675">
        <ele>1175.1</ele>
        <time>2018-08-19T09:55:06.000Z</time>
      </trkpt>
      <trkpt lat="45.30669" lon="4.47677">
        <ele>1175.1</ele>
        <time>2018-08-19T09:55:07.000Z</time>
      </trkpt>
      <trkpt lat="45.30668" lon="4.47678">
        <ele>1175</ele>
        <time>2018-08-19T09:55:08.000Z</time>
      </trkpt>
      <trkpt lat="45.30667" lon="4.47679">
        <ele>1175</ele>
        <time>2018-08-19T09:55:09.000Z</time>
      </trkpt>
      <trkpt lat="45.30666" lon="4.4768">
        <ele>1175</ele>
        <time>2018-08-19T09:55:10.000Z</time>
      </trkpt>
      <trkpt lat="45.30665" lon="4.47682">
        <ele>1175</ele>
        <time>2018-08-19T09:55:11.000Z</time>
      </trkpt>
      <trkpt lat="45.30664" lon="4.47683">
        <ele>1174.9</ele>
        <time>2018-08-19T09:55:12.000Z</time>
      </trkpt>
      <trkpt lat="45.30662" lon="4.47684">
        <ele>1174.9</ele>
        <time>2018-08-19T09:55:13.000Z</time>
      </trkpt>
      <trkpt lat="45.30661" lon="4.47685">
        <ele>1174.9</ele>
        <time>2018-08-19T09:55:14.000Z</time>
      </trkpt>
      <trkpt lat="45.3066" lon="4.47686">
        <ele>1174.9</ele>
        <time>2018-08-19T09:55:15.000Z</time>
      </trkpt>
      <trkpt lat="45.30659" lon="4.47687">
        <ele>1174.8</ele>
        <time>2018-08-19T09:55:16.000Z</time>
      </trkpt>
      <trkpt lat="45.30658" lon="4.47688">
        <ele>1174.8</ele>
        <time>2018-08-19T09:55:17.000Z</time>
      </trkpt>
      <trkpt lat="45.30657" lon="4.47689">
        <ele>1174.8</ele>
        <time>2018-08-19T09:55:18.000Z</time>
      </trkpt>
      <trkpt lat="45.30655" lon="4.47689">
        <ele>1174.8</ele>
        <time>2018-08-19T09:55:19.000Z</time>
      </trkpt>
      <trkpt lat="45.30654" lon="4.4769">
        <ele>1174.7</ele>
        <time>2018-08-19T09:55:20.000Z</time>
      </trkpt>
      <trkpt lat="45.30653" lon="4.47691">
        <ele>1174.7</ele>
        <time>2018-08-19T09:55:21.000Z</time>
      </trkpt>
      <trkpt lat="45.30652" lon="4.47692">
        <ele>1174.7</ele>
        <time>2018-08-19T09:55:22.000Z</time>
      </trkpt>
      <trkpt lat="45.30651" lon="4.47693">
        <ele>1174.6</ele>
        <time>2018-08-19T09:55:23.000Z</time>
      </trkpt>
      <trkpt lat="45.30649" lon="4.47694">
        <ele>1174.6</ele>
        <time>2018-08-19T09:55:24.000Z</time>
      </trkpt>
      <trkpt lat="45.30648" lon="4.47694">
        <ele>1174.6</ele>
        <time>2018-08-19T09:55:25.000Z</time>
      </trkpt>
      <trkpt lat="45.30647" lon="4.47695">
        <ele>1174.5</ele>
        <time>2018-08-19T09:55:26.000Z</time>
      </trkpt>
      <trkpt lat="45.30646" lon="4.47696">
        <ele>1174.5</ele>
        <time>2018-08-19T09:55:27.000Z</time>
      </trkpt>
      <trkpt lat="45.30644" lon="4.47697">
        <ele>1174.4</ele>
        <time>2018-08-19T09:55:28.000Z</time>
      </trkpt>
      <trkpt lat="45.30643" lon="4.47697">
        <ele>1174.4</ele>
        <time>2018-08-19T09:55:29.000Z</time>
      </trkpt>
      <trkpt lat="45.30642" lon="4.47698">
        <ele>1174.4</ele>
        <time>2018-08-19T09:55:30.000Z</time>
      </trkpt>
      <trkpt lat="45.30641" lon="4.47699">
        <ele>1174.3</ele>
        <time>2018-08-19T09:55:31.000Z</time>
      </trkpt>
      <trkpt lat="45.30639" lon="4.477">
        <ele>1174.3</ele>
        <time>2018-08-19T09:55:32.000Z</time>
      </trkpt>
      <trkpt lat="45.30638" lon="4.477">
        <ele>1174.2</ele>
        <time>2018-08-19T09:55:33.000Z</time>
      </trkpt>
      <trkpt lat="45.30637" lon="4.47701">
        <ele>1174.2</ele>
        <time>2018-08-19T09:55:34.000Z</time>
      </trkpt>
      <trkpt lat="45.30635" lon="4.47702">
        <ele>1174.1</ele>
        <time>2018-08-19T09:55:35.000Z</time>
      </trkpt>
      <trkpt lat="45.30634" lon="4.47703">
        <ele>1174.1</ele>
        <time>2018-08-19T09:55:36.000Z</time>
      </trkpt>
      <trkpt lat="45.30633" lon="4.47704">
        <ele>1174.1</ele>
        <time>2018-08-19T09:55:37.000Z</time>
      </trkpt>
      <trkpt lat="45.30632" lon="4.47705">
        <ele>1174</ele>
        <time>2018-08-19T09:55:38.000Z</time>
      </trkpt>
      <trkpt lat="45.3063" lon="4.47705">
        <ele>1174</ele>
        <time>2018-08-19T09:55:39.000Z</time>
      </trkpt>
      <trkpt lat="45.30629" lon="4.47706">
        <ele>1173.9</ele>
        <time>2018-08-19T09:55:40.000Z</time>
      </trkpt>
      <trkpt lat="45.30628" lon="4.47707">
        <ele>1173.9</ele>
        <time>2018-08-19T09:55:41.000Z</time>
      </trkpt>
      <trkpt lat="45.30627" lon="4.47708">
        <ele>1173.8</ele>
        <time>2018-08-19T09:55:42.000Z</time>
      </trkpt>
      <trkpt lat="45.30625" lon="4.47709">
        <ele>1173.7</ele>
        <time>2018-08-19T09:55:43.000Z</time>
      </trkpt>
      <trkpt lat="45.30624" lon="4.4771">
        <ele>1173.7</ele>
        <time>2018-08-19T09:55:44.000Z</time>
      </trkpt>
      <trkpt lat="45.30623" lon="4.47711">
        <ele>1173.6</ele>
        <time>2018-08-19T09:55:45.000Z</time>
      </trkpt>
      <trkpt lat="45.30622" lon="4.47712">
        <ele>1173.6</ele>
        <time>2018-08-19T09:55:46.000Z</time>
      </trkpt>
      <trkpt lat="45.3062" lon="4.47713">
        <ele>1173.5</ele>
        <time>2018-08-19T09:55:47.000Z</time>
      </trkpt>
      <trkpt lat="45.30619" lon="4.47713">
        <ele>1173.5</ele>
        <time>2018-08-19T09:55:48.000Z</time>
      </trkpt>
      <trkpt lat="45.30618" lon="4.47714">
        <ele>1173.4</ele>
        <time>2018-08-19T09:55:49.000Z</time>
      </trkpt>
      <trkpt lat="45.30617" lon="4.47715">
        <ele>1173.3</ele>
        <time>2018-08-19T09:55:50.000Z</time>
      </trkpt>
      <trkpt lat="45.30615" lon="4.47716">
        <ele>1173.3</ele>
        <time>2018-08-19T09:55:51.000Z</time>
      </trkpt>
      <trkpt lat="45.30614" lon="4.47717">
        <ele>1173.2</ele>
        <time>2018-08-19T09:55:52.000Z</time>
      </trkpt>
      <trkpt lat="45.30613" lon="4.47718">
        <ele>1173.2</ele>
        <time>2018-08-19T09:55:53.000Z</time>
      </trkpt>
      <trkpt lat="45.30612" lon="4.47719">
        <ele>1173.1</ele>
        <time>2018-08-19T09:55:54.000Z</time>
      </trkpt>
      <trkpt lat="45.3061" lon="4.4772">
        <ele>1173</ele>
        <time>2018-08-19T09:55:55.000Z</time>
      </trkpt>
      <trkpt lat="45.30609" lon="4.47721">
        <ele>1173</ele>
        <time>2018-08-19T09:55:56.000Z</time>
      </trkpt>
      <trkpt lat="45.30608" lon="4.47722">
        <ele>1172.9</ele>
        <time>2018-08-19T09:55:57.000Z</time>
      </trkpt>
      <trkpt lat="45.30607" lon="4.47723">
        <ele>1172.8</ele>
        <time>2018-08-19T09:55:58.000Z</time>
      </trkpt>
      <trkpt lat="45.30605" lon="4.47723">
        <ele>1172.8</ele>
        <time>2018-08-19T09:55:59.000Z</time>
      </trkpt>
      <trkpt lat="45.30604" lon="4.47724">
        <ele>1172.7</ele>
        <time>2018-08-19T09:56:00.000Z</time>
      </trkpt>
      <trkpt lat="45.30603" lon="4.47725">
        <ele>1172.6</ele>
        <time>2018-08-19T09:56:01.000Z</time>
      </trkpt>
      <trkpt lat="45.30602" lon="4.47726">
        <ele>1172.5</ele>
        <time>2018-08-19T09:56:02.000Z</time>
      </trkpt>
      <trkpt lat="45.306" lon="4.47727">
        <ele>1172.5</ele>
        <time>2018-08-19T09:56:03.000Z</time>
      </trkpt>
      <trkpt lat="45.30599" lon="4.47728">
        <ele>1172.4</ele>
        <time>2018-08-19T09:56:04.000Z</time>
      </trkpt>
      <trkpt lat="45.30598" lon="4.47729">
        <ele>1172.3</ele>
        <time>2018-08-19T09:56:05.000Z</time>
      </trkpt>
      <trkpt lat="45.30597" lon="4.4773">
        <ele>1172.3</ele>
        <time>2018-08-19T09:56:06.000Z</time>
      </trkpt>
      <trkpt lat="45.30595" lon="4.47731">
        <ele>1172.2</ele>
        <time>2018-08-19T09:56:07.000Z</time>
      </trkpt>
      <trkpt lat="45.30594" lon="4.47731">
        <ele>1172.1</ele>
        <time>2018-08-19T09:56:08.000Z</time>
      </trkpt>
      <trkpt lat="45.30593" lon="4.47732">
        <ele>1172</ele>
        <time>2018-08-19T09:56:09.000Z</time>
      </trkpt>
      <trkpt lat="45.30592" lon="4.47733">
        <ele>1171.9</ele>
        <time>2018-08-19T09:56:10.000Z</time>
      </trkpt>
      <trkpt lat="45.3059" lon="4.47734">
        <ele>1171.9</ele>
        <time>2018-08-19T09:56:11.000Z</time>
      </trkpt>
      <trkpt lat="45.30589" lon="4.47735">
        <ele>1171.8</ele>
        <time>2018-08-19T09:56:12.000Z</time>
      </trkpt>
      <trkpt lat="45.30588" lon="4.47736">
        <ele>1171.7</ele>
        <time>2018-08-19T09:56:13.000Z</time>
      </trkpt>
      <trkpt lat="45.30587" lon="4.47737">
        <ele>1171.6</ele>
        <time>2018-08-19T09:56:14.000Z</time>
      </trkpt>
      <trkpt lat="45.30586" lon="4.47737">
        <ele>1171.5</ele>
        <time>2018-08-19T09:56:15.000Z</time>
      </trkpt>
      <trkpt lat="45.30584" lon="4.47738">
        <ele>1171.5</ele>
        <time>2018-08-19T09:56:16.000Z</time>
      </trkpt>
      <trkpt lat="45.30583" lon="4.47739">
        <ele>1171.4</ele>
        <time>2018-08-19T09:56:17.000Z</time>
      </trkpt>
      <trkpt lat="45.30582" lon="4.4774">
        <ele>1171.3</ele>
        <time>2018-08-19T09:56:18.000Z</time>
      </trkpt>
      <trkpt lat="45.30581" lon="4.47741">
        <ele>1171.3</ele>
        <time>2018-08-19T09:56:19.000Z</time>
      </trkpt>
      <trkpt lat="45.30579" lon="4.47742">
        <ele>1171.3</ele>
        <time>2018-08-19T09:56:20.000Z</time>
      </trkpt>
      <trkpt lat="45.30578" lon="4.47743">
        <ele>1171.2</ele>
        <time>2018-08-19T09:56:21.000Z</time>
      </trkpt>
      <trkpt lat="45.30577" lon="4.47744">
        <ele>1171.2</ele>
        <time>2018-08-19T09:56:22.000Z</time>
      </trkpt>
      <trkpt lat="45.30576" lon="4.47745">
        <ele>1171.2</ele>
        <time>2018-08-19T09:56:23.000Z</time>
      </trkpt>
      <trkpt lat="45.30574" lon="4.47746">
        <ele>1171.1</ele>
        <time>2018-08-19T09:56:24.000Z</time>
      </trkpt>
      <trkpt lat="45.30573" lon="4.47747">
        <ele>1171.1</ele>
        <time>2018-08-19T09:56:25.000Z</time>
      </trkpt>
      <trkpt lat="45.30572" lon="4.47747">
        <ele>1171.1</ele>
        <time>2018-08-19T09:56:26.000Z</time>
      </trkpt>
      <trkpt lat="45.30571" lon="4.47748">
        <ele>1171</ele>
        <time>2018-08-19T09:56:27.000Z</time>
      </trkpt>
      <trkpt lat="45.30569" lon="4.47749">
        <ele>1171</ele>
        <time>2018-08-19T09:56:28.000Z</time>
      </trkpt>
      <trkpt lat="45.30568" lon="4.4775">
        <ele>1171</ele>
        <time>2018-08-19T09:56:29.000Z</time>
      </trkpt>
      <trkpt lat="45.30567" lon="4.47751">
        <ele>1171</ele>
        <time>2018-08-19T09:56:30.000Z</time>
      </trkpt>
      <trkpt lat="45.30566" lon="4.47752">
        <ele>1171</ele>
        <time>2018-08-19T09:56:31.000Z</time>
      </trkpt>
      <trkpt lat="45.30565" lon="4.47753">
        <ele>1171</ele>
        <time>2018-08-19T09:56:32.000Z</time>
      </trkpt>
      <trkpt lat="45.30565" lon="4.47753">
        <ele>1170.9</ele>
        <time>2018-08-19T09:56:33.000Z</time>
      </trkpt>
      <trkpt lat="45.30564" lon="4.47754">
        <ele>1170.9</ele>
        <time>2018-08-19T09:56:34.000Z</time>
      </trkpt>
      <trkpt lat="45.30564" lon="4.47754">
        <ele>1170.9</ele>
        <time>2018-08-19T09:56:35.000Z</time>
      </trkpt>
      <trkpt lat="45.30563" lon="4.47754">
        <ele>1170.9</ele>
        <time>2018-08-19T09:56:36.000Z</time>
      </trkpt>
      <trkpt lat="45.30563" lon="4.47754">
        <ele>1170.9</ele>
        <time>2018-08-19T09:56:37.000Z</time>
      </trkpt>
      <trkpt lat="45.30563" lon="4.47754">
        <ele>1170.9</ele>
        <time>2018-08-19T09:56:38.000Z</time>
      </trkpt>
      <trkpt lat="45.30563" lon="4.47754">
        <ele>1170.9</ele>
        <time>2018-08-19T09:56:39.000Z</time>
      </trkpt>
      <trkpt lat="45.30563" lon="4.47754">
        <ele>1170.9</ele>
        <time>2018-08-19T09:56:40.000Z</time>
      </trkpt>
      <trkpt lat="45.30563" lon="4.47754">
        <ele>1170.9</ele>
        <time>2018-08-19T09:56:41.000Z</time>
      </trkpt>
      <trkpt lat="45.30563" lon="4.47754">
        <ele>1170.9</ele>
        <time>2018-08-19T09:56:42.000Z</time>
      </trkpt>
      <trkpt lat="45.30563" lon="4.47754">
        <ele>1170.9</ele>
        <time>2018-08-19T09:56:43.000Z</time>
      </trkpt>
      <trkpt lat="45.30563" lon="4.47754">
        <ele>1170.9</ele>
        <time>2018-08-19T09:56:44.000Z</time>
      </trkpt>
      <trkpt lat="45.30563" lon="4.47754">
        <ele>1170.9</ele>
        <time>2018-08-19T09:56:45.000Z</time>
      </trkpt>
      <trkpt lat="45.30563" lon="4.47754">
        <ele>1170.9</ele>
        <time>2018-08-19T09:56:46.000Z</time>
      </trkpt>
      <trkpt lat="45.30563" lon="4.47754">
        <ele>1170.9</ele>
        <time>2018-08-19T09:56:47.000Z</time>
      </trkpt>
      <trkpt lat="45.30563" lon="4.47754">
        <ele>1170.9</ele>
        <time>2018-08-19T09:56:48.000Z</time>
      </trkpt>
      <trkpt lat="45.30563" lon="4.47755">
        <ele>1170.9</ele>
        <time>2018-08-19T09:56:49.000Z</time>
      </trkpt>
      <trkpt lat="45.30563" lon="4.47755">
        <ele>1170.9</ele>
        <time>2018-08-19T09:56:50.000Z</time>
      </trkpt>
      <trkpt lat="45.30563" lon="4.47755">
        <ele>1170.9</ele>
        <time>2018-08-19T09:56:51.000Z</time>
      </trkpt>
      <trkpt lat="45.30563" lon="4.47755">
        <ele>1170.9</ele>
        <time>2018-08-19T09:56:52.000Z</time>
      </trkpt>
      <trkpt lat="45.30563" lon="4.47755">
        <ele>1170.9</ele>
        <time>2018-08-19T09:56:53.000Z</time>
      </trkpt>
      <trkpt lat="45.30563" lon="4.47755">
        <ele>1170.9</ele>
        <time>2018-08-19T09:56:54.000Z</time>
      </trkpt>
      <trkpt lat="45.30563" lon="4.47755">
        <ele>1170.9</ele>
        <time>2018-08-19T09:56:55.000Z</time>
      </trkpt>
      <trkpt lat="45.30563" lon="4.47755">
        <ele>1170.9</ele>
        <time>2018-08-19T09:56:56.000Z</time>
      </trkpt>
      <trkpt lat="45.30562" lon="4.47754">
        <ele>1170.9</ele>
        <time>2018-08-19T09:56:57.000Z</time>
      </trkpt>
      <trkpt lat="45.30562" lon="4.47754">
        <ele>1170.9</ele>
        <time>2018-08-19T09:56:58.000Z</time>
      </trkpt>
      <trkpt lat="45.30562" lon="4.47753">
        <ele>1171</ele>
        <time>2018-08-19T09:56:59.000Z</time>
      </trkpt>
      <trkpt lat="45.30562" lon="4.47751">
        <ele>1171</ele>
        <time>2018-08-19T09:57:00.000Z</time>
      </trkpt>
      <trkpt lat="45.30562" lon="4.4775">
        <ele>1171</ele>
        <time>2018-08-19T09:57:01.000Z</time>
      </trkpt>
      <trkpt lat="45.30562" lon="4.47748">
        <ele>1171</ele>
        <time>2018-08-19T09:57:02.000Z</time>
      </trkpt>
      <trkpt lat="45.30562" lon="4.47747">
        <ele>1171.1</ele>
        <time>2018-08-19T09:57:03.000Z</time>
      </trkpt>
      <trkpt lat="45.30561" lon="4.47746">
        <ele>1171.1</ele>
        <time>2018-08-19T09:57:04.000Z</time>
      </trkpt>
      <trkpt lat="45.30561" lon="4.47745">
        <ele>1171.1</ele>
        <time>2018-08-19T09:57:05.000Z</time>
      </trkpt>
      <trkpt lat="45.30561" lon="4.47745">
        <ele>1171.1</ele>
        <time>2018-08-19T09:57:06.000Z</time>
      </trkpt>
      <trkpt lat="45.30561" lon="4.47744">
        <ele>1171.1</ele>
        <time>2018-08-19T09:57:07.000Z</time>
      </trkpt>
      <trkpt lat="45.30561" lon="4.47744">
        <ele>1171.1</ele>
        <time>2018-08-19T09:57:08.000Z</time>
      </trkpt>
      <trkpt lat="45.30561" lon="4.47744">
        <ele>1171.1</ele>
        <time>2018-08-19T09:57:09.000Z</time>
      </trkpt>
      <trkpt lat="45.30561" lon="4.47744">
        <ele>1171.1</ele>
        <time>2018-08-19T09:57:10.000Z</time>
      </trkpt>
      <trkpt lat="45.30561" lon="4.47744">
        <ele>1171.1</ele>
        <time>2018-08-19T09:57:11.000Z</time>
      </trkpt>
      <trkpt lat="45.30561" lon="4.47744">
        <ele>1171.1</ele>
        <time>2018-08-19T09:57:12.000Z</time>
      </trkpt>
      <trkpt lat="45.30561" lon="4.47744">
        <ele>1171.1</ele>
        <time>2018-08-19T09:57:13.000Z</time>
      </trkpt>
      <trkpt lat="45.30561" lon="4.47744">
        <ele>1171.1</ele>
        <time>2018-08-19T09:57:14.000Z</time>
      </trkpt>
      <trkpt lat="45.30561" lon="4.47744">
        <ele>1171.1</ele>
        <time>2018-08-19T09:57:15.000Z</time>
      </trkpt>
      <trkpt lat="45.30561" lon="4.47744">
        <ele>1171.1</ele>
        <time>2018-08-19T09:57:16.000Z</time>
      </trkpt>
      <trkpt lat="45.30561" lon="4.47744">
        <ele>1171.1</ele>
        <time>2018-08-19T09:57:17.000Z</time>
      </trkpt>
      <trkpt lat="45.30561" lon="4.47744">
        <ele>1171.1</ele>
        <time>2018-08-19T09:57:18.000Z</time>
      </trkpt>
      <trkpt lat="45.30561" lon="4.47744">
        <ele>1171.1</ele>
        <time>2018-08-19T09:57:19.000Z</time>
      </trkpt>
      <trkpt lat="45.30561" lon="4.47744">
        <ele>1171.1</ele>
        <time>2018-08-19T09:57:20.000Z</time>
      </trkpt>
      <trkpt lat="45.30561" lon="4.47744">
        <ele>1171.1</ele>
        <time>2018-08-19T09:57:21.000Z</time>
      </trkpt>
      <trkpt lat="45.30561" lon="4.47744">
        <ele>1171.1</ele>
        <time>2018-08-19T09:57:22.000Z</time>
      </trkpt>
      <trkpt lat="45.30561" lon="4.47744">
        <ele>1171.1</ele>
        <time>2018-08-19T09:57:23.000Z</time>
      </trkpt>
      <trkpt lat="45.30561" lon="4.47744">
        <ele>1171.1</ele>
        <time>2018-08-19T09:57:24.000Z</time>
      </trkpt>
      <trkpt lat="45.30561" lon="4.47744">
        <ele>1171.1</ele>
        <time>2018-08-19T09:57:25.000Z</time>
      </trkpt>
      <trkpt lat="45.30561" lon="4.47744">
        <ele>1171.1</ele>
        <time>2018-08-19T09:57:26.000Z</time>
      </trkpt>
      <trkpt lat="45.30561" lon="4.47744">
        <ele>1171.1</ele>
        <time>2018-08-19T09:57:27.000Z</time>
      </trkpt>
      <trkpt lat="45.30561" lon="4.47744">
        <ele>1171.1</ele>
        <time>2018-08-19T09:57:28.000Z</time>
      </trkpt>
      <trkpt lat="45.30561" lon="4.47744">
        <ele>1171.1</ele>
        <time>2018-08-19T09:57:29.000Z</time>
      </trkpt>
      <trkpt lat="45.30561" lon="4.47744">
        <ele>1171.1</ele>
        <time>2018-08-19T09:57:30.000Z</time>
      </trkpt>
      <trkpt lat="45.30561" lon="4.47744">
        <ele>1171.1</ele>
        <time>2018-08-19T09:57:31.000Z</time>
      </trkpt>
      <trkpt lat="45.30561" lon="4.47744">
        <ele>1171.1</ele>
        <time>2018-08-19T09:57:32.000Z</time>
      </trkpt>
      <trkpt lat="45.30561" lon="4.47744">
        <ele>1171.1</ele>
        <time>2018-08-19T09:57:33.000Z</time>
      </trkpt>
      <trkpt lat="45.30561" lon="4.47744">
        <ele>1171.1</ele>
        <time>2018-08-19T09:57:34.000Z</time>
      </trkpt>
      <trkpt lat="45.30561" lon="4.47744">
        <ele>1171.1</ele>
        <time>2018-08-19T09:57:35.000Z</time>
      </trkpt>
      <trkpt lat="45.30561" lon="4.47743">
        <ele>1171.2</ele>
        <time>2018-08-19T09:57:36.000Z</time>
      </trkpt>
      <trkpt lat="45.3056" lon="4.47742">
        <ele>1171.2</ele>
        <time>2018-08-19T09:57:37.000Z</time>
      </trkpt>
      <trkpt lat="45.3056" lon="4.47741">
        <ele>1171.2</ele>
        <time>2018-08-19T09:57:38.000Z</time>
      </trkpt>
      <trkpt lat="45.30559" lon="4.4774">
        <ele>1171.2</ele>
        <time>2018-08-19T09:57:39.000Z</time>
      </trkpt>
      <trkpt lat="45.30559" lon="4.47738">
        <ele>1171.3</ele>
        <time>2018-08-19T09:57:40.000Z</time>
      </trkpt>
      <trkpt lat="45.30558" lon="4.47737">
        <ele>1171.3</ele>
        <time>2018-08-19T09:57:41.000Z</time>
      </trkpt>
      <trkpt lat="45.30557" lon="4.47735">
        <ele>1171.3</ele>
        <time>2018-08-19T09:57:42.000Z</time>
      </trkpt>
      <trkpt lat="45.30557" lon="4.47734">
        <ele>1171.3</ele>
        <time>2018-08-19T09:57:43.000Z</time>
      </trkpt>
      <trkpt lat="45.30556" lon="4.47732">
        <ele>1171.4</ele>
        <time>2018-08-19T09:57:44.000Z</time>
      </trkpt>
      <trkpt lat="45.30556" lon="4.47731">
        <ele>1171.4</ele>
        <time>2018-08-19T09:57:45.000Z</time>
      </trkpt>
      <trkpt lat="45.30555" lon="4.47729">
        <ele>1171.4</ele>
        <time>2018-08-19T09:57:46.000Z</time>
      </trkpt>
      <trkpt lat="45.30555" lon="4.47728">
        <ele>1171.4</ele>
        <time>2018-08-19T09:57:47.000Z</time>
      </trkpt>
      <trkpt lat="45.30554" lon="4.47726">
        <ele>1171.5</ele>
        <time>2018-08-19T09:57:48.000Z</time>
      </trkpt>
      <trkpt lat="45.30554" lon="4.47724">
        <ele>1171.5</ele>
        <time>2018-08-19T09:57:49.000Z</time>
      </trkpt>
      <trkpt lat="45.30553" lon="4.47723">
        <ele>1171.5</ele>
        <time>2018-08-19T09:57:50.000Z</time>
      </trkpt>
      <trkpt lat="45.30552" lon="4.47721">
        <ele>1171.5</ele>
        <time>2018-08-19T09:57:51.000Z</time>
      </trkpt>
      <trkpt lat="45.30552" lon="4.4772">
        <ele>1171.5</ele>
        <time>2018-08-19T09:57:52.000Z</time>
      </trkpt>
      <trkpt lat="45.30551" lon="4.47718">
        <ele>1171.6</ele>
        <time>2018-08-19T09:57:53.000Z</time>
      </trkpt>
      <trkpt lat="45.3055" lon="4.47717">
        <ele>1171.6</ele>
        <time>2018-08-19T09:57:54.000Z</time>
      </trkpt>
      <trkpt lat="45.3055" lon="4.47715">
        <ele>1171.6</ele>
        <time>2018-08-19T09:57:55.000Z</time>
      </trkpt>
      <trkpt lat="45.30549" lon="4.47714">
        <ele>1171.6</ele>
        <time>2018-08-19T09:57:56.000Z</time>
      </trkpt>
      <trkpt lat="45.30549" lon="4.47712">
        <ele>1171.6</ele>
        <time>2018-08-19T09:57:57.000Z</time>
      </trkpt>
      <trkpt lat="45.30548" lon="4.4771">
        <ele>1171.6</ele>
        <time>2018-08-19T09:57:58.000Z</time>
      </trkpt>
      <trkpt lat="45.30547" lon="4.47709">
        <ele>1171.6</ele>
        <time>2018-08-19T09:57:59.000Z</time>
      </trkpt>
      <trkpt lat="45.30547" lon="4.47707">
        <ele>1171.6</ele>
        <time>2018-08-19T09:58:00.000Z</time>
      </trkpt>
      <trkpt lat="45.30546" lon="4.47706">
        <ele>1171.6</ele>
        <time>2018-08-19T09:58:01.000Z</time>
      </trkpt>
      <trkpt lat="45.30545" lon="4.47704">
        <ele>1171.6</ele>
        <time>2018-08-19T09:58:02.000Z</time>
      </trkpt>
      <trkpt lat="45.30545" lon="4.47703">
        <ele>1171.7</ele>
        <time>2018-08-19T09:58:03.000Z</time>
      </trkpt>
      <trkpt lat="45.30544" lon="4.47701">
        <ele>1171.7</ele>
        <time>2018-08-19T09:58:04.000Z</time>
      </trkpt>
      <trkpt lat="45.30544" lon="4.477">
        <ele>1171.7</ele>
        <time>2018-08-19T09:58:05.000Z</time>
      </trkpt>
      <trkpt lat="45.30543" lon="4.47698">
        <ele>1171.7</ele>
        <time>2018-08-19T09:58:06.000Z</time>
      </trkpt>
      <trkpt lat="45.30542" lon="4.47697">
        <ele>1171.7</ele>
        <time>2018-08-19T09:58:07.000Z</time>
      </trkpt>
      <trkpt lat="45.30542" lon="4.47695">
        <ele>1171.7</ele>
        <time>2018-08-19T09:58:08.000Z</time>
      </trkpt>
      <trkpt lat="45.30541" lon="4.47694">
        <ele>1171.6</ele>
        <time>2018-08-19T09:58:09.000Z</time>
      </trkpt>
      <trkpt lat="45.3054" lon="4.47692">
        <ele>1171.6</ele>
        <time>2018-08-19T09:58:10.000Z</time>
      </trkpt>
      <trkpt lat="45.30539" lon="4.4769">
        <ele>1171.6</ele>
        <time>2018-08-19T09:58:11.000Z</time>
      </trkpt>
      <trkpt lat="45.30539" lon="4.47689">
        <ele>1171.6</ele>
        <time>2018-08-19T09:58:12.000Z</time>
      </trkpt>
      <trkpt lat="45.30538" lon="4.47687">
        <ele>1171.6</ele>
        <time>2018-08-19T09:58:13.000Z</time>
      </trkpt>
      <trkpt lat="45.30537" lon="4.47686">
        <ele>1171.6</ele>
        <time>2018-08-19T09:58:14.000Z</time>
      </trkpt>
      <trkpt lat="45.30536" lon="4.47684">
        <ele>1171.6</ele>
        <time>2018-08-19T09:58:15.000Z</time>
      </trkpt>
      <trkpt lat="45.30535" lon="4.47683">
        <ele>1171.6</ele>
        <time>2018-08-19T09:58:16.000Z</time>
      </trkpt>
      <trkpt lat="45.30535" lon="4.47681">
        <ele>1171.5</ele>
        <time>2018-08-19T09:58:17.000Z</time>
      </trkpt>
      <trkpt lat="45.30534" lon="4.4768">
        <ele>1171.5</ele>
        <time>2018-08-19T09:58:18.000Z</time>
      </trkpt>
      <trkpt lat="45.30533" lon="4.47679">
        <ele>1171.5</ele>
        <time>2018-08-19T09:58:19.000Z</time>
      </trkpt>
      <trkpt lat="45.30533" lon="4.47677">
        <ele>1171.5</ele>
        <time>2018-08-19T09:58:20.000Z</time>
      </trkpt>
      <trkpt lat="45.30532" lon="4.47676">
        <ele>1171.5</ele>
        <time>2018-08-19T09:58:21.000Z</time>
      </trkpt>
      <trkpt lat="45.30532" lon="4.47674">
        <ele>1171.5</ele>
        <time>2018-08-19T09:58:22.000Z</time>
      </trkpt>
      <trkpt lat="45.30532" lon="4.47673">
        <ele>1171.5</ele>
        <time>2018-08-19T09:58:23.000Z</time>
      </trkpt>
      <trkpt lat="45.30531" lon="4.47671">
        <ele>1171.5</ele>
        <time>2018-08-19T09:58:24.000Z</time>
      </trkpt>
      <trkpt lat="45.3053" lon="4.47669">
        <ele>1171.4</ele>
        <time>2018-08-19T09:58:25.000Z</time>
      </trkpt>
      <trkpt lat="45.3053" lon="4.47668">
        <ele>1171.4</ele>
        <time>2018-08-19T09:58:26.000Z</time>
      </trkpt>
      <trkpt lat="45.30529" lon="4.47666">
        <ele>1171.3</ele>
        <time>2018-08-19T09:58:27.000Z</time>
      </trkpt>
      <trkpt lat="45.30528" lon="4.47664">
        <ele>1171.2</ele>
        <time>2018-08-19T09:58:28.000Z</time>
      </trkpt>
      <trkpt lat="45.30528" lon="4.47662">
        <ele>1171.1</ele>
        <time>2018-08-19T09:58:29.000Z</time>
      </trkpt>
      <trkpt lat="45.30527" lon="4.4766">
        <ele>1171</ele>
        <time>2018-08-19T09:58:30.000Z</time>
      </trkpt>
      <trkpt lat="45.30526" lon="4.47659">
        <ele>1171</ele>
        <time>2018-08-19T09:58:31.000Z</time>
      </trkpt>
      <trkpt lat="45.30526" lon="4.47658">
        <ele>1170.9</ele>
        <time>2018-08-19T09:58:32.000Z</time>
      </trkpt>
      <trkpt lat="45.30526" lon="4.47657">
        <ele>1170.9</ele>
        <time>2018-08-19T09:58:33.000Z</time>
      </trkpt>
      <trkpt lat="45.30526" lon="4.47656">
        <ele>1170.8</ele>
        <time>2018-08-19T09:58:34.000Z</time>
      </trkpt>
      <trkpt lat="45.30526" lon="4.47655">
        <ele>1170.8</ele>
        <time>2018-08-19T09:58:35.000Z</time>
      </trkpt>
      <trkpt lat="45.30525" lon="4.47654">
        <ele>1170.7</ele>
        <time>2018-08-19T09:58:36.000Z</time>
      </trkpt>
      <trkpt lat="45.30525" lon="4.47653">
        <ele>1170.7</ele>
        <time>2018-08-19T09:58:37.000Z</time>
      </trkpt>
      <trkpt lat="45.30525" lon="4.47652">
        <ele>1170.6</ele>
        <time>2018-08-19T09:58:38.000Z</time>
      </trkpt>
      <trkpt lat="45.30525" lon="4.47651">
        <ele>1170.6</ele>
        <time>2018-08-19T09:58:39.000Z</time>
      </trkpt>
      <trkpt lat="45.30525" lon="4.47651">
        <ele>1170.6</ele>
        <time>2018-08-19T09:58:40.000Z</time>
      </trkpt>
      <trkpt lat="45.30525" lon="4.47651">
        <ele>1170.6</ele>
        <time>2018-08-19T09:58:41.000Z</time>
      </trkpt>
      <trkpt lat="45.30525" lon="4.4765">
        <ele>1170.5</ele>
        <time>2018-08-19T09:58:42.000Z</time>
      </trkpt>
      <trkpt lat="45.30525" lon="4.47649">
        <ele>1170.5</ele>
        <time>2018-08-19T09:58:43.000Z</time>
      </trkpt>
      <trkpt lat="45.30525" lon="4.47648">
        <ele>1170.4</ele>
        <time>2018-08-19T09:58:44.000Z</time>
      </trkpt>
      <trkpt lat="45.30525" lon="4.47647">
        <ele>1170.4</ele>
        <time>2018-08-19T09:58:45.000Z</time>
      </trkpt>
      <trkpt lat="45.30525" lon="4.47645">
        <ele>1170.3</ele>
        <time>2018-08-19T09:58:46.000Z</time>
      </trkpt>
      <trkpt lat="45.30525" lon="4.47643">
        <ele>1170.3</ele>
        <time>2018-08-19T09:58:47.000Z</time>
      </trkpt>
      <trkpt lat="45.30525" lon="4.47641">
        <ele>1170.2</ele>
        <time>2018-08-19T09:58:48.000Z</time>
      </trkpt>
      <trkpt lat="45.30525" lon="4.47639">
        <ele>1170.1</ele>
        <time>2018-08-19T09:58:49.000Z</time>
      </trkpt>
      <trkpt lat="45.30526" lon="4.47637">
        <ele>1170</ele>
        <time>2018-08-19T09:58:50.000Z</time>
      </trkpt>
      <trkpt lat="45.30526" lon="4.47635">
        <ele>1170</ele>
        <time>2018-08-19T09:58:51.000Z</time>
      </trkpt>
      <trkpt lat="45.30526" lon="4.47633">
        <ele>1169.9</ele>
        <time>2018-08-19T09:58:52.000Z</time>
      </trkpt>
      <trkpt lat="45.30526" lon="4.47631">
        <ele>1169.8</ele>
        <time>2018-08-19T09:58:53.000Z</time>
      </trkpt>
      <trkpt lat="45.30526" lon="4.47629">
        <ele>1169.7</ele>
        <time>2018-08-19T09:58:54.000Z</time>
      </trkpt>
      <trkpt lat="45.30526" lon="4.47628">
        <ele>1169.7</ele>
        <time>2018-08-19T09:58:55.000Z</time>
      </trkpt>
      <trkpt lat="45.30526" lon="4.47626">
        <ele>1169.6</ele>
        <time>2018-08-19T09:58:56.000Z</time>
      </trkpt>
      <trkpt lat="45.30526" lon="4.47624">
        <ele>1169.5</ele>
        <time>2018-08-19T09:58:57.000Z</time>
      </trkpt>
      <trkpt lat="45.30526" lon="4.47622">
        <ele>1169.5</ele>
        <time>2018-08-19T09:58:58.000Z</time>
      </trkpt>
      <trkpt lat="45.30526" lon="4.4762">
        <ele>1169.4</ele>
        <time>2018-08-19T09:58:59.000Z</time>
      </trkpt>
      <trkpt lat="45.30526" lon="4.47618">
        <ele>1169.3</ele>
        <time>2018-08-19T09:59:00.000Z</time>
      </trkpt>
      <trkpt lat="45.30526" lon="4.47616">
        <ele>1169.2</ele>
        <time>2018-08-19T09:59:01.000Z</time>
      </trkpt>
      <trkpt lat="45.30526" lon="4.47614">
        <ele>1169.2</ele>
        <time>2018-08-19T09:59:02.000Z</time>
      </trkpt>
      <trkpt lat="45.30526" lon="4.47612">
        <ele>1169.1</ele>
        <time>2018-08-19T09:59:03.000Z</time>
      </trkpt>
      <trkpt lat="45.30526" lon="4.4761">
        <ele>1169</ele>
        <time>2018-08-19T09:59:04.000Z</time>
      </trkpt>
      <trkpt lat="45.30526" lon="4.47608">
        <ele>1168.9</ele>
        <time>2018-08-19T09:59:05.000Z</time>
      </trkpt>
      <trkpt lat="45.30526" lon="4.47607">
        <ele>1168.9</ele>
        <time>2018-08-19T09:59:06.000Z</time>
      </trkpt>
      <trkpt lat="45.30526" lon="4.47605">
        <ele>1168.8</ele>
        <time>2018-08-19T09:59:07.000Z</time>
      </trkpt>
      <trkpt lat="45.30525" lon="4.47603">
        <ele>1168.7</ele>
        <time>2018-08-19T09:59:08.000Z</time>
      </trkpt>
      <trkpt lat="45.30525" lon="4.47601">
        <ele>1168.6</ele>
        <time>2018-08-19T09:59:09.000Z</time>
      </trkpt>
      <trkpt lat="45.30524" lon="4.47599">
        <ele>1168.5</ele>
        <time>2018-08-19T09:59:10.000Z</time>
      </trkpt>
      <trkpt lat="45.30524" lon="4.47598">
        <ele>1168.4</ele>
        <time>2018-08-19T09:59:11.000Z</time>
      </trkpt>
      <trkpt lat="45.30523" lon="4.47596">
        <ele>1168.3</ele>
        <time>2018-08-19T09:59:12.000Z</time>
      </trkpt>
      <trkpt lat="45.30523" lon="4.47594">
        <ele>1168.2</ele>
        <time>2018-08-19T09:59:13.000Z</time>
      </trkpt>
      <trkpt lat="45.30522" lon="4.47593">
        <ele>1168.2</ele>
        <time>2018-08-19T09:59:14.000Z</time>
      </trkpt>
      <trkpt lat="45.30521" lon="4.47591">
        <ele>1168.1</ele>
        <time>2018-08-19T09:59:15.000Z</time>
      </trkpt>
      <trkpt lat="45.30521" lon="4.47589">
        <ele>1168</ele>
        <time>2018-08-19T09:59:16.000Z</time>
      </trkpt>
      <trkpt lat="45.3052" lon="4.47587">
        <ele>1167.9</ele>
        <time>2018-08-19T09:59:17.000Z</time>
      </trkpt>
      <trkpt lat="45.30519" lon="4.47586">
        <ele>1167.8</ele>
        <time>2018-08-19T09:59:18.000Z</time>
      </trkpt>
      <trkpt lat="45.30519" lon="4.47584">
        <ele>1167.7</ele>
        <time>2018-08-19T09:59:19.000Z</time>
      </trkpt>
      <trkpt lat="45.30518" lon="4.47582">
        <ele>1167.6</ele>
        <time>2018-08-19T09:59:20.000Z</time>
      </trkpt>
      <trkpt lat="45.30518" lon="4.47581">
        <ele>1167.5</ele>
        <time>2018-08-19T09:59:21.000Z</time>
      </trkpt>
      <trkpt lat="45.30517" lon="4.47579">
        <ele>1167.4</ele>
        <time>2018-08-19T09:59:22.000Z</time>
      </trkpt>
      <trkpt lat="45.30516" lon="4.47578">
        <ele>1167.3</ele>
        <time>2018-08-19T09:59:23.000Z</time>
      </trkpt>
      <trkpt lat="45.30516" lon="4.47576">
        <ele>1167.2</ele>
        <time>2018-08-19T09:59:24.000Z</time>
      </trkpt>
      <trkpt lat="45.30515" lon="4.47574">
        <ele>1167.1</ele>
        <time>2018-08-19T09:59:25.000Z</time>
      </trkpt>
      <trkpt lat="45.30514" lon="4.47573">
        <ele>1167</ele>
        <time>2018-08-19T09:59:26.000Z</time>
      </trkpt>
      <trkpt lat="45.30514" lon="4.47571">
        <ele>1166.9</ele>
        <time>2018-08-19T09:59:27.000Z</time>
      </trkpt>
      <trkpt lat="45.30513" lon="4.4757">
        <ele>1166.8</ele>
        <time>2018-08-19T09:59:28.000Z</time>
      </trkpt>
      <trkpt lat="45.30512" lon="4.47568">
        <ele>1166.7</ele>
        <time>2018-08-19T09:59:29.000Z</time>
      </trkpt>
      <trkpt lat="45.30511" lon="4.47567">
        <ele>1166.6</ele>
        <time>2018-08-19T09:59:30.000Z</time>
      </trkpt>
      <trkpt lat="45.3051" lon="4.47565">
        <ele>1166.5</ele>
        <time>2018-08-19T09:59:31.000Z</time>
      </trkpt>
      <trkpt lat="45.3051" lon="4.47564">
        <ele>1166.4</ele>
        <time>2018-08-19T09:59:32.000Z</time>
      </trkpt>
      <trkpt lat="45.30509" lon="4.47563">
        <ele>1166.3</ele>
        <time>2018-08-19T09:59:33.000Z</time>
      </trkpt>
      <trkpt lat="45.30508" lon="4.47561">
        <ele>1166.2</ele>
        <time>2018-08-19T09:59:34.000Z</time>
      </trkpt>
      <trkpt lat="45.30507" lon="4.4756">
        <ele>1166.1</ele>
        <time>2018-08-19T09:59:35.000Z</time>
      </trkpt>
      <trkpt lat="45.30506" lon="4.47559">
        <ele>1166</ele>
        <time>2018-08-19T09:59:36.000Z</time>
      </trkpt>
      <trkpt lat="45.30505" lon="4.47557">
        <ele>1165.9</ele>
        <time>2018-08-19T09:59:37.000Z</time>
      </trkpt>
      <trkpt lat="45.30504" lon="4.47556">
        <ele>1165.8</ele>
        <time>2018-08-19T09:59:38.000Z</time>
      </trkpt>
      <trkpt lat="45.30503" lon="4.47554">
        <ele>1165.7</ele>
        <time>2018-08-19T09:59:39.000Z</time>
      </trkpt>
      <trkpt lat="45.30502" lon="4.47553">
        <ele>1165.6</ele>
        <time>2018-08-19T09:59:40.000Z</time>
      </trkpt>
      <trkpt lat="45.30501" lon="4.47552">
        <ele>1165.5</ele>
        <time>2018-08-19T09:59:41.000Z</time>
      </trkpt>
      <trkpt lat="45.305" lon="4.4755">
        <ele>1165.4</ele>
        <time>2018-08-19T09:59:42.000Z</time>
      </trkpt>
      <trkpt lat="45.305" lon="4.47549">
        <ele>1165.3</ele>
        <time>2018-08-19T09:59:43.000Z</time>
      </trkpt>
      <trkpt lat="45.30499" lon="4.47547">
        <ele>1165.2</ele>
        <time>2018-08-19T09:59:44.000Z</time>
      </trkpt>
      <trkpt lat="45.30498" lon="4.47546">
        <ele>1165</ele>
        <time>2018-08-19T09:59:45.000Z</time>
      </trkpt>
      <trkpt lat="45.30497" lon="4.47545">
        <ele>1164.9</ele>
        <time>2018-08-19T09:59:46.000Z</time>
      </trkpt>
      <trkpt lat="45.30496" lon="4.47543">
        <ele>1164.8</ele>
        <time>2018-08-19T09:59:47.000Z</time>
      </trkpt>
      <trkpt lat="45.30495" lon="4.47542">
        <ele>1164.6</ele>
        <time>2018-08-19T09:59:48.000Z</time>
      </trkpt>
      <trkpt lat="45.30495" lon="4.4754">
        <ele>1164.5</ele>
        <time>2018-08-19T09:59:49.000Z</time>
      </trkpt>
      <trkpt lat="45.30494" lon="4.47538">
        <ele>1164.4</ele>
        <time>2018-08-19T09:59:50.000Z</time>
      </trkpt>
      <trkpt lat="45.30493" lon="4.47537">
        <ele>1164.2</ele>
        <time>2018-08-19T09:59:51.000Z</time>
      </trkpt>
      <trkpt lat="45.30492" lon="4.47535">
        <ele>1164.1</ele>
        <time>2018-08-19T09:59:52.000Z</time>
      </trkpt>
      <trkpt lat="45.30491" lon="4.47534">
        <ele>1163.9</ele>
        <time>2018-08-19T09:59:53.000Z</time>
      </trkpt>
      <trkpt lat="45.30491" lon="4.47532">
        <ele>1163.8</ele>
        <time>2018-08-19T09:59:54.000Z</time>
      </trkpt>
      <trkpt lat="45.3049" lon="4.47531">
        <ele>1163.7</ele>
        <time>2018-08-19T09:59:55.000Z</time>
      </trkpt>
      <trkpt lat="45.3049" lon="4.47529">
        <ele>1163.5</ele>
        <time>2018-08-19T09:59:56.000Z</time>
      </trkpt>
      <trkpt lat="45.30489" lon="4.47527">
        <ele>1163.4</ele>
        <time>2018-08-19T09:59:57.000Z</time>
      </trkpt>
      <trkpt lat="45.30489" lon="4.47525">
        <ele>1163.3</ele>
        <time>2018-08-19T09:59:58.000Z</time>
      </trkpt>
      <trkpt lat="45.30489" lon="4.47523">
        <ele>1163.2</ele>
        <time>2018-08-19T09:59:59.000Z</time>
      </trkpt>
      <trkpt lat="45.30489" lon="4.47521">
        <ele>1163.1</ele>
        <time>2018-08-19T10:00:00.000Z</time>
      </trkpt>
      <trkpt lat="45.30489" lon="4.47519">
        <ele>1163</ele>
        <time>2018-08-19T10:00:01.000Z</time>
      </trkpt>
      <trkpt lat="45.30489" lon="4.47517">
        <ele>1163</ele>
        <time>2018-08-19T10:00:02.000Z</time>
      </trkpt>
      <trkpt lat="45.3049" lon="4.47515">
        <ele>1162.9</ele>
        <time>2018-08-19T10:00:03.000Z</time>
      </trkpt>
      <trkpt lat="45.3049" lon="4.47514">
        <ele>1162.8</ele>
        <time>2018-08-19T10:00:04.000Z</time>
      </trkpt>
      <trkpt lat="45.3049" lon="4.47512">
        <ele>1162.8</ele>
        <time>2018-08-19T10:00:05.000Z</time>
      </trkpt>
      <trkpt lat="45.3049" lon="4.4751">
        <ele>1162.7</ele>
        <time>2018-08-19T10:00:06.000Z</time>
      </trkpt>
      <trkpt lat="45.30491" lon="4.47509">
        <ele>1162.6</ele>
        <time>2018-08-19T10:00:07.000Z</time>
      </trkpt>
      <trkpt lat="45.30491" lon="4.47507">
        <ele>1162.6</ele>
        <time>2018-08-19T10:00:08.000Z</time>
      </trkpt>
      <trkpt lat="45.30491" lon="4.47505">
        <ele>1162.5</ele>
        <time>2018-08-19T10:00:09.000Z</time>
      </trkpt>
      <trkpt lat="45.30492" lon="4.47503">
        <ele>1162.5</ele>
        <time>2018-08-19T10:00:10.000Z</time>
      </trkpt>
      <trkpt lat="45.30492" lon="4.47502">
        <ele>1162.4</ele>
        <time>2018-08-19T10:00:11.000Z</time>
      </trkpt>
      <trkpt lat="45.30492" lon="4.475">
        <ele>1162.4</ele>
        <time>2018-08-19T10:00:12.000Z</time>
      </trkpt>
      <trkpt lat="45.30493" lon="4.47498">
        <ele>1162.3</ele>
        <time>2018-08-19T10:00:13.000Z</time>
      </trkpt>
      <trkpt lat="45.30493" lon="4.47496">
        <ele>1162.2</ele>
        <time>2018-08-19T10:00:14.000Z</time>
      </trkpt>
      <trkpt lat="45.30493" lon="4.47495">
        <ele>1162.1</ele>
        <time>2018-08-19T10:00:15.000Z</time>
      </trkpt>
      <trkpt lat="45.30494" lon="4.47493">
        <ele>1162</ele>
        <time>2018-08-19T10:00:16.000Z</time>
      </trkpt>
      <trkpt lat="45.30494" lon="4.47491">
        <ele>1161.9</ele>
        <time>2018-08-19T10:00:17.000Z</time>
      </trkpt>
      <trkpt lat="45.30494" lon="4.47489">
        <ele>1161.9</ele>
        <time>2018-08-19T10:00:18.000Z</time>
      </trkpt>
      <trkpt lat="45.30494" lon="4.47487">
        <ele>1161.8</ele>
        <time>2018-08-19T10:00:19.000Z</time>
      </trkpt>
      <trkpt lat="45.30495" lon="4.47486">
        <ele>1161.7</ele>
        <time>2018-08-19T10:00:20.000Z</time>
      </trkpt>
      <trkpt lat="45.30495" lon="4.47484">
        <ele>1161.6</ele>
        <time>2018-08-19T10:00:21.000Z</time>
      </trkpt>
      <trkpt lat="45.30495" lon="4.47482">
        <ele>1161.5</ele>
        <time>2018-08-19T10:00:22.000Z</time>
      </trkpt>
      <trkpt lat="45.30495" lon="4.4748">
        <ele>1161.5</ele>
        <time>2018-08-19T10:00:23.000Z</time>
      </trkpt>
      <trkpt lat="45.30496" lon="4.47479">
        <ele>1161.4</ele>
        <time>2018-08-19T10:00:24.000Z</time>
      </trkpt>
      <trkpt lat="45.30496" lon="4.47477">
        <ele>1161.3</ele>
        <time>2018-08-19T10:00:25.000Z</time>
      </trkpt>
      <trkpt lat="45.30496" lon="4.47475">
        <ele>1161.2</ele>
        <time>2018-08-19T10:00:26.000Z</time>
      </trkpt>
      <trkpt lat="45.30497" lon="4.47473">
        <ele>1161.1</ele>
        <time>2018-08-19T10:00:27.000Z</time>
      </trkpt>
      <trkpt lat="45.30497" lon="4.47472">
        <ele>1161.1</ele>
        <time>2018-08-19T10:00:28.000Z</time>
      </trkpt>
      <trkpt lat="45.30497" lon="4.4747">
        <ele>1161</ele>
        <time>2018-08-19T10:00:29.000Z</time>
      </trkpt>
      <trkpt lat="45.30498" lon="4.47468">
        <ele>1160.9</ele>
        <time>2018-08-19T10:00:30.000Z</time>
      </trkpt>
      <trkpt lat="45.30498" lon="4.47467">
        <ele>1160.8</ele>
        <time>2018-08-19T10:00:31.000Z</time>
      </trkpt>
      <trkpt lat="45.30498" lon="4.47465">
        <ele>1160.8</ele>
        <time>2018-08-19T10:00:32.000Z</time>
      </trkpt>
      <trkpt lat="45.30499" lon="4.47463">
        <ele>1160.7</ele>
        <time>2018-08-19T10:00:33.000Z</time>
      </trkpt>
      <trkpt lat="45.30499" lon="4.47462">
        <ele>1160.6</ele>
        <time>2018-08-19T10:00:34.000Z</time>
      </trkpt>
      <trkpt lat="45.30499" lon="4.4746">
        <ele>1160.5</ele>
        <time>2018-08-19T10:00:35.000Z</time>
      </trkpt>
      <trkpt lat="45.305" lon="4.47458">
        <ele>1160.5</ele>
        <time>2018-08-19T10:00:36.000Z</time>
      </trkpt>
      <trkpt lat="45.305" lon="4.47457">
        <ele>1160.4</ele>
        <time>2018-08-19T10:00:37.000Z</time>
      </trkpt>
      <trkpt lat="45.305" lon="4.47455">
        <ele>1160.3</ele>
        <time>2018-08-19T10:00:38.000Z</time>
      </trkpt>
      <trkpt lat="45.30501" lon="4.47453">
        <ele>1160.2</ele>
        <time>2018-08-19T10:00:39.000Z</time>
      </trkpt>
      <trkpt lat="45.30501" lon="4.47452">
        <ele>1160.1</ele>
        <time>2018-08-19T10:00:40.000Z</time>
      </trkpt>
      <trkpt lat="45.30502" lon="4.4745">
        <ele>1160.1</ele>
        <time>2018-08-19T10:00:41.000Z</time>
      </trkpt>
      <trkpt lat="45.30502" lon="4.47448">
        <ele>1160</ele>
        <time>2018-08-19T10:00:42.000Z</time>
      </trkpt>
      <trkpt lat="45.30502" lon="4.47446">
        <ele>1159.9</ele>
        <time>2018-08-19T10:00:43.000Z</time>
      </trkpt>
      <trkpt lat="45.30503" lon="4.47445">
        <ele>1159.8</ele>
        <time>2018-08-19T10:00:44.000Z</time>
      </trkpt>
      <trkpt lat="45.30503" lon="4.47443">
        <ele>1159.7</ele>
        <time>2018-08-19T10:00:45.000Z</time>
      </trkpt>
      <trkpt lat="45.30504" lon="4.47441">
        <ele>1159.7</ele>
        <time>2018-08-19T10:00:46.000Z</time>
      </trkpt>
      <trkpt lat="45.30504" lon="4.4744">
        <ele>1159.6</ele>
        <time>2018-08-19T10:00:47.000Z</time>
      </trkpt>
      <trkpt lat="45.30504" lon="4.47438">
        <ele>1159.5</ele>
        <time>2018-08-19T10:00:48.000Z</time>
      </trkpt>
      <trkpt lat="45.30505" lon="4.47436">
        <ele>1159.4</ele>
        <time>2018-08-19T10:00:49.000Z</time>
      </trkpt>
      <trkpt lat="45.30505" lon="4.47435">
        <ele>1159.3</ele>
        <time>2018-08-19T10:00:50.000Z</time>
      </trkpt>
      <trkpt lat="45.30506" lon="4.47433">
        <ele>1159.3</ele>
        <time>2018-08-19T10:00:51.000Z</time>
      </trkpt>
      <trkpt lat="45.30506" lon="4.47431">
        <ele>1159.2</ele>
        <time>2018-08-19T10:00:52.000Z</time>
      </trkpt>
      <trkpt lat="45.30506" lon="4.4743">
        <ele>1159.1</ele>
        <time>2018-08-19T10:00:53.000Z</time>
      </trkpt>
      <trkpt lat="45.30507" lon="4.47429">
        <ele>1159.1</ele>
        <time>2018-08-19T10:00:54.000Z</time>
      </trkpt>
      <trkpt lat="45.30507" lon="4.47428">
        <ele>1159.1</ele>
        <time>2018-08-19T10:00:55.000Z</time>
      </trkpt>
      <trkpt lat="45.30507" lon="4.47428">
        <ele>1159</ele>
        <time>2018-08-19T10:00:56.000Z</time>
      </trkpt>
      <trkpt lat="45.30507" lon="4.47427">
        <ele>1159</ele>
        <time>2018-08-19T10:00:57.000Z</time>
      </trkpt>
      <trkpt lat="45.30507" lon="4.47427">
        <ele>1159</ele>
        <time>2018-08-19T10:00:58.000Z</time>
      </trkpt>
      <trkpt lat="45.30507" lon="4.47427">
        <ele>1159</ele>
        <time>2018-08-19T10:00:59.000Z</time>
      </trkpt>
      <trkpt lat="45.30507" lon="4.47427">
        <ele>1159</ele>
        <time>2018-08-19T10:01:00.000Z</time>
      </trkpt>
      <trkpt lat="45.30507" lon="4.47426">
        <ele>1159</ele>
        <time>2018-08-19T10:01:01.000Z</time>
      </trkpt>
      <trkpt lat="45.30508" lon="4.47425">
        <ele>1158.9</ele>
        <time>2018-08-19T10:01:02.000Z</time>
      </trkpt>
      <trkpt lat="45.30508" lon="4.47424">
        <ele>1158.9</ele>
        <time>2018-08-19T10:01:03.000Z</time>
      </trkpt>
      <trkpt lat="45.30508" lon="4.47423">
        <ele>1158.8</ele>
        <time>2018-08-19T10:01:04.000Z</time>
      </trkpt>
      <trkpt lat="45.30509" lon="4.47421">
        <ele>1158.8</ele>
        <time>2018-08-19T10:01:05.000Z</time>
      </trkpt>
      <trkpt lat="45.30509" lon="4.4742">
        <ele>1158.7</ele>
        <time>2018-08-19T10:01:06.000Z</time>
      </trkpt>
      <trkpt lat="45.3051" lon="4.47418">
        <ele>1158.6</ele>
        <time>2018-08-19T10:01:07.000Z</time>
      </trkpt>
      <trkpt lat="45.3051" lon="4.47416">
        <ele>1158.6</ele>
        <time>2018-08-19T10:01:08.000Z</time>
      </trkpt>
      <trkpt lat="45.30511" lon="4.47414">
        <ele>1158.5</ele>
        <time>2018-08-19T10:01:09.000Z</time>
      </trkpt>
      <trkpt lat="45.30511" lon="4.47412">
        <ele>1158.5</ele>
        <time>2018-08-19T10:01:10.000Z</time>
      </trkpt>
      <trkpt lat="45.30512" lon="4.47411">
        <ele>1158.4</ele>
        <time>2018-08-19T10:01:11.000Z</time>
      </trkpt>
      <trkpt lat="45.30512" lon="4.47409">
        <ele>1158.4</ele>
        <time>2018-08-19T10:01:12.000Z</time>
      </trkpt>
      <trkpt lat="45.30512" lon="4.47408">
        <ele>1158.4</ele>
        <time>2018-08-19T10:01:13.000Z</time>
      </trkpt>
      <trkpt lat="45.30513" lon="4.47407">
        <ele>1158.3</ele>
        <time>2018-08-19T10:01:14.000Z</time>
      </trkpt>
      <trkpt lat="45.30513" lon="4.47406">
        <ele>1158.3</ele>
        <time>2018-08-19T10:01:15.000Z</time>
      </trkpt>
      <trkpt lat="45.30513" lon="4.47405">
        <ele>1158.3</ele>
        <time>2018-08-19T10:01:16.000Z</time>
      </trkpt>
      <trkpt lat="45.30513" lon="4.47405">
        <ele>1158.3</ele>
        <time>2018-08-19T10:01:17.000Z</time>
      </trkpt>
      <trkpt lat="45.30513" lon="4.47404">
        <ele>1158.2</ele>
        <time>2018-08-19T10:01:18.000Z</time>
      </trkpt>
      <trkpt lat="45.30513" lon="4.47404">
        <ele>1158.2</ele>
        <time>2018-08-19T10:01:19.000Z</time>
      </trkpt>
      <trkpt lat="45.30513" lon="4.47403">
        <ele>1158.2</ele>
        <time>2018-08-19T10:01:20.000Z</time>
      </trkpt>
      <trkpt lat="45.30513" lon="4.47403">
        <ele>1158.2</ele>
        <time>2018-08-19T10:01:21.000Z</time>
      </trkpt>
      <trkpt lat="45.30513" lon="4.47403">
        <ele>1158.2</ele>
        <time>2018-08-19T10:01:22.000Z</time>
      </trkpt>
      <trkpt lat="45.30513" lon="4.47402">
        <ele>1158.1</ele>
        <time>2018-08-19T10:01:23.000Z</time>
      </trkpt>
      <trkpt lat="45.30513" lon="4.474">
        <ele>1158</ele>
        <time>2018-08-19T10:01:24.000Z</time>
      </trkpt>
      <trkpt lat="45.30512" lon="4.47398">
        <ele>1157.9</ele>
        <time>2018-08-19T10:01:25.000Z</time>
      </trkpt>
      <trkpt lat="45.30511" lon="4.47397">
        <ele>1157.8</ele>
        <time>2018-08-19T10:01:26.000Z</time>
      </trkpt>
      <trkpt lat="45.3051" lon="4.47396">
        <ele>1157.7</ele>
        <time>2018-08-19T10:01:27.000Z</time>
      </trkpt>
      <trkpt lat="45.30509" lon="4.47395">
        <ele>1157.6</ele>
        <time>2018-08-19T10:01:28.000Z</time>
      </trkpt>
      <trkpt lat="45.30508" lon="4.47394">
        <ele>1157.5</ele>
        <time>2018-08-19T10:01:29.000Z</time>
      </trkpt>
      <trkpt lat="45.30507" lon="4.47393">
        <ele>1157.4</ele>
        <time>2018-08-19T10:01:30.000Z</time>
      </trkpt>
      <trkpt lat="45.30506" lon="4.47392">
        <ele>1157.3</ele>
        <time>2018-08-19T10:01:31.000Z</time>
      </trkpt>
      <trkpt lat="45.30505" lon="4.47392">
        <ele>1157.1</ele>
        <time>2018-08-19T10:01:32.000Z</time>
      </trkpt>
      <trkpt lat="45.30504" lon="4.47391">
        <ele>1157</ele>
        <time>2018-08-19T10:01:33.000Z</time>
      </trkpt>
      <trkpt lat="45.30503" lon="4.4739">
        <ele>1156.9</ele>
        <time>2018-08-19T10:01:34.000Z</time>
      </trkpt>
      <trkpt lat="45.30502" lon="4.47389">
        <ele>1156.8</ele>
        <time>2018-08-19T10:01:35.000Z</time>
      </trkpt>
      <trkpt lat="45.305" lon="4.47388">
        <ele>1156.7</ele>
        <time>2018-08-19T10:01:36.000Z</time>
      </trkpt>
      <trkpt lat="45.30499" lon="4.47387">
        <ele>1156.5</ele>
        <time>2018-08-19T10:01:37.000Z</time>
      </trkpt>
      <trkpt lat="45.30498" lon="4.47386">
        <ele>1156.4</ele>
        <time>2018-08-19T10:01:38.000Z</time>
      </trkpt>
      <trkpt lat="45.30497" lon="4.47385">
        <ele>1156.3</ele>
        <time>2018-08-19T10:01:39.000Z</time>
      </trkpt>
      <trkpt lat="45.30496" lon="4.47384">
        <ele>1156.2</ele>
        <time>2018-08-19T10:01:40.000Z</time>
      </trkpt>
      <trkpt lat="45.30495" lon="4.47383">
        <ele>1156.1</ele>
        <time>2018-08-19T10:01:41.000Z</time>
      </trkpt>
      <trkpt lat="45.30495" lon="4.47381">
        <ele>1156</ele>
        <time>2018-08-19T10:01:42.000Z</time>
      </trkpt>
      <trkpt lat="45.30494" lon="4.4738">
        <ele>1155.9</ele>
        <time>2018-08-19T10:01:43.000Z</time>
      </trkpt>
      <trkpt lat="45.30493" lon="4.47378">
        <ele>1155.7</ele>
        <time>2018-08-19T10:01:44.000Z</time>
      </trkpt>
      <trkpt lat="45.30493" lon="4.47377">
        <ele>1155.6</ele>
        <time>2018-08-19T10:01:45.000Z</time>
      </trkpt>
      <trkpt lat="45.30492" lon="4.47375">
        <ele>1155.5</ele>
        <time>2018-08-19T10:01:46.000Z</time>
      </trkpt>
      <trkpt lat="45.30492" lon="4.47373">
        <ele>1155.4</ele>
        <time>2018-08-19T10:01:47.000Z</time>
      </trkpt>
      <trkpt lat="45.30492" lon="4.47372">
        <ele>1155.3</ele>
        <time>2018-08-19T10:01:48.000Z</time>
      </trkpt>
      <trkpt lat="45.30491" lon="4.4737">
        <ele>1155.2</ele>
        <time>2018-08-19T10:01:49.000Z</time>
      </trkpt>
      <trkpt lat="45.30491" lon="4.47368">
        <ele>1155.1</ele>
        <time>2018-08-19T10:01:50.000Z</time>
      </trkpt>
      <trkpt lat="45.30491" lon="4.47366">
        <ele>1155</ele>
        <time>2018-08-19T10:01:51.000Z</time>
      </trkpt>
      <trkpt lat="45.3049" lon="4.47365">
        <ele>1154.9</ele>
        <time>2018-08-19T10:01:52.000Z</time>
      </trkpt>
      <trkpt lat="45.3049" lon="4.47363">
        <ele>1154.8</ele>
        <time>2018-08-19T10:01:53.000Z</time>
      </trkpt>
      <trkpt lat="45.3049" lon="4.47361">
        <ele>1154.7</ele>
        <time>2018-08-19T10:01:54.000Z</time>
      </trkpt>
      <trkpt lat="45.3049" lon="4.4736">
        <ele>1154.6</ele>
        <time>2018-08-19T10:01:55.000Z</time>
      </trkpt>
      <trkpt lat="45.30489" lon="4.47358">
        <ele>1154.5</ele>
        <time>2018-08-19T10:01:56.000Z</time>
      </trkpt>
      <trkpt lat="45.30489" lon="4.47356">
        <ele>1154.4</ele>
        <time>2018-08-19T10:01:57.000Z</time>
      </trkpt>
      <trkpt lat="45.30489" lon="4.47355">
        <ele>1154.4</ele>
        <time>2018-08-19T10:01:58.000Z</time>
      </trkpt>
      <trkpt lat="45.30489" lon="4.47353">
        <ele>1154.3</ele>
        <time>2018-08-19T10:01:59.000Z</time>
      </trkpt>
      <trkpt lat="45.30488" lon="4.47352">
        <ele>1154.2</ele>
        <time>2018-08-19T10:02:00.000Z</time>
      </trkpt>
      <trkpt lat="45.30488" lon="4.4735">
        <ele>1154.1</ele>
        <time>2018-08-19T10:02:01.000Z</time>
      </trkpt>
      <trkpt lat="45.30488" lon="4.47348">
        <ele>1154</ele>
        <time>2018-08-19T10:02:02.000Z</time>
      </trkpt>
      <trkpt lat="45.30488" lon="4.47347">
        <ele>1153.9</ele>
        <time>2018-08-19T10:02:03.000Z</time>
      </trkpt>
      <trkpt lat="45.30487" lon="4.47345">
        <ele>1153.8</ele>
        <time>2018-08-19T10:02:04.000Z</time>
      </trkpt>
      <trkpt lat="45.30487" lon="4.47344">
        <ele>1153.7</ele>
        <time>2018-08-19T10:02:05.000Z</time>
      </trkpt>
      <trkpt lat="45.30487" lon="4.47342">
        <ele>1153.6</ele>
        <time>2018-08-19T10:02:06.000Z</time>
      </trkpt>
      <trkpt lat="45.30486" lon="4.47341">
        <ele>1153.5</ele>
        <time>2018-08-19T10:02:07.000Z</time>
      </trkpt>
      <trkpt lat="45.30486" lon="4.47339">
        <ele>1153.4</ele>
        <time>2018-08-19T10:02:08.000Z</time>
      </trkpt>
      <trkpt lat="45.30486" lon="4.47338">
        <ele>1153.3</ele>
        <time>2018-08-19T10:02:09.000Z</time>
      </trkpt>
      <trkpt lat="45.30485" lon="4.47336">
        <ele>1153.2</ele>
        <time>2018-08-19T10:02:10.000Z</time>
      </trkpt>
      <trkpt lat="45.30485" lon="4.47335">
        <ele>1153.1</ele>
        <time>2018-08-19T10:02:11.000Z</time>
      </trkpt>
      <trkpt lat="45.30484" lon="4.47333">
        <ele>1153.1</ele>
        <time>2018-08-19T10:02:12.000Z</time>
      </trkpt>
      <trkpt lat="45.30484" lon="4.47332">
        <ele>1153</ele>
        <time>2018-08-19T10:02:13.000Z</time>
      </trkpt>
      <trkpt lat="45.30483" lon="4.4733">
        <ele>1153</ele>
        <time>2018-08-19T10:02:14.000Z</time>
      </trkpt>
      <trkpt lat="45.30483" lon="4.47329">
        <ele>1152.9</ele>
        <time>2018-08-19T10:02:15.000Z</time>
      </trkpt>
      <trkpt lat="45.30482" lon="4.47327">
        <ele>1152.8</ele>
        <time>2018-08-19T10:02:16.000Z</time>
      </trkpt>
      <trkpt lat="45.30482" lon="4.47326">
        <ele>1152.8</ele>
        <time>2018-08-19T10:02:17.000Z</time>
      </trkpt>
      <trkpt lat="45.30481" lon="4.47324">
        <ele>1152.7</ele>
        <time>2018-08-19T10:02:18.000Z</time>
      </trkpt>
      <trkpt lat="45.30481" lon="4.47323">
        <ele>1152.7</ele>
        <time>2018-08-19T10:02:19.000Z</time>
      </trkpt>
      <trkpt lat="45.3048" lon="4.47321">
        <ele>1152.6</ele>
        <time>2018-08-19T10:02:20.000Z</time>
      </trkpt>
      <trkpt lat="45.30479" lon="4.4732">
        <ele>1152.5</ele>
        <time>2018-08-19T10:02:21.000Z</time>
      </trkpt>
      <trkpt lat="45.30479" lon="4.47318">
        <ele>1152.5</ele>
        <time>2018-08-19T10:02:22.000Z</time>
      </trkpt>
      <trkpt lat="45.30478" lon="4.47317">
        <ele>1152.4</ele>
        <time>2018-08-19T10:02:23.000Z</time>
      </trkpt>
      <trkpt lat="45.30477" lon="4.47315">
        <ele>1152.4</ele>
        <time>2018-08-19T10:02:24.000Z</time>
      </trkpt>
      <trkpt lat="45.30477" lon="4.47314">
        <ele>1152.3</ele>
        <time>2018-08-19T10:02:25.000Z</time>
      </trkpt>
      <trkpt lat="45.30476" lon="4.47312">
        <ele>1152.2</ele>
        <time>2018-08-19T10:02:26.000Z</time>
      </trkpt>
      <trkpt lat="45.30475" lon="4.47311">
        <ele>1152.2</ele>
        <time>2018-08-19T10:02:27.000Z</time>
      </trkpt>
      <trkpt lat="45.30474" lon="4.47309">
        <ele>1152.1</ele>
        <time>2018-08-19T10:02:28.000Z</time>
      </trkpt>
      <trkpt lat="45.30474" lon="4.47308">
        <ele>1152</ele>
        <time>2018-08-19T10:02:29.000Z</time>
      </trkpt>
      <trkpt lat="45.30473" lon="4.47306">
        <ele>1151.9</ele>
        <time>2018-08-19T10:02:30.000Z</time>
      </trkpt>
      <trkpt lat="45.30472" lon="4.47305">
        <ele>1151.9</ele>
        <time>2018-08-19T10:02:31.000Z</time>
      </trkpt>
      <trkpt lat="45.30472" lon="4.47303">
        <ele>1151.8</ele>
        <time>2018-08-19T10:02:32.000Z</time>
      </trkpt>
      <trkpt lat="45.30471" lon="4.47302">
        <ele>1151.7</ele>
        <time>2018-08-19T10:02:33.000Z</time>
      </trkpt>
      <trkpt lat="45.3047" lon="4.473">
        <ele>1151.7</ele>
        <time>2018-08-19T10:02:34.000Z</time>
      </trkpt>
      <trkpt lat="45.30469" lon="4.47299">
        <ele>1151.6</ele>
        <time>2018-08-19T10:02:35.000Z</time>
      </trkpt>
      <trkpt lat="45.30469" lon="4.47297">
        <ele>1151.5</ele>
        <time>2018-08-19T10:02:36.000Z</time>
      </trkpt>
      <trkpt lat="45.30468" lon="4.47296">
        <ele>1151.5</ele>
        <time>2018-08-19T10:02:37.000Z</time>
      </trkpt>
      <trkpt lat="45.30467" lon="4.47294">
        <ele>1151.4</ele>
        <time>2018-08-19T10:02:38.000Z</time>
      </trkpt>
      <trkpt lat="45.30467" lon="4.47293">
        <ele>1151.3</ele>
        <time>2018-08-19T10:02:39.000Z</time>
      </trkpt>
      <trkpt lat="45.30466" lon="4.47292">
        <ele>1151.2</ele>
        <time>2018-08-19T10:02:40.000Z</time>
      </trkpt>
      <trkpt lat="45.30465" lon="4.4729">
        <ele>1151.2</ele>
        <time>2018-08-19T10:02:41.000Z</time>
      </trkpt>
      <trkpt lat="45.30464" lon="4.47289">
        <ele>1151.1</ele>
        <time>2018-08-19T10:02:42.000Z</time>
      </trkpt>
      <trkpt lat="45.30464" lon="4.47287">
        <ele>1151</ele>
        <time>2018-08-19T10:02:43.000Z</time>
      </trkpt>
      <trkpt lat="45.30463" lon="4.47286">
        <ele>1150.9</ele>
        <time>2018-08-19T10:02:44.000Z</time>
      </trkpt>
      <trkpt lat="45.30462" lon="4.47285">
        <ele>1150.9</ele>
        <time>2018-08-19T10:02:45.000Z</time>
      </trkpt>
      <trkpt lat="45.30461" lon="4.47283">
        <ele>1150.8</ele>
        <time>2018-08-19T10:02:46.000Z</time>
      </trkpt>
      <trkpt lat="45.3046" lon="4.47282">
        <ele>1150.7</ele>
        <time>2018-08-19T10:02:47.000Z</time>
      </trkpt>
      <trkpt lat="45.3046" lon="4.47281">
        <ele>1150.6</ele>
        <time>2018-08-19T10:02:48.000Z</time>
      </trkpt>
      <trkpt lat="45.30459" lon="4.47279">
        <ele>1150.6</ele>
        <time>2018-08-19T10:02:49.000Z</time>
      </trkpt>
      <trkpt lat="45.30458" lon="4.47278">
        <ele>1150.5</ele>
        <time>2018-08-19T10:02:50.000Z</time>
      </trkpt>
      <trkpt lat="45.30457" lon="4.47277">
        <ele>1150.4</ele>
        <time>2018-08-19T10:02:51.000Z</time>
      </trkpt>
      <trkpt lat="45.30456" lon="4.47275">
        <ele>1150.3</ele>
        <time>2018-08-19T10:02:52.000Z</time>
      </trkpt>
      <trkpt lat="45.30455" lon="4.47274">
        <ele>1150.2</ele>
        <time>2018-08-19T10:02:53.000Z</time>
      </trkpt>
      <trkpt lat="45.30454" lon="4.47273">
        <ele>1150.1</ele>
        <time>2018-08-19T10:02:54.000Z</time>
      </trkpt>
      <trkpt lat="45.30453" lon="4.47272">
        <ele>1150</ele>
        <time>2018-08-19T10:02:55.000Z</time>
      </trkpt>
      <trkpt lat="45.30452" lon="4.47271">
        <ele>1149.9</ele>
        <time>2018-08-19T10:02:56.000Z</time>
      </trkpt>
      <trkpt lat="45.30451" lon="4.4727">
        <ele>1149.9</ele>
        <time>2018-08-19T10:02:57.000Z</time>
      </trkpt>
      <trkpt lat="45.3045" lon="4.47269">
        <ele>1149.8</ele>
        <time>2018-08-19T10:02:58.000Z</time>
      </trkpt>
      <trkpt lat="45.30449" lon="4.47267">
        <ele>1149.7</ele>
        <time>2018-08-19T10:02:59.000Z</time>
      </trkpt>
      <trkpt lat="45.30448" lon="4.47266">
        <ele>1149.6</ele>
        <time>2018-08-19T10:03:00.000Z</time>
      </trkpt>
      <trkpt lat="45.30447" lon="4.47265">
        <ele>1149.5</ele>
        <time>2018-08-19T10:03:01.000Z</time>
      </trkpt>
      <trkpt lat="45.30446" lon="4.47264">
        <ele>1149.4</ele>
        <time>2018-08-19T10:03:02.000Z</time>
      </trkpt>
      <trkpt lat="45.30445" lon="4.47263">
        <ele>1149.3</ele>
        <time>2018-08-19T10:03:03.000Z</time>
      </trkpt>
      <trkpt lat="45.30444" lon="4.47262">
        <ele>1149.2</ele>
        <time>2018-08-19T10:03:04.000Z</time>
      </trkpt>
      <trkpt lat="45.30443" lon="4.47261">
        <ele>1149.1</ele>
        <time>2018-08-19T10:03:05.000Z</time>
      </trkpt>
      <trkpt lat="45.30443" lon="4.4726">
        <ele>1149.1</ele>
        <time>2018-08-19T10:03:06.000Z</time>
      </trkpt>
      <trkpt lat="45.30442" lon="4.47259">
        <ele>1149</ele>
        <time>2018-08-19T10:03:07.000Z</time>
      </trkpt>
      <trkpt lat="45.30441" lon="4.47258">
        <ele>1148.9</ele>
        <time>2018-08-19T10:03:08.000Z</time>
      </trkpt>
      <trkpt lat="45.3044" lon="4.47257">
        <ele>1148.8</ele>
        <time>2018-08-19T10:03:09.000Z</time>
      </trkpt>
      <trkpt lat="45.30439" lon="4.47256">
        <ele>1148.7</ele>
        <time>2018-08-19T10:03:10.000Z</time>
      </trkpt>
      <trkpt lat="45.30438" lon="4.47255">
        <ele>1148.6</ele>
        <time>2018-08-19T10:03:11.000Z</time>
      </trkpt>
      <trkpt lat="45.30437" lon="4.47254">
        <ele>1148.5</ele>
        <time>2018-08-19T10:03:12.000Z</time>
      </trkpt>
      <trkpt lat="45.30436" lon="4.47253">
        <ele>1148.4</ele>
        <time>2018-08-19T10:03:13.000Z</time>
      </trkpt>
      <trkpt lat="45.30434" lon="4.47252">
        <ele>1148.3</ele>
        <time>2018-08-19T10:03:14.000Z</time>
      </trkpt>
      <trkpt lat="45.30433" lon="4.47251">
        <ele>1148.2</ele>
        <time>2018-08-19T10:03:15.000Z</time>
      </trkpt>
      <trkpt lat="45.30432" lon="4.4725">
        <ele>1148.1</ele>
        <time>2018-08-19T10:03:16.000Z</time>
      </trkpt>
      <trkpt lat="45.30431" lon="4.47249">
        <ele>1148.1</ele>
        <time>2018-08-19T10:03:17.000Z</time>
      </trkpt>
      <trkpt lat="45.3043" lon="4.47248">
        <ele>1148.1</ele>
        <time>2018-08-19T10:03:18.000Z</time>
      </trkpt>
      <trkpt lat="45.30429" lon="4.47247">
        <ele>1148</ele>
        <time>2018-08-19T10:03:19.000Z</time>
      </trkpt>
      <trkpt lat="45.30428" lon="4.47246">
        <ele>1148</ele>
        <time>2018-08-19T10:03:20.000Z</time>
      </trkpt>
      <trkpt lat="45.30427" lon="4.47245">
        <ele>1148</ele>
        <time>2018-08-19T10:03:21.000Z</time>
      </trkpt>
      <trkpt lat="45.30426" lon="4.47244">
        <ele>1147.9</ele>
        <time>2018-08-19T10:03:22.000Z</time>
      </trkpt>
      <trkpt lat="45.30425" lon="4.47243">
        <ele>1147.9</ele>
        <time>2018-08-19T10:03:23.000Z</time>
      </trkpt>
      <trkpt lat="45.30424" lon="4.47242">
        <ele>1147.8</ele>
        <time>2018-08-19T10:03:24.000Z</time>
      </trkpt>
      <trkpt lat="45.30423" lon="4.47241">
        <ele>1147.8</ele>
        <time>2018-08-19T10:03:25.000Z</time>
      </trkpt>
      <trkpt lat="45.30422" lon="4.4724">
        <ele>1147.8</ele>
        <time>2018-08-19T10:03:26.000Z</time>
      </trkpt>
      <trkpt lat="45.30421" lon="4.47239">
        <ele>1147.7</ele>
        <time>2018-08-19T10:03:27.000Z</time>
      </trkpt>
      <trkpt lat="45.3042" lon="4.47238">
        <ele>1147.7</ele>
        <time>2018-08-19T10:03:28.000Z</time>
      </trkpt>
      <trkpt lat="45.30419" lon="4.47236">
        <ele>1147.7</ele>
        <time>2018-08-19T10:03:29.000Z</time>
      </trkpt>
      <trkpt lat="45.30418" lon="4.47235">
        <ele>1147.6</ele>
        <time>2018-08-19T10:03:30.000Z</time>
      </trkpt>
      <trkpt lat="45.30417" lon="4.47234">
        <ele>1147.6</ele>
        <time>2018-08-19T10:03:31.000Z</time>
      </trkpt>
      <trkpt lat="45.30416" lon="4.47233">
        <ele>1147.6</ele>
        <time>2018-08-19T10:03:32.000Z</time>
      </trkpt>
      <trkpt lat="45.30415" lon="4.47232">
        <ele>1147.5</ele>
        <time>2018-08-19T10:03:33.000Z</time>
      </trkpt>
      <trkpt lat="45.30414" lon="4.4723">
        <ele>1147.4</ele>
        <time>2018-08-19T10:03:34.000Z</time>
      </trkpt>
      <trkpt lat="45.30413" lon="4.47229">
        <ele>1147.3</ele>
        <time>2018-08-19T10:03:35.000Z</time>
      </trkpt>
      <trkpt lat="45.30412" lon="4.47228">
        <ele>1147.3</ele>
        <time>2018-08-19T10:03:36.000Z</time>
      </trkpt>
      <trkpt lat="45.30411" lon="4.47226">
        <ele>1147.2</ele>
        <time>2018-08-19T10:03:37.000Z</time>
      </trkpt>
      <trkpt lat="45.30411" lon="4.47225">
        <ele>1147.1</ele>
        <time>2018-08-19T10:03:38.000Z</time>
      </trkpt>
      <trkpt lat="45.3041" lon="4.47224">
        <ele>1147</ele>
        <time>2018-08-19T10:03:39.000Z</time>
      </trkpt>
      <trkpt lat="45.30409" lon="4.47222">
        <ele>1147</ele>
        <time>2018-08-19T10:03:40.000Z</time>
      </trkpt>
      <trkpt lat="45.30408" lon="4.47221">
        <ele>1146.9</ele>
        <time>2018-08-19T10:03:41.000Z</time>
      </trkpt>
      <trkpt lat="45.30407" lon="4.4722">
        <ele>1146.8</ele>
        <time>2018-08-19T10:03:42.000Z</time>
      </trkpt>
      <trkpt lat="45.30406" lon="4.47218">
        <ele>1146.8</ele>
        <time>2018-08-19T10:03:43.000Z</time>
      </trkpt>
      <trkpt lat="45.30406" lon="4.47217">
        <ele>1146.7</ele>
        <time>2018-08-19T10:03:44.000Z</time>
      </trkpt>
      <trkpt lat="45.30405" lon="4.47215">
        <ele>1146.7</ele>
        <time>2018-08-19T10:03:45.000Z</time>
      </trkpt>
      <trkpt lat="45.30404" lon="4.47214">
        <ele>1146.6</ele>
        <time>2018-08-19T10:03:46.000Z</time>
      </trkpt>
      <trkpt lat="45.30404" lon="4.47212">
        <ele>1146.6</ele>
        <time>2018-08-19T10:03:47.000Z</time>
      </trkpt>
      <trkpt lat="45.30404" lon="4.47211">
        <ele>1146.6</ele>
        <time>2018-08-19T10:03:48.000Z</time>
      </trkpt>
      <trkpt lat="45.30403" lon="4.4721">
        <ele>1146.6</ele>
        <time>2018-08-19T10:03:49.000Z</time>
      </trkpt>
      <trkpt lat="45.30403" lon="4.47208">
        <ele>1146.6</ele>
        <time>2018-08-19T10:03:50.000Z</time>
      </trkpt>
      <trkpt lat="45.30403" lon="4.47207">
        <ele>1146.7</ele>
        <time>2018-08-19T10:03:51.000Z</time>
      </trkpt>
      <trkpt lat="45.30403" lon="4.47206">
        <ele>1146.7</ele>
        <time>2018-08-19T10:03:52.000Z</time>
      </trkpt>
      <trkpt lat="45.30404" lon="4.47204">
        <ele>1146.8</ele>
        <time>2018-08-19T10:03:53.000Z</time>
      </trkpt>
      <trkpt lat="45.30404" lon="4.47203">
        <ele>1146.9</ele>
        <time>2018-08-19T10:03:54.000Z</time>
      </trkpt>
      <trkpt lat="45.30404" lon="4.47202">
        <ele>1147</ele>
        <time>2018-08-19T10:03:55.000Z</time>
      </trkpt>
      <trkpt lat="45.30405" lon="4.47201">
        <ele>1147.1</ele>
        <time>2018-08-19T10:03:56.000Z</time>
      </trkpt>
      <trkpt lat="45.30405" lon="4.47199">
        <ele>1147.1</ele>
        <time>2018-08-19T10:03:57.000Z</time>
      </trkpt>
      <trkpt lat="45.30405" lon="4.47198">
        <ele>1147.2</ele>
        <time>2018-08-19T10:03:58.000Z</time>
      </trkpt>
      <trkpt lat="45.30405" lon="4.47197">
        <ele>1147.2</ele>
        <time>2018-08-19T10:03:59.000Z</time>
      </trkpt>
      <trkpt lat="45.30405" lon="4.47195">
        <ele>1147.3</ele>
        <time>2018-08-19T10:04:00.000Z</time>
      </trkpt>
      <trkpt lat="45.30405" lon="4.47194">
        <ele>1147.3</ele>
        <time>2018-08-19T10:04:01.000Z</time>
      </trkpt>
      <trkpt lat="45.30406" lon="4.47193">
        <ele>1147.4</ele>
        <time>2018-08-19T10:04:02.000Z</time>
      </trkpt>
      <trkpt lat="45.30406" lon="4.47192">
        <ele>1147.4</ele>
        <time>2018-08-19T10:04:03.000Z</time>
      </trkpt>
      <trkpt lat="45.30406" lon="4.4719">
        <ele>1147.5</ele>
        <time>2018-08-19T10:04:04.000Z</time>
      </trkpt>
      <trkpt lat="45.30406" lon="4.47189">
        <ele>1147.5</ele>
        <time>2018-08-19T10:04:05.000Z</time>
      </trkpt>
      <trkpt lat="45.30405" lon="4.47188">
        <ele>1147.5</ele>
        <time>2018-08-19T10:04:06.000Z</time>
      </trkpt>
      <trkpt lat="45.30405" lon="4.47186">
        <ele>1147.5</ele>
        <time>2018-08-19T10:04:07.000Z</time>
      </trkpt>
      <trkpt lat="45.30405" lon="4.47184">
        <ele>1147.5</ele>
        <time>2018-08-19T10:04:08.000Z</time>
      </trkpt>
      <trkpt lat="45.30404" lon="4.47183">
        <ele>1147.5</ele>
        <time>2018-08-19T10:04:09.000Z</time>
      </trkpt>
      <trkpt lat="45.30404" lon="4.47181">
        <ele>1147.5</ele>
        <time>2018-08-19T10:04:10.000Z</time>
      </trkpt>
      <trkpt lat="45.30403" lon="4.47179">
        <ele>1147.4</ele>
        <time>2018-08-19T10:04:11.000Z</time>
      </trkpt>
      <trkpt lat="45.30403" lon="4.47177">
        <ele>1147.4</ele>
        <time>2018-08-19T10:04:12.000Z</time>
      </trkpt>
      <trkpt lat="45.30403" lon="4.47176">
        <ele>1147.4</ele>
        <time>2018-08-19T10:04:13.000Z</time>
      </trkpt>
      <trkpt lat="45.30402" lon="4.47174">
        <ele>1147.4</ele>
        <time>2018-08-19T10:04:14.000Z</time>
      </trkpt>
      <trkpt lat="45.30402" lon="4.47172">
        <ele>1147.4</ele>
        <time>2018-08-19T10:04:15.000Z</time>
      </trkpt>
      <trkpt lat="45.30402" lon="4.47171">
        <ele>1147.4</ele>
        <time>2018-08-19T10:04:16.000Z</time>
      </trkpt>
      <trkpt lat="45.30402" lon="4.47169">
        <ele>1147.4</ele>
        <time>2018-08-19T10:04:17.000Z</time>
      </trkpt>
      <trkpt lat="45.30401" lon="4.47168">
        <ele>1147.4</ele>
        <time>2018-08-19T10:04:18.000Z</time>
      </trkpt>
      <trkpt lat="45.30401" lon="4.47166">
        <ele>1147.3</ele>
        <time>2018-08-19T10:04:19.000Z</time>
      </trkpt>
      <trkpt lat="45.304" lon="4.47165">
        <ele>1147.3</ele>
        <time>2018-08-19T10:04:20.000Z</time>
      </trkpt>
      <trkpt lat="45.304" lon="4.47163">
        <ele>1147.3</ele>
        <time>2018-08-19T10:04:21.000Z</time>
      </trkpt>
      <trkpt lat="45.304" lon="4.47162">
        <ele>1147.3</ele>
        <time>2018-08-19T10:04:22.000Z</time>
      </trkpt>
      <trkpt lat="45.30399" lon="4.47161">
        <ele>1147.3</ele>
        <time>2018-08-19T10:04:23.000Z</time>
      </trkpt>
      <trkpt lat="45.30399" lon="4.47159">
        <ele>1147.2</ele>
        <time>2018-08-19T10:04:24.000Z</time>
      </trkpt>
      <trkpt lat="45.30398" lon="4.47158">
        <ele>1147.2</ele>
        <time>2018-08-19T10:04:25.000Z</time>
      </trkpt>
      <trkpt lat="45.30397" lon="4.47156">
        <ele>1147.1</ele>
        <time>2018-08-19T10:04:26.000Z</time>
      </trkpt>
      <trkpt lat="45.30397" lon="4.47155">
        <ele>1147.1</ele>
        <time>2018-08-19T10:04:27.000Z</time>
      </trkpt>
      <trkpt lat="45.30396" lon="4.47153">
        <ele>1147</ele>
        <time>2018-08-19T10:04:28.000Z</time>
      </trkpt>
      <trkpt lat="45.30396" lon="4.47152">
        <ele>1146.9</ele>
        <time>2018-08-19T10:04:29.000Z</time>
      </trkpt>
      <trkpt lat="45.30395" lon="4.4715">
        <ele>1146.9</ele>
        <time>2018-08-19T10:04:30.000Z</time>
      </trkpt>
      <trkpt lat="45.30394" lon="4.47149">
        <ele>1146.8</ele>
        <time>2018-08-19T10:04:31.000Z</time>
      </trkpt>
      <trkpt lat="45.30394" lon="4.47148">
        <ele>1146.8</ele>
        <time>2018-08-19T10:04:32.000Z</time>
      </trkpt>
      <trkpt lat="45.30393" lon="4.47146">
        <ele>1146.7</ele>
        <time>2018-08-19T10:04:33.000Z</time>
      </trkpt>
      <trkpt lat="45.30393" lon="4.47145">
        <ele>1146.7</ele>
        <time>2018-08-19T10:04:34.000Z</time>
      </trkpt>
      <trkpt lat="45.30392" lon="4.47143">
        <ele>1146.6</ele>
        <time>2018-08-19T10:04:35.000Z</time>
      </trkpt>
      <trkpt lat="45.30391" lon="4.47142">
        <ele>1146.6</ele>
        <time>2018-08-19T10:04:36.000Z</time>
      </trkpt>
      <trkpt lat="45.30391" lon="4.4714">
        <ele>1146.5</ele>
        <time>2018-08-19T10:04:37.000Z</time>
      </trkpt>
      <trkpt lat="45.3039" lon="4.47138">
        <ele>1146.5</ele>
        <time>2018-08-19T10:04:38.000Z</time>
      </trkpt>
      <trkpt lat="45.3039" lon="4.47137">
        <ele>1146.4</ele>
        <time>2018-08-19T10:04:39.000Z</time>
      </trkpt>
      <trkpt lat="45.30389" lon="4.47135">
        <ele>1146.4</ele>
        <time>2018-08-19T10:04:40.000Z</time>
      </trkpt>
      <trkpt lat="45.30389" lon="4.47134">
        <ele>1146.4</ele>
        <time>2018-08-19T10:04:41.000Z</time>
      </trkpt>
      <trkpt lat="45.30388" lon="4.47132">
        <ele>1146.3</ele>
        <time>2018-08-19T10:04:42.000Z</time>
      </trkpt>
      <trkpt lat="45.30388" lon="4.47131">
        <ele>1146.3</ele>
        <time>2018-08-19T10:04:43.000Z</time>
      </trkpt>
      <trkpt lat="45.30387" lon="4.47129">
        <ele>1146.3</ele>
        <time>2018-08-19T10:04:44.000Z</time>
      </trkpt>
      <trkpt lat="45.30387" lon="4.47127">
        <ele>1146.3</ele>
        <time>2018-08-19T10:04:45.000Z</time>
      </trkpt>
      <trkpt lat="45.30387" lon="4.47126">
        <ele>1146.2</ele>
        <time>2018-08-19T10:04:46.000Z</time>
      </trkpt>
      <trkpt lat="45.30386" lon="4.47124">
        <ele>1146.2</ele>
        <time>2018-08-19T10:04:47.000Z</time>
      </trkpt>
      <trkpt lat="45.30386" lon="4.47123">
        <ele>1146.2</ele>
        <time>2018-08-19T10:04:48.000Z</time>
      </trkpt>
      <trkpt lat="45.30386" lon="4.47121">
        <ele>1146.2</ele>
        <time>2018-08-19T10:04:49.000Z</time>
      </trkpt>
      <trkpt lat="45.30385" lon="4.47119">
        <ele>1146.2</ele>
        <time>2018-08-19T10:04:50.000Z</time>
      </trkpt>
      <trkpt lat="45.30385" lon="4.47118">
        <ele>1146.2</ele>
        <time>2018-08-19T10:04:51.000Z</time>
      </trkpt>
      <trkpt lat="45.30384" lon="4.47116">
        <ele>1146.2</ele>
        <time>2018-08-19T10:04:52.000Z</time>
      </trkpt>
      <trkpt lat="45.30384" lon="4.47115">
        <ele>1146.1</ele>
        <time>2018-08-19T10:04:53.000Z</time>
      </trkpt>
      <trkpt lat="45.30383" lon="4.47113">
        <ele>1146.1</ele>
        <time>2018-08-19T10:04:54.000Z</time>
      </trkpt>
      <trkpt lat="45.30383" lon="4.47111">
        <ele>1146</ele>
        <time>2018-08-19T10:04:55.000Z</time>
      </trkpt>
      <trkpt lat="45.30382" lon="4.4711">
        <ele>1146</ele>
        <time>2018-08-19T10:04:56.000Z</time>
      </trkpt>
      <trkpt lat="45.30382" lon="4.47108">
        <ele>1145.9</ele>
        <time>2018-08-19T10:04:57.000Z</time>
      </trkpt>
      <trkpt lat="45.30381" lon="4.47107">
        <ele>1145.8</ele>
        <time>2018-08-19T10:04:58.000Z</time>
      </trkpt>
      <trkpt lat="45.3038" lon="4.47105">
        <ele>1145.8</ele>
        <time>2018-08-19T10:04:59.000Z</time>
      </trkpt>
      <trkpt lat="45.3038" lon="4.47104">
        <ele>1145.7</ele>
        <time>2018-08-19T10:05:00.000Z</time>
      </trkpt>
      <trkpt lat="45.30379" lon="4.47103">
        <ele>1145.6</ele>
        <time>2018-08-19T10:05:01.000Z</time>
      </trkpt>
      <trkpt lat="45.30379" lon="4.47101">
        <ele>1145.6</ele>
        <time>2018-08-19T10:05:02.000Z</time>
      </trkpt>
      <trkpt lat="45.30378" lon="4.471">
        <ele>1145.5</ele>
        <time>2018-08-19T10:05:03.000Z</time>
      </trkpt>
      <trkpt lat="45.30378" lon="4.47099">
        <ele>1145.5</ele>
        <time>2018-08-19T10:05:04.000Z</time>
      </trkpt>
      <trkpt lat="45.30377" lon="4.47097">
        <ele>1145.5</ele>
        <time>2018-08-19T10:05:05.000Z</time>
      </trkpt>
      <trkpt lat="45.30377" lon="4.47096">
        <ele>1145.4</ele>
        <time>2018-08-19T10:05:06.000Z</time>
      </trkpt>
      <trkpt lat="45.30377" lon="4.47095">
        <ele>1145.4</ele>
        <time>2018-08-19T10:05:07.000Z</time>
      </trkpt>
      <trkpt lat="45.30376" lon="4.47093">
        <ele>1145.4</ele>
        <time>2018-08-19T10:05:08.000Z</time>
      </trkpt>
      <trkpt lat="45.30376" lon="4.47092">
        <ele>1145.4</ele>
        <time>2018-08-19T10:05:09.000Z</time>
      </trkpt>
      <trkpt lat="45.30376" lon="4.4709">
        <ele>1145.4</ele>
        <time>2018-08-19T10:05:10.000Z</time>
      </trkpt>
      <trkpt lat="45.30376" lon="4.47089">
        <ele>1145.4</ele>
        <time>2018-08-19T10:05:11.000Z</time>
      </trkpt>
      <trkpt lat="45.30375" lon="4.47088">
        <ele>1145.4</ele>
        <time>2018-08-19T10:05:12.000Z</time>
      </trkpt>
      <trkpt lat="45.30375" lon="4.47086">
        <ele>1145.4</ele>
        <time>2018-08-19T10:05:13.000Z</time>
      </trkpt>
      <trkpt lat="45.30375" lon="4.47085">
        <ele>1145.4</ele>
        <time>2018-08-19T10:05:14.000Z</time>
      </trkpt>
      <trkpt lat="45.30374" lon="4.47083">
        <ele>1145.3</ele>
        <time>2018-08-19T10:05:15.000Z</time>
      </trkpt>
      <trkpt lat="45.30374" lon="4.47082">
        <ele>1145.2</ele>
        <time>2018-08-19T10:05:16.000Z</time>
      </trkpt>
      <trkpt lat="45.30373" lon="4.4708">
        <ele>1145.1</ele>
        <time>2018-08-19T10:05:17.000Z</time>
      </trkpt>
      <trkpt lat="45.30373" lon="4.47079">
        <ele>1145</ele>
        <time>2018-08-19T10:05:18.000Z</time>
      </trkpt>
      <trkpt lat="45.30372" lon="4.47077">
        <ele>1144.9</ele>
        <time>2018-08-19T10:05:19.000Z</time>
      </trkpt>
      <trkpt lat="45.30372" lon="4.47076">
        <ele>1144.7</ele>
        <time>2018-08-19T10:05:20.000Z</time>
      </trkpt>
      <trkpt lat="45.30371" lon="4.47074">
        <ele>1144.6</ele>
        <time>2018-08-19T10:05:21.000Z</time>
      </trkpt>
      <trkpt lat="45.30371" lon="4.47073">
        <ele>1144.5</ele>
        <time>2018-08-19T10:05:22.000Z</time>
      </trkpt>
      <trkpt lat="45.3037" lon="4.47071">
        <ele>1144.4</ele>
        <time>2018-08-19T10:05:23.000Z</time>
      </trkpt>
      <trkpt lat="45.3037" lon="4.4707">
        <ele>1144.2</ele>
        <time>2018-08-19T10:05:24.000Z</time>
      </trkpt>
      <trkpt lat="45.30369" lon="4.47068">
        <ele>1144.1</ele>
        <time>2018-08-19T10:05:25.000Z</time>
      </trkpt>
      <trkpt lat="45.30368" lon="4.47067">
        <ele>1144</ele>
        <time>2018-08-19T10:05:26.000Z</time>
      </trkpt>
      <trkpt lat="45.30368" lon="4.47066">
        <ele>1143.9</ele>
        <time>2018-08-19T10:05:27.000Z</time>
      </trkpt>
      <trkpt lat="45.30367" lon="4.47065">
        <ele>1143.7</ele>
        <time>2018-08-19T10:05:28.000Z</time>
      </trkpt>
      <trkpt lat="45.30367" lon="4.47063">
        <ele>1143.6</ele>
        <time>2018-08-19T10:05:29.000Z</time>
      </trkpt>
      <trkpt lat="45.30366" lon="4.47062">
        <ele>1143.5</ele>
        <time>2018-08-19T10:05:30.000Z</time>
      </trkpt>
      <trkpt lat="45.30366" lon="4.47061">
        <ele>1143.4</ele>
        <time>2018-08-19T10:05:31.000Z</time>
      </trkpt>
      <trkpt lat="45.30365" lon="4.4706">
        <ele>1143.3</ele>
        <time>2018-08-19T10:05:32.000Z</time>
      </trkpt>
      <trkpt lat="45.30364" lon="4.47059">
        <ele>1143.1</ele>
        <time>2018-08-19T10:05:33.000Z</time>
      </trkpt>
      <trkpt lat="45.30364" lon="4.47057">
        <ele>1143</ele>
        <time>2018-08-19T10:05:34.000Z</time>
      </trkpt>
      <trkpt lat="45.30363" lon="4.47056">
        <ele>1142.9</ele>
        <time>2018-08-19T10:05:35.000Z</time>
      </trkpt>
      <trkpt lat="45.30362" lon="4.47055">
        <ele>1142.7</ele>
        <time>2018-08-19T10:05:36.000Z</time>
      </trkpt>
      <trkpt lat="45.30362" lon="4.47054">
        <ele>1142.6</ele>
        <time>2018-08-19T10:05:37.000Z</time>
      </trkpt>
      <trkpt lat="45.30361" lon="4.47052">
        <ele>1142.5</ele>
        <time>2018-08-19T10:05:38.000Z</time>
      </trkpt>
      <trkpt lat="45.3036" lon="4.47051">
        <ele>1142.3</ele>
        <time>2018-08-19T10:05:39.000Z</time>
      </trkpt>
      <trkpt lat="45.30359" lon="4.4705">
        <ele>1142.2</ele>
        <time>2018-08-19T10:05:40.000Z</time>
      </trkpt>
      <trkpt lat="45.30359" lon="4.47049">
        <ele>1142</ele>
        <time>2018-08-19T10:05:41.000Z</time>
      </trkpt>
      <trkpt lat="45.30358" lon="4.47047">
        <ele>1141.9</ele>
        <time>2018-08-19T10:05:42.000Z</time>
      </trkpt>
      <trkpt lat="45.30357" lon="4.47046">
        <ele>1141.8</ele>
        <time>2018-08-19T10:05:43.000Z</time>
      </trkpt>
      <trkpt lat="45.30356" lon="4.47045">
        <ele>1141.6</ele>
        <time>2018-08-19T10:05:44.000Z</time>
      </trkpt>
      <trkpt lat="45.30356" lon="4.47044">
        <ele>1141.5</ele>
        <time>2018-08-19T10:05:45.000Z</time>
      </trkpt>
      <trkpt lat="45.30355" lon="4.47043">
        <ele>1141.3</ele>
        <time>2018-08-19T10:05:46.000Z</time>
      </trkpt>
      <trkpt lat="45.30354" lon="4.47041">
        <ele>1141.2</ele>
        <time>2018-08-19T10:05:47.000Z</time>
      </trkpt>
      <trkpt lat="45.30353" lon="4.4704">
        <ele>1141.1</ele>
        <time>2018-08-19T10:05:48.000Z</time>
      </trkpt>
      <trkpt lat="45.30353" lon="4.47039">
        <ele>1141</ele>
        <time>2018-08-19T10:05:49.000Z</time>
      </trkpt>
      <trkpt lat="45.30352" lon="4.47038">
        <ele>1140.9</ele>
        <time>2018-08-19T10:05:50.000Z</time>
      </trkpt>
      <trkpt lat="45.30351" lon="4.47038">
        <ele>1140.8</ele>
        <time>2018-08-19T10:05:51.000Z</time>
      </trkpt>
      <trkpt lat="45.30351" lon="4.47037">
        <ele>1140.7</ele>
        <time>2018-08-19T10:05:52.000Z</time>
      </trkpt>
      <trkpt lat="45.3035" lon="4.47036">
        <ele>1140.6</ele>
        <time>2018-08-19T10:05:53.000Z</time>
      </trkpt>
      <trkpt lat="45.3035" lon="4.47035">
        <ele>1140.5</ele>
        <time>2018-08-19T10:05:54.000Z</time>
      </trkpt>
      <trkpt lat="45.30349" lon="4.47035">
        <ele>1140.4</ele>
        <time>2018-08-19T10:05:55.000Z</time>
      </trkpt>
      <trkpt lat="45.30349" lon="4.47034">
        <ele>1140.3</ele>
        <time>2018-08-19T10:05:56.000Z</time>
      </trkpt>
      <trkpt lat="45.30348" lon="4.47033">
        <ele>1140.2</ele>
        <time>2018-08-19T10:05:57.000Z</time>
      </trkpt>
      <trkpt lat="45.30348" lon="4.47032">
        <ele>1140.1</ele>
        <time>2018-08-19T10:05:58.000Z</time>
      </trkpt>
      <trkpt lat="45.30347" lon="4.47032">
        <ele>1140</ele>
        <time>2018-08-19T10:05:59.000Z</time>
      </trkpt>
      <trkpt lat="45.30346" lon="4.47031">
        <ele>1140</ele>
        <time>2018-08-19T10:06:00.000Z</time>
      </trkpt>
      <trkpt lat="45.30346" lon="4.4703">
        <ele>1139.9</ele>
        <time>2018-08-19T10:06:01.000Z</time>
      </trkpt>
      <trkpt lat="45.30345" lon="4.47029">
        <ele>1139.7</ele>
        <time>2018-08-19T10:06:02.000Z</time>
      </trkpt>
      <trkpt lat="45.30345" lon="4.47028">
        <ele>1139.7</ele>
        <time>2018-08-19T10:06:03.000Z</time>
      </trkpt>
      <trkpt lat="45.30344" lon="4.47026">
        <ele>1139.5</ele>
        <time>2018-08-19T10:06:04.000Z</time>
      </trkpt>
      <trkpt lat="45.30343" lon="4.47025">
        <ele>1139.4</ele>
        <time>2018-08-19T10:06:05.000Z</time>
      </trkpt>
      <trkpt lat="45.30342" lon="4.47024">
        <ele>1139.3</ele>
        <time>2018-08-19T10:06:06.000Z</time>
      </trkpt>
      <trkpt lat="45.30342" lon="4.47022">
        <ele>1139.2</ele>
        <time>2018-08-19T10:06:07.000Z</time>
      </trkpt>
      <trkpt lat="45.30341" lon="4.47021">
        <ele>1139.1</ele>
        <time>2018-08-19T10:06:08.000Z</time>
      </trkpt>
      <trkpt lat="45.30341" lon="4.47019">
        <ele>1139.1</ele>
        <time>2018-08-19T10:06:09.000Z</time>
      </trkpt>
      <trkpt lat="45.30341" lon="4.47018">
        <ele>1139.1</ele>
        <time>2018-08-19T10:06:10.000Z</time>
      </trkpt>
      <trkpt lat="45.30341" lon="4.47017">
        <ele>1139.1</ele>
        <time>2018-08-19T10:06:11.000Z</time>
      </trkpt>
      <trkpt lat="45.30341" lon="4.47015">
        <ele>1139.1</ele>
        <time>2018-08-19T10:06:12.000Z</time>
      </trkpt>
      <trkpt lat="45.30341" lon="4.47014">
        <ele>1139.1</ele>
        <time>2018-08-19T10:06:13.000Z</time>
      </trkpt>
      <trkpt lat="45.30342" lon="4.47012">
        <ele>1139.1</ele>
        <time>2018-08-19T10:06:14.000Z</time>
      </trkpt>
      <trkpt lat="45.30342" lon="4.47011">
        <ele>1139.2</ele>
        <time>2018-08-19T10:06:15.000Z</time>
      </trkpt>
      <trkpt lat="45.30342" lon="4.47009">
        <ele>1139.2</ele>
        <time>2018-08-19T10:06:16.000Z</time>
      </trkpt>
      <trkpt lat="45.30342" lon="4.47008">
        <ele>1139.2</ele>
        <time>2018-08-19T10:06:17.000Z</time>
      </trkpt>
      <trkpt lat="45.30342" lon="4.47006">
        <ele>1139.1</ele>
        <time>2018-08-19T10:06:18.000Z</time>
      </trkpt>
      <trkpt lat="45.30341" lon="4.47004">
        <ele>1139.1</ele>
        <time>2018-08-19T10:06:19.000Z</time>
      </trkpt>
      <trkpt lat="45.30341" lon="4.47003">
        <ele>1139</ele>
        <time>2018-08-19T10:06:20.000Z</time>
      </trkpt>
      <trkpt lat="45.30341" lon="4.47001">
        <ele>1138.9</ele>
        <time>2018-08-19T10:06:21.000Z</time>
      </trkpt>
      <trkpt lat="45.3034" lon="4.46999">
        <ele>1138.9</ele>
        <time>2018-08-19T10:06:22.000Z</time>
      </trkpt>
      <trkpt lat="45.3034" lon="4.46997">
        <ele>1139</ele>
        <time>2018-08-19T10:06:23.000Z</time>
      </trkpt>
      <trkpt lat="45.30339" lon="4.46996">
        <ele>1139</ele>
        <time>2018-08-19T10:06:24.000Z</time>
      </trkpt>
      <trkpt lat="45.30339" lon="4.46994">
        <ele>1139.1</ele>
        <time>2018-08-19T10:06:25.000Z</time>
      </trkpt>
      <trkpt lat="45.30339" lon="4.46992">
        <ele>1139.2</ele>
        <time>2018-08-19T10:06:26.000Z</time>
      </trkpt>
      <trkpt lat="45.30338" lon="4.4699">
        <ele>1139.2</ele>
        <time>2018-08-19T10:06:27.000Z</time>
      </trkpt>
      <trkpt lat="45.30338" lon="4.46988">
        <ele>1139.3</ele>
        <time>2018-08-19T10:06:28.000Z</time>
      </trkpt>
      <trkpt lat="45.30338" lon="4.46986">
        <ele>1139.4</ele>
        <time>2018-08-19T10:06:29.000Z</time>
      </trkpt>
      <trkpt lat="45.30338" lon="4.46984">
        <ele>1139.6</ele>
        <time>2018-08-19T10:06:30.000Z</time>
      </trkpt>
      <trkpt lat="45.30338" lon="4.46982">
        <ele>1139.7</ele>
        <time>2018-08-19T10:06:31.000Z</time>
      </trkpt>
      <trkpt lat="45.30338" lon="4.4698">
        <ele>1139.8</ele>
        <time>2018-08-19T10:06:32.000Z</time>
      </trkpt>
      <trkpt lat="45.30337" lon="4.46977">
        <ele>1139.9</ele>
        <time>2018-08-19T10:06:33.000Z</time>
      </trkpt>
      <trkpt lat="45.30337" lon="4.46975">
        <ele>1140</ele>
        <time>2018-08-19T10:06:34.000Z</time>
      </trkpt>
      <trkpt lat="45.30337" lon="4.46972">
        <ele>1140.1</ele>
        <time>2018-08-19T10:06:35.000Z</time>
      </trkpt>
      <trkpt lat="45.30336" lon="4.4697">
        <ele>1140.2</ele>
        <time>2018-08-19T10:06:36.000Z</time>
      </trkpt>
      <trkpt lat="45.30336" lon="4.46967">
        <ele>1140.3</ele>
        <time>2018-08-19T10:06:37.000Z</time>
      </trkpt>
      <trkpt lat="45.30336" lon="4.46965">
        <ele>1140.4</ele>
        <time>2018-08-19T10:06:38.000Z</time>
      </trkpt>
      <trkpt lat="45.30336" lon="4.46963">
        <ele>1140.6</ele>
        <time>2018-08-19T10:06:39.000Z</time>
      </trkpt>
      <trkpt lat="45.30336" lon="4.4696">
        <ele>1140.7</ele>
        <time>2018-08-19T10:06:40.000Z</time>
      </trkpt>
      <trkpt lat="45.30335" lon="4.46958">
        <ele>1140.8</ele>
        <time>2018-08-19T10:06:41.000Z</time>
      </trkpt>
      <trkpt lat="45.30335" lon="4.46956">
        <ele>1140.9</ele>
        <time>2018-08-19T10:06:42.000Z</time>
      </trkpt>
      <trkpt lat="45.30335" lon="4.46953">
        <ele>1141</ele>
        <time>2018-08-19T10:06:43.000Z</time>
      </trkpt>
      <trkpt lat="45.30335" lon="4.46951">
        <ele>1141.2</ele>
        <time>2018-08-19T10:06:44.000Z</time>
      </trkpt>
      <trkpt lat="45.30335" lon="4.4695">
        <ele>1141.3</ele>
        <time>2018-08-19T10:06:45.000Z</time>
      </trkpt>
      <trkpt lat="45.30335" lon="4.46948">
        <ele>1141.4</ele>
        <time>2018-08-19T10:06:46.000Z</time>
      </trkpt>
      <trkpt lat="45.30335" lon="4.46946">
        <ele>1141.5</ele>
        <time>2018-08-19T10:06:47.000Z</time>
      </trkpt>
      <trkpt lat="45.30335" lon="4.46944">
        <ele>1141.6</ele>
        <time>2018-08-19T10:06:48.000Z</time>
      </trkpt>
      <trkpt lat="45.30335" lon="4.46943">
        <ele>1141.7</ele>
        <time>2018-08-19T10:06:49.000Z</time>
      </trkpt>
      <trkpt lat="45.30335" lon="4.46941">
        <ele>1141.8</ele>
        <time>2018-08-19T10:06:50.000Z</time>
      </trkpt>
      <trkpt lat="45.30335" lon="4.46939">
        <ele>1141.8</ele>
        <time>2018-08-19T10:06:51.000Z</time>
      </trkpt>
      <trkpt lat="45.30334" lon="4.46937">
        <ele>1141.8</ele>
        <time>2018-08-19T10:06:52.000Z</time>
      </trkpt>
      <trkpt lat="45.30333" lon="4.46935">
        <ele>1141.9</ele>
        <time>2018-08-19T10:06:53.000Z</time>
      </trkpt>
      <trkpt lat="45.30333" lon="4.46933">
        <ele>1141.9</ele>
        <time>2018-08-19T10:06:54.000Z</time>
      </trkpt>
      <trkpt lat="45.30332" lon="4.46932">
        <ele>1141.8</ele>
        <time>2018-08-19T10:06:55.000Z</time>
      </trkpt>
      <trkpt lat="45.30331" lon="4.4693">
        <ele>1141.8</ele>
        <time>2018-08-19T10:06:56.000Z</time>
      </trkpt>
      <trkpt lat="45.3033" lon="4.46928">
        <ele>1141.8</ele>
        <time>2018-08-19T10:06:57.000Z</time>
      </trkpt>
      <trkpt lat="45.3033" lon="4.46926">
        <ele>1141.8</ele>
        <time>2018-08-19T10:06:58.000Z</time>
      </trkpt>
      <trkpt lat="45.30329" lon="4.46924">
        <ele>1141.8</ele>
        <time>2018-08-19T10:06:59.000Z</time>
      </trkpt>
      <trkpt lat="45.30328" lon="4.46923">
        <ele>1141.8</ele>
        <time>2018-08-19T10:07:00.000Z</time>
      </trkpt>
      <trkpt lat="45.30328" lon="4.46921">
        <ele>1141.7</ele>
        <time>2018-08-19T10:07:01.000Z</time>
      </trkpt>
      <trkpt lat="45.30327" lon="4.46919">
        <ele>1141.7</ele>
        <time>2018-08-19T10:07:02.000Z</time>
      </trkpt>
      <trkpt lat="45.30326" lon="4.46917">
        <ele>1141.7</ele>
        <time>2018-08-19T10:07:03.000Z</time>
      </trkpt>
      <trkpt lat="45.30326" lon="4.46916">
        <ele>1141.7</ele>
        <time>2018-08-19T10:07:04.000Z</time>
      </trkpt>
      <trkpt lat="45.30325" lon="4.46914">
        <ele>1141.8</ele>
        <time>2018-08-19T10:07:05.000Z</time>
      </trkpt>
      <trkpt lat="45.30325" lon="4.46912">
        <ele>1141.8</ele>
        <time>2018-08-19T10:07:06.000Z</time>
      </trkpt>
      <trkpt lat="45.30324" lon="4.46911">
        <ele>1141.9</ele>
        <time>2018-08-19T10:07:07.000Z</time>
      </trkpt>
      <trkpt lat="45.30323" lon="4.46909">
        <ele>1141.9</ele>
        <time>2018-08-19T10:07:08.000Z</time>
      </trkpt>
      <trkpt lat="45.30323" lon="4.46907">
        <ele>1142</ele>
        <time>2018-08-19T10:07:09.000Z</time>
      </trkpt>
      <trkpt lat="45.30322" lon="4.46906">
        <ele>1142</ele>
        <time>2018-08-19T10:07:10.000Z</time>
      </trkpt>
      <trkpt lat="45.30321" lon="4.46904">
        <ele>1142</ele>
        <time>2018-08-19T10:07:11.000Z</time>
      </trkpt>
      <trkpt lat="45.30321" lon="4.46902">
        <ele>1142.1</ele>
        <time>2018-08-19T10:07:12.000Z</time>
      </trkpt>
      <trkpt lat="45.3032" lon="4.469">
        <ele>1142.1</ele>
        <time>2018-08-19T10:07:13.000Z</time>
      </trkpt>
      <trkpt lat="45.30319" lon="4.46899">
        <ele>1142.1</ele>
        <time>2018-08-19T10:07:14.000Z</time>
      </trkpt>
      <trkpt lat="45.30319" lon="4.46897">
        <ele>1142.1</ele>
        <time>2018-08-19T10:07:15.000Z</time>
      </trkpt>
      <trkpt lat="45.30318" lon="4.46895">
        <ele>1142.1</ele>
        <time>2018-08-19T10:07:16.000Z</time>
      </trkpt>
      <trkpt lat="45.30317" lon="4.46894">
        <ele>1142.1</ele>
        <time>2018-08-19T10:07:17.000Z</time>
      </trkpt>
      <trkpt lat="45.30317" lon="4.46892">
        <ele>1142</ele>
        <time>2018-08-19T10:07:18.000Z</time>
      </trkpt>
      <trkpt lat="45.30316" lon="4.4689">
        <ele>1142</ele>
        <time>2018-08-19T10:07:19.000Z</time>
      </trkpt>
      <trkpt lat="45.30315" lon="4.46889">
        <ele>1142</ele>
        <time>2018-08-19T10:07:20.000Z</time>
      </trkpt>
      <trkpt lat="45.30314" lon="4.46887">
        <ele>1141.9</ele>
        <time>2018-08-19T10:07:21.000Z</time>
      </trkpt>
      <trkpt lat="45.30313" lon="4.46886">
        <ele>1141.9</ele>
        <time>2018-08-19T10:07:22.000Z</time>
      </trkpt>
      <trkpt lat="45.30313" lon="4.46884">
        <ele>1141.8</ele>
        <time>2018-08-19T10:07:23.000Z</time>
      </trkpt>
      <trkpt lat="45.30312" lon="4.46882">
        <ele>1141.8</ele>
        <time>2018-08-19T10:07:24.000Z</time>
      </trkpt>
      <trkpt lat="45.30311" lon="4.46881">
        <ele>1141.7</ele>
        <time>2018-08-19T10:07:25.000Z</time>
      </trkpt>
      <trkpt lat="45.3031" lon="4.4688">
        <ele>1141.6</ele>
        <time>2018-08-19T10:07:26.000Z</time>
      </trkpt>
      <trkpt lat="45.30309" lon="4.46878">
        <ele>1141.5</ele>
        <time>2018-08-19T10:07:27.000Z</time>
      </trkpt>
      <trkpt lat="45.30309" lon="4.46877">
        <ele>1141.5</ele>
        <time>2018-08-19T10:07:28.000Z</time>
      </trkpt>
      <trkpt lat="45.30308" lon="4.46875">
        <ele>1141.4</ele>
        <time>2018-08-19T10:07:29.000Z</time>
      </trkpt>
      <trkpt lat="45.30307" lon="4.46874">
        <ele>1141.3</ele>
        <time>2018-08-19T10:07:30.000Z</time>
      </trkpt>
      <trkpt lat="45.30306" lon="4.46872">
        <ele>1141.2</ele>
        <time>2018-08-19T10:07:31.000Z</time>
      </trkpt>
      <trkpt lat="45.30305" lon="4.46871">
        <ele>1141</ele>
        <time>2018-08-19T10:07:32.000Z</time>
      </trkpt>
      <trkpt lat="45.30304" lon="4.46869">
        <ele>1140.9</ele>
        <time>2018-08-19T10:07:33.000Z</time>
      </trkpt>
      <trkpt lat="45.30304" lon="4.46868">
        <ele>1140.8</ele>
        <time>2018-08-19T10:07:34.000Z</time>
      </trkpt>
      <trkpt lat="45.30303" lon="4.46866">
        <ele>1140.7</ele>
        <time>2018-08-19T10:07:35.000Z</time>
      </trkpt>
      <trkpt lat="45.30302" lon="4.46865">
        <ele>1140.6</ele>
        <time>2018-08-19T10:07:36.000Z</time>
      </trkpt>
      <trkpt lat="45.30301" lon="4.46863">
        <ele>1140.5</ele>
        <time>2018-08-19T10:07:37.000Z</time>
      </trkpt>
      <trkpt lat="45.303" lon="4.46861">
        <ele>1140.4</ele>
        <time>2018-08-19T10:07:38.000Z</time>
      </trkpt>
      <trkpt lat="45.30299" lon="4.4686">
        <ele>1140.3</ele>
        <time>2018-08-19T10:07:39.000Z</time>
      </trkpt>
      <trkpt lat="45.30299" lon="4.46858">
        <ele>1140.2</ele>
        <time>2018-08-19T10:07:40.000Z</time>
      </trkpt>
      <trkpt lat="45.30298" lon="4.46856">
        <ele>1140</ele>
        <time>2018-08-19T10:07:41.000Z</time>
      </trkpt>
      <trkpt lat="45.30297" lon="4.46855">
        <ele>1139.9</ele>
        <time>2018-08-19T10:07:42.000Z</time>
      </trkpt>
      <trkpt lat="45.30296" lon="4.46853">
        <ele>1139.8</ele>
        <time>2018-08-19T10:07:43.000Z</time>
      </trkpt>
      <trkpt lat="45.30296" lon="4.46851">
        <ele>1139.7</ele>
        <time>2018-08-19T10:07:44.000Z</time>
      </trkpt>
      <trkpt lat="45.30295" lon="4.46849">
        <ele>1139.6</ele>
        <time>2018-08-19T10:07:45.000Z</time>
      </trkpt>
      <trkpt lat="45.30294" lon="4.46848">
        <ele>1139.5</ele>
        <time>2018-08-19T10:07:46.000Z</time>
      </trkpt>
      <trkpt lat="45.30293" lon="4.46846">
        <ele>1139.4</ele>
        <time>2018-08-19T10:07:47.000Z</time>
      </trkpt>
      <trkpt lat="45.30293" lon="4.46844">
        <ele>1139.3</ele>
        <time>2018-08-19T10:07:48.000Z</time>
      </trkpt>
      <trkpt lat="45.30292" lon="4.46842">
        <ele>1139.2</ele>
        <time>2018-08-19T10:07:49.000Z</time>
      </trkpt>
      <trkpt lat="45.30291" lon="4.4684">
        <ele>1139.1</ele>
        <time>2018-08-19T10:07:50.000Z</time>
      </trkpt>
      <trkpt lat="45.30291" lon="4.46839">
        <ele>1139</ele>
        <time>2018-08-19T10:07:51.000Z</time>
      </trkpt>
      <trkpt lat="45.3029" lon="4.46837">
        <ele>1138.9</ele>
        <time>2018-08-19T10:07:52.000Z</time>
      </trkpt>
      <trkpt lat="45.3029" lon="4.46835">
        <ele>1138.8</ele>
        <time>2018-08-19T10:07:53.000Z</time>
      </trkpt>
      <trkpt lat="45.30289" lon="4.46833">
        <ele>1138.7</ele>
        <time>2018-08-19T10:07:54.000Z</time>
      </trkpt>
      <trkpt lat="45.30288" lon="4.46831">
        <ele>1138.7</ele>
        <time>2018-08-19T10:07:55.000Z</time>
      </trkpt>
      <trkpt lat="45.30288" lon="4.46829">
        <ele>1138.7</ele>
        <time>2018-08-19T10:07:56.000Z</time>
      </trkpt>
      <trkpt lat="45.30287" lon="4.46827">
        <ele>1138.7</ele>
        <time>2018-08-19T10:07:57.000Z</time>
      </trkpt>
      <trkpt lat="45.30287" lon="4.46826">
        <ele>1138.8</ele>
        <time>2018-08-19T10:07:58.000Z</time>
      </trkpt>
      <trkpt lat="45.30286" lon="4.46824">
        <ele>1138.8</ele>
        <time>2018-08-19T10:07:59.000Z</time>
      </trkpt>
      <trkpt lat="45.30286" lon="4.46822">
        <ele>1138.8</ele>
        <time>2018-08-19T10:08:00.000Z</time>
      </trkpt>
      <trkpt lat="45.30285" lon="4.4682">
        <ele>1138.8</ele>
        <time>2018-08-19T10:08:01.000Z</time>
      </trkpt>
      <trkpt lat="45.30285" lon="4.46818">
        <ele>1138.9</ele>
        <time>2018-08-19T10:08:02.000Z</time>
      </trkpt>
      <trkpt lat="45.30284" lon="4.46816">
        <ele>1138.9</ele>
        <time>2018-08-19T10:08:03.000Z</time>
      </trkpt>
      <trkpt lat="45.30284" lon="4.46814">
        <ele>1138.9</ele>
        <time>2018-08-19T10:08:04.000Z</time>
      </trkpt>
      <trkpt lat="45.30283" lon="4.46812">
        <ele>1138.9</ele>
        <time>2018-08-19T10:08:05.000Z</time>
      </trkpt>
      <trkpt lat="45.30283" lon="4.46809">
        <ele>1139</ele>
        <time>2018-08-19T10:08:06.000Z</time>
      </trkpt>
      <trkpt lat="45.30282" lon="4.46807">
        <ele>1139</ele>
        <time>2018-08-19T10:08:07.000Z</time>
      </trkpt>
      <trkpt lat="45.30281" lon="4.46805">
        <ele>1139.1</ele>
        <time>2018-08-19T10:08:08.000Z</time>
      </trkpt>
      <trkpt lat="45.30281" lon="4.46803">
        <ele>1139.1</ele>
        <time>2018-08-19T10:08:09.000Z</time>
      </trkpt>
      <trkpt lat="45.3028" lon="4.46801">
        <ele>1139.1</ele>
        <time>2018-08-19T10:08:10.000Z</time>
      </trkpt>
      <trkpt lat="45.3028" lon="4.46799">
        <ele>1139.1</ele>
        <time>2018-08-19T10:08:11.000Z</time>
      </trkpt>
      <trkpt lat="45.30279" lon="4.46797">
        <ele>1139.1</ele>
        <time>2018-08-19T10:08:12.000Z</time>
      </trkpt>
      <trkpt lat="45.30278" lon="4.46795">
        <ele>1139.2</ele>
        <time>2018-08-19T10:08:13.000Z</time>
      </trkpt>
      <trkpt lat="45.30278" lon="4.46793">
        <ele>1139.2</ele>
        <time>2018-08-19T10:08:14.000Z</time>
      </trkpt>
      <trkpt lat="45.30277" lon="4.46792">
        <ele>1139.2</ele>
        <time>2018-08-19T10:08:15.000Z</time>
      </trkpt>
      <trkpt lat="45.30277" lon="4.4679">
        <ele>1139.2</ele>
        <time>2018-08-19T10:08:16.000Z</time>
      </trkpt>
      <trkpt lat="45.30276" lon="4.46788">
        <ele>1139.1</ele>
        <time>2018-08-19T10:08:17.000Z</time>
      </trkpt>
      <trkpt lat="45.30275" lon="4.46787">
        <ele>1139.1</ele>
        <time>2018-08-19T10:08:18.000Z</time>
      </trkpt>
      <trkpt lat="45.30275" lon="4.46785">
        <ele>1139.1</ele>
        <time>2018-08-19T10:08:19.000Z</time>
      </trkpt>
      <trkpt lat="45.30274" lon="4.46783">
        <ele>1139.1</ele>
        <time>2018-08-19T10:08:20.000Z</time>
      </trkpt>
      <trkpt lat="45.30273" lon="4.46782">
        <ele>1139</ele>
        <time>2018-08-19T10:08:21.000Z</time>
      </trkpt>
      <trkpt lat="45.30273" lon="4.4678">
        <ele>1139</ele>
        <time>2018-08-19T10:08:22.000Z</time>
      </trkpt>
      <trkpt lat="45.30272" lon="4.46779">
        <ele>1138.9</ele>
        <time>2018-08-19T10:08:23.000Z</time>
      </trkpt>
      <trkpt lat="45.30271" lon="4.46777">
        <ele>1138.9</ele>
        <time>2018-08-19T10:08:24.000Z</time>
      </trkpt>
      <trkpt lat="45.3027" lon="4.46775">
        <ele>1138.9</ele>
        <time>2018-08-19T10:08:25.000Z</time>
      </trkpt>
      <trkpt lat="45.3027" lon="4.46774">
        <ele>1138.8</ele>
        <time>2018-08-19T10:08:26.000Z</time>
      </trkpt>
      <trkpt lat="45.30269" lon="4.46772">
        <ele>1138.8</ele>
        <time>2018-08-19T10:08:27.000Z</time>
      </trkpt>
      <trkpt lat="45.30268" lon="4.4677">
        <ele>1138.8</ele>
        <time>2018-08-19T10:08:28.000Z</time>
      </trkpt>
      <trkpt lat="45.30268" lon="4.46768">
        <ele>1138.8</ele>
        <time>2018-08-19T10:08:29.000Z</time>
      </trkpt>
      <trkpt lat="45.30267" lon="4.46767">
        <ele>1138.8</ele>
        <time>2018-08-19T10:08:30.000Z</time>
      </trkpt>
      <trkpt lat="45.30266" lon="4.46765">
        <ele>1138.8</ele>
        <time>2018-08-19T10:08:31.000Z</time>
      </trkpt>
      <trkpt lat="45.30265" lon="4.46763">
        <ele>1138.8</ele>
        <time>2018-08-19T10:08:32.000Z</time>
      </trkpt>
      <trkpt lat="45.30265" lon="4.46761">
        <ele>1138.8</ele>
        <time>2018-08-19T10:08:33.000Z</time>
      </trkpt>
      <trkpt lat="45.30264" lon="4.46759">
        <ele>1138.8</ele>
        <time>2018-08-19T10:08:34.000Z</time>
      </trkpt>
      <trkpt lat="45.30263" lon="4.46757">
        <ele>1138.8</ele>
        <time>2018-08-19T10:08:35.000Z</time>
      </trkpt>
      <trkpt lat="45.30263" lon="4.46755">
        <ele>1138.8</ele>
        <time>2018-08-19T10:08:36.000Z</time>
      </trkpt>
      <trkpt lat="45.30262" lon="4.46753">
        <ele>1138.9</ele>
        <time>2018-08-19T10:08:37.000Z</time>
      </trkpt>
      <trkpt lat="45.30261" lon="4.46751">
        <ele>1138.9</ele>
        <time>2018-08-19T10:08:38.000Z</time>
      </trkpt>
      <trkpt lat="45.30261" lon="4.46749">
        <ele>1138.9</ele>
        <time>2018-08-19T10:08:39.000Z</time>
      </trkpt>
      <trkpt lat="45.3026" lon="4.46747">
        <ele>1138.9</ele>
        <time>2018-08-19T10:08:40.000Z</time>
      </trkpt>
      <trkpt lat="45.30259" lon="4.46745">
        <ele>1138.9</ele>
        <time>2018-08-19T10:08:41.000Z</time>
      </trkpt>
      <trkpt lat="45.30259" lon="4.46743">
        <ele>1138.9</ele>
        <time>2018-08-19T10:08:42.000Z</time>
      </trkpt>
      <trkpt lat="45.30258" lon="4.46741">
        <ele>1138.9</ele>
        <time>2018-08-19T10:08:43.000Z</time>
      </trkpt>
      <trkpt lat="45.30258" lon="4.46739">
        <ele>1138.9</ele>
        <time>2018-08-19T10:08:44.000Z</time>
      </trkpt>
      <trkpt lat="45.30257" lon="4.46738">
        <ele>1138.9</ele>
        <time>2018-08-19T10:08:45.000Z</time>
      </trkpt>
      <trkpt lat="45.30257" lon="4.46736">
        <ele>1138.9</ele>
        <time>2018-08-19T10:08:46.000Z</time>
      </trkpt>
      <trkpt lat="45.30256" lon="4.46734">
        <ele>1138.9</ele>
        <time>2018-08-19T10:08:47.000Z</time>
      </trkpt>
      <trkpt lat="45.30256" lon="4.46732">
        <ele>1138.9</ele>
        <time>2018-08-19T10:08:48.000Z</time>
      </trkpt>
      <trkpt lat="45.30255" lon="4.46731">
        <ele>1139</ele>
        <time>2018-08-19T10:08:49.000Z</time>
      </trkpt>
      <trkpt lat="45.30255" lon="4.46729">
        <ele>1139</ele>
        <time>2018-08-19T10:08:50.000Z</time>
      </trkpt>
      <trkpt lat="45.30254" lon="4.46727">
        <ele>1139</ele>
        <time>2018-08-19T10:08:51.000Z</time>
      </trkpt>
      <trkpt lat="45.30254" lon="4.46725">
        <ele>1139</ele>
        <time>2018-08-19T10:08:52.000Z</time>
      </trkpt>
      <trkpt lat="45.30253" lon="4.46723">
        <ele>1139</ele>
        <time>2018-08-19T10:08:53.000Z</time>
      </trkpt>
      <trkpt lat="45.30253" lon="4.46722">
        <ele>1139.1</ele>
        <time>2018-08-19T10:08:54.000Z</time>
      </trkpt>
      <trkpt lat="45.30252" lon="4.4672">
        <ele>1139.1</ele>
        <time>2018-08-19T10:08:55.000Z</time>
      </trkpt>
      <trkpt lat="45.30252" lon="4.46718">
        <ele>1139.1</ele>
        <time>2018-08-19T10:08:56.000Z</time>
      </trkpt>
      <trkpt lat="45.30251" lon="4.46716">
        <ele>1139.1</ele>
        <time>2018-08-19T10:08:57.000Z</time>
      </trkpt>
      <trkpt lat="45.30251" lon="4.46714">
        <ele>1139.2</ele>
        <time>2018-08-19T10:08:58.000Z</time>
      </trkpt>
      <trkpt lat="45.3025" lon="4.46713">
        <ele>1139.2</ele>
        <time>2018-08-19T10:08:59.000Z</time>
      </trkpt>
      <trkpt lat="45.3025" lon="4.46711">
        <ele>1139.2</ele>
        <time>2018-08-19T10:09:00.000Z</time>
      </trkpt>
      <trkpt lat="45.30249" lon="4.46709">
        <ele>1139.2</ele>
        <time>2018-08-19T10:09:01.000Z</time>
      </trkpt>
      <trkpt lat="45.30249" lon="4.46707">
        <ele>1139.3</ele>
        <time>2018-08-19T10:09:02.000Z</time>
      </trkpt>
      <trkpt lat="45.30248" lon="4.46705">
        <ele>1139.2</ele>
        <time>2018-08-19T10:09:03.000Z</time>
      </trkpt>
      <trkpt lat="45.30248" lon="4.46703">
        <ele>1139.3</ele>
        <time>2018-08-19T10:09:04.000Z</time>
      </trkpt>
      <trkpt lat="45.30247" lon="4.46701">
        <ele>1139.3</ele>
        <time>2018-08-19T10:09:05.000Z</time>
      </trkpt>
      <trkpt lat="45.30247" lon="4.467">
        <ele>1139.3</ele>
        <time>2018-08-19T10:09:06.000Z</time>
      </trkpt>
      <trkpt lat="45.30246" lon="4.46698">
        <ele>1139.3</ele>
        <time>2018-08-19T10:09:07.000Z</time>
      </trkpt>
      <trkpt lat="45.30246" lon="4.46696">
        <ele>1139.3</ele>
        <time>2018-08-19T10:09:08.000Z</time>
      </trkpt>
      <trkpt lat="45.30245" lon="4.46694">
        <ele>1139.3</ele>
        <time>2018-08-19T10:09:09.000Z</time>
      </trkpt>
      <trkpt lat="45.30245" lon="4.46692">
        <ele>1139.2</ele>
        <time>2018-08-19T10:09:10.000Z</time>
      </trkpt>
      <trkpt lat="45.30244" lon="4.46691">
        <ele>1139.2</ele>
        <time>2018-08-19T10:09:11.000Z</time>
      </trkpt>
      <trkpt lat="45.30244" lon="4.46689">
        <ele>1139.2</ele>
        <time>2018-08-19T10:09:12.000Z</time>
      </trkpt>
      <trkpt lat="45.30243" lon="4.46687">
        <ele>1139.2</ele>
        <time>2018-08-19T10:09:13.000Z</time>
      </trkpt>
      <trkpt lat="45.30243" lon="4.46685">
        <ele>1139.2</ele>
        <time>2018-08-19T10:09:14.000Z</time>
      </trkpt>
      <trkpt lat="45.30242" lon="4.46684">
        <ele>1139.2</ele>
        <time>2018-08-19T10:09:15.000Z</time>
      </trkpt>
      <trkpt lat="45.30242" lon="4.46682">
        <ele>1139.1</ele>
        <time>2018-08-19T10:09:16.000Z</time>
      </trkpt>
      <trkpt lat="45.30241" lon="4.4668">
        <ele>1139.1</ele>
        <time>2018-08-19T10:09:17.000Z</time>
      </trkpt>
      <trkpt lat="45.30241" lon="4.46678">
        <ele>1139.1</ele>
        <time>2018-08-19T10:09:18.000Z</time>
      </trkpt>
      <trkpt lat="45.3024" lon="4.46677">
        <ele>1139.1</ele>
        <time>2018-08-19T10:09:19.000Z</time>
      </trkpt>
      <trkpt lat="45.3024" lon="4.46675">
        <ele>1139</ele>
        <time>2018-08-19T10:09:20.000Z</time>
      </trkpt>
      <trkpt lat="45.30239" lon="4.46673">
        <ele>1139</ele>
        <time>2018-08-19T10:09:21.000Z</time>
      </trkpt>
      <trkpt lat="45.30239" lon="4.46671">
        <ele>1138.9</ele>
        <time>2018-08-19T10:09:22.000Z</time>
      </trkpt>
      <trkpt lat="45.30238" lon="4.4667">
        <ele>1138.9</ele>
        <time>2018-08-19T10:09:23.000Z</time>
      </trkpt>
      <trkpt lat="45.30238" lon="4.46668">
        <ele>1138.8</ele>
        <time>2018-08-19T10:09:24.000Z</time>
      </trkpt>
      <trkpt lat="45.30237" lon="4.46666">
        <ele>1138.7</ele>
        <time>2018-08-19T10:09:25.000Z</time>
      </trkpt>
      <trkpt lat="45.30237" lon="4.46664">
        <ele>1138.6</ele>
        <time>2018-08-19T10:09:26.000Z</time>
      </trkpt>
      <trkpt lat="45.30236" lon="4.46663">
        <ele>1138.4</ele>
        <time>2018-08-19T10:09:27.000Z</time>
      </trkpt>
      <trkpt lat="45.30236" lon="4.46661">
        <ele>1138.3</ele>
        <time>2018-08-19T10:09:28.000Z</time>
      </trkpt>
      <trkpt lat="45.30235" lon="4.46659">
        <ele>1138.1</ele>
        <time>2018-08-19T10:09:29.000Z</time>
      </trkpt>
      <trkpt lat="45.30235" lon="4.46657">
        <ele>1138</ele>
        <time>2018-08-19T10:09:30.000Z</time>
      </trkpt>
      <trkpt lat="45.30234" lon="4.46655">
        <ele>1137.8</ele>
        <time>2018-08-19T10:09:31.000Z</time>
      </trkpt>
      <trkpt lat="45.30234" lon="4.46653">
        <ele>1137.6</ele>
        <time>2018-08-19T10:09:32.000Z</time>
      </trkpt>
      <trkpt lat="45.30233" lon="4.46652">
        <ele>1137.4</ele>
        <time>2018-08-19T10:09:33.000Z</time>
      </trkpt>
      <trkpt lat="45.30232" lon="4.4665">
        <ele>1137.2</ele>
        <time>2018-08-19T10:09:34.000Z</time>
      </trkpt>
      <trkpt lat="45.30232" lon="4.46648">
        <ele>1137.1</ele>
        <time>2018-08-19T10:09:35.000Z</time>
      </trkpt>
      <trkpt lat="45.30231" lon="4.46646">
        <ele>1136.9</ele>
        <time>2018-08-19T10:09:36.000Z</time>
      </trkpt>
      <trkpt lat="45.30231" lon="4.46644">
        <ele>1136.7</ele>
        <time>2018-08-19T10:09:37.000Z</time>
      </trkpt>
      <trkpt lat="45.3023" lon="4.46642">
        <ele>1136.5</ele>
        <time>2018-08-19T10:09:38.000Z</time>
      </trkpt>
      <trkpt lat="45.30229" lon="4.4664">
        <ele>1136.3</ele>
        <time>2018-08-19T10:09:39.000Z</time>
      </trkpt>
      <trkpt lat="45.30229" lon="4.46638">
        <ele>1136.1</ele>
        <time>2018-08-19T10:09:40.000Z</time>
      </trkpt>
      <trkpt lat="45.30228" lon="4.46636">
        <ele>1136</ele>
        <time>2018-08-19T10:09:41.000Z</time>
      </trkpt>
      <trkpt lat="45.30228" lon="4.46634">
        <ele>1135.8</ele>
        <time>2018-08-19T10:09:42.000Z</time>
      </trkpt>
      <trkpt lat="45.30227" lon="4.46632">
        <ele>1135.6</ele>
        <time>2018-08-19T10:09:43.000Z</time>
      </trkpt>
      <trkpt lat="45.30227" lon="4.4663">
        <ele>1135.5</ele>
        <time>2018-08-19T10:09:44.000Z</time>
      </trkpt>
      <trkpt lat="45.30226" lon="4.46628">
        <ele>1135.3</ele>
        <time>2018-08-19T10:09:45.000Z</time>
      </trkpt>
      <trkpt lat="45.30226" lon="4.46626">
        <ele>1135.2</ele>
        <time>2018-08-19T10:09:46.000Z</time>
      </trkpt>
      <trkpt lat="45.30225" lon="4.46624">
        <ele>1135.1</ele>
        <time>2018-08-19T10:09:47.000Z</time>
      </trkpt>
      <trkpt lat="45.30225" lon="4.46622">
        <ele>1134.9</ele>
        <time>2018-08-19T10:09:48.000Z</time>
      </trkpt>
      <trkpt lat="45.30225" lon="4.46621">
        <ele>1134.8</ele>
        <time>2018-08-19T10:09:49.000Z</time>
      </trkpt>
      <trkpt lat="45.30224" lon="4.46619">
        <ele>1134.7</ele>
        <time>2018-08-19T10:09:50.000Z</time>
      </trkpt>
      <trkpt lat="45.30224" lon="4.46617">
        <ele>1134.6</ele>
        <time>2018-08-19T10:09:51.000Z</time>
      </trkpt>
      <trkpt lat="45.30223" lon="4.46615">
        <ele>1134.5</ele>
        <time>2018-08-19T10:09:52.000Z</time>
      </trkpt>
      <trkpt lat="45.30223" lon="4.46613">
        <ele>1134.4</ele>
        <time>2018-08-19T10:09:53.000Z</time>
      </trkpt>
      <trkpt lat="45.30223" lon="4.46611">
        <ele>1134.3</ele>
        <time>2018-08-19T10:09:54.000Z</time>
      </trkpt>
      <trkpt lat="45.30223" lon="4.4661">
        <ele>1134.2</ele>
        <time>2018-08-19T10:09:55.000Z</time>
      </trkpt>
      <trkpt lat="45.30222" lon="4.46608">
        <ele>1134.1</ele>
        <time>2018-08-19T10:09:56.000Z</time>
      </trkpt>
      <trkpt lat="45.30222" lon="4.46606">
        <ele>1134</ele>
        <time>2018-08-19T10:09:57.000Z</time>
      </trkpt>
      <trkpt lat="45.30222" lon="4.46604">
        <ele>1134</ele>
        <time>2018-08-19T10:09:58.000Z</time>
      </trkpt>
      <trkpt lat="45.30221" lon="4.46603">
        <ele>1133.9</ele>
        <time>2018-08-19T10:09:59.000Z</time>
      </trkpt>
      <trkpt lat="45.30221" lon="4.46601">
        <ele>1133.8</ele>
        <time>2018-08-19T10:10:00.000Z</time>
      </trkpt>
      <trkpt lat="45.30221" lon="4.46599">
        <ele>1133.7</ele>
        <time>2018-08-19T10:10:01.000Z</time>
      </trkpt>
      <trkpt lat="45.30221" lon="4.46598">
        <ele>1133.6</ele>
        <time>2018-08-19T10:10:02.000Z</time>
      </trkpt>
      <trkpt lat="45.3022" lon="4.46596">
        <ele>1133.5</ele>
        <time>2018-08-19T10:10:03.000Z</time>
      </trkpt>
      <trkpt lat="45.3022" lon="4.46594">
        <ele>1133.4</ele>
        <time>2018-08-19T10:10:04.000Z</time>
      </trkpt>
      <trkpt lat="45.3022" lon="4.46592">
        <ele>1133.4</ele>
        <time>2018-08-19T10:10:05.000Z</time>
      </trkpt>
      <trkpt lat="45.30219" lon="4.4659">
        <ele>1133.3</ele>
        <time>2018-08-19T10:10:06.000Z</time>
      </trkpt>
      <trkpt lat="45.30219" lon="4.46588">
        <ele>1133.2</ele>
        <time>2018-08-19T10:10:07.000Z</time>
      </trkpt>
      <trkpt lat="45.30219" lon="4.46586">
        <ele>1133.1</ele>
        <time>2018-08-19T10:10:08.000Z</time>
      </trkpt>
      <trkpt lat="45.30218" lon="4.46584">
        <ele>1133</ele>
        <time>2018-08-19T10:10:09.000Z</time>
      </trkpt>
      <trkpt lat="45.30218" lon="4.46582">
        <ele>1132.8</ele>
        <time>2018-08-19T10:10:10.000Z</time>
      </trkpt>
      <trkpt lat="45.30218" lon="4.4658">
        <ele>1132.8</ele>
        <time>2018-08-19T10:10:11.000Z</time>
      </trkpt>
      <trkpt lat="45.30217" lon="4.46577">
        <ele>1132.6</ele>
        <time>2018-08-19T10:10:12.000Z</time>
      </trkpt>
      <trkpt lat="45.30217" lon="4.46575">
        <ele>1132.5</ele>
        <time>2018-08-19T10:10:13.000Z</time>
      </trkpt>
      <trkpt lat="45.30216" lon="4.46573">
        <ele>1132.4</ele>
        <time>2018-08-19T10:10:14.000Z</time>
      </trkpt>
      <trkpt lat="45.30216" lon="4.46571">
        <ele>1132.3</ele>
        <time>2018-08-19T10:10:15.000Z</time>
      </trkpt>
      <trkpt lat="45.30216" lon="4.46569">
        <ele>1132.1</ele>
        <time>2018-08-19T10:10:16.000Z</time>
      </trkpt>
      <trkpt lat="45.30215" lon="4.46567">
        <ele>1132</ele>
        <time>2018-08-19T10:10:17.000Z</time>
      </trkpt>
      <trkpt lat="45.30215" lon="4.46565">
        <ele>1131.9</ele>
        <time>2018-08-19T10:10:18.000Z</time>
      </trkpt>
      <trkpt lat="45.30214" lon="4.46563">
        <ele>1131.7</ele>
        <time>2018-08-19T10:10:19.000Z</time>
      </trkpt>
      <trkpt lat="45.30214" lon="4.46561">
        <ele>1131.6</ele>
        <time>2018-08-19T10:10:20.000Z</time>
      </trkpt>
      <trkpt lat="45.30213" lon="4.46559">
        <ele>1131.5</ele>
        <time>2018-08-19T10:10:21.000Z</time>
      </trkpt>
      <trkpt lat="45.30213" lon="4.46557">
        <ele>1131.3</ele>
        <time>2018-08-19T10:10:22.000Z</time>
      </trkpt>
      <trkpt lat="45.30212" lon="4.46555">
        <ele>1131.2</ele>
        <time>2018-08-19T10:10:23.000Z</time>
      </trkpt>
      <trkpt lat="45.30212" lon="4.46553">
        <ele>1131</ele>
        <time>2018-08-19T10:10:24.000Z</time>
      </trkpt>
      <trkpt lat="45.30211" lon="4.46551">
        <ele>1130.9</ele>
        <time>2018-08-19T10:10:25.000Z</time>
      </trkpt>
      <trkpt lat="45.30211" lon="4.46549">
        <ele>1130.8</ele>
        <time>2018-08-19T10:10:26.000Z</time>
      </trkpt>
      <trkpt lat="45.3021" lon="4.46547">
        <ele>1130.6</ele>
        <time>2018-08-19T10:10:27.000Z</time>
      </trkpt>
      <trkpt lat="45.3021" lon="4.46545">
        <ele>1130.4</ele>
        <time>2018-08-19T10:10:28.000Z</time>
      </trkpt>
      <trkpt lat="45.30209" lon="4.46543">
        <ele>1130.3</ele>
        <time>2018-08-19T10:10:29.000Z</time>
      </trkpt>
      <trkpt lat="45.30209" lon="4.46541">
        <ele>1130.2</ele>
        <time>2018-08-19T10:10:30.000Z</time>
      </trkpt>
      <trkpt lat="45.30208" lon="4.46539">
        <ele>1130</ele>
        <time>2018-08-19T10:10:31.000Z</time>
      </trkpt>
      <trkpt lat="45.30208" lon="4.46537">
        <ele>1129.9</ele>
        <time>2018-08-19T10:10:32.000Z</time>
      </trkpt>
      <trkpt lat="45.30207" lon="4.46535">
        <ele>1129.7</ele>
        <time>2018-08-19T10:10:33.000Z</time>
      </trkpt>
      <trkpt lat="45.30207" lon="4.46533">
        <ele>1129.5</ele>
        <time>2018-08-19T10:10:34.000Z</time>
      </trkpt>
      <trkpt lat="45.30206" lon="4.46531">
        <ele>1129.4</ele>
        <time>2018-08-19T10:10:35.000Z</time>
      </trkpt>
      <trkpt lat="45.30205" lon="4.46529">
        <ele>1129.2</ele>
        <time>2018-08-19T10:10:36.000Z</time>
      </trkpt>
      <trkpt lat="45.30205" lon="4.46527">
        <ele>1129.1</ele>
        <time>2018-08-19T10:10:37.000Z</time>
      </trkpt>
      <trkpt lat="45.30204" lon="4.46525">
        <ele>1128.9</ele>
        <time>2018-08-19T10:10:38.000Z</time>
      </trkpt>
      <trkpt lat="45.30204" lon="4.46523">
        <ele>1128.7</ele>
        <time>2018-08-19T10:10:39.000Z</time>
      </trkpt>
      <trkpt lat="45.30203" lon="4.46521">
        <ele>1128.6</ele>
        <time>2018-08-19T10:10:40.000Z</time>
      </trkpt>
      <trkpt lat="45.30202" lon="4.46519">
        <ele>1128.4</ele>
        <time>2018-08-19T10:10:41.000Z</time>
      </trkpt>
      <trkpt lat="45.30202" lon="4.46517">
        <ele>1128.2</ele>
        <time>2018-08-19T10:10:42.000Z</time>
      </trkpt>
      <trkpt lat="45.30201" lon="4.46515">
        <ele>1128.1</ele>
        <time>2018-08-19T10:10:43.000Z</time>
      </trkpt>
      <trkpt lat="45.302" lon="4.46513">
        <ele>1127.9</ele>
        <time>2018-08-19T10:10:44.000Z</time>
      </trkpt>
      <trkpt lat="45.302" lon="4.46511">
        <ele>1127.7</ele>
        <time>2018-08-19T10:10:45.000Z</time>
      </trkpt>
      <trkpt lat="45.30199" lon="4.46509">
        <ele>1127.5</ele>
        <time>2018-08-19T10:10:46.000Z</time>
      </trkpt>
      <trkpt lat="45.30198" lon="4.46507">
        <ele>1127.4</ele>
        <time>2018-08-19T10:10:47.000Z</time>
      </trkpt>
      <trkpt lat="45.30198" lon="4.46505">
        <ele>1127.2</ele>
        <time>2018-08-19T10:10:48.000Z</time>
      </trkpt>
      <trkpt lat="45.30197" lon="4.46504">
        <ele>1127</ele>
        <time>2018-08-19T10:10:49.000Z</time>
      </trkpt>
      <trkpt lat="45.30196" lon="4.46502">
        <ele>1126.8</ele>
        <time>2018-08-19T10:10:50.000Z</time>
      </trkpt>
      <trkpt lat="45.30196" lon="4.465">
        <ele>1126.6</ele>
        <time>2018-08-19T10:10:51.000Z</time>
      </trkpt>
      <trkpt lat="45.30195" lon="4.46498">
        <ele>1126.5</ele>
        <time>2018-08-19T10:10:52.000Z</time>
      </trkpt>
      <trkpt lat="45.30194" lon="4.46497">
        <ele>1126.4</ele>
        <time>2018-08-19T10:10:53.000Z</time>
      </trkpt>
      <trkpt lat="45.30193" lon="4.46495">
        <ele>1126.2</ele>
        <time>2018-08-19T10:10:54.000Z</time>
      </trkpt>
      <trkpt lat="45.30193" lon="4.46493">
        <ele>1126.1</ele>
        <time>2018-08-19T10:10:55.000Z</time>
      </trkpt>
      <trkpt lat="45.30192" lon="4.46492">
        <ele>1126</ele>
        <time>2018-08-19T10:10:56.000Z</time>
      </trkpt>
      <trkpt lat="45.30191" lon="4.4649">
        <ele>1125.8</ele>
        <time>2018-08-19T10:10:57.000Z</time>
      </trkpt>
      <trkpt lat="45.3019" lon="4.46489">
        <ele>1125.7</ele>
        <time>2018-08-19T10:10:58.000Z</time>
      </trkpt>
      <trkpt lat="45.30189" lon="4.46487">
        <ele>1125.5</ele>
        <time>2018-08-19T10:10:59.000Z</time>
      </trkpt>
      <trkpt lat="45.30189" lon="4.46485">
        <ele>1125.4</ele>
        <time>2018-08-19T10:11:00.000Z</time>
      </trkpt>
      <trkpt lat="45.30188" lon="4.46484">
        <ele>1125.3</ele>
        <time>2018-08-19T10:11:01.000Z</time>
      </trkpt>
      <trkpt lat="45.30187" lon="4.46482">
        <ele>1125.1</ele>
        <time>2018-08-19T10:11:02.000Z</time>
      </trkpt>
      <trkpt lat="45.30186" lon="4.46481">
        <ele>1125</ele>
        <time>2018-08-19T10:11:03.000Z</time>
      </trkpt>
      <trkpt lat="45.30185" lon="4.46479">
        <ele>1124.8</ele>
        <time>2018-08-19T10:11:04.000Z</time>
      </trkpt>
      <trkpt lat="45.30185" lon="4.46477">
        <ele>1124.7</ele>
        <time>2018-08-19T10:11:05.000Z</time>
      </trkpt>
      <trkpt lat="45.30184" lon="4.46476">
        <ele>1124.6</ele>
        <time>2018-08-19T10:11:06.000Z</time>
      </trkpt>
      <trkpt lat="45.30183" lon="4.46474">
        <ele>1124.5</ele>
        <time>2018-08-19T10:11:07.000Z</time>
      </trkpt>
      <trkpt lat="45.30182" lon="4.46472">
        <ele>1124.4</ele>
        <time>2018-08-19T10:11:08.000Z</time>
      </trkpt>
      <trkpt lat="45.30182" lon="4.46471">
        <ele>1124.3</ele>
        <time>2018-08-19T10:11:09.000Z</time>
      </trkpt>
      <trkpt lat="45.30181" lon="4.46469">
        <ele>1124.1</ele>
        <time>2018-08-19T10:11:10.000Z</time>
      </trkpt>
      <trkpt lat="45.3018" lon="4.46467">
        <ele>1124</ele>
        <time>2018-08-19T10:11:11.000Z</time>
      </trkpt>
      <trkpt lat="45.30179" lon="4.46465">
        <ele>1123.9</ele>
        <time>2018-08-19T10:11:12.000Z</time>
      </trkpt>
      <trkpt lat="45.30178" lon="4.46464">
        <ele>1123.8</ele>
        <time>2018-08-19T10:11:13.000Z</time>
      </trkpt>
      <trkpt lat="45.30178" lon="4.46462">
        <ele>1123.7</ele>
        <time>2018-08-19T10:11:14.000Z</time>
      </trkpt>
      <trkpt lat="45.30177" lon="4.4646">
        <ele>1123.6</ele>
        <time>2018-08-19T10:11:15.000Z</time>
      </trkpt>
      <trkpt lat="45.30176" lon="4.46458">
        <ele>1123.5</ele>
        <time>2018-08-19T10:11:16.000Z</time>
      </trkpt>
      <trkpt lat="45.30175" lon="4.46457">
        <ele>1123.4</ele>
        <time>2018-08-19T10:11:17.000Z</time>
      </trkpt>
      <trkpt lat="45.30174" lon="4.46455">
        <ele>1123.3</ele>
        <time>2018-08-19T10:11:18.000Z</time>
      </trkpt>
      <trkpt lat="45.30174" lon="4.46453">
        <ele>1123.2</ele>
        <time>2018-08-19T10:11:19.000Z</time>
      </trkpt>
      <trkpt lat="45.30173" lon="4.46451">
        <ele>1123.1</ele>
        <time>2018-08-19T10:11:20.000Z</time>
      </trkpt>
      <trkpt lat="45.30172" lon="4.4645">
        <ele>1123</ele>
        <time>2018-08-19T10:11:21.000Z</time>
      </trkpt>
      <trkpt lat="45.30171" lon="4.46448">
        <ele>1122.9</ele>
        <time>2018-08-19T10:11:22.000Z</time>
      </trkpt>
      <trkpt lat="45.3017" lon="4.46446">
        <ele>1122.8</ele>
        <time>2018-08-19T10:11:23.000Z</time>
      </trkpt>
      <trkpt lat="45.3017" lon="4.46445">
        <ele>1122.7</ele>
        <time>2018-08-19T10:11:24.000Z</time>
      </trkpt>
      <trkpt lat="45.30169" lon="4.46443">
        <ele>1122.6</ele>
        <time>2018-08-19T10:11:25.000Z</time>
      </trkpt>
      <trkpt lat="45.30168" lon="4.46441">
        <ele>1122.5</ele>
        <time>2018-08-19T10:11:26.000Z</time>
      </trkpt>
      <trkpt lat="45.30167" lon="4.4644">
        <ele>1122.4</ele>
        <time>2018-08-19T10:11:27.000Z</time>
      </trkpt>
      <trkpt lat="45.30166" lon="4.46438">
        <ele>1122.4</ele>
        <time>2018-08-19T10:11:28.000Z</time>
      </trkpt>
      <trkpt lat="45.30165" lon="4.46436">
        <ele>1122.3</ele>
        <time>2018-08-19T10:11:29.000Z</time>
      </trkpt>
      <trkpt lat="45.30164" lon="4.46435">
        <ele>1122.2</ele>
        <time>2018-08-19T10:11:30.000Z</time>
      </trkpt>
      <trkpt lat="45.30163" lon="4.46433">
        <ele>1122.2</ele>
        <time>2018-08-19T10:11:31.000Z</time>
      </trkpt>
      <trkpt lat="45.30162" lon="4.46432">
        <ele>1122.1</ele>
        <time>2018-08-19T10:11:32.000Z</time>
      </trkpt>
      <trkpt lat="45.30161" lon="4.4643">
        <ele>1122</ele>
        <time>2018-08-19T10:11:33.000Z</time>
      </trkpt>
      <trkpt lat="45.3016" lon="4.46429">
        <ele>1121.9</ele>
        <time>2018-08-19T10:11:34.000Z</time>
      </trkpt>
      <trkpt lat="45.30159" lon="4.46427">
        <ele>1121.9</ele>
        <time>2018-08-19T10:11:35.000Z</time>
      </trkpt>
      <trkpt lat="45.30158" lon="4.46425">
        <ele>1121.8</ele>
        <time>2018-08-19T10:11:36.000Z</time>
      </trkpt>
      <trkpt lat="45.30157" lon="4.46424">
        <ele>1121.7</ele>
        <time>2018-08-19T10:11:37.000Z</time>
      </trkpt>
      <trkpt lat="45.30156" lon="4.46422">
        <ele>1121.6</ele>
        <time>2018-08-19T10:11:38.000Z</time>
      </trkpt>
      <trkpt lat="45.30155" lon="4.46421">
        <ele>1121.5</ele>
        <time>2018-08-19T10:11:39.000Z</time>
      </trkpt>
      <trkpt lat="45.30154" lon="4.46419">
        <ele>1121.3</ele>
        <time>2018-08-19T10:11:40.000Z</time>
      </trkpt>
      <trkpt lat="45.30153" lon="4.46418">
        <ele>1121.2</ele>
        <time>2018-08-19T10:11:41.000Z</time>
      </trkpt>
      <trkpt lat="45.30152" lon="4.46416">
        <ele>1121.2</ele>
        <time>2018-08-19T10:11:42.000Z</time>
      </trkpt>
      <trkpt lat="45.3015" lon="4.46414">
        <ele>1121.1</ele>
        <time>2018-08-19T10:11:43.000Z</time>
      </trkpt>
      <trkpt lat="45.30149" lon="4.46413">
        <ele>1121.1</ele>
        <time>2018-08-19T10:11:44.000Z</time>
      </trkpt>
      <trkpt lat="45.30148" lon="4.46411">
        <ele>1121</ele>
        <time>2018-08-19T10:11:45.000Z</time>
      </trkpt>
      <trkpt lat="45.30147" lon="4.4641">
        <ele>1121</ele>
        <time>2018-08-19T10:11:46.000Z</time>
      </trkpt>
      <trkpt lat="45.30146" lon="4.46408">
        <ele>1120.9</ele>
        <time>2018-08-19T10:11:47.000Z</time>
      </trkpt>
      <trkpt lat="45.30145" lon="4.46406">
        <ele>1120.9</ele>
        <time>2018-08-19T10:11:48.000Z</time>
      </trkpt>
      <trkpt lat="45.30144" lon="4.46405">
        <ele>1120.9</ele>
        <time>2018-08-19T10:11:49.000Z</time>
      </trkpt>
      <trkpt lat="45.30143" lon="4.46403">
        <ele>1120.9</ele>
        <time>2018-08-19T10:11:50.000Z</time>
      </trkpt>
      <trkpt lat="45.30142" lon="4.46401">
        <ele>1120.8</ele>
        <time>2018-08-19T10:11:51.000Z</time>
      </trkpt>
      <trkpt lat="45.30141" lon="4.464">
        <ele>1120.8</ele>
        <time>2018-08-19T10:11:52.000Z</time>
      </trkpt>
      <trkpt lat="45.3014" lon="4.46398">
        <ele>1120.8</ele>
        <time>2018-08-19T10:11:53.000Z</time>
      </trkpt>
      <trkpt lat="45.30139" lon="4.46397">
        <ele>1120.8</ele>
        <time>2018-08-19T10:11:54.000Z</time>
      </trkpt>
      <trkpt lat="45.30138" lon="4.46395">
        <ele>1120.8</ele>
        <time>2018-08-19T10:11:55.000Z</time>
      </trkpt>
      <trkpt lat="45.30137" lon="4.46394">
        <ele>1120.7</ele>
        <time>2018-08-19T10:11:56.000Z</time>
      </trkpt>
      <trkpt lat="45.30136" lon="4.46392">
        <ele>1120.7</ele>
        <time>2018-08-19T10:11:57.000Z</time>
      </trkpt>
      <trkpt lat="45.30135" lon="4.46391">
        <ele>1120.7</ele>
        <time>2018-08-19T10:11:58.000Z</time>
      </trkpt>
      <trkpt lat="45.30134" lon="4.4639">
        <ele>1120.7</ele>
        <time>2018-08-19T10:11:59.000Z</time>
      </trkpt>
      <trkpt lat="45.30133" lon="4.46388">
        <ele>1120.7</ele>
        <time>2018-08-19T10:12:00.000Z</time>
      </trkpt>
      <trkpt lat="45.30131" lon="4.46387">
        <ele>1120.6</ele>
        <time>2018-08-19T10:12:01.000Z</time>
      </trkpt>
      <trkpt lat="45.3013" lon="4.46386">
        <ele>1120.6</ele>
        <time>2018-08-19T10:12:02.000Z</time>
      </trkpt>
      <trkpt lat="45.30129" lon="4.46385">
        <ele>1120.6</ele>
        <time>2018-08-19T10:12:03.000Z</time>
      </trkpt>
      <trkpt lat="45.30128" lon="4.46383">
        <ele>1120.6</ele>
        <time>2018-08-19T10:12:04.000Z</time>
      </trkpt>
      <trkpt lat="45.30127" lon="4.46382">
        <ele>1120.6</ele>
        <time>2018-08-19T10:12:05.000Z</time>
      </trkpt>
      <trkpt lat="45.30126" lon="4.4638">
        <ele>1120.6</ele>
        <time>2018-08-19T10:12:06.000Z</time>
      </trkpt>
      <trkpt lat="45.30125" lon="4.46379">
        <ele>1120.6</ele>
        <time>2018-08-19T10:12:07.000Z</time>
      </trkpt>
      <trkpt lat="45.30125" lon="4.46377">
        <ele>1120.7</ele>
        <time>2018-08-19T10:12:08.000Z</time>
      </trkpt>
      <trkpt lat="45.30124" lon="4.46376">
        <ele>1120.7</ele>
        <time>2018-08-19T10:12:09.000Z</time>
      </trkpt>
      <trkpt lat="45.30123" lon="4.46374">
        <ele>1120.8</ele>
        <time>2018-08-19T10:12:10.000Z</time>
      </trkpt>
      <trkpt lat="45.30121" lon="4.46372">
        <ele>1120.8</ele>
        <time>2018-08-19T10:12:11.000Z</time>
      </trkpt>
      <trkpt lat="45.3012" lon="4.46371">
        <ele>1120.8</ele>
        <time>2018-08-19T10:12:12.000Z</time>
      </trkpt>
      <trkpt lat="45.30119" lon="4.46369">
        <ele>1120.9</ele>
        <time>2018-08-19T10:12:13.000Z</time>
      </trkpt>
      <trkpt lat="45.30118" lon="4.46368">
        <ele>1120.9</ele>
        <time>2018-08-19T10:12:14.000Z</time>
      </trkpt>
      <trkpt lat="45.30117" lon="4.46366">
        <ele>1120.9</ele>
        <time>2018-08-19T10:12:15.000Z</time>
      </trkpt>
      <trkpt lat="45.30116" lon="4.46365">
        <ele>1120.9</ele>
        <time>2018-08-19T10:12:16.000Z</time>
      </trkpt>
      <trkpt lat="45.30115" lon="4.46363">
        <ele>1120.9</ele>
        <time>2018-08-19T10:12:17.000Z</time>
      </trkpt>
      <trkpt lat="45.30114" lon="4.46362">
        <ele>1121</ele>
        <time>2018-08-19T10:12:18.000Z</time>
      </trkpt>
      <trkpt lat="45.30113" lon="4.46361">
        <ele>1121</ele>
        <time>2018-08-19T10:12:19.000Z</time>
      </trkpt>
      <trkpt lat="45.30112" lon="4.46359">
        <ele>1121</ele>
        <time>2018-08-19T10:12:20.000Z</time>
      </trkpt>
      <trkpt lat="45.30111" lon="4.46358">
        <ele>1121</ele>
        <time>2018-08-19T10:12:21.000Z</time>
      </trkpt>
      <trkpt lat="45.30109" lon="4.46357">
        <ele>1121</ele>
        <time>2018-08-19T10:12:22.000Z</time>
      </trkpt>
      <trkpt lat="45.30108" lon="4.46356">
        <ele>1121</ele>
        <time>2018-08-19T10:12:23.000Z</time>
      </trkpt>
      <trkpt lat="45.30107" lon="4.46354">
        <ele>1121</ele>
        <time>2018-08-19T10:12:24.000Z</time>
      </trkpt>
      <trkpt lat="45.30106" lon="4.46353">
        <ele>1121</ele>
        <time>2018-08-19T10:12:25.000Z</time>
      </trkpt>
      <trkpt lat="45.30105" lon="4.46352">
        <ele>1121.1</ele>
        <time>2018-08-19T10:12:26.000Z</time>
      </trkpt>
      <trkpt lat="45.30104" lon="4.46351">
        <ele>1121.1</ele>
        <time>2018-08-19T10:12:27.000Z</time>
      </trkpt>
      <trkpt lat="45.30102" lon="4.46349">
        <ele>1121.1</ele>
        <time>2018-08-19T10:12:28.000Z</time>
      </trkpt>
      <trkpt lat="45.30101" lon="4.46348">
        <ele>1121.1</ele>
        <time>2018-08-19T10:12:29.000Z</time>
      </trkpt>
      <trkpt lat="45.301" lon="4.46347">
        <ele>1121.1</ele>
        <time>2018-08-19T10:12:30.000Z</time>
      </trkpt>
      <trkpt lat="45.30099" lon="4.46345">
        <ele>1121.2</ele>
        <time>2018-08-19T10:12:31.000Z</time>
      </trkpt>
      <trkpt lat="45.30098" lon="4.46344">
        <ele>1121.2</ele>
        <time>2018-08-19T10:12:32.000Z</time>
      </trkpt>
      <trkpt lat="45.30097" lon="4.46343">
        <ele>1121.2</ele>
        <time>2018-08-19T10:12:33.000Z</time>
      </trkpt>
      <trkpt lat="45.30096" lon="4.46342">
        <ele>1121.3</ele>
        <time>2018-08-19T10:12:34.000Z</time>
      </trkpt>
      <trkpt lat="45.30094" lon="4.4634">
        <ele>1121.3</ele>
        <time>2018-08-19T10:12:35.000Z</time>
      </trkpt>
      <trkpt lat="45.30093" lon="4.46339">
        <ele>1121.4</ele>
        <time>2018-08-19T10:12:36.000Z</time>
      </trkpt>
      <trkpt lat="45.30092" lon="4.46337">
        <ele>1121.5</ele>
        <time>2018-08-19T10:12:37.000Z</time>
      </trkpt>
      <trkpt lat="45.30091" lon="4.46336">
        <ele>1121.6</ele>
        <time>2018-08-19T10:12:38.000Z</time>
      </trkpt>
      <trkpt lat="45.3009" lon="4.46334">
        <ele>1121.7</ele>
        <time>2018-08-19T10:12:39.000Z</time>
      </trkpt>
      <trkpt lat="45.30089" lon="4.46333">
        <ele>1121.7</ele>
        <time>2018-08-19T10:12:40.000Z</time>
      </trkpt>
      <trkpt lat="45.30088" lon="4.46331">
        <ele>1121.7</ele>
        <time>2018-08-19T10:12:41.000Z</time>
      </trkpt>
      <trkpt lat="45.30087" lon="4.4633">
        <ele>1121.6</ele>
        <time>2018-08-19T10:12:42.000Z</time>
      </trkpt>
      <trkpt lat="45.30086" lon="4.46328">
        <ele>1121.6</ele>
        <time>2018-08-19T10:12:43.000Z</time>
      </trkpt>
      <trkpt lat="45.30085" lon="4.46327">
        <ele>1121.6</ele>
        <time>2018-08-19T10:12:44.000Z</time>
      </trkpt>
      <trkpt lat="45.30084" lon="4.46325">
        <ele>1121.6</ele>
        <time>2018-08-19T10:12:45.000Z</time>
      </trkpt>
      <trkpt lat="45.30083" lon="4.46324">
        <ele>1121.5</ele>
        <time>2018-08-19T10:12:46.000Z</time>
      </trkpt>
      <trkpt lat="45.30082" lon="4.46322">
        <ele>1121.5</ele>
        <time>2018-08-19T10:12:47.000Z</time>
      </trkpt>
      <trkpt lat="45.30082" lon="4.46321">
        <ele>1121.4</ele>
        <time>2018-08-19T10:12:48.000Z</time>
      </trkpt>
      <trkpt lat="45.30081" lon="4.46319">
        <ele>1121.3</ele>
        <time>2018-08-19T10:12:49.000Z</time>
      </trkpt>
      <trkpt lat="45.3008" lon="4.46317">
        <ele>1121.2</ele>
        <time>2018-08-19T10:12:50.000Z</time>
      </trkpt>
      <trkpt lat="45.30079" lon="4.46315">
        <ele>1121.1</ele>
        <time>2018-08-19T10:12:51.000Z</time>
      </trkpt>
      <trkpt lat="45.30079" lon="4.46314">
        <ele>1121</ele>
        <time>2018-08-19T10:12:52.000Z</time>
      </trkpt>
      <trkpt lat="45.30078" lon="4.46312">
        <ele>1121</ele>
        <time>2018-08-19T10:12:53.000Z</time>
      </trkpt>
      <trkpt lat="45.30077" lon="4.4631">
        <ele>1120.9</ele>
        <time>2018-08-19T10:12:54.000Z</time>
      </trkpt>
      <trkpt lat="45.30076" lon="4.46308">
        <ele>1120.8</ele>
        <time>2018-08-19T10:12:55.000Z</time>
      </trkpt>
      <trkpt lat="45.30076" lon="4.46305">
        <ele>1120.8</ele>
        <time>2018-08-19T10:12:56.000Z</time>
      </trkpt>
      <trkpt lat="45.30075" lon="4.46303">
        <ele>1120.7</ele>
        <time>2018-08-19T10:12:57.000Z</time>
      </trkpt>
      <trkpt lat="45.30074" lon="4.46302">
        <ele>1120.6</ele>
        <time>2018-08-19T10:12:58.000Z</time>
      </trkpt>
      <trkpt lat="45.30073" lon="4.463">
        <ele>1120.5</ele>
        <time>2018-08-19T10:12:59.000Z</time>
      </trkpt>
      <trkpt lat="45.30073" lon="4.46298">
        <ele>1120.5</ele>
        <time>2018-08-19T10:13:00.000Z</time>
      </trkpt>
      <trkpt lat="45.30072" lon="4.46296">
        <ele>1120.4</ele>
        <time>2018-08-19T10:13:01.000Z</time>
      </trkpt>
      <trkpt lat="45.30072" lon="4.46294">
        <ele>1120.4</ele>
        <time>2018-08-19T10:13:02.000Z</time>
      </trkpt>
      <trkpt lat="45.30071" lon="4.46292">
        <ele>1120.3</ele>
        <time>2018-08-19T10:13:03.000Z</time>
      </trkpt>
      <trkpt lat="45.30071" lon="4.4629">
        <ele>1120.3</ele>
        <time>2018-08-19T10:13:04.000Z</time>
      </trkpt>
      <trkpt lat="45.3007" lon="4.46288">
        <ele>1120.2</ele>
        <time>2018-08-19T10:13:05.000Z</time>
      </trkpt>
      <trkpt lat="45.3007" lon="4.46286">
        <ele>1120.2</ele>
        <time>2018-08-19T10:13:06.000Z</time>
      </trkpt>
      <trkpt lat="45.30069" lon="4.46284">
        <ele>1120.2</ele>
        <time>2018-08-19T10:13:07.000Z</time>
      </trkpt>
      <trkpt lat="45.30069" lon="4.46282">
        <ele>1120.1</ele>
        <time>2018-08-19T10:13:08.000Z</time>
      </trkpt>
      <trkpt lat="45.30068" lon="4.46279">
        <ele>1120.1</ele>
        <time>2018-08-19T10:13:09.000Z</time>
      </trkpt>
      <trkpt lat="45.30068" lon="4.46277">
        <ele>1120.1</ele>
        <time>2018-08-19T10:13:10.000Z</time>
      </trkpt>
      <trkpt lat="45.30067" lon="4.46275">
        <ele>1120.1</ele>
        <time>2018-08-19T10:13:11.000Z</time>
      </trkpt>
      <trkpt lat="45.30067" lon="4.46273">
        <ele>1120.1</ele>
        <time>2018-08-19T10:13:12.000Z</time>
      </trkpt>
      <trkpt lat="45.30067" lon="4.46271">
        <ele>1120</ele>
        <time>2018-08-19T10:13:13.000Z</time>
      </trkpt>
      <trkpt lat="45.30066" lon="4.46269">
        <ele>1120</ele>
        <time>2018-08-19T10:13:14.000Z</time>
      </trkpt>
      <trkpt lat="45.30066" lon="4.46267">
        <ele>1120</ele>
        <time>2018-08-19T10:13:15.000Z</time>
      </trkpt>
      <trkpt lat="45.30066" lon="4.46265">
        <ele>1120</ele>
        <time>2018-08-19T10:13:16.000Z</time>
      </trkpt>
      <trkpt lat="45.30065" lon="4.46263">
        <ele>1120</ele>
        <time>2018-08-19T10:13:17.000Z</time>
      </trkpt>
      <trkpt lat="45.30065" lon="4.46262">
        <ele>1120</ele>
        <time>2018-08-19T10:13:18.000Z</time>
      </trkpt>
      <trkpt lat="45.30065" lon="4.4626">
        <ele>1120.1</ele>
        <time>2018-08-19T10:13:19.000Z</time>
      </trkpt>
      <trkpt lat="45.30065" lon="4.46258">
        <ele>1120</ele>
        <time>2018-08-19T10:13:20.000Z</time>
      </trkpt>
      <trkpt lat="45.30064" lon="4.46257">
        <ele>1120</ele>
        <time>2018-08-19T10:13:21.000Z</time>
      </trkpt>
      <trkpt lat="45.30064" lon="4.46255">
        <ele>1120</ele>
        <time>2018-08-19T10:13:22.000Z</time>
      </trkpt>
      <trkpt lat="45.30064" lon="4.46253">
        <ele>1120</ele>
        <time>2018-08-19T10:13:23.000Z</time>
      </trkpt>
      <trkpt lat="45.30063" lon="4.46252">
        <ele>1120</ele>
        <time>2018-08-19T10:13:24.000Z</time>
      </trkpt>
      <trkpt lat="45.30063" lon="4.4625">
        <ele>1119.9</ele>
        <time>2018-08-19T10:13:25.000Z</time>
      </trkpt>
      <trkpt lat="45.30062" lon="4.46248">
        <ele>1119.6</ele>
        <time>2018-08-19T10:13:26.000Z</time>
      </trkpt>
      <trkpt lat="45.30062" lon="4.46246">
        <ele>1119.3</ele>
        <time>2018-08-19T10:13:27.000Z</time>
      </trkpt>
      <trkpt lat="45.30061" lon="4.46244">
        <ele>1119.1</ele>
        <time>2018-08-19T10:13:28.000Z</time>
      </trkpt>
      <trkpt lat="45.30061" lon="4.46242">
        <ele>1118.8</ele>
        <time>2018-08-19T10:13:29.000Z</time>
      </trkpt>
      <trkpt lat="45.3006" lon="4.4624">
        <ele>1118.5</ele>
        <time>2018-08-19T10:13:30.000Z</time>
      </trkpt>
      <trkpt lat="45.3006" lon="4.46238">
        <ele>1118.3</ele>
        <time>2018-08-19T10:13:31.000Z</time>
      </trkpt>
      <trkpt lat="45.3006" lon="4.46236">
        <ele>1118.1</ele>
        <time>2018-08-19T10:13:32.000Z</time>
      </trkpt>
      <trkpt lat="45.30059" lon="4.46234">
        <ele>1117.8</ele>
        <time>2018-08-19T10:13:33.000Z</time>
      </trkpt>
      <trkpt lat="45.30059" lon="4.46232">
        <ele>1117.6</ele>
        <time>2018-08-19T10:13:34.000Z</time>
      </trkpt>
      <trkpt lat="45.30059" lon="4.46229">
        <ele>1117.4</ele>
        <time>2018-08-19T10:13:35.000Z</time>
      </trkpt>
      <trkpt lat="45.30059" lon="4.46227">
        <ele>1117.3</ele>
        <time>2018-08-19T10:13:36.000Z</time>
      </trkpt>
      <trkpt lat="45.30059" lon="4.46224">
        <ele>1117.1</ele>
        <time>2018-08-19T10:13:37.000Z</time>
      </trkpt>
      <trkpt lat="45.30059" lon="4.46222">
        <ele>1117</ele>
        <time>2018-08-19T10:13:38.000Z</time>
      </trkpt>
      <trkpt lat="45.30059" lon="4.4622">
        <ele>1116.8</ele>
        <time>2018-08-19T10:13:39.000Z</time>
      </trkpt>
      <trkpt lat="45.30059" lon="4.46217">
        <ele>1116.7</ele>
        <time>2018-08-19T10:13:40.000Z</time>
      </trkpt>
      <trkpt lat="45.30059" lon="4.46215">
        <ele>1116.6</ele>
        <time>2018-08-19T10:13:41.000Z</time>
      </trkpt>
      <trkpt lat="45.30059" lon="4.46212">
        <ele>1116.5</ele>
        <time>2018-08-19T10:13:42.000Z</time>
      </trkpt>
      <trkpt lat="45.30059" lon="4.4621">
        <ele>1116.3</ele>
        <time>2018-08-19T10:13:43.000Z</time>
      </trkpt>
      <trkpt lat="45.30059" lon="4.46208">
        <ele>1116.2</ele>
        <time>2018-08-19T10:13:44.000Z</time>
      </trkpt>
      <trkpt lat="45.30059" lon="4.46205">
        <ele>1116.1</ele>
        <time>2018-08-19T10:13:45.000Z</time>
      </trkpt>
      <trkpt lat="45.30059" lon="4.46203">
        <ele>1116</ele>
        <time>2018-08-19T10:13:46.000Z</time>
      </trkpt>
      <trkpt lat="45.30059" lon="4.46201">
        <ele>1115.9</ele>
        <time>2018-08-19T10:13:47.000Z</time>
      </trkpt>
      <trkpt lat="45.30059" lon="4.46198">
        <ele>1115.8</ele>
        <time>2018-08-19T10:13:48.000Z</time>
      </trkpt>
      <trkpt lat="45.30059" lon="4.46196">
        <ele>1115.7</ele>
        <time>2018-08-19T10:13:49.000Z</time>
      </trkpt>
      <trkpt lat="45.30059" lon="4.46194">
        <ele>1115.6</ele>
        <time>2018-08-19T10:13:50.000Z</time>
      </trkpt>
      <trkpt lat="45.30059" lon="4.46192">
        <ele>1115.5</ele>
        <time>2018-08-19T10:13:51.000Z</time>
      </trkpt>
      <trkpt lat="45.30059" lon="4.4619">
        <ele>1115.4</ele>
        <time>2018-08-19T10:13:52.000Z</time>
      </trkpt>
      <trkpt lat="45.30059" lon="4.46188">
        <ele>1115.2</ele>
        <time>2018-08-19T10:13:53.000Z</time>
      </trkpt>
      <trkpt lat="45.30059" lon="4.46186">
        <ele>1115.1</ele>
        <time>2018-08-19T10:13:54.000Z</time>
      </trkpt>
      <trkpt lat="45.30059" lon="4.46184">
        <ele>1114.9</ele>
        <time>2018-08-19T10:13:55.000Z</time>
      </trkpt>
      <trkpt lat="45.30059" lon="4.46182">
        <ele>1114.7</ele>
        <time>2018-08-19T10:13:56.000Z</time>
      </trkpt>
      <trkpt lat="45.30058" lon="4.4618">
        <ele>1114.6</ele>
        <time>2018-08-19T10:13:57.000Z</time>
      </trkpt>
      <trkpt lat="45.30058" lon="4.46178">
        <ele>1114.3</ele>
        <time>2018-08-19T10:13:58.000Z</time>
      </trkpt>
      <trkpt lat="45.30058" lon="4.46176">
        <ele>1114.1</ele>
        <time>2018-08-19T10:13:59.000Z</time>
      </trkpt>
      <trkpt lat="45.30057" lon="4.46174">
        <ele>1113.9</ele>
        <time>2018-08-19T10:14:00.000Z</time>
      </trkpt>
      <trkpt lat="45.30057" lon="4.46172">
        <ele>1113.6</ele>
        <time>2018-08-19T10:14:01.000Z</time>
      </trkpt>
      <trkpt lat="45.30056" lon="4.46171">
        <ele>1113.3</ele>
        <time>2018-08-19T10:14:02.000Z</time>
      </trkpt>
      <trkpt lat="45.30056" lon="4.46169">
        <ele>1113.1</ele>
        <time>2018-08-19T10:14:03.000Z</time>
      </trkpt>
      <trkpt lat="45.30055" lon="4.46167">
        <ele>1112.8</ele>
        <time>2018-08-19T10:14:04.000Z</time>
      </trkpt>
      <trkpt lat="45.30054" lon="4.46165">
        <ele>1112.5</ele>
        <time>2018-08-19T10:14:05.000Z</time>
      </trkpt>
      <trkpt lat="45.30054" lon="4.46163">
        <ele>1112.2</ele>
        <time>2018-08-19T10:14:06.000Z</time>
      </trkpt>
      <trkpt lat="45.30053" lon="4.46161">
        <ele>1111.9</ele>
        <time>2018-08-19T10:14:07.000Z</time>
      </trkpt>
      <trkpt lat="45.30053" lon="4.46159">
        <ele>1111.6</ele>
        <time>2018-08-19T10:14:08.000Z</time>
      </trkpt>
      <trkpt lat="45.30052" lon="4.46157">
        <ele>1111.4</ele>
        <time>2018-08-19T10:14:09.000Z</time>
      </trkpt>
      <trkpt lat="45.30052" lon="4.46155">
        <ele>1111.1</ele>
        <time>2018-08-19T10:14:10.000Z</time>
      </trkpt>
      <trkpt lat="45.30052" lon="4.46153">
        <ele>1110.8</ele>
        <time>2018-08-19T10:14:11.000Z</time>
      </trkpt>
      <trkpt lat="45.30051" lon="4.46151">
        <ele>1110.6</ele>
        <time>2018-08-19T10:14:12.000Z</time>
      </trkpt>
      <trkpt lat="45.30051" lon="4.46149">
        <ele>1110.3</ele>
        <time>2018-08-19T10:14:13.000Z</time>
      </trkpt>
      <trkpt lat="45.30051" lon="4.46147">
        <ele>1110.1</ele>
        <time>2018-08-19T10:14:14.000Z</time>
      </trkpt>
      <trkpt lat="45.30051" lon="4.46145">
        <ele>1109.9</ele>
        <time>2018-08-19T10:14:15.000Z</time>
      </trkpt>
      <trkpt lat="45.3005" lon="4.46143">
        <ele>1109.7</ele>
        <time>2018-08-19T10:14:16.000Z</time>
      </trkpt>
      <trkpt lat="45.3005" lon="4.46141">
        <ele>1109.5</ele>
        <time>2018-08-19T10:14:17.000Z</time>
      </trkpt>
      <trkpt lat="45.3005" lon="4.46139">
        <ele>1109.3</ele>
        <time>2018-08-19T10:14:18.000Z</time>
      </trkpt>
      <trkpt lat="45.3005" lon="4.46138">
        <ele>1109.2</ele>
        <time>2018-08-19T10:14:19.000Z</time>
      </trkpt>
      <trkpt lat="45.3005" lon="4.46136">
        <ele>1109</ele>
        <time>2018-08-19T10:14:20.000Z</time>
      </trkpt>
      <trkpt lat="45.3005" lon="4.46135">
        <ele>1108.9</ele>
        <time>2018-08-19T10:14:21.000Z</time>
      </trkpt>
      <trkpt lat="45.3005" lon="4.46134">
        <ele>1108.8</ele>
        <time>2018-08-19T10:14:22.000Z</time>
      </trkpt>
      <trkpt lat="45.3005" lon="4.46133">
        <ele>1108.7</ele>
        <time>2018-08-19T10:14:23.000Z</time>
      </trkpt>
      <trkpt lat="45.30049" lon="4.46132">
        <ele>1108.6</ele>
        <time>2018-08-19T10:14:24.000Z</time>
      </trkpt>
      <trkpt lat="45.30049" lon="4.46132">
        <ele>1108.5</ele>
        <time>2018-08-19T10:14:25.000Z</time>
      </trkpt>
      <trkpt lat="45.30049" lon="4.46131">
        <ele>1108.5</ele>
        <time>2018-08-19T10:14:26.000Z</time>
      </trkpt>
      <trkpt lat="45.30049" lon="4.46131">
        <ele>1108.4</ele>
        <time>2018-08-19T10:14:27.000Z</time>
      </trkpt>
      <trkpt lat="45.30049" lon="4.46131">
        <ele>1108.4</ele>
        <time>2018-08-19T10:14:28.000Z</time>
      </trkpt>
      <trkpt lat="45.30049" lon="4.46131">
        <ele>1108.3</ele>
        <time>2018-08-19T10:14:29.000Z</time>
      </trkpt>
      <trkpt lat="45.30049" lon="4.46131">
        <ele>1108.3</ele>
        <time>2018-08-19T10:14:30.000Z</time>
      </trkpt>
      <trkpt lat="45.30049" lon="4.46131">
        <ele>1108.3</ele>
        <time>2018-08-19T10:14:31.000Z</time>
      </trkpt>
      <trkpt lat="45.30049" lon="4.46131">
        <ele>1108.3</ele>
        <time>2018-08-19T10:14:32.000Z</time>
      </trkpt>
      <trkpt lat="45.30049" lon="4.46131">
        <ele>1108.3</ele>
        <time>2018-08-19T10:14:33.000Z</time>
      </trkpt>
      <trkpt lat="45.30049" lon="4.46131">
        <ele>1108.3</ele>
        <time>2018-08-19T10:14:34.000Z</time>
      </trkpt>
      <trkpt lat="45.30049" lon="4.46131">
        <ele>1108.3</ele>
        <time>2018-08-19T10:14:35.000Z</time>
      </trkpt>
      <trkpt lat="45.30049" lon="4.46131">
        <ele>1108.3</ele>
        <time>2018-08-19T10:14:36.000Z</time>
      </trkpt>
      <trkpt lat="45.30049" lon="4.46131">
        <ele>1108.3</ele>
        <time>2018-08-19T10:14:37.000Z</time>
      </trkpt>
      <trkpt lat="45.30049" lon="4.46131">
        <ele>1108.3</ele>
        <time>2018-08-19T10:14:38.000Z</time>
      </trkpt>
      <trkpt lat="45.30049" lon="4.46131">
        <ele>1108.3</ele>
        <time>2018-08-19T10:14:39.000Z</time>
      </trkpt>
      <trkpt lat="45.30049" lon="4.46131">
        <ele>1108.3</ele>
        <time>2018-08-19T10:14:40.000Z</time>
      </trkpt>
      <trkpt lat="45.30049" lon="4.4613">
        <ele>1108.3</ele>
        <time>2018-08-19T10:14:41.000Z</time>
      </trkpt>
      <trkpt lat="45.30049" lon="4.4613">
        <ele>1108.3</ele>
        <time>2018-08-19T10:14:42.000Z</time>
      </trkpt>
      <trkpt lat="45.30049" lon="4.4613">
        <ele>1108.3</ele>
        <time>2018-08-19T10:14:43.000Z</time>
      </trkpt>
      <trkpt lat="45.30049" lon="4.4613">
        <ele>1108.3</ele>
        <time>2018-08-19T10:14:44.000Z</time>
      </trkpt>
      <trkpt lat="45.30049" lon="4.4613">
        <ele>1108.3</ele>
        <time>2018-08-19T10:14:45.000Z</time>
      </trkpt>
      <trkpt lat="45.30049" lon="4.4613">
        <ele>1108.3</ele>
        <time>2018-08-19T10:14:46.000Z</time>
      </trkpt>
      <trkpt lat="45.30049" lon="4.4613">
        <ele>1108.3</ele>
        <time>2018-08-19T10:14:47.000Z</time>
      </trkpt>
      <trkpt lat="45.30049" lon="4.4613">
        <ele>1108.3</ele>
        <time>2018-08-19T10:14:48.000Z</time>
      </trkpt>
      <trkpt lat="45.30049" lon="4.4613">
        <ele>1108.3</ele>
        <time>2018-08-19T10:14:49.000Z</time>
      </trkpt>
      <trkpt lat="45.30049" lon="4.46131">
        <ele>1108.3</ele>
        <time>2018-08-19T10:14:50.000Z</time>
      </trkpt>
      <trkpt lat="45.30049" lon="4.46131">
        <ele>1108.3</ele>
        <time>2018-08-19T10:14:51.000Z</time>
      </trkpt>
      <trkpt lat="45.30049" lon="4.46131">
        <ele>1108.3</ele>
        <time>2018-08-19T10:14:52.000Z</time>
      </trkpt>
      <trkpt lat="45.30049" lon="4.46131">
        <ele>1108.3</ele>
        <time>2018-08-19T10:14:53.000Z</time>
      </trkpt>
      <trkpt lat="45.30049" lon="4.46131">
        <ele>1108.3</ele>
        <time>2018-08-19T10:14:54.000Z</time>
      </trkpt>
      <trkpt lat="45.30049" lon="4.46131">
        <ele>1108.3</ele>
        <time>2018-08-19T10:14:55.000Z</time>
      </trkpt>
      <trkpt lat="45.30049" lon="4.46131">
        <ele>1108.3</ele>
        <time>2018-08-19T10:14:56.000Z</time>
      </trkpt>
      <trkpt lat="45.30049" lon="4.46131">
        <ele>1108.3</ele>
        <time>2018-08-19T10:14:57.000Z</time>
      </trkpt>
      <trkpt lat="45.30049" lon="4.4613">
        <ele>1108.3</ele>
        <time>2018-08-19T10:14:58.000Z</time>
      </trkpt>
      <trkpt lat="45.30049" lon="4.4613">
        <ele>1108.3</ele>
        <time>2018-08-19T10:14:59.000Z</time>
      </trkpt>
      <trkpt lat="45.30049" lon="4.4613">
        <ele>1108.3</ele>
        <time>2018-08-19T10:15:00.000Z</time>
      </trkpt>
      <trkpt lat="45.30049" lon="4.4613">
        <ele>1108.3</ele>
        <time>2018-08-19T10:15:01.000Z</time>
      </trkpt>
      <trkpt lat="45.30049" lon="4.4613">
        <ele>1108.3</ele>
        <time>2018-08-19T10:15:02.000Z</time>
      </trkpt>
      <trkpt lat="45.30049" lon="4.4613">
        <ele>1108.3</ele>
        <time>2018-08-19T10:15:03.000Z</time>
      </trkpt>
      <trkpt lat="45.30049" lon="4.4613">
        <ele>1108.3</ele>
        <time>2018-08-19T10:15:04.000Z</time>
      </trkpt>
      <trkpt lat="45.30049" lon="4.4613">
        <ele>1108.3</ele>
        <time>2018-08-19T10:15:05.000Z</time>
      </trkpt>
      <trkpt lat="45.30049" lon="4.4613">
        <ele>1108.3</ele>
        <time>2018-08-19T10:15:06.000Z</time>
      </trkpt>
      <trkpt lat="45.30049" lon="4.4613">
        <ele>1108.3</ele>
        <time>2018-08-19T10:15:07.000Z</time>
      </trkpt>
      <trkpt lat="45.30049" lon="4.46129">
        <ele>1108.3</ele>
        <time>2018-08-19T10:15:08.000Z</time>
      </trkpt>
      <trkpt lat="45.30049" lon="4.46129">
        <ele>1108.3</ele>
        <time>2018-08-19T10:15:09.000Z</time>
      </trkpt>
      <trkpt lat="45.30049" lon="4.46129">
        <ele>1108.3</ele>
        <time>2018-08-19T10:15:10.000Z</time>
      </trkpt>
      <trkpt lat="45.30049" lon="4.46129">
        <ele>1108.3</ele>
        <time>2018-08-19T10:15:11.000Z</time>
      </trkpt>
      <trkpt lat="45.30049" lon="4.46129">
        <ele>1108.2</ele>
        <time>2018-08-19T10:15:12.000Z</time>
      </trkpt>
      <trkpt lat="45.30049" lon="4.46129">
        <ele>1108.2</ele>
        <time>2018-08-19T10:15:13.000Z</time>
      </trkpt>
      <trkpt lat="45.30049" lon="4.46128">
        <ele>1108.2</ele>
        <time>2018-08-19T10:15:14.000Z</time>
      </trkpt>
      <trkpt lat="45.30049" lon="4.46128">
        <ele>1108.2</ele>
        <time>2018-08-19T10:15:15.000Z</time>
      </trkpt>
      <trkpt lat="45.30049" lon="4.46128">
        <ele>1108.2</ele>
        <time>2018-08-19T10:15:16.000Z</time>
      </trkpt>
      <trkpt lat="45.30049" lon="4.46128">
        <ele>1108.2</ele>
        <time>2018-08-19T10:15:17.000Z</time>
      </trkpt>
      <trkpt lat="45.30049" lon="4.46128">
        <ele>1108.2</ele>
        <time>2018-08-19T10:15:18.000Z</time>
      </trkpt>
      <trkpt lat="45.30049" lon="4.46128">
        <ele>1108.2</ele>
        <time>2018-08-19T10:15:19.000Z</time>
      </trkpt>
      <trkpt lat="45.30049" lon="4.46128">
        <ele>1108.2</ele>
        <time>2018-08-19T10:15:20.000Z</time>
      </trkpt>
      <trkpt lat="45.30049" lon="4.46128">
        <ele>1108.2</ele>
        <time>2018-08-19T10:15:21.000Z</time>
      </trkpt>
      <trkpt lat="45.30049" lon="4.46128">
        <ele>1108.2</ele>
        <time>2018-08-19T10:15:22.000Z</time>
      </trkpt>
      <trkpt lat="45.30049" lon="4.46128">
        <ele>1108.2</ele>
        <time>2018-08-19T10:15:23.000Z</time>
      </trkpt>
      <trkpt lat="45.30049" lon="4.46128">
        <ele>1108.2</ele>
        <time>2018-08-19T10:15:24.000Z</time>
      </trkpt>
      <trkpt lat="45.30049" lon="4.46128">
        <ele>1108.2</ele>
        <time>2018-08-19T10:15:25.000Z</time>
      </trkpt>
      <trkpt lat="45.30049" lon="4.46128">
        <ele>1108.2</ele>
        <time>2018-08-19T10:15:26.000Z</time>
      </trkpt>
      <trkpt lat="45.30049" lon="4.46128">
        <ele>1108.2</ele>
        <time>2018-08-19T10:15:27.000Z</time>
      </trkpt>
      <trkpt lat="45.30049" lon="4.46128">
        <ele>1108.2</ele>
        <time>2018-08-19T10:15:28.000Z</time>
      </trkpt>
      <trkpt lat="45.30049" lon="4.46128">
        <ele>1108.2</ele>
        <time>2018-08-19T10:15:29.000Z</time>
      </trkpt>
      <trkpt lat="45.30049" lon="4.46128">
        <ele>1108.2</ele>
        <time>2018-08-19T10:15:30.000Z</time>
      </trkpt>
      <trkpt lat="45.30049" lon="4.46128">
        <ele>1108.2</ele>
        <time>2018-08-19T10:15:31.000Z</time>
      </trkpt>
      <trkpt lat="45.30049" lon="4.46128">
        <ele>1108.2</ele>
        <time>2018-08-19T10:15:32.000Z</time>
      </trkpt>
      <trkpt lat="45.30049" lon="4.46128">
        <ele>1108.2</ele>
        <time>2018-08-19T10:15:33.000Z</time>
      </trkpt>
      <trkpt lat="45.30049" lon="4.46128">
        <ele>1108.2</ele>
        <time>2018-08-19T10:15:34.000Z</time>
      </trkpt>
      <trkpt lat="45.30049" lon="4.46128">
        <ele>1108.2</ele>
        <time>2018-08-19T10:15:35.000Z</time>
      </trkpt>
      <trkpt lat="45.30049" lon="4.46128">
        <ele>1108.2</ele>
        <time>2018-08-19T10:15:36.000Z</time>
      </trkpt>
      <trkpt lat="45.30049" lon="4.46128">
        <ele>1108.2</ele>
        <time>2018-08-19T10:15:37.000Z</time>
      </trkpt>
      <trkpt lat="45.30049" lon="4.46128">
        <ele>1108.2</ele>
        <time>2018-08-19T10:15:38.000Z</time>
      </trkpt>
      <trkpt lat="45.30049" lon="4.46128">
        <ele>1108.2</ele>
        <time>2018-08-19T10:15:39.000Z</time>
      </trkpt>
      <trkpt lat="45.30049" lon="4.46128">
        <ele>1108.2</ele>
        <time>2018-08-19T10:15:40.000Z</time>
      </trkpt>
      <trkpt lat="45.30049" lon="4.46128">
        <ele>1108.2</ele>
        <time>2018-08-19T10:15:41.000Z</time>
      </trkpt>
      <trkpt lat="45.30049" lon="4.46128">
        <ele>1108.2</ele>
        <time>2018-08-19T10:15:42.000Z</time>
      </trkpt>
      <trkpt lat="45.30049" lon="4.46128">
        <ele>1108.2</ele>
        <time>2018-08-19T10:15:43.000Z</time>
      </trkpt>
      <trkpt lat="45.30049" lon="4.46128">
        <ele>1108.2</ele>
        <time>2018-08-19T10:15:44.000Z</time>
      </trkpt>
      <trkpt lat="45.30049" lon="4.46128">
        <ele>1108.2</ele>
        <time>2018-08-19T10:15:45.000Z</time>
      </trkpt>
      <trkpt lat="45.30049" lon="4.46128">
        <ele>1108.2</ele>
        <time>2018-08-19T10:15:46.000Z</time>
      </trkpt>
      <trkpt lat="45.30049" lon="4.46128">
        <ele>1108.2</ele>
        <time>2018-08-19T10:15:47.000Z</time>
      </trkpt>
      <trkpt lat="45.30049" lon="4.46128">
        <ele>1108.2</ele>
        <time>2018-08-19T10:15:48.000Z</time>
      </trkpt>
      <trkpt lat="45.30049" lon="4.46128">
        <ele>1108.2</ele>
        <time>2018-08-19T10:15:49.000Z</time>
      </trkpt>
      <trkpt lat="45.3005" lon="4.46127">
        <ele>1108.3</ele>
        <time>2018-08-19T10:15:50.000Z</time>
      </trkpt>
      <trkpt lat="45.3005" lon="4.46127">
        <ele>1108.3</ele>
        <time>2018-08-19T10:15:51.000Z</time>
      </trkpt>
      <trkpt lat="45.3005" lon="4.46126">
        <ele>1108.3</ele>
        <time>2018-08-19T10:15:52.000Z</time>
      </trkpt>
      <trkpt lat="45.3005" lon="4.46126">
        <ele>1108.2</ele>
        <time>2018-08-19T10:15:53.000Z</time>
      </trkpt>
      <trkpt lat="45.3005" lon="4.46126">
        <ele>1108.1</ele>
        <time>2018-08-19T10:15:54.000Z</time>
      </trkpt>
      <trkpt lat="45.30049" lon="4.46125">
        <ele>1108</ele>
        <time>2018-08-19T10:15:55.000Z</time>
      </trkpt>
      <trkpt lat="45.30048" lon="4.46125">
        <ele>1107.8</ele>
        <time>2018-08-19T10:15:56.000Z</time>
      </trkpt>
      <trkpt lat="45.30048" lon="4.46125">
        <ele>1107.6</ele>
        <time>2018-08-19T10:15:57.000Z</time>
      </trkpt>
      <trkpt lat="45.30047" lon="4.46126">
        <ele>1107.3</ele>
        <time>2018-08-19T10:15:58.000Z</time>
      </trkpt>
      <trkpt lat="45.30046" lon="4.46126">
        <ele>1107.2</ele>
        <time>2018-08-19T10:15:59.000Z</time>
      </trkpt>
      <trkpt lat="45.30045" lon="4.46127">
        <ele>1107</ele>
        <time>2018-08-19T10:16:00.000Z</time>
      </trkpt>
      <trkpt lat="45.30044" lon="4.46128">
        <ele>1106.8</ele>
        <time>2018-08-19T10:16:01.000Z</time>
      </trkpt>
      <trkpt lat="45.30043" lon="4.4613">
        <ele>1106.7</ele>
        <time>2018-08-19T10:16:02.000Z</time>
      </trkpt>
      <trkpt lat="45.30042" lon="4.46131">
        <ele>1106.6</ele>
        <time>2018-08-19T10:16:03.000Z</time>
      </trkpt>
      <trkpt lat="45.30041" lon="4.46132">
        <ele>1106.4</ele>
        <time>2018-08-19T10:16:04.000Z</time>
      </trkpt>
      <trkpt lat="45.30041" lon="4.46133">
        <ele>1106.3</ele>
        <time>2018-08-19T10:16:05.000Z</time>
      </trkpt>
      <trkpt lat="45.3004" lon="4.46135">
        <ele>1106.2</ele>
        <time>2018-08-19T10:16:06.000Z</time>
      </trkpt>
      <trkpt lat="45.30039" lon="4.46136">
        <ele>1106.1</ele>
        <time>2018-08-19T10:16:07.000Z</time>
      </trkpt>
      <trkpt lat="45.30038" lon="4.46138">
        <ele>1106</ele>
        <time>2018-08-19T10:16:08.000Z</time>
      </trkpt>
      <trkpt lat="45.30038" lon="4.4614">
        <ele>1105.9</ele>
        <time>2018-08-19T10:16:09.000Z</time>
      </trkpt>
      <trkpt lat="45.30037" lon="4.46141">
        <ele>1105.9</ele>
        <time>2018-08-19T10:16:10.000Z</time>
      </trkpt>
      <trkpt lat="45.30036" lon="4.46143">
        <ele>1105.8</ele>
        <time>2018-08-19T10:16:11.000Z</time>
      </trkpt>
      <trkpt lat="45.30036" lon="4.46145">
        <ele>1105.8</ele>
        <time>2018-08-19T10:16:12.000Z</time>
      </trkpt>
      <trkpt lat="45.30035" lon="4.46146">
        <ele>1105.7</ele>
        <time>2018-08-19T10:16:13.000Z</time>
      </trkpt>
      <trkpt lat="45.30035" lon="4.46148">
        <ele>1105.7</ele>
        <time>2018-08-19T10:16:14.000Z</time>
      </trkpt>
      <trkpt lat="45.30034" lon="4.4615">
        <ele>1105.7</ele>
        <time>2018-08-19T10:16:15.000Z</time>
      </trkpt>
      <trkpt lat="45.30033" lon="4.46152">
        <ele>1105.6</ele>
        <time>2018-08-19T10:16:16.000Z</time>
      </trkpt>
      <trkpt lat="45.30033" lon="4.46154">
        <ele>1105.6</ele>
        <time>2018-08-19T10:16:17.000Z</time>
      </trkpt>
      <trkpt lat="45.30032" lon="4.46156">
        <ele>1105.6</ele>
        <time>2018-08-19T10:16:18.000Z</time>
      </trkpt>
      <trkpt lat="45.30032" lon="4.46158">
        <ele>1105.5</ele>
        <time>2018-08-19T10:16:19.000Z</time>
      </trkpt>
      <trkpt lat="45.30031" lon="4.4616">
        <ele>1105.5</ele>
        <time>2018-08-19T10:16:20.000Z</time>
      </trkpt>
      <trkpt lat="45.30031" lon="4.46162">
        <ele>1105.4</ele>
        <time>2018-08-19T10:16:21.000Z</time>
      </trkpt>
      <trkpt lat="45.3003" lon="4.46163">
        <ele>1105.4</ele>
        <time>2018-08-19T10:16:22.000Z</time>
      </trkpt>
      <trkpt lat="45.30029" lon="4.46165">
        <ele>1105.3</ele>
        <time>2018-08-19T10:16:23.000Z</time>
      </trkpt>
      <trkpt lat="45.30029" lon="4.46167">
        <ele>1105.3</ele>
        <time>2018-08-19T10:16:24.000Z</time>
      </trkpt>
      <trkpt lat="45.30028" lon="4.46169">
        <ele>1105.2</ele>
        <time>2018-08-19T10:16:25.000Z</time>
      </trkpt>
      <trkpt lat="45.30027" lon="4.46171">
        <ele>1105.1</ele>
        <time>2018-08-19T10:16:26.000Z</time>
      </trkpt>
      <trkpt lat="45.30027" lon="4.46173">
        <ele>1105</ele>
        <time>2018-08-19T10:16:27.000Z</time>
      </trkpt>
      <trkpt lat="45.30026" lon="4.46175">
        <ele>1104.9</ele>
        <time>2018-08-19T10:16:28.000Z</time>
      </trkpt>
      <trkpt lat="45.30025" lon="4.46177">
        <ele>1104.8</ele>
        <time>2018-08-19T10:16:29.000Z</time>
      </trkpt>
      <trkpt lat="45.30025" lon="4.46178">
        <ele>1104.7</ele>
        <time>2018-08-19T10:16:30.000Z</time>
      </trkpt>
      <trkpt lat="45.30024" lon="4.4618">
        <ele>1104.7</ele>
        <time>2018-08-19T10:16:31.000Z</time>
      </trkpt>
      <trkpt lat="45.30024" lon="4.46182">
        <ele>1104.6</ele>
        <time>2018-08-19T10:16:32.000Z</time>
      </trkpt>
      <trkpt lat="45.30023" lon="4.46184">
        <ele>1104.5</ele>
        <time>2018-08-19T10:16:33.000Z</time>
      </trkpt>
      <trkpt lat="45.30023" lon="4.46186">
        <ele>1104.5</ele>
        <time>2018-08-19T10:16:34.000Z</time>
      </trkpt>
      <trkpt lat="45.30022" lon="4.46188">
        <ele>1104.5</ele>
        <time>2018-08-19T10:16:35.000Z</time>
      </trkpt>
      <trkpt lat="45.30022" lon="4.4619">
        <ele>1104.4</ele>
        <time>2018-08-19T10:16:36.000Z</time>
      </trkpt>
      <trkpt lat="45.30021" lon="4.46192">
        <ele>1104.4</ele>
        <time>2018-08-19T10:16:37.000Z</time>
      </trkpt>
      <trkpt lat="45.30021" lon="4.46194">
        <ele>1104.4</ele>
        <time>2018-08-19T10:16:38.000Z</time>
      </trkpt>
      <trkpt lat="45.30021" lon="4.46196">
        <ele>1104.4</ele>
        <time>2018-08-19T10:16:39.000Z</time>
      </trkpt>
      <trkpt lat="45.3002" lon="4.46198">
        <ele>1104.4</ele>
        <time>2018-08-19T10:16:40.000Z</time>
      </trkpt>
      <trkpt lat="45.3002" lon="4.462">
        <ele>1104.4</ele>
        <time>2018-08-19T10:16:41.000Z</time>
      </trkpt>
      <trkpt lat="45.3002" lon="4.46202">
        <ele>1104.4</ele>
        <time>2018-08-19T10:16:42.000Z</time>
      </trkpt>
      <trkpt lat="45.30019" lon="4.46204">
        <ele>1104.4</ele>
        <time>2018-08-19T10:16:43.000Z</time>
      </trkpt>
      <trkpt lat="45.30019" lon="4.46206">
        <ele>1104.4</ele>
        <time>2018-08-19T10:16:44.000Z</time>
      </trkpt>
      <trkpt lat="45.30019" lon="4.46208">
        <ele>1104.5</ele>
        <time>2018-08-19T10:16:45.000Z</time>
      </trkpt>
      <trkpt lat="45.30019" lon="4.4621">
        <ele>1104.5</ele>
        <time>2018-08-19T10:16:46.000Z</time>
      </trkpt>
      <trkpt lat="45.30018" lon="4.46212">
        <ele>1104.5</ele>
        <time>2018-08-19T10:16:47.000Z</time>
      </trkpt>
      <trkpt lat="45.30018" lon="4.46214">
        <ele>1104.5</ele>
        <time>2018-08-19T10:16:48.000Z</time>
      </trkpt>
      <trkpt lat="45.30018" lon="4.46216">
        <ele>1104.6</ele>
        <time>2018-08-19T10:16:49.000Z</time>
      </trkpt>
      <trkpt lat="45.30017" lon="4.46218">
        <ele>1104.6</ele>
        <time>2018-08-19T10:16:50.000Z</time>
      </trkpt>
      <trkpt lat="45.30017" lon="4.4622">
        <ele>1104.6</ele>
        <time>2018-08-19T10:16:51.000Z</time>
      </trkpt>
      <trkpt lat="45.30017" lon="4.46222">
        <ele>1104.6</ele>
        <time>2018-08-19T10:16:52.000Z</time>
      </trkpt>
      <trkpt lat="45.30017" lon="4.46224">
        <ele>1104.7</ele>
        <time>2018-08-19T10:16:53.000Z</time>
      </trkpt>
      <trkpt lat="45.30017" lon="4.46226">
        <ele>1104.7</ele>
        <time>2018-08-19T10:16:54.000Z</time>
      </trkpt>
      <trkpt lat="45.30016" lon="4.46228">
        <ele>1104.8</ele>
        <time>2018-08-19T10:16:55.000Z</time>
      </trkpt>
      <trkpt lat="45.30016" lon="4.4623">
        <ele>1104.8</ele>
        <time>2018-08-19T10:16:56.000Z</time>
      </trkpt>
      <trkpt lat="45.30016" lon="4.46232">
        <ele>1104.8</ele>
        <time>2018-08-19T10:16:57.000Z</time>
      </trkpt>
      <trkpt lat="45.30016" lon="4.46234">
        <ele>1104.9</ele>
        <time>2018-08-19T10:16:58.000Z</time>
      </trkpt>
      <trkpt lat="45.30016" lon="4.46236">
        <ele>1105</ele>
        <time>2018-08-19T10:16:59.000Z</time>
      </trkpt>
      <trkpt lat="45.30016" lon="4.46238">
        <ele>1105</ele>
        <time>2018-08-19T10:17:00.000Z</time>
      </trkpt>
      <trkpt lat="45.30015" lon="4.4624">
        <ele>1105.1</ele>
        <time>2018-08-19T10:17:01.000Z</time>
      </trkpt>
      <trkpt lat="45.30015" lon="4.46242">
        <ele>1105.2</ele>
        <time>2018-08-19T10:17:02.000Z</time>
      </trkpt>
      <trkpt lat="45.30015" lon="4.46244">
        <ele>1105.2</ele>
        <time>2018-08-19T10:17:03.000Z</time>
      </trkpt>
      <trkpt lat="45.30015" lon="4.46246">
        <ele>1105.3</ele>
        <time>2018-08-19T10:17:04.000Z</time>
      </trkpt>
      <trkpt lat="45.30015" lon="4.46248">
        <ele>1105.4</ele>
        <time>2018-08-19T10:17:05.000Z</time>
      </trkpt>
      <trkpt lat="45.30015" lon="4.4625">
        <ele>1105.5</ele>
        <time>2018-08-19T10:17:06.000Z</time>
      </trkpt>
      <trkpt lat="45.30015" lon="4.46252">
        <ele>1105.5</ele>
        <time>2018-08-19T10:17:07.000Z</time>
      </trkpt>
      <trkpt lat="45.30015" lon="4.46254">
        <ele>1105.5</ele>
        <time>2018-08-19T10:17:08.000Z</time>
      </trkpt>
      <trkpt lat="45.30015" lon="4.46256">
        <ele>1105.6</ele>
        <time>2018-08-19T10:17:09.000Z</time>
      </trkpt>
      <trkpt lat="45.30015" lon="4.46259">
        <ele>1105.6</ele>
        <time>2018-08-19T10:17:10.000Z</time>
      </trkpt>
      <trkpt lat="45.30015" lon="4.46261">
        <ele>1105.6</ele>
        <time>2018-08-19T10:17:11.000Z</time>
      </trkpt>
      <trkpt lat="45.30015" lon="4.46263">
        <ele>1105.6</ele>
        <time>2018-08-19T10:17:12.000Z</time>
      </trkpt>
      <trkpt lat="45.30015" lon="4.46265">
        <ele>1105.6</ele>
        <time>2018-08-19T10:17:13.000Z</time>
      </trkpt>
      <trkpt lat="45.30015" lon="4.46267">
        <ele>1105.7</ele>
        <time>2018-08-19T10:17:14.000Z</time>
      </trkpt>
      <trkpt lat="45.30015" lon="4.46269">
        <ele>1105.7</ele>
        <time>2018-08-19T10:17:15.000Z</time>
      </trkpt>
      <trkpt lat="45.30015" lon="4.46271">
        <ele>1105.7</ele>
        <time>2018-08-19T10:17:16.000Z</time>
      </trkpt>
      <trkpt lat="45.30015" lon="4.46273">
        <ele>1105.7</ele>
        <time>2018-08-19T10:17:17.000Z</time>
      </trkpt>
      <trkpt lat="45.30015" lon="4.46275">
        <ele>1105.7</ele>
        <time>2018-08-19T10:17:18.000Z</time>
      </trkpt>
      <trkpt lat="45.30015" lon="4.46278">
        <ele>1105.7</ele>
        <time>2018-08-19T10:17:19.000Z</time>
      </trkpt>
      <trkpt lat="45.30015" lon="4.4628">
        <ele>1105.7</ele>
        <time>2018-08-19T10:17:20.000Z</time>
      </trkpt>
      <trkpt lat="45.30015" lon="4.46282">
        <ele>1105.7</ele>
        <time>2018-08-19T10:17:21.000Z</time>
      </trkpt>
      <trkpt lat="45.30015" lon="4.46284">
        <ele>1105.7</ele>
        <time>2018-08-19T10:17:22.000Z</time>
      </trkpt>
      <trkpt lat="45.30015" lon="4.46286">
        <ele>1105.7</ele>
        <time>2018-08-19T10:17:23.000Z</time>
      </trkpt>
      <trkpt lat="45.30014" lon="4.46288">
        <ele>1105.7</ele>
        <time>2018-08-19T10:17:24.000Z</time>
      </trkpt>
      <trkpt lat="45.30014" lon="4.4629">
        <ele>1105.7</ele>
        <time>2018-08-19T10:17:25.000Z</time>
      </trkpt>
      <trkpt lat="45.30014" lon="4.46292">
        <ele>1105.6</ele>
        <time>2018-08-19T10:17:26.000Z</time>
      </trkpt>
      <trkpt lat="45.30014" lon="4.46294">
        <ele>1105.6</ele>
        <time>2018-08-19T10:17:27.000Z</time>
      </trkpt>
      <trkpt lat="45.30014" lon="4.46296">
        <ele>1105.6</ele>
        <time>2018-08-19T10:17:28.000Z</time>
      </trkpt>
      <trkpt lat="45.30013" lon="4.46298">
        <ele>1105.5</ele>
        <time>2018-08-19T10:17:29.000Z</time>
      </trkpt>
      <trkpt lat="45.30013" lon="4.463">
        <ele>1105.4</ele>
        <time>2018-08-19T10:17:30.000Z</time>
      </trkpt>
      <trkpt lat="45.30013" lon="4.46302">
        <ele>1105.3</ele>
        <time>2018-08-19T10:17:31.000Z</time>
      </trkpt>
      <trkpt lat="45.30012" lon="4.46304">
        <ele>1105.2</ele>
        <time>2018-08-19T10:17:32.000Z</time>
      </trkpt>
      <trkpt lat="45.30011" lon="4.46305">
        <ele>1105.1</ele>
        <time>2018-08-19T10:17:33.000Z</time>
      </trkpt>
      <trkpt lat="45.3001" lon="4.46307">
        <ele>1104.9</ele>
        <time>2018-08-19T10:17:34.000Z</time>
      </trkpt>
      <trkpt lat="45.30009" lon="4.46308">
        <ele>1104.6</ele>
        <time>2018-08-19T10:17:35.000Z</time>
      </trkpt>
      <trkpt lat="45.30008" lon="4.46309">
        <ele>1104.4</ele>
        <time>2018-08-19T10:17:36.000Z</time>
      </trkpt>
      <trkpt lat="45.30007" lon="4.4631">
        <ele>1104.1</ele>
        <time>2018-08-19T10:17:37.000Z</time>
      </trkpt>
      <trkpt lat="45.30006" lon="4.46311">
        <ele>1103.8</ele>
        <time>2018-08-19T10:17:38.000Z</time>
      </trkpt>
      <trkpt lat="45.30004" lon="4.46312">
        <ele>1103.5</ele>
        <time>2018-08-19T10:17:39.000Z</time>
      </trkpt>
      <trkpt lat="45.30003" lon="4.46312">
        <ele>1103.2</ele>
        <time>2018-08-19T10:17:40.000Z</time>
      </trkpt>
      <trkpt lat="45.30001" lon="4.46312">
        <ele>1102.8</ele>
        <time>2018-08-19T10:17:41.000Z</time>
      </trkpt>
      <trkpt lat="45.3" lon="4.46312">
        <ele>1102.5</ele>
        <time>2018-08-19T10:17:42.000Z</time>
      </trkpt>
      <trkpt lat="45.29999" lon="4.46312">
        <ele>1102.7</ele>
        <time>2018-08-19T10:17:43.000Z</time>
      </trkpt>
      <trkpt lat="45.29997" lon="4.46312">
        <ele>1102.9</ele>
        <time>2018-08-19T10:17:44.000Z</time>
      </trkpt>
      <trkpt lat="45.29996" lon="4.46311">
        <ele>1103.1</ele>
        <time>2018-08-19T10:17:45.000Z</time>
      </trkpt>
      <trkpt lat="45.29994" lon="4.46311">
        <ele>1103.3</ele>
        <time>2018-08-19T10:17:46.000Z</time>
      </trkpt>
      <trkpt lat="45.29993" lon="4.4631">
        <ele>1103.5</ele>
        <time>2018-08-19T10:17:47.000Z</time>
      </trkpt>
      <trkpt lat="45.29992" lon="4.46309">
        <ele>1103.6</ele>
        <time>2018-08-19T10:17:48.000Z</time>
      </trkpt>
      <trkpt lat="45.29991" lon="4.46308">
        <ele>1103.7</ele>
        <time>2018-08-19T10:17:49.000Z</time>
      </trkpt>
      <trkpt lat="45.29989" lon="4.46306">
        <ele>1103.9</ele>
        <time>2018-08-19T10:17:50.000Z</time>
      </trkpt>
      <trkpt lat="45.29988" lon="4.46305">
        <ele>1103.9</ele>
        <time>2018-08-19T10:17:51.000Z</time>
      </trkpt>
      <trkpt lat="45.29987" lon="4.46303">
        <ele>1104</ele>
        <time>2018-08-19T10:17:52.000Z</time>
      </trkpt>
      <trkpt lat="45.29986" lon="4.46301">
        <ele>1104.1</ele>
        <time>2018-08-19T10:17:53.000Z</time>
      </trkpt>
      <trkpt lat="45.29986" lon="4.463">
        <ele>1104.1</ele>
        <time>2018-08-19T10:17:54.000Z</time>
      </trkpt>
      <trkpt lat="45.29985" lon="4.46298">
        <ele>1104.1</ele>
        <time>2018-08-19T10:17:55.000Z</time>
      </trkpt>
      <trkpt lat="45.29984" lon="4.46296">
        <ele>1104.1</ele>
        <time>2018-08-19T10:17:56.000Z</time>
      </trkpt>
      <trkpt lat="45.29983" lon="4.46294">
        <ele>1104.1</ele>
        <time>2018-08-19T10:17:57.000Z</time>
      </trkpt>
      <trkpt lat="45.29983" lon="4.46292">
        <ele>1104.1</ele>
        <time>2018-08-19T10:17:58.000Z</time>
      </trkpt>
      <trkpt lat="45.29982" lon="4.4629">
        <ele>1104.1</ele>
        <time>2018-08-19T10:17:59.000Z</time>
      </trkpt>
      <trkpt lat="45.29982" lon="4.46288">
        <ele>1104</ele>
        <time>2018-08-19T10:18:00.000Z</time>
      </trkpt>
      <trkpt lat="45.29981" lon="4.46286">
        <ele>1104</ele>
        <time>2018-08-19T10:18:01.000Z</time>
      </trkpt>
      <trkpt lat="45.2998" lon="4.46285">
        <ele>1104</ele>
        <time>2018-08-19T10:18:02.000Z</time>
      </trkpt>
      <trkpt lat="45.2998" lon="4.46283">
        <ele>1103.9</ele>
        <time>2018-08-19T10:18:03.000Z</time>
      </trkpt>
      <trkpt lat="45.29979" lon="4.46281">
        <ele>1103.9</ele>
        <time>2018-08-19T10:18:04.000Z</time>
      </trkpt>
      <trkpt lat="45.29979" lon="4.46279">
        <ele>1103.8</ele>
        <time>2018-08-19T10:18:05.000Z</time>
      </trkpt>
      <trkpt lat="45.29978" lon="4.46277">
        <ele>1103.8</ele>
        <time>2018-08-19T10:18:06.000Z</time>
      </trkpt>
      <trkpt lat="45.29978" lon="4.46275">
        <ele>1103.7</ele>
        <time>2018-08-19T10:18:07.000Z</time>
      </trkpt>
      <trkpt lat="45.29977" lon="4.46273">
        <ele>1103.7</ele>
        <time>2018-08-19T10:18:08.000Z</time>
      </trkpt>
      <trkpt lat="45.29977" lon="4.46271">
        <ele>1103.6</ele>
        <time>2018-08-19T10:18:09.000Z</time>
      </trkpt>
      <trkpt lat="45.29976" lon="4.46269">
        <ele>1103.6</ele>
        <time>2018-08-19T10:18:10.000Z</time>
      </trkpt>
      <trkpt lat="45.29976" lon="4.46267">
        <ele>1103.5</ele>
        <time>2018-08-19T10:18:11.000Z</time>
      </trkpt>
      <trkpt lat="45.29975" lon="4.46266">
        <ele>1103.4</ele>
        <time>2018-08-19T10:18:12.000Z</time>
      </trkpt>
      <trkpt lat="45.29975" lon="4.46264">
        <ele>1103.4</ele>
        <time>2018-08-19T10:18:13.000Z</time>
      </trkpt>
      <trkpt lat="45.29974" lon="4.46262">
        <ele>1103.3</ele>
        <time>2018-08-19T10:18:14.000Z</time>
      </trkpt>
      <trkpt lat="45.29973" lon="4.4626">
        <ele>1103.2</ele>
        <time>2018-08-19T10:18:15.000Z</time>
      </trkpt>
      <trkpt lat="45.29973" lon="4.46258">
        <ele>1103.1</ele>
        <time>2018-08-19T10:18:16.000Z</time>
      </trkpt>
      <trkpt lat="45.29972" lon="4.46256">
        <ele>1103.1</ele>
        <time>2018-08-19T10:18:17.000Z</time>
      </trkpt>
      <trkpt lat="45.29972" lon="4.46254">
        <ele>1103</ele>
        <time>2018-08-19T10:18:18.000Z</time>
      </trkpt>
      <trkpt lat="45.29971" lon="4.46252">
        <ele>1102.9</ele>
        <time>2018-08-19T10:18:19.000Z</time>
      </trkpt>
      <trkpt lat="45.29971" lon="4.46251">
        <ele>1102.8</ele>
        <time>2018-08-19T10:18:20.000Z</time>
      </trkpt>
      <trkpt lat="45.2997" lon="4.46249">
        <ele>1102.7</ele>
        <time>2018-08-19T10:18:21.000Z</time>
      </trkpt>
      <trkpt lat="45.2997" lon="4.46247">
        <ele>1102.6</ele>
        <time>2018-08-19T10:18:22.000Z</time>
      </trkpt>
      <trkpt lat="45.29969" lon="4.46245">
        <ele>1102.5</ele>
        <time>2018-08-19T10:18:23.000Z</time>
      </trkpt>
      <trkpt lat="45.29969" lon="4.46243">
        <ele>1102.4</ele>
        <time>2018-08-19T10:18:24.000Z</time>
      </trkpt>
      <trkpt lat="45.29968" lon="4.46241">
        <ele>1102.3</ele>
        <time>2018-08-19T10:18:25.000Z</time>
      </trkpt>
      <trkpt lat="45.29967" lon="4.46239">
        <ele>1102.2</ele>
        <time>2018-08-19T10:18:26.000Z</time>
      </trkpt>
      <trkpt lat="45.29967" lon="4.46237">
        <ele>1102.1</ele>
        <time>2018-08-19T10:18:27.000Z</time>
      </trkpt>
      <trkpt lat="45.29966" lon="4.46235">
        <ele>1102</ele>
        <time>2018-08-19T10:18:28.000Z</time>
      </trkpt>
      <trkpt lat="45.29966" lon="4.46234">
        <ele>1101.9</ele>
        <time>2018-08-19T10:18:29.000Z</time>
      </trkpt>
      <trkpt lat="45.29965" lon="4.46232">
        <ele>1101.7</ele>
        <time>2018-08-19T10:18:30.000Z</time>
      </trkpt>
      <trkpt lat="45.29965" lon="4.4623">
        <ele>1101.6</ele>
        <time>2018-08-19T10:18:31.000Z</time>
      </trkpt>
      <trkpt lat="45.29964" lon="4.46228">
        <ele>1101.5</ele>
        <time>2018-08-19T10:18:32.000Z</time>
      </trkpt>
      <trkpt lat="45.29964" lon="4.46226">
        <ele>1101.4</ele>
        <time>2018-08-19T10:18:33.000Z</time>
      </trkpt>
      <trkpt lat="45.29963" lon="4.46224">
        <ele>1101.3</ele>
        <time>2018-08-19T10:18:34.000Z</time>
      </trkpt>
      <trkpt lat="45.29963" lon="4.46222">
        <ele>1101.2</ele>
        <time>2018-08-19T10:18:35.000Z</time>
      </trkpt>
      <trkpt lat="45.29962" lon="4.4622">
        <ele>1101</ele>
        <time>2018-08-19T10:18:36.000Z</time>
      </trkpt>
      <trkpt lat="45.29961" lon="4.46218">
        <ele>1100.9</ele>
        <time>2018-08-19T10:18:37.000Z</time>
      </trkpt>
      <trkpt lat="45.29961" lon="4.46217">
        <ele>1100.8</ele>
        <time>2018-08-19T10:18:38.000Z</time>
      </trkpt>
      <trkpt lat="45.2996" lon="4.46215">
        <ele>1100.7</ele>
        <time>2018-08-19T10:18:39.000Z</time>
      </trkpt>
      <trkpt lat="45.2996" lon="4.46213">
        <ele>1100.5</ele>
        <time>2018-08-19T10:18:40.000Z</time>
      </trkpt>
      <trkpt lat="45.29959" lon="4.46211">
        <ele>1100.4</ele>
        <time>2018-08-19T10:18:41.000Z</time>
      </trkpt>
      <trkpt lat="45.29959" lon="4.46209">
        <ele>1100.3</ele>
        <time>2018-08-19T10:18:42.000Z</time>
      </trkpt>
      <trkpt lat="45.29958" lon="4.46207">
        <ele>1100.2</ele>
        <time>2018-08-19T10:18:43.000Z</time>
      </trkpt>
      <trkpt lat="45.29957" lon="4.46205">
        <ele>1100</ele>
        <time>2018-08-19T10:18:44.000Z</time>
      </trkpt>
      <trkpt lat="45.29957" lon="4.46203">
        <ele>1099.9</ele>
        <time>2018-08-19T10:18:45.000Z</time>
      </trkpt>
      <trkpt lat="45.29956" lon="4.46201">
        <ele>1099.8</ele>
        <time>2018-08-19T10:18:46.000Z</time>
      </trkpt>
      <trkpt lat="45.29956" lon="4.46199">
        <ele>1099.6</ele>
        <time>2018-08-19T10:18:47.000Z</time>
      </trkpt>
      <trkpt lat="45.29955" lon="4.46198">
        <ele>1099.5</ele>
        <time>2018-08-19T10:18:48.000Z</time>
      </trkpt>
      <trkpt lat="45.29955" lon="4.46196">
        <ele>1099.3</ele>
        <time>2018-08-19T10:18:49.000Z</time>
      </trkpt>
      <trkpt lat="45.29954" lon="4.46194">
        <ele>1099.2</ele>
        <time>2018-08-19T10:18:50.000Z</time>
      </trkpt>
      <trkpt lat="45.29953" lon="4.46192">
        <ele>1099</ele>
        <time>2018-08-19T10:18:51.000Z</time>
      </trkpt>
      <trkpt lat="45.29953" lon="4.4619">
        <ele>1098.9</ele>
        <time>2018-08-19T10:18:52.000Z</time>
      </trkpt>
      <trkpt lat="45.29952" lon="4.46188">
        <ele>1098.8</ele>
        <time>2018-08-19T10:18:53.000Z</time>
      </trkpt>
      <trkpt lat="45.29952" lon="4.46186">
        <ele>1098.6</ele>
        <time>2018-08-19T10:18:54.000Z</time>
      </trkpt>
      <trkpt lat="45.29951" lon="4.46184">
        <ele>1098.5</ele>
        <time>2018-08-19T10:18:55.000Z</time>
      </trkpt>
      <trkpt lat="45.29951" lon="4.46183">
        <ele>1098.3</ele>
        <time>2018-08-19T10:18:56.000Z</time>
      </trkpt>
      <trkpt lat="45.2995" lon="4.46181">
        <ele>1098.2</ele>
        <time>2018-08-19T10:18:57.000Z</time>
      </trkpt>
      <trkpt lat="45.2995" lon="4.46179">
        <ele>1098</ele>
        <time>2018-08-19T10:18:58.000Z</time>
      </trkpt>
      <trkpt lat="45.29949" lon="4.46177">
        <ele>1097.9</ele>
        <time>2018-08-19T10:18:59.000Z</time>
      </trkpt>
      <trkpt lat="45.29949" lon="4.46175">
        <ele>1097.7</ele>
        <time>2018-08-19T10:19:00.000Z</time>
      </trkpt>
      <trkpt lat="45.29948" lon="4.46174">
        <ele>1097.6</ele>
        <time>2018-08-19T10:19:01.000Z</time>
      </trkpt>
      <trkpt lat="45.29948" lon="4.46172">
        <ele>1097.4</ele>
        <time>2018-08-19T10:19:02.000Z</time>
      </trkpt>
      <trkpt lat="45.29947" lon="4.4617">
        <ele>1097.3</ele>
        <time>2018-08-19T10:19:03.000Z</time>
      </trkpt>
      <trkpt lat="45.29947" lon="4.46168">
        <ele>1097.1</ele>
        <time>2018-08-19T10:19:04.000Z</time>
      </trkpt>
      <trkpt lat="45.29946" lon="4.46167">
        <ele>1097</ele>
        <time>2018-08-19T10:19:05.000Z</time>
      </trkpt>
      <trkpt lat="45.29946" lon="4.46165">
        <ele>1096.9</ele>
        <time>2018-08-19T10:19:06.000Z</time>
      </trkpt>
      <trkpt lat="45.29945" lon="4.46163">
        <ele>1096.8</ele>
        <time>2018-08-19T10:19:07.000Z</time>
      </trkpt>
      <trkpt lat="45.29945" lon="4.46162">
        <ele>1096.6</ele>
        <time>2018-08-19T10:19:08.000Z</time>
      </trkpt>
      <trkpt lat="45.29944" lon="4.4616">
        <ele>1096.5</ele>
        <time>2018-08-19T10:19:09.000Z</time>
      </trkpt>
      <trkpt lat="45.29944" lon="4.46158">
        <ele>1096.4</ele>
        <time>2018-08-19T10:19:10.000Z</time>
      </trkpt>
      <trkpt lat="45.29943" lon="4.46156">
        <ele>1096.2</ele>
        <time>2018-08-19T10:19:11.000Z</time>
      </trkpt>
      <trkpt lat="45.29943" lon="4.46154">
        <ele>1096.1</ele>
        <time>2018-08-19T10:19:12.000Z</time>
      </trkpt>
      <trkpt lat="45.29942" lon="4.46153">
        <ele>1096</ele>
        <time>2018-08-19T10:19:13.000Z</time>
      </trkpt>
      <trkpt lat="45.29942" lon="4.46151">
        <ele>1095.8</ele>
        <time>2018-08-19T10:19:14.000Z</time>
      </trkpt>
      <trkpt lat="45.29941" lon="4.46149">
        <ele>1095.7</ele>
        <time>2018-08-19T10:19:15.000Z</time>
      </trkpt>
      <trkpt lat="45.2994" lon="4.46147">
        <ele>1095.5</ele>
        <time>2018-08-19T10:19:16.000Z</time>
      </trkpt>
      <trkpt lat="45.2994" lon="4.46145">
        <ele>1095.4</ele>
        <time>2018-08-19T10:19:17.000Z</time>
      </trkpt>
      <trkpt lat="45.29939" lon="4.46143">
        <ele>1095.2</ele>
        <time>2018-08-19T10:19:18.000Z</time>
      </trkpt>
      <trkpt lat="45.29939" lon="4.46141">
        <ele>1095.1</ele>
        <time>2018-08-19T10:19:19.000Z</time>
      </trkpt>
      <trkpt lat="45.29938" lon="4.46139">
        <ele>1095</ele>
        <time>2018-08-19T10:19:20.000Z</time>
      </trkpt>
      <trkpt lat="45.29937" lon="4.46137">
        <ele>1094.8</ele>
        <time>2018-08-19T10:19:21.000Z</time>
      </trkpt>
      <trkpt lat="45.29937" lon="4.46135">
        <ele>1094.6</ele>
        <time>2018-08-19T10:19:22.000Z</time>
      </trkpt>
      <trkpt lat="45.29936" lon="4.46133">
        <ele>1094.5</ele>
        <time>2018-08-19T10:19:23.000Z</time>
      </trkpt>
      <trkpt lat="45.29935" lon="4.46131">
        <ele>1094.3</ele>
        <time>2018-08-19T10:19:24.000Z</time>
      </trkpt>
      <trkpt lat="45.29935" lon="4.4613">
        <ele>1094.2</ele>
        <time>2018-08-19T10:19:25.000Z</time>
      </trkpt>
      <trkpt lat="45.29934" lon="4.46128">
        <ele>1094</ele>
        <time>2018-08-19T10:19:26.000Z</time>
      </trkpt>
      <trkpt lat="45.29934" lon="4.46126">
        <ele>1093.8</ele>
        <time>2018-08-19T10:19:27.000Z</time>
      </trkpt>
      <trkpt lat="45.29933" lon="4.46124">
        <ele>1093.7</ele>
        <time>2018-08-19T10:19:28.000Z</time>
      </trkpt>
      <trkpt lat="45.29932" lon="4.46122">
        <ele>1093.5</ele>
        <time>2018-08-19T10:19:29.000Z</time>
      </trkpt>
      <trkpt lat="45.29932" lon="4.4612">
        <ele>1093.4</ele>
        <time>2018-08-19T10:19:30.000Z</time>
      </trkpt>
      <trkpt lat="45.29931" lon="4.46118">
        <ele>1093.2</ele>
        <time>2018-08-19T10:19:31.000Z</time>
      </trkpt>
      <trkpt lat="45.29931" lon="4.46116">
        <ele>1093</ele>
        <time>2018-08-19T10:19:32.000Z</time>
      </trkpt>
      <trkpt lat="45.2993" lon="4.46114">
        <ele>1092.9</ele>
        <time>2018-08-19T10:19:33.000Z</time>
      </trkpt>
      <trkpt lat="45.2993" lon="4.46112">
        <ele>1092.7</ele>
        <time>2018-08-19T10:19:34.000Z</time>
      </trkpt>
      <trkpt lat="45.29929" lon="4.4611">
        <ele>1092.5</ele>
        <time>2018-08-19T10:19:35.000Z</time>
      </trkpt>
      <trkpt lat="45.29929" lon="4.46108">
        <ele>1092.4</ele>
        <time>2018-08-19T10:19:36.000Z</time>
      </trkpt>
      <trkpt lat="45.29928" lon="4.46106">
        <ele>1092.2</ele>
        <time>2018-08-19T10:19:37.000Z</time>
      </trkpt>
      <trkpt lat="45.29928" lon="4.46104">
        <ele>1092.1</ele>
        <time>2018-08-19T10:19:38.000Z</time>
      </trkpt>
      <trkpt lat="45.29927" lon="4.46103">
        <ele>1091.9</ele>
        <time>2018-08-19T10:19:39.000Z</time>
      </trkpt>
      <trkpt lat="45.29927" lon="4.46101">
        <ele>1091.7</ele>
        <time>2018-08-19T10:19:40.000Z</time>
      </trkpt>
      <trkpt lat="45.29926" lon="4.46099">
        <ele>1091.6</ele>
        <time>2018-08-19T10:19:41.000Z</time>
      </trkpt>
      <trkpt lat="45.29926" lon="4.46097">
        <ele>1091.4</ele>
        <time>2018-08-19T10:19:42.000Z</time>
      </trkpt>
      <trkpt lat="45.29925" lon="4.46095">
        <ele>1091.3</ele>
        <time>2018-08-19T10:19:43.000Z</time>
      </trkpt>
      <trkpt lat="45.29925" lon="4.46093">
        <ele>1091.1</ele>
        <time>2018-08-19T10:19:44.000Z</time>
      </trkpt>
      <trkpt lat="45.29925" lon="4.46091">
        <ele>1090.9</ele>
        <time>2018-08-19T10:19:45.000Z</time>
      </trkpt>
      <trkpt lat="45.29924" lon="4.4609">
        <ele>1090.8</ele>
        <time>2018-08-19T10:19:46.000Z</time>
      </trkpt>
      <trkpt lat="45.29924" lon="4.46088">
        <ele>1090.6</ele>
        <time>2018-08-19T10:19:47.000Z</time>
      </trkpt>
      <trkpt lat="45.29923" lon="4.46086">
        <ele>1090.4</ele>
        <time>2018-08-19T10:19:48.000Z</time>
      </trkpt>
      <trkpt lat="45.29923" lon="4.46084">
        <ele>1090.3</ele>
        <time>2018-08-19T10:19:49.000Z</time>
      </trkpt>
      <trkpt lat="45.29923" lon="4.46082">
        <ele>1090.2</ele>
        <time>2018-08-19T10:19:50.000Z</time>
      </trkpt>
      <trkpt lat="45.29922" lon="4.4608">
        <ele>1090.1</ele>
        <time>2018-08-19T10:19:51.000Z</time>
      </trkpt>
      <trkpt lat="45.29922" lon="4.46078">
        <ele>1089.9</ele>
        <time>2018-08-19T10:19:52.000Z</time>
      </trkpt>
      <trkpt lat="45.29921" lon="4.46076">
        <ele>1089.8</ele>
        <time>2018-08-19T10:19:53.000Z</time>
      </trkpt>
      <trkpt lat="45.29921" lon="4.46075">
        <ele>1089.7</ele>
        <time>2018-08-19T10:19:54.000Z</time>
      </trkpt>
      <trkpt lat="45.29921" lon="4.46073">
        <ele>1089.6</ele>
        <time>2018-08-19T10:19:55.000Z</time>
      </trkpt>
      <trkpt lat="45.2992" lon="4.46071">
        <ele>1089.5</ele>
        <time>2018-08-19T10:19:56.000Z</time>
      </trkpt>
      <trkpt lat="45.2992" lon="4.46069">
        <ele>1089.4</ele>
        <time>2018-08-19T10:19:57.000Z</time>
      </trkpt>
      <trkpt lat="45.2992" lon="4.46067">
        <ele>1089.3</ele>
        <time>2018-08-19T10:19:58.000Z</time>
      </trkpt>
      <trkpt lat="45.29919" lon="4.46065">
        <ele>1089.2</ele>
        <time>2018-08-19T10:19:59.000Z</time>
      </trkpt>
      <trkpt lat="45.29919" lon="4.46063">
        <ele>1089.1</ele>
        <time>2018-08-19T10:20:00.000Z</time>
      </trkpt>
      <trkpt lat="45.29919" lon="4.46061">
        <ele>1089</ele>
        <time>2018-08-19T10:20:01.000Z</time>
      </trkpt>
      <trkpt lat="45.29918" lon="4.46059">
        <ele>1088.9</ele>
        <time>2018-08-19T10:20:02.000Z</time>
      </trkpt>
      <trkpt lat="45.29918" lon="4.46057">
        <ele>1088.8</ele>
        <time>2018-08-19T10:20:03.000Z</time>
      </trkpt>
      <trkpt lat="45.29918" lon="4.46055">
        <ele>1088.7</ele>
        <time>2018-08-19T10:20:04.000Z</time>
      </trkpt>
      <trkpt lat="45.29917" lon="4.46053">
        <ele>1088.6</ele>
        <time>2018-08-19T10:20:05.000Z</time>
      </trkpt>
      <trkpt lat="45.29917" lon="4.46051">
        <ele>1088.5</ele>
        <time>2018-08-19T10:20:06.000Z</time>
      </trkpt>
      <trkpt lat="45.29917" lon="4.46049">
        <ele>1088.4</ele>
        <time>2018-08-19T10:20:07.000Z</time>
      </trkpt>
      <trkpt lat="45.29917" lon="4.46047">
        <ele>1088.3</ele>
        <time>2018-08-19T10:20:08.000Z</time>
      </trkpt>
      <trkpt lat="45.29916" lon="4.46045">
        <ele>1088.3</ele>
        <time>2018-08-19T10:20:09.000Z</time>
      </trkpt>
      <trkpt lat="45.29916" lon="4.46043">
        <ele>1088.2</ele>
        <time>2018-08-19T10:20:10.000Z</time>
      </trkpt>
      <trkpt lat="45.29916" lon="4.46041">
        <ele>1088.2</ele>
        <time>2018-08-19T10:20:11.000Z</time>
      </trkpt>
      <trkpt lat="45.29916" lon="4.46039">
        <ele>1088.1</ele>
        <time>2018-08-19T10:20:12.000Z</time>
      </trkpt>
      <trkpt lat="45.29915" lon="4.46038">
        <ele>1088.1</ele>
        <time>2018-08-19T10:20:13.000Z</time>
      </trkpt>
      <trkpt lat="45.29915" lon="4.46036">
        <ele>1088.1</ele>
        <time>2018-08-19T10:20:14.000Z</time>
      </trkpt>
      <trkpt lat="45.29915" lon="4.46034">
        <ele>1088</ele>
        <time>2018-08-19T10:20:15.000Z</time>
      </trkpt>
      <trkpt lat="45.29914" lon="4.46032">
        <ele>1088</ele>
        <time>2018-08-19T10:20:16.000Z</time>
      </trkpt>
      <trkpt lat="45.29914" lon="4.4603">
        <ele>1087.9</ele>
        <time>2018-08-19T10:20:17.000Z</time>
      </trkpt>
      <trkpt lat="45.29914" lon="4.46028">
        <ele>1087.9</ele>
        <time>2018-08-19T10:20:18.000Z</time>
      </trkpt>
      <trkpt lat="45.29914" lon="4.46026">
        <ele>1087.8</ele>
        <time>2018-08-19T10:20:19.000Z</time>
      </trkpt>
      <trkpt lat="45.29913" lon="4.46024">
        <ele>1087.8</ele>
        <time>2018-08-19T10:20:20.000Z</time>
      </trkpt>
      <trkpt lat="45.29913" lon="4.46022">
        <ele>1087.7</ele>
        <time>2018-08-19T10:20:21.000Z</time>
      </trkpt>
      <trkpt lat="45.29913" lon="4.4602">
        <ele>1087.7</ele>
        <time>2018-08-19T10:20:22.000Z</time>
      </trkpt>
      <trkpt lat="45.29913" lon="4.46018">
        <ele>1087.6</ele>
        <time>2018-08-19T10:20:23.000Z</time>
      </trkpt>
      <trkpt lat="45.29912" lon="4.46016">
        <ele>1087.6</ele>
        <time>2018-08-19T10:20:24.000Z</time>
      </trkpt>
      <trkpt lat="45.29912" lon="4.46013">
        <ele>1087.5</ele>
        <time>2018-08-19T10:20:25.000Z</time>
      </trkpt>
      <trkpt lat="45.29912" lon="4.46011">
        <ele>1087.4</ele>
        <time>2018-08-19T10:20:26.000Z</time>
      </trkpt>
      <trkpt lat="45.29912" lon="4.46009">
        <ele>1087.4</ele>
        <time>2018-08-19T10:20:27.000Z</time>
      </trkpt>
      <trkpt lat="45.29912" lon="4.46007">
        <ele>1087.3</ele>
        <time>2018-08-19T10:20:28.000Z</time>
      </trkpt>
      <trkpt lat="45.29911" lon="4.46005">
        <ele>1087.2</ele>
        <time>2018-08-19T10:20:29.000Z</time>
      </trkpt>
      <trkpt lat="45.29911" lon="4.46003">
        <ele>1087.1</ele>
        <time>2018-08-19T10:20:30.000Z</time>
      </trkpt>
      <trkpt lat="45.29911" lon="4.46001">
        <ele>1087.1</ele>
        <time>2018-08-19T10:20:31.000Z</time>
      </trkpt>
      <trkpt lat="45.29911" lon="4.45999">
        <ele>1087</ele>
        <time>2018-08-19T10:20:32.000Z</time>
      </trkpt>
      <trkpt lat="45.29911" lon="4.45997">
        <ele>1087</ele>
        <time>2018-08-19T10:20:33.000Z</time>
      </trkpt>
      <trkpt lat="45.29911" lon="4.45995">
        <ele>1087</ele>
        <time>2018-08-19T10:20:34.000Z</time>
      </trkpt>
      <trkpt lat="45.29911" lon="4.45993">
        <ele>1087</ele>
        <time>2018-08-19T10:20:35.000Z</time>
      </trkpt>
      <trkpt lat="45.2991" lon="4.45991">
        <ele>1087</ele>
        <time>2018-08-19T10:20:36.000Z</time>
      </trkpt>
      <trkpt lat="45.2991" lon="4.45989">
        <ele>1087</ele>
        <time>2018-08-19T10:20:37.000Z</time>
      </trkpt>
      <trkpt lat="45.2991" lon="4.45987">
        <ele>1086.9</ele>
        <time>2018-08-19T10:20:38.000Z</time>
      </trkpt>
      <trkpt lat="45.2991" lon="4.45985">
        <ele>1086.9</ele>
        <time>2018-08-19T10:20:39.000Z</time>
      </trkpt>
      <trkpt lat="45.2991" lon="4.45983">
        <ele>1086.9</ele>
        <time>2018-08-19T10:20:40.000Z</time>
      </trkpt>
      <trkpt lat="45.2991" lon="4.45981">
        <ele>1086.8</ele>
        <time>2018-08-19T10:20:41.000Z</time>
      </trkpt>
      <trkpt lat="45.2991" lon="4.4598">
        <ele>1086.8</ele>
        <time>2018-08-19T10:20:42.000Z</time>
      </trkpt>
      <trkpt lat="45.2991" lon="4.45978">
        <ele>1086.8</ele>
        <time>2018-08-19T10:20:43.000Z</time>
      </trkpt>
      <trkpt lat="45.2991" lon="4.45976">
        <ele>1086.8</ele>
        <time>2018-08-19T10:20:44.000Z</time>
      </trkpt>
      <trkpt lat="45.2991" lon="4.45974">
        <ele>1086.7</ele>
        <time>2018-08-19T10:20:45.000Z</time>
      </trkpt>
      <trkpt lat="45.2991" lon="4.45972">
        <ele>1086.7</ele>
        <time>2018-08-19T10:20:46.000Z</time>
      </trkpt>
      <trkpt lat="45.2991" lon="4.4597">
        <ele>1086.7</ele>
        <time>2018-08-19T10:20:47.000Z</time>
      </trkpt>
      <trkpt lat="45.2991" lon="4.45968">
        <ele>1086.6</ele>
        <time>2018-08-19T10:20:48.000Z</time>
      </trkpt>
      <trkpt lat="45.2991" lon="4.45966">
        <ele>1086.6</ele>
        <time>2018-08-19T10:20:49.000Z</time>
      </trkpt>
      <trkpt lat="45.2991" lon="4.45964">
        <ele>1086.6</ele>
        <time>2018-08-19T10:20:50.000Z</time>
      </trkpt>
      <trkpt lat="45.2991" lon="4.45962">
        <ele>1086.5</ele>
        <time>2018-08-19T10:20:51.000Z</time>
      </trkpt>
      <trkpt lat="45.2991" lon="4.4596">
        <ele>1086.5</ele>
        <time>2018-08-19T10:20:52.000Z</time>
      </trkpt>
      <trkpt lat="45.29909" lon="4.45958">
        <ele>1086.5</ele>
        <time>2018-08-19T10:20:53.000Z</time>
      </trkpt>
      <trkpt lat="45.29909" lon="4.45956">
        <ele>1086.4</ele>
        <time>2018-08-19T10:20:54.000Z</time>
      </trkpt>
      <trkpt lat="45.29909" lon="4.45954">
        <ele>1086.4</ele>
        <time>2018-08-19T10:20:55.000Z</time>
      </trkpt>
      <trkpt lat="45.29909" lon="4.45952">
        <ele>1086.3</ele>
        <time>2018-08-19T10:20:56.000Z</time>
      </trkpt>
      <trkpt lat="45.29909" lon="4.4595">
        <ele>1086.3</ele>
        <time>2018-08-19T10:20:57.000Z</time>
      </trkpt>
      <trkpt lat="45.29909" lon="4.45948">
        <ele>1086.3</ele>
        <time>2018-08-19T10:20:58.000Z</time>
      </trkpt>
      <trkpt lat="45.29909" lon="4.45946">
        <ele>1086.2</ele>
        <time>2018-08-19T10:20:59.000Z</time>
      </trkpt>
      <trkpt lat="45.29909" lon="4.45944">
        <ele>1086.2</ele>
        <time>2018-08-19T10:21:00.000Z</time>
      </trkpt>
      <trkpt lat="45.29909" lon="4.45942">
        <ele>1086.1</ele>
        <time>2018-08-19T10:21:01.000Z</time>
      </trkpt>
      <trkpt lat="45.29909" lon="4.4594">
        <ele>1086.1</ele>
        <time>2018-08-19T10:21:02.000Z</time>
      </trkpt>
      <trkpt lat="45.29909" lon="4.45938">
        <ele>1086.1</ele>
        <time>2018-08-19T10:21:03.000Z</time>
      </trkpt>
      <trkpt lat="45.29909" lon="4.45936">
        <ele>1086</ele>
        <time>2018-08-19T10:21:04.000Z</time>
      </trkpt>
      <trkpt lat="45.29909" lon="4.45934">
        <ele>1086</ele>
        <time>2018-08-19T10:21:05.000Z</time>
      </trkpt>
      <trkpt lat="45.29909" lon="4.45932">
        <ele>1085.9</ele>
        <time>2018-08-19T10:21:06.000Z</time>
      </trkpt>
      <trkpt lat="45.29909" lon="4.4593">
        <ele>1085.9</ele>
        <time>2018-08-19T10:21:07.000Z</time>
      </trkpt>
      <trkpt lat="45.29909" lon="4.45927">
        <ele>1085.9</ele>
        <time>2018-08-19T10:21:08.000Z</time>
      </trkpt>
      <trkpt lat="45.29909" lon="4.45925">
        <ele>1085.8</ele>
        <time>2018-08-19T10:21:09.000Z</time>
      </trkpt>
      <trkpt lat="45.29909" lon="4.45923">
        <ele>1085.8</ele>
        <time>2018-08-19T10:21:10.000Z</time>
      </trkpt>
      <trkpt lat="45.29909" lon="4.45921">
        <ele>1085.8</ele>
        <time>2018-08-19T10:21:11.000Z</time>
      </trkpt>
      <trkpt lat="45.29909" lon="4.45919">
        <ele>1085.7</ele>
        <time>2018-08-19T10:21:12.000Z</time>
      </trkpt>
      <trkpt lat="45.29909" lon="4.45916">
        <ele>1085.7</ele>
        <time>2018-08-19T10:21:13.000Z</time>
      </trkpt>
      <trkpt lat="45.29908" lon="4.45914">
        <ele>1085.6</ele>
        <time>2018-08-19T10:21:14.000Z</time>
      </trkpt>
      <trkpt lat="45.29908" lon="4.45912">
        <ele>1085.6</ele>
        <time>2018-08-19T10:21:15.000Z</time>
      </trkpt>
      <trkpt lat="45.29908" lon="4.45909">
        <ele>1085.5</ele>
        <time>2018-08-19T10:21:16.000Z</time>
      </trkpt>
      <trkpt lat="45.29908" lon="4.45907">
        <ele>1085.5</ele>
        <time>2018-08-19T10:21:17.000Z</time>
      </trkpt>
      <trkpt lat="45.29908" lon="4.45905">
        <ele>1085.4</ele>
        <time>2018-08-19T10:21:18.000Z</time>
      </trkpt>
      <trkpt lat="45.29908" lon="4.45902">
        <ele>1085.4</ele>
        <time>2018-08-19T10:21:19.000Z</time>
      </trkpt>
      <trkpt lat="45.29908" lon="4.459">
        <ele>1085.3</ele>
        <time>2018-08-19T10:21:20.000Z</time>
      </trkpt>
      <trkpt lat="45.29908" lon="4.45898">
        <ele>1085.2</ele>
        <time>2018-08-19T10:21:21.000Z</time>
      </trkpt>
      <trkpt lat="45.29908" lon="4.45895">
        <ele>1085.2</ele>
        <time>2018-08-19T10:21:22.000Z</time>
      </trkpt>
      <trkpt lat="45.29908" lon="4.45893">
        <ele>1085.1</ele>
        <time>2018-08-19T10:21:23.000Z</time>
      </trkpt>
      <trkpt lat="45.29907" lon="4.45891">
        <ele>1085.1</ele>
        <time>2018-08-19T10:21:24.000Z</time>
      </trkpt>
      <trkpt lat="45.29907" lon="4.45889">
        <ele>1085</ele>
        <time>2018-08-19T10:21:25.000Z</time>
      </trkpt>
      <trkpt lat="45.29907" lon="4.45887">
        <ele>1085</ele>
        <time>2018-08-19T10:21:26.000Z</time>
      </trkpt>
      <trkpt lat="45.29907" lon="4.45884">
        <ele>1084.9</ele>
        <time>2018-08-19T10:21:27.000Z</time>
      </trkpt>
      <trkpt lat="45.29907" lon="4.45882">
        <ele>1084.9</ele>
        <time>2018-08-19T10:21:28.000Z</time>
      </trkpt>
      <trkpt lat="45.29907" lon="4.4588">
        <ele>1084.8</ele>
        <time>2018-08-19T10:21:29.000Z</time>
      </trkpt>
      <trkpt lat="45.29907" lon="4.45878">
        <ele>1084.8</ele>
        <time>2018-08-19T10:21:30.000Z</time>
      </trkpt>
      <trkpt lat="45.29907" lon="4.45876">
        <ele>1084.7</ele>
        <time>2018-08-19T10:21:31.000Z</time>
      </trkpt>
      <trkpt lat="45.29907" lon="4.45874">
        <ele>1084.7</ele>
        <time>2018-08-19T10:21:32.000Z</time>
      </trkpt>
      <trkpt lat="45.29907" lon="4.45872">
        <ele>1084.6</ele>
        <time>2018-08-19T10:21:33.000Z</time>
      </trkpt>
      <trkpt lat="45.29907" lon="4.4587">
        <ele>1084.6</ele>
        <time>2018-08-19T10:21:34.000Z</time>
      </trkpt>
      <trkpt lat="45.29907" lon="4.45868">
        <ele>1084.5</ele>
        <time>2018-08-19T10:21:35.000Z</time>
      </trkpt>
      <trkpt lat="45.29907" lon="4.45865">
        <ele>1084.5</ele>
        <time>2018-08-19T10:21:36.000Z</time>
      </trkpt>
      <trkpt lat="45.29907" lon="4.45863">
        <ele>1084.4</ele>
        <time>2018-08-19T10:21:37.000Z</time>
      </trkpt>
      <trkpt lat="45.29907" lon="4.45861">
        <ele>1084.4</ele>
        <time>2018-08-19T10:21:38.000Z</time>
      </trkpt>
      <trkpt lat="45.29907" lon="4.45859">
        <ele>1084.3</ele>
        <time>2018-08-19T10:21:39.000Z</time>
      </trkpt>
      <trkpt lat="45.29907" lon="4.45857">
        <ele>1084.2</ele>
        <time>2018-08-19T10:21:40.000Z</time>
      </trkpt>
      <trkpt lat="45.29907" lon="4.45855">
        <ele>1084.2</ele>
        <time>2018-08-19T10:21:41.000Z</time>
      </trkpt>
      <trkpt lat="45.29907" lon="4.45853">
        <ele>1084.1</ele>
        <time>2018-08-19T10:21:42.000Z</time>
      </trkpt>
      <trkpt lat="45.29907" lon="4.45851">
        <ele>1084.1</ele>
        <time>2018-08-19T10:21:43.000Z</time>
      </trkpt>
      <trkpt lat="45.29907" lon="4.45849">
        <ele>1084</ele>
        <time>2018-08-19T10:21:44.000Z</time>
      </trkpt>
      <trkpt lat="45.29907" lon="4.45847">
        <ele>1084</ele>
        <time>2018-08-19T10:21:45.000Z</time>
      </trkpt>
      <trkpt lat="45.29907" lon="4.45845">
        <ele>1083.9</ele>
        <time>2018-08-19T10:21:46.000Z</time>
      </trkpt>
      <trkpt lat="45.29907" lon="4.45842">
        <ele>1083.9</ele>
        <time>2018-08-19T10:21:47.000Z</time>
      </trkpt>
      <trkpt lat="45.29906" lon="4.4584">
        <ele>1083.8</ele>
        <time>2018-08-19T10:21:48.000Z</time>
      </trkpt>
      <trkpt lat="45.29906" lon="4.45838">
        <ele>1083.7</ele>
        <time>2018-08-19T10:21:49.000Z</time>
      </trkpt>
      <trkpt lat="45.29906" lon="4.45836">
        <ele>1083.7</ele>
        <time>2018-08-19T10:21:50.000Z</time>
      </trkpt>
      <trkpt lat="45.29906" lon="4.45834">
        <ele>1083.6</ele>
        <time>2018-08-19T10:21:51.000Z</time>
      </trkpt>
      <trkpt lat="45.29906" lon="4.45831">
        <ele>1083.5</ele>
        <time>2018-08-19T10:21:52.000Z</time>
      </trkpt>
      <trkpt lat="45.29906" lon="4.45829">
        <ele>1083.4</ele>
        <time>2018-08-19T10:21:53.000Z</time>
      </trkpt>
      <trkpt lat="45.29906" lon="4.45827">
        <ele>1083.2</ele>
        <time>2018-08-19T10:21:54.000Z</time>
      </trkpt>
      <trkpt lat="45.29906" lon="4.45825">
        <ele>1083.1</ele>
        <time>2018-08-19T10:21:55.000Z</time>
      </trkpt>
      <trkpt lat="45.29906" lon="4.45823">
        <ele>1083</ele>
        <time>2018-08-19T10:21:56.000Z</time>
      </trkpt>
      <trkpt lat="45.29906" lon="4.4582">
        <ele>1082.8</ele>
        <time>2018-08-19T10:21:57.000Z</time>
      </trkpt>
      <trkpt lat="45.29906" lon="4.45818">
        <ele>1082.7</ele>
        <time>2018-08-19T10:21:58.000Z</time>
      </trkpt>
      <trkpt lat="45.29906" lon="4.45816">
        <ele>1082.6</ele>
        <time>2018-08-19T10:21:59.000Z</time>
      </trkpt>
      <trkpt lat="45.29906" lon="4.45814">
        <ele>1082.4</ele>
        <time>2018-08-19T10:22:00.000Z</time>
      </trkpt>
      <trkpt lat="45.29906" lon="4.45811">
        <ele>1082.3</ele>
        <time>2018-08-19T10:22:01.000Z</time>
      </trkpt>
      <trkpt lat="45.29906" lon="4.45809">
        <ele>1082.2</ele>
        <time>2018-08-19T10:22:02.000Z</time>
      </trkpt>
      <trkpt lat="45.29906" lon="4.45807">
        <ele>1082</ele>
        <time>2018-08-19T10:22:03.000Z</time>
      </trkpt>
      <trkpt lat="45.29906" lon="4.45805">
        <ele>1081.9</ele>
        <time>2018-08-19T10:22:04.000Z</time>
      </trkpt>
      <trkpt lat="45.29906" lon="4.45803">
        <ele>1081.8</ele>
        <time>2018-08-19T10:22:05.000Z</time>
      </trkpt>
      <trkpt lat="45.29906" lon="4.458">
        <ele>1081.7</ele>
        <time>2018-08-19T10:22:06.000Z</time>
      </trkpt>
      <trkpt lat="45.29906" lon="4.45798">
        <ele>1081.5</ele>
        <time>2018-08-19T10:22:07.000Z</time>
      </trkpt>
      <trkpt lat="45.29906" lon="4.45796">
        <ele>1081.4</ele>
        <time>2018-08-19T10:22:08.000Z</time>
      </trkpt>
      <trkpt lat="45.29906" lon="4.45794">
        <ele>1081.3</ele>
        <time>2018-08-19T10:22:09.000Z</time>
      </trkpt>
      <trkpt lat="45.29906" lon="4.45792">
        <ele>1081.2</ele>
        <time>2018-08-19T10:22:10.000Z</time>
      </trkpt>
      <trkpt lat="45.29906" lon="4.4579">
        <ele>1081</ele>
        <time>2018-08-19T10:22:11.000Z</time>
      </trkpt>
      <trkpt lat="45.29906" lon="4.45788">
        <ele>1080.9</ele>
        <time>2018-08-19T10:22:12.000Z</time>
      </trkpt>
      <trkpt lat="45.29906" lon="4.45786">
        <ele>1080.8</ele>
        <time>2018-08-19T10:22:13.000Z</time>
      </trkpt>
      <trkpt lat="45.29906" lon="4.45784">
        <ele>1080.7</ele>
        <time>2018-08-19T10:22:14.000Z</time>
      </trkpt>
      <trkpt lat="45.29906" lon="4.45782">
        <ele>1080.6</ele>
        <time>2018-08-19T10:22:15.000Z</time>
      </trkpt>
      <trkpt lat="45.29905" lon="4.4578">
        <ele>1080.5</ele>
        <time>2018-08-19T10:22:16.000Z</time>
      </trkpt>
      <trkpt lat="45.29905" lon="4.45778">
        <ele>1080.3</ele>
        <time>2018-08-19T10:22:17.000Z</time>
      </trkpt>
      <trkpt lat="45.29905" lon="4.45776">
        <ele>1080.2</ele>
        <time>2018-08-19T10:22:18.000Z</time>
      </trkpt>
      <trkpt lat="45.29905" lon="4.45773">
        <ele>1080.1</ele>
        <time>2018-08-19T10:22:19.000Z</time>
      </trkpt>
      <trkpt lat="45.29905" lon="4.45771">
        <ele>1080</ele>
        <time>2018-08-19T10:22:20.000Z</time>
      </trkpt>
      <trkpt lat="45.29905" lon="4.45769">
        <ele>1079.9</ele>
        <time>2018-08-19T10:22:21.000Z</time>
      </trkpt>
      <trkpt lat="45.29905" lon="4.45767">
        <ele>1079.8</ele>
        <time>2018-08-19T10:22:22.000Z</time>
      </trkpt>
      <trkpt lat="45.29904" lon="4.45765">
        <ele>1079.6</ele>
        <time>2018-08-19T10:22:23.000Z</time>
      </trkpt>
      <trkpt lat="45.29904" lon="4.45763">
        <ele>1079.5</ele>
        <time>2018-08-19T10:22:24.000Z</time>
      </trkpt>
      <trkpt lat="45.29904" lon="4.45761">
        <ele>1079.4</ele>
        <time>2018-08-19T10:22:25.000Z</time>
      </trkpt>
      <trkpt lat="45.29904" lon="4.45759">
        <ele>1079.3</ele>
        <time>2018-08-19T10:22:26.000Z</time>
      </trkpt>
      <trkpt lat="45.29903" lon="4.45757">
        <ele>1079.2</ele>
        <time>2018-08-19T10:22:27.000Z</time>
      </trkpt>
      <trkpt lat="45.29903" lon="4.45755">
        <ele>1079.1</ele>
        <time>2018-08-19T10:22:28.000Z</time>
      </trkpt>
      <trkpt lat="45.29903" lon="4.45753">
        <ele>1079</ele>
        <time>2018-08-19T10:22:29.000Z</time>
      </trkpt>
      <trkpt lat="45.29903" lon="4.45751">
        <ele>1078.9</ele>
        <time>2018-08-19T10:22:30.000Z</time>
      </trkpt>
      <trkpt lat="45.29902" lon="4.45749">
        <ele>1078.8</ele>
        <time>2018-08-19T10:22:31.000Z</time>
      </trkpt>
      <trkpt lat="45.29902" lon="4.45746">
        <ele>1078.7</ele>
        <time>2018-08-19T10:22:32.000Z</time>
      </trkpt>
      <trkpt lat="45.29902" lon="4.45744">
        <ele>1078.7</ele>
        <time>2018-08-19T10:22:33.000Z</time>
      </trkpt>
      <trkpt lat="45.29901" lon="4.45742">
        <ele>1078.6</ele>
        <time>2018-08-19T10:22:34.000Z</time>
      </trkpt>
      <trkpt lat="45.29901" lon="4.4574">
        <ele>1078.6</ele>
        <time>2018-08-19T10:22:35.000Z</time>
      </trkpt>
      <trkpt lat="45.299" lon="4.45738">
        <ele>1078.5</ele>
        <time>2018-08-19T10:22:36.000Z</time>
      </trkpt>
      <trkpt lat="45.299" lon="4.45736">
        <ele>1078.5</ele>
        <time>2018-08-19T10:22:37.000Z</time>
      </trkpt>
      <trkpt lat="45.29899" lon="4.45734">
        <ele>1078.4</ele>
        <time>2018-08-19T10:22:38.000Z</time>
      </trkpt>
      <trkpt lat="45.29899" lon="4.45732">
        <ele>1078.3</ele>
        <time>2018-08-19T10:22:39.000Z</time>
      </trkpt>
      <trkpt lat="45.29898" lon="4.45731">
        <ele>1078.3</ele>
        <time>2018-08-19T10:22:40.000Z</time>
      </trkpt>
      <trkpt lat="45.29898" lon="4.45729">
        <ele>1078.2</ele>
        <time>2018-08-19T10:22:41.000Z</time>
      </trkpt>
      <trkpt lat="45.29897" lon="4.45727">
        <ele>1078.2</ele>
        <time>2018-08-19T10:22:42.000Z</time>
      </trkpt>
      <trkpt lat="45.29897" lon="4.45725">
        <ele>1078.1</ele>
        <time>2018-08-19T10:22:43.000Z</time>
      </trkpt>
      <trkpt lat="45.29896" lon="4.45723">
        <ele>1078.1</ele>
        <time>2018-08-19T10:22:44.000Z</time>
      </trkpt>
      <trkpt lat="45.29895" lon="4.45721">
        <ele>1078.1</ele>
        <time>2018-08-19T10:22:45.000Z</time>
      </trkpt>
      <trkpt lat="45.29895" lon="4.45719">
        <ele>1078</ele>
        <time>2018-08-19T10:22:46.000Z</time>
      </trkpt>
      <trkpt lat="45.29894" lon="4.45717">
        <ele>1078</ele>
        <time>2018-08-19T10:22:47.000Z</time>
      </trkpt>
      <trkpt lat="45.29893" lon="4.45716">
        <ele>1077.9</ele>
        <time>2018-08-19T10:22:48.000Z</time>
      </trkpt>
      <trkpt lat="45.29893" lon="4.45714">
        <ele>1077.9</ele>
        <time>2018-08-19T10:22:49.000Z</time>
      </trkpt>
      <trkpt lat="45.29892" lon="4.45712">
        <ele>1077.8</ele>
        <time>2018-08-19T10:22:50.000Z</time>
      </trkpt>
      <trkpt lat="45.29891" lon="4.4571">
        <ele>1077.8</ele>
        <time>2018-08-19T10:22:51.000Z</time>
      </trkpt>
      <trkpt lat="45.2989" lon="4.45708">
        <ele>1077.8</ele>
        <time>2018-08-19T10:22:52.000Z</time>
      </trkpt>
      <trkpt lat="45.2989" lon="4.45706">
        <ele>1077.7</ele>
        <time>2018-08-19T10:22:53.000Z</time>
      </trkpt>
      <trkpt lat="45.29889" lon="4.45705">
        <ele>1077.7</ele>
        <time>2018-08-19T10:22:54.000Z</time>
      </trkpt>
      <trkpt lat="45.29888" lon="4.45703">
        <ele>1077.6</ele>
        <time>2018-08-19T10:22:55.000Z</time>
      </trkpt>
      <trkpt lat="45.29888" lon="4.45701">
        <ele>1077.6</ele>
        <time>2018-08-19T10:22:56.000Z</time>
      </trkpt>
      <trkpt lat="45.29887" lon="4.45699">
        <ele>1077.5</ele>
        <time>2018-08-19T10:22:57.000Z</time>
      </trkpt>
      <trkpt lat="45.29886" lon="4.45697">
        <ele>1077.5</ele>
        <time>2018-08-19T10:22:58.000Z</time>
      </trkpt>
      <trkpt lat="45.29885" lon="4.45696">
        <ele>1077.4</ele>
        <time>2018-08-19T10:22:59.000Z</time>
      </trkpt>
      <trkpt lat="45.29885" lon="4.45694">
        <ele>1077.4</ele>
        <time>2018-08-19T10:23:00.000Z</time>
      </trkpt>
      <trkpt lat="45.29884" lon="4.45693">
        <ele>1077.4</ele>
        <time>2018-08-19T10:23:01.000Z</time>
      </trkpt>
      <trkpt lat="45.29884" lon="4.45692">
        <ele>1077.3</ele>
        <time>2018-08-19T10:23:02.000Z</time>
      </trkpt>
      <trkpt lat="45.29884" lon="4.45691">
        <ele>1077.3</ele>
        <time>2018-08-19T10:23:03.000Z</time>
      </trkpt>
      <trkpt lat="45.29883" lon="4.45691">
        <ele>1077.3</ele>
        <time>2018-08-19T10:23:04.000Z</time>
      </trkpt>
      <trkpt lat="45.29883" lon="4.45691">
        <ele>1077.3</ele>
        <time>2018-08-19T10:23:05.000Z</time>
      </trkpt>
      <trkpt lat="45.29883" lon="4.45691">
        <ele>1077.3</ele>
        <time>2018-08-19T10:23:06.000Z</time>
      </trkpt>
      <trkpt lat="45.29883" lon="4.4569">
        <ele>1077.3</ele>
        <time>2018-08-19T10:23:07.000Z</time>
      </trkpt>
      <trkpt lat="45.29883" lon="4.4569">
        <ele>1077.3</ele>
        <time>2018-08-19T10:23:08.000Z</time>
      </trkpt>
      <trkpt lat="45.29883" lon="4.4569">
        <ele>1077.3</ele>
        <time>2018-08-19T10:23:09.000Z</time>
      </trkpt>
      <trkpt lat="45.29883" lon="4.4569">
        <ele>1077.3</ele>
        <time>2018-08-19T10:23:10.000Z</time>
      </trkpt>
      <trkpt lat="45.29883" lon="4.4569">
        <ele>1077.3</ele>
        <time>2018-08-19T10:23:11.000Z</time>
      </trkpt>
      <trkpt lat="45.29883" lon="4.4569">
        <ele>1077.3</ele>
        <time>2018-08-19T10:23:12.000Z</time>
      </trkpt>
      <trkpt lat="45.29883" lon="4.4569">
        <ele>1077.3</ele>
        <time>2018-08-19T10:23:13.000Z</time>
      </trkpt>
      <trkpt lat="45.29883" lon="4.4569">
        <ele>1077.3</ele>
        <time>2018-08-19T10:23:14.000Z</time>
      </trkpt>
      <trkpt lat="45.29883" lon="4.4569">
        <ele>1077.3</ele>
        <time>2018-08-19T10:23:15.000Z</time>
      </trkpt>
      <trkpt lat="45.29883" lon="4.4569">
        <ele>1077.3</ele>
        <time>2018-08-19T10:23:16.000Z</time>
      </trkpt>
      <trkpt lat="45.29883" lon="4.4569">
        <ele>1077.3</ele>
        <time>2018-08-19T10:23:17.000Z</time>
      </trkpt>
      <trkpt lat="45.29883" lon="4.4569">
        <ele>1077.3</ele>
        <time>2018-08-19T10:23:18.000Z</time>
      </trkpt>
      <trkpt lat="45.29883" lon="4.4569">
        <ele>1077.3</ele>
        <time>2018-08-19T10:23:19.000Z</time>
      </trkpt>
      <trkpt lat="45.29883" lon="4.4569">
        <ele>1077.3</ele>
        <time>2018-08-19T10:23:20.000Z</time>
      </trkpt>
      <trkpt lat="45.29883" lon="4.4569">
        <ele>1077.3</ele>
        <time>2018-08-19T10:23:21.000Z</time>
      </trkpt>
      <trkpt lat="45.29883" lon="4.4569">
        <ele>1077.3</ele>
        <time>2018-08-19T10:23:22.000Z</time>
      </trkpt>
      <trkpt lat="45.29883" lon="4.4569">
        <ele>1077.3</ele>
        <time>2018-08-19T10:23:23.000Z</time>
      </trkpt>
      <trkpt lat="45.29883" lon="4.4569">
        <ele>1077.3</ele>
        <time>2018-08-19T10:23:24.000Z</time>
      </trkpt>
      <trkpt lat="45.29883" lon="4.4569">
        <ele>1077.3</ele>
        <time>2018-08-19T10:23:25.000Z</time>
      </trkpt>
      <trkpt lat="45.29883" lon="4.4569">
        <ele>1077.3</ele>
        <time>2018-08-19T10:23:26.000Z</time>
      </trkpt>
      <trkpt lat="45.29883" lon="4.4569">
        <ele>1077.3</ele>
        <time>2018-08-19T10:23:27.000Z</time>
      </trkpt>
      <trkpt lat="45.29883" lon="4.4569">
        <ele>1077.3</ele>
        <time>2018-08-19T10:23:28.000Z</time>
      </trkpt>
      <trkpt lat="45.29883" lon="4.4569">
        <ele>1077.3</ele>
        <time>2018-08-19T10:23:29.000Z</time>
      </trkpt>
      <trkpt lat="45.29883" lon="4.4569">
        <ele>1077.3</ele>
        <time>2018-08-19T10:23:30.000Z</time>
      </trkpt>
      <trkpt lat="45.29883" lon="4.4569">
        <ele>1077.3</ele>
        <time>2018-08-19T10:23:31.000Z</time>
      </trkpt>
      <trkpt lat="45.29883" lon="4.4569">
        <ele>1077.3</ele>
        <time>2018-08-19T10:23:32.000Z</time>
      </trkpt>
      <trkpt lat="45.29883" lon="4.4569">
        <ele>1077.3</ele>
        <time>2018-08-19T10:23:33.000Z</time>
      </trkpt>
      <trkpt lat="45.29883" lon="4.4569">
        <ele>1077.3</ele>
        <time>2018-08-19T10:23:34.000Z</time>
      </trkpt>
      <trkpt lat="45.29883" lon="4.4569">
        <ele>1077.3</ele>
        <time>2018-08-19T10:23:35.000Z</time>
      </trkpt>
      <trkpt lat="45.29883" lon="4.4569">
        <ele>1077.3</ele>
        <time>2018-08-19T10:23:36.000Z</time>
      </trkpt>
      <trkpt lat="45.29883" lon="4.4569">
        <ele>1077.3</ele>
        <time>2018-08-19T10:23:37.000Z</time>
      </trkpt>
      <trkpt lat="45.29883" lon="4.4569">
        <ele>1077.3</ele>
        <time>2018-08-19T10:23:38.000Z</time>
      </trkpt>
      <trkpt lat="45.29883" lon="4.4569">
        <ele>1077.3</ele>
        <time>2018-08-19T10:23:39.000Z</time>
      </trkpt>
      <trkpt lat="45.29883" lon="4.4569">
        <ele>1077.3</ele>
        <time>2018-08-19T10:23:40.000Z</time>
      </trkpt>
      <trkpt lat="45.29883" lon="4.4569">
        <ele>1077.3</ele>
        <time>2018-08-19T10:23:41.000Z</time>
      </trkpt>
      <trkpt lat="45.29883" lon="4.4569">
        <ele>1077.3</ele>
        <time>2018-08-19T10:23:42.000Z</time>
      </trkpt>
      <trkpt lat="45.29883" lon="4.4569">
        <ele>1077.3</ele>
        <time>2018-08-19T10:23:43.000Z</time>
      </trkpt>
      <trkpt lat="45.29883" lon="4.4569">
        <ele>1077.3</ele>
        <time>2018-08-19T10:23:44.000Z</time>
      </trkpt>
      <trkpt lat="45.29883" lon="4.4569">
        <ele>1077.3</ele>
        <time>2018-08-19T10:23:45.000Z</time>
      </trkpt>
      <trkpt lat="45.29883" lon="4.4569">
        <ele>1077.3</ele>
        <time>2018-08-19T10:23:46.000Z</time>
      </trkpt>
      <trkpt lat="45.29883" lon="4.4569">
        <ele>1077.3</ele>
        <time>2018-08-19T10:23:47.000Z</time>
      </trkpt>
      <trkpt lat="45.29883" lon="4.4569">
        <ele>1077.3</ele>
        <time>2018-08-19T10:23:48.000Z</time>
      </trkpt>
      <trkpt lat="45.29883" lon="4.4569">
        <ele>1077.3</ele>
        <time>2018-08-19T10:23:49.000Z</time>
      </trkpt>
      <trkpt lat="45.29883" lon="4.4569">
        <ele>1077.3</ele>
        <time>2018-08-19T10:23:50.000Z</time>
      </trkpt>
      <trkpt lat="45.29883" lon="4.4569">
        <ele>1077.3</ele>
        <time>2018-08-19T10:23:51.000Z</time>
      </trkpt>
      <trkpt lat="45.29883" lon="4.4569">
        <ele>1077.3</ele>
        <time>2018-08-19T10:23:52.000Z</time>
      </trkpt>
      <trkpt lat="45.29883" lon="4.4569">
        <ele>1077.3</ele>
        <time>2018-08-19T10:23:53.000Z</time>
      </trkpt>
      <trkpt lat="45.29883" lon="4.4569">
        <ele>1077.3</ele>
        <time>2018-08-19T10:23:54.000Z</time>
      </trkpt>
      <trkpt lat="45.29883" lon="4.4569">
        <ele>1077.3</ele>
        <time>2018-08-19T10:23:55.000Z</time>
      </trkpt>
      <trkpt lat="45.29883" lon="4.4569">
        <ele>1077.3</ele>
        <time>2018-08-19T10:23:56.000Z</time>
      </trkpt>
      <trkpt lat="45.29883" lon="4.4569">
        <ele>1077.3</ele>
        <time>2018-08-19T10:23:57.000Z</time>
      </trkpt>
      <trkpt lat="45.29883" lon="4.4569">
        <ele>1077.3</ele>
        <time>2018-08-19T10:23:58.000Z</time>
      </trkpt>
      <trkpt lat="45.29883" lon="4.4569">
        <ele>1077.3</ele>
        <time>2018-08-19T10:23:59.000Z</time>
      </trkpt>
      <trkpt lat="45.29883" lon="4.4569">
        <ele>1077.3</ele>
        <time>2018-08-19T10:24:00.000Z</time>
      </trkpt>
      <trkpt lat="45.29883" lon="4.4569">
        <ele>1077.3</ele>
        <time>2018-08-19T10:24:01.000Z</time>
      </trkpt>
      <trkpt lat="45.29883" lon="4.4569">
        <ele>1077.3</ele>
        <time>2018-08-19T10:24:02.000Z</time>
      </trkpt>
      <trkpt lat="45.29883" lon="4.4569">
        <ele>1077.3</ele>
        <time>2018-08-19T10:24:03.000Z</time>
      </trkpt>
      <trkpt lat="45.29883" lon="4.4569">
        <ele>1077.3</ele>
        <time>2018-08-19T10:24:04.000Z</time>
      </trkpt>
      <trkpt lat="45.29883" lon="4.4569">
        <ele>1077.3</ele>
        <time>2018-08-19T10:24:05.000Z</time>
      </trkpt>
      <trkpt lat="45.29883" lon="4.4569">
        <ele>1077.3</ele>
        <time>2018-08-19T10:24:06.000Z</time>
      </trkpt>
      <trkpt lat="45.29883" lon="4.4569">
        <ele>1077.3</ele>
        <time>2018-08-19T10:24:07.000Z</time>
      </trkpt>
      <trkpt lat="45.29883" lon="4.4569">
        <ele>1077.3</ele>
        <time>2018-08-19T10:24:08.000Z</time>
      </trkpt>
      <trkpt lat="45.29883" lon="4.4569">
        <ele>1077.3</ele>
        <time>2018-08-19T10:24:09.000Z</time>
      </trkpt>
      <trkpt lat="45.29883" lon="4.4569">
        <ele>1077.3</ele>
        <time>2018-08-19T10:24:10.000Z</time>
      </trkpt>
      <trkpt lat="45.29883" lon="4.4569">
        <ele>1077.3</ele>
        <time>2018-08-19T10:24:11.000Z</time>
      </trkpt>
      <trkpt lat="45.29883" lon="4.4569">
        <ele>1077.3</ele>
        <time>2018-08-19T10:24:12.000Z</time>
      </trkpt>
      <trkpt lat="45.29883" lon="4.4569">
        <ele>1077.3</ele>
        <time>2018-08-19T10:24:13.000Z</time>
      </trkpt>
      <trkpt lat="45.29883" lon="4.4569">
        <ele>1077.3</ele>
        <time>2018-08-19T10:24:14.000Z</time>
      </trkpt>
      <trkpt lat="45.29883" lon="4.4569">
        <ele>1077.3</ele>
        <time>2018-08-19T10:24:15.000Z</time>
      </trkpt>
      <trkpt lat="45.29883" lon="4.4569">
        <ele>1077.3</ele>
        <time>2018-08-19T10:24:16.000Z</time>
      </trkpt>
      <trkpt lat="45.29883" lon="4.4569">
        <ele>1077.3</ele>
        <time>2018-08-19T10:24:17.000Z</time>
      </trkpt>
      <trkpt lat="45.29883" lon="4.4569">
        <ele>1077.3</ele>
        <time>2018-08-19T10:24:18.000Z</time>
      </trkpt>
      <trkpt lat="45.29883" lon="4.4569">
        <ele>1077.3</ele>
        <time>2018-08-19T10:24:19.000Z</time>
      </trkpt>
      <trkpt lat="45.29883" lon="4.4569">
        <ele>1077.3</ele>
        <time>2018-08-19T10:24:20.000Z</time>
      </trkpt>
      <trkpt lat="45.29883" lon="4.4569">
        <ele>1077.3</ele>
        <time>2018-08-19T10:24:21.000Z</time>
      </trkpt>
      <trkpt lat="45.29883" lon="4.4569">
        <ele>1077.3</ele>
        <time>2018-08-19T10:24:22.000Z</time>
      </trkpt>
      <trkpt lat="45.29883" lon="4.4569">
        <ele>1077.3</ele>
        <time>2018-08-19T10:24:23.000Z</time>
      </trkpt>
      <trkpt lat="45.29883" lon="4.4569">
        <ele>1077.3</ele>
        <time>2018-08-19T10:24:24.000Z</time>
      </trkpt>
      <trkpt lat="45.29883" lon="4.4569">
        <ele>1077.3</ele>
        <time>2018-08-19T10:24:25.000Z</time>
      </trkpt>
      <trkpt lat="45.29883" lon="4.4569">
        <ele>1077.3</ele>
        <time>2018-08-19T10:24:26.000Z</time>
      </trkpt>
      <trkpt lat="45.29883" lon="4.4569">
        <ele>1077.3</ele>
        <time>2018-08-19T10:24:27.000Z</time>
      </trkpt>
      <trkpt lat="45.29883" lon="4.4569">
        <ele>1077.3</ele>
        <time>2018-08-19T10:24:28.000Z</time>
      </trkpt>
      <trkpt lat="45.29883" lon="4.4569">
        <ele>1077.3</ele>
        <time>2018-08-19T10:24:29.000Z</time>
      </trkpt>
      <trkpt lat="45.29883" lon="4.4569">
        <ele>1077.3</ele>
        <time>2018-08-19T10:24:30.000Z</time>
      </trkpt>
      <trkpt lat="45.29883" lon="4.4569">
        <ele>1077.3</ele>
        <time>2018-08-19T10:24:31.000Z</time>
      </trkpt>
      <trkpt lat="45.29883" lon="4.4569">
        <ele>1077.3</ele>
        <time>2018-08-19T10:24:32.000Z</time>
      </trkpt>
      <trkpt lat="45.29883" lon="4.4569">
        <ele>1077.3</ele>
        <time>2018-08-19T10:24:33.000Z</time>
      </trkpt>
      <trkpt lat="45.29883" lon="4.4569">
        <ele>1077.3</ele>
        <time>2018-08-19T10:24:34.000Z</time>
      </trkpt>
      <trkpt lat="45.29883" lon="4.4569">
        <ele>1077.3</ele>
        <time>2018-08-19T10:24:35.000Z</time>
      </trkpt>
      <trkpt lat="45.29883" lon="4.4569">
        <ele>1077.3</ele>
        <time>2018-08-19T10:24:36.000Z</time>
      </trkpt>
      <trkpt lat="45.29883" lon="4.4569">
        <ele>1077.3</ele>
        <time>2018-08-19T10:24:37.000Z</time>
      </trkpt>
      <trkpt lat="45.29883" lon="4.4569">
        <ele>1077.3</ele>
        <time>2018-08-19T10:24:38.000Z</time>
      </trkpt>
      <trkpt lat="45.29883" lon="4.4569">
        <ele>1077.3</ele>
        <time>2018-08-19T10:24:39.000Z</time>
      </trkpt>
      <trkpt lat="45.29883" lon="4.4569">
        <ele>1077.3</ele>
        <time>2018-08-19T10:24:40.000Z</time>
      </trkpt>
      <trkpt lat="45.29883" lon="4.4569">
        <ele>1077.3</ele>
        <time>2018-08-19T10:24:41.000Z</time>
      </trkpt>
      <trkpt lat="45.29883" lon="4.4569">
        <ele>1077.3</ele>
        <time>2018-08-19T10:24:42.000Z</time>
      </trkpt>
      <trkpt lat="45.29883" lon="4.45689">
        <ele>1077.2</ele>
        <time>2018-08-19T10:24:43.000Z</time>
      </trkpt>
      <trkpt lat="45.29883" lon="4.45688">
        <ele>1077.2</ele>
        <time>2018-08-19T10:24:44.000Z</time>
      </trkpt>
      <trkpt lat="45.29883" lon="4.45687">
        <ele>1077.1</ele>
        <time>2018-08-19T10:24:45.000Z</time>
      </trkpt>
      <trkpt lat="45.29883" lon="4.45685">
        <ele>1077.1</ele>
        <time>2018-08-19T10:24:46.000Z</time>
      </trkpt>
      <trkpt lat="45.29883" lon="4.45683">
        <ele>1077</ele>
        <time>2018-08-19T10:24:47.000Z</time>
      </trkpt>
      <trkpt lat="45.29883" lon="4.45682">
        <ele>1076.9</ele>
        <time>2018-08-19T10:24:48.000Z</time>
      </trkpt>
      <trkpt lat="45.29884" lon="4.45681">
        <ele>1076.8</ele>
        <time>2018-08-19T10:24:49.000Z</time>
      </trkpt>
      <trkpt lat="45.29886" lon="4.4568">
        <ele>1076.7</ele>
        <time>2018-08-19T10:24:50.000Z</time>
      </trkpt>
      <trkpt lat="45.29887" lon="4.45679">
        <ele>1076.6</ele>
        <time>2018-08-19T10:24:51.000Z</time>
      </trkpt>
      <trkpt lat="45.29888" lon="4.45679">
        <ele>1076.6</ele>
        <time>2018-08-19T10:24:52.000Z</time>
      </trkpt>
      <trkpt lat="45.2989" lon="4.45679">
        <ele>1076.5</ele>
        <time>2018-08-19T10:24:53.000Z</time>
      </trkpt>
      <trkpt lat="45.29891" lon="4.45679">
        <ele>1076.5</ele>
        <time>2018-08-19T10:24:54.000Z</time>
      </trkpt>
      <trkpt lat="45.29892" lon="4.45679">
        <ele>1076.4</ele>
        <time>2018-08-19T10:24:55.000Z</time>
      </trkpt>
      <trkpt lat="45.29894" lon="4.45679">
        <ele>1076.3</ele>
        <time>2018-08-19T10:24:56.000Z</time>
      </trkpt>
      <trkpt lat="45.29895" lon="4.45679">
        <ele>1076.3</ele>
        <time>2018-08-19T10:24:57.000Z</time>
      </trkpt>
      <trkpt lat="45.29897" lon="4.45679">
        <ele>1076.2</ele>
        <time>2018-08-19T10:24:58.000Z</time>
      </trkpt>
      <trkpt lat="45.29898" lon="4.45679">
        <ele>1076.2</ele>
        <time>2018-08-19T10:24:59.000Z</time>
      </trkpt>
      <trkpt lat="45.29899" lon="4.45679">
        <ele>1076.1</ele>
        <time>2018-08-19T10:25:00.000Z</time>
      </trkpt>
      <trkpt lat="45.29901" lon="4.45679">
        <ele>1076.1</ele>
        <time>2018-08-19T10:25:01.000Z</time>
      </trkpt>
      <trkpt lat="45.29902" lon="4.4568">
        <ele>1076</ele>
        <time>2018-08-19T10:25:02.000Z</time>
      </trkpt>
      <trkpt lat="45.29904" lon="4.4568">
        <ele>1076</ele>
        <time>2018-08-19T10:25:03.000Z</time>
      </trkpt>
      <trkpt lat="45.29905" lon="4.4568">
        <ele>1075.9</ele>
        <time>2018-08-19T10:25:04.000Z</time>
      </trkpt>
      <trkpt lat="45.29907" lon="4.4568">
        <ele>1075.9</ele>
        <time>2018-08-19T10:25:05.000Z</time>
      </trkpt>
      <trkpt lat="45.29908" lon="4.4568">
        <ele>1075.8</ele>
        <time>2018-08-19T10:25:06.000Z</time>
      </trkpt>
      <trkpt lat="45.2991" lon="4.4568">
        <ele>1075.8</ele>
        <time>2018-08-19T10:25:07.000Z</time>
      </trkpt>
      <trkpt lat="45.29911" lon="4.45681">
        <ele>1075.7</ele>
        <time>2018-08-19T10:25:08.000Z</time>
      </trkpt>
      <trkpt lat="45.29912" lon="4.45681">
        <ele>1075.7</ele>
        <time>2018-08-19T10:25:09.000Z</time>
      </trkpt>
      <trkpt lat="45.29914" lon="4.45681">
        <ele>1075.6</ele>
        <time>2018-08-19T10:25:10.000Z</time>
      </trkpt>
      <trkpt lat="45.29915" lon="4.45681">
        <ele>1075.6</ele>
        <time>2018-08-19T10:25:11.000Z</time>
      </trkpt>
      <trkpt lat="45.29917" lon="4.45681">
        <ele>1075.5</ele>
        <time>2018-08-19T10:25:12.000Z</time>
      </trkpt>
      <trkpt lat="45.29918" lon="4.45681">
        <ele>1075.6</ele>
        <time>2018-08-19T10:25:13.000Z</time>
      </trkpt>
      <trkpt lat="45.29919" lon="4.45681">
        <ele>1075.7</ele>
        <time>2018-08-19T10:25:14.000Z</time>
      </trkpt>
      <trkpt lat="45.29921" lon="4.45681">
        <ele>1075.8</ele>
        <time>2018-08-19T10:25:15.000Z</time>
      </trkpt>
      <trkpt lat="45.29922" lon="4.45681">
        <ele>1075.9</ele>
        <time>2018-08-19T10:25:16.000Z</time>
      </trkpt>
      <trkpt lat="45.29923" lon="4.45681">
        <ele>1076</ele>
        <time>2018-08-19T10:25:17.000Z</time>
      </trkpt>
      <trkpt lat="45.29925" lon="4.4568">
        <ele>1076.1</ele>
        <time>2018-08-19T10:25:18.000Z</time>
      </trkpt>
      <trkpt lat="45.29926" lon="4.4568">
        <ele>1076.2</ele>
        <time>2018-08-19T10:25:19.000Z</time>
      </trkpt>
      <trkpt lat="45.29928" lon="4.4568">
        <ele>1076.3</ele>
        <time>2018-08-19T10:25:20.000Z</time>
      </trkpt>
      <trkpt lat="45.29929" lon="4.4568">
        <ele>1076.4</ele>
        <time>2018-08-19T10:25:21.000Z</time>
      </trkpt>
      <trkpt lat="45.2993" lon="4.45679">
        <ele>1076.5</ele>
        <time>2018-08-19T10:25:22.000Z</time>
      </trkpt>
      <trkpt lat="45.29932" lon="4.45679">
        <ele>1076.5</ele>
        <time>2018-08-19T10:25:23.000Z</time>
      </trkpt>
      <trkpt lat="45.29933" lon="4.45679">
        <ele>1076.6</ele>
        <time>2018-08-19T10:25:24.000Z</time>
      </trkpt>
      <trkpt lat="45.29934" lon="4.45678">
        <ele>1076.7</ele>
        <time>2018-08-19T10:25:25.000Z</time>
      </trkpt>
      <trkpt lat="45.29935" lon="4.45677">
        <ele>1076.8</ele>
        <time>2018-08-19T10:25:26.000Z</time>
      </trkpt>
      <trkpt lat="45.29937" lon="4.45677">
        <ele>1076.8</ele>
        <time>2018-08-19T10:25:27.000Z</time>
      </trkpt>
      <trkpt lat="45.29938" lon="4.45676">
        <ele>1076.9</ele>
        <time>2018-08-19T10:25:28.000Z</time>
      </trkpt>
      <trkpt lat="45.29939" lon="4.45675">
        <ele>1077</ele>
        <time>2018-08-19T10:25:29.000Z</time>
      </trkpt>
      <trkpt lat="45.29941" lon="4.45675">
        <ele>1077</ele>
        <time>2018-08-19T10:25:30.000Z</time>
      </trkpt>
      <trkpt lat="45.29942" lon="4.45674">
        <ele>1077.1</ele>
        <time>2018-08-19T10:25:31.000Z</time>
      </trkpt>
      <trkpt lat="45.29943" lon="4.45673">
        <ele>1077.1</ele>
        <time>2018-08-19T10:25:32.000Z</time>
      </trkpt>
      <trkpt lat="45.29944" lon="4.45672">
        <ele>1077.2</ele>
        <time>2018-08-19T10:25:33.000Z</time>
      </trkpt>
      <trkpt lat="45.29945" lon="4.45671">
        <ele>1077.2</ele>
        <time>2018-08-19T10:25:34.000Z</time>
      </trkpt>
      <trkpt lat="45.29947" lon="4.4567">
        <ele>1077.3</ele>
        <time>2018-08-19T10:25:35.000Z</time>
      </trkpt>
      <trkpt lat="45.29948" lon="4.45669">
        <ele>1077.3</ele>
        <time>2018-08-19T10:25:36.000Z</time>
      </trkpt>
      <trkpt lat="45.29949" lon="4.45667">
        <ele>1077.3</ele>
        <time>2018-08-19T10:25:37.000Z</time>
      </trkpt>
      <trkpt lat="45.2995" lon="4.45666">
        <ele>1077.4</ele>
        <time>2018-08-19T10:25:38.000Z</time>
      </trkpt>
      <trkpt lat="45.29951" lon="4.45665">
        <ele>1077.4</ele>
        <time>2018-08-19T10:25:39.000Z</time>
      </trkpt>
      <trkpt lat="45.29952" lon="4.45663">
        <ele>1077.5</ele>
        <time>2018-08-19T10:25:40.000Z</time>
      </trkpt>
      <trkpt lat="45.29952" lon="4.45662">
        <ele>1077.5</ele>
        <time>2018-08-19T10:25:41.000Z</time>
      </trkpt>
      <trkpt lat="45.29953" lon="4.4566">
        <ele>1077.5</ele>
        <time>2018-08-19T10:25:42.000Z</time>
      </trkpt>
      <trkpt lat="45.29954" lon="4.45658">
        <ele>1077.6</ele>
        <time>2018-08-19T10:25:43.000Z</time>
      </trkpt>
      <trkpt lat="45.29954" lon="4.45657">
        <ele>1077.6</ele>
        <time>2018-08-19T10:25:44.000Z</time>
      </trkpt>
      <trkpt lat="45.29955" lon="4.45655">
        <ele>1077.6</ele>
        <time>2018-08-19T10:25:45.000Z</time>
      </trkpt>
      <trkpt lat="45.29955" lon="4.45653">
        <ele>1077.6</ele>
        <time>2018-08-19T10:25:46.000Z</time>
      </trkpt>
      <trkpt lat="45.29956" lon="4.45651">
        <ele>1077.6</ele>
        <time>2018-08-19T10:25:47.000Z</time>
      </trkpt>
      <trkpt lat="45.29956" lon="4.45649">
        <ele>1077.6</ele>
        <time>2018-08-19T10:25:48.000Z</time>
      </trkpt>
      <trkpt lat="45.29956" lon="4.45647">
        <ele>1077.6</ele>
        <time>2018-08-19T10:25:49.000Z</time>
      </trkpt>
      <trkpt lat="45.29956" lon="4.45645">
        <ele>1077.6</ele>
        <time>2018-08-19T10:25:50.000Z</time>
      </trkpt>
      <trkpt lat="45.29957" lon="4.45644">
        <ele>1077.6</ele>
        <time>2018-08-19T10:25:51.000Z</time>
      </trkpt>
      <trkpt lat="45.29957" lon="4.45642">
        <ele>1077.6</ele>
        <time>2018-08-19T10:25:52.000Z</time>
      </trkpt>
      <trkpt lat="45.29957" lon="4.4564">
        <ele>1077.6</ele>
        <time>2018-08-19T10:25:53.000Z</time>
      </trkpt>
      <trkpt lat="45.29957" lon="4.45638">
        <ele>1077.5</ele>
        <time>2018-08-19T10:25:54.000Z</time>
      </trkpt>
      <trkpt lat="45.29957" lon="4.45636">
        <ele>1077.5</ele>
        <time>2018-08-19T10:25:55.000Z</time>
      </trkpt>
      <trkpt lat="45.29957" lon="4.45634">
        <ele>1077.5</ele>
        <time>2018-08-19T10:25:56.000Z</time>
      </trkpt>
      <trkpt lat="45.29957" lon="4.45632">
        <ele>1077.5</ele>
        <time>2018-08-19T10:25:57.000Z</time>
      </trkpt>
      <trkpt lat="45.29958" lon="4.4563">
        <ele>1077.5</ele>
        <time>2018-08-19T10:25:58.000Z</time>
      </trkpt>
      <trkpt lat="45.29958" lon="4.45628">
        <ele>1077.5</ele>
        <time>2018-08-19T10:25:59.000Z</time>
      </trkpt>
      <trkpt lat="45.29958" lon="4.45626">
        <ele>1077.5</ele>
        <time>2018-08-19T10:26:00.000Z</time>
      </trkpt>
      <trkpt lat="45.29958" lon="4.45624">
        <ele>1077.5</ele>
        <time>2018-08-19T10:26:01.000Z</time>
      </trkpt>
      <trkpt lat="45.29958" lon="4.45622">
        <ele>1077.5</ele>
        <time>2018-08-19T10:26:02.000Z</time>
      </trkpt>
      <trkpt lat="45.29958" lon="4.4562">
        <ele>1077.4</ele>
        <time>2018-08-19T10:26:03.000Z</time>
      </trkpt>
      <trkpt lat="45.29959" lon="4.45618">
        <ele>1077.4</ele>
        <time>2018-08-19T10:26:04.000Z</time>
      </trkpt>
      <trkpt lat="45.29959" lon="4.45616">
        <ele>1077.4</ele>
        <time>2018-08-19T10:26:05.000Z</time>
      </trkpt>
      <trkpt lat="45.29959" lon="4.45614">
        <ele>1077.4</ele>
        <time>2018-08-19T10:26:06.000Z</time>
      </trkpt>
      <trkpt lat="45.29959" lon="4.45613">
        <ele>1077.4</ele>
        <time>2018-08-19T10:26:07.000Z</time>
      </trkpt>
      <trkpt lat="45.2996" lon="4.45611">
        <ele>1077.4</ele>
        <time>2018-08-19T10:26:08.000Z</time>
      </trkpt>
      <trkpt lat="45.2996" lon="4.45609">
        <ele>1077.4</ele>
        <time>2018-08-19T10:26:09.000Z</time>
      </trkpt>
      <trkpt lat="45.2996" lon="4.45607">
        <ele>1077.4</ele>
        <time>2018-08-19T10:26:10.000Z</time>
      </trkpt>
      <trkpt lat="45.2996" lon="4.45605">
        <ele>1077.4</ele>
        <time>2018-08-19T10:26:11.000Z</time>
      </trkpt>
      <trkpt lat="45.2996" lon="4.45603">
        <ele>1077.4</ele>
        <time>2018-08-19T10:26:12.000Z</time>
      </trkpt>
      <trkpt lat="45.2996" lon="4.45601">
        <ele>1077.4</ele>
        <time>2018-08-19T10:26:13.000Z</time>
      </trkpt>
      <trkpt lat="45.2996" lon="4.456">
        <ele>1077.3</ele>
        <time>2018-08-19T10:26:14.000Z</time>
      </trkpt>
      <trkpt lat="45.2996" lon="4.45598">
        <ele>1077.3</ele>
        <time>2018-08-19T10:26:15.000Z</time>
      </trkpt>
      <trkpt lat="45.2996" lon="4.45596">
        <ele>1077.3</ele>
        <time>2018-08-19T10:26:16.000Z</time>
      </trkpt>
      <trkpt lat="45.2996" lon="4.45594">
        <ele>1077.3</ele>
        <time>2018-08-19T10:26:17.000Z</time>
      </trkpt>
      <trkpt lat="45.2996" lon="4.45592">
        <ele>1077.2</ele>
        <time>2018-08-19T10:26:18.000Z</time>
      </trkpt>
      <trkpt lat="45.2996" lon="4.4559">
        <ele>1077.2</ele>
        <time>2018-08-19T10:26:19.000Z</time>
      </trkpt>
      <trkpt lat="45.2996" lon="4.45589">
        <ele>1077.2</ele>
        <time>2018-08-19T10:26:20.000Z</time>
      </trkpt>
      <trkpt lat="45.2996" lon="4.45587">
        <ele>1077.2</ele>
        <time>2018-08-19T10:26:21.000Z</time>
      </trkpt>
      <trkpt lat="45.2996" lon="4.45585">
        <ele>1077.2</ele>
        <time>2018-08-19T10:26:22.000Z</time>
      </trkpt>
      <trkpt lat="45.2996" lon="4.45583">
        <ele>1077.2</ele>
        <time>2018-08-19T10:26:23.000Z</time>
      </trkpt>
      <trkpt lat="45.2996" lon="4.45582">
        <ele>1077.3</ele>
        <time>2018-08-19T10:26:24.000Z</time>
      </trkpt>
      <trkpt lat="45.29961" lon="4.4558">
        <ele>1077.4</ele>
        <time>2018-08-19T10:26:25.000Z</time>
      </trkpt>
      <trkpt lat="45.29961" lon="4.45578">
        <ele>1077.6</ele>
        <time>2018-08-19T10:26:26.000Z</time>
      </trkpt>
      <trkpt lat="45.29961" lon="4.45576">
        <ele>1077.7</ele>
        <time>2018-08-19T10:26:27.000Z</time>
      </trkpt>
      <trkpt lat="45.29961" lon="4.45575">
        <ele>1077.8</ele>
        <time>2018-08-19T10:26:28.000Z</time>
      </trkpt>
      <trkpt lat="45.29961" lon="4.45573">
        <ele>1078</ele>
        <time>2018-08-19T10:26:29.000Z</time>
      </trkpt>
      <trkpt lat="45.29961" lon="4.45571">
        <ele>1078.1</ele>
        <time>2018-08-19T10:26:30.000Z</time>
      </trkpt>
      <trkpt lat="45.29962" lon="4.45569">
        <ele>1078.2</ele>
        <time>2018-08-19T10:26:31.000Z</time>
      </trkpt>
      <trkpt lat="45.29962" lon="4.45568">
        <ele>1078.4</ele>
        <time>2018-08-19T10:26:32.000Z</time>
      </trkpt>
      <trkpt lat="45.29962" lon="4.45566">
        <ele>1078.5</ele>
        <time>2018-08-19T10:26:33.000Z</time>
      </trkpt>
      <trkpt lat="45.29962" lon="4.45564">
        <ele>1078.6</ele>
        <time>2018-08-19T10:26:34.000Z</time>
      </trkpt>
      <trkpt lat="45.29962" lon="4.45563">
        <ele>1078.8</ele>
        <time>2018-08-19T10:26:35.000Z</time>
      </trkpt>
      <trkpt lat="45.29962" lon="4.45561">
        <ele>1078.9</ele>
        <time>2018-08-19T10:26:36.000Z</time>
      </trkpt>
      <trkpt lat="45.29962" lon="4.4556">
        <ele>1079</ele>
        <time>2018-08-19T10:26:37.000Z</time>
      </trkpt>
      <trkpt lat="45.29963" lon="4.45558">
        <ele>1079.1</ele>
        <time>2018-08-19T10:26:38.000Z</time>
      </trkpt>
      <trkpt lat="45.29962" lon="4.45557">
        <ele>1079.2</ele>
        <time>2018-08-19T10:26:39.000Z</time>
      </trkpt>
      <trkpt lat="45.29962" lon="4.45555">
        <ele>1079.3</ele>
        <time>2018-08-19T10:26:40.000Z</time>
      </trkpt>
      <trkpt lat="45.29962" lon="4.45554">
        <ele>1079.4</ele>
        <time>2018-08-19T10:26:41.000Z</time>
      </trkpt>
      <trkpt lat="45.29962" lon="4.45553">
        <ele>1079.5</ele>
        <time>2018-08-19T10:26:42.000Z</time>
      </trkpt>
      <trkpt lat="45.29962" lon="4.45552">
        <ele>1079.6</ele>
        <time>2018-08-19T10:26:43.000Z</time>
      </trkpt>
      <trkpt lat="45.29962" lon="4.45551">
        <ele>1079.6</ele>
        <time>2018-08-19T10:26:44.000Z</time>
      </trkpt>
      <trkpt lat="45.29962" lon="4.4555">
        <ele>1079.6</ele>
        <time>2018-08-19T10:26:45.000Z</time>
      </trkpt>
      <trkpt lat="45.29962" lon="4.4555">
        <ele>1079.7</ele>
        <time>2018-08-19T10:26:46.000Z</time>
      </trkpt>
      <trkpt lat="45.29962" lon="4.45549">
        <ele>1079.7</ele>
        <time>2018-08-19T10:26:47.000Z</time>
      </trkpt>
      <trkpt lat="45.29962" lon="4.45549">
        <ele>1079.7</ele>
        <time>2018-08-19T10:26:48.000Z</time>
      </trkpt>
      <trkpt lat="45.29962" lon="4.45549">
        <ele>1079.7</ele>
        <time>2018-08-19T10:26:49.000Z</time>
      </trkpt>
      <trkpt lat="45.29962" lon="4.4555">
        <ele>1079.7</ele>
        <time>2018-08-19T10:26:50.000Z</time>
      </trkpt>
      <trkpt lat="45.29962" lon="4.4555">
        <ele>1079.7</ele>
        <time>2018-08-19T10:26:51.000Z</time>
      </trkpt>
      <trkpt lat="45.29962" lon="4.4555">
        <ele>1079.7</ele>
        <time>2018-08-19T10:26:52.000Z</time>
      </trkpt>
      <trkpt lat="45.29962" lon="4.4555">
        <ele>1079.6</ele>
        <time>2018-08-19T10:26:53.000Z</time>
      </trkpt>
      <trkpt lat="45.29962" lon="4.4555">
        <ele>1079.7</ele>
        <time>2018-08-19T10:26:54.000Z</time>
      </trkpt>
      <trkpt lat="45.29962" lon="4.4555">
        <ele>1079.7</ele>
        <time>2018-08-19T10:26:55.000Z</time>
      </trkpt>
      <trkpt lat="45.29962" lon="4.4555">
        <ele>1079.7</ele>
        <time>2018-08-19T10:26:56.000Z</time>
      </trkpt>
      <trkpt lat="45.29961" lon="4.4555">
        <ele>1079.7</ele>
        <time>2018-08-19T10:26:57.000Z</time>
      </trkpt>
      <trkpt lat="45.29961" lon="4.45549">
        <ele>1079.7</ele>
        <time>2018-08-19T10:26:58.000Z</time>
      </trkpt>
      <trkpt lat="45.29961" lon="4.45549">
        <ele>1079.7</ele>
        <time>2018-08-19T10:26:59.000Z</time>
      </trkpt>
      <trkpt lat="45.29961" lon="4.45549">
        <ele>1079.7</ele>
        <time>2018-08-19T10:27:00.000Z</time>
      </trkpt>
      <trkpt lat="45.29961" lon="4.45549">
        <ele>1079.7</ele>
        <time>2018-08-19T10:27:01.000Z</time>
      </trkpt>
      <trkpt lat="45.29961" lon="4.45549">
        <ele>1079.7</ele>
        <time>2018-08-19T10:27:02.000Z</time>
      </trkpt>
      <trkpt lat="45.29961" lon="4.45549">
        <ele>1079.7</ele>
        <time>2018-08-19T10:27:03.000Z</time>
      </trkpt>
      <trkpt lat="45.29961" lon="4.45549">
        <ele>1079.7</ele>
        <time>2018-08-19T10:27:04.000Z</time>
      </trkpt>
      <trkpt lat="45.29961" lon="4.45549">
        <ele>1079.7</ele>
        <time>2018-08-19T10:27:05.000Z</time>
      </trkpt>
      <trkpt lat="45.29961" lon="4.45549">
        <ele>1079.7</ele>
        <time>2018-08-19T10:27:06.000Z</time>
      </trkpt>
      <trkpt lat="45.29961" lon="4.45549">
        <ele>1079.7</ele>
        <time>2018-08-19T10:27:07.000Z</time>
      </trkpt>
      <trkpt lat="45.29961" lon="4.45548">
        <ele>1079.7</ele>
        <time>2018-08-19T10:27:08.000Z</time>
      </trkpt>
      <trkpt lat="45.2996" lon="4.45546">
        <ele>1079.8</ele>
        <time>2018-08-19T10:27:09.000Z</time>
      </trkpt>
      <trkpt lat="45.2996" lon="4.45545">
        <ele>1079.9</ele>
        <time>2018-08-19T10:27:10.000Z</time>
      </trkpt>
      <trkpt lat="45.2996" lon="4.45544">
        <ele>1079.9</ele>
        <time>2018-08-19T10:27:11.000Z</time>
      </trkpt>
      <trkpt lat="45.29959" lon="4.45542">
        <ele>1080</ele>
        <time>2018-08-19T10:27:12.000Z</time>
      </trkpt>
      <trkpt lat="45.29959" lon="4.45541">
        <ele>1080.1</ele>
        <time>2018-08-19T10:27:13.000Z</time>
      </trkpt>
      <trkpt lat="45.29959" lon="4.45539">
        <ele>1080.2</ele>
        <time>2018-08-19T10:27:14.000Z</time>
      </trkpt>
      <trkpt lat="45.29958" lon="4.45538">
        <ele>1080.3</ele>
        <time>2018-08-19T10:27:15.000Z</time>
      </trkpt>
      <trkpt lat="45.29958" lon="4.45536">
        <ele>1080.4</ele>
        <time>2018-08-19T10:27:16.000Z</time>
      </trkpt>
      <trkpt lat="45.29958" lon="4.45535">
        <ele>1080.4</ele>
        <time>2018-08-19T10:27:17.000Z</time>
      </trkpt>
      <trkpt lat="45.29957" lon="4.45533">
        <ele>1080.5</ele>
        <time>2018-08-19T10:27:18.000Z</time>
      </trkpt>
      <trkpt lat="45.29957" lon="4.45531">
        <ele>1080.6</ele>
        <time>2018-08-19T10:27:19.000Z</time>
      </trkpt>
      <trkpt lat="45.29956" lon="4.4553">
        <ele>1080.7</ele>
        <time>2018-08-19T10:27:20.000Z</time>
      </trkpt>
      <trkpt lat="45.29955" lon="4.45528">
        <ele>1080.8</ele>
        <time>2018-08-19T10:27:21.000Z</time>
      </trkpt>
      <trkpt lat="45.29955" lon="4.45527">
        <ele>1080.8</ele>
        <time>2018-08-19T10:27:22.000Z</time>
      </trkpt>
      <trkpt lat="45.29954" lon="4.45525">
        <ele>1080.9</ele>
        <time>2018-08-19T10:27:23.000Z</time>
      </trkpt>
      <trkpt lat="45.29954" lon="4.45523">
        <ele>1081</ele>
        <time>2018-08-19T10:27:24.000Z</time>
      </trkpt>
      <trkpt lat="45.29953" lon="4.45522">
        <ele>1081</ele>
        <time>2018-08-19T10:27:25.000Z</time>
      </trkpt>
      <trkpt lat="45.29952" lon="4.4552">
        <ele>1081.1</ele>
        <time>2018-08-19T10:27:26.000Z</time>
      </trkpt>
      <trkpt lat="45.29951" lon="4.45519">
        <ele>1081.1</ele>
        <time>2018-08-19T10:27:27.000Z</time>
      </trkpt>
      <trkpt lat="45.29951" lon="4.45517">
        <ele>1081.2</ele>
        <time>2018-08-19T10:27:28.000Z</time>
      </trkpt>
      <trkpt lat="45.2995" lon="4.45516">
        <ele>1081.2</ele>
        <time>2018-08-19T10:27:29.000Z</time>
      </trkpt>
      <trkpt lat="45.29949" lon="4.45515">
        <ele>1081.3</ele>
        <time>2018-08-19T10:27:30.000Z</time>
      </trkpt>
      <trkpt lat="45.29948" lon="4.45513">
        <ele>1081.3</ele>
        <time>2018-08-19T10:27:31.000Z</time>
      </trkpt>
      <trkpt lat="45.29948" lon="4.45512">
        <ele>1081.4</ele>
        <time>2018-08-19T10:27:32.000Z</time>
      </trkpt>
      <trkpt lat="45.29947" lon="4.4551">
        <ele>1081.4</ele>
        <time>2018-08-19T10:27:33.000Z</time>
      </trkpt>
      <trkpt lat="45.29946" lon="4.45509">
        <ele>1081.5</ele>
        <time>2018-08-19T10:27:34.000Z</time>
      </trkpt>
      <trkpt lat="45.29945" lon="4.45508">
        <ele>1081.5</ele>
        <time>2018-08-19T10:27:35.000Z</time>
      </trkpt>
      <trkpt lat="45.29944" lon="4.45506">
        <ele>1081.5</ele>
        <time>2018-08-19T10:27:36.000Z</time>
      </trkpt>
      <trkpt lat="45.29943" lon="4.45505">
        <ele>1081.6</ele>
        <time>2018-08-19T10:27:37.000Z</time>
      </trkpt>
      <trkpt lat="45.29943" lon="4.45503">
        <ele>1081.6</ele>
        <time>2018-08-19T10:27:38.000Z</time>
      </trkpt>
      <trkpt lat="45.29942" lon="4.45502">
        <ele>1081.7</ele>
        <time>2018-08-19T10:27:39.000Z</time>
      </trkpt>
      <trkpt lat="45.29941" lon="4.45501">
        <ele>1081.7</ele>
        <time>2018-08-19T10:27:40.000Z</time>
      </trkpt>
      <trkpt lat="45.2994" lon="4.45499">
        <ele>1081.9</ele>
        <time>2018-08-19T10:27:41.000Z</time>
      </trkpt>
      <trkpt lat="45.2994" lon="4.45498">
        <ele>1082.1</ele>
        <time>2018-08-19T10:27:42.000Z</time>
      </trkpt>
      <trkpt lat="45.29939" lon="4.45496">
        <ele>1082.4</ele>
        <time>2018-08-19T10:27:43.000Z</time>
      </trkpt>
      <trkpt lat="45.29938" lon="4.45495">
        <ele>1082.6</ele>
        <time>2018-08-19T10:27:44.000Z</time>
      </trkpt>
      <trkpt lat="45.29937" lon="4.45493">
        <ele>1082.9</ele>
        <time>2018-08-19T10:27:45.000Z</time>
      </trkpt>
      <trkpt lat="45.29937" lon="4.45492">
        <ele>1083.1</ele>
        <time>2018-08-19T10:27:46.000Z</time>
      </trkpt>
      <trkpt lat="45.29936" lon="4.4549">
        <ele>1083.4</ele>
        <time>2018-08-19T10:27:47.000Z</time>
      </trkpt>
      <trkpt lat="45.29935" lon="4.45489">
        <ele>1083.7</ele>
        <time>2018-08-19T10:27:48.000Z</time>
      </trkpt>
      <trkpt lat="45.29934" lon="4.45487">
        <ele>1083.9</ele>
        <time>2018-08-19T10:27:49.000Z</time>
      </trkpt>
      <trkpt lat="45.29933" lon="4.45486">
        <ele>1084.2</ele>
        <time>2018-08-19T10:27:50.000Z</time>
      </trkpt>
      <trkpt lat="45.29933" lon="4.45484">
        <ele>1084.4</ele>
        <time>2018-08-19T10:27:51.000Z</time>
      </trkpt>
      <trkpt lat="45.29932" lon="4.45483">
        <ele>1084.6</ele>
        <time>2018-08-19T10:27:52.000Z</time>
      </trkpt>
      <trkpt lat="45.29931" lon="4.45482">
        <ele>1084.8</ele>
        <time>2018-08-19T10:27:53.000Z</time>
      </trkpt>
      <trkpt lat="45.2993" lon="4.4548">
        <ele>1085</ele>
        <time>2018-08-19T10:27:54.000Z</time>
      </trkpt>
      <trkpt lat="45.29929" lon="4.45479">
        <ele>1085.2</ele>
        <time>2018-08-19T10:27:55.000Z</time>
      </trkpt>
      <trkpt lat="45.29928" lon="4.45478">
        <ele>1085.4</ele>
        <time>2018-08-19T10:27:56.000Z</time>
      </trkpt>
      <trkpt lat="45.29927" lon="4.45477">
        <ele>1085.6</ele>
        <time>2018-08-19T10:27:57.000Z</time>
      </trkpt>
      <trkpt lat="45.29926" lon="4.45475">
        <ele>1085.7</ele>
        <time>2018-08-19T10:27:58.000Z</time>
      </trkpt>
      <trkpt lat="45.29925" lon="4.45474">
        <ele>1085.9</ele>
        <time>2018-08-19T10:27:59.000Z</time>
      </trkpt>
      <trkpt lat="45.29925" lon="4.45473">
        <ele>1086.1</ele>
        <time>2018-08-19T10:28:00.000Z</time>
      </trkpt>
      <trkpt lat="45.29924" lon="4.45472">
        <ele>1086.3</ele>
        <time>2018-08-19T10:28:01.000Z</time>
      </trkpt>
      <trkpt lat="45.29923" lon="4.4547">
        <ele>1086.6</ele>
        <time>2018-08-19T10:28:02.000Z</time>
      </trkpt>
      <trkpt lat="45.29922" lon="4.45469">
        <ele>1086.8</ele>
        <time>2018-08-19T10:28:03.000Z</time>
      </trkpt>
      <trkpt lat="45.29921" lon="4.45467">
        <ele>1087</ele>
        <time>2018-08-19T10:28:04.000Z</time>
      </trkpt>
      <trkpt lat="45.2992" lon="4.45466">
        <ele>1087.2</ele>
        <time>2018-08-19T10:28:05.000Z</time>
      </trkpt>
      <trkpt lat="45.29919" lon="4.45465">
        <ele>1087.4</ele>
        <time>2018-08-19T10:28:06.000Z</time>
      </trkpt>
      <trkpt lat="45.29918" lon="4.45463">
        <ele>1087.6</ele>
        <time>2018-08-19T10:28:07.000Z</time>
      </trkpt>
      <trkpt lat="45.29917" lon="4.45462">
        <ele>1087.8</ele>
        <time>2018-08-19T10:28:08.000Z</time>
      </trkpt>
      <trkpt lat="45.29916" lon="4.45461">
        <ele>1088</ele>
        <time>2018-08-19T10:28:09.000Z</time>
      </trkpt>
      <trkpt lat="45.29916" lon="4.45459">
        <ele>1088.2</ele>
        <time>2018-08-19T10:28:10.000Z</time>
      </trkpt>
      <trkpt lat="45.29915" lon="4.45458">
        <ele>1088.3</ele>
        <time>2018-08-19T10:28:11.000Z</time>
      </trkpt>
      <trkpt lat="45.29914" lon="4.45456">
        <ele>1088.5</ele>
        <time>2018-08-19T10:28:12.000Z</time>
      </trkpt>
      <trkpt lat="45.29913" lon="4.45455">
        <ele>1088.7</ele>
        <time>2018-08-19T10:28:13.000Z</time>
      </trkpt>
      <trkpt lat="45.29912" lon="4.45454">
        <ele>1088.8</ele>
        <time>2018-08-19T10:28:14.000Z</time>
      </trkpt>
      <trkpt lat="45.29911" lon="4.45452">
        <ele>1089</ele>
        <time>2018-08-19T10:28:15.000Z</time>
      </trkpt>
      <trkpt lat="45.2991" lon="4.45451">
        <ele>1089.1</ele>
        <time>2018-08-19T10:28:16.000Z</time>
      </trkpt>
      <trkpt lat="45.29909" lon="4.4545">
        <ele>1089.2</ele>
        <time>2018-08-19T10:28:17.000Z</time>
      </trkpt>
      <trkpt lat="45.29908" lon="4.45448">
        <ele>1089.4</ele>
        <time>2018-08-19T10:28:18.000Z</time>
      </trkpt>
      <trkpt lat="45.29907" lon="4.45447">
        <ele>1089.5</ele>
        <time>2018-08-19T10:28:19.000Z</time>
      </trkpt>
      <trkpt lat="45.29906" lon="4.45446">
        <ele>1089.6</ele>
        <time>2018-08-19T10:28:20.000Z</time>
      </trkpt>
      <trkpt lat="45.29905" lon="4.45445">
        <ele>1089.7</ele>
        <time>2018-08-19T10:28:21.000Z</time>
      </trkpt>
      <trkpt lat="45.29904" lon="4.45444">
        <ele>1089.8</ele>
        <time>2018-08-19T10:28:22.000Z</time>
      </trkpt>
      <trkpt lat="45.29903" lon="4.45442">
        <ele>1089.9</ele>
        <time>2018-08-19T10:28:23.000Z</time>
      </trkpt>
      <trkpt lat="45.29902" lon="4.45441">
        <ele>1089.9</ele>
        <time>2018-08-19T10:28:24.000Z</time>
      </trkpt>
      <trkpt lat="45.29901" lon="4.4544">
        <ele>1090</ele>
        <time>2018-08-19T10:28:25.000Z</time>
      </trkpt>
      <trkpt lat="45.299" lon="4.45439">
        <ele>1090</ele>
        <time>2018-08-19T10:28:26.000Z</time>
      </trkpt>
      <trkpt lat="45.29899" lon="4.45438">
        <ele>1090.1</ele>
        <time>2018-08-19T10:28:27.000Z</time>
      </trkpt>
      <trkpt lat="45.29897" lon="4.45437">
        <ele>1090.1</ele>
        <time>2018-08-19T10:28:28.000Z</time>
      </trkpt>
      <trkpt lat="45.29896" lon="4.45436">
        <ele>1090.1</ele>
        <time>2018-08-19T10:28:29.000Z</time>
      </trkpt>
      <trkpt lat="45.29895" lon="4.45435">
        <ele>1090.2</ele>
        <time>2018-08-19T10:28:30.000Z</time>
      </trkpt>
      <trkpt lat="45.29894" lon="4.45434">
        <ele>1090.2</ele>
        <time>2018-08-19T10:28:31.000Z</time>
      </trkpt>
      <trkpt lat="45.29893" lon="4.45433">
        <ele>1090.2</ele>
        <time>2018-08-19T10:28:32.000Z</time>
      </trkpt>
      <trkpt lat="45.29892" lon="4.45432">
        <ele>1090.2</ele>
        <time>2018-08-19T10:28:33.000Z</time>
      </trkpt>
      <trkpt lat="45.2989" lon="4.45431">
        <ele>1090.2</ele>
        <time>2018-08-19T10:28:34.000Z</time>
      </trkpt>
      <trkpt lat="45.29889" lon="4.4543">
        <ele>1090.2</ele>
        <time>2018-08-19T10:28:35.000Z</time>
      </trkpt>
      <trkpt lat="45.29888" lon="4.45429">
        <ele>1090.3</ele>
        <time>2018-08-19T10:28:36.000Z</time>
      </trkpt>
      <trkpt lat="45.29887" lon="4.45428">
        <ele>1090.3</ele>
        <time>2018-08-19T10:28:37.000Z</time>
      </trkpt>
      <trkpt lat="45.29885" lon="4.45427">
        <ele>1090.3</ele>
        <time>2018-08-19T10:28:38.000Z</time>
      </trkpt>
      <trkpt lat="45.29884" lon="4.45426">
        <ele>1090.3</ele>
        <time>2018-08-19T10:28:39.000Z</time>
      </trkpt>
      <trkpt lat="45.29883" lon="4.45425">
        <ele>1090.3</ele>
        <time>2018-08-19T10:28:40.000Z</time>
      </trkpt>
      <trkpt lat="45.29882" lon="4.45424">
        <ele>1090.3</ele>
        <time>2018-08-19T10:28:41.000Z</time>
      </trkpt>
      <trkpt lat="45.29881" lon="4.45423">
        <ele>1090.3</ele>
        <time>2018-08-19T10:28:42.000Z</time>
      </trkpt>
      <trkpt lat="45.2988" lon="4.45422">
        <ele>1090.3</ele>
        <time>2018-08-19T10:28:43.000Z</time>
      </trkpt>
      <trkpt lat="45.29879" lon="4.45421">
        <ele>1090.3</ele>
        <time>2018-08-19T10:28:44.000Z</time>
      </trkpt>
      <trkpt lat="45.29878" lon="4.45421">
        <ele>1090.3</ele>
        <time>2018-08-19T10:28:45.000Z</time>
      </trkpt>
      <trkpt lat="45.29878" lon="4.45421">
        <ele>1090.2</ele>
        <time>2018-08-19T10:28:46.000Z</time>
      </trkpt>
      <trkpt lat="45.29877" lon="4.4542">
        <ele>1090.2</ele>
        <time>2018-08-19T10:28:47.000Z</time>
      </trkpt>
      <trkpt lat="45.29876" lon="4.4542">
        <ele>1090.2</ele>
        <time>2018-08-19T10:28:48.000Z</time>
      </trkpt>
      <trkpt lat="45.29875" lon="4.45419">
        <ele>1090.1</ele>
        <time>2018-08-19T10:28:49.000Z</time>
      </trkpt>
      <trkpt lat="45.29874" lon="4.45418">
        <ele>1090.1</ele>
        <time>2018-08-19T10:28:50.000Z</time>
      </trkpt>
      <trkpt lat="45.29873" lon="4.45417">
        <ele>1090</ele>
        <time>2018-08-19T10:28:51.000Z</time>
      </trkpt>
      <trkpt lat="45.29871" lon="4.45416">
        <ele>1090</ele>
        <time>2018-08-19T10:28:52.000Z</time>
      </trkpt>
      <trkpt lat="45.2987" lon="4.45415">
        <ele>1090</ele>
        <time>2018-08-19T10:28:53.000Z</time>
      </trkpt>
      <trkpt lat="45.29869" lon="4.45414">
        <ele>1090</ele>
        <time>2018-08-19T10:28:54.000Z</time>
      </trkpt>
      <trkpt lat="45.29867" lon="4.45413">
        <ele>1090</ele>
        <time>2018-08-19T10:28:55.000Z</time>
      </trkpt>
      <trkpt lat="45.29866" lon="4.45412">
        <ele>1090</ele>
        <time>2018-08-19T10:28:56.000Z</time>
      </trkpt>
      <trkpt lat="45.29865" lon="4.4541">
        <ele>1090</ele>
        <time>2018-08-19T10:28:57.000Z</time>
      </trkpt>
      <trkpt lat="45.29864" lon="4.45409">
        <ele>1090.1</ele>
        <time>2018-08-19T10:28:58.000Z</time>
      </trkpt>
      <trkpt lat="45.29863" lon="4.45408">
        <ele>1090.1</ele>
        <time>2018-08-19T10:28:59.000Z</time>
      </trkpt>
      <trkpt lat="45.29862" lon="4.45406">
        <ele>1090.2</ele>
        <time>2018-08-19T10:29:00.000Z</time>
      </trkpt>
      <trkpt lat="45.29861" lon="4.45405">
        <ele>1090.2</ele>
        <time>2018-08-19T10:29:01.000Z</time>
      </trkpt>
      <trkpt lat="45.2986" lon="4.45404">
        <ele>1090.3</ele>
        <time>2018-08-19T10:29:02.000Z</time>
      </trkpt>
      <trkpt lat="45.29859" lon="4.45402">
        <ele>1090.4</ele>
        <time>2018-08-19T10:29:03.000Z</time>
      </trkpt>
      <trkpt lat="45.29857" lon="4.45401">
        <ele>1090.5</ele>
        <time>2018-08-19T10:29:04.000Z</time>
      </trkpt>
      <trkpt lat="45.29856" lon="4.45399">
        <ele>1090.6</ele>
        <time>2018-08-19T10:29:05.000Z</time>
      </trkpt>
      <trkpt lat="45.29855" lon="4.45397">
        <ele>1090.7</ele>
        <time>2018-08-19T10:29:06.000Z</time>
      </trkpt>
      <trkpt lat="45.29854" lon="4.45396">
        <ele>1090.9</ele>
        <time>2018-08-19T10:29:07.000Z</time>
      </trkpt>
      <trkpt lat="45.29853" lon="4.45394">
        <ele>1091</ele>
        <time>2018-08-19T10:29:08.000Z</time>
      </trkpt>
      <trkpt lat="45.29852" lon="4.45392">
        <ele>1091.1</ele>
        <time>2018-08-19T10:29:09.000Z</time>
      </trkpt>
      <trkpt lat="45.29851" lon="4.45391">
        <ele>1091.3</ele>
        <time>2018-08-19T10:29:10.000Z</time>
      </trkpt>
      <trkpt lat="45.2985" lon="4.45389">
        <ele>1091.4</ele>
        <time>2018-08-19T10:29:11.000Z</time>
      </trkpt>
      <trkpt lat="45.29849" lon="4.45388">
        <ele>1091.5</ele>
        <time>2018-08-19T10:29:12.000Z</time>
      </trkpt>
      <trkpt lat="45.29848" lon="4.45386">
        <ele>1091.7</ele>
        <time>2018-08-19T10:29:13.000Z</time>
      </trkpt>
      <trkpt lat="45.29847" lon="4.45384">
        <ele>1091.8</ele>
        <time>2018-08-19T10:29:14.000Z</time>
      </trkpt>
      <trkpt lat="45.29846" lon="4.45383">
        <ele>1092</ele>
        <time>2018-08-19T10:29:15.000Z</time>
      </trkpt>
      <trkpt lat="45.29846" lon="4.45381">
        <ele>1092.1</ele>
        <time>2018-08-19T10:29:16.000Z</time>
      </trkpt>
      <trkpt lat="45.29845" lon="4.4538">
        <ele>1092.3</ele>
        <time>2018-08-19T10:29:17.000Z</time>
      </trkpt>
      <trkpt lat="45.29844" lon="4.45378">
        <ele>1092.4</ele>
        <time>2018-08-19T10:29:18.000Z</time>
      </trkpt>
      <trkpt lat="45.29843" lon="4.45377">
        <ele>1092.6</ele>
        <time>2018-08-19T10:29:19.000Z</time>
      </trkpt>
      <trkpt lat="45.29842" lon="4.45375">
        <ele>1092.7</ele>
        <time>2018-08-19T10:29:20.000Z</time>
      </trkpt>
      <trkpt lat="45.29842" lon="4.45374">
        <ele>1092.9</ele>
        <time>2018-08-19T10:29:21.000Z</time>
      </trkpt>
      <trkpt lat="45.29841" lon="4.45372">
        <ele>1093</ele>
        <time>2018-08-19T10:29:22.000Z</time>
      </trkpt>
      <trkpt lat="45.2984" lon="4.45371">
        <ele>1093.2</ele>
        <time>2018-08-19T10:29:23.000Z</time>
      </trkpt>
      <trkpt lat="45.29839" lon="4.4537">
        <ele>1093.3</ele>
        <time>2018-08-19T10:29:24.000Z</time>
      </trkpt>
      <trkpt lat="45.29839" lon="4.45368">
        <ele>1093.5</ele>
        <time>2018-08-19T10:29:25.000Z</time>
      </trkpt>
      <trkpt lat="45.29838" lon="4.45367">
        <ele>1093.6</ele>
        <time>2018-08-19T10:29:26.000Z</time>
      </trkpt>
      <trkpt lat="45.29837" lon="4.45365">
        <ele>1093.8</ele>
        <time>2018-08-19T10:29:27.000Z</time>
      </trkpt>
      <trkpt lat="45.29836" lon="4.45364">
        <ele>1094</ele>
        <time>2018-08-19T10:29:28.000Z</time>
      </trkpt>
      <trkpt lat="45.29835" lon="4.45362">
        <ele>1094.1</ele>
        <time>2018-08-19T10:29:29.000Z</time>
      </trkpt>
      <trkpt lat="45.29835" lon="4.45361">
        <ele>1094.3</ele>
        <time>2018-08-19T10:29:30.000Z</time>
      </trkpt>
      <trkpt lat="45.29834" lon="4.45359">
        <ele>1094.4</ele>
        <time>2018-08-19T10:29:31.000Z</time>
      </trkpt>
      <trkpt lat="45.29833" lon="4.45358">
        <ele>1094.6</ele>
        <time>2018-08-19T10:29:32.000Z</time>
      </trkpt>
      <trkpt lat="45.29832" lon="4.45356">
        <ele>1094.7</ele>
        <time>2018-08-19T10:29:33.000Z</time>
      </trkpt>
      <trkpt lat="45.29831" lon="4.45354">
        <ele>1094.8</ele>
        <time>2018-08-19T10:29:34.000Z</time>
      </trkpt>
      <trkpt lat="45.29831" lon="4.45353">
        <ele>1095</ele>
        <time>2018-08-19T10:29:35.000Z</time>
      </trkpt>
      <trkpt lat="45.2983" lon="4.45351">
        <ele>1095.1</ele>
        <time>2018-08-19T10:29:36.000Z</time>
      </trkpt>
      <trkpt lat="45.29829" lon="4.4535">
        <ele>1095.2</ele>
        <time>2018-08-19T10:29:37.000Z</time>
      </trkpt>
      <trkpt lat="45.29828" lon="4.45348">
        <ele>1095.3</ele>
        <time>2018-08-19T10:29:38.000Z</time>
      </trkpt>
      <trkpt lat="45.29827" lon="4.45347">
        <ele>1095.4</ele>
        <time>2018-08-19T10:29:39.000Z</time>
      </trkpt>
      <trkpt lat="45.29826" lon="4.45345">
        <ele>1095.6</ele>
        <time>2018-08-19T10:29:40.000Z</time>
      </trkpt>
      <trkpt lat="45.29826" lon="4.45344">
        <ele>1095.7</ele>
        <time>2018-08-19T10:29:41.000Z</time>
      </trkpt>
      <trkpt lat="45.29825" lon="4.45342">
        <ele>1095.8</ele>
        <time>2018-08-19T10:29:42.000Z</time>
      </trkpt>
      <trkpt lat="45.29824" lon="4.45341">
        <ele>1095.9</ele>
        <time>2018-08-19T10:29:43.000Z</time>
      </trkpt>
      <trkpt lat="45.29823" lon="4.45339">
        <ele>1096</ele>
        <time>2018-08-19T10:29:44.000Z</time>
      </trkpt>
      <trkpt lat="45.29822" lon="4.45338">
        <ele>1096.1</ele>
        <time>2018-08-19T10:29:45.000Z</time>
      </trkpt>
      <trkpt lat="45.29821" lon="4.45336">
        <ele>1096.2</ele>
        <time>2018-08-19T10:29:46.000Z</time>
      </trkpt>
      <trkpt lat="45.29821" lon="4.45335">
        <ele>1096.3</ele>
        <time>2018-08-19T10:29:47.000Z</time>
      </trkpt>
      <trkpt lat="45.2982" lon="4.45333">
        <ele>1096.4</ele>
        <time>2018-08-19T10:29:48.000Z</time>
      </trkpt>
      <trkpt lat="45.29819" lon="4.45331">
        <ele>1096.4</ele>
        <time>2018-08-19T10:29:49.000Z</time>
      </trkpt>
      <trkpt lat="45.29818" lon="4.4533">
        <ele>1096.3</ele>
        <time>2018-08-19T10:29:50.000Z</time>
      </trkpt>
      <trkpt lat="45.29817" lon="4.45328">
        <ele>1096.3</ele>
        <time>2018-08-19T10:29:51.000Z</time>
      </trkpt>
      <trkpt lat="45.29816" lon="4.45327">
        <ele>1096.2</ele>
        <time>2018-08-19T10:29:52.000Z</time>
      </trkpt>
      <trkpt lat="45.29815" lon="4.45325">
        <ele>1096.2</ele>
        <time>2018-08-19T10:29:53.000Z</time>
      </trkpt>
      <trkpt lat="45.29815" lon="4.45324">
        <ele>1096.2</ele>
        <time>2018-08-19T10:29:54.000Z</time>
      </trkpt>
      <trkpt lat="45.29814" lon="4.45322">
        <ele>1096.1</ele>
        <time>2018-08-19T10:29:55.000Z</time>
      </trkpt>
      <trkpt lat="45.29813" lon="4.45321">
        <ele>1096.1</ele>
        <time>2018-08-19T10:29:56.000Z</time>
      </trkpt>
      <trkpt lat="45.29812" lon="4.45319">
        <ele>1096.1</ele>
        <time>2018-08-19T10:29:57.000Z</time>
      </trkpt>
      <trkpt lat="45.29811" lon="4.45317">
        <ele>1096.1</ele>
        <time>2018-08-19T10:29:58.000Z</time>
      </trkpt>
      <trkpt lat="45.2981" lon="4.45316">
        <ele>1096.1</ele>
        <time>2018-08-19T10:29:59.000Z</time>
      </trkpt>
      <trkpt lat="45.29809" lon="4.45314">
        <ele>1096</ele>
        <time>2018-08-19T10:30:00.000Z</time>
      </trkpt>
      <trkpt lat="45.29808" lon="4.45313">
        <ele>1096</ele>
        <time>2018-08-19T10:30:01.000Z</time>
      </trkpt>
      <trkpt lat="45.29808" lon="4.45311">
        <ele>1096</ele>
        <time>2018-08-19T10:30:02.000Z</time>
      </trkpt>
      <trkpt lat="45.29807" lon="4.4531">
        <ele>1096</ele>
        <time>2018-08-19T10:30:03.000Z</time>
      </trkpt>
      <trkpt lat="45.29806" lon="4.45308">
        <ele>1096</ele>
        <time>2018-08-19T10:30:04.000Z</time>
      </trkpt>
      <trkpt lat="45.29805" lon="4.45307">
        <ele>1096</ele>
        <time>2018-08-19T10:30:05.000Z</time>
      </trkpt>
      <trkpt lat="45.29804" lon="4.45305">
        <ele>1096</ele>
        <time>2018-08-19T10:30:06.000Z</time>
      </trkpt>
      <trkpt lat="45.29803" lon="4.45304">
        <ele>1096</ele>
        <time>2018-08-19T10:30:07.000Z</time>
      </trkpt>
      <trkpt lat="45.29803" lon="4.45302">
        <ele>1096.1</ele>
        <time>2018-08-19T10:30:08.000Z</time>
      </trkpt>
      <trkpt lat="45.29802" lon="4.45301">
        <ele>1096.1</ele>
        <time>2018-08-19T10:30:09.000Z</time>
      </trkpt>
      <trkpt lat="45.29801" lon="4.45299">
        <ele>1096.1</ele>
        <time>2018-08-19T10:30:10.000Z</time>
      </trkpt>
      <trkpt lat="45.298" lon="4.45298">
        <ele>1096.1</ele>
        <time>2018-08-19T10:30:11.000Z</time>
      </trkpt>
      <trkpt lat="45.29799" lon="4.45296">
        <ele>1096.1</ele>
        <time>2018-08-19T10:30:12.000Z</time>
      </trkpt>
      <trkpt lat="45.29798" lon="4.45295">
        <ele>1096.2</ele>
        <time>2018-08-19T10:30:13.000Z</time>
      </trkpt>
      <trkpt lat="45.29798" lon="4.45293">
        <ele>1096.2</ele>
        <time>2018-08-19T10:30:14.000Z</time>
      </trkpt>
      <trkpt lat="45.29797" lon="4.45292">
        <ele>1096.2</ele>
        <time>2018-08-19T10:30:15.000Z</time>
      </trkpt>
      <trkpt lat="45.29796" lon="4.4529">
        <ele>1096.3</ele>
        <time>2018-08-19T10:30:16.000Z</time>
      </trkpt>
      <trkpt lat="45.29795" lon="4.45289">
        <ele>1096.3</ele>
        <time>2018-08-19T10:30:17.000Z</time>
      </trkpt>
      <trkpt lat="45.29794" lon="4.45287">
        <ele>1096.3</ele>
        <time>2018-08-19T10:30:18.000Z</time>
      </trkpt>
      <trkpt lat="45.29794" lon="4.45286">
        <ele>1096.4</ele>
        <time>2018-08-19T10:30:19.000Z</time>
      </trkpt>
      <trkpt lat="45.29793" lon="4.45284">
        <ele>1096.4</ele>
        <time>2018-08-19T10:30:20.000Z</time>
      </trkpt>
      <trkpt lat="45.29792" lon="4.45283">
        <ele>1096.5</ele>
        <time>2018-08-19T10:30:21.000Z</time>
      </trkpt>
      <trkpt lat="45.29791" lon="4.45281">
        <ele>1096.5</ele>
        <time>2018-08-19T10:30:22.000Z</time>
      </trkpt>
      <trkpt lat="45.2979" lon="4.4528">
        <ele>1096.6</ele>
        <time>2018-08-19T10:30:23.000Z</time>
      </trkpt>
      <trkpt lat="45.29789" lon="4.45278">
        <ele>1096.6</ele>
        <time>2018-08-19T10:30:24.000Z</time>
      </trkpt>
      <trkpt lat="45.29789" lon="4.45277">
        <ele>1096.7</ele>
        <time>2018-08-19T10:30:25.000Z</time>
      </trkpt>
      <trkpt lat="45.29788" lon="4.45275">
        <ele>1096.8</ele>
        <time>2018-08-19T10:30:26.000Z</time>
      </trkpt>
      <trkpt lat="45.29787" lon="4.45274">
        <ele>1096.9</ele>
        <time>2018-08-19T10:30:27.000Z</time>
      </trkpt>
      <trkpt lat="45.29786" lon="4.45272">
        <ele>1096.9</ele>
        <time>2018-08-19T10:30:28.000Z</time>
      </trkpt>
      <trkpt lat="45.29785" lon="4.45271">
        <ele>1097</ele>
        <time>2018-08-19T10:30:29.000Z</time>
      </trkpt>
      <trkpt lat="45.29785" lon="4.45269">
        <ele>1097.1</ele>
        <time>2018-08-19T10:30:30.000Z</time>
      </trkpt>
      <trkpt lat="45.29784" lon="4.45268">
        <ele>1097.2</ele>
        <time>2018-08-19T10:30:31.000Z</time>
      </trkpt>
      <trkpt lat="45.29783" lon="4.45266">
        <ele>1097.3</ele>
        <time>2018-08-19T10:30:32.000Z</time>
      </trkpt>
      <trkpt lat="45.29782" lon="4.45264">
        <ele>1097.4</ele>
        <time>2018-08-19T10:30:33.000Z</time>
      </trkpt>
      <trkpt lat="45.29781" lon="4.45263">
        <ele>1097.5</ele>
        <time>2018-08-19T10:30:34.000Z</time>
      </trkpt>
      <trkpt lat="45.2978" lon="4.45261">
        <ele>1097.6</ele>
        <time>2018-08-19T10:30:35.000Z</time>
      </trkpt>
      <trkpt lat="45.2978" lon="4.45259">
        <ele>1097.7</ele>
        <time>2018-08-19T10:30:36.000Z</time>
      </trkpt>
      <trkpt lat="45.29779" lon="4.45258">
        <ele>1097.8</ele>
        <time>2018-08-19T10:30:37.000Z</time>
      </trkpt>
      <trkpt lat="45.29778" lon="4.45256">
        <ele>1097.9</ele>
        <time>2018-08-19T10:30:38.000Z</time>
      </trkpt>
      <trkpt lat="45.29777" lon="4.45254">
        <ele>1098</ele>
        <time>2018-08-19T10:30:39.000Z</time>
      </trkpt>
      <trkpt lat="45.29776" lon="4.45253">
        <ele>1098.2</ele>
        <time>2018-08-19T10:30:40.000Z</time>
      </trkpt>
      <trkpt lat="45.29775" lon="4.45251">
        <ele>1098.3</ele>
        <time>2018-08-19T10:30:41.000Z</time>
      </trkpt>
      <trkpt lat="45.29774" lon="4.45249">
        <ele>1098.4</ele>
        <time>2018-08-19T10:30:42.000Z</time>
      </trkpt>
      <trkpt lat="45.29773" lon="4.45248">
        <ele>1098.4</ele>
        <time>2018-08-19T10:30:43.000Z</time>
      </trkpt>
      <trkpt lat="45.29772" lon="4.45246">
        <ele>1098.5</ele>
        <time>2018-08-19T10:30:44.000Z</time>
      </trkpt>
      <trkpt lat="45.29771" lon="4.45245">
        <ele>1098.6</ele>
        <time>2018-08-19T10:30:45.000Z</time>
      </trkpt>
      <trkpt lat="45.2977" lon="4.45243">
        <ele>1098.6</ele>
        <time>2018-08-19T10:30:46.000Z</time>
      </trkpt>
      <trkpt lat="45.2977" lon="4.45242">
        <ele>1098.7</ele>
        <time>2018-08-19T10:30:47.000Z</time>
      </trkpt>
      <trkpt lat="45.29769" lon="4.45241">
        <ele>1098.7</ele>
        <time>2018-08-19T10:30:48.000Z</time>
      </trkpt>
      <trkpt lat="45.29768" lon="4.45239">
        <ele>1098.7</ele>
        <time>2018-08-19T10:30:49.000Z</time>
      </trkpt>
      <trkpt lat="45.29767" lon="4.45238">
        <ele>1098.8</ele>
        <time>2018-08-19T10:30:50.000Z</time>
      </trkpt>
      <trkpt lat="45.29765" lon="4.45237">
        <ele>1098.8</ele>
        <time>2018-08-19T10:30:51.000Z</time>
      </trkpt>
      <trkpt lat="45.29764" lon="4.45236">
        <ele>1098.8</ele>
        <time>2018-08-19T10:30:52.000Z</time>
      </trkpt>
      <trkpt lat="45.29763" lon="4.45235">
        <ele>1098.8</ele>
        <time>2018-08-19T10:30:53.000Z</time>
      </trkpt>
      <trkpt lat="45.29762" lon="4.45234">
        <ele>1098.8</ele>
        <time>2018-08-19T10:30:54.000Z</time>
      </trkpt>
      <trkpt lat="45.29761" lon="4.45233">
        <ele>1098.8</ele>
        <time>2018-08-19T10:30:55.000Z</time>
      </trkpt>
      <trkpt lat="45.2976" lon="4.45232">
        <ele>1098.9</ele>
        <time>2018-08-19T10:30:56.000Z</time>
      </trkpt>
      <trkpt lat="45.29759" lon="4.45231">
        <ele>1098.9</ele>
        <time>2018-08-19T10:30:57.000Z</time>
      </trkpt>
      <trkpt lat="45.29758" lon="4.4523">
        <ele>1098.8</ele>
        <time>2018-08-19T10:30:58.000Z</time>
      </trkpt>
      <trkpt lat="45.29757" lon="4.45229">
        <ele>1098.8</ele>
        <time>2018-08-19T10:30:59.000Z</time>
      </trkpt>
      <trkpt lat="45.29755" lon="4.45228">
        <ele>1098.8</ele>
        <time>2018-08-19T10:31:00.000Z</time>
      </trkpt>
      <trkpt lat="45.29754" lon="4.45227">
        <ele>1098.8</ele>
        <time>2018-08-19T10:31:01.000Z</time>
      </trkpt>
      <trkpt lat="45.29753" lon="4.45226">
        <ele>1098.8</ele>
        <time>2018-08-19T10:31:02.000Z</time>
      </trkpt>
      <trkpt lat="45.29752" lon="4.45226">
        <ele>1098.7</ele>
        <time>2018-08-19T10:31:03.000Z</time>
      </trkpt>
      <trkpt lat="45.2975" lon="4.45225">
        <ele>1098.7</ele>
        <time>2018-08-19T10:31:04.000Z</time>
      </trkpt>
      <trkpt lat="45.29749" lon="4.45224">
        <ele>1098.6</ele>
        <time>2018-08-19T10:31:05.000Z</time>
      </trkpt>
      <trkpt lat="45.29748" lon="4.45223">
        <ele>1098.5</ele>
        <time>2018-08-19T10:31:06.000Z</time>
      </trkpt>
      <trkpt lat="45.29746" lon="4.45223">
        <ele>1098.4</ele>
        <time>2018-08-19T10:31:07.000Z</time>
      </trkpt>
      <trkpt lat="45.29745" lon="4.45222">
        <ele>1098.4</ele>
        <time>2018-08-19T10:31:08.000Z</time>
      </trkpt>
      <trkpt lat="45.29744" lon="4.45221">
        <ele>1098.3</ele>
        <time>2018-08-19T10:31:09.000Z</time>
      </trkpt>
      <trkpt lat="45.29742" lon="4.4522">
        <ele>1098.2</ele>
        <time>2018-08-19T10:31:10.000Z</time>
      </trkpt>
      <trkpt lat="45.29741" lon="4.4522">
        <ele>1098.1</ele>
        <time>2018-08-19T10:31:11.000Z</time>
      </trkpt>
      <trkpt lat="45.2974" lon="4.45219">
        <ele>1098</ele>
        <time>2018-08-19T10:31:12.000Z</time>
      </trkpt>
      <trkpt lat="45.29738" lon="4.45218">
        <ele>1098</ele>
        <time>2018-08-19T10:31:13.000Z</time>
      </trkpt>
      <trkpt lat="45.29737" lon="4.45217">
        <ele>1097.9</ele>
        <time>2018-08-19T10:31:14.000Z</time>
      </trkpt>
      <trkpt lat="45.29736" lon="4.45216">
        <ele>1097.9</ele>
        <time>2018-08-19T10:31:15.000Z</time>
      </trkpt>
      <trkpt lat="45.29735" lon="4.45215">
        <ele>1097.8</ele>
        <time>2018-08-19T10:31:16.000Z</time>
      </trkpt>
      <trkpt lat="45.29734" lon="4.45214">
        <ele>1097.8</ele>
        <time>2018-08-19T10:31:17.000Z</time>
      </trkpt>
      <trkpt lat="45.29732" lon="4.45213">
        <ele>1097.8</ele>
        <time>2018-08-19T10:31:18.000Z</time>
      </trkpt>
      <trkpt lat="45.29731" lon="4.45212">
        <ele>1097.8</ele>
        <time>2018-08-19T10:31:19.000Z</time>
      </trkpt>
      <trkpt lat="45.2973" lon="4.4521">
        <ele>1097.8</ele>
        <time>2018-08-19T10:31:20.000Z</time>
      </trkpt>
      <trkpt lat="45.29729" lon="4.45209">
        <ele>1097.8</ele>
        <time>2018-08-19T10:31:21.000Z</time>
      </trkpt>
      <trkpt lat="45.29728" lon="4.45208">
        <ele>1097.8</ele>
        <time>2018-08-19T10:31:22.000Z</time>
      </trkpt>
      <trkpt lat="45.29727" lon="4.45207">
        <ele>1097.8</ele>
        <time>2018-08-19T10:31:23.000Z</time>
      </trkpt>
      <trkpt lat="45.29726" lon="4.45205">
        <ele>1097.8</ele>
        <time>2018-08-19T10:31:24.000Z</time>
      </trkpt>
      <trkpt lat="45.29725" lon="4.45204">
        <ele>1097.9</ele>
        <time>2018-08-19T10:31:25.000Z</time>
      </trkpt>
      <trkpt lat="45.29724" lon="4.45203">
        <ele>1097.9</ele>
        <time>2018-08-19T10:31:26.000Z</time>
      </trkpt>
      <trkpt lat="45.29723" lon="4.45201">
        <ele>1098</ele>
        <time>2018-08-19T10:31:27.000Z</time>
      </trkpt>
      <trkpt lat="45.29722" lon="4.452">
        <ele>1098</ele>
        <time>2018-08-19T10:31:28.000Z</time>
      </trkpt>
      <trkpt lat="45.29721" lon="4.45198">
        <ele>1098.1</ele>
        <time>2018-08-19T10:31:29.000Z</time>
      </trkpt>
      <trkpt lat="45.2972" lon="4.45197">
        <ele>1098.1</ele>
        <time>2018-08-19T10:31:30.000Z</time>
      </trkpt>
      <trkpt lat="45.2972" lon="4.45196">
        <ele>1098.2</ele>
        <time>2018-08-19T10:31:31.000Z</time>
      </trkpt>
      <trkpt lat="45.29719" lon="4.45194">
        <ele>1098.3</ele>
        <time>2018-08-19T10:31:32.000Z</time>
      </trkpt>
      <trkpt lat="45.29718" lon="4.45193">
        <ele>1098.4</ele>
        <time>2018-08-19T10:31:33.000Z</time>
      </trkpt>
      <trkpt lat="45.29717" lon="4.45191">
        <ele>1098.4</ele>
        <time>2018-08-19T10:31:34.000Z</time>
      </trkpt>
      <trkpt lat="45.29716" lon="4.4519">
        <ele>1098.5</ele>
        <time>2018-08-19T10:31:35.000Z</time>
      </trkpt>
      <trkpt lat="45.29715" lon="4.45188">
        <ele>1098.6</ele>
        <time>2018-08-19T10:31:36.000Z</time>
      </trkpt>
      <trkpt lat="45.29714" lon="4.45187">
        <ele>1098.7</ele>
        <time>2018-08-19T10:31:37.000Z</time>
      </trkpt>
      <trkpt lat="45.29714" lon="4.45185">
        <ele>1098.8</ele>
        <time>2018-08-19T10:31:38.000Z</time>
      </trkpt>
      <trkpt lat="45.29713" lon="4.45184">
        <ele>1098.9</ele>
        <time>2018-08-19T10:31:39.000Z</time>
      </trkpt>
      <trkpt lat="45.29712" lon="4.45182">
        <ele>1099</ele>
        <time>2018-08-19T10:31:40.000Z</time>
      </trkpt>
      <trkpt lat="45.29711" lon="4.4518">
        <ele>1099.1</ele>
        <time>2018-08-19T10:31:41.000Z</time>
      </trkpt>
      <trkpt lat="45.2971" lon="4.45179">
        <ele>1099.2</ele>
        <time>2018-08-19T10:31:42.000Z</time>
      </trkpt>
      <trkpt lat="45.2971" lon="4.45177">
        <ele>1099.3</ele>
        <time>2018-08-19T10:31:43.000Z</time>
      </trkpt>
      <trkpt lat="45.29709" lon="4.45176">
        <ele>1099.4</ele>
        <time>2018-08-19T10:31:44.000Z</time>
      </trkpt>
      <trkpt lat="45.29708" lon="4.45174">
        <ele>1099.5</ele>
        <time>2018-08-19T10:31:45.000Z</time>
      </trkpt>
      <trkpt lat="45.29707" lon="4.45173">
        <ele>1099.7</ele>
        <time>2018-08-19T10:31:46.000Z</time>
      </trkpt>
      <trkpt lat="45.29707" lon="4.45171">
        <ele>1099.8</ele>
        <time>2018-08-19T10:31:47.000Z</time>
      </trkpt>
      <trkpt lat="45.29706" lon="4.45169">
        <ele>1099.9</ele>
        <time>2018-08-19T10:31:48.000Z</time>
      </trkpt>
      <trkpt lat="45.29705" lon="4.45168">
        <ele>1100</ele>
        <time>2018-08-19T10:31:49.000Z</time>
      </trkpt>
      <trkpt lat="45.29705" lon="4.45166">
        <ele>1100.1</ele>
        <time>2018-08-19T10:31:50.000Z</time>
      </trkpt>
      <trkpt lat="45.29704" lon="4.45165">
        <ele>1100.1</ele>
        <time>2018-08-19T10:31:51.000Z</time>
      </trkpt>
      <trkpt lat="45.29703" lon="4.45163">
        <ele>1100.2</ele>
        <time>2018-08-19T10:31:52.000Z</time>
      </trkpt>
      <trkpt lat="45.29702" lon="4.45162">
        <ele>1100.2</ele>
        <time>2018-08-19T10:31:53.000Z</time>
      </trkpt>
      <trkpt lat="45.29702" lon="4.4516">
        <ele>1100.2</ele>
        <time>2018-08-19T10:31:54.000Z</time>
      </trkpt>
      <trkpt lat="45.29701" lon="4.45159">
        <ele>1100.3</ele>
        <time>2018-08-19T10:31:55.000Z</time>
      </trkpt>
      <trkpt lat="45.297" lon="4.45157">
        <ele>1100.3</ele>
        <time>2018-08-19T10:31:56.000Z</time>
      </trkpt>
      <trkpt lat="45.297" lon="4.45156">
        <ele>1100.3</ele>
        <time>2018-08-19T10:31:57.000Z</time>
      </trkpt>
      <trkpt lat="45.29699" lon="4.45154">
        <ele>1100.3</ele>
        <time>2018-08-19T10:31:58.000Z</time>
      </trkpt>
      <trkpt lat="45.29698" lon="4.45153">
        <ele>1100.4</ele>
        <time>2018-08-19T10:31:59.000Z</time>
      </trkpt>
      <trkpt lat="45.29698" lon="4.45151">
        <ele>1100.4</ele>
        <time>2018-08-19T10:32:00.000Z</time>
      </trkpt>
      <trkpt lat="45.29697" lon="4.4515">
        <ele>1100.4</ele>
        <time>2018-08-19T10:32:01.000Z</time>
      </trkpt>
      <trkpt lat="45.29697" lon="4.45148">
        <ele>1100.5</ele>
        <time>2018-08-19T10:32:02.000Z</time>
      </trkpt>
      <trkpt lat="45.29696" lon="4.45147">
        <ele>1100.5</ele>
        <time>2018-08-19T10:32:03.000Z</time>
      </trkpt>
      <trkpt lat="45.29695" lon="4.45145">
        <ele>1100.5</ele>
        <time>2018-08-19T10:32:04.000Z</time>
      </trkpt>
      <trkpt lat="45.29695" lon="4.45144">
        <ele>1100.6</ele>
        <time>2018-08-19T10:32:05.000Z</time>
      </trkpt>
      <trkpt lat="45.29694" lon="4.45142">
        <ele>1100.6</ele>
        <time>2018-08-19T10:32:06.000Z</time>
      </trkpt>
      <trkpt lat="45.29693" lon="4.45141">
        <ele>1100.6</ele>
        <time>2018-08-19T10:32:07.000Z</time>
      </trkpt>
      <trkpt lat="45.29692" lon="4.45139">
        <ele>1100.7</ele>
        <time>2018-08-19T10:32:08.000Z</time>
      </trkpt>
      <trkpt lat="45.29692" lon="4.45138">
        <ele>1100.7</ele>
        <time>2018-08-19T10:32:09.000Z</time>
      </trkpt>
      <trkpt lat="45.29691" lon="4.45136">
        <ele>1100.7</ele>
        <time>2018-08-19T10:32:10.000Z</time>
      </trkpt>
      <trkpt lat="45.2969" lon="4.45134">
        <ele>1100.8</ele>
        <time>2018-08-19T10:32:11.000Z</time>
      </trkpt>
      <trkpt lat="45.2969" lon="4.45133">
        <ele>1100.8</ele>
        <time>2018-08-19T10:32:12.000Z</time>
      </trkpt>
      <trkpt lat="45.29689" lon="4.45131">
        <ele>1100.9</ele>
        <time>2018-08-19T10:32:13.000Z</time>
      </trkpt>
      <trkpt lat="45.29688" lon="4.45129">
        <ele>1100.9</ele>
        <time>2018-08-19T10:32:14.000Z</time>
      </trkpt>
      <trkpt lat="45.29688" lon="4.45128">
        <ele>1101</ele>
        <time>2018-08-19T10:32:15.000Z</time>
      </trkpt>
      <trkpt lat="45.29687" lon="4.45126">
        <ele>1101</ele>
        <time>2018-08-19T10:32:16.000Z</time>
      </trkpt>
      <trkpt lat="45.29686" lon="4.45124">
        <ele>1101.1</ele>
        <time>2018-08-19T10:32:17.000Z</time>
      </trkpt>
      <trkpt lat="45.29686" lon="4.45122">
        <ele>1101.1</ele>
        <time>2018-08-19T10:32:18.000Z</time>
      </trkpt>
      <trkpt lat="45.29685" lon="4.45121">
        <ele>1101.2</ele>
        <time>2018-08-19T10:32:19.000Z</time>
      </trkpt>
      <trkpt lat="45.29685" lon="4.45119">
        <ele>1101.3</ele>
        <time>2018-08-19T10:32:20.000Z</time>
      </trkpt>
      <trkpt lat="45.29684" lon="4.45117">
        <ele>1101.4</ele>
        <time>2018-08-19T10:32:21.000Z</time>
      </trkpt>
      <trkpt lat="45.29684" lon="4.45115">
        <ele>1101.4</ele>
        <time>2018-08-19T10:32:22.000Z</time>
      </trkpt>
      <trkpt lat="45.29683" lon="4.45113">
        <ele>1101.5</ele>
        <time>2018-08-19T10:32:23.000Z</time>
      </trkpt>
      <trkpt lat="45.29683" lon="4.45111">
        <ele>1101.6</ele>
        <time>2018-08-19T10:32:24.000Z</time>
      </trkpt>
      <trkpt lat="45.29682" lon="4.45109">
        <ele>1101.7</ele>
        <time>2018-08-19T10:32:25.000Z</time>
      </trkpt>
      <trkpt lat="45.29682" lon="4.45107">
        <ele>1101.8</ele>
        <time>2018-08-19T10:32:26.000Z</time>
      </trkpt>
      <trkpt lat="45.29682" lon="4.45105">
        <ele>1101.9</ele>
        <time>2018-08-19T10:32:27.000Z</time>
      </trkpt>
      <trkpt lat="45.29681" lon="4.45103">
        <ele>1102</ele>
        <time>2018-08-19T10:32:28.000Z</time>
      </trkpt>
      <trkpt lat="45.29681" lon="4.45101">
        <ele>1102.1</ele>
        <time>2018-08-19T10:32:29.000Z</time>
      </trkpt>
      <trkpt lat="45.29681" lon="4.45099">
        <ele>1102.3</ele>
        <time>2018-08-19T10:32:30.000Z</time>
      </trkpt>
      <trkpt lat="45.29681" lon="4.45097">
        <ele>1102.4</ele>
        <time>2018-08-19T10:32:31.000Z</time>
      </trkpt>
      <trkpt lat="45.29681" lon="4.45095">
        <ele>1102.5</ele>
        <time>2018-08-19T10:32:32.000Z</time>
      </trkpt>
      <trkpt lat="45.2968" lon="4.45093">
        <ele>1102.6</ele>
        <time>2018-08-19T10:32:33.000Z</time>
      </trkpt>
      <trkpt lat="45.2968" lon="4.45091">
        <ele>1102.8</ele>
        <time>2018-08-19T10:32:34.000Z</time>
      </trkpt>
      <trkpt lat="45.2968" lon="4.45089">
        <ele>1102.9</ele>
        <time>2018-08-19T10:32:35.000Z</time>
      </trkpt>
      <trkpt lat="45.2968" lon="4.45087">
        <ele>1103</ele>
        <time>2018-08-19T10:32:36.000Z</time>
      </trkpt>
      <trkpt lat="45.2968" lon="4.45085">
        <ele>1103.2</ele>
        <time>2018-08-19T10:32:37.000Z</time>
      </trkpt>
      <trkpt lat="45.2968" lon="4.45083">
        <ele>1103.3</ele>
        <time>2018-08-19T10:32:38.000Z</time>
      </trkpt>
      <trkpt lat="45.2968" lon="4.45081">
        <ele>1103.3</ele>
        <time>2018-08-19T10:32:39.000Z</time>
      </trkpt>
      <trkpt lat="45.2968" lon="4.45079">
        <ele>1103.2</ele>
        <time>2018-08-19T10:32:40.000Z</time>
      </trkpt>
      <trkpt lat="45.2968" lon="4.45077">
        <ele>1103.2</ele>
        <time>2018-08-19T10:32:41.000Z</time>
      </trkpt>
      <trkpt lat="45.2968" lon="4.45075">
        <ele>1103.2</ele>
        <time>2018-08-19T10:32:42.000Z</time>
      </trkpt>
      <trkpt lat="45.2968" lon="4.45073">
        <ele>1103.2</ele>
        <time>2018-08-19T10:32:43.000Z</time>
      </trkpt>
      <trkpt lat="45.2968" lon="4.45071">
        <ele>1103.1</ele>
        <time>2018-08-19T10:32:44.000Z</time>
      </trkpt>
      <trkpt lat="45.2968" lon="4.45069">
        <ele>1103.1</ele>
        <time>2018-08-19T10:32:45.000Z</time>
      </trkpt>
      <trkpt lat="45.2968" lon="4.45067">
        <ele>1103.1</ele>
        <time>2018-08-19T10:32:46.000Z</time>
      </trkpt>
      <trkpt lat="45.2968" lon="4.45065">
        <ele>1103.1</ele>
        <time>2018-08-19T10:32:47.000Z</time>
      </trkpt>
      <trkpt lat="45.2968" lon="4.45063">
        <ele>1103.1</ele>
        <time>2018-08-19T10:32:48.000Z</time>
      </trkpt>
      <trkpt lat="45.2968" lon="4.45061">
        <ele>1103</ele>
        <time>2018-08-19T10:32:49.000Z</time>
      </trkpt>
      <trkpt lat="45.2968" lon="4.45059">
        <ele>1103</ele>
        <time>2018-08-19T10:32:50.000Z</time>
      </trkpt>
      <trkpt lat="45.2968" lon="4.45057">
        <ele>1103</ele>
        <time>2018-08-19T10:32:51.000Z</time>
      </trkpt>
      <trkpt lat="45.2968" lon="4.45055">
        <ele>1103</ele>
        <time>2018-08-19T10:32:52.000Z</time>
      </trkpt>
      <trkpt lat="45.2968" lon="4.45053">
        <ele>1102.9</ele>
        <time>2018-08-19T10:32:53.000Z</time>
      </trkpt>
      <trkpt lat="45.2968" lon="4.45051">
        <ele>1102.9</ele>
        <time>2018-08-19T10:32:54.000Z</time>
      </trkpt>
      <trkpt lat="45.2968" lon="4.45049">
        <ele>1102.9</ele>
        <time>2018-08-19T10:32:55.000Z</time>
      </trkpt>
      <trkpt lat="45.2968" lon="4.45047">
        <ele>1102.9</ele>
        <time>2018-08-19T10:32:56.000Z</time>
      </trkpt>
      <trkpt lat="45.2968" lon="4.45045">
        <ele>1102.9</ele>
        <time>2018-08-19T10:32:57.000Z</time>
      </trkpt>
      <trkpt lat="45.2968" lon="4.45043">
        <ele>1102.8</ele>
        <time>2018-08-19T10:32:58.000Z</time>
      </trkpt>
      <trkpt lat="45.29681" lon="4.45041">
        <ele>1102.8</ele>
        <time>2018-08-19T10:32:59.000Z</time>
      </trkpt>
      <trkpt lat="45.29681" lon="4.45039">
        <ele>1102.8</ele>
        <time>2018-08-19T10:33:00.000Z</time>
      </trkpt>
      <trkpt lat="45.29681" lon="4.45037">
        <ele>1102.8</ele>
        <time>2018-08-19T10:33:01.000Z</time>
      </trkpt>
      <trkpt lat="45.29681" lon="4.45035">
        <ele>1102.8</ele>
        <time>2018-08-19T10:33:02.000Z</time>
      </trkpt>
      <trkpt lat="45.29681" lon="4.45033">
        <ele>1102.8</ele>
        <time>2018-08-19T10:33:03.000Z</time>
      </trkpt>
      <trkpt lat="45.29681" lon="4.45031">
        <ele>1102.8</ele>
        <time>2018-08-19T10:33:04.000Z</time>
      </trkpt>
      <trkpt lat="45.29681" lon="4.45029">
        <ele>1102.8</ele>
        <time>2018-08-19T10:33:05.000Z</time>
      </trkpt>
      <trkpt lat="45.29682" lon="4.45027">
        <ele>1102.8</ele>
        <time>2018-08-19T10:33:06.000Z</time>
      </trkpt>
      <trkpt lat="45.29682" lon="4.45025">
        <ele>1102.8</ele>
        <time>2018-08-19T10:33:07.000Z</time>
      </trkpt>
      <trkpt lat="45.29682" lon="4.45023">
        <ele>1102.8</ele>
        <time>2018-08-19T10:33:08.000Z</time>
      </trkpt>
      <trkpt lat="45.29682" lon="4.45021">
        <ele>1102.9</ele>
        <time>2018-08-19T10:33:09.000Z</time>
      </trkpt>
      <trkpt lat="45.29683" lon="4.4502">
        <ele>1102.9</ele>
        <time>2018-08-19T10:33:10.000Z</time>
      </trkpt>
      <trkpt lat="45.29683" lon="4.45018">
        <ele>1102.9</ele>
        <time>2018-08-19T10:33:11.000Z</time>
      </trkpt>
      <trkpt lat="45.29684" lon="4.45016">
        <ele>1103</ele>
        <time>2018-08-19T10:33:12.000Z</time>
      </trkpt>
      <trkpt lat="45.29684" lon="4.45014">
        <ele>1103.1</ele>
        <time>2018-08-19T10:33:13.000Z</time>
      </trkpt>
      <trkpt lat="45.29685" lon="4.45012">
        <ele>1103.1</ele>
        <time>2018-08-19T10:33:14.000Z</time>
      </trkpt>
      <trkpt lat="45.29685" lon="4.4501">
        <ele>1103.2</ele>
        <time>2018-08-19T10:33:15.000Z</time>
      </trkpt>
      <trkpt lat="45.29686" lon="4.45008">
        <ele>1103.3</ele>
        <time>2018-08-19T10:33:16.000Z</time>
      </trkpt>
      <trkpt lat="45.29687" lon="4.45006">
        <ele>1103.4</ele>
        <time>2018-08-19T10:33:17.000Z</time>
      </trkpt>
      <trkpt lat="45.29687" lon="4.45005">
        <ele>1103.5</ele>
        <time>2018-08-19T10:33:18.000Z</time>
      </trkpt>
      <trkpt lat="45.29688" lon="4.45003">
        <ele>1103.6</ele>
        <time>2018-08-19T10:33:19.000Z</time>
      </trkpt>
      <trkpt lat="45.29689" lon="4.45001">
        <ele>1103.8</ele>
        <time>2018-08-19T10:33:20.000Z</time>
      </trkpt>
      <trkpt lat="45.2969" lon="4.45">
        <ele>1103.9</ele>
        <time>2018-08-19T10:33:21.000Z</time>
      </trkpt>
      <trkpt lat="45.29691" lon="4.44998">
        <ele>1104</ele>
        <time>2018-08-19T10:33:22.000Z</time>
      </trkpt>
      <trkpt lat="45.29692" lon="4.44996">
        <ele>1104.1</ele>
        <time>2018-08-19T10:33:23.000Z</time>
      </trkpt>
      <trkpt lat="45.29693" lon="4.44995">
        <ele>1104.3</ele>
        <time>2018-08-19T10:33:24.000Z</time>
      </trkpt>
      <trkpt lat="45.29694" lon="4.44993">
        <ele>1104.4</ele>
        <time>2018-08-19T10:33:25.000Z</time>
      </trkpt>
      <trkpt lat="45.29695" lon="4.44992">
        <ele>1104.6</ele>
        <time>2018-08-19T10:33:26.000Z</time>
      </trkpt>
      <trkpt lat="45.29696" lon="4.44991">
        <ele>1104.7</ele>
        <time>2018-08-19T10:33:27.000Z</time>
      </trkpt>
      <trkpt lat="45.29697" lon="4.4499">
        <ele>1104.9</ele>
        <time>2018-08-19T10:33:28.000Z</time>
      </trkpt>
      <trkpt lat="45.29698" lon="4.44988">
        <ele>1105.1</ele>
        <time>2018-08-19T10:33:29.000Z</time>
      </trkpt>
      <trkpt lat="45.29699" lon="4.44987">
        <ele>1105.2</ele>
        <time>2018-08-19T10:33:30.000Z</time>
      </trkpt>
      <trkpt lat="45.29701" lon="4.44986">
        <ele>1105.4</ele>
        <time>2018-08-19T10:33:31.000Z</time>
      </trkpt>
      <trkpt lat="45.29702" lon="4.44985">
        <ele>1105.6</ele>
        <time>2018-08-19T10:33:32.000Z</time>
      </trkpt>
      <trkpt lat="45.29703" lon="4.44984">
        <ele>1105.8</ele>
        <time>2018-08-19T10:33:33.000Z</time>
      </trkpt>
      <trkpt lat="45.29704" lon="4.44983">
        <ele>1106</ele>
        <time>2018-08-19T10:33:34.000Z</time>
      </trkpt>
      <trkpt lat="45.29705" lon="4.44982">
        <ele>1106.2</ele>
        <time>2018-08-19T10:33:35.000Z</time>
      </trkpt>
      <trkpt lat="45.29707" lon="4.44981">
        <ele>1106.4</ele>
        <time>2018-08-19T10:33:36.000Z</time>
      </trkpt>
      <trkpt lat="45.29708" lon="4.44981">
        <ele>1106.6</ele>
        <time>2018-08-19T10:33:37.000Z</time>
      </trkpt>
      <trkpt lat="45.29709" lon="4.4498">
        <ele>1106.8</ele>
        <time>2018-08-19T10:33:38.000Z</time>
      </trkpt>
      <trkpt lat="45.2971" lon="4.44979">
        <ele>1107</ele>
        <time>2018-08-19T10:33:39.000Z</time>
      </trkpt>
      <trkpt lat="45.29712" lon="4.44978">
        <ele>1107.2</ele>
        <time>2018-08-19T10:33:40.000Z</time>
      </trkpt>
      <trkpt lat="45.29713" lon="4.44977">
        <ele>1107.4</ele>
        <time>2018-08-19T10:33:41.000Z</time>
      </trkpt>
      <trkpt lat="45.29714" lon="4.44976">
        <ele>1107.6</ele>
        <time>2018-08-19T10:33:42.000Z</time>
      </trkpt>
      <trkpt lat="45.29715" lon="4.44975">
        <ele>1107.8</ele>
        <time>2018-08-19T10:33:43.000Z</time>
      </trkpt>
      <trkpt lat="45.29717" lon="4.44975">
        <ele>1107.9</ele>
        <time>2018-08-19T10:33:44.000Z</time>
      </trkpt>
      <trkpt lat="45.29718" lon="4.44974">
        <ele>1108.1</ele>
        <time>2018-08-19T10:33:45.000Z</time>
      </trkpt>
      <trkpt lat="45.29719" lon="4.44973">
        <ele>1108.3</ele>
        <time>2018-08-19T10:33:46.000Z</time>
      </trkpt>
      <trkpt lat="45.2972" lon="4.44972">
        <ele>1108.5</ele>
        <time>2018-08-19T10:33:47.000Z</time>
      </trkpt>
      <trkpt lat="45.29721" lon="4.44971">
        <ele>1108.7</ele>
        <time>2018-08-19T10:33:48.000Z</time>
      </trkpt>
      <trkpt lat="45.29722" lon="4.4497">
        <ele>1108.9</ele>
        <time>2018-08-19T10:33:49.000Z</time>
      </trkpt>
      <trkpt lat="45.29724" lon="4.44969">
        <ele>1109.1</ele>
        <time>2018-08-19T10:33:50.000Z</time>
      </trkpt>
      <trkpt lat="45.29725" lon="4.44969">
        <ele>1109.3</ele>
        <time>2018-08-19T10:33:51.000Z</time>
      </trkpt>
      <trkpt lat="45.29726" lon="4.44968">
        <ele>1109.5</ele>
        <time>2018-08-19T10:33:52.000Z</time>
      </trkpt>
      <trkpt lat="45.29727" lon="4.44967">
        <ele>1109.7</ele>
        <time>2018-08-19T10:33:53.000Z</time>
      </trkpt>
      <trkpt lat="45.29728" lon="4.44966">
        <ele>1109.9</ele>
        <time>2018-08-19T10:33:54.000Z</time>
      </trkpt>
      <trkpt lat="45.2973" lon="4.44965">
        <ele>1110</ele>
        <time>2018-08-19T10:33:55.000Z</time>
      </trkpt>
      <trkpt lat="45.29731" lon="4.44964">
        <ele>1110.2</ele>
        <time>2018-08-19T10:33:56.000Z</time>
      </trkpt>
      <trkpt lat="45.29732" lon="4.44963">
        <ele>1110.4</ele>
        <time>2018-08-19T10:33:57.000Z</time>
      </trkpt>
      <trkpt lat="45.29733" lon="4.44963">
        <ele>1110.6</ele>
        <time>2018-08-19T10:33:58.000Z</time>
      </trkpt>
      <trkpt lat="45.29734" lon="4.44962">
        <ele>1110.8</ele>
        <time>2018-08-19T10:33:59.000Z</time>
      </trkpt>
      <trkpt lat="45.29736" lon="4.44961">
        <ele>1111</ele>
        <time>2018-08-19T10:34:00.000Z</time>
      </trkpt>
      <trkpt lat="45.29737" lon="4.4496">
        <ele>1111.2</ele>
        <time>2018-08-19T10:34:01.000Z</time>
      </trkpt>
      <trkpt lat="45.29738" lon="4.44959">
        <ele>1111.4</ele>
        <time>2018-08-19T10:34:02.000Z</time>
      </trkpt>
      <trkpt lat="45.29739" lon="4.44958">
        <ele>1111.6</ele>
        <time>2018-08-19T10:34:03.000Z</time>
      </trkpt>
      <trkpt lat="45.2974" lon="4.44957">
        <ele>1111.8</ele>
        <time>2018-08-19T10:34:04.000Z</time>
      </trkpt>
      <trkpt lat="45.29742" lon="4.44957">
        <ele>1112</ele>
        <time>2018-08-19T10:34:05.000Z</time>
      </trkpt>
      <trkpt lat="45.29743" lon="4.44956">
        <ele>1112.2</ele>
        <time>2018-08-19T10:34:06.000Z</time>
      </trkpt>
      <trkpt lat="45.29744" lon="4.44955">
        <ele>1112.4</ele>
        <time>2018-08-19T10:34:07.000Z</time>
      </trkpt>
      <trkpt lat="45.29745" lon="4.44954">
        <ele>1112.6</ele>
        <time>2018-08-19T10:34:08.000Z</time>
      </trkpt>
      <trkpt lat="45.29747" lon="4.44953">
        <ele>1112.8</ele>
        <time>2018-08-19T10:34:09.000Z</time>
      </trkpt>
      <trkpt lat="45.29748" lon="4.44952">
        <ele>1113</ele>
        <time>2018-08-19T10:34:10.000Z</time>
      </trkpt>
      <trkpt lat="45.29749" lon="4.44951">
        <ele>1113.2</ele>
        <time>2018-08-19T10:34:11.000Z</time>
      </trkpt>
      <trkpt lat="45.2975" lon="4.4495">
        <ele>1113.4</ele>
        <time>2018-08-19T10:34:12.000Z</time>
      </trkpt>
      <trkpt lat="45.29752" lon="4.44949">
        <ele>1113.5</ele>
        <time>2018-08-19T10:34:13.000Z</time>
      </trkpt>
      <trkpt lat="45.29753" lon="4.44948">
        <ele>1113.6</ele>
        <time>2018-08-19T10:34:14.000Z</time>
      </trkpt>
      <trkpt lat="45.29754" lon="4.44947">
        <ele>1113.7</ele>
        <time>2018-08-19T10:34:15.000Z</time>
      </trkpt>
      <trkpt lat="45.29755" lon="4.44946">
        <ele>1113.8</ele>
        <time>2018-08-19T10:34:16.000Z</time>
      </trkpt>
      <trkpt lat="45.29756" lon="4.44945">
        <ele>1113.9</ele>
        <time>2018-08-19T10:34:17.000Z</time>
      </trkpt>
      <trkpt lat="45.29758" lon="4.44944">
        <ele>1114</ele>
        <time>2018-08-19T10:34:18.000Z</time>
      </trkpt>
      <trkpt lat="45.29759" lon="4.44943">
        <ele>1114.1</ele>
        <time>2018-08-19T10:34:19.000Z</time>
      </trkpt>
      <trkpt lat="45.2976" lon="4.44942">
        <ele>1114.2</ele>
        <time>2018-08-19T10:34:20.000Z</time>
      </trkpt>
      <trkpt lat="45.29761" lon="4.44941">
        <ele>1114.3</ele>
        <time>2018-08-19T10:34:21.000Z</time>
      </trkpt>
      <trkpt lat="45.29762" lon="4.4494">
        <ele>1114.3</ele>
        <time>2018-08-19T10:34:22.000Z</time>
      </trkpt>
      <trkpt lat="45.29763" lon="4.44939">
        <ele>1114.4</ele>
        <time>2018-08-19T10:34:23.000Z</time>
      </trkpt>
      <trkpt lat="45.29765" lon="4.44938">
        <ele>1114.5</ele>
        <time>2018-08-19T10:34:24.000Z</time>
      </trkpt>
      <trkpt lat="45.29766" lon="4.44936">
        <ele>1114.6</ele>
        <time>2018-08-19T10:34:25.000Z</time>
      </trkpt>
      <trkpt lat="45.29767" lon="4.44935">
        <ele>1114.7</ele>
        <time>2018-08-19T10:34:26.000Z</time>
      </trkpt>
      <trkpt lat="45.29768" lon="4.44934">
        <ele>1114.8</ele>
        <time>2018-08-19T10:34:27.000Z</time>
      </trkpt>
      <trkpt lat="45.29769" lon="4.44932">
        <ele>1114.8</ele>
        <time>2018-08-19T10:34:28.000Z</time>
      </trkpt>
      <trkpt lat="45.2977" lon="4.44931">
        <ele>1114.9</ele>
        <time>2018-08-19T10:34:29.000Z</time>
      </trkpt>
      <trkpt lat="45.2977" lon="4.44929">
        <ele>1115</ele>
        <time>2018-08-19T10:34:30.000Z</time>
      </trkpt>
      <trkpt lat="45.29771" lon="4.44928">
        <ele>1115.1</ele>
        <time>2018-08-19T10:34:31.000Z</time>
      </trkpt>
      <trkpt lat="45.29772" lon="4.44926">
        <ele>1115.1</ele>
        <time>2018-08-19T10:34:32.000Z</time>
      </trkpt>
      <trkpt lat="45.29773" lon="4.44924">
        <ele>1115.2</ele>
        <time>2018-08-19T10:34:33.000Z</time>
      </trkpt>
      <trkpt lat="45.29773" lon="4.44922">
        <ele>1115.3</ele>
        <time>2018-08-19T10:34:34.000Z</time>
      </trkpt>
      <trkpt lat="45.29774" lon="4.44921">
        <ele>1115.3</ele>
        <time>2018-08-19T10:34:35.000Z</time>
      </trkpt>
      <trkpt lat="45.29775" lon="4.44919">
        <ele>1115.4</ele>
        <time>2018-08-19T10:34:36.000Z</time>
      </trkpt>
      <trkpt lat="45.29775" lon="4.44917">
        <ele>1115.4</ele>
        <time>2018-08-19T10:34:37.000Z</time>
      </trkpt>
      <trkpt lat="45.29776" lon="4.44915">
        <ele>1115.5</ele>
        <time>2018-08-19T10:34:38.000Z</time>
      </trkpt>
      <trkpt lat="45.29776" lon="4.44913">
        <ele>1115.6</ele>
        <time>2018-08-19T10:34:39.000Z</time>
      </trkpt>
      <trkpt lat="45.29777" lon="4.44911">
        <ele>1115.6</ele>
        <time>2018-08-19T10:34:40.000Z</time>
      </trkpt>
      <trkpt lat="45.29777" lon="4.4491">
        <ele>1115.7</ele>
        <time>2018-08-19T10:34:41.000Z</time>
      </trkpt>
      <trkpt lat="45.29778" lon="4.44908">
        <ele>1115.8</ele>
        <time>2018-08-19T10:34:42.000Z</time>
      </trkpt>
      <trkpt lat="45.29778" lon="4.44906">
        <ele>1115.8</ele>
        <time>2018-08-19T10:34:43.000Z</time>
      </trkpt>
      <trkpt lat="45.29779" lon="4.44905">
        <ele>1115.9</ele>
        <time>2018-08-19T10:34:44.000Z</time>
      </trkpt>
      <trkpt lat="45.29779" lon="4.44904">
        <ele>1116</ele>
        <time>2018-08-19T10:34:45.000Z</time>
      </trkpt>
      <trkpt lat="45.2978" lon="4.44902">
        <ele>1116</ele>
        <time>2018-08-19T10:34:46.000Z</time>
      </trkpt>
      <trkpt lat="45.2978" lon="4.44901">
        <ele>1116.1</ele>
        <time>2018-08-19T10:34:47.000Z</time>
      </trkpt>
      <trkpt lat="45.2978" lon="4.449">
        <ele>1116.1</ele>
        <time>2018-08-19T10:34:48.000Z</time>
      </trkpt>
      <trkpt lat="45.29781" lon="4.44899">
        <ele>1116.2</ele>
        <time>2018-08-19T10:34:49.000Z</time>
      </trkpt>
      <trkpt lat="45.29781" lon="4.44898">
        <ele>1116.2</ele>
        <time>2018-08-19T10:34:50.000Z</time>
      </trkpt>
      <trkpt lat="45.29781" lon="4.44898">
        <ele>1116.2</ele>
        <time>2018-08-19T10:34:51.000Z</time>
      </trkpt>
      <trkpt lat="45.29781" lon="4.44897">
        <ele>1116.2</ele>
        <time>2018-08-19T10:34:52.000Z</time>
      </trkpt>
      <trkpt lat="45.29782" lon="4.44897">
        <ele>1116.3</ele>
        <time>2018-08-19T10:34:53.000Z</time>
      </trkpt>
      <trkpt lat="45.29782" lon="4.44897">
        <ele>1116.3</ele>
        <time>2018-08-19T10:34:54.000Z</time>
      </trkpt>
      <trkpt lat="45.29782" lon="4.44896">
        <ele>1116.3</ele>
        <time>2018-08-19T10:34:55.000Z</time>
      </trkpt>
      <trkpt lat="45.29782" lon="4.44896">
        <ele>1116.3</ele>
        <time>2018-08-19T10:34:56.000Z</time>
      </trkpt>
      <trkpt lat="45.29782" lon="4.44896">
        <ele>1116.3</ele>
        <time>2018-08-19T10:34:57.000Z</time>
      </trkpt>
      <trkpt lat="45.29782" lon="4.44896">
        <ele>1116.3</ele>
        <time>2018-08-19T10:34:58.000Z</time>
      </trkpt>
      <trkpt lat="45.29782" lon="4.44896">
        <ele>1116.3</ele>
        <time>2018-08-19T10:34:59.000Z</time>
      </trkpt>
      <trkpt lat="45.29782" lon="4.44896">
        <ele>1116.3</ele>
        <time>2018-08-19T10:35:00.000Z</time>
      </trkpt>
      <trkpt lat="45.29782" lon="4.44896">
        <ele>1116.3</ele>
        <time>2018-08-19T10:35:01.000Z</time>
      </trkpt>
      <trkpt lat="45.29782" lon="4.44896">
        <ele>1116.3</ele>
        <time>2018-08-19T10:35:02.000Z</time>
      </trkpt>
      <trkpt lat="45.29782" lon="4.44896">
        <ele>1116.3</ele>
        <time>2018-08-19T10:35:03.000Z</time>
      </trkpt>
      <trkpt lat="45.29782" lon="4.44896">
        <ele>1116.3</ele>
        <time>2018-08-19T10:35:04.000Z</time>
      </trkpt>
      <trkpt lat="45.29782" lon="4.44896">
        <ele>1116.3</ele>
        <time>2018-08-19T10:35:05.000Z</time>
      </trkpt>
      <trkpt lat="45.29782" lon="4.44896">
        <ele>1116.3</ele>
        <time>2018-08-19T10:35:06.000Z</time>
      </trkpt>
      <trkpt lat="45.29782" lon="4.44896">
        <ele>1116.3</ele>
        <time>2018-08-19T10:35:07.000Z</time>
      </trkpt>
      <trkpt lat="45.29782" lon="4.44896">
        <ele>1116.3</ele>
        <time>2018-08-19T10:35:08.000Z</time>
      </trkpt>
      <trkpt lat="45.29782" lon="4.44896">
        <ele>1116.3</ele>
        <time>2018-08-19T10:35:09.000Z</time>
      </trkpt>
      <trkpt lat="45.29782" lon="4.44896">
        <ele>1116.3</ele>
        <time>2018-08-19T10:35:10.000Z</time>
      </trkpt>
      <trkpt lat="45.29782" lon="4.44896">
        <ele>1116.3</ele>
        <time>2018-08-19T10:35:11.000Z</time>
      </trkpt>
      <trkpt lat="45.29782" lon="4.44896">
        <ele>1116.3</ele>
        <time>2018-08-19T10:35:12.000Z</time>
      </trkpt>
      <trkpt lat="45.29782" lon="4.44896">
        <ele>1116.3</ele>
        <time>2018-08-19T10:35:13.000Z</time>
      </trkpt>
      <trkpt lat="45.29782" lon="4.44896">
        <ele>1116.3</ele>
        <time>2018-08-19T10:35:14.000Z</time>
      </trkpt>
      <trkpt lat="45.29782" lon="4.44896">
        <ele>1116.3</ele>
        <time>2018-08-19T10:35:15.000Z</time>
      </trkpt>
      <trkpt lat="45.29782" lon="4.44896">
        <ele>1116.3</ele>
        <time>2018-08-19T10:35:16.000Z</time>
      </trkpt>
      <trkpt lat="45.29782" lon="4.44896">
        <ele>1116.3</ele>
        <time>2018-08-19T10:35:17.000Z</time>
      </trkpt>
      <trkpt lat="45.29782" lon="4.44896">
        <ele>1116.3</ele>
        <time>2018-08-19T10:35:18.000Z</time>
      </trkpt>
      <trkpt lat="45.29782" lon="4.44896">
        <ele>1116.3</ele>
        <time>2018-08-19T10:35:19.000Z</time>
      </trkpt>
      <trkpt lat="45.29782" lon="4.44896">
        <ele>1116.3</ele>
        <time>2018-08-19T10:35:20.000Z</time>
      </trkpt>
      <trkpt lat="45.29782" lon="4.44896">
        <ele>1116.3</ele>
        <time>2018-08-19T10:35:21.000Z</time>
      </trkpt>
      <trkpt lat="45.29782" lon="4.44896">
        <ele>1116.3</ele>
        <time>2018-08-19T10:35:22.000Z</time>
      </trkpt>
      <trkpt lat="45.29782" lon="4.44896">
        <ele>1116.3</ele>
        <time>2018-08-19T10:35:23.000Z</time>
      </trkpt>
      <trkpt lat="45.29782" lon="4.44896">
        <ele>1116.3</ele>
        <time>2018-08-19T10:35:24.000Z</time>
      </trkpt>
      <trkpt lat="45.29782" lon="4.44896">
        <ele>1116.3</ele>
        <time>2018-08-19T10:35:25.000Z</time>
      </trkpt>
      <trkpt lat="45.29782" lon="4.44896">
        <ele>1116.3</ele>
        <time>2018-08-19T10:35:26.000Z</time>
      </trkpt>
      <trkpt lat="45.29782" lon="4.44896">
        <ele>1116.3</ele>
        <time>2018-08-19T10:35:27.000Z</time>
      </trkpt>
      <trkpt lat="45.29782" lon="4.44896">
        <ele>1116.3</ele>
        <time>2018-08-19T10:35:28.000Z</time>
      </trkpt>
      <trkpt lat="45.29782" lon="4.44896">
        <ele>1116.3</ele>
        <time>2018-08-19T10:35:29.000Z</time>
      </trkpt>
      <trkpt lat="45.29782" lon="4.44896">
        <ele>1116.3</ele>
        <time>2018-08-19T10:35:30.000Z</time>
      </trkpt>
      <trkpt lat="45.29782" lon="4.44896">
        <ele>1116.3</ele>
        <time>2018-08-19T10:35:31.000Z</time>
      </trkpt>
      <trkpt lat="45.29782" lon="4.44896">
        <ele>1116.3</ele>
        <time>2018-08-19T10:35:32.000Z</time>
      </trkpt>
      <trkpt lat="45.29782" lon="4.44896">
        <ele>1116.3</ele>
        <time>2018-08-19T10:35:33.000Z</time>
      </trkpt>
      <trkpt lat="45.29782" lon="4.44896">
        <ele>1116.3</ele>
        <time>2018-08-19T10:35:34.000Z</time>
      </trkpt>
      <trkpt lat="45.29782" lon="4.44896">
        <ele>1116.3</ele>
        <time>2018-08-19T10:35:35.000Z</time>
      </trkpt>
      <trkpt lat="45.29782" lon="4.44896">
        <ele>1116.3</ele>
        <time>2018-08-19T10:35:36.000Z</time>
      </trkpt>
      <trkpt lat="45.29782" lon="4.44896">
        <ele>1116.3</ele>
        <time>2018-08-19T10:35:37.000Z</time>
      </trkpt>
      <trkpt lat="45.29782" lon="4.44896">
        <ele>1116.3</ele>
        <time>2018-08-19T10:35:38.000Z</time>
      </trkpt>
      <trkpt lat="45.29782" lon="4.44896">
        <ele>1116.3</ele>
        <time>2018-08-19T10:35:39.000Z</time>
      </trkpt>
      <trkpt lat="45.29782" lon="4.44896">
        <ele>1116.3</ele>
        <time>2018-08-19T10:35:40.000Z</time>
      </trkpt>
      <trkpt lat="45.29782" lon="4.44896">
        <ele>1116.3</ele>
        <time>2018-08-19T10:35:41.000Z</time>
      </trkpt>
      <trkpt lat="45.29782" lon="4.44896">
        <ele>1116.3</ele>
        <time>2018-08-19T10:35:42.000Z</time>
      </trkpt>
      <trkpt lat="45.29782" lon="4.44896">
        <ele>1116.3</ele>
        <time>2018-08-19T10:35:43.000Z</time>
      </trkpt>
      <trkpt lat="45.29782" lon="4.44896">
        <ele>1116.3</ele>
        <time>2018-08-19T10:35:44.000Z</time>
      </trkpt>
      <trkpt lat="45.29782" lon="4.44896">
        <ele>1116.3</ele>
        <time>2018-08-19T10:35:45.000Z</time>
      </trkpt>
      <trkpt lat="45.29782" lon="4.44896">
        <ele>1116.3</ele>
        <time>2018-08-19T10:35:46.000Z</time>
      </trkpt>
      <trkpt lat="45.29782" lon="4.44895">
        <ele>1116.3</ele>
        <time>2018-08-19T10:35:47.000Z</time>
      </trkpt>
      <trkpt lat="45.29782" lon="4.44893">
        <ele>1116.3</ele>
        <time>2018-08-19T10:35:48.000Z</time>
      </trkpt>
      <trkpt lat="45.29781" lon="4.44892">
        <ele>1116.3</ele>
        <time>2018-08-19T10:35:49.000Z</time>
      </trkpt>
      <trkpt lat="45.29781" lon="4.4489">
        <ele>1116.3</ele>
        <time>2018-08-19T10:35:50.000Z</time>
      </trkpt>
      <trkpt lat="45.29781" lon="4.44888">
        <ele>1116.3</ele>
        <time>2018-08-19T10:35:51.000Z</time>
      </trkpt>
      <trkpt lat="45.29781" lon="4.44886">
        <ele>1116.3</ele>
        <time>2018-08-19T10:35:52.000Z</time>
      </trkpt>
      <trkpt lat="45.29781" lon="4.44884">
        <ele>1116.3</ele>
        <time>2018-08-19T10:35:53.000Z</time>
      </trkpt>
      <trkpt lat="45.29781" lon="4.44882">
        <ele>1116.4</ele>
        <time>2018-08-19T10:35:54.000Z</time>
      </trkpt>
      <trkpt lat="45.29781" lon="4.4488">
        <ele>1116.4</ele>
        <time>2018-08-19T10:35:55.000Z</time>
      </trkpt>
      <trkpt lat="45.29781" lon="4.44878">
        <ele>1116.4</ele>
        <time>2018-08-19T10:35:56.000Z</time>
      </trkpt>
      <trkpt lat="45.29781" lon="4.44877">
        <ele>1116.4</ele>
        <time>2018-08-19T10:35:57.000Z</time>
      </trkpt>
      <trkpt lat="45.29781" lon="4.44875">
        <ele>1116.5</ele>
        <time>2018-08-19T10:35:58.000Z</time>
      </trkpt>
      <trkpt lat="45.29781" lon="4.44873">
        <ele>1116.5</ele>
        <time>2018-08-19T10:35:59.000Z</time>
      </trkpt>
      <trkpt lat="45.29781" lon="4.44871">
        <ele>1116.5</ele>
        <time>2018-08-19T10:36:00.000Z</time>
      </trkpt>
      <trkpt lat="45.29781" lon="4.44869">
        <ele>1116.5</ele>
        <time>2018-08-19T10:36:01.000Z</time>
      </trkpt>
      <trkpt lat="45.29781" lon="4.44867">
        <ele>1116.5</ele>
        <time>2018-08-19T10:36:02.000Z</time>
      </trkpt>
      <trkpt lat="45.29781" lon="4.44865">
        <ele>1116.5</ele>
        <time>2018-08-19T10:36:03.000Z</time>
      </trkpt>
      <trkpt lat="45.2978" lon="4.44863">
        <ele>1116.6</ele>
        <time>2018-08-19T10:36:04.000Z</time>
      </trkpt>
      <trkpt lat="45.2978" lon="4.44861">
        <ele>1116.6</ele>
        <time>2018-08-19T10:36:05.000Z</time>
      </trkpt>
      <trkpt lat="45.2978" lon="4.44859">
        <ele>1116.6</ele>
        <time>2018-08-19T10:36:06.000Z</time>
      </trkpt>
      <trkpt lat="45.2978" lon="4.44857">
        <ele>1116.6</ele>
        <time>2018-08-19T10:36:07.000Z</time>
      </trkpt>
      <trkpt lat="45.2978" lon="4.44855">
        <ele>1116.6</ele>
        <time>2018-08-19T10:36:08.000Z</time>
      </trkpt>
      <trkpt lat="45.2978" lon="4.44853">
        <ele>1116.7</ele>
        <time>2018-08-19T10:36:09.000Z</time>
      </trkpt>
      <trkpt lat="45.2978" lon="4.44851">
        <ele>1116.7</ele>
        <time>2018-08-19T10:36:10.000Z</time>
      </trkpt>
      <trkpt lat="45.2978" lon="4.44849">
        <ele>1116.7</ele>
        <time>2018-08-19T10:36:11.000Z</time>
      </trkpt>
      <trkpt lat="45.2978" lon="4.44847">
        <ele>1116.7</ele>
        <time>2018-08-19T10:36:12.000Z</time>
      </trkpt>
      <trkpt lat="45.2978" lon="4.44845">
        <ele>1116.7</ele>
        <time>2018-08-19T10:36:13.000Z</time>
      </trkpt>
      <trkpt lat="45.2978" lon="4.44843">
        <ele>1116.8</ele>
        <time>2018-08-19T10:36:14.000Z</time>
      </trkpt>
      <trkpt lat="45.2978" lon="4.44841">
        <ele>1116.8</ele>
        <time>2018-08-19T10:36:15.000Z</time>
      </trkpt>
      <trkpt lat="45.2978" lon="4.44839">
        <ele>1116.8</ele>
        <time>2018-08-19T10:36:16.000Z</time>
      </trkpt>
      <trkpt lat="45.2978" lon="4.44837">
        <ele>1116.8</ele>
        <time>2018-08-19T10:36:17.000Z</time>
      </trkpt>
      <trkpt lat="45.2978" lon="4.44835">
        <ele>1116.9</ele>
        <time>2018-08-19T10:36:18.000Z</time>
      </trkpt>
      <trkpt lat="45.2978" lon="4.44833">
        <ele>1116.9</ele>
        <time>2018-08-19T10:36:19.000Z</time>
      </trkpt>
      <trkpt lat="45.2978" lon="4.44831">
        <ele>1117</ele>
        <time>2018-08-19T10:36:20.000Z</time>
      </trkpt>
      <trkpt lat="45.2978" lon="4.44829">
        <ele>1117.1</ele>
        <time>2018-08-19T10:36:21.000Z</time>
      </trkpt>
      <trkpt lat="45.2978" lon="4.44827">
        <ele>1117.2</ele>
        <time>2018-08-19T10:36:22.000Z</time>
      </trkpt>
      <trkpt lat="45.2978" lon="4.44826">
        <ele>1117.3</ele>
        <time>2018-08-19T10:36:23.000Z</time>
      </trkpt>
      <trkpt lat="45.2978" lon="4.44824">
        <ele>1117.4</ele>
        <time>2018-08-19T10:36:24.000Z</time>
      </trkpt>
      <trkpt lat="45.2978" lon="4.44822">
        <ele>1117.5</ele>
        <time>2018-08-19T10:36:25.000Z</time>
      </trkpt>
      <trkpt lat="45.2978" lon="4.4482">
        <ele>1117.7</ele>
        <time>2018-08-19T10:36:26.000Z</time>
      </trkpt>
      <trkpt lat="45.2978" lon="4.44818">
        <ele>1117.8</ele>
        <time>2018-08-19T10:36:27.000Z</time>
      </trkpt>
      <trkpt lat="45.2978" lon="4.44816">
        <ele>1117.9</ele>
        <time>2018-08-19T10:36:28.000Z</time>
      </trkpt>
      <trkpt lat="45.2978" lon="4.44814">
        <ele>1118</ele>
        <time>2018-08-19T10:36:29.000Z</time>
      </trkpt>
      <trkpt lat="45.2978" lon="4.44812">
        <ele>1118.1</ele>
        <time>2018-08-19T10:36:30.000Z</time>
      </trkpt>
      <trkpt lat="45.2978" lon="4.4481">
        <ele>1118.2</ele>
        <time>2018-08-19T10:36:31.000Z</time>
      </trkpt>
      <trkpt lat="45.2978" lon="4.44808">
        <ele>1118.3</ele>
        <time>2018-08-19T10:36:32.000Z</time>
      </trkpt>
      <trkpt lat="45.2978" lon="4.44806">
        <ele>1118.4</ele>
        <time>2018-08-19T10:36:33.000Z</time>
      </trkpt>
      <trkpt lat="45.2978" lon="4.44804">
        <ele>1118.6</ele>
        <time>2018-08-19T10:36:34.000Z</time>
      </trkpt>
      <trkpt lat="45.2978" lon="4.44803">
        <ele>1118.7</ele>
        <time>2018-08-19T10:36:35.000Z</time>
      </trkpt>
      <trkpt lat="45.2978" lon="4.44801">
        <ele>1118.8</ele>
        <time>2018-08-19T10:36:36.000Z</time>
      </trkpt>
      <trkpt lat="45.29779" lon="4.44799">
        <ele>1118.9</ele>
        <time>2018-08-19T10:36:37.000Z</time>
      </trkpt>
      <trkpt lat="45.29779" lon="4.44797">
        <ele>1119</ele>
        <time>2018-08-19T10:36:38.000Z</time>
      </trkpt>
      <trkpt lat="45.29779" lon="4.44795">
        <ele>1119.1</ele>
        <time>2018-08-19T10:36:39.000Z</time>
      </trkpt>
      <trkpt lat="45.29779" lon="4.44793">
        <ele>1119.2</ele>
        <time>2018-08-19T10:36:40.000Z</time>
      </trkpt>
      <trkpt lat="45.29779" lon="4.44791">
        <ele>1119.3</ele>
        <time>2018-08-19T10:36:41.000Z</time>
      </trkpt>
      <trkpt lat="45.29779" lon="4.4479">
        <ele>1119.4</ele>
        <time>2018-08-19T10:36:42.000Z</time>
      </trkpt>
      <trkpt lat="45.29779" lon="4.44788">
        <ele>1119.5</ele>
        <time>2018-08-19T10:36:43.000Z</time>
      </trkpt>
      <trkpt lat="45.29779" lon="4.44786">
        <ele>1119.6</ele>
        <time>2018-08-19T10:36:44.000Z</time>
      </trkpt>
      <trkpt lat="45.29779" lon="4.44784">
        <ele>1119.7</ele>
        <time>2018-08-19T10:36:45.000Z</time>
      </trkpt>
      <trkpt lat="45.29778" lon="4.44782">
        <ele>1119.8</ele>
        <time>2018-08-19T10:36:46.000Z</time>
      </trkpt>
      <trkpt lat="45.29778" lon="4.4478">
        <ele>1119.9</ele>
        <time>2018-08-19T10:36:47.000Z</time>
      </trkpt>
      <trkpt lat="45.29778" lon="4.44778">
        <ele>1120</ele>
        <time>2018-08-19T10:36:48.000Z</time>
      </trkpt>
      <trkpt lat="45.29778" lon="4.44776">
        <ele>1120.1</ele>
        <time>2018-08-19T10:36:49.000Z</time>
      </trkpt>
      <trkpt lat="45.29777" lon="4.44775">
        <ele>1120.2</ele>
        <time>2018-08-19T10:36:50.000Z</time>
      </trkpt>
      <trkpt lat="45.29777" lon="4.44773">
        <ele>1120.3</ele>
        <time>2018-08-19T10:36:51.000Z</time>
      </trkpt>
      <trkpt lat="45.29777" lon="4.44771">
        <ele>1120.3</ele>
        <time>2018-08-19T10:36:52.000Z</time>
      </trkpt>
      <trkpt lat="45.29776" lon="4.44769">
        <ele>1120.4</ele>
        <time>2018-08-19T10:36:53.000Z</time>
      </trkpt>
      <trkpt lat="45.29776" lon="4.44767">
        <ele>1120.5</ele>
        <time>2018-08-19T10:36:54.000Z</time>
      </trkpt>
      <trkpt lat="45.29775" lon="4.44765">
        <ele>1120.6</ele>
        <time>2018-08-19T10:36:55.000Z</time>
      </trkpt>
      <trkpt lat="45.29775" lon="4.44763">
        <ele>1120.7</ele>
        <time>2018-08-19T10:36:56.000Z</time>
      </trkpt>
      <trkpt lat="45.29774" lon="4.44761">
        <ele>1120.8</ele>
        <time>2018-08-19T10:36:57.000Z</time>
      </trkpt>
      <trkpt lat="45.29774" lon="4.44759">
        <ele>1120.9</ele>
        <time>2018-08-19T10:36:58.000Z</time>
      </trkpt>
      <trkpt lat="45.29773" lon="4.44757">
        <ele>1121</ele>
        <time>2018-08-19T10:36:59.000Z</time>
      </trkpt>
      <trkpt lat="45.29773" lon="4.44755">
        <ele>1121</ele>
        <time>2018-08-19T10:37:00.000Z</time>
      </trkpt>
      <trkpt lat="45.29772" lon="4.44754">
        <ele>1121.1</ele>
        <time>2018-08-19T10:37:01.000Z</time>
      </trkpt>
      <trkpt lat="45.29772" lon="4.44752">
        <ele>1121.2</ele>
        <time>2018-08-19T10:37:02.000Z</time>
      </trkpt>
      <trkpt lat="45.29771" lon="4.4475">
        <ele>1121.3</ele>
        <time>2018-08-19T10:37:03.000Z</time>
      </trkpt>
      <trkpt lat="45.2977" lon="4.44748">
        <ele>1121.4</ele>
        <time>2018-08-19T10:37:04.000Z</time>
      </trkpt>
      <trkpt lat="45.2977" lon="4.44746">
        <ele>1121.4</ele>
        <time>2018-08-19T10:37:05.000Z</time>
      </trkpt>
      <trkpt lat="45.29769" lon="4.44744">
        <ele>1121.5</ele>
        <time>2018-08-19T10:37:06.000Z</time>
      </trkpt>
      <trkpt lat="45.29769" lon="4.44742">
        <ele>1121.6</ele>
        <time>2018-08-19T10:37:07.000Z</time>
      </trkpt>
      <trkpt lat="45.29768" lon="4.4474">
        <ele>1121.7</ele>
        <time>2018-08-19T10:37:08.000Z</time>
      </trkpt>
      <trkpt lat="45.29767" lon="4.44739">
        <ele>1121.7</ele>
        <time>2018-08-19T10:37:09.000Z</time>
      </trkpt>
      <trkpt lat="45.29766" lon="4.44737">
        <ele>1121.8</ele>
        <time>2018-08-19T10:37:10.000Z</time>
      </trkpt>
      <trkpt lat="45.29766" lon="4.44735">
        <ele>1121.9</ele>
        <time>2018-08-19T10:37:11.000Z</time>
      </trkpt>
      <trkpt lat="45.29765" lon="4.44733">
        <ele>1121.9</ele>
        <time>2018-08-19T10:37:12.000Z</time>
      </trkpt>
      <trkpt lat="45.29764" lon="4.44731">
        <ele>1122</ele>
        <time>2018-08-19T10:37:13.000Z</time>
      </trkpt>
      <trkpt lat="45.29763" lon="4.4473">
        <ele>1122.1</ele>
        <time>2018-08-19T10:37:14.000Z</time>
      </trkpt>
      <trkpt lat="45.29763" lon="4.44728">
        <ele>1122.1</ele>
        <time>2018-08-19T10:37:15.000Z</time>
      </trkpt>
      <trkpt lat="45.29762" lon="4.44726">
        <ele>1122.2</ele>
        <time>2018-08-19T10:37:16.000Z</time>
      </trkpt>
      <trkpt lat="45.29761" lon="4.44725">
        <ele>1122.2</ele>
        <time>2018-08-19T10:37:17.000Z</time>
      </trkpt>
      <trkpt lat="45.2976" lon="4.44723">
        <ele>1122.3</ele>
        <time>2018-08-19T10:37:18.000Z</time>
      </trkpt>
      <trkpt lat="45.2976" lon="4.44721">
        <ele>1122.4</ele>
        <time>2018-08-19T10:37:19.000Z</time>
      </trkpt>
      <trkpt lat="45.29759" lon="4.4472">
        <ele>1122.4</ele>
        <time>2018-08-19T10:37:20.000Z</time>
      </trkpt>
      <trkpt lat="45.29758" lon="4.44718">
        <ele>1122.4</ele>
        <time>2018-08-19T10:37:21.000Z</time>
      </trkpt>
      <trkpt lat="45.29757" lon="4.44716">
        <ele>1122.5</ele>
        <time>2018-08-19T10:37:22.000Z</time>
      </trkpt>
      <trkpt lat="45.29756" lon="4.44715">
        <ele>1122.5</ele>
        <time>2018-08-19T10:37:23.000Z</time>
      </trkpt>
      <trkpt lat="45.29755" lon="4.44714">
        <ele>1122.5</ele>
        <time>2018-08-19T10:37:24.000Z</time>
      </trkpt>
      <trkpt lat="45.29754" lon="4.44712">
        <ele>1122.6</ele>
        <time>2018-08-19T10:37:25.000Z</time>
      </trkpt>
      <trkpt lat="45.29753" lon="4.44711">
        <ele>1122.6</ele>
        <time>2018-08-19T10:37:26.000Z</time>
      </trkpt>
      <trkpt lat="45.29752" lon="4.4471">
        <ele>1122.6</ele>
        <time>2018-08-19T10:37:27.000Z</time>
      </trkpt>
      <trkpt lat="45.29751" lon="4.44708">
        <ele>1122.6</ele>
        <time>2018-08-19T10:37:28.000Z</time>
      </trkpt>
      <trkpt lat="45.2975" lon="4.44707">
        <ele>1122.6</ele>
        <time>2018-08-19T10:37:29.000Z</time>
      </trkpt>
      <trkpt lat="45.29749" lon="4.44706">
        <ele>1122.6</ele>
        <time>2018-08-19T10:37:30.000Z</time>
      </trkpt>
      <trkpt lat="45.29748" lon="4.44705">
        <ele>1122.7</ele>
        <time>2018-08-19T10:37:31.000Z</time>
      </trkpt>
      <trkpt lat="45.29746" lon="4.44704">
        <ele>1122.8</ele>
        <time>2018-08-19T10:37:32.000Z</time>
      </trkpt>
      <trkpt lat="45.29745" lon="4.44704">
        <ele>1122.9</ele>
        <time>2018-08-19T10:37:33.000Z</time>
      </trkpt>
      <trkpt lat="45.29744" lon="4.44703">
        <ele>1122.9</ele>
        <time>2018-08-19T10:37:34.000Z</time>
      </trkpt>
      <trkpt lat="45.29743" lon="4.44702">
        <ele>1123</ele>
        <time>2018-08-19T10:37:35.000Z</time>
      </trkpt>
      <trkpt lat="45.29741" lon="4.44702">
        <ele>1123</ele>
        <time>2018-08-19T10:37:36.000Z</time>
      </trkpt>
      <trkpt lat="45.2974" lon="4.44701">
        <ele>1123.1</ele>
        <time>2018-08-19T10:37:37.000Z</time>
      </trkpt>
      <trkpt lat="45.29739" lon="4.44701">
        <ele>1123.1</ele>
        <time>2018-08-19T10:37:38.000Z</time>
      </trkpt>
      <trkpt lat="45.29737" lon="4.447">
        <ele>1123.2</ele>
        <time>2018-08-19T10:37:39.000Z</time>
      </trkpt>
      <trkpt lat="45.29736" lon="4.447">
        <ele>1123.2</ele>
        <time>2018-08-19T10:37:40.000Z</time>
      </trkpt>
      <trkpt lat="45.29735" lon="4.447">
        <ele>1123.3</ele>
        <time>2018-08-19T10:37:41.000Z</time>
      </trkpt>
      <trkpt lat="45.29733" lon="4.447">
        <ele>1123.3</ele>
        <time>2018-08-19T10:37:42.000Z</time>
      </trkpt>
      <trkpt lat="45.29732" lon="4.44699">
        <ele>1123.4</ele>
        <time>2018-08-19T10:37:43.000Z</time>
      </trkpt>
      <trkpt lat="45.29731" lon="4.44699">
        <ele>1123.4</ele>
        <time>2018-08-19T10:37:44.000Z</time>
      </trkpt>
      <trkpt lat="45.29729" lon="4.44699">
        <ele>1123.4</ele>
        <time>2018-08-19T10:37:45.000Z</time>
      </trkpt>
      <trkpt lat="45.29728" lon="4.44698">
        <ele>1123.5</ele>
        <time>2018-08-19T10:37:46.000Z</time>
      </trkpt>
      <trkpt lat="45.29727" lon="4.44698">
        <ele>1123.5</ele>
        <time>2018-08-19T10:37:47.000Z</time>
      </trkpt>
      <trkpt lat="45.29725" lon="4.44698">
        <ele>1123.6</ele>
        <time>2018-08-19T10:37:48.000Z</time>
      </trkpt>
      <trkpt lat="45.29724" lon="4.44698">
        <ele>1123.6</ele>
        <time>2018-08-19T10:37:49.000Z</time>
      </trkpt>
      <trkpt lat="45.29723" lon="4.44698">
        <ele>1123.6</ele>
        <time>2018-08-19T10:37:50.000Z</time>
      </trkpt>
      <trkpt lat="45.29722" lon="4.44698">
        <ele>1123.6</ele>
        <time>2018-08-19T10:37:51.000Z</time>
      </trkpt>
      <trkpt lat="45.2972" lon="4.44698">
        <ele>1123.7</ele>
        <time>2018-08-19T10:37:52.000Z</time>
      </trkpt>
      <trkpt lat="45.29719" lon="4.44698">
        <ele>1123.7</ele>
        <time>2018-08-19T10:37:53.000Z</time>
      </trkpt>
      <trkpt lat="45.29718" lon="4.44698">
        <ele>1123.7</ele>
        <time>2018-08-19T10:37:54.000Z</time>
      </trkpt>
      <trkpt lat="45.29716" lon="4.44699">
        <ele>1123.7</ele>
        <time>2018-08-19T10:37:55.000Z</time>
      </trkpt>
      <trkpt lat="45.29715" lon="4.44699">
        <ele>1123.7</ele>
        <time>2018-08-19T10:37:56.000Z</time>
      </trkpt>
      <trkpt lat="45.29714" lon="4.44699">
        <ele>1123.7</ele>
        <time>2018-08-19T10:37:57.000Z</time>
      </trkpt>
      <trkpt lat="45.29712" lon="4.44699">
        <ele>1123.7</ele>
        <time>2018-08-19T10:37:58.000Z</time>
      </trkpt>
      <trkpt lat="45.29711" lon="4.44699">
        <ele>1123.7</ele>
        <time>2018-08-19T10:37:59.000Z</time>
      </trkpt>
      <trkpt lat="45.29709" lon="4.44699">
        <ele>1123.7</ele>
        <time>2018-08-19T10:38:00.000Z</time>
      </trkpt>
      <trkpt lat="45.29708" lon="4.44699">
        <ele>1123.8</ele>
        <time>2018-08-19T10:38:01.000Z</time>
      </trkpt>
      <trkpt lat="45.29706" lon="4.44699">
        <ele>1123.8</ele>
        <time>2018-08-19T10:38:02.000Z</time>
      </trkpt>
      <trkpt lat="45.29705" lon="4.44699">
        <ele>1123.8</ele>
        <time>2018-08-19T10:38:03.000Z</time>
      </trkpt>
      <trkpt lat="45.29703" lon="4.44699">
        <ele>1123.8</ele>
        <time>2018-08-19T10:38:04.000Z</time>
      </trkpt>
      <trkpt lat="45.29702" lon="4.44699">
        <ele>1123.9</ele>
        <time>2018-08-19T10:38:05.000Z</time>
      </trkpt>
      <trkpt lat="45.297" lon="4.44699">
        <ele>1123.9</ele>
        <time>2018-08-19T10:38:06.000Z</time>
      </trkpt>
      <trkpt lat="45.29699" lon="4.44699">
        <ele>1124</ele>
        <time>2018-08-19T10:38:07.000Z</time>
      </trkpt>
      <trkpt lat="45.29697" lon="4.44698">
        <ele>1124</ele>
        <time>2018-08-19T10:38:08.000Z</time>
      </trkpt>
      <trkpt lat="45.29696" lon="4.44698">
        <ele>1124.1</ele>
        <time>2018-08-19T10:38:09.000Z</time>
      </trkpt>
      <trkpt lat="45.29695" lon="4.44698">
        <ele>1124.2</ele>
        <time>2018-08-19T10:38:10.000Z</time>
      </trkpt>
      <trkpt lat="45.29693" lon="4.44697">
        <ele>1124.2</ele>
        <time>2018-08-19T10:38:11.000Z</time>
      </trkpt>
      <trkpt lat="45.29692" lon="4.44697">
        <ele>1124.3</ele>
        <time>2018-08-19T10:38:12.000Z</time>
      </trkpt>
      <trkpt lat="45.2969" lon="4.44696">
        <ele>1124.4</ele>
        <time>2018-08-19T10:38:13.000Z</time>
      </trkpt>
      <trkpt lat="45.29689" lon="4.44695">
        <ele>1124.5</ele>
        <time>2018-08-19T10:38:14.000Z</time>
      </trkpt>
      <trkpt lat="45.29688" lon="4.44695">
        <ele>1124.6</ele>
        <time>2018-08-19T10:38:15.000Z</time>
      </trkpt>
      <trkpt lat="45.29686" lon="4.44694">
        <ele>1124.7</ele>
        <time>2018-08-19T10:38:16.000Z</time>
      </trkpt>
      <trkpt lat="45.29685" lon="4.44693">
        <ele>1124.8</ele>
        <time>2018-08-19T10:38:17.000Z</time>
      </trkpt>
      <trkpt lat="45.29684" lon="4.44692">
        <ele>1124.9</ele>
        <time>2018-08-19T10:38:18.000Z</time>
      </trkpt>
      <trkpt lat="45.29683" lon="4.44691">
        <ele>1125</ele>
        <time>2018-08-19T10:38:19.000Z</time>
      </trkpt>
      <trkpt lat="45.29681" lon="4.4469">
        <ele>1125.1</ele>
        <time>2018-08-19T10:38:20.000Z</time>
      </trkpt>
      <trkpt lat="45.2968" lon="4.44689">
        <ele>1125.2</ele>
        <time>2018-08-19T10:38:21.000Z</time>
      </trkpt>
      <trkpt lat="45.29679" lon="4.44688">
        <ele>1125.4</ele>
        <time>2018-08-19T10:38:22.000Z</time>
      </trkpt>
      <trkpt lat="45.29678" lon="4.44687">
        <ele>1125.5</ele>
        <time>2018-08-19T10:38:23.000Z</time>
      </trkpt>
      <trkpt lat="45.29677" lon="4.44687">
        <ele>1125.6</ele>
        <time>2018-08-19T10:38:24.000Z</time>
      </trkpt>
      <trkpt lat="45.29676" lon="4.44686">
        <ele>1125.7</ele>
        <time>2018-08-19T10:38:25.000Z</time>
      </trkpt>
      <trkpt lat="45.29674" lon="4.44685">
        <ele>1125.9</ele>
        <time>2018-08-19T10:38:26.000Z</time>
      </trkpt>
      <trkpt lat="45.29673" lon="4.44684">
        <ele>1126</ele>
        <time>2018-08-19T10:38:27.000Z</time>
      </trkpt>
      <trkpt lat="45.29672" lon="4.44683">
        <ele>1126.1</ele>
        <time>2018-08-19T10:38:28.000Z</time>
      </trkpt>
      <trkpt lat="45.29671" lon="4.44682">
        <ele>1126.2</ele>
        <time>2018-08-19T10:38:29.000Z</time>
      </trkpt>
      <trkpt lat="45.2967" lon="4.44681">
        <ele>1126.3</ele>
        <time>2018-08-19T10:38:30.000Z</time>
      </trkpt>
      <trkpt lat="45.29669" lon="4.44681">
        <ele>1126.4</ele>
        <time>2018-08-19T10:38:31.000Z</time>
      </trkpt>
      <trkpt lat="45.29668" lon="4.4468">
        <ele>1126.6</ele>
        <time>2018-08-19T10:38:32.000Z</time>
      </trkpt>
      <trkpt lat="45.29668" lon="4.44679">
        <ele>1126.7</ele>
        <time>2018-08-19T10:38:33.000Z</time>
      </trkpt>
      <trkpt lat="45.29667" lon="4.44678">
        <ele>1126.8</ele>
        <time>2018-08-19T10:38:34.000Z</time>
      </trkpt>
      <trkpt lat="45.29666" lon="4.44677">
        <ele>1126.8</ele>
        <time>2018-08-19T10:38:35.000Z</time>
      </trkpt>
      <trkpt lat="45.29665" lon="4.44675">
        <ele>1126.8</ele>
        <time>2018-08-19T10:38:36.000Z</time>
      </trkpt>
      <trkpt lat="45.29664" lon="4.44674">
        <ele>1126.8</ele>
        <time>2018-08-19T10:38:37.000Z</time>
      </trkpt>
      <trkpt lat="45.29664" lon="4.44673">
        <ele>1126.8</ele>
        <time>2018-08-19T10:38:38.000Z</time>
      </trkpt>
      <trkpt lat="45.29663" lon="4.44673">
        <ele>1126.8</ele>
        <time>2018-08-19T10:38:39.000Z</time>
      </trkpt>
      <trkpt lat="45.29663" lon="4.44672">
        <ele>1126.9</ele>
        <time>2018-08-19T10:38:40.000Z</time>
      </trkpt>
      <trkpt lat="45.29663" lon="4.44672">
        <ele>1126.9</ele>
        <time>2018-08-19T10:38:41.000Z</time>
      </trkpt>
      <trkpt lat="45.29663" lon="4.44672">
        <ele>1126.9</ele>
        <time>2018-08-19T10:38:42.000Z</time>
      </trkpt>
      <trkpt lat="45.29663" lon="4.44672">
        <ele>1126.9</ele>
        <time>2018-08-19T10:38:43.000Z</time>
      </trkpt>
      <trkpt lat="45.29663" lon="4.44672">
        <ele>1126.9</ele>
        <time>2018-08-19T10:38:44.000Z</time>
      </trkpt>
      <trkpt lat="45.29663" lon="4.44672">
        <ele>1126.9</ele>
        <time>2018-08-19T10:38:45.000Z</time>
      </trkpt>
      <trkpt lat="45.29663" lon="4.44672">
        <ele>1126.9</ele>
        <time>2018-08-19T10:38:46.000Z</time>
      </trkpt>
      <trkpt lat="45.29663" lon="4.44672">
        <ele>1126.9</ele>
        <time>2018-08-19T10:38:47.000Z</time>
      </trkpt>
      <trkpt lat="45.29663" lon="4.44671">
        <ele>1126.9</ele>
        <time>2018-08-19T10:38:48.000Z</time>
      </trkpt>
      <trkpt lat="45.29663" lon="4.44671">
        <ele>1126.9</ele>
        <time>2018-08-19T10:38:49.000Z</time>
      </trkpt>
      <trkpt lat="45.29663" lon="4.44672">
        <ele>1126.9</ele>
        <time>2018-08-19T10:38:50.000Z</time>
      </trkpt>
      <trkpt lat="45.29663" lon="4.44672">
        <ele>1126.9</ele>
        <time>2018-08-19T10:38:51.000Z</time>
      </trkpt>
      <trkpt lat="45.29663" lon="4.44672">
        <ele>1126.9</ele>
        <time>2018-08-19T10:38:52.000Z</time>
      </trkpt>
      <trkpt lat="45.29663" lon="4.44672">
        <ele>1126.9</ele>
        <time>2018-08-19T10:38:53.000Z</time>
      </trkpt>
      <trkpt lat="45.29663" lon="4.44672">
        <ele>1126.9</ele>
        <time>2018-08-19T10:38:54.000Z</time>
      </trkpt>
      <trkpt lat="45.29663" lon="4.44672">
        <ele>1126.9</ele>
        <time>2018-08-19T10:38:55.000Z</time>
      </trkpt>
      <trkpt lat="45.29663" lon="4.44672">
        <ele>1126.9</ele>
        <time>2018-08-19T10:38:56.000Z</time>
      </trkpt>
      <trkpt lat="45.29663" lon="4.44672">
        <ele>1126.9</ele>
        <time>2018-08-19T10:38:57.000Z</time>
      </trkpt>
      <trkpt lat="45.29663" lon="4.44672">
        <ele>1126.9</ele>
        <time>2018-08-19T10:38:58.000Z</time>
      </trkpt>
      <trkpt lat="45.29663" lon="4.44672">
        <ele>1126.9</ele>
        <time>2018-08-19T10:38:59.000Z</time>
      </trkpt>
      <trkpt lat="45.29663" lon="4.44672">
        <ele>1126.9</ele>
        <time>2018-08-19T10:39:00.000Z</time>
      </trkpt>
      <trkpt lat="45.29663" lon="4.44672">
        <ele>1126.9</ele>
        <time>2018-08-19T10:39:01.000Z</time>
      </trkpt>
      <trkpt lat="45.29663" lon="4.44672">
        <ele>1126.9</ele>
        <time>2018-08-19T10:39:02.000Z</time>
      </trkpt>
      <trkpt lat="45.29663" lon="4.44671">
        <ele>1126.9</ele>
        <time>2018-08-19T10:39:03.000Z</time>
      </trkpt>
      <trkpt lat="45.29663" lon="4.44671">
        <ele>1127</ele>
        <time>2018-08-19T10:39:04.000Z</time>
      </trkpt>
      <trkpt lat="45.29663" lon="4.4467">
        <ele>1127.1</ele>
        <time>2018-08-19T10:39:05.000Z</time>
      </trkpt>
      <trkpt lat="45.29663" lon="4.44669">
        <ele>1127.2</ele>
        <time>2018-08-19T10:39:06.000Z</time>
      </trkpt>
      <trkpt lat="45.29663" lon="4.44668">
        <ele>1127.4</ele>
        <time>2018-08-19T10:39:07.000Z</time>
      </trkpt>
      <trkpt lat="45.29664" lon="4.44666">
        <ele>1127.5</ele>
        <time>2018-08-19T10:39:08.000Z</time>
      </trkpt>
      <trkpt lat="45.29664" lon="4.44665">
        <ele>1127.6</ele>
        <time>2018-08-19T10:39:09.000Z</time>
      </trkpt>
      <trkpt lat="45.29664" lon="4.44664">
        <ele>1127.7</ele>
        <time>2018-08-19T10:39:10.000Z</time>
      </trkpt>
      <trkpt lat="45.29664" lon="4.44662">
        <ele>1127.8</ele>
        <time>2018-08-19T10:39:11.000Z</time>
      </trkpt>
      <trkpt lat="45.29665" lon="4.44661">
        <ele>1127.9</ele>
        <time>2018-08-19T10:39:12.000Z</time>
      </trkpt>
      <trkpt lat="45.29665" lon="4.44659">
        <ele>1128</ele>
        <time>2018-08-19T10:39:13.000Z</time>
      </trkpt>
      <trkpt lat="45.29666" lon="4.44658">
        <ele>1128.2</ele>
        <time>2018-08-19T10:39:14.000Z</time>
      </trkpt>
      <trkpt lat="45.29666" lon="4.44657">
        <ele>1128.3</ele>
        <time>2018-08-19T10:39:15.000Z</time>
      </trkpt>
      <trkpt lat="45.29667" lon="4.44655">
        <ele>1128.4</ele>
        <time>2018-08-19T10:39:16.000Z</time>
      </trkpt>
      <trkpt lat="45.29667" lon="4.44654">
        <ele>1128.4</ele>
        <time>2018-08-19T10:39:17.000Z</time>
      </trkpt>
      <trkpt lat="45.29668" lon="4.44652">
        <ele>1128.5</ele>
        <time>2018-08-19T10:39:18.000Z</time>
      </trkpt>
      <trkpt lat="45.29668" lon="4.44651">
        <ele>1128.5</ele>
        <time>2018-08-19T10:39:19.000Z</time>
      </trkpt>
      <trkpt lat="45.29669" lon="4.4465">
        <ele>1128.6</ele>
        <time>2018-08-19T10:39:20.000Z</time>
      </trkpt>
      <trkpt lat="45.29669" lon="4.44648">
        <ele>1128.6</ele>
        <time>2018-08-19T10:39:21.000Z</time>
      </trkpt>
      <trkpt lat="45.2967" lon="4.44647">
        <ele>1128.6</ele>
        <time>2018-08-19T10:39:22.000Z</time>
      </trkpt>
      <trkpt lat="45.29671" lon="4.44645">
        <ele>1128.7</ele>
        <time>2018-08-19T10:39:23.000Z</time>
      </trkpt>
      <trkpt lat="45.29671" lon="4.44644">
        <ele>1128.7</ele>
        <time>2018-08-19T10:39:24.000Z</time>
      </trkpt>
      <trkpt lat="45.29672" lon="4.44642">
        <ele>1128.8</ele>
        <time>2018-08-19T10:39:25.000Z</time>
      </trkpt>
      <trkpt lat="45.29672" lon="4.44641">
        <ele>1128.8</ele>
        <time>2018-08-19T10:39:26.000Z</time>
      </trkpt>
      <trkpt lat="45.29673" lon="4.44639">
        <ele>1128.9</ele>
        <time>2018-08-19T10:39:27.000Z</time>
      </trkpt>
      <trkpt lat="45.29674" lon="4.44638">
        <ele>1128.9</ele>
        <time>2018-08-19T10:39:28.000Z</time>
      </trkpt>
      <trkpt lat="45.29674" lon="4.44637">
        <ele>1128.9</ele>
        <time>2018-08-19T10:39:29.000Z</time>
      </trkpt>
      <trkpt lat="45.29675" lon="4.44635">
        <ele>1129</ele>
        <time>2018-08-19T10:39:30.000Z</time>
      </trkpt>
      <trkpt lat="45.29676" lon="4.44634">
        <ele>1129</ele>
        <time>2018-08-19T10:39:31.000Z</time>
      </trkpt>
      <trkpt lat="45.29676" lon="4.44632">
        <ele>1129.1</ele>
        <time>2018-08-19T10:39:32.000Z</time>
      </trkpt>
      <trkpt lat="45.29677" lon="4.44631">
        <ele>1129.1</ele>
        <time>2018-08-19T10:39:33.000Z</time>
      </trkpt>
      <trkpt lat="45.29678" lon="4.4463">
        <ele>1129.2</ele>
        <time>2018-08-19T10:39:34.000Z</time>
      </trkpt>
      <trkpt lat="45.29679" lon="4.44628">
        <ele>1129.2</ele>
        <time>2018-08-19T10:39:35.000Z</time>
      </trkpt>
      <trkpt lat="45.29679" lon="4.44627">
        <ele>1129.3</ele>
        <time>2018-08-19T10:39:36.000Z</time>
      </trkpt>
      <trkpt lat="45.2968" lon="4.44626">
        <ele>1129.3</ele>
        <time>2018-08-19T10:39:37.000Z</time>
      </trkpt>
      <trkpt lat="45.29681" lon="4.44624">
        <ele>1129.4</ele>
        <time>2018-08-19T10:39:38.000Z</time>
      </trkpt>
      <trkpt lat="45.29682" lon="4.44623">
        <ele>1129.4</ele>
        <time>2018-08-19T10:39:39.000Z</time>
      </trkpt>
      <trkpt lat="45.29683" lon="4.44622">
        <ele>1129.5</ele>
        <time>2018-08-19T10:39:40.000Z</time>
      </trkpt>
      <trkpt lat="45.29684" lon="4.4462">
        <ele>1129.5</ele>
        <time>2018-08-19T10:39:41.000Z</time>
      </trkpt>
      <trkpt lat="45.29685" lon="4.44619">
        <ele>1129.6</ele>
        <time>2018-08-19T10:39:42.000Z</time>
      </trkpt>
      <trkpt lat="45.29686" lon="4.44618">
        <ele>1129.6</ele>
        <time>2018-08-19T10:39:43.000Z</time>
      </trkpt>
      <trkpt lat="45.29686" lon="4.44616">
        <ele>1129.7</ele>
        <time>2018-08-19T10:39:44.000Z</time>
      </trkpt>
      <trkpt lat="45.29687" lon="4.44615">
        <ele>1129.7</ele>
        <time>2018-08-19T10:39:45.000Z</time>
      </trkpt>
      <trkpt lat="45.29688" lon="4.44613">
        <ele>1129.8</ele>
        <time>2018-08-19T10:39:46.000Z</time>
      </trkpt>
      <trkpt lat="45.29689" lon="4.44612">
        <ele>1129.9</ele>
        <time>2018-08-19T10:39:47.000Z</time>
      </trkpt>
      <trkpt lat="45.2969" lon="4.44611">
        <ele>1129.9</ele>
        <time>2018-08-19T10:39:48.000Z</time>
      </trkpt>
      <trkpt lat="45.29691" lon="4.44609">
        <ele>1130</ele>
        <time>2018-08-19T10:39:49.000Z</time>
      </trkpt>
      <trkpt lat="45.29692" lon="4.44608">
        <ele>1130.1</ele>
        <time>2018-08-19T10:39:50.000Z</time>
      </trkpt>
      <trkpt lat="45.29693" lon="4.44606">
        <ele>1130.1</ele>
        <time>2018-08-19T10:39:51.000Z</time>
      </trkpt>
      <trkpt lat="45.29694" lon="4.44605">
        <ele>1130.2</ele>
        <time>2018-08-19T10:39:52.000Z</time>
      </trkpt>
      <trkpt lat="45.29695" lon="4.44603">
        <ele>1130.3</ele>
        <time>2018-08-19T10:39:53.000Z</time>
      </trkpt>
      <trkpt lat="45.29696" lon="4.44602">
        <ele>1130.4</ele>
        <time>2018-08-19T10:39:54.000Z</time>
      </trkpt>
      <trkpt lat="45.29696" lon="4.446">
        <ele>1130.5</ele>
        <time>2018-08-19T10:39:55.000Z</time>
      </trkpt>
      <trkpt lat="45.29697" lon="4.44599">
        <ele>1130.5</ele>
        <time>2018-08-19T10:39:56.000Z</time>
      </trkpt>
      <trkpt lat="45.29698" lon="4.44597">
        <ele>1130.6</ele>
        <time>2018-08-19T10:39:57.000Z</time>
      </trkpt>
      <trkpt lat="45.29698" lon="4.44596">
        <ele>1130.7</ele>
        <time>2018-08-19T10:39:58.000Z</time>
      </trkpt>
      <trkpt lat="45.29699" lon="4.44594">
        <ele>1130.8</ele>
        <time>2018-08-19T10:39:59.000Z</time>
      </trkpt>
      <trkpt lat="45.297" lon="4.44592">
        <ele>1130.9</ele>
        <time>2018-08-19T10:40:00.000Z</time>
      </trkpt>
      <trkpt lat="45.297" lon="4.4459">
        <ele>1131</ele>
        <time>2018-08-19T10:40:01.000Z</time>
      </trkpt>
      <trkpt lat="45.29701" lon="4.44589">
        <ele>1131.1</ele>
        <time>2018-08-19T10:40:02.000Z</time>
      </trkpt>
      <trkpt lat="45.29701" lon="4.44587">
        <ele>1131.2</ele>
        <time>2018-08-19T10:40:03.000Z</time>
      </trkpt>
      <trkpt lat="45.29701" lon="4.44585">
        <ele>1131.3</ele>
        <time>2018-08-19T10:40:04.000Z</time>
      </trkpt>
      <trkpt lat="45.29701" lon="4.44583">
        <ele>1131.4</ele>
        <time>2018-08-19T10:40:05.000Z</time>
      </trkpt>
      <trkpt lat="45.29702" lon="4.44581">
        <ele>1131.5</ele>
        <time>2018-08-19T10:40:06.000Z</time>
      </trkpt>
      <trkpt lat="45.29702" lon="4.44579">
        <ele>1131.6</ele>
        <time>2018-08-19T10:40:07.000Z</time>
      </trkpt>
      <trkpt lat="45.29702" lon="4.44577">
        <ele>1131.6</ele>
        <time>2018-08-19T10:40:08.000Z</time>
      </trkpt>
      <trkpt lat="45.29702" lon="4.44576">
        <ele>1131.7</ele>
        <time>2018-08-19T10:40:09.000Z</time>
      </trkpt>
      <trkpt lat="45.29702" lon="4.44574">
        <ele>1131.8</ele>
        <time>2018-08-19T10:40:10.000Z</time>
      </trkpt>
      <trkpt lat="45.29702" lon="4.44572">
        <ele>1131.8</ele>
        <time>2018-08-19T10:40:11.000Z</time>
      </trkpt>
      <trkpt lat="45.29701" lon="4.4457">
        <ele>1131.9</ele>
        <time>2018-08-19T10:40:12.000Z</time>
      </trkpt>
      <trkpt lat="45.29701" lon="4.44568">
        <ele>1132</ele>
        <time>2018-08-19T10:40:13.000Z</time>
      </trkpt>
      <trkpt lat="45.29701" lon="4.44566">
        <ele>1132</ele>
        <time>2018-08-19T10:40:14.000Z</time>
      </trkpt>
      <trkpt lat="45.29701" lon="4.44564">
        <ele>1132.1</ele>
        <time>2018-08-19T10:40:15.000Z</time>
      </trkpt>
      <trkpt lat="45.297" lon="4.44562">
        <ele>1132.2</ele>
        <time>2018-08-19T10:40:16.000Z</time>
      </trkpt>
      <trkpt lat="45.297" lon="4.44561">
        <ele>1132.2</ele>
        <time>2018-08-19T10:40:17.000Z</time>
      </trkpt>
      <trkpt lat="45.29699" lon="4.44559">
        <ele>1132.3</ele>
        <time>2018-08-19T10:40:18.000Z</time>
      </trkpt>
      <trkpt lat="45.29699" lon="4.44557">
        <ele>1132.3</ele>
        <time>2018-08-19T10:40:19.000Z</time>
      </trkpt>
      <trkpt lat="45.29698" lon="4.44555">
        <ele>1132.4</ele>
        <time>2018-08-19T10:40:20.000Z</time>
      </trkpt>
      <trkpt lat="45.29698" lon="4.44553">
        <ele>1132.4</ele>
        <time>2018-08-19T10:40:21.000Z</time>
      </trkpt>
      <trkpt lat="45.29697" lon="4.44552">
        <ele>1132.5</ele>
        <time>2018-08-19T10:40:22.000Z</time>
      </trkpt>
      <trkpt lat="45.29696" lon="4.4455">
        <ele>1132.6</ele>
        <time>2018-08-19T10:40:23.000Z</time>
      </trkpt>
      <trkpt lat="45.29696" lon="4.44548">
        <ele>1132.6</ele>
        <time>2018-08-19T10:40:24.000Z</time>
      </trkpt>
      <trkpt lat="45.29695" lon="4.44547">
        <ele>1132.7</ele>
        <time>2018-08-19T10:40:25.000Z</time>
      </trkpt>
      <trkpt lat="45.29694" lon="4.44545">
        <ele>1132.7</ele>
        <time>2018-08-19T10:40:26.000Z</time>
      </trkpt>
      <trkpt lat="45.29694" lon="4.44543">
        <ele>1132.8</ele>
        <time>2018-08-19T10:40:27.000Z</time>
      </trkpt>
      <trkpt lat="45.29693" lon="4.44542">
        <ele>1132.8</ele>
        <time>2018-08-19T10:40:28.000Z</time>
      </trkpt>
      <trkpt lat="45.29692" lon="4.4454">
        <ele>1132.9</ele>
        <time>2018-08-19T10:40:29.000Z</time>
      </trkpt>
      <trkpt lat="45.29691" lon="4.44538">
        <ele>1132.9</ele>
        <time>2018-08-19T10:40:30.000Z</time>
      </trkpt>
      <trkpt lat="45.2969" lon="4.44537">
        <ele>1133</ele>
        <time>2018-08-19T10:40:31.000Z</time>
      </trkpt>
      <trkpt lat="45.2969" lon="4.44535">
        <ele>1133</ele>
        <time>2018-08-19T10:40:32.000Z</time>
      </trkpt>
      <trkpt lat="45.29689" lon="4.44534">
        <ele>1133.1</ele>
        <time>2018-08-19T10:40:33.000Z</time>
      </trkpt>
      <trkpt lat="45.29688" lon="4.44532">
        <ele>1133.1</ele>
        <time>2018-08-19T10:40:34.000Z</time>
      </trkpt>
      <trkpt lat="45.29687" lon="4.4453">
        <ele>1133.2</ele>
        <time>2018-08-19T10:40:35.000Z</time>
      </trkpt>
      <trkpt lat="45.29686" lon="4.44529">
        <ele>1133.2</ele>
        <time>2018-08-19T10:40:36.000Z</time>
      </trkpt>
      <trkpt lat="45.29686" lon="4.44527">
        <ele>1133.3</ele>
        <time>2018-08-19T10:40:37.000Z</time>
      </trkpt>
      <trkpt lat="45.29685" lon="4.44526">
        <ele>1133.3</ele>
        <time>2018-08-19T10:40:38.000Z</time>
      </trkpt>
      <trkpt lat="45.29684" lon="4.44524">
        <ele>1133.4</ele>
        <time>2018-08-19T10:40:39.000Z</time>
      </trkpt>
      <trkpt lat="45.29683" lon="4.44522">
        <ele>1133.4</ele>
        <time>2018-08-19T10:40:40.000Z</time>
      </trkpt>
      <trkpt lat="45.29683" lon="4.4452">
        <ele>1133.5</ele>
        <time>2018-08-19T10:40:41.000Z</time>
      </trkpt>
      <trkpt lat="45.29682" lon="4.44519">
        <ele>1133.5</ele>
        <time>2018-08-19T10:40:42.000Z</time>
      </trkpt>
      <trkpt lat="45.29681" lon="4.44517">
        <ele>1133.6</ele>
        <time>2018-08-19T10:40:43.000Z</time>
      </trkpt>
      <trkpt lat="45.29681" lon="4.44515">
        <ele>1133.6</ele>
        <time>2018-08-19T10:40:44.000Z</time>
      </trkpt>
      <trkpt lat="45.2968" lon="4.44513">
        <ele>1133.7</ele>
        <time>2018-08-19T10:40:45.000Z</time>
      </trkpt>
      <trkpt lat="45.29679" lon="4.44511">
        <ele>1133.7</ele>
        <time>2018-08-19T10:40:46.000Z</time>
      </trkpt>
      <trkpt lat="45.29679" lon="4.4451">
        <ele>1133.8</ele>
        <time>2018-08-19T10:40:47.000Z</time>
      </trkpt>
      <trkpt lat="45.29679" lon="4.44508">
        <ele>1133.9</ele>
        <time>2018-08-19T10:40:48.000Z</time>
      </trkpt>
      <trkpt lat="45.29679" lon="4.44506">
        <ele>1133.9</ele>
        <time>2018-08-19T10:40:49.000Z</time>
      </trkpt>
      <trkpt lat="45.29678" lon="4.44504">
        <ele>1134</ele>
        <time>2018-08-19T10:40:50.000Z</time>
      </trkpt>
      <trkpt lat="45.29679" lon="4.44502">
        <ele>1134.1</ele>
        <time>2018-08-19T10:40:51.000Z</time>
      </trkpt>
      <trkpt lat="45.29679" lon="4.445">
        <ele>1134.1</ele>
        <time>2018-08-19T10:40:52.000Z</time>
      </trkpt>
      <trkpt lat="45.29679" lon="4.44499">
        <ele>1134.2</ele>
        <time>2018-08-19T10:40:53.000Z</time>
      </trkpt>
      <trkpt lat="45.29679" lon="4.44497">
        <ele>1134.2</ele>
        <time>2018-08-19T10:40:54.000Z</time>
      </trkpt>
      <trkpt lat="45.2968" lon="4.44496">
        <ele>1134.3</ele>
        <time>2018-08-19T10:40:55.000Z</time>
      </trkpt>
      <trkpt lat="45.2968" lon="4.44494">
        <ele>1134.3</ele>
        <time>2018-08-19T10:40:56.000Z</time>
      </trkpt>
      <trkpt lat="45.29681" lon="4.44493">
        <ele>1134.4</ele>
        <time>2018-08-19T10:40:57.000Z</time>
      </trkpt>
      <trkpt lat="45.29682" lon="4.44491">
        <ele>1134.4</ele>
        <time>2018-08-19T10:40:58.000Z</time>
      </trkpt>
      <trkpt lat="45.29683" lon="4.4449">
        <ele>1134.5</ele>
        <time>2018-08-19T10:40:59.000Z</time>
      </trkpt>
      <trkpt lat="45.29683" lon="4.44488">
        <ele>1134.6</ele>
        <time>2018-08-19T10:41:00.000Z</time>
      </trkpt>
      <trkpt lat="45.29684" lon="4.44487">
        <ele>1134.6</ele>
        <time>2018-08-19T10:41:01.000Z</time>
      </trkpt>
      <trkpt lat="45.29685" lon="4.44486">
        <ele>1134.7</ele>
        <time>2018-08-19T10:41:02.000Z</time>
      </trkpt>
      <trkpt lat="45.29686" lon="4.44484">
        <ele>1134.7</ele>
        <time>2018-08-19T10:41:03.000Z</time>
      </trkpt>
      <trkpt lat="45.29686" lon="4.44483">
        <ele>1134.8</ele>
        <time>2018-08-19T10:41:04.000Z</time>
      </trkpt>
      <trkpt lat="45.29687" lon="4.44481">
        <ele>1134.9</ele>
        <time>2018-08-19T10:41:05.000Z</time>
      </trkpt>
      <trkpt lat="45.29688" lon="4.4448">
        <ele>1134.9</ele>
        <time>2018-08-19T10:41:06.000Z</time>
      </trkpt>
      <trkpt lat="45.29689" lon="4.44479">
        <ele>1135</ele>
        <time>2018-08-19T10:41:07.000Z</time>
      </trkpt>
      <trkpt lat="45.2969" lon="4.44477">
        <ele>1135</ele>
        <time>2018-08-19T10:41:08.000Z</time>
      </trkpt>
      <trkpt lat="45.2969" lon="4.44476">
        <ele>1135.1</ele>
        <time>2018-08-19T10:41:09.000Z</time>
      </trkpt>
      <trkpt lat="45.29691" lon="4.44475">
        <ele>1135.2</ele>
        <time>2018-08-19T10:41:10.000Z</time>
      </trkpt>
      <trkpt lat="45.29692" lon="4.44473">
        <ele>1135.2</ele>
        <time>2018-08-19T10:41:11.000Z</time>
      </trkpt>
      <trkpt lat="45.29693" lon="4.44472">
        <ele>1135.3</ele>
        <time>2018-08-19T10:41:12.000Z</time>
      </trkpt>
      <trkpt lat="45.29694" lon="4.44471">
        <ele>1135.4</ele>
        <time>2018-08-19T10:41:13.000Z</time>
      </trkpt>
      <trkpt lat="45.29694" lon="4.44469">
        <ele>1135.4</ele>
        <time>2018-08-19T10:41:14.000Z</time>
      </trkpt>
      <trkpt lat="45.29695" lon="4.44468">
        <ele>1135.5</ele>
        <time>2018-08-19T10:41:15.000Z</time>
      </trkpt>
      <trkpt lat="45.29696" lon="4.44467">
        <ele>1135.6</ele>
        <time>2018-08-19T10:41:16.000Z</time>
      </trkpt>
      <trkpt lat="45.29697" lon="4.44465">
        <ele>1135.7</ele>
        <time>2018-08-19T10:41:17.000Z</time>
      </trkpt>
      <trkpt lat="45.29698" lon="4.44464">
        <ele>1135.7</ele>
        <time>2018-08-19T10:41:18.000Z</time>
      </trkpt>
      <trkpt lat="45.29699" lon="4.44463">
        <ele>1135.8</ele>
        <time>2018-08-19T10:41:19.000Z</time>
      </trkpt>
      <trkpt lat="45.297" lon="4.44461">
        <ele>1135.9</ele>
        <time>2018-08-19T10:41:20.000Z</time>
      </trkpt>
      <trkpt lat="45.29701" lon="4.4446">
        <ele>1136</ele>
        <time>2018-08-19T10:41:21.000Z</time>
      </trkpt>
      <trkpt lat="45.29702" lon="4.44458">
        <ele>1136</ele>
        <time>2018-08-19T10:41:22.000Z</time>
      </trkpt>
      <trkpt lat="45.29703" lon="4.44457">
        <ele>1136.1</ele>
        <time>2018-08-19T10:41:23.000Z</time>
      </trkpt>
      <trkpt lat="45.29703" lon="4.44456">
        <ele>1136.2</ele>
        <time>2018-08-19T10:41:24.000Z</time>
      </trkpt>
      <trkpt lat="45.29704" lon="4.44454">
        <ele>1136.3</ele>
        <time>2018-08-19T10:41:25.000Z</time>
      </trkpt>
      <trkpt lat="45.29705" lon="4.44453">
        <ele>1136.4</ele>
        <time>2018-08-19T10:41:26.000Z</time>
      </trkpt>
      <trkpt lat="45.29706" lon="4.44452">
        <ele>1136.5</ele>
        <time>2018-08-19T10:41:27.000Z</time>
      </trkpt>
      <trkpt lat="45.29707" lon="4.4445">
        <ele>1136.6</ele>
        <time>2018-08-19T10:41:28.000Z</time>
      </trkpt>
      <trkpt lat="45.29708" lon="4.44449">
        <ele>1136.6</ele>
        <time>2018-08-19T10:41:29.000Z</time>
      </trkpt>
      <trkpt lat="45.29709" lon="4.44448">
        <ele>1136.7</ele>
        <time>2018-08-19T10:41:30.000Z</time>
      </trkpt>
      <trkpt lat="45.2971" lon="4.44446">
        <ele>1136.8</ele>
        <time>2018-08-19T10:41:31.000Z</time>
      </trkpt>
      <trkpt lat="45.29712" lon="4.44445">
        <ele>1136.9</ele>
        <time>2018-08-19T10:41:32.000Z</time>
      </trkpt>
      <trkpt lat="45.29713" lon="4.44444">
        <ele>1137</ele>
        <time>2018-08-19T10:41:33.000Z</time>
      </trkpt>
      <trkpt lat="45.29714" lon="4.44443">
        <ele>1137.1</ele>
        <time>2018-08-19T10:41:34.000Z</time>
      </trkpt>
      <trkpt lat="45.29715" lon="4.44441">
        <ele>1137.2</ele>
        <time>2018-08-19T10:41:35.000Z</time>
      </trkpt>
      <trkpt lat="45.29716" lon="4.4444">
        <ele>1137.3</ele>
        <time>2018-08-19T10:41:36.000Z</time>
      </trkpt>
      <trkpt lat="45.29717" lon="4.44439">
        <ele>1137.4</ele>
        <time>2018-08-19T10:41:37.000Z</time>
      </trkpt>
      <trkpt lat="45.29718" lon="4.44438">
        <ele>1137.5</ele>
        <time>2018-08-19T10:41:38.000Z</time>
      </trkpt>
      <trkpt lat="45.29719" lon="4.44437">
        <ele>1137.6</ele>
        <time>2018-08-19T10:41:39.000Z</time>
      </trkpt>
      <trkpt lat="45.2972" lon="4.44436">
        <ele>1137.7</ele>
        <time>2018-08-19T10:41:40.000Z</time>
      </trkpt>
      <trkpt lat="45.29721" lon="4.44434">
        <ele>1137.8</ele>
        <time>2018-08-19T10:41:41.000Z</time>
      </trkpt>
      <trkpt lat="45.29722" lon="4.44433">
        <ele>1137.9</ele>
        <time>2018-08-19T10:41:42.000Z</time>
      </trkpt>
      <trkpt lat="45.29723" lon="4.44432">
        <ele>1138</ele>
        <time>2018-08-19T10:41:43.000Z</time>
      </trkpt>
      <trkpt lat="45.29724" lon="4.44431">
        <ele>1138.1</ele>
        <time>2018-08-19T10:41:44.000Z</time>
      </trkpt>
      <trkpt lat="45.29725" lon="4.44429">
        <ele>1138.2</ele>
        <time>2018-08-19T10:41:45.000Z</time>
      </trkpt>
      <trkpt lat="45.29726" lon="4.44428">
        <ele>1138.3</ele>
        <time>2018-08-19T10:41:46.000Z</time>
      </trkpt>
      <trkpt lat="45.29727" lon="4.44427">
        <ele>1138.4</ele>
        <time>2018-08-19T10:41:47.000Z</time>
      </trkpt>
      <trkpt lat="45.29728" lon="4.44425">
        <ele>1138.5</ele>
        <time>2018-08-19T10:41:48.000Z</time>
      </trkpt>
      <trkpt lat="45.29729" lon="4.44424">
        <ele>1138.6</ele>
        <time>2018-08-19T10:41:49.000Z</time>
      </trkpt>
      <trkpt lat="45.2973" lon="4.44423">
        <ele>1138.7</ele>
        <time>2018-08-19T10:41:50.000Z</time>
      </trkpt>
      <trkpt lat="45.29731" lon="4.44421">
        <ele>1138.9</ele>
        <time>2018-08-19T10:41:51.000Z</time>
      </trkpt>
      <trkpt lat="45.29732" lon="4.4442">
        <ele>1139</ele>
        <time>2018-08-19T10:41:52.000Z</time>
      </trkpt>
      <trkpt lat="45.29733" lon="4.44418">
        <ele>1139.1</ele>
        <time>2018-08-19T10:41:53.000Z</time>
      </trkpt>
      <trkpt lat="45.29734" lon="4.44417">
        <ele>1139.2</ele>
        <time>2018-08-19T10:41:54.000Z</time>
      </trkpt>
      <trkpt lat="45.29735" lon="4.44415">
        <ele>1139.3</ele>
        <time>2018-08-19T10:41:55.000Z</time>
      </trkpt>
      <trkpt lat="45.29735" lon="4.44414">
        <ele>1139.3</ele>
        <time>2018-08-19T10:41:56.000Z</time>
      </trkpt>
      <trkpt lat="45.29736" lon="4.44412">
        <ele>1139.3</ele>
        <time>2018-08-19T10:41:57.000Z</time>
      </trkpt>
      <trkpt lat="45.29737" lon="4.4441">
        <ele>1139.4</ele>
        <time>2018-08-19T10:41:58.000Z</time>
      </trkpt>
      <trkpt lat="45.29738" lon="4.44409">
        <ele>1139.4</ele>
        <time>2018-08-19T10:41:59.000Z</time>
      </trkpt>
      <trkpt lat="45.29738" lon="4.44407">
        <ele>1139.5</ele>
        <time>2018-08-19T10:42:00.000Z</time>
      </trkpt>
      <trkpt lat="45.29739" lon="4.44405">
        <ele>1139.5</ele>
        <time>2018-08-19T10:42:01.000Z</time>
      </trkpt>
      <trkpt lat="45.2974" lon="4.44403">
        <ele>1139.5</ele>
        <time>2018-08-19T10:42:02.000Z</time>
      </trkpt>
      <trkpt lat="45.2974" lon="4.44402">
        <ele>1139.6</ele>
        <time>2018-08-19T10:42:03.000Z</time>
      </trkpt>
      <trkpt lat="45.29741" lon="4.444">
        <ele>1139.6</ele>
        <time>2018-08-19T10:42:04.000Z</time>
      </trkpt>
      <trkpt lat="45.29741" lon="4.44398">
        <ele>1139.7</ele>
        <time>2018-08-19T10:42:05.000Z</time>
      </trkpt>
      <trkpt lat="45.29742" lon="4.44396">
        <ele>1139.7</ele>
        <time>2018-08-19T10:42:06.000Z</time>
      </trkpt>
      <trkpt lat="45.29742" lon="4.44394">
        <ele>1139.7</ele>
        <time>2018-08-19T10:42:07.000Z</time>
      </trkpt>
      <trkpt lat="45.29742" lon="4.44392">
        <ele>1139.8</ele>
        <time>2018-08-19T10:42:08.000Z</time>
      </trkpt>
      <trkpt lat="45.29743" lon="4.4439">
        <ele>1139.8</ele>
        <time>2018-08-19T10:42:09.000Z</time>
      </trkpt>
      <trkpt lat="45.29743" lon="4.44388">
        <ele>1139.8</ele>
        <time>2018-08-19T10:42:10.000Z</time>
      </trkpt>
      <trkpt lat="45.29743" lon="4.44386">
        <ele>1139.9</ele>
        <time>2018-08-19T10:42:11.000Z</time>
      </trkpt>
      <trkpt lat="45.29744" lon="4.44384">
        <ele>1139.9</ele>
        <time>2018-08-19T10:42:12.000Z</time>
      </trkpt>
      <trkpt lat="45.29744" lon="4.44382">
        <ele>1139.9</ele>
        <time>2018-08-19T10:42:13.000Z</time>
      </trkpt>
      <trkpt lat="45.29744" lon="4.4438">
        <ele>1140</ele>
        <time>2018-08-19T10:42:14.000Z</time>
      </trkpt>
      <trkpt lat="45.29745" lon="4.44378">
        <ele>1140</ele>
        <time>2018-08-19T10:42:15.000Z</time>
      </trkpt>
      <trkpt lat="45.29745" lon="4.44376">
        <ele>1140.1</ele>
        <time>2018-08-19T10:42:16.000Z</time>
      </trkpt>
      <trkpt lat="45.29745" lon="4.44374">
        <ele>1140.1</ele>
        <time>2018-08-19T10:42:17.000Z</time>
      </trkpt>
      <trkpt lat="45.29745" lon="4.44372">
        <ele>1140.1</ele>
        <time>2018-08-19T10:42:18.000Z</time>
      </trkpt>
      <trkpt lat="45.29745" lon="4.4437">
        <ele>1140.2</ele>
        <time>2018-08-19T10:42:19.000Z</time>
      </trkpt>
      <trkpt lat="45.29746" lon="4.44368">
        <ele>1140.2</ele>
        <time>2018-08-19T10:42:20.000Z</time>
      </trkpt>
      <trkpt lat="45.29746" lon="4.44366">
        <ele>1140.2</ele>
        <time>2018-08-19T10:42:21.000Z</time>
      </trkpt>
      <trkpt lat="45.29746" lon="4.44364">
        <ele>1140.3</ele>
        <time>2018-08-19T10:42:22.000Z</time>
      </trkpt>
      <trkpt lat="45.29746" lon="4.44362">
        <ele>1140.3</ele>
        <time>2018-08-19T10:42:23.000Z</time>
      </trkpt>
      <trkpt lat="45.29746" lon="4.4436">
        <ele>1140.3</ele>
        <time>2018-08-19T10:42:24.000Z</time>
      </trkpt>
      <trkpt lat="45.29747" lon="4.44358">
        <ele>1140.4</ele>
        <time>2018-08-19T10:42:25.000Z</time>
      </trkpt>
      <trkpt lat="45.29747" lon="4.44356">
        <ele>1140.4</ele>
        <time>2018-08-19T10:42:26.000Z</time>
      </trkpt>
      <trkpt lat="45.29747" lon="4.44354">
        <ele>1140.4</ele>
        <time>2018-08-19T10:42:27.000Z</time>
      </trkpt>
      <trkpt lat="45.29747" lon="4.44352">
        <ele>1140.5</ele>
        <time>2018-08-19T10:42:28.000Z</time>
      </trkpt>
      <trkpt lat="45.29747" lon="4.4435">
        <ele>1140.5</ele>
        <time>2018-08-19T10:42:29.000Z</time>
      </trkpt>
      <trkpt lat="45.29748" lon="4.44348">
        <ele>1140.6</ele>
        <time>2018-08-19T10:42:30.000Z</time>
      </trkpt>
      <trkpt lat="45.29748" lon="4.44346">
        <ele>1140.6</ele>
        <time>2018-08-19T10:42:31.000Z</time>
      </trkpt>
      <trkpt lat="45.29748" lon="4.44344">
        <ele>1140.6</ele>
        <time>2018-08-19T10:42:32.000Z</time>
      </trkpt>
      <trkpt lat="45.29748" lon="4.44342">
        <ele>1140.7</ele>
        <time>2018-08-19T10:42:33.000Z</time>
      </trkpt>
      <trkpt lat="45.29748" lon="4.4434">
        <ele>1140.7</ele>
        <time>2018-08-19T10:42:34.000Z</time>
      </trkpt>
      <trkpt lat="45.29748" lon="4.44338">
        <ele>1140.8</ele>
        <time>2018-08-19T10:42:35.000Z</time>
      </trkpt>
      <trkpt lat="45.29749" lon="4.44336">
        <ele>1140.8</ele>
        <time>2018-08-19T10:42:36.000Z</time>
      </trkpt>
      <trkpt lat="45.29749" lon="4.44334">
        <ele>1140.8</ele>
        <time>2018-08-19T10:42:37.000Z</time>
      </trkpt>
      <trkpt lat="45.29749" lon="4.44332">
        <ele>1140.9</ele>
        <time>2018-08-19T10:42:38.000Z</time>
      </trkpt>
      <trkpt lat="45.29749" lon="4.4433">
        <ele>1140.9</ele>
        <time>2018-08-19T10:42:39.000Z</time>
      </trkpt>
      <trkpt lat="45.29749" lon="4.44328">
        <ele>1140.9</ele>
        <time>2018-08-19T10:42:40.000Z</time>
      </trkpt>
      <trkpt lat="45.29749" lon="4.44326">
        <ele>1140.9</ele>
        <time>2018-08-19T10:42:41.000Z</time>
      </trkpt>
      <trkpt lat="45.29749" lon="4.44324">
        <ele>1140.9</ele>
        <time>2018-08-19T10:42:42.000Z</time>
      </trkpt>
      <trkpt lat="45.2975" lon="4.44321">
        <ele>1140.9</ele>
        <time>2018-08-19T10:42:43.000Z</time>
      </trkpt>
      <trkpt lat="45.2975" lon="4.44319">
        <ele>1141</ele>
        <time>2018-08-19T10:42:44.000Z</time>
      </trkpt>
      <trkpt lat="45.2975" lon="4.44317">
        <ele>1141</ele>
        <time>2018-08-19T10:42:45.000Z</time>
      </trkpt>
      <trkpt lat="45.2975" lon="4.44315">
        <ele>1141</ele>
        <time>2018-08-19T10:42:46.000Z</time>
      </trkpt>
      <trkpt lat="45.2975" lon="4.44313">
        <ele>1141</ele>
        <time>2018-08-19T10:42:47.000Z</time>
      </trkpt>
      <trkpt lat="45.2975" lon="4.44311">
        <ele>1141</ele>
        <time>2018-08-19T10:42:48.000Z</time>
      </trkpt>
      <trkpt lat="45.2975" lon="4.44309">
        <ele>1141</ele>
        <time>2018-08-19T10:42:49.000Z</time>
      </trkpt>
      <trkpt lat="45.2975" lon="4.44307">
        <ele>1141</ele>
        <time>2018-08-19T10:42:50.000Z</time>
      </trkpt>
      <trkpt lat="45.2975" lon="4.44305">
        <ele>1141</ele>
        <time>2018-08-19T10:42:51.000Z</time>
      </trkpt>
      <trkpt lat="45.2975" lon="4.44303">
        <ele>1141</ele>
        <time>2018-08-19T10:42:52.000Z</time>
      </trkpt>
      <trkpt lat="45.29751" lon="4.44301">
        <ele>1141.1</ele>
        <time>2018-08-19T10:42:53.000Z</time>
      </trkpt>
      <trkpt lat="45.29751" lon="4.44299">
        <ele>1141.1</ele>
        <time>2018-08-19T10:42:54.000Z</time>
      </trkpt>
      <trkpt lat="45.29751" lon="4.44297">
        <ele>1141.1</ele>
        <time>2018-08-19T10:42:55.000Z</time>
      </trkpt>
      <trkpt lat="45.29751" lon="4.44295">
        <ele>1141.1</ele>
        <time>2018-08-19T10:42:56.000Z</time>
      </trkpt>
      <trkpt lat="45.29751" lon="4.44293">
        <ele>1141.1</ele>
        <time>2018-08-19T10:42:57.000Z</time>
      </trkpt>
      <trkpt lat="45.29751" lon="4.44291">
        <ele>1141.1</ele>
        <time>2018-08-19T10:42:58.000Z</time>
      </trkpt>
      <trkpt lat="45.29751" lon="4.44289">
        <ele>1141.1</ele>
        <time>2018-08-19T10:42:59.000Z</time>
      </trkpt>
      <trkpt lat="45.29751" lon="4.44287">
        <ele>1141.2</ele>
        <time>2018-08-19T10:43:00.000Z</time>
      </trkpt>
      <trkpt lat="45.29751" lon="4.44284">
        <ele>1141.2</ele>
        <time>2018-08-19T10:43:01.000Z</time>
      </trkpt>
      <trkpt lat="45.29752" lon="4.44282">
        <ele>1141.2</ele>
        <time>2018-08-19T10:43:02.000Z</time>
      </trkpt>
      <trkpt lat="45.29752" lon="4.4428">
        <ele>1141.3</ele>
        <time>2018-08-19T10:43:03.000Z</time>
      </trkpt>
      <trkpt lat="45.29752" lon="4.44278">
        <ele>1141.3</ele>
        <time>2018-08-19T10:43:04.000Z</time>
      </trkpt>
      <trkpt lat="45.29753" lon="4.44276">
        <ele>1141.4</ele>
        <time>2018-08-19T10:43:05.000Z</time>
      </trkpt>
      <trkpt lat="45.29753" lon="4.44274">
        <ele>1141.4</ele>
        <time>2018-08-19T10:43:06.000Z</time>
      </trkpt>
      <trkpt lat="45.29753" lon="4.44273">
        <ele>1141.5</ele>
        <time>2018-08-19T10:43:07.000Z</time>
      </trkpt>
      <trkpt lat="45.29754" lon="4.44271">
        <ele>1141.6</ele>
        <time>2018-08-19T10:43:08.000Z</time>
      </trkpt>
      <trkpt lat="45.29754" lon="4.44269">
        <ele>1141.7</ele>
        <time>2018-08-19T10:43:09.000Z</time>
      </trkpt>
      <trkpt lat="45.29755" lon="4.44267">
        <ele>1141.8</ele>
        <time>2018-08-19T10:43:10.000Z</time>
      </trkpt>
      <trkpt lat="45.29756" lon="4.44265">
        <ele>1141.9</ele>
        <time>2018-08-19T10:43:11.000Z</time>
      </trkpt>
      <trkpt lat="45.29756" lon="4.44263">
        <ele>1142</ele>
        <time>2018-08-19T10:43:12.000Z</time>
      </trkpt>
      <trkpt lat="45.29757" lon="4.44261">
        <ele>1142.1</ele>
        <time>2018-08-19T10:43:13.000Z</time>
      </trkpt>
      <trkpt lat="45.29758" lon="4.4426">
        <ele>1142.2</ele>
        <time>2018-08-19T10:43:14.000Z</time>
      </trkpt>
      <trkpt lat="45.29758" lon="4.44258">
        <ele>1142.3</ele>
        <time>2018-08-19T10:43:15.000Z</time>
      </trkpt>
      <trkpt lat="45.29759" lon="4.44256">
        <ele>1142.4</ele>
        <time>2018-08-19T10:43:16.000Z</time>
      </trkpt>
      <trkpt lat="45.2976" lon="4.44255">
        <ele>1142.6</ele>
        <time>2018-08-19T10:43:17.000Z</time>
      </trkpt>
      <trkpt lat="45.2976" lon="4.44253">
        <ele>1142.7</ele>
        <time>2018-08-19T10:43:18.000Z</time>
      </trkpt>
      <trkpt lat="45.29761" lon="4.44252">
        <ele>1142.9</ele>
        <time>2018-08-19T10:43:19.000Z</time>
      </trkpt>
      <trkpt lat="45.29762" lon="4.4425">
        <ele>1143</ele>
        <time>2018-08-19T10:43:20.000Z</time>
      </trkpt>
      <trkpt lat="45.29763" lon="4.44249">
        <ele>1143.2</ele>
        <time>2018-08-19T10:43:21.000Z</time>
      </trkpt>
      <trkpt lat="45.29764" lon="4.44247">
        <ele>1143.4</ele>
        <time>2018-08-19T10:43:22.000Z</time>
      </trkpt>
      <trkpt lat="45.29764" lon="4.44246">
        <ele>1143.5</ele>
        <time>2018-08-19T10:43:23.000Z</time>
      </trkpt>
      <trkpt lat="45.29765" lon="4.44244">
        <ele>1143.7</ele>
        <time>2018-08-19T10:43:24.000Z</time>
      </trkpt>
      <trkpt lat="45.29766" lon="4.44243">
        <ele>1143.9</ele>
        <time>2018-08-19T10:43:25.000Z</time>
      </trkpt>
      <trkpt lat="45.29767" lon="4.44242">
        <ele>1144.1</ele>
        <time>2018-08-19T10:43:26.000Z</time>
      </trkpt>
      <trkpt lat="45.29768" lon="4.44241">
        <ele>1144.3</ele>
        <time>2018-08-19T10:43:27.000Z</time>
      </trkpt>
      <trkpt lat="45.29769" lon="4.44239">
        <ele>1144.5</ele>
        <time>2018-08-19T10:43:28.000Z</time>
      </trkpt>
      <trkpt lat="45.2977" lon="4.44238">
        <ele>1144.7</ele>
        <time>2018-08-19T10:43:29.000Z</time>
      </trkpt>
      <trkpt lat="45.2977" lon="4.44237">
        <ele>1144.9</ele>
        <time>2018-08-19T10:43:30.000Z</time>
      </trkpt>
      <trkpt lat="45.29771" lon="4.44236">
        <ele>1145</ele>
        <time>2018-08-19T10:43:31.000Z</time>
      </trkpt>
      <trkpt lat="45.29772" lon="4.44234">
        <ele>1145.2</ele>
        <time>2018-08-19T10:43:32.000Z</time>
      </trkpt>
      <trkpt lat="45.29773" lon="4.44233">
        <ele>1145.4</ele>
        <time>2018-08-19T10:43:33.000Z</time>
      </trkpt>
      <trkpt lat="45.29774" lon="4.44232">
        <ele>1145.6</ele>
        <time>2018-08-19T10:43:34.000Z</time>
      </trkpt>
      <trkpt lat="45.29775" lon="4.44231">
        <ele>1145.8</ele>
        <time>2018-08-19T10:43:35.000Z</time>
      </trkpt>
      <trkpt lat="45.29775" lon="4.4423">
        <ele>1146</ele>
        <time>2018-08-19T10:43:36.000Z</time>
      </trkpt>
      <trkpt lat="45.29776" lon="4.44228">
        <ele>1146.2</ele>
        <time>2018-08-19T10:43:37.000Z</time>
      </trkpt>
      <trkpt lat="45.29777" lon="4.44227">
        <ele>1146.4</ele>
        <time>2018-08-19T10:43:38.000Z</time>
      </trkpt>
      <trkpt lat="45.29778" lon="4.44226">
        <ele>1146.6</ele>
        <time>2018-08-19T10:43:39.000Z</time>
      </trkpt>
      <trkpt lat="45.29779" lon="4.44225">
        <ele>1146.7</ele>
        <time>2018-08-19T10:43:40.000Z</time>
      </trkpt>
      <trkpt lat="45.2978" lon="4.44224">
        <ele>1146.9</ele>
        <time>2018-08-19T10:43:41.000Z</time>
      </trkpt>
      <trkpt lat="45.29781" lon="4.44223">
        <ele>1147.1</ele>
        <time>2018-08-19T10:43:42.000Z</time>
      </trkpt>
      <trkpt lat="45.29781" lon="4.44222">
        <ele>1147.3</ele>
        <time>2018-08-19T10:43:43.000Z</time>
      </trkpt>
      <trkpt lat="45.29782" lon="4.44221">
        <ele>1147.5</ele>
        <time>2018-08-19T10:43:44.000Z</time>
      </trkpt>
      <trkpt lat="45.29783" lon="4.4422">
        <ele>1147.7</ele>
        <time>2018-08-19T10:43:45.000Z</time>
      </trkpt>
      <trkpt lat="45.29784" lon="4.44219">
        <ele>1147.9</ele>
        <time>2018-08-19T10:43:46.000Z</time>
      </trkpt>
      <trkpt lat="45.29785" lon="4.44218">
        <ele>1148.1</ele>
        <time>2018-08-19T10:43:47.000Z</time>
      </trkpt>
      <trkpt lat="45.29786" lon="4.44218">
        <ele>1148.3</ele>
        <time>2018-08-19T10:43:48.000Z</time>
      </trkpt>
      <trkpt lat="45.29787" lon="4.44217">
        <ele>1148.5</ele>
        <time>2018-08-19T10:43:49.000Z</time>
      </trkpt>
      <trkpt lat="45.29788" lon="4.44216">
        <ele>1148.7</ele>
        <time>2018-08-19T10:43:50.000Z</time>
      </trkpt>
      <trkpt lat="45.29789" lon="4.44215">
        <ele>1148.9</ele>
        <time>2018-08-19T10:43:51.000Z</time>
      </trkpt>
      <trkpt lat="45.2979" lon="4.44214">
        <ele>1149.1</ele>
        <time>2018-08-19T10:43:52.000Z</time>
      </trkpt>
      <trkpt lat="45.29791" lon="4.44213">
        <ele>1149.3</ele>
        <time>2018-08-19T10:43:53.000Z</time>
      </trkpt>
      <trkpt lat="45.29791" lon="4.44212">
        <ele>1149.5</ele>
        <time>2018-08-19T10:43:54.000Z</time>
      </trkpt>
      <trkpt lat="45.29792" lon="4.44211">
        <ele>1149.8</ele>
        <time>2018-08-19T10:43:55.000Z</time>
      </trkpt>
      <trkpt lat="45.29793" lon="4.4421">
        <ele>1150</ele>
        <time>2018-08-19T10:43:56.000Z</time>
      </trkpt>
      <trkpt lat="45.29794" lon="4.44209">
        <ele>1150.2</ele>
        <time>2018-08-19T10:43:57.000Z</time>
      </trkpt>
      <trkpt lat="45.29795" lon="4.44208">
        <ele>1150.4</ele>
        <time>2018-08-19T10:43:58.000Z</time>
      </trkpt>
      <trkpt lat="45.29796" lon="4.44207">
        <ele>1150.6</ele>
        <time>2018-08-19T10:43:59.000Z</time>
      </trkpt>
      <trkpt lat="45.29797" lon="4.44205">
        <ele>1150.9</ele>
        <time>2018-08-19T10:44:00.000Z</time>
      </trkpt>
      <trkpt lat="45.29798" lon="4.44204">
        <ele>1151.1</ele>
        <time>2018-08-19T10:44:01.000Z</time>
      </trkpt>
      <trkpt lat="45.29799" lon="4.44203">
        <ele>1151.3</ele>
        <time>2018-08-19T10:44:02.000Z</time>
      </trkpt>
      <trkpt lat="45.298" lon="4.44203">
        <ele>1151.5</ele>
        <time>2018-08-19T10:44:03.000Z</time>
      </trkpt>
      <trkpt lat="45.29801" lon="4.44202">
        <ele>1151.8</ele>
        <time>2018-08-19T10:44:04.000Z</time>
      </trkpt>
      <trkpt lat="45.29802" lon="4.44201">
        <ele>1152</ele>
        <time>2018-08-19T10:44:05.000Z</time>
      </trkpt>
      <trkpt lat="45.29803" lon="4.44201">
        <ele>1152.2</ele>
        <time>2018-08-19T10:44:06.000Z</time>
      </trkpt>
      <trkpt lat="45.29804" lon="4.442">
        <ele>1152.5</ele>
        <time>2018-08-19T10:44:07.000Z</time>
      </trkpt>
      <trkpt lat="45.29805" lon="4.442">
        <ele>1152.7</ele>
        <time>2018-08-19T10:44:08.000Z</time>
      </trkpt>
      <trkpt lat="45.29807" lon="4.44199">
        <ele>1153</ele>
        <time>2018-08-19T10:44:09.000Z</time>
      </trkpt>
      <trkpt lat="45.29808" lon="4.44199">
        <ele>1153.2</ele>
        <time>2018-08-19T10:44:10.000Z</time>
      </trkpt>
      <trkpt lat="45.29809" lon="4.44198">
        <ele>1153.4</ele>
        <time>2018-08-19T10:44:11.000Z</time>
      </trkpt>
      <trkpt lat="45.2981" lon="4.44198">
        <ele>1153.7</ele>
        <time>2018-08-19T10:44:12.000Z</time>
      </trkpt>
      <trkpt lat="45.29811" lon="4.44197">
        <ele>1153.9</ele>
        <time>2018-08-19T10:44:13.000Z</time>
      </trkpt>
      <trkpt lat="45.29812" lon="4.44197">
        <ele>1154.2</ele>
        <time>2018-08-19T10:44:14.000Z</time>
      </trkpt>
      <trkpt lat="45.29813" lon="4.44196">
        <ele>1154.4</ele>
        <time>2018-08-19T10:44:15.000Z</time>
      </trkpt>
      <trkpt lat="45.29815" lon="4.44196">
        <ele>1154.6</ele>
        <time>2018-08-19T10:44:16.000Z</time>
      </trkpt>
      <trkpt lat="45.29816" lon="4.44195">
        <ele>1154.9</ele>
        <time>2018-08-19T10:44:17.000Z</time>
      </trkpt>
      <trkpt lat="45.29817" lon="4.44195">
        <ele>1155.1</ele>
        <time>2018-08-19T10:44:18.000Z</time>
      </trkpt>
      <trkpt lat="45.29818" lon="4.44195">
        <ele>1155.4</ele>
        <time>2018-08-19T10:44:19.000Z</time>
      </trkpt>
      <trkpt lat="45.29819" lon="4.44194">
        <ele>1155.6</ele>
        <time>2018-08-19T10:44:20.000Z</time>
      </trkpt>
      <trkpt lat="45.2982" lon="4.44194">
        <ele>1155.8</ele>
        <time>2018-08-19T10:44:21.000Z</time>
      </trkpt>
      <trkpt lat="45.29821" lon="4.44193">
        <ele>1156</ele>
        <time>2018-08-19T10:44:22.000Z</time>
      </trkpt>
      <trkpt lat="45.29822" lon="4.44193">
        <ele>1156.2</ele>
        <time>2018-08-19T10:44:23.000Z</time>
      </trkpt>
      <trkpt lat="45.29823" lon="4.44193">
        <ele>1156.5</ele>
        <time>2018-08-19T10:44:24.000Z</time>
      </trkpt>
      <trkpt lat="45.29824" lon="4.44192">
        <ele>1156.6</ele>
        <time>2018-08-19T10:44:25.000Z</time>
      </trkpt>
      <trkpt lat="45.29825" lon="4.44192">
        <ele>1156.9</ele>
        <time>2018-08-19T10:44:26.000Z</time>
      </trkpt>
      <trkpt lat="45.29826" lon="4.44192">
        <ele>1157</ele>
        <time>2018-08-19T10:44:27.000Z</time>
      </trkpt>
      <trkpt lat="45.29827" lon="4.44191">
        <ele>1157.2</ele>
        <time>2018-08-19T10:44:28.000Z</time>
      </trkpt>
      <trkpt lat="45.29828" lon="4.44191">
        <ele>1157.5</ele>
        <time>2018-08-19T10:44:29.000Z</time>
      </trkpt>
      <trkpt lat="45.29829" lon="4.4419">
        <ele>1157.7</ele>
        <time>2018-08-19T10:44:30.000Z</time>
      </trkpt>
      <trkpt lat="45.2983" lon="4.4419">
        <ele>1157.9</ele>
        <time>2018-08-19T10:44:31.000Z</time>
      </trkpt>
      <trkpt lat="45.29831" lon="4.4419">
        <ele>1158.1</ele>
        <time>2018-08-19T10:44:32.000Z</time>
      </trkpt>
      <trkpt lat="45.29831" lon="4.44189">
        <ele>1158.3</ele>
        <time>2018-08-19T10:44:33.000Z</time>
      </trkpt>
      <trkpt lat="45.29832" lon="4.44188">
        <ele>1158.5</ele>
        <time>2018-08-19T10:44:34.000Z</time>
      </trkpt>
      <trkpt lat="45.29833" lon="4.44188">
        <ele>1158.8</ele>
        <time>2018-08-19T10:44:35.000Z</time>
      </trkpt>
      <trkpt lat="45.29835" lon="4.44187">
        <ele>1159</ele>
        <time>2018-08-19T10:44:36.000Z</time>
      </trkpt>
      <trkpt lat="45.29836" lon="4.44186">
        <ele>1159.3</ele>
        <time>2018-08-19T10:44:37.000Z</time>
      </trkpt>
      <trkpt lat="45.29837" lon="4.44185">
        <ele>1159.6</ele>
        <time>2018-08-19T10:44:38.000Z</time>
      </trkpt>
      <trkpt lat="45.29838" lon="4.44184">
        <ele>1159.8</ele>
        <time>2018-08-19T10:44:39.000Z</time>
      </trkpt>
      <trkpt lat="45.29839" lon="4.44183">
        <ele>1160.1</ele>
        <time>2018-08-19T10:44:40.000Z</time>
      </trkpt>
      <trkpt lat="45.29839" lon="4.44182">
        <ele>1160.4</ele>
        <time>2018-08-19T10:44:41.000Z</time>
      </trkpt>
      <trkpt lat="45.2984" lon="4.44181">
        <ele>1160.6</ele>
        <time>2018-08-19T10:44:42.000Z</time>
      </trkpt>
      <trkpt lat="45.29841" lon="4.4418">
        <ele>1160.8</ele>
        <time>2018-08-19T10:44:43.000Z</time>
      </trkpt>
      <trkpt lat="45.29842" lon="4.44179">
        <ele>1161</ele>
        <time>2018-08-19T10:44:44.000Z</time>
      </trkpt>
      <trkpt lat="45.29842" lon="4.44178">
        <ele>1161.2</ele>
        <time>2018-08-19T10:44:45.000Z</time>
      </trkpt>
      <trkpt lat="45.29843" lon="4.44176">
        <ele>1161.4</ele>
        <time>2018-08-19T10:44:46.000Z</time>
      </trkpt>
      <trkpt lat="45.29843" lon="4.44175">
        <ele>1161.6</ele>
        <time>2018-08-19T10:44:47.000Z</time>
      </trkpt>
      <trkpt lat="45.29844" lon="4.44174">
        <ele>1161.8</ele>
        <time>2018-08-19T10:44:48.000Z</time>
      </trkpt>
      <trkpt lat="45.29844" lon="4.44173">
        <ele>1162</ele>
        <time>2018-08-19T10:44:49.000Z</time>
      </trkpt>
      <trkpt lat="45.29845" lon="4.44171">
        <ele>1162.2</ele>
        <time>2018-08-19T10:44:50.000Z</time>
      </trkpt>
      <trkpt lat="45.29846" lon="4.4417">
        <ele>1162.4</ele>
        <time>2018-08-19T10:44:51.000Z</time>
      </trkpt>
      <trkpt lat="45.29846" lon="4.44169">
        <ele>1162.7</ele>
        <time>2018-08-19T10:44:52.000Z</time>
      </trkpt>
      <trkpt lat="45.29847" lon="4.44168">
        <ele>1162.9</ele>
        <time>2018-08-19T10:44:53.000Z</time>
      </trkpt>
      <trkpt lat="45.29848" lon="4.44166">
        <ele>1163.1</ele>
        <time>2018-08-19T10:44:54.000Z</time>
      </trkpt>
      <trkpt lat="45.29849" lon="4.44165">
        <ele>1163.3</ele>
        <time>2018-08-19T10:44:55.000Z</time>
      </trkpt>
      <trkpt lat="45.2985" lon="4.44165">
        <ele>1163.5</ele>
        <time>2018-08-19T10:44:56.000Z</time>
      </trkpt>
      <trkpt lat="45.29851" lon="4.44164">
        <ele>1163.7</ele>
        <time>2018-08-19T10:44:57.000Z</time>
      </trkpt>
      <trkpt lat="45.29852" lon="4.44163">
        <ele>1163.9</ele>
        <time>2018-08-19T10:44:58.000Z</time>
      </trkpt>
      <trkpt lat="45.29853" lon="4.44163">
        <ele>1164.1</ele>
        <time>2018-08-19T10:44:59.000Z</time>
      </trkpt>
      <trkpt lat="45.29854" lon="4.44162">
        <ele>1164.3</ele>
        <time>2018-08-19T10:45:00.000Z</time>
      </trkpt>
      <trkpt lat="45.29855" lon="4.44162">
        <ele>1164.5</ele>
        <time>2018-08-19T10:45:01.000Z</time>
      </trkpt>
      <trkpt lat="45.29856" lon="4.44161">
        <ele>1164.7</ele>
        <time>2018-08-19T10:45:02.000Z</time>
      </trkpt>
      <trkpt lat="45.29857" lon="4.44161">
        <ele>1164.9</ele>
        <time>2018-08-19T10:45:03.000Z</time>
      </trkpt>
      <trkpt lat="45.29858" lon="4.4416">
        <ele>1165.1</ele>
        <time>2018-08-19T10:45:04.000Z</time>
      </trkpt>
      <trkpt lat="45.29859" lon="4.4416">
        <ele>1165.4</ele>
        <time>2018-08-19T10:45:05.000Z</time>
      </trkpt>
      <trkpt lat="45.2986" lon="4.44159">
        <ele>1165.6</ele>
        <time>2018-08-19T10:45:06.000Z</time>
      </trkpt>
      <trkpt lat="45.29861" lon="4.44159">
        <ele>1165.8</ele>
        <time>2018-08-19T10:45:07.000Z</time>
      </trkpt>
      <trkpt lat="45.29862" lon="4.44159">
        <ele>1166</ele>
        <time>2018-08-19T10:45:08.000Z</time>
      </trkpt>
      <trkpt lat="45.29863" lon="4.44158">
        <ele>1166.2</ele>
        <time>2018-08-19T10:45:09.000Z</time>
      </trkpt>
      <trkpt lat="45.29864" lon="4.44158">
        <ele>1166.4</ele>
        <time>2018-08-19T10:45:10.000Z</time>
      </trkpt>
      <trkpt lat="45.29865" lon="4.44157">
        <ele>1166.6</ele>
        <time>2018-08-19T10:45:11.000Z</time>
      </trkpt>
      <trkpt lat="45.29866" lon="4.44157">
        <ele>1166.8</ele>
        <time>2018-08-19T10:45:12.000Z</time>
      </trkpt>
      <trkpt lat="45.29867" lon="4.44157">
        <ele>1167</ele>
        <time>2018-08-19T10:45:13.000Z</time>
      </trkpt>
      <trkpt lat="45.29868" lon="4.44156">
        <ele>1167.2</ele>
        <time>2018-08-19T10:45:14.000Z</time>
      </trkpt>
      <trkpt lat="45.29869" lon="4.44156">
        <ele>1167.4</ele>
        <time>2018-08-19T10:45:15.000Z</time>
      </trkpt>
      <trkpt lat="45.2987" lon="4.44155">
        <ele>1167.6</ele>
        <time>2018-08-19T10:45:16.000Z</time>
      </trkpt>
      <trkpt lat="45.29871" lon="4.44155">
        <ele>1167.8</ele>
        <time>2018-08-19T10:45:17.000Z</time>
      </trkpt>
      <trkpt lat="45.29872" lon="4.44155">
        <ele>1168</ele>
        <time>2018-08-19T10:45:18.000Z</time>
      </trkpt>
      <trkpt lat="45.29872" lon="4.44154">
        <ele>1168</ele>
        <time>2018-08-19T10:45:19.000Z</time>
      </trkpt>
      <trkpt lat="45.29872" lon="4.44154">
        <ele>1168.1</ele>
        <time>2018-08-19T10:45:20.000Z</time>
      </trkpt>
      <trkpt lat="45.29872" lon="4.44154">
        <ele>1168.1</ele>
        <time>2018-08-19T10:45:21.000Z</time>
      </trkpt>
      <trkpt lat="45.29872" lon="4.44154">
        <ele>1168</ele>
        <time>2018-08-19T10:45:22.000Z</time>
      </trkpt>
      <trkpt lat="45.29872" lon="4.44154">
        <ele>1168</ele>
        <time>2018-08-19T10:45:23.000Z</time>
      </trkpt>
      <trkpt lat="45.29872" lon="4.44154">
        <ele>1168</ele>
        <time>2018-08-19T10:45:24.000Z</time>
      </trkpt>
      <trkpt lat="45.29872" lon="4.44154">
        <ele>1168</ele>
        <time>2018-08-19T10:45:25.000Z</time>
      </trkpt>
      <trkpt lat="45.29872" lon="4.44154">
        <ele>1168</ele>
        <time>2018-08-19T10:45:26.000Z</time>
      </trkpt>
      <trkpt lat="45.29872" lon="4.44153">
        <ele>1168.1</ele>
        <time>2018-08-19T10:45:27.000Z</time>
      </trkpt>
      <trkpt lat="45.29873" lon="4.44153">
        <ele>1168.1</ele>
        <time>2018-08-19T10:45:28.000Z</time>
      </trkpt>
      <trkpt lat="45.29873" lon="4.44153">
        <ele>1168.2</ele>
        <time>2018-08-19T10:45:29.000Z</time>
      </trkpt>
      <trkpt lat="45.29874" lon="4.44152">
        <ele>1168.3</ele>
        <time>2018-08-19T10:45:30.000Z</time>
      </trkpt>
      <trkpt lat="45.29875" lon="4.44152">
        <ele>1168.5</ele>
        <time>2018-08-19T10:45:31.000Z</time>
      </trkpt>
      <trkpt lat="45.29876" lon="4.44151">
        <ele>1168.6</ele>
        <time>2018-08-19T10:45:32.000Z</time>
      </trkpt>
      <trkpt lat="45.29877" lon="4.4415">
        <ele>1168.8</ele>
        <time>2018-08-19T10:45:33.000Z</time>
      </trkpt>
      <trkpt lat="45.29877" lon="4.4415">
        <ele>1169</ele>
        <time>2018-08-19T10:45:34.000Z</time>
      </trkpt>
      <trkpt lat="45.29878" lon="4.44149">
        <ele>1169.2</ele>
        <time>2018-08-19T10:45:35.000Z</time>
      </trkpt>
      <trkpt lat="45.29879" lon="4.44149">
        <ele>1169.3</ele>
        <time>2018-08-19T10:45:36.000Z</time>
      </trkpt>
      <trkpt lat="45.2988" lon="4.44148">
        <ele>1169.5</ele>
        <time>2018-08-19T10:45:37.000Z</time>
      </trkpt>
      <trkpt lat="45.29881" lon="4.44148">
        <ele>1169.6</ele>
        <time>2018-08-19T10:45:38.000Z</time>
      </trkpt>
      <trkpt lat="45.29882" lon="4.44148">
        <ele>1169.8</ele>
        <time>2018-08-19T10:45:39.000Z</time>
      </trkpt>
      <trkpt lat="45.29882" lon="4.44147">
        <ele>1169.9</ele>
        <time>2018-08-19T10:45:40.000Z</time>
      </trkpt>
      <trkpt lat="45.29883" lon="4.44147">
        <ele>1170.1</ele>
        <time>2018-08-19T10:45:41.000Z</time>
      </trkpt>
      <trkpt lat="45.29884" lon="4.44146">
        <ele>1170.2</ele>
        <time>2018-08-19T10:45:42.000Z</time>
      </trkpt>
      <trkpt lat="45.29885" lon="4.44146">
        <ele>1170.3</ele>
        <time>2018-08-19T10:45:43.000Z</time>
      </trkpt>
      <trkpt lat="45.29886" lon="4.44146">
        <ele>1170.5</ele>
        <time>2018-08-19T10:45:44.000Z</time>
      </trkpt>
      <trkpt lat="45.29887" lon="4.44145">
        <ele>1170.7</ele>
        <time>2018-08-19T10:45:45.000Z</time>
      </trkpt>
      <trkpt lat="45.29887" lon="4.44145">
        <ele>1170.8</ele>
        <time>2018-08-19T10:45:46.000Z</time>
      </trkpt>
      <trkpt lat="45.29888" lon="4.44144">
        <ele>1170.9</ele>
        <time>2018-08-19T10:45:47.000Z</time>
      </trkpt>
      <trkpt lat="45.29889" lon="4.44144">
        <ele>1171.1</ele>
        <time>2018-08-19T10:45:48.000Z</time>
      </trkpt>
      <trkpt lat="45.2989" lon="4.44143">
        <ele>1171.2</ele>
        <time>2018-08-19T10:45:49.000Z</time>
      </trkpt>
      <trkpt lat="45.29891" lon="4.44143">
        <ele>1171.4</ele>
        <time>2018-08-19T10:45:50.000Z</time>
      </trkpt>
      <trkpt lat="45.29891" lon="4.44142">
        <ele>1171.5</ele>
        <time>2018-08-19T10:45:51.000Z</time>
      </trkpt>
      <trkpt lat="45.29892" lon="4.44142">
        <ele>1171.7</ele>
        <time>2018-08-19T10:45:52.000Z</time>
      </trkpt>
      <trkpt lat="45.29893" lon="4.44142">
        <ele>1171.8</ele>
        <time>2018-08-19T10:45:53.000Z</time>
      </trkpt>
      <trkpt lat="45.29893" lon="4.44142">
        <ele>1171.8</ele>
        <time>2018-08-19T10:45:54.000Z</time>
      </trkpt>
      <trkpt lat="45.29893" lon="4.44142">
        <ele>1171.8</ele>
        <time>2018-08-19T10:45:55.000Z</time>
      </trkpt>
      <trkpt lat="45.29893" lon="4.44142">
        <ele>1171.8</ele>
        <time>2018-08-19T10:45:56.000Z</time>
      </trkpt>
      <trkpt lat="45.29893" lon="4.44142">
        <ele>1171.8</ele>
        <time>2018-08-19T10:45:57.000Z</time>
      </trkpt>
      <trkpt lat="45.29893" lon="4.44142">
        <ele>1171.8</ele>
        <time>2018-08-19T10:45:58.000Z</time>
      </trkpt>
      <trkpt lat="45.29893" lon="4.44142">
        <ele>1171.8</ele>
        <time>2018-08-19T10:45:59.000Z</time>
      </trkpt>
      <trkpt lat="45.29893" lon="4.44142">
        <ele>1171.8</ele>
        <time>2018-08-19T10:46:00.000Z</time>
      </trkpt>
      <trkpt lat="45.29893" lon="4.44142">
        <ele>1171.9</ele>
        <time>2018-08-19T10:46:01.000Z</time>
      </trkpt>
      <trkpt lat="45.29893" lon="4.44142">
        <ele>1171.9</ele>
        <time>2018-08-19T10:46:02.000Z</time>
      </trkpt>
      <trkpt lat="45.29893" lon="4.44142">
        <ele>1171.9</ele>
        <time>2018-08-19T10:46:03.000Z</time>
      </trkpt>
      <trkpt lat="45.29893" lon="4.44142">
        <ele>1171.9</ele>
        <time>2018-08-19T10:46:04.000Z</time>
      </trkpt>
      <trkpt lat="45.29893" lon="4.44142">
        <ele>1171.9</ele>
        <time>2018-08-19T10:46:05.000Z</time>
      </trkpt>
      <trkpt lat="45.29893" lon="4.44142">
        <ele>1171.9</ele>
        <time>2018-08-19T10:46:06.000Z</time>
      </trkpt>
      <trkpt lat="45.29893" lon="4.44142">
        <ele>1171.9</ele>
        <time>2018-08-19T10:46:07.000Z</time>
      </trkpt>
      <trkpt lat="45.29893" lon="4.44142">
        <ele>1171.9</ele>
        <time>2018-08-19T10:46:08.000Z</time>
      </trkpt>
      <trkpt lat="45.29893" lon="4.44142">
        <ele>1171.9</ele>
        <time>2018-08-19T10:46:09.000Z</time>
      </trkpt>
      <trkpt lat="45.29893" lon="4.44142">
        <ele>1171.9</ele>
        <time>2018-08-19T10:46:10.000Z</time>
      </trkpt>
      <trkpt lat="45.29893" lon="4.44142">
        <ele>1171.9</ele>
        <time>2018-08-19T10:46:11.000Z</time>
      </trkpt>
      <trkpt lat="45.29893" lon="4.44142">
        <ele>1171.9</ele>
        <time>2018-08-19T10:46:12.000Z</time>
      </trkpt>
      <trkpt lat="45.29893" lon="4.44142">
        <ele>1171.9</ele>
        <time>2018-08-19T10:46:13.000Z</time>
      </trkpt>
      <trkpt lat="45.29893" lon="4.44142">
        <ele>1171.9</ele>
        <time>2018-08-19T10:46:14.000Z</time>
      </trkpt>
      <trkpt lat="45.29893" lon="4.44142">
        <ele>1171.9</ele>
        <time>2018-08-19T10:46:15.000Z</time>
      </trkpt>
      <trkpt lat="45.29893" lon="4.44142">
        <ele>1171.9</ele>
        <time>2018-08-19T10:46:16.000Z</time>
      </trkpt>
      <trkpt lat="45.29893" lon="4.44142">
        <ele>1171.9</ele>
        <time>2018-08-19T10:46:17.000Z</time>
      </trkpt>
      <trkpt lat="45.29893" lon="4.44142">
        <ele>1171.9</ele>
        <time>2018-08-19T10:46:18.000Z</time>
      </trkpt>
      <trkpt lat="45.29893" lon="4.44142">
        <ele>1171.9</ele>
        <time>2018-08-19T10:46:19.000Z</time>
      </trkpt>
      <trkpt lat="45.29893" lon="4.44142">
        <ele>1171.9</ele>
        <time>2018-08-19T10:46:20.000Z</time>
      </trkpt>
      <trkpt lat="45.29893" lon="4.44142">
        <ele>1171.9</ele>
        <time>2018-08-19T10:46:21.000Z</time>
      </trkpt>
      <trkpt lat="45.29893" lon="4.44142">
        <ele>1171.9</ele>
        <time>2018-08-19T10:46:22.000Z</time>
      </trkpt>
      <trkpt lat="45.29893" lon="4.44142">
        <ele>1171.9</ele>
        <time>2018-08-19T10:46:23.000Z</time>
      </trkpt>
      <trkpt lat="45.29893" lon="4.44142">
        <ele>1171.9</ele>
        <time>2018-08-19T10:46:24.000Z</time>
      </trkpt>
      <trkpt lat="45.29893" lon="4.44142">
        <ele>1171.9</ele>
        <time>2018-08-19T10:46:25.000Z</time>
      </trkpt>
      <trkpt lat="45.29893" lon="4.44142">
        <ele>1171.9</ele>
        <time>2018-08-19T10:46:26.000Z</time>
      </trkpt>
      <trkpt lat="45.29893" lon="4.44142">
        <ele>1171.9</ele>
        <time>2018-08-19T10:46:27.000Z</time>
      </trkpt>
      <trkpt lat="45.29893" lon="4.44142">
        <ele>1171.9</ele>
        <time>2018-08-19T10:46:28.000Z</time>
      </trkpt>
      <trkpt lat="45.29893" lon="4.44142">
        <ele>1171.9</ele>
        <time>2018-08-19T10:46:29.000Z</time>
      </trkpt>
      <trkpt lat="45.29893" lon="4.44142">
        <ele>1171.9</ele>
        <time>2018-08-19T10:46:30.000Z</time>
      </trkpt>
      <trkpt lat="45.29893" lon="4.44142">
        <ele>1171.9</ele>
        <time>2018-08-19T10:46:31.000Z</time>
      </trkpt>
      <trkpt lat="45.29893" lon="4.44142">
        <ele>1171.9</ele>
        <time>2018-08-19T10:46:32.000Z</time>
      </trkpt>
      <trkpt lat="45.29893" lon="4.44142">
        <ele>1171.9</ele>
        <time>2018-08-19T10:46:33.000Z</time>
      </trkpt>
      <trkpt lat="45.29893" lon="4.44142">
        <ele>1171.9</ele>
        <time>2018-08-19T10:46:34.000Z</time>
      </trkpt>
      <trkpt lat="45.29893" lon="4.44142">
        <ele>1171.9</ele>
        <time>2018-08-19T10:46:35.000Z</time>
      </trkpt>
      <trkpt lat="45.29893" lon="4.44142">
        <ele>1171.9</ele>
        <time>2018-08-19T10:46:36.000Z</time>
      </trkpt>
      <trkpt lat="45.29893" lon="4.44142">
        <ele>1171.9</ele>
        <time>2018-08-19T10:46:37.000Z</time>
      </trkpt>
      <trkpt lat="45.29893" lon="4.44142">
        <ele>1171.9</ele>
        <time>2018-08-19T10:46:38.000Z</time>
      </trkpt>
      <trkpt lat="45.29893" lon="4.44142">
        <ele>1171.9</ele>
        <time>2018-08-19T10:46:39.000Z</time>
      </trkpt>
      <trkpt lat="45.29893" lon="4.44142">
        <ele>1171.9</ele>
        <time>2018-08-19T10:46:40.000Z</time>
      </trkpt>
      <trkpt lat="45.29893" lon="4.44142">
        <ele>1171.9</ele>
        <time>2018-08-19T10:46:41.000Z</time>
      </trkpt>
      <trkpt lat="45.29893" lon="4.44142">
        <ele>1171.9</ele>
        <time>2018-08-19T10:46:42.000Z</time>
      </trkpt>
      <trkpt lat="45.29893" lon="4.44142">
        <ele>1171.9</ele>
        <time>2018-08-19T10:46:43.000Z</time>
      </trkpt>
      <trkpt lat="45.29893" lon="4.44142">
        <ele>1171.9</ele>
        <time>2018-08-19T10:46:44.000Z</time>
      </trkpt>
      <trkpt lat="45.29893" lon="4.44142">
        <ele>1171.9</ele>
        <time>2018-08-19T10:46:45.000Z</time>
      </trkpt>
      <trkpt lat="45.29893" lon="4.44142">
        <ele>1171.9</ele>
        <time>2018-08-19T10:46:46.000Z</time>
      </trkpt>
      <trkpt lat="45.29893" lon="4.44142">
        <ele>1171.9</ele>
        <time>2018-08-19T10:46:47.000Z</time>
      </trkpt>
      <trkpt lat="45.29893" lon="4.44142">
        <ele>1171.8</ele>
        <time>2018-08-19T10:46:48.000Z</time>
      </trkpt>
      <trkpt lat="45.29893" lon="4.44142">
        <ele>1171.8</ele>
        <time>2018-08-19T10:46:49.000Z</time>
      </trkpt>
      <trkpt lat="45.29893" lon="4.44142">
        <ele>1171.8</ele>
        <time>2018-08-19T10:46:50.000Z</time>
      </trkpt>
      <trkpt lat="45.29893" lon="4.44142">
        <ele>1171.9</ele>
        <time>2018-08-19T10:46:51.000Z</time>
      </trkpt>
      <trkpt lat="45.29893" lon="4.44142">
        <ele>1171.9</ele>
        <time>2018-08-19T10:46:52.000Z</time>
      </trkpt>
      <trkpt lat="45.29893" lon="4.44142">
        <ele>1171.9</ele>
        <time>2018-08-19T10:46:53.000Z</time>
      </trkpt>
      <trkpt lat="45.29893" lon="4.44142">
        <ele>1171.9</ele>
        <time>2018-08-19T10:46:54.000Z</time>
      </trkpt>
      <trkpt lat="45.29893" lon="4.44142">
        <ele>1171.9</ele>
        <time>2018-08-19T10:46:55.000Z</time>
      </trkpt>
      <trkpt lat="45.29893" lon="4.44142">
        <ele>1171.9</ele>
        <time>2018-08-19T10:46:56.000Z</time>
      </trkpt>
      <trkpt lat="45.29893" lon="4.44142">
        <ele>1171.9</ele>
        <time>2018-08-19T10:46:57.000Z</time>
      </trkpt>
      <trkpt lat="45.29893" lon="4.44142">
        <ele>1171.9</ele>
        <time>2018-08-19T10:46:58.000Z</time>
      </trkpt>
      <trkpt lat="45.29893" lon="4.44142">
        <ele>1171.9</ele>
        <time>2018-08-19T10:46:59.000Z</time>
      </trkpt>
      <trkpt lat="45.29893" lon="4.44142">
        <ele>1171.9</ele>
        <time>2018-08-19T10:47:00.000Z</time>
      </trkpt>
      <trkpt lat="45.29893" lon="4.44142">
        <ele>1171.9</ele>
        <time>2018-08-19T10:47:01.000Z</time>
      </trkpt>
      <trkpt lat="45.29893" lon="4.44142">
        <ele>1171.9</ele>
        <time>2018-08-19T10:47:02.000Z</time>
      </trkpt>
      <trkpt lat="45.29893" lon="4.44142">
        <ele>1171.9</ele>
        <time>2018-08-19T10:47:03.000Z</time>
      </trkpt>
      <trkpt lat="45.29893" lon="4.44142">
        <ele>1171.9</ele>
        <time>2018-08-19T10:47:04.000Z</time>
      </trkpt>
      <trkpt lat="45.29893" lon="4.44142">
        <ele>1171.8</ele>
        <time>2018-08-19T10:47:05.000Z</time>
      </trkpt>
      <trkpt lat="45.29893" lon="4.44142">
        <ele>1171.8</ele>
        <time>2018-08-19T10:47:06.000Z</time>
      </trkpt>
      <trkpt lat="45.29893" lon="4.44142">
        <ele>1171.8</ele>
        <time>2018-08-19T10:47:07.000Z</time>
      </trkpt>
      <trkpt lat="45.29893" lon="4.44142">
        <ele>1171.8</ele>
        <time>2018-08-19T10:47:08.000Z</time>
      </trkpt>
      <trkpt lat="45.29893" lon="4.44142">
        <ele>1171.8</ele>
        <time>2018-08-19T10:47:09.000Z</time>
      </trkpt>
      <trkpt lat="45.29893" lon="4.44141">
        <ele>1171.8</ele>
        <time>2018-08-19T10:47:10.000Z</time>
      </trkpt>
      <trkpt lat="45.29893" lon="4.44141">
        <ele>1171.8</ele>
        <time>2018-08-19T10:47:11.000Z</time>
      </trkpt>
      <trkpt lat="45.29893" lon="4.44141">
        <ele>1171.8</ele>
        <time>2018-08-19T10:47:12.000Z</time>
      </trkpt>
      <trkpt lat="45.29893" lon="4.44141">
        <ele>1171.8</ele>
        <time>2018-08-19T10:47:13.000Z</time>
      </trkpt>
      <trkpt lat="45.29893" lon="4.44141">
        <ele>1171.8</ele>
        <time>2018-08-19T10:47:14.000Z</time>
      </trkpt>
      <trkpt lat="45.29893" lon="4.4414">
        <ele>1171.8</ele>
        <time>2018-08-19T10:47:15.000Z</time>
      </trkpt>
      <trkpt lat="45.29893" lon="4.44139">
        <ele>1171.8</ele>
        <time>2018-08-19T10:47:16.000Z</time>
      </trkpt>
      <trkpt lat="45.29894" lon="4.44138">
        <ele>1171.9</ele>
        <time>2018-08-19T10:47:17.000Z</time>
      </trkpt>
      <trkpt lat="45.29895" lon="4.44137">
        <ele>1172</ele>
        <time>2018-08-19T10:47:18.000Z</time>
      </trkpt>
      <trkpt lat="45.29896" lon="4.44137">
        <ele>1172.2</ele>
        <time>2018-08-19T10:47:19.000Z</time>
      </trkpt>
      <trkpt lat="45.29897" lon="4.44136">
        <ele>1172.3</ele>
        <time>2018-08-19T10:47:20.000Z</time>
      </trkpt>
      <trkpt lat="45.29898" lon="4.44135">
        <ele>1172.5</ele>
        <time>2018-08-19T10:47:21.000Z</time>
      </trkpt>
      <trkpt lat="45.29899" lon="4.44135">
        <ele>1172.6</ele>
        <time>2018-08-19T10:47:22.000Z</time>
      </trkpt>
      <trkpt lat="45.299" lon="4.44134">
        <ele>1172.7</ele>
        <time>2018-08-19T10:47:23.000Z</time>
      </trkpt>
      <trkpt lat="45.29901" lon="4.44133">
        <ele>1172.9</ele>
        <time>2018-08-19T10:47:24.000Z</time>
      </trkpt>
      <trkpt lat="45.29901" lon="4.44131">
        <ele>1173</ele>
        <time>2018-08-19T10:47:25.000Z</time>
      </trkpt>
      <trkpt lat="45.29902" lon="4.4413">
        <ele>1173.1</ele>
        <time>2018-08-19T10:47:26.000Z</time>
      </trkpt>
      <trkpt lat="45.29903" lon="4.44129">
        <ele>1173.2</ele>
        <time>2018-08-19T10:47:27.000Z</time>
      </trkpt>
      <trkpt lat="45.29904" lon="4.44127">
        <ele>1173.2</ele>
        <time>2018-08-19T10:47:28.000Z</time>
      </trkpt>
      <trkpt lat="45.29905" lon="4.44125">
        <ele>1173.2</ele>
        <time>2018-08-19T10:47:29.000Z</time>
      </trkpt>
      <trkpt lat="45.29905" lon="4.44123">
        <ele>1173.3</ele>
        <time>2018-08-19T10:47:30.000Z</time>
      </trkpt>
      <trkpt lat="45.29906" lon="4.44122">
        <ele>1173.3</ele>
        <time>2018-08-19T10:47:31.000Z</time>
      </trkpt>
      <trkpt lat="45.29906" lon="4.4412">
        <ele>1173.3</ele>
        <time>2018-08-19T10:47:32.000Z</time>
      </trkpt>
      <trkpt lat="45.29907" lon="4.44118">
        <ele>1173.3</ele>
        <time>2018-08-19T10:47:33.000Z</time>
      </trkpt>
      <trkpt lat="45.29908" lon="4.44116">
        <ele>1173.3</ele>
        <time>2018-08-19T10:47:34.000Z</time>
      </trkpt>
      <trkpt lat="45.29908" lon="4.44115">
        <ele>1173.4</ele>
        <time>2018-08-19T10:47:35.000Z</time>
      </trkpt>
      <trkpt lat="45.29909" lon="4.44113">
        <ele>1173.5</ele>
        <time>2018-08-19T10:47:36.000Z</time>
      </trkpt>
      <trkpt lat="45.2991" lon="4.44112">
        <ele>1173.6</ele>
        <time>2018-08-19T10:47:37.000Z</time>
      </trkpt>
      <trkpt lat="45.29911" lon="4.44111">
        <ele>1173.7</ele>
        <time>2018-08-19T10:47:38.000Z</time>
      </trkpt>
      <trkpt lat="45.29912" lon="4.4411">
        <ele>1173.8</ele>
        <time>2018-08-19T10:47:39.000Z</time>
      </trkpt>
      <trkpt lat="45.29913" lon="4.44109">
        <ele>1173.9</ele>
        <time>2018-08-19T10:47:40.000Z</time>
      </trkpt>
      <trkpt lat="45.29914" lon="4.44108">
        <ele>1174.1</ele>
        <time>2018-08-19T10:47:41.000Z</time>
      </trkpt>
      <trkpt lat="45.29915" lon="4.44108">
        <ele>1174.2</ele>
        <time>2018-08-19T10:47:42.000Z</time>
      </trkpt>
      <trkpt lat="45.29916" lon="4.44107">
        <ele>1174.4</ele>
        <time>2018-08-19T10:47:43.000Z</time>
      </trkpt>
      <trkpt lat="45.29918" lon="4.44107">
        <ele>1174.5</ele>
        <time>2018-08-19T10:47:44.000Z</time>
      </trkpt>
      <trkpt lat="45.29919" lon="4.44107">
        <ele>1174.6</ele>
        <time>2018-08-19T10:47:45.000Z</time>
      </trkpt>
      <trkpt lat="45.2992" lon="4.44107">
        <ele>1174.7</ele>
        <time>2018-08-19T10:47:46.000Z</time>
      </trkpt>
      <trkpt lat="45.29921" lon="4.44107">
        <ele>1174.9</ele>
        <time>2018-08-19T10:47:47.000Z</time>
      </trkpt>
      <trkpt lat="45.29922" lon="4.44107">
        <ele>1175</ele>
        <time>2018-08-19T10:47:48.000Z</time>
      </trkpt>
      <trkpt lat="45.29923" lon="4.44107">
        <ele>1175.1</ele>
        <time>2018-08-19T10:47:49.000Z</time>
      </trkpt>
      <trkpt lat="45.29924" lon="4.44107">
        <ele>1175.3</ele>
        <time>2018-08-19T10:47:50.000Z</time>
      </trkpt>
      <trkpt lat="45.29926" lon="4.44107">
        <ele>1175.4</ele>
        <time>2018-08-19T10:47:51.000Z</time>
      </trkpt>
      <trkpt lat="45.29927" lon="4.44107">
        <ele>1175.6</ele>
        <time>2018-08-19T10:47:52.000Z</time>
      </trkpt>
      <trkpt lat="45.29928" lon="4.44108">
        <ele>1175.7</ele>
        <time>2018-08-19T10:47:53.000Z</time>
      </trkpt>
      <trkpt lat="45.29929" lon="4.44108">
        <ele>1175.9</ele>
        <time>2018-08-19T10:47:54.000Z</time>
      </trkpt>
      <trkpt lat="45.29931" lon="4.44109">
        <ele>1176</ele>
        <time>2018-08-19T10:47:55.000Z</time>
      </trkpt>
      <trkpt lat="45.29932" lon="4.44109">
        <ele>1176.2</ele>
        <time>2018-08-19T10:47:56.000Z</time>
      </trkpt>
      <trkpt lat="45.29933" lon="4.44109">
        <ele>1176.4</ele>
        <time>2018-08-19T10:47:57.000Z</time>
      </trkpt>
      <trkpt lat="45.29934" lon="4.4411">
        <ele>1176.5</ele>
        <time>2018-08-19T10:47:58.000Z</time>
      </trkpt>
      <trkpt lat="45.29936" lon="4.4411">
        <ele>1176.7</ele>
        <time>2018-08-19T10:47:59.000Z</time>
      </trkpt>
      <trkpt lat="45.29937" lon="4.44111">
        <ele>1176.9</ele>
        <time>2018-08-19T10:48:00.000Z</time>
      </trkpt>
      <trkpt lat="45.29938" lon="4.44111">
        <ele>1177.1</ele>
        <time>2018-08-19T10:48:01.000Z</time>
      </trkpt>
      <trkpt lat="45.29939" lon="4.44111">
        <ele>1177.2</ele>
        <time>2018-08-19T10:48:02.000Z</time>
      </trkpt>
      <trkpt lat="45.29941" lon="4.44112">
        <ele>1177.4</ele>
        <time>2018-08-19T10:48:03.000Z</time>
      </trkpt>
      <trkpt lat="45.29942" lon="4.44112">
        <ele>1177.6</ele>
        <time>2018-08-19T10:48:04.000Z</time>
      </trkpt>
      <trkpt lat="45.29943" lon="4.44112">
        <ele>1177.7</ele>
        <time>2018-08-19T10:48:05.000Z</time>
      </trkpt>
      <trkpt lat="45.29945" lon="4.44112">
        <ele>1177.9</ele>
        <time>2018-08-19T10:48:06.000Z</time>
      </trkpt>
      <trkpt lat="45.29946" lon="4.44112">
        <ele>1178</ele>
        <time>2018-08-19T10:48:07.000Z</time>
      </trkpt>
      <trkpt lat="45.29947" lon="4.44112">
        <ele>1178.1</ele>
        <time>2018-08-19T10:48:08.000Z</time>
      </trkpt>
      <trkpt lat="45.29948" lon="4.44112">
        <ele>1178.3</ele>
        <time>2018-08-19T10:48:09.000Z</time>
      </trkpt>
      <trkpt lat="45.2995" lon="4.44112">
        <ele>1178.4</ele>
        <time>2018-08-19T10:48:10.000Z</time>
      </trkpt>
      <trkpt lat="45.29951" lon="4.44111">
        <ele>1178.5</ele>
        <time>2018-08-19T10:48:11.000Z</time>
      </trkpt>
      <trkpt lat="45.29952" lon="4.44111">
        <ele>1178.7</ele>
        <time>2018-08-19T10:48:12.000Z</time>
      </trkpt>
      <trkpt lat="45.29954" lon="4.44111">
        <ele>1178.8</ele>
        <time>2018-08-19T10:48:13.000Z</time>
      </trkpt>
      <trkpt lat="45.29955" lon="4.4411">
        <ele>1178.9</ele>
        <time>2018-08-19T10:48:14.000Z</time>
      </trkpt>
      <trkpt lat="45.29956" lon="4.4411">
        <ele>1179</ele>
        <time>2018-08-19T10:48:15.000Z</time>
      </trkpt>
      <trkpt lat="45.29957" lon="4.44109">
        <ele>1179.1</ele>
        <time>2018-08-19T10:48:16.000Z</time>
      </trkpt>
      <trkpt lat="45.29959" lon="4.44109">
        <ele>1179.2</ele>
        <time>2018-08-19T10:48:17.000Z</time>
      </trkpt>
      <trkpt lat="45.2996" lon="4.44108">
        <ele>1179.2</ele>
        <time>2018-08-19T10:48:18.000Z</time>
      </trkpt>
      <trkpt lat="45.29961" lon="4.44108">
        <ele>1179.3</ele>
        <time>2018-08-19T10:48:19.000Z</time>
      </trkpt>
      <trkpt lat="45.29962" lon="4.44107">
        <ele>1179.4</ele>
        <time>2018-08-19T10:48:20.000Z</time>
      </trkpt>
      <trkpt lat="45.29963" lon="4.44106">
        <ele>1179.5</ele>
        <time>2018-08-19T10:48:21.000Z</time>
      </trkpt>
      <trkpt lat="45.29965" lon="4.44105">
        <ele>1179.5</ele>
        <time>2018-08-19T10:48:22.000Z</time>
      </trkpt>
      <trkpt lat="45.29966" lon="4.44105">
        <ele>1179.6</ele>
        <time>2018-08-19T10:48:23.000Z</time>
      </trkpt>
      <trkpt lat="45.29967" lon="4.44104">
        <ele>1179.7</ele>
        <time>2018-08-19T10:48:24.000Z</time>
      </trkpt>
      <trkpt lat="45.29968" lon="4.44103">
        <ele>1179.7</ele>
        <time>2018-08-19T10:48:25.000Z</time>
      </trkpt>
      <trkpt lat="45.29969" lon="4.44103">
        <ele>1179.8</ele>
        <time>2018-08-19T10:48:26.000Z</time>
      </trkpt>
      <trkpt lat="45.2997" lon="4.44102">
        <ele>1179.8</ele>
        <time>2018-08-19T10:48:27.000Z</time>
      </trkpt>
      <trkpt lat="45.29972" lon="4.44101">
        <ele>1179.9</ele>
        <time>2018-08-19T10:48:28.000Z</time>
      </trkpt>
      <trkpt lat="45.29973" lon="4.441">
        <ele>1179.9</ele>
        <time>2018-08-19T10:48:29.000Z</time>
      </trkpt>
      <trkpt lat="45.29974" lon="4.441">
        <ele>1180</ele>
        <time>2018-08-19T10:48:30.000Z</time>
      </trkpt>
      <trkpt lat="45.29975" lon="4.44099">
        <ele>1180</ele>
        <time>2018-08-19T10:48:31.000Z</time>
      </trkpt>
      <trkpt lat="45.29976" lon="4.44098">
        <ele>1180.1</ele>
        <time>2018-08-19T10:48:32.000Z</time>
      </trkpt>
      <trkpt lat="45.29977" lon="4.44098">
        <ele>1180.2</ele>
        <time>2018-08-19T10:48:33.000Z</time>
      </trkpt>
      <trkpt lat="45.29978" lon="4.44097">
        <ele>1180.2</ele>
        <time>2018-08-19T10:48:34.000Z</time>
      </trkpt>
      <trkpt lat="45.2998" lon="4.44096">
        <ele>1180.3</ele>
        <time>2018-08-19T10:48:35.000Z</time>
      </trkpt>
      <trkpt lat="45.29981" lon="4.44096">
        <ele>1180.4</ele>
        <time>2018-08-19T10:48:36.000Z</time>
      </trkpt>
      <trkpt lat="45.29982" lon="4.44095">
        <ele>1180.4</ele>
        <time>2018-08-19T10:48:37.000Z</time>
      </trkpt>
      <trkpt lat="45.29983" lon="4.44095">
        <ele>1180.5</ele>
        <time>2018-08-19T10:48:38.000Z</time>
      </trkpt>
      <trkpt lat="45.29984" lon="4.44094">
        <ele>1180.6</ele>
        <time>2018-08-19T10:48:39.000Z</time>
      </trkpt>
      <trkpt lat="45.29985" lon="4.44094">
        <ele>1180.7</ele>
        <time>2018-08-19T10:48:40.000Z</time>
      </trkpt>
      <trkpt lat="45.29987" lon="4.44094">
        <ele>1180.8</ele>
        <time>2018-08-19T10:48:41.000Z</time>
      </trkpt>
      <trkpt lat="45.29988" lon="4.44094">
        <ele>1180.9</ele>
        <time>2018-08-19T10:48:42.000Z</time>
      </trkpt>
      <trkpt lat="45.29989" lon="4.44094">
        <ele>1181</ele>
        <time>2018-08-19T10:48:43.000Z</time>
      </trkpt>
      <trkpt lat="45.2999" lon="4.44094">
        <ele>1181.1</ele>
        <time>2018-08-19T10:48:44.000Z</time>
      </trkpt>
      <trkpt lat="45.29991" lon="4.44094">
        <ele>1181.2</ele>
        <time>2018-08-19T10:48:45.000Z</time>
      </trkpt>
      <trkpt lat="45.29992" lon="4.44094">
        <ele>1181.4</ele>
        <time>2018-08-19T10:48:46.000Z</time>
      </trkpt>
      <trkpt lat="45.29994" lon="4.44094">
        <ele>1181.5</ele>
        <time>2018-08-19T10:48:47.000Z</time>
      </trkpt>
      <trkpt lat="45.29995" lon="4.44095">
        <ele>1181.7</ele>
        <time>2018-08-19T10:48:48.000Z</time>
      </trkpt>
      <trkpt lat="45.29996" lon="4.44095">
        <ele>1181.8</ele>
        <time>2018-08-19T10:48:49.000Z</time>
      </trkpt>
      <trkpt lat="45.29997" lon="4.44096">
        <ele>1182</ele>
        <time>2018-08-19T10:48:50.000Z</time>
      </trkpt>
      <trkpt lat="45.29998" lon="4.44096">
        <ele>1182.2</ele>
        <time>2018-08-19T10:48:51.000Z</time>
      </trkpt>
      <trkpt lat="45.29999" lon="4.44097">
        <ele>1182.3</ele>
        <time>2018-08-19T10:48:52.000Z</time>
      </trkpt>
      <trkpt lat="45.3" lon="4.44098">
        <ele>1182.5</ele>
        <time>2018-08-19T10:48:53.000Z</time>
      </trkpt>
      <trkpt lat="45.30001" lon="4.44099">
        <ele>1182.8</ele>
        <time>2018-08-19T10:48:54.000Z</time>
      </trkpt>
      <trkpt lat="45.30002" lon="4.441">
        <ele>1183</ele>
        <time>2018-08-19T10:48:55.000Z</time>
      </trkpt>
      <trkpt lat="45.30003" lon="4.44101">
        <ele>1183.3</ele>
        <time>2018-08-19T10:48:56.000Z</time>
      </trkpt>
      <trkpt lat="45.30004" lon="4.44102">
        <ele>1183.5</ele>
        <time>2018-08-19T10:48:57.000Z</time>
      </trkpt>
      <trkpt lat="45.30004" lon="4.44103">
        <ele>1183.8</ele>
        <time>2018-08-19T10:48:58.000Z</time>
      </trkpt>
      <trkpt lat="45.30005" lon="4.44104">
        <ele>1184</ele>
        <time>2018-08-19T10:48:59.000Z</time>
      </trkpt>
      <trkpt lat="45.30006" lon="4.44105">
        <ele>1184.3</ele>
        <time>2018-08-19T10:49:00.000Z</time>
      </trkpt>
      <trkpt lat="45.30007" lon="4.44106">
        <ele>1184.5</ele>
        <time>2018-08-19T10:49:01.000Z</time>
      </trkpt>
      <trkpt lat="45.30008" lon="4.44107">
        <ele>1184.8</ele>
        <time>2018-08-19T10:49:02.000Z</time>
      </trkpt>
      <trkpt lat="45.30008" lon="4.44108">
        <ele>1185</ele>
        <time>2018-08-19T10:49:03.000Z</time>
      </trkpt>
      <trkpt lat="45.30009" lon="4.4411">
        <ele>1185.2</ele>
        <time>2018-08-19T10:49:04.000Z</time>
      </trkpt>
      <trkpt lat="45.3001" lon="4.44111">
        <ele>1185.5</ele>
        <time>2018-08-19T10:49:05.000Z</time>
      </trkpt>
      <trkpt lat="45.30011" lon="4.44112">
        <ele>1185.7</ele>
        <time>2018-08-19T10:49:06.000Z</time>
      </trkpt>
      <trkpt lat="45.30012" lon="4.44113">
        <ele>1186</ele>
        <time>2018-08-19T10:49:07.000Z</time>
      </trkpt>
      <trkpt lat="45.30012" lon="4.44115">
        <ele>1186.2</ele>
        <time>2018-08-19T10:49:08.000Z</time>
      </trkpt>
      <trkpt lat="45.30013" lon="4.44116">
        <ele>1186.5</ele>
        <time>2018-08-19T10:49:09.000Z</time>
      </trkpt>
      <trkpt lat="45.30014" lon="4.44117">
        <ele>1186.8</ele>
        <time>2018-08-19T10:49:10.000Z</time>
      </trkpt>
      <trkpt lat="45.30015" lon="4.44118">
        <ele>1187</ele>
        <time>2018-08-19T10:49:11.000Z</time>
      </trkpt>
      <trkpt lat="45.30016" lon="4.4412">
        <ele>1187.3</ele>
        <time>2018-08-19T10:49:12.000Z</time>
      </trkpt>
      <trkpt lat="45.30017" lon="4.44121">
        <ele>1187.6</ele>
        <time>2018-08-19T10:49:13.000Z</time>
      </trkpt>
      <trkpt lat="45.30017" lon="4.44122">
        <ele>1187.8</ele>
        <time>2018-08-19T10:49:14.000Z</time>
      </trkpt>
      <trkpt lat="45.30018" lon="4.44124">
        <ele>1188.1</ele>
        <time>2018-08-19T10:49:15.000Z</time>
      </trkpt>
      <trkpt lat="45.30019" lon="4.44125">
        <ele>1188.3</ele>
        <time>2018-08-19T10:49:16.000Z</time>
      </trkpt>
      <trkpt lat="45.3002" lon="4.44126">
        <ele>1188.6</ele>
        <time>2018-08-19T10:49:17.000Z</time>
      </trkpt>
      <trkpt lat="45.3002" lon="4.44127">
        <ele>1188.8</ele>
        <time>2018-08-19T10:49:18.000Z</time>
      </trkpt>
      <trkpt lat="45.30021" lon="4.44129">
        <ele>1189</ele>
        <time>2018-08-19T10:49:19.000Z</time>
      </trkpt>
      <trkpt lat="45.30022" lon="4.4413">
        <ele>1189.3</ele>
        <time>2018-08-19T10:49:20.000Z</time>
      </trkpt>
      <trkpt lat="45.30023" lon="4.44131">
        <ele>1189.5</ele>
        <time>2018-08-19T10:49:21.000Z</time>
      </trkpt>
      <trkpt lat="45.30023" lon="4.44132">
        <ele>1189.7</ele>
        <time>2018-08-19T10:49:22.000Z</time>
      </trkpt>
      <trkpt lat="45.30024" lon="4.44133">
        <ele>1189.9</ele>
        <time>2018-08-19T10:49:23.000Z</time>
      </trkpt>
      <trkpt lat="45.30025" lon="4.44134">
        <ele>1190.2</ele>
        <time>2018-08-19T10:49:24.000Z</time>
      </trkpt>
      <trkpt lat="45.30026" lon="4.44135">
        <ele>1190.4</ele>
        <time>2018-08-19T10:49:25.000Z</time>
      </trkpt>
      <trkpt lat="45.30026" lon="4.44136">
        <ele>1190.6</ele>
        <time>2018-08-19T10:49:26.000Z</time>
      </trkpt>
      <trkpt lat="45.30027" lon="4.44137">
        <ele>1190.8</ele>
        <time>2018-08-19T10:49:27.000Z</time>
      </trkpt>
      <trkpt lat="45.30028" lon="4.44138">
        <ele>1191</ele>
        <time>2018-08-19T10:49:28.000Z</time>
      </trkpt>
      <trkpt lat="45.30029" lon="4.44138">
        <ele>1191.3</ele>
        <time>2018-08-19T10:49:29.000Z</time>
      </trkpt>
      <trkpt lat="45.3003" lon="4.44139">
        <ele>1191.5</ele>
        <time>2018-08-19T10:49:30.000Z</time>
      </trkpt>
      <trkpt lat="45.30031" lon="4.44139">
        <ele>1191.7</ele>
        <time>2018-08-19T10:49:31.000Z</time>
      </trkpt>
      <trkpt lat="45.30032" lon="4.4414">
        <ele>1191.9</ele>
        <time>2018-08-19T10:49:32.000Z</time>
      </trkpt>
      <trkpt lat="45.30033" lon="4.4414">
        <ele>1192</ele>
        <time>2018-08-19T10:49:33.000Z</time>
      </trkpt>
      <trkpt lat="45.30035" lon="4.4414">
        <ele>1192.2</ele>
        <time>2018-08-19T10:49:34.000Z</time>
      </trkpt>
      <trkpt lat="45.30036" lon="4.4414">
        <ele>1192.4</ele>
        <time>2018-08-19T10:49:35.000Z</time>
      </trkpt>
      <trkpt lat="45.30037" lon="4.4414">
        <ele>1192.6</ele>
        <time>2018-08-19T10:49:36.000Z</time>
      </trkpt>
      <trkpt lat="45.30038" lon="4.4414">
        <ele>1192.7</ele>
        <time>2018-08-19T10:49:37.000Z</time>
      </trkpt>
      <trkpt lat="45.30039" lon="4.4414">
        <ele>1192.9</ele>
        <time>2018-08-19T10:49:38.000Z</time>
      </trkpt>
      <trkpt lat="45.3004" lon="4.44139">
        <ele>1193</ele>
        <time>2018-08-19T10:49:39.000Z</time>
      </trkpt>
      <trkpt lat="45.30041" lon="4.44139">
        <ele>1193.1</ele>
        <time>2018-08-19T10:49:40.000Z</time>
      </trkpt>
      <trkpt lat="45.30043" lon="4.44138">
        <ele>1193.2</ele>
        <time>2018-08-19T10:49:41.000Z</time>
      </trkpt>
      <trkpt lat="45.30044" lon="4.44138">
        <ele>1193.3</ele>
        <time>2018-08-19T10:49:42.000Z</time>
      </trkpt>
      <trkpt lat="45.30045" lon="4.44137">
        <ele>1193.4</ele>
        <time>2018-08-19T10:49:43.000Z</time>
      </trkpt>
      <trkpt lat="45.30046" lon="4.44136">
        <ele>1193.5</ele>
        <time>2018-08-19T10:49:44.000Z</time>
      </trkpt>
      <trkpt lat="45.30047" lon="4.44135">
        <ele>1193.6</ele>
        <time>2018-08-19T10:49:45.000Z</time>
      </trkpt>
      <trkpt lat="45.30048" lon="4.44134">
        <ele>1193.6</ele>
        <time>2018-08-19T10:49:46.000Z</time>
      </trkpt>
      <trkpt lat="45.30049" lon="4.44133">
        <ele>1193.7</ele>
        <time>2018-08-19T10:49:47.000Z</time>
      </trkpt>
      <trkpt lat="45.3005" lon="4.44132">
        <ele>1193.8</ele>
        <time>2018-08-19T10:49:48.000Z</time>
      </trkpt>
      <trkpt lat="45.30051" lon="4.44131">
        <ele>1193.8</ele>
        <time>2018-08-19T10:49:49.000Z</time>
      </trkpt>
      <trkpt lat="45.30052" lon="4.4413">
        <ele>1193.9</ele>
        <time>2018-08-19T10:49:50.000Z</time>
      </trkpt>
      <trkpt lat="45.30053" lon="4.44129">
        <ele>1193.9</ele>
        <time>2018-08-19T10:49:51.000Z</time>
      </trkpt>
      <trkpt lat="45.30055" lon="4.44128">
        <ele>1194</ele>
        <time>2018-08-19T10:49:52.000Z</time>
      </trkpt>
      <trkpt lat="45.30056" lon="4.44127">
        <ele>1194</ele>
        <time>2018-08-19T10:49:53.000Z</time>
      </trkpt>
      <trkpt lat="45.30057" lon="4.44126">
        <ele>1194.1</ele>
        <time>2018-08-19T10:49:54.000Z</time>
      </trkpt>
      <trkpt lat="45.30058" lon="4.44125">
        <ele>1194.1</ele>
        <time>2018-08-19T10:49:55.000Z</time>
      </trkpt>
      <trkpt lat="45.30059" lon="4.44124">
        <ele>1194.2</ele>
        <time>2018-08-19T10:49:56.000Z</time>
      </trkpt>
      <trkpt lat="45.3006" lon="4.44123">
        <ele>1194.3</ele>
        <time>2018-08-19T10:49:57.000Z</time>
      </trkpt>
      <trkpt lat="45.30061" lon="4.44122">
        <ele>1194.3</ele>
        <time>2018-08-19T10:49:58.000Z</time>
      </trkpt>
      <trkpt lat="45.30062" lon="4.44121">
        <ele>1194.4</ele>
        <time>2018-08-19T10:49:59.000Z</time>
      </trkpt>
      <trkpt lat="45.30063" lon="4.4412">
        <ele>1194.4</ele>
        <time>2018-08-19T10:50:00.000Z</time>
      </trkpt>
      <trkpt lat="45.30064" lon="4.44119">
        <ele>1194.5</ele>
        <time>2018-08-19T10:50:01.000Z</time>
      </trkpt>
      <trkpt lat="45.30065" lon="4.44118">
        <ele>1194.5</ele>
        <time>2018-08-19T10:50:02.000Z</time>
      </trkpt>
      <trkpt lat="45.30066" lon="4.44117">
        <ele>1194.6</ele>
        <time>2018-08-19T10:50:03.000Z</time>
      </trkpt>
      <trkpt lat="45.30067" lon="4.44116">
        <ele>1194.6</ele>
        <time>2018-08-19T10:50:04.000Z</time>
      </trkpt>
      <trkpt lat="45.30068" lon="4.44115">
        <ele>1194.7</ele>
        <time>2018-08-19T10:50:05.000Z</time>
      </trkpt>
      <trkpt lat="45.30069" lon="4.44114">
        <ele>1194.7</ele>
        <time>2018-08-19T10:50:06.000Z</time>
      </trkpt>
      <trkpt lat="45.3007" lon="4.44113">
        <ele>1194.8</ele>
        <time>2018-08-19T10:50:07.000Z</time>
      </trkpt>
      <trkpt lat="45.30071" lon="4.44112">
        <ele>1194.8</ele>
        <time>2018-08-19T10:50:08.000Z</time>
      </trkpt>
      <trkpt lat="45.30072" lon="4.4411">
        <ele>1194.9</ele>
        <time>2018-08-19T10:50:09.000Z</time>
      </trkpt>
      <trkpt lat="45.30073" lon="4.44109">
        <ele>1194.9</ele>
        <time>2018-08-19T10:50:10.000Z</time>
      </trkpt>
      <trkpt lat="45.30074" lon="4.44108">
        <ele>1194.9</ele>
        <time>2018-08-19T10:50:11.000Z</time>
      </trkpt>
      <trkpt lat="45.30075" lon="4.44107">
        <ele>1195</ele>
        <time>2018-08-19T10:50:12.000Z</time>
      </trkpt>
      <trkpt lat="45.30076" lon="4.44106">
        <ele>1195</ele>
        <time>2018-08-19T10:50:13.000Z</time>
      </trkpt>
      <trkpt lat="45.30077" lon="4.44105">
        <ele>1195.1</ele>
        <time>2018-08-19T10:50:14.000Z</time>
      </trkpt>
      <trkpt lat="45.30078" lon="4.44104">
        <ele>1195.1</ele>
        <time>2018-08-19T10:50:15.000Z</time>
      </trkpt>
      <trkpt lat="45.30079" lon="4.44102">
        <ele>1195.2</ele>
        <time>2018-08-19T10:50:16.000Z</time>
      </trkpt>
      <trkpt lat="45.3008" lon="4.44101">
        <ele>1195.2</ele>
        <time>2018-08-19T10:50:17.000Z</time>
      </trkpt>
      <trkpt lat="45.30081" lon="4.441">
        <ele>1195.3</ele>
        <time>2018-08-19T10:50:18.000Z</time>
      </trkpt>
      <trkpt lat="45.30082" lon="4.44099">
        <ele>1195.3</ele>
        <time>2018-08-19T10:50:19.000Z</time>
      </trkpt>
      <trkpt lat="45.30083" lon="4.44098">
        <ele>1195.4</ele>
        <time>2018-08-19T10:50:20.000Z</time>
      </trkpt>
      <trkpt lat="45.30085" lon="4.44097">
        <ele>1195.3</ele>
        <time>2018-08-19T10:50:21.000Z</time>
      </trkpt>
      <trkpt lat="45.30086" lon="4.44096">
        <ele>1195.3</ele>
        <time>2018-08-19T10:50:22.000Z</time>
      </trkpt>
      <trkpt lat="45.30087" lon="4.44095">
        <ele>1195.3</ele>
        <time>2018-08-19T10:50:23.000Z</time>
      </trkpt>
      <trkpt lat="45.30088" lon="4.44094">
        <ele>1195.2</ele>
        <time>2018-08-19T10:50:24.000Z</time>
      </trkpt>
      <trkpt lat="45.30089" lon="4.44093">
        <ele>1195.2</ele>
        <time>2018-08-19T10:50:25.000Z</time>
      </trkpt>
      <trkpt lat="45.3009" lon="4.44092">
        <ele>1195.2</ele>
        <time>2018-08-19T10:50:26.000Z</time>
      </trkpt>
      <trkpt lat="45.30091" lon="4.44091">
        <ele>1195.1</ele>
        <time>2018-08-19T10:50:27.000Z</time>
      </trkpt>
      <trkpt lat="45.30093" lon="4.4409">
        <ele>1195.1</ele>
        <time>2018-08-19T10:50:28.000Z</time>
      </trkpt>
      <trkpt lat="45.30094" lon="4.44089">
        <ele>1195.1</ele>
        <time>2018-08-19T10:50:29.000Z</time>
      </trkpt>
      <trkpt lat="45.30095" lon="4.44089">
        <ele>1195.1</ele>
        <time>2018-08-19T10:50:30.000Z</time>
      </trkpt>
      <trkpt lat="45.30096" lon="4.44088">
        <ele>1195</ele>
        <time>2018-08-19T10:50:31.000Z</time>
      </trkpt>
      <trkpt lat="45.30098" lon="4.44087">
        <ele>1195</ele>
        <time>2018-08-19T10:50:32.000Z</time>
      </trkpt>
      <trkpt lat="45.30099" lon="4.44086">
        <ele>1195</ele>
        <time>2018-08-19T10:50:33.000Z</time>
      </trkpt>
      <trkpt lat="45.301" lon="4.44085">
        <ele>1195</ele>
        <time>2018-08-19T10:50:34.000Z</time>
      </trkpt>
      <trkpt lat="45.30102" lon="4.44084">
        <ele>1195</ele>
        <time>2018-08-19T10:50:35.000Z</time>
      </trkpt>
      <trkpt lat="45.30103" lon="4.44083">
        <ele>1194.9</ele>
        <time>2018-08-19T10:50:36.000Z</time>
      </trkpt>
      <trkpt lat="45.30104" lon="4.44083">
        <ele>1194.9</ele>
        <time>2018-08-19T10:50:37.000Z</time>
      </trkpt>
      <trkpt lat="45.30105" lon="4.44082">
        <ele>1194.9</ele>
        <time>2018-08-19T10:50:38.000Z</time>
      </trkpt>
      <trkpt lat="45.30107" lon="4.44081">
        <ele>1194.9</ele>
        <time>2018-08-19T10:50:39.000Z</time>
      </trkpt>
      <trkpt lat="45.30108" lon="4.4408">
        <ele>1194.9</ele>
        <time>2018-08-19T10:50:40.000Z</time>
      </trkpt>
      <trkpt lat="45.30109" lon="4.44079">
        <ele>1194.8</ele>
        <time>2018-08-19T10:50:41.000Z</time>
      </trkpt>
      <trkpt lat="45.30111" lon="4.44078">
        <ele>1194.8</ele>
        <time>2018-08-19T10:50:42.000Z</time>
      </trkpt>
      <trkpt lat="45.30112" lon="4.44078">
        <ele>1194.8</ele>
        <time>2018-08-19T10:50:43.000Z</time>
      </trkpt>
      <trkpt lat="45.30113" lon="4.44077">
        <ele>1194.8</ele>
        <time>2018-08-19T10:50:44.000Z</time>
      </trkpt>
      <trkpt lat="45.30115" lon="4.44077">
        <ele>1194.8</ele>
        <time>2018-08-19T10:50:45.000Z</time>
      </trkpt>
      <trkpt lat="45.30116" lon="4.44076">
        <ele>1194.9</ele>
        <time>2018-08-19T10:50:46.000Z</time>
      </trkpt>
      <trkpt lat="45.30118" lon="4.44076">
        <ele>1194.9</ele>
        <time>2018-08-19T10:50:47.000Z</time>
      </trkpt>
      <trkpt lat="45.30119" lon="4.44075">
        <ele>1194.9</ele>
        <time>2018-08-19T10:50:48.000Z</time>
      </trkpt>
      <trkpt lat="45.3012" lon="4.44075">
        <ele>1195</ele>
        <time>2018-08-19T10:50:49.000Z</time>
      </trkpt>
      <trkpt lat="45.30122" lon="4.44075">
        <ele>1195.1</ele>
        <time>2018-08-19T10:50:50.000Z</time>
      </trkpt>
      <trkpt lat="45.30123" lon="4.44076">
        <ele>1195.2</ele>
        <time>2018-08-19T10:50:51.000Z</time>
      </trkpt>
      <trkpt lat="45.30125" lon="4.44076">
        <ele>1195.3</ele>
        <time>2018-08-19T10:50:52.000Z</time>
      </trkpt>
      <trkpt lat="45.30126" lon="4.44077">
        <ele>1195.4</ele>
        <time>2018-08-19T10:50:53.000Z</time>
      </trkpt>
      <trkpt lat="45.30127" lon="4.44078">
        <ele>1195.5</ele>
        <time>2018-08-19T10:50:54.000Z</time>
      </trkpt>
      <trkpt lat="45.30128" lon="4.44078">
        <ele>1195.7</ele>
        <time>2018-08-19T10:50:55.000Z</time>
      </trkpt>
      <trkpt lat="45.30129" lon="4.44079">
        <ele>1195.8</ele>
        <time>2018-08-19T10:50:56.000Z</time>
      </trkpt>
      <trkpt lat="45.3013" lon="4.4408">
        <ele>1196</ele>
        <time>2018-08-19T10:50:57.000Z</time>
      </trkpt>
      <trkpt lat="45.30131" lon="4.44081">
        <ele>1196.1</ele>
        <time>2018-08-19T10:50:58.000Z</time>
      </trkpt>
      <trkpt lat="45.30132" lon="4.44083">
        <ele>1196.3</ele>
        <time>2018-08-19T10:50:59.000Z</time>
      </trkpt>
      <trkpt lat="45.30133" lon="4.44084">
        <ele>1196.4</ele>
        <time>2018-08-19T10:51:00.000Z</time>
      </trkpt>
      <trkpt lat="45.30134" lon="4.44085">
        <ele>1196.6</ele>
        <time>2018-08-19T10:51:01.000Z</time>
      </trkpt>
      <trkpt lat="45.30135" lon="4.44086">
        <ele>1196.7</ele>
        <time>2018-08-19T10:51:02.000Z</time>
      </trkpt>
      <trkpt lat="45.30136" lon="4.44087">
        <ele>1196.9</ele>
        <time>2018-08-19T10:51:03.000Z</time>
      </trkpt>
      <trkpt lat="45.30137" lon="4.44088">
        <ele>1197.1</ele>
        <time>2018-08-19T10:51:04.000Z</time>
      </trkpt>
      <trkpt lat="45.30138" lon="4.4409">
        <ele>1197.3</ele>
        <time>2018-08-19T10:51:05.000Z</time>
      </trkpt>
      <trkpt lat="45.30139" lon="4.44091">
        <ele>1197.4</ele>
        <time>2018-08-19T10:51:06.000Z</time>
      </trkpt>
      <trkpt lat="45.3014" lon="4.44092">
        <ele>1197.6</ele>
        <time>2018-08-19T10:51:07.000Z</time>
      </trkpt>
      <trkpt lat="45.30141" lon="4.44094">
        <ele>1197.8</ele>
        <time>2018-08-19T10:51:08.000Z</time>
      </trkpt>
      <trkpt lat="45.30142" lon="4.44095">
        <ele>1197.9</ele>
        <time>2018-08-19T10:51:09.000Z</time>
      </trkpt>
      <trkpt lat="45.30143" lon="4.44096">
        <ele>1198.1</ele>
        <time>2018-08-19T10:51:10.000Z</time>
      </trkpt>
      <trkpt lat="45.30144" lon="4.44097">
        <ele>1198.3</ele>
        <time>2018-08-19T10:51:11.000Z</time>
      </trkpt>
      <trkpt lat="45.30145" lon="4.44098">
        <ele>1198.4</ele>
        <time>2018-08-19T10:51:12.000Z</time>
      </trkpt>
      <trkpt lat="45.30146" lon="4.44099">
        <ele>1198.6</ele>
        <time>2018-08-19T10:51:13.000Z</time>
      </trkpt>
      <trkpt lat="45.30147" lon="4.441">
        <ele>1198.7</ele>
        <time>2018-08-19T10:51:14.000Z</time>
      </trkpt>
      <trkpt lat="45.30148" lon="4.44101">
        <ele>1198.8</ele>
        <time>2018-08-19T10:51:15.000Z</time>
      </trkpt>
      <trkpt lat="45.3015" lon="4.44102">
        <ele>1199</ele>
        <time>2018-08-19T10:51:16.000Z</time>
      </trkpt>
      <trkpt lat="45.30151" lon="4.44103">
        <ele>1199.1</ele>
        <time>2018-08-19T10:51:17.000Z</time>
      </trkpt>
      <trkpt lat="45.30152" lon="4.44104">
        <ele>1199.3</ele>
        <time>2018-08-19T10:51:18.000Z</time>
      </trkpt>
      <trkpt lat="45.30153" lon="4.44105">
        <ele>1199.4</ele>
        <time>2018-08-19T10:51:19.000Z</time>
      </trkpt>
      <trkpt lat="45.30154" lon="4.44106">
        <ele>1199.5</ele>
        <time>2018-08-19T10:51:20.000Z</time>
      </trkpt>
      <trkpt lat="45.30155" lon="4.44107">
        <ele>1199.7</ele>
        <time>2018-08-19T10:51:21.000Z</time>
      </trkpt>
      <trkpt lat="45.30156" lon="4.44107">
        <ele>1199.8</ele>
        <time>2018-08-19T10:51:22.000Z</time>
      </trkpt>
      <trkpt lat="45.30157" lon="4.44108">
        <ele>1199.9</ele>
        <time>2018-08-19T10:51:23.000Z</time>
      </trkpt>
      <trkpt lat="45.30158" lon="4.44109">
        <ele>1200.1</ele>
        <time>2018-08-19T10:51:24.000Z</time>
      </trkpt>
      <trkpt lat="45.3016" lon="4.4411">
        <ele>1200.2</ele>
        <time>2018-08-19T10:51:25.000Z</time>
      </trkpt>
      <trkpt lat="45.30161" lon="4.44111">
        <ele>1200.4</ele>
        <time>2018-08-19T10:51:26.000Z</time>
      </trkpt>
      <trkpt lat="45.30162" lon="4.44112">
        <ele>1200.5</ele>
        <time>2018-08-19T10:51:27.000Z</time>
      </trkpt>
      <trkpt lat="45.30163" lon="4.44113">
        <ele>1200.7</ele>
        <time>2018-08-19T10:51:28.000Z</time>
      </trkpt>
      <trkpt lat="45.30164" lon="4.44114">
        <ele>1200.8</ele>
        <time>2018-08-19T10:51:29.000Z</time>
      </trkpt>
      <trkpt lat="45.30165" lon="4.44115">
        <ele>1201</ele>
        <time>2018-08-19T10:51:30.000Z</time>
      </trkpt>
      <trkpt lat="45.30166" lon="4.44116">
        <ele>1201.1</ele>
        <time>2018-08-19T10:51:31.000Z</time>
      </trkpt>
      <trkpt lat="45.30167" lon="4.44117">
        <ele>1201.2</ele>
        <time>2018-08-19T10:51:32.000Z</time>
      </trkpt>
      <trkpt lat="45.30169" lon="4.44118">
        <ele>1201.2</ele>
        <time>2018-08-19T10:51:33.000Z</time>
      </trkpt>
      <trkpt lat="45.3017" lon="4.44119">
        <ele>1201.3</ele>
        <time>2018-08-19T10:51:34.000Z</time>
      </trkpt>
      <trkpt lat="45.3017" lon="4.4412">
        <ele>1201.3</ele>
        <time>2018-08-19T10:51:35.000Z</time>
      </trkpt>
      <trkpt lat="45.30171" lon="4.44121">
        <ele>1201.4</ele>
        <time>2018-08-19T10:51:36.000Z</time>
      </trkpt>
      <trkpt lat="45.30172" lon="4.44122">
        <ele>1201.4</ele>
        <time>2018-08-19T10:51:37.000Z</time>
      </trkpt>
      <trkpt lat="45.30173" lon="4.44122">
        <ele>1201.5</ele>
        <time>2018-08-19T10:51:38.000Z</time>
      </trkpt>
      <trkpt lat="45.30174" lon="4.44123">
        <ele>1201.5</ele>
        <time>2018-08-19T10:51:39.000Z</time>
      </trkpt>
      <trkpt lat="45.30174" lon="4.44123">
        <ele>1201.5</ele>
        <time>2018-08-19T10:51:40.000Z</time>
      </trkpt>
      <trkpt lat="45.30174" lon="4.44124">
        <ele>1201.6</ele>
        <time>2018-08-19T10:51:41.000Z</time>
      </trkpt>
      <trkpt lat="45.30174" lon="4.44124">
        <ele>1201.6</ele>
        <time>2018-08-19T10:51:42.000Z</time>
      </trkpt>
      <trkpt lat="45.30174" lon="4.44124">
        <ele>1201.6</ele>
        <time>2018-08-19T10:51:43.000Z</time>
      </trkpt>
      <trkpt lat="45.30174" lon="4.44123">
        <ele>1201.5</ele>
        <time>2018-08-19T10:51:44.000Z</time>
      </trkpt>
      <trkpt lat="45.30174" lon="4.44123">
        <ele>1201.5</ele>
        <time>2018-08-19T10:51:45.000Z</time>
      </trkpt>
      <trkpt lat="45.30174" lon="4.44123">
        <ele>1201.5</ele>
        <time>2018-08-19T10:51:46.000Z</time>
      </trkpt>
      <trkpt lat="45.30174" lon="4.44123">
        <ele>1201.5</ele>
        <time>2018-08-19T10:51:47.000Z</time>
      </trkpt>
      <trkpt lat="45.30174" lon="4.44123">
        <ele>1201.5</ele>
        <time>2018-08-19T10:51:48.000Z</time>
      </trkpt>
      <trkpt lat="45.30174" lon="4.44123">
        <ele>1201.5</ele>
        <time>2018-08-19T10:51:49.000Z</time>
      </trkpt>
      <trkpt lat="45.30174" lon="4.44123">
        <ele>1201.5</ele>
        <time>2018-08-19T10:51:50.000Z</time>
      </trkpt>
      <trkpt lat="45.30174" lon="4.44124">
        <ele>1201.6</ele>
        <time>2018-08-19T10:51:51.000Z</time>
      </trkpt>
      <trkpt lat="45.30175" lon="4.44124">
        <ele>1201.6</ele>
        <time>2018-08-19T10:51:52.000Z</time>
      </trkpt>
      <trkpt lat="45.30175" lon="4.44125">
        <ele>1201.7</ele>
        <time>2018-08-19T10:51:53.000Z</time>
      </trkpt>
      <trkpt lat="45.30176" lon="4.44126">
        <ele>1201.7</ele>
        <time>2018-08-19T10:51:54.000Z</time>
      </trkpt>
      <trkpt lat="45.30177" lon="4.44127">
        <ele>1201.8</ele>
        <time>2018-08-19T10:51:55.000Z</time>
      </trkpt>
      <trkpt lat="45.30178" lon="4.44128">
        <ele>1201.8</ele>
        <time>2018-08-19T10:51:56.000Z</time>
      </trkpt>
      <trkpt lat="45.30179" lon="4.44129">
        <ele>1201.9</ele>
        <time>2018-08-19T10:51:57.000Z</time>
      </trkpt>
      <trkpt lat="45.30179" lon="4.4413">
        <ele>1202</ele>
        <time>2018-08-19T10:51:58.000Z</time>
      </trkpt>
      <trkpt lat="45.3018" lon="4.44131">
        <ele>1202.1</ele>
        <time>2018-08-19T10:51:59.000Z</time>
      </trkpt>
      <trkpt lat="45.30181" lon="4.44133">
        <ele>1202.1</ele>
        <time>2018-08-19T10:52:00.000Z</time>
      </trkpt>
      <trkpt lat="45.30182" lon="4.44134">
        <ele>1202.2</ele>
        <time>2018-08-19T10:52:01.000Z</time>
      </trkpt>
      <trkpt lat="45.30182" lon="4.44135">
        <ele>1202.3</ele>
        <time>2018-08-19T10:52:02.000Z</time>
      </trkpt>
      <trkpt lat="45.30183" lon="4.44136">
        <ele>1202.4</ele>
        <time>2018-08-19T10:52:03.000Z</time>
      </trkpt>
      <trkpt lat="45.30184" lon="4.44138">
        <ele>1202.5</ele>
        <time>2018-08-19T10:52:04.000Z</time>
      </trkpt>
      <trkpt lat="45.30185" lon="4.44139">
        <ele>1202.6</ele>
        <time>2018-08-19T10:52:05.000Z</time>
      </trkpt>
      <trkpt lat="45.30185" lon="4.4414">
        <ele>1202.7</ele>
        <time>2018-08-19T10:52:06.000Z</time>
      </trkpt>
      <trkpt lat="45.30186" lon="4.44141">
        <ele>1202.8</ele>
        <time>2018-08-19T10:52:07.000Z</time>
      </trkpt>
      <trkpt lat="45.30187" lon="4.44143">
        <ele>1202.9</ele>
        <time>2018-08-19T10:52:08.000Z</time>
      </trkpt>
      <trkpt lat="45.30188" lon="4.44144">
        <ele>1203</ele>
        <time>2018-08-19T10:52:09.000Z</time>
      </trkpt>
      <trkpt lat="45.30189" lon="4.44145">
        <ele>1203.1</ele>
        <time>2018-08-19T10:52:10.000Z</time>
      </trkpt>
      <trkpt lat="45.30189" lon="4.44147">
        <ele>1203.2</ele>
        <time>2018-08-19T10:52:11.000Z</time>
      </trkpt>
      <trkpt lat="45.3019" lon="4.44148">
        <ele>1203.3</ele>
        <time>2018-08-19T10:52:12.000Z</time>
      </trkpt>
      <trkpt lat="45.30191" lon="4.44149">
        <ele>1203.4</ele>
        <time>2018-08-19T10:52:13.000Z</time>
      </trkpt>
      <trkpt lat="45.30192" lon="4.44151">
        <ele>1203.5</ele>
        <time>2018-08-19T10:52:14.000Z</time>
      </trkpt>
      <trkpt lat="45.30192" lon="4.44152">
        <ele>1203.6</ele>
        <time>2018-08-19T10:52:15.000Z</time>
      </trkpt>
      <trkpt lat="45.30193" lon="4.44153">
        <ele>1203.7</ele>
        <time>2018-08-19T10:52:16.000Z</time>
      </trkpt>
      <trkpt lat="45.30194" lon="4.44155">
        <ele>1203.8</ele>
        <time>2018-08-19T10:52:17.000Z</time>
      </trkpt>
      <trkpt lat="45.30195" lon="4.44156">
        <ele>1203.9</ele>
        <time>2018-08-19T10:52:18.000Z</time>
      </trkpt>
      <trkpt lat="45.30196" lon="4.44157">
        <ele>1204</ele>
        <time>2018-08-19T10:52:19.000Z</time>
      </trkpt>
      <trkpt lat="45.30196" lon="4.44159">
        <ele>1204.1</ele>
        <time>2018-08-19T10:52:20.000Z</time>
      </trkpt>
      <trkpt lat="45.30197" lon="4.4416">
        <ele>1204.2</ele>
        <time>2018-08-19T10:52:21.000Z</time>
      </trkpt>
      <trkpt lat="45.30198" lon="4.44161">
        <ele>1204.3</ele>
        <time>2018-08-19T10:52:22.000Z</time>
      </trkpt>
      <trkpt lat="45.30199" lon="4.44163">
        <ele>1204.4</ele>
        <time>2018-08-19T10:52:23.000Z</time>
      </trkpt>
      <trkpt lat="45.302" lon="4.44164">
        <ele>1204.6</ele>
        <time>2018-08-19T10:52:24.000Z</time>
      </trkpt>
      <trkpt lat="45.302" lon="4.44165">
        <ele>1204.7</ele>
        <time>2018-08-19T10:52:25.000Z</time>
      </trkpt>
      <trkpt lat="45.30201" lon="4.44167">
        <ele>1204.8</ele>
        <time>2018-08-19T10:52:26.000Z</time>
      </trkpt>
      <trkpt lat="45.30202" lon="4.44168">
        <ele>1204.8</ele>
        <time>2018-08-19T10:52:27.000Z</time>
      </trkpt>
      <trkpt lat="45.30203" lon="4.44169">
        <ele>1204.9</ele>
        <time>2018-08-19T10:52:28.000Z</time>
      </trkpt>
      <trkpt lat="45.30204" lon="4.44171">
        <ele>1205</ele>
        <time>2018-08-19T10:52:29.000Z</time>
      </trkpt>
      <trkpt lat="45.30204" lon="4.44172">
        <ele>1205.1</ele>
        <time>2018-08-19T10:52:30.000Z</time>
      </trkpt>
      <trkpt lat="45.30205" lon="4.44173">
        <ele>1205.2</ele>
        <time>2018-08-19T10:52:31.000Z</time>
      </trkpt>
      <trkpt lat="45.30206" lon="4.44174">
        <ele>1205.2</ele>
        <time>2018-08-19T10:52:32.000Z</time>
      </trkpt>
      <trkpt lat="45.30207" lon="4.44176">
        <ele>1205.3</ele>
        <time>2018-08-19T10:52:33.000Z</time>
      </trkpt>
      <trkpt lat="45.30208" lon="4.44177">
        <ele>1205.4</ele>
        <time>2018-08-19T10:52:34.000Z</time>
      </trkpt>
      <trkpt lat="45.30208" lon="4.44178">
        <ele>1205.5</ele>
        <time>2018-08-19T10:52:35.000Z</time>
      </trkpt>
      <trkpt lat="45.30209" lon="4.4418">
        <ele>1205.6</ele>
        <time>2018-08-19T10:52:36.000Z</time>
      </trkpt>
      <trkpt lat="45.3021" lon="4.44181">
        <ele>1205.6</ele>
        <time>2018-08-19T10:52:37.000Z</time>
      </trkpt>
      <trkpt lat="45.30211" lon="4.44182">
        <ele>1205.7</ele>
        <time>2018-08-19T10:52:38.000Z</time>
      </trkpt>
      <trkpt lat="45.30212" lon="4.44184">
        <ele>1205.8</ele>
        <time>2018-08-19T10:52:39.000Z</time>
      </trkpt>
      <trkpt lat="45.30212" lon="4.44185">
        <ele>1205.9</ele>
        <time>2018-08-19T10:52:40.000Z</time>
      </trkpt>
      <trkpt lat="45.30213" lon="4.44187">
        <ele>1206</ele>
        <time>2018-08-19T10:52:41.000Z</time>
      </trkpt>
      <trkpt lat="45.30214" lon="4.44188">
        <ele>1206.1</ele>
        <time>2018-08-19T10:52:42.000Z</time>
      </trkpt>
      <trkpt lat="45.30215" lon="4.4419">
        <ele>1206.2</ele>
        <time>2018-08-19T10:52:43.000Z</time>
      </trkpt>
      <trkpt lat="45.30216" lon="4.44191">
        <ele>1206.2</ele>
        <time>2018-08-19T10:52:44.000Z</time>
      </trkpt>
      <trkpt lat="45.30216" lon="4.44193">
        <ele>1206.3</ele>
        <time>2018-08-19T10:52:45.000Z</time>
      </trkpt>
      <trkpt lat="45.30217" lon="4.44194">
        <ele>1206.4</ele>
        <time>2018-08-19T10:52:46.000Z</time>
      </trkpt>
      <trkpt lat="45.30218" lon="4.44196">
        <ele>1206.5</ele>
        <time>2018-08-19T10:52:47.000Z</time>
      </trkpt>
      <trkpt lat="45.30218" lon="4.44197">
        <ele>1206.6</ele>
        <time>2018-08-19T10:52:48.000Z</time>
      </trkpt>
      <trkpt lat="45.30219" lon="4.44197">
        <ele>1206.6</ele>
        <time>2018-08-19T10:52:49.000Z</time>
      </trkpt>
      <trkpt lat="45.30219" lon="4.44198">
        <ele>1206.6</ele>
        <time>2018-08-19T10:52:50.000Z</time>
      </trkpt>
      <trkpt lat="45.3022" lon="4.44199">
        <ele>1206.7</ele>
        <time>2018-08-19T10:52:51.000Z</time>
      </trkpt>
      <trkpt lat="45.3022" lon="4.44199">
        <ele>1206.7</ele>
        <time>2018-08-19T10:52:52.000Z</time>
      </trkpt>
      <trkpt lat="45.3022" lon="4.44199">
        <ele>1206.7</ele>
        <time>2018-08-19T10:52:53.000Z</time>
      </trkpt>
      <trkpt lat="45.30221" lon="4.44199">
        <ele>1206.7</ele>
        <time>2018-08-19T10:52:54.000Z</time>
      </trkpt>
      <trkpt lat="45.30221" lon="4.442">
        <ele>1206.7</ele>
        <time>2018-08-19T10:52:55.000Z</time>
      </trkpt>
      <trkpt lat="45.30221" lon="4.442">
        <ele>1206.7</ele>
        <time>2018-08-19T10:52:56.000Z</time>
      </trkpt>
      <trkpt lat="45.30222" lon="4.44201">
        <ele>1206.8</ele>
        <time>2018-08-19T10:52:57.000Z</time>
      </trkpt>
      <trkpt lat="45.30222" lon="4.44203">
        <ele>1206.9</ele>
        <time>2018-08-19T10:52:58.000Z</time>
      </trkpt>
      <trkpt lat="45.30223" lon="4.44204">
        <ele>1207</ele>
        <time>2018-08-19T10:52:59.000Z</time>
      </trkpt>
      <trkpt lat="45.30223" lon="4.44206">
        <ele>1207.1</ele>
        <time>2018-08-19T10:53:00.000Z</time>
      </trkpt>
      <trkpt lat="45.30224" lon="4.44207">
        <ele>1207.2</ele>
        <time>2018-08-19T10:53:01.000Z</time>
      </trkpt>
      <trkpt lat="45.30224" lon="4.44209">
        <ele>1207.3</ele>
        <time>2018-08-19T10:53:02.000Z</time>
      </trkpt>
      <trkpt lat="45.30225" lon="4.4421">
        <ele>1207.4</ele>
        <time>2018-08-19T10:53:03.000Z</time>
      </trkpt>
      <trkpt lat="45.30226" lon="4.44212">
        <ele>1207.5</ele>
        <time>2018-08-19T10:53:04.000Z</time>
      </trkpt>
      <trkpt lat="45.30226" lon="4.44213">
        <ele>1207.6</ele>
        <time>2018-08-19T10:53:05.000Z</time>
      </trkpt>
      <trkpt lat="45.30227" lon="4.44215">
        <ele>1207.6</ele>
        <time>2018-08-19T10:53:06.000Z</time>
      </trkpt>
      <trkpt lat="45.30227" lon="4.44216">
        <ele>1207.7</ele>
        <time>2018-08-19T10:53:07.000Z</time>
      </trkpt>
      <trkpt lat="45.30228" lon="4.44218">
        <ele>1207.8</ele>
        <time>2018-08-19T10:53:08.000Z</time>
      </trkpt>
      <trkpt lat="45.30228" lon="4.44219">
        <ele>1207.9</ele>
        <time>2018-08-19T10:53:09.000Z</time>
      </trkpt>
      <trkpt lat="45.30229" lon="4.44221">
        <ele>1208</ele>
        <time>2018-08-19T10:53:10.000Z</time>
      </trkpt>
      <trkpt lat="45.30229" lon="4.44222">
        <ele>1208.1</ele>
        <time>2018-08-19T10:53:11.000Z</time>
      </trkpt>
      <trkpt lat="45.3023" lon="4.44223">
        <ele>1208.1</ele>
        <time>2018-08-19T10:53:12.000Z</time>
      </trkpt>
      <trkpt lat="45.30231" lon="4.44225">
        <ele>1208.2</ele>
        <time>2018-08-19T10:53:13.000Z</time>
      </trkpt>
      <trkpt lat="45.30231" lon="4.44226">
        <ele>1208.3</ele>
        <time>2018-08-19T10:53:14.000Z</time>
      </trkpt>
      <trkpt lat="45.30232" lon="4.44228">
        <ele>1208.4</ele>
        <time>2018-08-19T10:53:15.000Z</time>
      </trkpt>
      <trkpt lat="45.30232" lon="4.44229">
        <ele>1208.5</ele>
        <time>2018-08-19T10:53:16.000Z</time>
      </trkpt>
      <trkpt lat="45.30233" lon="4.44231">
        <ele>1208.6</ele>
        <time>2018-08-19T10:53:17.000Z</time>
      </trkpt>
      <trkpt lat="45.30234" lon="4.44232">
        <ele>1208.6</ele>
        <time>2018-08-19T10:53:18.000Z</time>
      </trkpt>
      <trkpt lat="45.30234" lon="4.44234">
        <ele>1208.7</ele>
        <time>2018-08-19T10:53:19.000Z</time>
      </trkpt>
      <trkpt lat="45.30235" lon="4.44235">
        <ele>1208.8</ele>
        <time>2018-08-19T10:53:20.000Z</time>
      </trkpt>
      <trkpt lat="45.30236" lon="4.44237">
        <ele>1208.9</ele>
        <time>2018-08-19T10:53:21.000Z</time>
      </trkpt>
      <trkpt lat="45.30236" lon="4.44239">
        <ele>1209</ele>
        <time>2018-08-19T10:53:22.000Z</time>
      </trkpt>
      <trkpt lat="45.30237" lon="4.4424">
        <ele>1209</ele>
        <time>2018-08-19T10:53:23.000Z</time>
      </trkpt>
      <trkpt lat="45.30237" lon="4.44242">
        <ele>1209.1</ele>
        <time>2018-08-19T10:53:24.000Z</time>
      </trkpt>
      <trkpt lat="45.30238" lon="4.44243">
        <ele>1209.2</ele>
        <time>2018-08-19T10:53:25.000Z</time>
      </trkpt>
      <trkpt lat="45.30239" lon="4.44245">
        <ele>1209.3</ele>
        <time>2018-08-19T10:53:26.000Z</time>
      </trkpt>
      <trkpt lat="45.30239" lon="4.44246">
        <ele>1209.3</ele>
        <time>2018-08-19T10:53:27.000Z</time>
      </trkpt>
      <trkpt lat="45.3024" lon="4.44248">
        <ele>1209.4</ele>
        <time>2018-08-19T10:53:28.000Z</time>
      </trkpt>
      <trkpt lat="45.30241" lon="4.44249">
        <ele>1209.5</ele>
        <time>2018-08-19T10:53:29.000Z</time>
      </trkpt>
      <trkpt lat="45.30241" lon="4.4425">
        <ele>1209.5</ele>
        <time>2018-08-19T10:53:30.000Z</time>
      </trkpt>
      <trkpt lat="45.30242" lon="4.44252">
        <ele>1209.6</ele>
        <time>2018-08-19T10:53:31.000Z</time>
      </trkpt>
      <trkpt lat="45.30243" lon="4.44253">
        <ele>1209.7</ele>
        <time>2018-08-19T10:53:32.000Z</time>
      </trkpt>
      <trkpt lat="45.30244" lon="4.44255">
        <ele>1209.7</ele>
        <time>2018-08-19T10:53:33.000Z</time>
      </trkpt>
      <trkpt lat="45.30244" lon="4.44256">
        <ele>1209.7</ele>
        <time>2018-08-19T10:53:34.000Z</time>
      </trkpt>
      <trkpt lat="45.30245" lon="4.44257">
        <ele>1209.8</ele>
        <time>2018-08-19T10:53:35.000Z</time>
      </trkpt>
      <trkpt lat="45.30246" lon="4.44259">
        <ele>1209.8</ele>
        <time>2018-08-19T10:53:36.000Z</time>
      </trkpt>
      <trkpt lat="45.30247" lon="4.4426">
        <ele>1209.9</ele>
        <time>2018-08-19T10:53:37.000Z</time>
      </trkpt>
      <trkpt lat="45.30248" lon="4.44261">
        <ele>1209.9</ele>
        <time>2018-08-19T10:53:38.000Z</time>
      </trkpt>
      <trkpt lat="45.30248" lon="4.44263">
        <ele>1210</ele>
        <time>2018-08-19T10:53:39.000Z</time>
      </trkpt>
      <trkpt lat="45.30249" lon="4.44264">
        <ele>1210</ele>
        <time>2018-08-19T10:53:40.000Z</time>
      </trkpt>
      <trkpt lat="45.3025" lon="4.44265">
        <ele>1210.1</ele>
        <time>2018-08-19T10:53:41.000Z</time>
      </trkpt>
      <trkpt lat="45.30251" lon="4.44266">
        <ele>1210.1</ele>
        <time>2018-08-19T10:53:42.000Z</time>
      </trkpt>
      <trkpt lat="45.30252" lon="4.44267">
        <ele>1210.2</ele>
        <time>2018-08-19T10:53:43.000Z</time>
      </trkpt>
      <trkpt lat="45.30253" lon="4.44269">
        <ele>1210.2</ele>
        <time>2018-08-19T10:53:44.000Z</time>
      </trkpt>
      <trkpt lat="45.30254" lon="4.4427">
        <ele>1210.3</ele>
        <time>2018-08-19T10:53:45.000Z</time>
      </trkpt>
      <trkpt lat="45.30255" lon="4.44271">
        <ele>1210.3</ele>
        <time>2018-08-19T10:53:46.000Z</time>
      </trkpt>
      <trkpt lat="45.30256" lon="4.44272">
        <ele>1210.4</ele>
        <time>2018-08-19T10:53:47.000Z</time>
      </trkpt>
      <trkpt lat="45.30257" lon="4.44273">
        <ele>1210.4</ele>
        <time>2018-08-19T10:53:48.000Z</time>
      </trkpt>
      <trkpt lat="45.30258" lon="4.44274">
        <ele>1210.5</ele>
        <time>2018-08-19T10:53:49.000Z</time>
      </trkpt>
      <trkpt lat="45.30259" lon="4.44275">
        <ele>1210.5</ele>
        <time>2018-08-19T10:53:50.000Z</time>
      </trkpt>
      <trkpt lat="45.3026" lon="4.44276">
        <ele>1210.6</ele>
        <time>2018-08-19T10:53:51.000Z</time>
      </trkpt>
      <trkpt lat="45.30261" lon="4.44278">
        <ele>1210.6</ele>
        <time>2018-08-19T10:53:52.000Z</time>
      </trkpt>
      <trkpt lat="45.30262" lon="4.44279">
        <ele>1210.7</ele>
        <time>2018-08-19T10:53:53.000Z</time>
      </trkpt>
      <trkpt lat="45.30263" lon="4.4428">
        <ele>1210.7</ele>
        <time>2018-08-19T10:53:54.000Z</time>
      </trkpt>
      <trkpt lat="45.30264" lon="4.44281">
        <ele>1210.8</ele>
        <time>2018-08-19T10:53:55.000Z</time>
      </trkpt>
      <trkpt lat="45.30266" lon="4.44282">
        <ele>1210.8</ele>
        <time>2018-08-19T10:53:56.000Z</time>
      </trkpt>
      <trkpt lat="45.30267" lon="4.44283">
        <ele>1210.9</ele>
        <time>2018-08-19T10:53:57.000Z</time>
      </trkpt>
      <trkpt lat="45.30268" lon="4.44284">
        <ele>1210.9</ele>
        <time>2018-08-19T10:53:58.000Z</time>
      </trkpt>
      <trkpt lat="45.30269" lon="4.44285">
        <ele>1211</ele>
        <time>2018-08-19T10:53:59.000Z</time>
      </trkpt>
      <trkpt lat="45.3027" lon="4.44286">
        <ele>1211</ele>
        <time>2018-08-19T10:54:00.000Z</time>
      </trkpt>
      <trkpt lat="45.30271" lon="4.44287">
        <ele>1211.1</ele>
        <time>2018-08-19T10:54:01.000Z</time>
      </trkpt>
      <trkpt lat="45.30272" lon="4.44288">
        <ele>1211.2</ele>
        <time>2018-08-19T10:54:02.000Z</time>
      </trkpt>
      <trkpt lat="45.30273" lon="4.44289">
        <ele>1211.2</ele>
        <time>2018-08-19T10:54:03.000Z</time>
      </trkpt>
      <trkpt lat="45.30274" lon="4.4429">
        <ele>1211.3</ele>
        <time>2018-08-19T10:54:04.000Z</time>
      </trkpt>
      <trkpt lat="45.30275" lon="4.44291">
        <ele>1211.3</ele>
        <time>2018-08-19T10:54:05.000Z</time>
      </trkpt>
      <trkpt lat="45.30277" lon="4.44292">
        <ele>1211.4</ele>
        <time>2018-08-19T10:54:06.000Z</time>
      </trkpt>
      <trkpt lat="45.30278" lon="4.44293">
        <ele>1211.5</ele>
        <time>2018-08-19T10:54:07.000Z</time>
      </trkpt>
      <trkpt lat="45.30279" lon="4.44294">
        <ele>1211.5</ele>
        <time>2018-08-19T10:54:08.000Z</time>
      </trkpt>
      <trkpt lat="45.3028" lon="4.44295">
        <ele>1211.6</ele>
        <time>2018-08-19T10:54:09.000Z</time>
      </trkpt>
      <trkpt lat="45.30281" lon="4.44296">
        <ele>1211.7</ele>
        <time>2018-08-19T10:54:10.000Z</time>
      </trkpt>
      <trkpt lat="45.30282" lon="4.44297">
        <ele>1211.7</ele>
        <time>2018-08-19T10:54:11.000Z</time>
      </trkpt>
      <trkpt lat="45.30283" lon="4.44298">
        <ele>1211.8</ele>
        <time>2018-08-19T10:54:12.000Z</time>
      </trkpt>
      <trkpt lat="45.30284" lon="4.44299">
        <ele>1211.9</ele>
        <time>2018-08-19T10:54:13.000Z</time>
      </trkpt>
      <trkpt lat="45.30285" lon="4.443">
        <ele>1212</ele>
        <time>2018-08-19T10:54:14.000Z</time>
      </trkpt>
      <trkpt lat="45.30286" lon="4.44301">
        <ele>1212</ele>
        <time>2018-08-19T10:54:15.000Z</time>
      </trkpt>
      <trkpt lat="45.30287" lon="4.44302">
        <ele>1212.1</ele>
        <time>2018-08-19T10:54:16.000Z</time>
      </trkpt>
      <trkpt lat="45.30288" lon="4.44304">
        <ele>1212.2</ele>
        <time>2018-08-19T10:54:17.000Z</time>
      </trkpt>
      <trkpt lat="45.30289" lon="4.44305">
        <ele>1212.3</ele>
        <time>2018-08-19T10:54:18.000Z</time>
      </trkpt>
      <trkpt lat="45.3029" lon="4.44306">
        <ele>1212.4</ele>
        <time>2018-08-19T10:54:19.000Z</time>
      </trkpt>
      <trkpt lat="45.30291" lon="4.44307">
        <ele>1212.5</ele>
        <time>2018-08-19T10:54:20.000Z</time>
      </trkpt>
      <trkpt lat="45.30292" lon="4.44308">
        <ele>1212.6</ele>
        <time>2018-08-19T10:54:21.000Z</time>
      </trkpt>
      <trkpt lat="45.30293" lon="4.44309">
        <ele>1212.6</ele>
        <time>2018-08-19T10:54:22.000Z</time>
      </trkpt>
      <trkpt lat="45.30294" lon="4.4431">
        <ele>1212.7</ele>
        <time>2018-08-19T10:54:23.000Z</time>
      </trkpt>
      <trkpt lat="45.30295" lon="4.44311">
        <ele>1212.8</ele>
        <time>2018-08-19T10:54:24.000Z</time>
      </trkpt>
      <trkpt lat="45.30296" lon="4.44312">
        <ele>1212.9</ele>
        <time>2018-08-19T10:54:25.000Z</time>
      </trkpt>
      <trkpt lat="45.30297" lon="4.44313">
        <ele>1213</ele>
        <time>2018-08-19T10:54:26.000Z</time>
      </trkpt>
      <trkpt lat="45.30298" lon="4.44314">
        <ele>1213.1</ele>
        <time>2018-08-19T10:54:27.000Z</time>
      </trkpt>
      <trkpt lat="45.30299" lon="4.44315">
        <ele>1213.2</ele>
        <time>2018-08-19T10:54:28.000Z</time>
      </trkpt>
      <trkpt lat="45.303" lon="4.44316">
        <ele>1213.3</ele>
        <time>2018-08-19T10:54:29.000Z</time>
      </trkpt>
      <trkpt lat="45.30301" lon="4.44317">
        <ele>1213.4</ele>
        <time>2018-08-19T10:54:30.000Z</time>
      </trkpt>
      <trkpt lat="45.30302" lon="4.44318">
        <ele>1213.5</ele>
        <time>2018-08-19T10:54:31.000Z</time>
      </trkpt>
      <trkpt lat="45.30303" lon="4.44319">
        <ele>1213.6</ele>
        <time>2018-08-19T10:54:32.000Z</time>
      </trkpt>
      <trkpt lat="45.30304" lon="4.4432">
        <ele>1213.6</ele>
        <time>2018-08-19T10:54:33.000Z</time>
      </trkpt>
      <trkpt lat="45.30305" lon="4.44321">
        <ele>1213.7</ele>
        <time>2018-08-19T10:54:34.000Z</time>
      </trkpt>
      <trkpt lat="45.30306" lon="4.44322">
        <ele>1213.8</ele>
        <time>2018-08-19T10:54:35.000Z</time>
      </trkpt>
      <trkpt lat="45.30307" lon="4.44323">
        <ele>1213.9</ele>
        <time>2018-08-19T10:54:36.000Z</time>
      </trkpt>
      <trkpt lat="45.30308" lon="4.44324">
        <ele>1214</ele>
        <time>2018-08-19T10:54:37.000Z</time>
      </trkpt>
      <trkpt lat="45.3031" lon="4.44325">
        <ele>1214.1</ele>
        <time>2018-08-19T10:54:38.000Z</time>
      </trkpt>
      <trkpt lat="45.30311" lon="4.44326">
        <ele>1214.2</ele>
        <time>2018-08-19T10:54:39.000Z</time>
      </trkpt>
      <trkpt lat="45.30312" lon="4.44327">
        <ele>1214.3</ele>
        <time>2018-08-19T10:54:40.000Z</time>
      </trkpt>
      <trkpt lat="45.30313" lon="4.44327">
        <ele>1214.3</ele>
        <time>2018-08-19T10:54:41.000Z</time>
      </trkpt>
      <trkpt lat="45.30314" lon="4.44328">
        <ele>1214.4</ele>
        <time>2018-08-19T10:54:42.000Z</time>
      </trkpt>
      <trkpt lat="45.30315" lon="4.44329">
        <ele>1214.5</ele>
        <time>2018-08-19T10:54:43.000Z</time>
      </trkpt>
      <trkpt lat="45.30316" lon="4.4433">
        <ele>1214.6</ele>
        <time>2018-08-19T10:54:44.000Z</time>
      </trkpt>
      <trkpt lat="45.30317" lon="4.44331">
        <ele>1214.7</ele>
        <time>2018-08-19T10:54:45.000Z</time>
      </trkpt>
      <trkpt lat="45.30318" lon="4.44332">
        <ele>1214.8</ele>
        <time>2018-08-19T10:54:46.000Z</time>
      </trkpt>
      <trkpt lat="45.3032" lon="4.44333">
        <ele>1214.9</ele>
        <time>2018-08-19T10:54:47.000Z</time>
      </trkpt>
      <trkpt lat="45.30321" lon="4.44333">
        <ele>1215</ele>
        <time>2018-08-19T10:54:48.000Z</time>
      </trkpt>
      <trkpt lat="45.30322" lon="4.44334">
        <ele>1215.1</ele>
        <time>2018-08-19T10:54:49.000Z</time>
      </trkpt>
      <trkpt lat="45.30323" lon="4.44335">
        <ele>1215.1</ele>
        <time>2018-08-19T10:54:50.000Z</time>
      </trkpt>
      <trkpt lat="45.30324" lon="4.44336">
        <ele>1215.2</ele>
        <time>2018-08-19T10:54:51.000Z</time>
      </trkpt>
      <trkpt lat="45.30325" lon="4.44337">
        <ele>1215.3</ele>
        <time>2018-08-19T10:54:52.000Z</time>
      </trkpt>
      <trkpt lat="45.30326" lon="4.44338">
        <ele>1215.4</ele>
        <time>2018-08-19T10:54:53.000Z</time>
      </trkpt>
      <trkpt lat="45.30327" lon="4.44338">
        <ele>1215.4</ele>
        <time>2018-08-19T10:54:54.000Z</time>
      </trkpt>
      <trkpt lat="45.30328" lon="4.44339">
        <ele>1215.5</ele>
        <time>2018-08-19T10:54:55.000Z</time>
      </trkpt>
      <trkpt lat="45.30328" lon="4.44339">
        <ele>1215.5</ele>
        <time>2018-08-19T10:54:56.000Z</time>
      </trkpt>
      <trkpt lat="45.30328" lon="4.44339">
        <ele>1215.5</ele>
        <time>2018-08-19T10:54:57.000Z</time>
      </trkpt>
      <trkpt lat="45.30328" lon="4.44339">
        <ele>1215.5</ele>
        <time>2018-08-19T10:54:58.000Z</time>
      </trkpt>
      <trkpt lat="45.30328" lon="4.44339">
        <ele>1215.4</ele>
        <time>2018-08-19T10:54:59.000Z</time>
      </trkpt>
      <trkpt lat="45.30328" lon="4.44339">
        <ele>1215.5</ele>
        <time>2018-08-19T10:55:00.000Z</time>
      </trkpt>
      <trkpt lat="45.30329" lon="4.44339">
        <ele>1215.5</ele>
        <time>2018-08-19T10:55:01.000Z</time>
      </trkpt>
      <trkpt lat="45.30329" lon="4.4434">
        <ele>1215.5</ele>
        <time>2018-08-19T10:55:02.000Z</time>
      </trkpt>
      <trkpt lat="45.3033" lon="4.4434">
        <ele>1215.6</ele>
        <time>2018-08-19T10:55:03.000Z</time>
      </trkpt>
      <trkpt lat="45.30331" lon="4.44341">
        <ele>1215.6</ele>
        <time>2018-08-19T10:55:04.000Z</time>
      </trkpt>
      <trkpt lat="45.30331" lon="4.44342">
        <ele>1215.7</ele>
        <time>2018-08-19T10:55:05.000Z</time>
      </trkpt>
      <trkpt lat="45.30332" lon="4.44342">
        <ele>1215.8</ele>
        <time>2018-08-19T10:55:06.000Z</time>
      </trkpt>
      <trkpt lat="45.30333" lon="4.44343">
        <ele>1215.8</ele>
        <time>2018-08-19T10:55:07.000Z</time>
      </trkpt>
      <trkpt lat="45.30334" lon="4.44344">
        <ele>1215.9</ele>
        <time>2018-08-19T10:55:08.000Z</time>
      </trkpt>
      <trkpt lat="45.30335" lon="4.44345">
        <ele>1216</ele>
        <time>2018-08-19T10:55:09.000Z</time>
      </trkpt>
      <trkpt lat="45.30336" lon="4.44346">
        <ele>1216.1</ele>
        <time>2018-08-19T10:55:10.000Z</time>
      </trkpt>
      <trkpt lat="45.30337" lon="4.44347">
        <ele>1216.2</ele>
        <time>2018-08-19T10:55:11.000Z</time>
      </trkpt>
      <trkpt lat="45.30338" lon="4.44348">
        <ele>1216.3</ele>
        <time>2018-08-19T10:55:12.000Z</time>
      </trkpt>
      <trkpt lat="45.3034" lon="4.44348">
        <ele>1216.4</ele>
        <time>2018-08-19T10:55:13.000Z</time>
      </trkpt>
      <trkpt lat="45.30341" lon="4.44349">
        <ele>1216.5</ele>
        <time>2018-08-19T10:55:14.000Z</time>
      </trkpt>
      <trkpt lat="45.30342" lon="4.4435">
        <ele>1216.6</ele>
        <time>2018-08-19T10:55:15.000Z</time>
      </trkpt>
      <trkpt lat="45.30343" lon="4.44351">
        <ele>1216.7</ele>
        <time>2018-08-19T10:55:16.000Z</time>
      </trkpt>
      <trkpt lat="45.30344" lon="4.44352">
        <ele>1216.8</ele>
        <time>2018-08-19T10:55:17.000Z</time>
      </trkpt>
      <trkpt lat="45.30345" lon="4.44353">
        <ele>1216.8</ele>
        <time>2018-08-19T10:55:18.000Z</time>
      </trkpt>
      <trkpt lat="45.30346" lon="4.44354">
        <ele>1216.9</ele>
        <time>2018-08-19T10:55:19.000Z</time>
      </trkpt>
      <trkpt lat="45.30347" lon="4.44355">
        <ele>1217</ele>
        <time>2018-08-19T10:55:20.000Z</time>
      </trkpt>
      <trkpt lat="45.30348" lon="4.44356">
        <ele>1217.1</ele>
        <time>2018-08-19T10:55:21.000Z</time>
      </trkpt>
      <trkpt lat="45.30349" lon="4.44356">
        <ele>1217.2</ele>
        <time>2018-08-19T10:55:22.000Z</time>
      </trkpt>
      <trkpt lat="45.3035" lon="4.44357">
        <ele>1217.3</ele>
        <time>2018-08-19T10:55:23.000Z</time>
      </trkpt>
      <trkpt lat="45.30351" lon="4.44358">
        <ele>1217.4</ele>
        <time>2018-08-19T10:55:24.000Z</time>
      </trkpt>
      <trkpt lat="45.30353" lon="4.44359">
        <ele>1217.5</ele>
        <time>2018-08-19T10:55:25.000Z</time>
      </trkpt>
      <trkpt lat="45.30354" lon="4.4436">
        <ele>1217.6</ele>
        <time>2018-08-19T10:55:26.000Z</time>
      </trkpt>
      <trkpt lat="45.30355" lon="4.4436">
        <ele>1217.7</ele>
        <time>2018-08-19T10:55:27.000Z</time>
      </trkpt>
      <trkpt lat="45.30356" lon="4.44361">
        <ele>1217.8</ele>
        <time>2018-08-19T10:55:28.000Z</time>
      </trkpt>
      <trkpt lat="45.30357" lon="4.44362">
        <ele>1217.9</ele>
        <time>2018-08-19T10:55:29.000Z</time>
      </trkpt>
      <trkpt lat="45.30358" lon="4.44363">
        <ele>1217.9</ele>
        <time>2018-08-19T10:55:30.000Z</time>
      </trkpt>
      <trkpt lat="45.30359" lon="4.44363">
        <ele>1218</ele>
        <time>2018-08-19T10:55:31.000Z</time>
      </trkpt>
      <trkpt lat="45.3036" lon="4.44364">
        <ele>1218.1</ele>
        <time>2018-08-19T10:55:32.000Z</time>
      </trkpt>
      <trkpt lat="45.30361" lon="4.44365">
        <ele>1218.2</ele>
        <time>2018-08-19T10:55:33.000Z</time>
      </trkpt>
      <trkpt lat="45.30362" lon="4.44365">
        <ele>1218.3</ele>
        <time>2018-08-19T10:55:34.000Z</time>
      </trkpt>
      <trkpt lat="45.30363" lon="4.44366">
        <ele>1218.4</ele>
        <time>2018-08-19T10:55:35.000Z</time>
      </trkpt>
      <trkpt lat="45.30365" lon="4.44367">
        <ele>1218.5</ele>
        <time>2018-08-19T10:55:36.000Z</time>
      </trkpt>
      <trkpt lat="45.30366" lon="4.44367">
        <ele>1218.6</ele>
        <time>2018-08-19T10:55:37.000Z</time>
      </trkpt>
      <trkpt lat="45.30367" lon="4.44368">
        <ele>1218.7</ele>
        <time>2018-08-19T10:55:38.000Z</time>
      </trkpt>
      <trkpt lat="45.30368" lon="4.44369">
        <ele>1218.7</ele>
        <time>2018-08-19T10:55:39.000Z</time>
      </trkpt>
      <trkpt lat="45.30369" lon="4.4437">
        <ele>1218.8</ele>
        <time>2018-08-19T10:55:40.000Z</time>
      </trkpt>
      <trkpt lat="45.3037" lon="4.4437">
        <ele>1218.9</ele>
        <time>2018-08-19T10:55:41.000Z</time>
      </trkpt>
      <trkpt lat="45.30371" lon="4.44371">
        <ele>1219</ele>
        <time>2018-08-19T10:55:42.000Z</time>
      </trkpt>
      <trkpt lat="45.30372" lon="4.44372">
        <ele>1219.1</ele>
        <time>2018-08-19T10:55:43.000Z</time>
      </trkpt>
      <trkpt lat="45.30374" lon="4.44372">
        <ele>1219.2</ele>
        <time>2018-08-19T10:55:44.000Z</time>
      </trkpt>
      <trkpt lat="45.30375" lon="4.44373">
        <ele>1219.3</ele>
        <time>2018-08-19T10:55:45.000Z</time>
      </trkpt>
      <trkpt lat="45.30376" lon="4.44374">
        <ele>1219.4</ele>
        <time>2018-08-19T10:55:46.000Z</time>
      </trkpt>
      <trkpt lat="45.30377" lon="4.44374">
        <ele>1219.5</ele>
        <time>2018-08-19T10:55:47.000Z</time>
      </trkpt>
      <trkpt lat="45.30378" lon="4.44375">
        <ele>1219.6</ele>
        <time>2018-08-19T10:55:48.000Z</time>
      </trkpt>
      <trkpt lat="45.30379" lon="4.44376">
        <ele>1219.7</ele>
        <time>2018-08-19T10:55:49.000Z</time>
      </trkpt>
      <trkpt lat="45.3038" lon="4.44376">
        <ele>1219.7</ele>
        <time>2018-08-19T10:55:50.000Z</time>
      </trkpt>
      <trkpt lat="45.30381" lon="4.44377">
        <ele>1219.8</ele>
        <time>2018-08-19T10:55:51.000Z</time>
      </trkpt>
      <trkpt lat="45.30382" lon="4.44378">
        <ele>1219.9</ele>
        <time>2018-08-19T10:55:52.000Z</time>
      </trkpt>
      <trkpt lat="45.30383" lon="4.44379">
        <ele>1220</ele>
        <time>2018-08-19T10:55:53.000Z</time>
      </trkpt>
      <trkpt lat="45.30384" lon="4.44379">
        <ele>1220.1</ele>
        <time>2018-08-19T10:55:54.000Z</time>
      </trkpt>
      <trkpt lat="45.30385" lon="4.4438">
        <ele>1220.2</ele>
        <time>2018-08-19T10:55:55.000Z</time>
      </trkpt>
      <trkpt lat="45.30386" lon="4.44381">
        <ele>1220.3</ele>
        <time>2018-08-19T10:55:56.000Z</time>
      </trkpt>
      <trkpt lat="45.30387" lon="4.44381">
        <ele>1220.4</ele>
        <time>2018-08-19T10:55:57.000Z</time>
      </trkpt>
      <trkpt lat="45.30388" lon="4.44382">
        <ele>1220.5</ele>
        <time>2018-08-19T10:55:58.000Z</time>
      </trkpt>
      <trkpt lat="45.30389" lon="4.44383">
        <ele>1220.6</ele>
        <time>2018-08-19T10:55:59.000Z</time>
      </trkpt>
      <trkpt lat="45.3039" lon="4.44383">
        <ele>1220.7</ele>
        <time>2018-08-19T10:56:00.000Z</time>
      </trkpt>
      <trkpt lat="45.30391" lon="4.44384">
        <ele>1220.8</ele>
        <time>2018-08-19T10:56:01.000Z</time>
      </trkpt>
      <trkpt lat="45.30393" lon="4.44385">
        <ele>1220.9</ele>
        <time>2018-08-19T10:56:02.000Z</time>
      </trkpt>
      <trkpt lat="45.30394" lon="4.44385">
        <ele>1221</ele>
        <time>2018-08-19T10:56:03.000Z</time>
      </trkpt>
      <trkpt lat="45.30395" lon="4.44386">
        <ele>1221.1</ele>
        <time>2018-08-19T10:56:04.000Z</time>
      </trkpt>
      <trkpt lat="45.30396" lon="4.44387">
        <ele>1221.2</ele>
        <time>2018-08-19T10:56:05.000Z</time>
      </trkpt>
      <trkpt lat="45.30397" lon="4.44387">
        <ele>1221.3</ele>
        <time>2018-08-19T10:56:06.000Z</time>
      </trkpt>
      <trkpt lat="45.30398" lon="4.44388">
        <ele>1221.4</ele>
        <time>2018-08-19T10:56:07.000Z</time>
      </trkpt>
      <trkpt lat="45.30399" lon="4.44389">
        <ele>1221.5</ele>
        <time>2018-08-19T10:56:08.000Z</time>
      </trkpt>
      <trkpt lat="45.304" lon="4.44389">
        <ele>1221.6</ele>
        <time>2018-08-19T10:56:09.000Z</time>
      </trkpt>
      <trkpt lat="45.30401" lon="4.4439">
        <ele>1221.7</ele>
        <time>2018-08-19T10:56:10.000Z</time>
      </trkpt>
      <trkpt lat="45.30402" lon="4.4439">
        <ele>1221.8</ele>
        <time>2018-08-19T10:56:11.000Z</time>
      </trkpt>
      <trkpt lat="45.30404" lon="4.44391">
        <ele>1221.9</ele>
        <time>2018-08-19T10:56:12.000Z</time>
      </trkpt>
      <trkpt lat="45.30405" lon="4.44392">
        <ele>1222</ele>
        <time>2018-08-19T10:56:13.000Z</time>
      </trkpt>
      <trkpt lat="45.30406" lon="4.44392">
        <ele>1222.1</ele>
        <time>2018-08-19T10:56:14.000Z</time>
      </trkpt>
      <trkpt lat="45.30407" lon="4.44393">
        <ele>1222.2</ele>
        <time>2018-08-19T10:56:15.000Z</time>
      </trkpt>
      <trkpt lat="45.30408" lon="4.44394">
        <ele>1222.3</ele>
        <time>2018-08-19T10:56:16.000Z</time>
      </trkpt>
      <trkpt lat="45.30409" lon="4.44394">
        <ele>1222.4</ele>
        <time>2018-08-19T10:56:17.000Z</time>
      </trkpt>
      <trkpt lat="45.3041" lon="4.44395">
        <ele>1222.5</ele>
        <time>2018-08-19T10:56:18.000Z</time>
      </trkpt>
      <trkpt lat="45.30411" lon="4.44396">
        <ele>1222.6</ele>
        <time>2018-08-19T10:56:19.000Z</time>
      </trkpt>
      <trkpt lat="45.30413" lon="4.44396">
        <ele>1222.7</ele>
        <time>2018-08-19T10:56:20.000Z</time>
      </trkpt>
      <trkpt lat="45.30414" lon="4.44397">
        <ele>1222.8</ele>
        <time>2018-08-19T10:56:21.000Z</time>
      </trkpt>
      <trkpt lat="45.30415" lon="4.44398">
        <ele>1222.9</ele>
        <time>2018-08-19T10:56:22.000Z</time>
      </trkpt>
      <trkpt lat="45.30416" lon="4.44399">
        <ele>1223</ele>
        <time>2018-08-19T10:56:23.000Z</time>
      </trkpt>
      <trkpt lat="45.30417" lon="4.44399">
        <ele>1223.1</ele>
        <time>2018-08-19T10:56:24.000Z</time>
      </trkpt>
      <trkpt lat="45.30418" lon="4.444">
        <ele>1223.3</ele>
        <time>2018-08-19T10:56:25.000Z</time>
      </trkpt>
      <trkpt lat="45.30419" lon="4.44401">
        <ele>1223.4</ele>
        <time>2018-08-19T10:56:26.000Z</time>
      </trkpt>
      <trkpt lat="45.3042" lon="4.44402">
        <ele>1223.6</ele>
        <time>2018-08-19T10:56:27.000Z</time>
      </trkpt>
      <trkpt lat="45.30422" lon="4.44403">
        <ele>1223.7</ele>
        <time>2018-08-19T10:56:28.000Z</time>
      </trkpt>
      <trkpt lat="45.30423" lon="4.44403">
        <ele>1223.9</ele>
        <time>2018-08-19T10:56:29.000Z</time>
      </trkpt>
      <trkpt lat="45.30424" lon="4.44404">
        <ele>1224</ele>
        <time>2018-08-19T10:56:30.000Z</time>
      </trkpt>
      <trkpt lat="45.30425" lon="4.44405">
        <ele>1224.2</ele>
        <time>2018-08-19T10:56:31.000Z</time>
      </trkpt>
      <trkpt lat="45.30426" lon="4.44406">
        <ele>1224.3</ele>
        <time>2018-08-19T10:56:32.000Z</time>
      </trkpt>
      <trkpt lat="45.30427" lon="4.44407">
        <ele>1224.4</ele>
        <time>2018-08-19T10:56:33.000Z</time>
      </trkpt>
      <trkpt lat="45.30428" lon="4.44408">
        <ele>1224.6</ele>
        <time>2018-08-19T10:56:34.000Z</time>
      </trkpt>
      <trkpt lat="45.30429" lon="4.44408">
        <ele>1224.7</ele>
        <time>2018-08-19T10:56:35.000Z</time>
      </trkpt>
      <trkpt lat="45.3043" lon="4.44409">
        <ele>1224.9</ele>
        <time>2018-08-19T10:56:36.000Z</time>
      </trkpt>
      <trkpt lat="45.30431" lon="4.4441">
        <ele>1225</ele>
        <time>2018-08-19T10:56:37.000Z</time>
      </trkpt>
      <trkpt lat="45.30432" lon="4.44411">
        <ele>1225.1</ele>
        <time>2018-08-19T10:56:38.000Z</time>
      </trkpt>
      <trkpt lat="45.30433" lon="4.44412">
        <ele>1225.2</ele>
        <time>2018-08-19T10:56:39.000Z</time>
      </trkpt>
      <trkpt lat="45.30433" lon="4.44412">
        <ele>1225.4</ele>
        <time>2018-08-19T10:56:40.000Z</time>
      </trkpt>
      <trkpt lat="45.30434" lon="4.44413">
        <ele>1225.5</ele>
        <time>2018-08-19T10:56:41.000Z</time>
      </trkpt>
      <trkpt lat="45.30435" lon="4.44414">
        <ele>1225.6</ele>
        <time>2018-08-19T10:56:42.000Z</time>
      </trkpt>
      <trkpt lat="45.30436" lon="4.44415">
        <ele>1225.7</ele>
        <time>2018-08-19T10:56:43.000Z</time>
      </trkpt>
      <trkpt lat="45.30437" lon="4.44415">
        <ele>1225.8</ele>
        <time>2018-08-19T10:56:44.000Z</time>
      </trkpt>
      <trkpt lat="45.30438" lon="4.44416">
        <ele>1226</ele>
        <time>2018-08-19T10:56:45.000Z</time>
      </trkpt>
      <trkpt lat="45.30439" lon="4.44417">
        <ele>1226.1</ele>
        <time>2018-08-19T10:56:46.000Z</time>
      </trkpt>
      <trkpt lat="45.3044" lon="4.44417">
        <ele>1226.2</ele>
        <time>2018-08-19T10:56:47.000Z</time>
      </trkpt>
      <trkpt lat="45.30441" lon="4.44418">
        <ele>1226.3</ele>
        <time>2018-08-19T10:56:48.000Z</time>
      </trkpt>
      <trkpt lat="45.30442" lon="4.44418">
        <ele>1226.3</ele>
        <time>2018-08-19T10:56:49.000Z</time>
      </trkpt>
      <trkpt lat="45.30443" lon="4.44419">
        <ele>1226.4</ele>
        <time>2018-08-19T10:56:50.000Z</time>
      </trkpt>
      <trkpt lat="45.30443" lon="4.44419">
        <ele>1226.4</ele>
        <time>2018-08-19T10:56:51.000Z</time>
      </trkpt>
      <trkpt lat="45.30443" lon="4.44419">
        <ele>1226.4</ele>
        <time>2018-08-19T10:56:52.000Z</time>
      </trkpt>
      <trkpt lat="45.30444" lon="4.44419">
        <ele>1226.4</ele>
        <time>2018-08-19T10:56:53.000Z</time>
      </trkpt>
      <trkpt lat="45.30444" lon="4.44419">
        <ele>1226.5</ele>
        <time>2018-08-19T10:56:54.000Z</time>
      </trkpt>
      <trkpt lat="45.30444" lon="4.44419">
        <ele>1226.5</ele>
        <time>2018-08-19T10:56:55.000Z</time>
      </trkpt>
      <trkpt lat="45.30445" lon="4.44419">
        <ele>1226.6</ele>
        <time>2018-08-19T10:56:56.000Z</time>
      </trkpt>
      <trkpt lat="45.30446" lon="4.4442">
        <ele>1226.6</ele>
        <time>2018-08-19T10:56:57.000Z</time>
      </trkpt>
      <trkpt lat="45.30447" lon="4.4442">
        <ele>1226.7</ele>
        <time>2018-08-19T10:56:58.000Z</time>
      </trkpt>
      <trkpt lat="45.30448" lon="4.44421">
        <ele>1226.8</ele>
        <time>2018-08-19T10:56:59.000Z</time>
      </trkpt>
      <trkpt lat="45.30449" lon="4.44421">
        <ele>1226.9</ele>
        <time>2018-08-19T10:57:00.000Z</time>
      </trkpt>
      <trkpt lat="45.3045" lon="4.44422">
        <ele>1227</ele>
        <time>2018-08-19T10:57:01.000Z</time>
      </trkpt>
      <trkpt lat="45.30451" lon="4.44422">
        <ele>1227.1</ele>
        <time>2018-08-19T10:57:02.000Z</time>
      </trkpt>
      <trkpt lat="45.30452" lon="4.44422">
        <ele>1227.1</ele>
        <time>2018-08-19T10:57:03.000Z</time>
      </trkpt>
      <trkpt lat="45.30453" lon="4.44422">
        <ele>1227.2</ele>
        <time>2018-08-19T10:57:04.000Z</time>
      </trkpt>
      <trkpt lat="45.30454" lon="4.44422">
        <ele>1227.2</ele>
        <time>2018-08-19T10:57:05.000Z</time>
      </trkpt>
      <trkpt lat="45.30455" lon="4.44422">
        <ele>1227.3</ele>
        <time>2018-08-19T10:57:06.000Z</time>
      </trkpt>
      <trkpt lat="45.30456" lon="4.44422">
        <ele>1227.3</ele>
        <time>2018-08-19T10:57:07.000Z</time>
      </trkpt>
      <trkpt lat="45.30457" lon="4.44421">
        <ele>1227.3</ele>
        <time>2018-08-19T10:57:08.000Z</time>
      </trkpt>
      <trkpt lat="45.30458" lon="4.44421">
        <ele>1227.3</ele>
        <time>2018-08-19T10:57:09.000Z</time>
      </trkpt>
      <trkpt lat="45.30459" lon="4.44421">
        <ele>1227.4</ele>
        <time>2018-08-19T10:57:10.000Z</time>
      </trkpt>
      <trkpt lat="45.3046" lon="4.4442">
        <ele>1227.4</ele>
        <time>2018-08-19T10:57:11.000Z</time>
      </trkpt>
      <trkpt lat="45.30461" lon="4.4442">
        <ele>1227.4</ele>
        <time>2018-08-19T10:57:12.000Z</time>
      </trkpt>
      <trkpt lat="45.30463" lon="4.4442">
        <ele>1227.4</ele>
        <time>2018-08-19T10:57:13.000Z</time>
      </trkpt>
      <trkpt lat="45.30464" lon="4.44419">
        <ele>1227.5</ele>
        <time>2018-08-19T10:57:14.000Z</time>
      </trkpt>
      <trkpt lat="45.30465" lon="4.44419">
        <ele>1227.5</ele>
        <time>2018-08-19T10:57:15.000Z</time>
      </trkpt>
      <trkpt lat="45.30466" lon="4.44418">
        <ele>1227.5</ele>
        <time>2018-08-19T10:57:16.000Z</time>
      </trkpt>
      <trkpt lat="45.30467" lon="4.44418">
        <ele>1227.5</ele>
        <time>2018-08-19T10:57:17.000Z</time>
      </trkpt>
      <trkpt lat="45.30468" lon="4.44418">
        <ele>1227.6</ele>
        <time>2018-08-19T10:57:18.000Z</time>
      </trkpt>
      <trkpt lat="45.3047" lon="4.44418">
        <ele>1227.6</ele>
        <time>2018-08-19T10:57:19.000Z</time>
      </trkpt>
      <trkpt lat="45.30471" lon="4.44417">
        <ele>1227.7</ele>
        <time>2018-08-19T10:57:20.000Z</time>
      </trkpt>
      <trkpt lat="45.30472" lon="4.44417">
        <ele>1227.7</ele>
        <time>2018-08-19T10:57:21.000Z</time>
      </trkpt>
      <trkpt lat="45.30473" lon="4.44417">
        <ele>1227.8</ele>
        <time>2018-08-19T10:57:22.000Z</time>
      </trkpt>
      <trkpt lat="45.30474" lon="4.44417">
        <ele>1227.8</ele>
        <time>2018-08-19T10:57:23.000Z</time>
      </trkpt>
      <trkpt lat="45.30476" lon="4.44417">
        <ele>1227.9</ele>
        <time>2018-08-19T10:57:24.000Z</time>
      </trkpt>
      <trkpt lat="45.30477" lon="4.44417">
        <ele>1227.9</ele>
        <time>2018-08-19T10:57:25.000Z</time>
      </trkpt>
      <trkpt lat="45.30478" lon="4.44417">
        <ele>1228</ele>
        <time>2018-08-19T10:57:26.000Z</time>
      </trkpt>
      <trkpt lat="45.30479" lon="4.44417">
        <ele>1228</ele>
        <time>2018-08-19T10:57:27.000Z</time>
      </trkpt>
      <trkpt lat="45.3048" lon="4.44417">
        <ele>1228.1</ele>
        <time>2018-08-19T10:57:28.000Z</time>
      </trkpt>
      <trkpt lat="45.30482" lon="4.44417">
        <ele>1228.1</ele>
        <time>2018-08-19T10:57:29.000Z</time>
      </trkpt>
      <trkpt lat="45.30483" lon="4.44417">
        <ele>1228.2</ele>
        <time>2018-08-19T10:57:30.000Z</time>
      </trkpt>
      <trkpt lat="45.30484" lon="4.44417">
        <ele>1228.3</ele>
        <time>2018-08-19T10:57:31.000Z</time>
      </trkpt>
      <trkpt lat="45.30485" lon="4.44417">
        <ele>1228.3</ele>
        <time>2018-08-19T10:57:32.000Z</time>
      </trkpt>
      <trkpt lat="45.30486" lon="4.44417">
        <ele>1228.4</ele>
        <time>2018-08-19T10:57:33.000Z</time>
      </trkpt>
      <trkpt lat="45.30488" lon="4.44417">
        <ele>1228.5</ele>
        <time>2018-08-19T10:57:34.000Z</time>
      </trkpt>
      <trkpt lat="45.30489" lon="4.44417">
        <ele>1228.5</ele>
        <time>2018-08-19T10:57:35.000Z</time>
      </trkpt>
      <trkpt lat="45.3049" lon="4.44417">
        <ele>1228.6</ele>
        <time>2018-08-19T10:57:36.000Z</time>
      </trkpt>
      <trkpt lat="45.30491" lon="4.44417">
        <ele>1228.6</ele>
        <time>2018-08-19T10:57:37.000Z</time>
      </trkpt>
      <trkpt lat="45.30492" lon="4.44417">
        <ele>1228.7</ele>
        <time>2018-08-19T10:57:38.000Z</time>
      </trkpt>
      <trkpt lat="45.30494" lon="4.44417">
        <ele>1228.7</ele>
        <time>2018-08-19T10:57:39.000Z</time>
      </trkpt>
      <trkpt lat="45.30495" lon="4.44417">
        <ele>1228.8</ele>
        <time>2018-08-19T10:57:40.000Z</time>
      </trkpt>
      <trkpt lat="45.30496" lon="4.44417">
        <ele>1228.8</ele>
        <time>2018-08-19T10:57:41.000Z</time>
      </trkpt>
      <trkpt lat="45.30497" lon="4.44417">
        <ele>1228.9</ele>
        <time>2018-08-19T10:57:42.000Z</time>
      </trkpt>
      <trkpt lat="45.30499" lon="4.44416">
        <ele>1228.9</ele>
        <time>2018-08-19T10:57:43.000Z</time>
      </trkpt>
      <trkpt lat="45.305" lon="4.44416">
        <ele>1229</ele>
        <time>2018-08-19T10:57:44.000Z</time>
      </trkpt>
      <trkpt lat="45.30501" lon="4.44416">
        <ele>1229</ele>
        <time>2018-08-19T10:57:45.000Z</time>
      </trkpt>
      <trkpt lat="45.30502" lon="4.44416">
        <ele>1229</ele>
        <time>2018-08-19T10:57:46.000Z</time>
      </trkpt>
      <trkpt lat="45.30503" lon="4.44415">
        <ele>1229</ele>
        <time>2018-08-19T10:57:47.000Z</time>
      </trkpt>
      <trkpt lat="45.30504" lon="4.44415">
        <ele>1229</ele>
        <time>2018-08-19T10:57:48.000Z</time>
      </trkpt>
      <trkpt lat="45.30505" lon="4.44415">
        <ele>1229</ele>
        <time>2018-08-19T10:57:49.000Z</time>
      </trkpt>
      <trkpt lat="45.30506" lon="4.44414">
        <ele>1229.1</ele>
        <time>2018-08-19T10:57:50.000Z</time>
      </trkpt>
      <trkpt lat="45.30508" lon="4.44414">
        <ele>1229.1</ele>
        <time>2018-08-19T10:57:51.000Z</time>
      </trkpt>
      <trkpt lat="45.30509" lon="4.44414">
        <ele>1229.1</ele>
        <time>2018-08-19T10:57:52.000Z</time>
      </trkpt>
      <trkpt lat="45.3051" lon="4.44413">
        <ele>1229.1</ele>
        <time>2018-08-19T10:57:53.000Z</time>
      </trkpt>
      <trkpt lat="45.30511" lon="4.44413">
        <ele>1229.2</ele>
        <time>2018-08-19T10:57:54.000Z</time>
      </trkpt>
      <trkpt lat="45.30513" lon="4.44413">
        <ele>1229.2</ele>
        <time>2018-08-19T10:57:55.000Z</time>
      </trkpt>
      <trkpt lat="45.30514" lon="4.44413">
        <ele>1229.2</ele>
        <time>2018-08-19T10:57:56.000Z</time>
      </trkpt>
      <trkpt lat="45.30515" lon="4.44413">
        <ele>1229.3</ele>
        <time>2018-08-19T10:57:57.000Z</time>
      </trkpt>
      <trkpt lat="45.30517" lon="4.44412">
        <ele>1229.3</ele>
        <time>2018-08-19T10:57:58.000Z</time>
      </trkpt>
      <trkpt lat="45.30518" lon="4.44412">
        <ele>1229.3</ele>
        <time>2018-08-19T10:57:59.000Z</time>
      </trkpt>
      <trkpt lat="45.30519" lon="4.44412">
        <ele>1229.4</ele>
        <time>2018-08-19T10:58:00.000Z</time>
      </trkpt>
      <trkpt lat="45.3052" lon="4.44412">
        <ele>1229.4</ele>
        <time>2018-08-19T10:58:01.000Z</time>
      </trkpt>
      <trkpt lat="45.30522" lon="4.44412">
        <ele>1229.4</ele>
        <time>2018-08-19T10:58:02.000Z</time>
      </trkpt>
      <trkpt lat="45.30523" lon="4.44412">
        <ele>1229.5</ele>
        <time>2018-08-19T10:58:03.000Z</time>
      </trkpt>
      <trkpt lat="45.30524" lon="4.44412">
        <ele>1229.5</ele>
        <time>2018-08-19T10:58:04.000Z</time>
      </trkpt>
      <trkpt lat="45.30525" lon="4.44411">
        <ele>1229.5</ele>
        <time>2018-08-19T10:58:05.000Z</time>
      </trkpt>
      <trkpt lat="45.30526" lon="4.44411">
        <ele>1229.6</ele>
        <time>2018-08-19T10:58:06.000Z</time>
      </trkpt>
      <trkpt lat="45.30527" lon="4.44411">
        <ele>1229.6</ele>
        <time>2018-08-19T10:58:07.000Z</time>
      </trkpt>
      <trkpt lat="45.30529" lon="4.44411">
        <ele>1229.7</ele>
        <time>2018-08-19T10:58:08.000Z</time>
      </trkpt>
      <trkpt lat="45.3053" lon="4.44411">
        <ele>1229.7</ele>
        <time>2018-08-19T10:58:09.000Z</time>
      </trkpt>
      <trkpt lat="45.30531" lon="4.44411">
        <ele>1229.7</ele>
        <time>2018-08-19T10:58:10.000Z</time>
      </trkpt>
      <trkpt lat="45.30532" lon="4.44411">
        <ele>1229.8</ele>
        <time>2018-08-19T10:58:11.000Z</time>
      </trkpt>
      <trkpt lat="45.30533" lon="4.44411">
        <ele>1229.8</ele>
        <time>2018-08-19T10:58:12.000Z</time>
      </trkpt>
      <trkpt lat="45.30534" lon="4.44411">
        <ele>1229.9</ele>
        <time>2018-08-19T10:58:13.000Z</time>
      </trkpt>
      <trkpt lat="45.30536" lon="4.44411">
        <ele>1229.9</ele>
        <time>2018-08-19T10:58:14.000Z</time>
      </trkpt>
      <trkpt lat="45.30537" lon="4.44411">
        <ele>1229.9</ele>
        <time>2018-08-19T10:58:15.000Z</time>
      </trkpt>
      <trkpt lat="45.30538" lon="4.44411">
        <ele>1230</ele>
        <time>2018-08-19T10:58:16.000Z</time>
      </trkpt>
      <trkpt lat="45.30539" lon="4.44411">
        <ele>1230</ele>
        <time>2018-08-19T10:58:17.000Z</time>
      </trkpt>
      <trkpt lat="45.3054" lon="4.44411">
        <ele>1230.1</ele>
        <time>2018-08-19T10:58:18.000Z</time>
      </trkpt>
      <trkpt lat="45.30542" lon="4.44411">
        <ele>1230.1</ele>
        <time>2018-08-19T10:58:19.000Z</time>
      </trkpt>
      <trkpt lat="45.30543" lon="4.44411">
        <ele>1230.2</ele>
        <time>2018-08-19T10:58:20.000Z</time>
      </trkpt>
      <trkpt lat="45.30544" lon="4.44412">
        <ele>1230.2</ele>
        <time>2018-08-19T10:58:21.000Z</time>
      </trkpt>
      <trkpt lat="45.30545" lon="4.44412">
        <ele>1230.3</ele>
        <time>2018-08-19T10:58:22.000Z</time>
      </trkpt>
      <trkpt lat="45.30547" lon="4.44412">
        <ele>1230.4</ele>
        <time>2018-08-19T10:58:23.000Z</time>
      </trkpt>
      <trkpt lat="45.30548" lon="4.44412">
        <ele>1230.4</ele>
        <time>2018-08-19T10:58:24.000Z</time>
      </trkpt>
      <trkpt lat="45.30549" lon="4.44413">
        <ele>1230.5</ele>
        <time>2018-08-19T10:58:25.000Z</time>
      </trkpt>
      <trkpt lat="45.3055" lon="4.44413">
        <ele>1230.6</ele>
        <time>2018-08-19T10:58:26.000Z</time>
      </trkpt>
      <trkpt lat="45.30551" lon="4.44414">
        <ele>1230.7</ele>
        <time>2018-08-19T10:58:27.000Z</time>
      </trkpt>
      <trkpt lat="45.30553" lon="4.44414">
        <ele>1230.7</ele>
        <time>2018-08-19T10:58:28.000Z</time>
      </trkpt>
      <trkpt lat="45.30554" lon="4.44415">
        <ele>1230.8</ele>
        <time>2018-08-19T10:58:29.000Z</time>
      </trkpt>
      <trkpt lat="45.30555" lon="4.44415">
        <ele>1230.9</ele>
        <time>2018-08-19T10:58:30.000Z</time>
      </trkpt>
      <trkpt lat="45.30556" lon="4.44416">
        <ele>1231</ele>
        <time>2018-08-19T10:58:31.000Z</time>
      </trkpt>
      <trkpt lat="45.30557" lon="4.44416">
        <ele>1231</ele>
        <time>2018-08-19T10:58:32.000Z</time>
      </trkpt>
      <trkpt lat="45.30559" lon="4.44417">
        <ele>1231.1</ele>
        <time>2018-08-19T10:58:33.000Z</time>
      </trkpt>
      <trkpt lat="45.3056" lon="4.44418">
        <ele>1231.2</ele>
        <time>2018-08-19T10:58:34.000Z</time>
      </trkpt>
      <trkpt lat="45.30561" lon="4.44418">
        <ele>1231.3</ele>
        <time>2018-08-19T10:58:35.000Z</time>
      </trkpt>
      <trkpt lat="45.30562" lon="4.44419">
        <ele>1231.5</ele>
        <time>2018-08-19T10:58:36.000Z</time>
      </trkpt>
      <trkpt lat="45.30563" lon="4.4442">
        <ele>1231.6</ele>
        <time>2018-08-19T10:58:37.000Z</time>
      </trkpt>
      <trkpt lat="45.30564" lon="4.4442">
        <ele>1231.7</ele>
        <time>2018-08-19T10:58:38.000Z</time>
      </trkpt>
      <trkpt lat="45.30566" lon="4.44421">
        <ele>1231.8</ele>
        <time>2018-08-19T10:58:39.000Z</time>
      </trkpt>
      <trkpt lat="45.30567" lon="4.44422">
        <ele>1231.9</ele>
        <time>2018-08-19T10:58:40.000Z</time>
      </trkpt>
      <trkpt lat="45.30568" lon="4.44423">
        <ele>1232</ele>
        <time>2018-08-19T10:58:41.000Z</time>
      </trkpt>
      <trkpt lat="45.30569" lon="4.44423">
        <ele>1232.1</ele>
        <time>2018-08-19T10:58:42.000Z</time>
      </trkpt>
      <trkpt lat="45.3057" lon="4.44424">
        <ele>1232.2</ele>
        <time>2018-08-19T10:58:43.000Z</time>
      </trkpt>
      <trkpt lat="45.30571" lon="4.44425">
        <ele>1232.3</ele>
        <time>2018-08-19T10:58:44.000Z</time>
      </trkpt>
      <trkpt lat="45.30572" lon="4.44426">
        <ele>1232.5</ele>
        <time>2018-08-19T10:58:45.000Z</time>
      </trkpt>
      <trkpt lat="45.30574" lon="4.44426">
        <ele>1232.6</ele>
        <time>2018-08-19T10:58:46.000Z</time>
      </trkpt>
      <trkpt lat="45.30575" lon="4.44427">
        <ele>1232.7</ele>
        <time>2018-08-19T10:58:47.000Z</time>
      </trkpt>
      <trkpt lat="45.30576" lon="4.44428">
        <ele>1232.8</ele>
        <time>2018-08-19T10:58:48.000Z</time>
      </trkpt>
      <trkpt lat="45.30577" lon="4.44429">
        <ele>1232.9</ele>
        <time>2018-08-19T10:58:49.000Z</time>
      </trkpt>
      <trkpt lat="45.30578" lon="4.4443">
        <ele>1233.1</ele>
        <time>2018-08-19T10:58:50.000Z</time>
      </trkpt>
      <trkpt lat="45.30579" lon="4.44431">
        <ele>1233.2</ele>
        <time>2018-08-19T10:58:51.000Z</time>
      </trkpt>
      <trkpt lat="45.3058" lon="4.44432">
        <ele>1233.3</ele>
        <time>2018-08-19T10:58:52.000Z</time>
      </trkpt>
      <trkpt lat="45.30581" lon="4.44433">
        <ele>1233.5</ele>
        <time>2018-08-19T10:58:53.000Z</time>
      </trkpt>
      <trkpt lat="45.30582" lon="4.44434">
        <ele>1233.6</ele>
        <time>2018-08-19T10:58:54.000Z</time>
      </trkpt>
      <trkpt lat="45.30583" lon="4.44435">
        <ele>1233.7</ele>
        <time>2018-08-19T10:58:55.000Z</time>
      </trkpt>
      <trkpt lat="45.30584" lon="4.44436">
        <ele>1233.8</ele>
        <time>2018-08-19T10:58:56.000Z</time>
      </trkpt>
      <trkpt lat="45.30585" lon="4.44437">
        <ele>1234</ele>
        <time>2018-08-19T10:58:57.000Z</time>
      </trkpt>
      <trkpt lat="45.30587" lon="4.44438">
        <ele>1234.1</ele>
        <time>2018-08-19T10:58:58.000Z</time>
      </trkpt>
      <trkpt lat="45.30588" lon="4.44439">
        <ele>1234.2</ele>
        <time>2018-08-19T10:58:59.000Z</time>
      </trkpt>
      <trkpt lat="45.30589" lon="4.4444">
        <ele>1234.3</ele>
        <time>2018-08-19T10:59:00.000Z</time>
      </trkpt>
      <trkpt lat="45.3059" lon="4.44441">
        <ele>1234.4</ele>
        <time>2018-08-19T10:59:01.000Z</time>
      </trkpt>
      <trkpt lat="45.30591" lon="4.44442">
        <ele>1234.5</ele>
        <time>2018-08-19T10:59:02.000Z</time>
      </trkpt>
      <trkpt lat="45.30592" lon="4.44442">
        <ele>1234.6</ele>
        <time>2018-08-19T10:59:03.000Z</time>
      </trkpt>
      <trkpt lat="45.30593" lon="4.44443">
        <ele>1234.7</ele>
        <time>2018-08-19T10:59:04.000Z</time>
      </trkpt>
      <trkpt lat="45.30594" lon="4.44444">
        <ele>1234.8</ele>
        <time>2018-08-19T10:59:05.000Z</time>
      </trkpt>
      <trkpt lat="45.30595" lon="4.44445">
        <ele>1234.9</ele>
        <time>2018-08-19T10:59:06.000Z</time>
      </trkpt>
      <trkpt lat="45.30597" lon="4.44446">
        <ele>1235</ele>
        <time>2018-08-19T10:59:07.000Z</time>
      </trkpt>
      <trkpt lat="45.30598" lon="4.44446">
        <ele>1235.1</ele>
        <time>2018-08-19T10:59:08.000Z</time>
      </trkpt>
      <trkpt lat="45.30599" lon="4.44447">
        <ele>1235.1</ele>
        <time>2018-08-19T10:59:09.000Z</time>
      </trkpt>
      <trkpt lat="45.306" lon="4.44448">
        <ele>1235.2</ele>
        <time>2018-08-19T10:59:10.000Z</time>
      </trkpt>
      <trkpt lat="45.30601" lon="4.44449">
        <ele>1235.3</ele>
        <time>2018-08-19T10:59:11.000Z</time>
      </trkpt>
      <trkpt lat="45.30602" lon="4.4445">
        <ele>1235.4</ele>
        <time>2018-08-19T10:59:12.000Z</time>
      </trkpt>
      <trkpt lat="45.30604" lon="4.4445">
        <ele>1235.5</ele>
        <time>2018-08-19T10:59:13.000Z</time>
      </trkpt>
      <trkpt lat="45.30605" lon="4.44451">
        <ele>1235.6</ele>
        <time>2018-08-19T10:59:14.000Z</time>
      </trkpt>
      <trkpt lat="45.30606" lon="4.44452">
        <ele>1235.6</ele>
        <time>2018-08-19T10:59:15.000Z</time>
      </trkpt>
      <trkpt lat="45.30607" lon="4.44453">
        <ele>1235.7</ele>
        <time>2018-08-19T10:59:16.000Z</time>
      </trkpt>
      <trkpt lat="45.30608" lon="4.44454">
        <ele>1235.8</ele>
        <time>2018-08-19T10:59:17.000Z</time>
      </trkpt>
      <trkpt lat="45.30609" lon="4.44455">
        <ele>1235.9</ele>
        <time>2018-08-19T10:59:18.000Z</time>
      </trkpt>
      <trkpt lat="45.3061" lon="4.44456">
        <ele>1236</ele>
        <time>2018-08-19T10:59:19.000Z</time>
      </trkpt>
      <trkpt lat="45.30611" lon="4.44456">
        <ele>1236</ele>
        <time>2018-08-19T10:59:20.000Z</time>
      </trkpt>
      <trkpt lat="45.30612" lon="4.44457">
        <ele>1236.1</ele>
        <time>2018-08-19T10:59:21.000Z</time>
      </trkpt>
      <trkpt lat="45.30613" lon="4.44458">
        <ele>1236.2</ele>
        <time>2018-08-19T10:59:22.000Z</time>
      </trkpt>
      <trkpt lat="45.30614" lon="4.44459">
        <ele>1236.2</ele>
        <time>2018-08-19T10:59:23.000Z</time>
      </trkpt>
      <trkpt lat="45.30615" lon="4.4446">
        <ele>1236.3</ele>
        <time>2018-08-19T10:59:24.000Z</time>
      </trkpt>
      <trkpt lat="45.30616" lon="4.4446">
        <ele>1236.3</ele>
        <time>2018-08-19T10:59:25.000Z</time>
      </trkpt>
      <trkpt lat="45.30617" lon="4.44461">
        <ele>1236.4</ele>
        <time>2018-08-19T10:59:26.000Z</time>
      </trkpt>
      <trkpt lat="45.30619" lon="4.44462">
        <ele>1236.5</ele>
        <time>2018-08-19T10:59:27.000Z</time>
      </trkpt>
      <trkpt lat="45.3062" lon="4.44463">
        <ele>1236.5</ele>
        <time>2018-08-19T10:59:28.000Z</time>
      </trkpt>
      <trkpt lat="45.30621" lon="4.44463">
        <ele>1236.6</ele>
        <time>2018-08-19T10:59:29.000Z</time>
      </trkpt>
      <trkpt lat="45.30622" lon="4.44464">
        <ele>1236.6</ele>
        <time>2018-08-19T10:59:30.000Z</time>
      </trkpt>
      <trkpt lat="45.30623" lon="4.44465">
        <ele>1236.7</ele>
        <time>2018-08-19T10:59:31.000Z</time>
      </trkpt>
      <trkpt lat="45.30624" lon="4.44466">
        <ele>1236.7</ele>
        <time>2018-08-19T10:59:32.000Z</time>
      </trkpt>
      <trkpt lat="45.30625" lon="4.44466">
        <ele>1236.8</ele>
        <time>2018-08-19T10:59:33.000Z</time>
      </trkpt>
      <trkpt lat="45.30626" lon="4.44467">
        <ele>1236.8</ele>
        <time>2018-08-19T10:59:34.000Z</time>
      </trkpt>
      <trkpt lat="45.30627" lon="4.44468">
        <ele>1236.9</ele>
        <time>2018-08-19T10:59:35.000Z</time>
      </trkpt>
      <trkpt lat="45.30629" lon="4.44469">
        <ele>1236.9</ele>
        <time>2018-08-19T10:59:36.000Z</time>
      </trkpt>
      <trkpt lat="45.3063" lon="4.4447">
        <ele>1237</ele>
        <time>2018-08-19T10:59:37.000Z</time>
      </trkpt>
      <trkpt lat="45.30631" lon="4.4447">
        <ele>1237</ele>
        <time>2018-08-19T10:59:38.000Z</time>
      </trkpt>
      <trkpt lat="45.30632" lon="4.44471">
        <ele>1237.1</ele>
        <time>2018-08-19T10:59:39.000Z</time>
      </trkpt>
      <trkpt lat="45.30633" lon="4.44472">
        <ele>1237.1</ele>
        <time>2018-08-19T10:59:40.000Z</time>
      </trkpt>
      <trkpt lat="45.30635" lon="4.44472">
        <ele>1237.1</ele>
        <time>2018-08-19T10:59:41.000Z</time>
      </trkpt>
      <trkpt lat="45.30636" lon="4.44473">
        <ele>1237.2</ele>
        <time>2018-08-19T10:59:42.000Z</time>
      </trkpt>
      <trkpt lat="45.30637" lon="4.44474">
        <ele>1237.2</ele>
        <time>2018-08-19T10:59:43.000Z</time>
      </trkpt>
      <trkpt lat="45.30638" lon="4.44474">
        <ele>1237.2</ele>
        <time>2018-08-19T10:59:44.000Z</time>
      </trkpt>
      <trkpt lat="45.3064" lon="4.44474">
        <ele>1237.2</ele>
        <time>2018-08-19T10:59:45.000Z</time>
      </trkpt>
      <trkpt lat="45.30641" lon="4.44475">
        <ele>1237.2</ele>
        <time>2018-08-19T10:59:46.000Z</time>
      </trkpt>
      <trkpt lat="45.30642" lon="4.44475">
        <ele>1237.2</ele>
        <time>2018-08-19T10:59:47.000Z</time>
      </trkpt>
      <trkpt lat="45.30643" lon="4.44475">
        <ele>1237.3</ele>
        <time>2018-08-19T10:59:48.000Z</time>
      </trkpt>
      <trkpt lat="45.30645" lon="4.44476">
        <ele>1237.3</ele>
        <time>2018-08-19T10:59:49.000Z</time>
      </trkpt>
      <trkpt lat="45.30646" lon="4.44476">
        <ele>1237.3</ele>
        <time>2018-08-19T10:59:50.000Z</time>
      </trkpt>
      <trkpt lat="45.30647" lon="4.44476">
        <ele>1237.3</ele>
        <time>2018-08-19T10:59:51.000Z</time>
      </trkpt>
      <trkpt lat="45.30648" lon="4.44476">
        <ele>1237.3</ele>
        <time>2018-08-19T10:59:52.000Z</time>
      </trkpt>
      <trkpt lat="45.3065" lon="4.44476">
        <ele>1237.3</ele>
        <time>2018-08-19T10:59:53.000Z</time>
      </trkpt>
      <trkpt lat="45.30651" lon="4.44477">
        <ele>1237.3</ele>
        <time>2018-08-19T10:59:54.000Z</time>
      </trkpt>
      <trkpt lat="45.30652" lon="4.44477">
        <ele>1237.3</ele>
        <time>2018-08-19T10:59:55.000Z</time>
      </trkpt>
      <trkpt lat="45.30654" lon="4.44477">
        <ele>1237.3</ele>
        <time>2018-08-19T10:59:56.000Z</time>
      </trkpt>
      <trkpt lat="45.30655" lon="4.44477">
        <ele>1237.3</ele>
        <time>2018-08-19T10:59:57.000Z</time>
      </trkpt>
      <trkpt lat="45.30656" lon="4.44477">
        <ele>1237.3</ele>
        <time>2018-08-19T10:59:58.000Z</time>
      </trkpt>
      <trkpt lat="45.30658" lon="4.44478">
        <ele>1237.3</ele>
        <time>2018-08-19T10:59:59.000Z</time>
      </trkpt>
      <trkpt lat="45.30659" lon="4.44478">
        <ele>1237.3</ele>
        <time>2018-08-19T11:00:00.000Z</time>
      </trkpt>
      <trkpt lat="45.3066" lon="4.44478">
        <ele>1237.3</ele>
        <time>2018-08-19T11:00:01.000Z</time>
      </trkpt>
      <trkpt lat="45.30662" lon="4.44478">
        <ele>1237.3</ele>
        <time>2018-08-19T11:00:02.000Z</time>
      </trkpt>
      <trkpt lat="45.30663" lon="4.44478">
        <ele>1237.3</ele>
        <time>2018-08-19T11:00:03.000Z</time>
      </trkpt>
      <trkpt lat="45.30664" lon="4.44479">
        <ele>1237.2</ele>
        <time>2018-08-19T11:00:04.000Z</time>
      </trkpt>
      <trkpt lat="45.30665" lon="4.44479">
        <ele>1237.2</ele>
        <time>2018-08-19T11:00:05.000Z</time>
      </trkpt>
      <trkpt lat="45.30667" lon="4.44479">
        <ele>1237.2</ele>
        <time>2018-08-19T11:00:06.000Z</time>
      </trkpt>
      <trkpt lat="45.30668" lon="4.44479">
        <ele>1237.3</ele>
        <time>2018-08-19T11:00:07.000Z</time>
      </trkpt>
      <trkpt lat="45.30669" lon="4.44479">
        <ele>1237.3</ele>
        <time>2018-08-19T11:00:08.000Z</time>
      </trkpt>
      <trkpt lat="45.3067" lon="4.44479">
        <ele>1237.3</ele>
        <time>2018-08-19T11:00:09.000Z</time>
      </trkpt>
      <trkpt lat="45.30672" lon="4.44479">
        <ele>1237.3</ele>
        <time>2018-08-19T11:00:10.000Z</time>
      </trkpt>
      <trkpt lat="45.30673" lon="4.44479">
        <ele>1237.3</ele>
        <time>2018-08-19T11:00:11.000Z</time>
      </trkpt>
      <trkpt lat="45.30674" lon="4.44479">
        <ele>1237.3</ele>
        <time>2018-08-19T11:00:12.000Z</time>
      </trkpt>
      <trkpt lat="45.30676" lon="4.44479">
        <ele>1237.3</ele>
        <time>2018-08-19T11:00:13.000Z</time>
      </trkpt>
      <trkpt lat="45.30677" lon="4.44479">
        <ele>1237.3</ele>
        <time>2018-08-19T11:00:14.000Z</time>
      </trkpt>
      <trkpt lat="45.30678" lon="4.44479">
        <ele>1237.4</ele>
        <time>2018-08-19T11:00:15.000Z</time>
      </trkpt>
      <trkpt lat="45.30679" lon="4.44479">
        <ele>1237.4</ele>
        <time>2018-08-19T11:00:16.000Z</time>
      </trkpt>
      <trkpt lat="45.30681" lon="4.44479">
        <ele>1237.4</ele>
        <time>2018-08-19T11:00:17.000Z</time>
      </trkpt>
      <trkpt lat="45.30682" lon="4.44479">
        <ele>1237.4</ele>
        <time>2018-08-19T11:00:18.000Z</time>
      </trkpt>
      <trkpt lat="45.30683" lon="4.44479">
        <ele>1237.4</ele>
        <time>2018-08-19T11:00:19.000Z</time>
      </trkpt>
      <trkpt lat="45.30684" lon="4.44479">
        <ele>1237.4</ele>
        <time>2018-08-19T11:00:20.000Z</time>
      </trkpt>
      <trkpt lat="45.30686" lon="4.44479">
        <ele>1237.4</ele>
        <time>2018-08-19T11:00:21.000Z</time>
      </trkpt>
      <trkpt lat="45.30687" lon="4.4448">
        <ele>1237.4</ele>
        <time>2018-08-19T11:00:22.000Z</time>
      </trkpt>
      <trkpt lat="45.30688" lon="4.4448">
        <ele>1237.5</ele>
        <time>2018-08-19T11:00:23.000Z</time>
      </trkpt>
      <trkpt lat="45.30689" lon="4.4448">
        <ele>1237.5</ele>
        <time>2018-08-19T11:00:24.000Z</time>
      </trkpt>
      <trkpt lat="45.30691" lon="4.4448">
        <ele>1237.5</ele>
        <time>2018-08-19T11:00:25.000Z</time>
      </trkpt>
      <trkpt lat="45.30692" lon="4.4448">
        <ele>1237.5</ele>
        <time>2018-08-19T11:00:26.000Z</time>
      </trkpt>
      <trkpt lat="45.30693" lon="4.4448">
        <ele>1237.5</ele>
        <time>2018-08-19T11:00:27.000Z</time>
      </trkpt>
      <trkpt lat="45.30695" lon="4.4448">
        <ele>1237.5</ele>
        <time>2018-08-19T11:00:28.000Z</time>
      </trkpt>
      <trkpt lat="45.30696" lon="4.4448">
        <ele>1237.5</ele>
        <time>2018-08-19T11:00:29.000Z</time>
      </trkpt>
      <trkpt lat="45.30697" lon="4.4448">
        <ele>1237.6</ele>
        <time>2018-08-19T11:00:30.000Z</time>
      </trkpt>
      <trkpt lat="45.30699" lon="4.4448">
        <ele>1237.6</ele>
        <time>2018-08-19T11:00:31.000Z</time>
      </trkpt>
      <trkpt lat="45.307" lon="4.4448">
        <ele>1237.6</ele>
        <time>2018-08-19T11:00:32.000Z</time>
      </trkpt>
      <trkpt lat="45.30701" lon="4.4448">
        <ele>1237.6</ele>
        <time>2018-08-19T11:00:33.000Z</time>
      </trkpt>
      <trkpt lat="45.30703" lon="4.4448">
        <ele>1237.6</ele>
        <time>2018-08-19T11:00:34.000Z</time>
      </trkpt>
      <trkpt lat="45.30704" lon="4.4448">
        <ele>1237.6</ele>
        <time>2018-08-19T11:00:35.000Z</time>
      </trkpt>
      <trkpt lat="45.30705" lon="4.4448">
        <ele>1237.6</ele>
        <time>2018-08-19T11:00:36.000Z</time>
      </trkpt>
      <trkpt lat="45.30707" lon="4.4448">
        <ele>1237.6</ele>
        <time>2018-08-19T11:00:37.000Z</time>
      </trkpt>
      <trkpt lat="45.30708" lon="4.44479">
        <ele>1237.6</ele>
        <time>2018-08-19T11:00:38.000Z</time>
      </trkpt>
      <trkpt lat="45.30709" lon="4.44479">
        <ele>1237.6</ele>
        <time>2018-08-19T11:00:39.000Z</time>
      </trkpt>
      <trkpt lat="45.30711" lon="4.44478">
        <ele>1237.6</ele>
        <time>2018-08-19T11:00:40.000Z</time>
      </trkpt>
      <trkpt lat="45.30712" lon="4.44478">
        <ele>1237.6</ele>
        <time>2018-08-19T11:00:41.000Z</time>
      </trkpt>
      <trkpt lat="45.30713" lon="4.44477">
        <ele>1237.6</ele>
        <time>2018-08-19T11:00:42.000Z</time>
      </trkpt>
      <trkpt lat="45.30714" lon="4.44477">
        <ele>1237.6</ele>
        <time>2018-08-19T11:00:43.000Z</time>
      </trkpt>
      <trkpt lat="45.30716" lon="4.44476">
        <ele>1237.6</ele>
        <time>2018-08-19T11:00:44.000Z</time>
      </trkpt>
      <trkpt lat="45.30717" lon="4.44475">
        <ele>1237.6</ele>
        <time>2018-08-19T11:00:45.000Z</time>
      </trkpt>
      <trkpt lat="45.30718" lon="4.44474">
        <ele>1237.6</ele>
        <time>2018-08-19T11:00:46.000Z</time>
      </trkpt>
      <trkpt lat="45.30719" lon="4.44473">
        <ele>1237.6</ele>
        <time>2018-08-19T11:00:47.000Z</time>
      </trkpt>
      <trkpt lat="45.3072" lon="4.44472">
        <ele>1237.6</ele>
        <time>2018-08-19T11:00:48.000Z</time>
      </trkpt>
      <trkpt lat="45.30721" lon="4.44471">
        <ele>1237.6</ele>
        <time>2018-08-19T11:00:49.000Z</time>
      </trkpt>
      <trkpt lat="45.30722" lon="4.4447">
        <ele>1237.6</ele>
        <time>2018-08-19T11:00:50.000Z</time>
      </trkpt>
      <trkpt lat="45.30723" lon="4.44469">
        <ele>1237.6</ele>
        <time>2018-08-19T11:00:51.000Z</time>
      </trkpt>
      <trkpt lat="45.30725" lon="4.44468">
        <ele>1237.7</ele>
        <time>2018-08-19T11:00:52.000Z</time>
      </trkpt>
      <trkpt lat="45.30726" lon="4.44467">
        <ele>1237.7</ele>
        <time>2018-08-19T11:00:53.000Z</time>
      </trkpt>
      <trkpt lat="45.30727" lon="4.44466">
        <ele>1237.7</ele>
        <time>2018-08-19T11:00:54.000Z</time>
      </trkpt>
      <trkpt lat="45.30728" lon="4.44466">
        <ele>1237.7</ele>
        <time>2018-08-19T11:00:55.000Z</time>
      </trkpt>
      <trkpt lat="45.30729" lon="4.44465">
        <ele>1237.7</ele>
        <time>2018-08-19T11:00:56.000Z</time>
      </trkpt>
      <trkpt lat="45.3073" lon="4.44464">
        <ele>1237.7</ele>
        <time>2018-08-19T11:00:57.000Z</time>
      </trkpt>
      <trkpt lat="45.30732" lon="4.44463">
        <ele>1237.7</ele>
        <time>2018-08-19T11:00:58.000Z</time>
      </trkpt>
      <trkpt lat="45.30733" lon="4.44462">
        <ele>1237.7</ele>
        <time>2018-08-19T11:00:59.000Z</time>
      </trkpt>
      <trkpt lat="45.30734" lon="4.44461">
        <ele>1237.7</ele>
        <time>2018-08-19T11:01:00.000Z</time>
      </trkpt>
      <trkpt lat="45.30735" lon="4.4446">
        <ele>1237.7</ele>
        <time>2018-08-19T11:01:01.000Z</time>
      </trkpt>
      <trkpt lat="45.30736" lon="4.4446">
        <ele>1237.8</ele>
        <time>2018-08-19T11:01:02.000Z</time>
      </trkpt>
      <trkpt lat="45.30737" lon="4.44459">
        <ele>1237.8</ele>
        <time>2018-08-19T11:01:03.000Z</time>
      </trkpt>
      <trkpt lat="45.30738" lon="4.44458">
        <ele>1237.8</ele>
        <time>2018-08-19T11:01:04.000Z</time>
      </trkpt>
      <trkpt lat="45.3074" lon="4.44457">
        <ele>1237.8</ele>
        <time>2018-08-19T11:01:05.000Z</time>
      </trkpt>
      <trkpt lat="45.30741" lon="4.44456">
        <ele>1237.8</ele>
        <time>2018-08-19T11:01:06.000Z</time>
      </trkpt>
      <trkpt lat="45.30742" lon="4.44455">
        <ele>1237.8</ele>
        <time>2018-08-19T11:01:07.000Z</time>
      </trkpt>
      <trkpt lat="45.30743" lon="4.44454">
        <ele>1237.9</ele>
        <time>2018-08-19T11:01:08.000Z</time>
      </trkpt>
      <trkpt lat="45.30744" lon="4.44453">
        <ele>1237.9</ele>
        <time>2018-08-19T11:01:09.000Z</time>
      </trkpt>
      <trkpt lat="45.30745" lon="4.44452">
        <ele>1237.9</ele>
        <time>2018-08-19T11:01:10.000Z</time>
      </trkpt>
      <trkpt lat="45.30746" lon="4.44451">
        <ele>1237.9</ele>
        <time>2018-08-19T11:01:11.000Z</time>
      </trkpt>
      <trkpt lat="45.30747" lon="4.4445">
        <ele>1237.9</ele>
        <time>2018-08-19T11:01:12.000Z</time>
      </trkpt>
      <trkpt lat="45.30748" lon="4.44449">
        <ele>1238</ele>
        <time>2018-08-19T11:01:13.000Z</time>
      </trkpt>
      <trkpt lat="45.30749" lon="4.44448">
        <ele>1238</ele>
        <time>2018-08-19T11:01:14.000Z</time>
      </trkpt>
      <trkpt lat="45.3075" lon="4.44447">
        <ele>1238</ele>
        <time>2018-08-19T11:01:15.000Z</time>
      </trkpt>
      <trkpt lat="45.30751" lon="4.44446">
        <ele>1238</ele>
        <time>2018-08-19T11:01:16.000Z</time>
      </trkpt>
      <trkpt lat="45.30752" lon="4.44445">
        <ele>1237.9</ele>
        <time>2018-08-19T11:01:17.000Z</time>
      </trkpt>
      <trkpt lat="45.30753" lon="4.44444">
        <ele>1237.9</ele>
        <time>2018-08-19T11:01:18.000Z</time>
      </trkpt>
      <trkpt lat="45.30754" lon="4.44443">
        <ele>1237.9</ele>
        <time>2018-08-19T11:01:19.000Z</time>
      </trkpt>
      <trkpt lat="45.30755" lon="4.44442">
        <ele>1237.9</ele>
        <time>2018-08-19T11:01:20.000Z</time>
      </trkpt>
      <trkpt lat="45.30756" lon="4.4444">
        <ele>1237.8</ele>
        <time>2018-08-19T11:01:21.000Z</time>
      </trkpt>
      <trkpt lat="45.30757" lon="4.44439">
        <ele>1237.8</ele>
        <time>2018-08-19T11:01:22.000Z</time>
      </trkpt>
      <trkpt lat="45.30758" lon="4.44438">
        <ele>1237.8</ele>
        <time>2018-08-19T11:01:23.000Z</time>
      </trkpt>
      <trkpt lat="45.30759" lon="4.44436">
        <ele>1237.8</ele>
        <time>2018-08-19T11:01:24.000Z</time>
      </trkpt>
      <trkpt lat="45.30759" lon="4.44435">
        <ele>1237.8</ele>
        <time>2018-08-19T11:01:25.000Z</time>
      </trkpt>
      <trkpt lat="45.3076" lon="4.44434">
        <ele>1237.7</ele>
        <time>2018-08-19T11:01:26.000Z</time>
      </trkpt>
      <trkpt lat="45.30761" lon="4.44432">
        <ele>1237.7</ele>
        <time>2018-08-19T11:01:27.000Z</time>
      </trkpt>
      <trkpt lat="45.30762" lon="4.44431">
        <ele>1237.7</ele>
        <time>2018-08-19T11:01:28.000Z</time>
      </trkpt>
      <trkpt lat="45.30762" lon="4.44429">
        <ele>1237.7</ele>
        <time>2018-08-19T11:01:29.000Z</time>
      </trkpt>
      <trkpt lat="45.30763" lon="4.44428">
        <ele>1237.7</ele>
        <time>2018-08-19T11:01:30.000Z</time>
      </trkpt>
      <trkpt lat="45.30763" lon="4.44427">
        <ele>1237.7</ele>
        <time>2018-08-19T11:01:31.000Z</time>
      </trkpt>
      <trkpt lat="45.30764" lon="4.44425">
        <ele>1237.6</ele>
        <time>2018-08-19T11:01:32.000Z</time>
      </trkpt>
      <trkpt lat="45.30765" lon="4.44423">
        <ele>1237.6</ele>
        <time>2018-08-19T11:01:33.000Z</time>
      </trkpt>
      <trkpt lat="45.30765" lon="4.44422">
        <ele>1237.6</ele>
        <time>2018-08-19T11:01:34.000Z</time>
      </trkpt>
      <trkpt lat="45.30765" lon="4.4442">
        <ele>1237.6</ele>
        <time>2018-08-19T11:01:35.000Z</time>
      </trkpt>
      <trkpt lat="45.30766" lon="4.44418">
        <ele>1237.6</ele>
        <time>2018-08-19T11:01:36.000Z</time>
      </trkpt>
      <trkpt lat="45.30766" lon="4.44417">
        <ele>1237.6</ele>
        <time>2018-08-19T11:01:37.000Z</time>
      </trkpt>
      <trkpt lat="45.30766" lon="4.44417">
        <ele>1237.6</ele>
        <time>2018-08-19T11:01:38.000Z</time>
      </trkpt>
      <trkpt lat="45.30766" lon="4.44416">
        <ele>1237.6</ele>
        <time>2018-08-19T11:01:39.000Z</time>
      </trkpt>
      <trkpt lat="45.30766" lon="4.44416">
        <ele>1237.6</ele>
        <time>2018-08-19T11:01:40.000Z</time>
      </trkpt>
      <trkpt lat="45.30766" lon="4.44416">
        <ele>1237.6</ele>
        <time>2018-08-19T11:01:41.000Z</time>
      </trkpt>
      <trkpt lat="45.30766" lon="4.44416">
        <ele>1237.6</ele>
        <time>2018-08-19T11:01:42.000Z</time>
      </trkpt>
      <trkpt lat="45.30766" lon="4.44416">
        <ele>1237.6</ele>
        <time>2018-08-19T11:01:43.000Z</time>
      </trkpt>
      <trkpt lat="45.30766" lon="4.44416">
        <ele>1237.6</ele>
        <time>2018-08-19T11:01:44.000Z</time>
      </trkpt>
      <trkpt lat="45.30766" lon="4.44416">
        <ele>1237.6</ele>
        <time>2018-08-19T11:01:45.000Z</time>
      </trkpt>
      <trkpt lat="45.30766" lon="4.44416">
        <ele>1237.6</ele>
        <time>2018-08-19T11:01:46.000Z</time>
      </trkpt>
      <trkpt lat="45.30766" lon="4.44416">
        <ele>1237.6</ele>
        <time>2018-08-19T11:01:47.000Z</time>
      </trkpt>
      <trkpt lat="45.30766" lon="4.44416">
        <ele>1237.6</ele>
        <time>2018-08-19T11:01:48.000Z</time>
      </trkpt>
      <trkpt lat="45.30766" lon="4.44416">
        <ele>1237.6</ele>
        <time>2018-08-19T11:01:49.000Z</time>
      </trkpt>
      <trkpt lat="45.30766" lon="4.44416">
        <ele>1237.6</ele>
        <time>2018-08-19T11:01:50.000Z</time>
      </trkpt>
      <trkpt lat="45.30766" lon="4.44416">
        <ele>1237.6</ele>
        <time>2018-08-19T11:01:51.000Z</time>
      </trkpt>
      <trkpt lat="45.30766" lon="4.44416">
        <ele>1237.6</ele>
        <time>2018-08-19T11:01:52.000Z</time>
      </trkpt>
      <trkpt lat="45.30766" lon="4.44415">
        <ele>1237.5</ele>
        <time>2018-08-19T11:01:53.000Z</time>
      </trkpt>
      <trkpt lat="45.30767" lon="4.44414">
        <ele>1237.5</ele>
        <time>2018-08-19T11:01:54.000Z</time>
      </trkpt>
      <trkpt lat="45.30767" lon="4.44413">
        <ele>1237.4</ele>
        <time>2018-08-19T11:01:55.000Z</time>
      </trkpt>
      <trkpt lat="45.30767" lon="4.44411">
        <ele>1237.4</ele>
        <time>2018-08-19T11:01:56.000Z</time>
      </trkpt>
      <trkpt lat="45.30767" lon="4.4441">
        <ele>1237.3</ele>
        <time>2018-08-19T11:01:57.000Z</time>
      </trkpt>
      <trkpt lat="45.30767" lon="4.44408">
        <ele>1237.2</ele>
        <time>2018-08-19T11:01:58.000Z</time>
      </trkpt>
      <trkpt lat="45.30767" lon="4.44406">
        <ele>1237.1</ele>
        <time>2018-08-19T11:01:59.000Z</time>
      </trkpt>
      <trkpt lat="45.30768" lon="4.44405">
        <ele>1237.1</ele>
        <time>2018-08-19T11:02:00.000Z</time>
      </trkpt>
      <trkpt lat="45.30768" lon="4.44403">
        <ele>1237</ele>
        <time>2018-08-19T11:02:01.000Z</time>
      </trkpt>
      <trkpt lat="45.30768" lon="4.44402">
        <ele>1236.9</ele>
        <time>2018-08-19T11:02:02.000Z</time>
      </trkpt>
      <trkpt lat="45.30768" lon="4.444">
        <ele>1236.9</ele>
        <time>2018-08-19T11:02:03.000Z</time>
      </trkpt>
      <trkpt lat="45.30768" lon="4.44399">
        <ele>1236.8</ele>
        <time>2018-08-19T11:02:04.000Z</time>
      </trkpt>
      <trkpt lat="45.30768" lon="4.44398">
        <ele>1236.7</ele>
        <time>2018-08-19T11:02:05.000Z</time>
      </trkpt>
      <trkpt lat="45.30769" lon="4.44396">
        <ele>1236.7</ele>
        <time>2018-08-19T11:02:06.000Z</time>
      </trkpt>
      <trkpt lat="45.30769" lon="4.44395">
        <ele>1236.6</ele>
        <time>2018-08-19T11:02:07.000Z</time>
      </trkpt>
      <trkpt lat="45.30769" lon="4.44393">
        <ele>1236.5</ele>
        <time>2018-08-19T11:02:08.000Z</time>
      </trkpt>
      <trkpt lat="45.30769" lon="4.44392">
        <ele>1236.5</ele>
        <time>2018-08-19T11:02:09.000Z</time>
      </trkpt>
      <trkpt lat="45.30769" lon="4.4439">
        <ele>1236.4</ele>
        <time>2018-08-19T11:02:10.000Z</time>
      </trkpt>
      <trkpt lat="45.3077" lon="4.44388">
        <ele>1236.3</ele>
        <time>2018-08-19T11:02:11.000Z</time>
      </trkpt>
      <trkpt lat="45.3077" lon="4.44387">
        <ele>1236.3</ele>
        <time>2018-08-19T11:02:12.000Z</time>
      </trkpt>
      <trkpt lat="45.3077" lon="4.44385">
        <ele>1236.2</ele>
        <time>2018-08-19T11:02:13.000Z</time>
      </trkpt>
      <trkpt lat="45.30771" lon="4.44383">
        <ele>1236.1</ele>
        <time>2018-08-19T11:02:14.000Z</time>
      </trkpt>
      <trkpt lat="45.30771" lon="4.44382">
        <ele>1236</ele>
        <time>2018-08-19T11:02:15.000Z</time>
      </trkpt>
      <trkpt lat="45.30771" lon="4.4438">
        <ele>1236</ele>
        <time>2018-08-19T11:02:16.000Z</time>
      </trkpt>
      <trkpt lat="45.30772" lon="4.44379">
        <ele>1235.9</ele>
        <time>2018-08-19T11:02:17.000Z</time>
      </trkpt>
      <trkpt lat="45.30772" lon="4.44377">
        <ele>1235.8</ele>
        <time>2018-08-19T11:02:18.000Z</time>
      </trkpt>
      <trkpt lat="45.30773" lon="4.44376">
        <ele>1235.8</ele>
        <time>2018-08-19T11:02:19.000Z</time>
      </trkpt>
      <trkpt lat="45.30773" lon="4.44375">
        <ele>1235.7</ele>
        <time>2018-08-19T11:02:20.000Z</time>
      </trkpt>
      <trkpt lat="45.30774" lon="4.44373">
        <ele>1235.7</ele>
        <time>2018-08-19T11:02:21.000Z</time>
      </trkpt>
      <trkpt lat="45.30774" lon="4.44372">
        <ele>1235.6</ele>
        <time>2018-08-19T11:02:22.000Z</time>
      </trkpt>
      <trkpt lat="45.30775" lon="4.44371">
        <ele>1235.5</ele>
        <time>2018-08-19T11:02:23.000Z</time>
      </trkpt>
      <trkpt lat="45.30775" lon="4.4437">
        <ele>1235.5</ele>
        <time>2018-08-19T11:02:24.000Z</time>
      </trkpt>
      <trkpt lat="45.30776" lon="4.44369">
        <ele>1235.4</ele>
        <time>2018-08-19T11:02:25.000Z</time>
      </trkpt>
      <trkpt lat="45.30777" lon="4.44368">
        <ele>1235.4</ele>
        <time>2018-08-19T11:02:26.000Z</time>
      </trkpt>
      <trkpt lat="45.30778" lon="4.44367">
        <ele>1235.4</ele>
        <time>2018-08-19T11:02:27.000Z</time>
      </trkpt>
      <trkpt lat="45.30779" lon="4.44366">
        <ele>1235.3</ele>
        <time>2018-08-19T11:02:28.000Z</time>
      </trkpt>
      <trkpt lat="45.3078" lon="4.44365">
        <ele>1235.3</ele>
        <time>2018-08-19T11:02:29.000Z</time>
      </trkpt>
      <trkpt lat="45.3078" lon="4.44364">
        <ele>1235.2</ele>
        <time>2018-08-19T11:02:30.000Z</time>
      </trkpt>
      <trkpt lat="45.3078" lon="4.44363">
        <ele>1235.2</ele>
        <time>2018-08-19T11:02:31.000Z</time>
      </trkpt>
      <trkpt lat="45.3078" lon="4.44362">
        <ele>1235.1</ele>
        <time>2018-08-19T11:02:32.000Z</time>
      </trkpt>
      <trkpt lat="45.3078" lon="4.44362">
        <ele>1235.1</ele>
        <time>2018-08-19T11:02:33.000Z</time>
      </trkpt>
      <trkpt lat="45.3078" lon="4.44361">
        <ele>1235.1</ele>
        <time>2018-08-19T11:02:34.000Z</time>
      </trkpt>
      <trkpt lat="45.3078" lon="4.44361">
        <ele>1235.1</ele>
        <time>2018-08-19T11:02:35.000Z</time>
      </trkpt>
      <trkpt lat="45.3078" lon="4.44361">
        <ele>1235.1</ele>
        <time>2018-08-19T11:02:36.000Z</time>
      </trkpt>
      <trkpt lat="45.3078" lon="4.44361">
        <ele>1235.1</ele>
        <time>2018-08-19T11:02:37.000Z</time>
      </trkpt>
      <trkpt lat="45.30779" lon="4.44361">
        <ele>1235.1</ele>
        <time>2018-08-19T11:02:38.000Z</time>
      </trkpt>
      <trkpt lat="45.30779" lon="4.44361">
        <ele>1235.1</ele>
        <time>2018-08-19T11:02:39.000Z</time>
      </trkpt>
      <trkpt lat="45.3078" lon="4.44361">
        <ele>1235.1</ele>
        <time>2018-08-19T11:02:40.000Z</time>
      </trkpt>
      <trkpt lat="45.3078" lon="4.44361">
        <ele>1235.1</ele>
        <time>2018-08-19T11:02:41.000Z</time>
      </trkpt>
      <trkpt lat="45.3078" lon="4.4436">
        <ele>1235.1</ele>
        <time>2018-08-19T11:02:42.000Z</time>
      </trkpt>
      <trkpt lat="45.30781" lon="4.4436">
        <ele>1235</ele>
        <time>2018-08-19T11:02:43.000Z</time>
      </trkpt>
      <trkpt lat="45.30782" lon="4.4436">
        <ele>1235</ele>
        <time>2018-08-19T11:02:44.000Z</time>
      </trkpt>
      <trkpt lat="45.30782" lon="4.4436">
        <ele>1235</ele>
        <time>2018-08-19T11:02:45.000Z</time>
      </trkpt>
      <trkpt lat="45.30783" lon="4.44359">
        <ele>1235</ele>
        <time>2018-08-19T11:02:46.000Z</time>
      </trkpt>
      <trkpt lat="45.30784" lon="4.44359">
        <ele>1235</ele>
        <time>2018-08-19T11:02:47.000Z</time>
      </trkpt>
      <trkpt lat="45.30785" lon="4.44359">
        <ele>1235</ele>
        <time>2018-08-19T11:02:48.000Z</time>
      </trkpt>
      <trkpt lat="45.30786" lon="4.44358">
        <ele>1234.9</ele>
        <time>2018-08-19T11:02:49.000Z</time>
      </trkpt>
      <trkpt lat="45.30787" lon="4.44358">
        <ele>1234.9</ele>
        <time>2018-08-19T11:02:50.000Z</time>
      </trkpt>
      <trkpt lat="45.30788" lon="4.44358">
        <ele>1234.9</ele>
        <time>2018-08-19T11:02:51.000Z</time>
      </trkpt>
      <trkpt lat="45.30789" lon="4.44358">
        <ele>1234.9</ele>
        <time>2018-08-19T11:02:52.000Z</time>
      </trkpt>
      <trkpt lat="45.3079" lon="4.44358">
        <ele>1234.9</ele>
        <time>2018-08-19T11:02:53.000Z</time>
      </trkpt>
      <trkpt lat="45.30791" lon="4.44358">
        <ele>1234.9</ele>
        <time>2018-08-19T11:02:54.000Z</time>
      </trkpt>
      <trkpt lat="45.30793" lon="4.44359">
        <ele>1234.9</ele>
        <time>2018-08-19T11:02:55.000Z</time>
      </trkpt>
      <trkpt lat="45.30794" lon="4.44359">
        <ele>1234.9</ele>
        <time>2018-08-19T11:02:56.000Z</time>
      </trkpt>
      <trkpt lat="45.30795" lon="4.4436">
        <ele>1234.9</ele>
        <time>2018-08-19T11:02:57.000Z</time>
      </trkpt>
      <trkpt lat="45.30796" lon="4.44361">
        <ele>1235</ele>
        <time>2018-08-19T11:02:58.000Z</time>
      </trkpt>
      <trkpt lat="45.30796" lon="4.44361">
        <ele>1235</ele>
        <time>2018-08-19T11:02:59.000Z</time>
      </trkpt>
      <trkpt lat="45.30797" lon="4.44362">
        <ele>1235</ele>
        <time>2018-08-19T11:03:00.000Z</time>
      </trkpt>
      <trkpt lat="45.30798" lon="4.44363">
        <ele>1235</ele>
        <time>2018-08-19T11:03:01.000Z</time>
      </trkpt>
      <trkpt lat="45.30799" lon="4.44364">
        <ele>1235</ele>
        <time>2018-08-19T11:03:02.000Z</time>
      </trkpt>
      <trkpt lat="45.30799" lon="4.44364">
        <ele>1235.1</ele>
        <time>2018-08-19T11:03:03.000Z</time>
      </trkpt>
      <trkpt lat="45.30799" lon="4.44365">
        <ele>1235.1</ele>
        <time>2018-08-19T11:03:04.000Z</time>
      </trkpt>
      <trkpt lat="45.30799" lon="4.44365">
        <ele>1235.1</ele>
        <time>2018-08-19T11:03:05.000Z</time>
      </trkpt>
      <trkpt lat="45.30799" lon="4.44365">
        <ele>1235.1</ele>
        <time>2018-08-19T11:03:06.000Z</time>
      </trkpt>
      <trkpt lat="45.30799" lon="4.44365">
        <ele>1235.1</ele>
        <time>2018-08-19T11:03:07.000Z</time>
      </trkpt>
      <trkpt lat="45.30799" lon="4.44364">
        <ele>1235.1</ele>
        <time>2018-08-19T11:03:08.000Z</time>
      </trkpt>
      <trkpt lat="45.30799" lon="4.44364">
        <ele>1235.1</ele>
        <time>2018-08-19T11:03:09.000Z</time>
      </trkpt>
      <trkpt lat="45.30799" lon="4.44364">
        <ele>1235.1</ele>
        <time>2018-08-19T11:03:10.000Z</time>
      </trkpt>
      <trkpt lat="45.30799" lon="4.44364">
        <ele>1235.1</ele>
        <time>2018-08-19T11:03:11.000Z</time>
      </trkpt>
      <trkpt lat="45.30799" lon="4.44365">
        <ele>1235.1</ele>
        <time>2018-08-19T11:03:12.000Z</time>
      </trkpt>
      <trkpt lat="45.30799" lon="4.44365">
        <ele>1235.1</ele>
        <time>2018-08-19T11:03:13.000Z</time>
      </trkpt>
      <trkpt lat="45.30799" lon="4.44365">
        <ele>1235.1</ele>
        <time>2018-08-19T11:03:14.000Z</time>
      </trkpt>
      <trkpt lat="45.30799" lon="4.44365">
        <ele>1235.1</ele>
        <time>2018-08-19T11:03:15.000Z</time>
      </trkpt>
      <trkpt lat="45.30799" lon="4.44365">
        <ele>1235.1</ele>
        <time>2018-08-19T11:03:16.000Z</time>
      </trkpt>
      <trkpt lat="45.30799" lon="4.44365">
        <ele>1235.1</ele>
        <time>2018-08-19T11:03:17.000Z</time>
      </trkpt>
      <trkpt lat="45.30799" lon="4.44365">
        <ele>1235.1</ele>
        <time>2018-08-19T11:03:18.000Z</time>
      </trkpt>
      <trkpt lat="45.30799" lon="4.44365">
        <ele>1235.1</ele>
        <time>2018-08-19T11:03:19.000Z</time>
      </trkpt>
      <trkpt lat="45.30799" lon="4.44365">
        <ele>1235.1</ele>
        <time>2018-08-19T11:03:20.000Z</time>
      </trkpt>
      <trkpt lat="45.30799" lon="4.44365">
        <ele>1235.1</ele>
        <time>2018-08-19T11:03:21.000Z</time>
      </trkpt>
      <trkpt lat="45.30799" lon="4.44365">
        <ele>1235.1</ele>
        <time>2018-08-19T11:03:22.000Z</time>
      </trkpt>
      <trkpt lat="45.30799" lon="4.44365">
        <ele>1235.1</ele>
        <time>2018-08-19T11:03:23.000Z</time>
      </trkpt>
      <trkpt lat="45.30799" lon="4.44365">
        <ele>1235.1</ele>
        <time>2018-08-19T11:03:24.000Z</time>
      </trkpt>
      <trkpt lat="45.30799" lon="4.44365">
        <ele>1235.1</ele>
        <time>2018-08-19T11:03:25.000Z</time>
      </trkpt>
      <trkpt lat="45.30799" lon="4.44365">
        <ele>1235.1</ele>
        <time>2018-08-19T11:03:26.000Z</time>
      </trkpt>
      <trkpt lat="45.30799" lon="4.44365">
        <ele>1235.1</ele>
        <time>2018-08-19T11:03:27.000Z</time>
      </trkpt>
      <trkpt lat="45.30799" lon="4.44365">
        <ele>1235.1</ele>
        <time>2018-08-19T11:03:28.000Z</time>
      </trkpt>
      <trkpt lat="45.30799" lon="4.44365">
        <ele>1235.1</ele>
        <time>2018-08-19T11:03:29.000Z</time>
      </trkpt>
      <trkpt lat="45.30799" lon="4.44365">
        <ele>1235.1</ele>
        <time>2018-08-19T11:03:30.000Z</time>
      </trkpt>
      <trkpt lat="45.30799" lon="4.44365">
        <ele>1235.1</ele>
        <time>2018-08-19T11:03:31.000Z</time>
      </trkpt>
      <trkpt lat="45.30799" lon="4.44365">
        <ele>1235.1</ele>
        <time>2018-08-19T11:03:32.000Z</time>
      </trkpt>
      <trkpt lat="45.30799" lon="4.44365">
        <ele>1235.1</ele>
        <time>2018-08-19T11:03:33.000Z</time>
      </trkpt>
      <trkpt lat="45.30799" lon="4.44365">
        <ele>1235.1</ele>
        <time>2018-08-19T11:03:34.000Z</time>
      </trkpt>
      <trkpt lat="45.30799" lon="4.44365">
        <ele>1235.1</ele>
        <time>2018-08-19T11:03:35.000Z</time>
      </trkpt>
      <trkpt lat="45.30799" lon="4.44365">
        <ele>1235.1</ele>
        <time>2018-08-19T11:03:36.000Z</time>
      </trkpt>
      <trkpt lat="45.30799" lon="4.44365">
        <ele>1235.1</ele>
        <time>2018-08-19T11:03:37.000Z</time>
      </trkpt>
      <trkpt lat="45.30799" lon="4.44365">
        <ele>1235.1</ele>
        <time>2018-08-19T11:03:38.000Z</time>
      </trkpt>
      <trkpt lat="45.30799" lon="4.44365">
        <ele>1235.1</ele>
        <time>2018-08-19T11:03:39.000Z</time>
      </trkpt>
      <trkpt lat="45.30799" lon="4.44365">
        <ele>1235.1</ele>
        <time>2018-08-19T11:03:40.000Z</time>
      </trkpt>
      <trkpt lat="45.30799" lon="4.44365">
        <ele>1235.1</ele>
        <time>2018-08-19T11:03:41.000Z</time>
      </trkpt>
      <trkpt lat="45.30799" lon="4.44365">
        <ele>1235.1</ele>
        <time>2018-08-19T11:03:42.000Z</time>
      </trkpt>
      <trkpt lat="45.30799" lon="4.44365">
        <ele>1235.1</ele>
        <time>2018-08-19T11:03:43.000Z</time>
      </trkpt>
      <trkpt lat="45.30799" lon="4.44365">
        <ele>1235.1</ele>
        <time>2018-08-19T11:03:44.000Z</time>
      </trkpt>
      <trkpt lat="45.30799" lon="4.44365">
        <ele>1235.1</ele>
        <time>2018-08-19T11:03:45.000Z</time>
      </trkpt>
      <trkpt lat="45.30799" lon="4.44365">
        <ele>1235.1</ele>
        <time>2018-08-19T11:03:46.000Z</time>
      </trkpt>
      <trkpt lat="45.30799" lon="4.44365">
        <ele>1235.1</ele>
        <time>2018-08-19T11:03:47.000Z</time>
      </trkpt>
      <trkpt lat="45.30799" lon="4.44365">
        <ele>1235.1</ele>
        <time>2018-08-19T11:03:48.000Z</time>
      </trkpt>
      <trkpt lat="45.30799" lon="4.44365">
        <ele>1235.1</ele>
        <time>2018-08-19T11:03:49.000Z</time>
      </trkpt>
      <trkpt lat="45.30799" lon="4.44365">
        <ele>1235.1</ele>
        <time>2018-08-19T11:03:50.000Z</time>
      </trkpt>
      <trkpt lat="45.30799" lon="4.44365">
        <ele>1235.1</ele>
        <time>2018-08-19T11:03:51.000Z</time>
      </trkpt>
      <trkpt lat="45.30799" lon="4.44365">
        <ele>1235.1</ele>
        <time>2018-08-19T11:03:52.000Z</time>
      </trkpt>
      <trkpt lat="45.30799" lon="4.44365">
        <ele>1235.1</ele>
        <time>2018-08-19T11:03:53.000Z</time>
      </trkpt>
      <trkpt lat="45.30799" lon="4.44365">
        <ele>1235.1</ele>
        <time>2018-08-19T11:03:54.000Z</time>
      </trkpt>
      <trkpt lat="45.30799" lon="4.44365">
        <ele>1235.1</ele>
        <time>2018-08-19T11:03:55.000Z</time>
      </trkpt>
      <trkpt lat="45.30799" lon="4.44365">
        <ele>1235.1</ele>
        <time>2018-08-19T11:03:56.000Z</time>
      </trkpt>
      <trkpt lat="45.30799" lon="4.44365">
        <ele>1235.1</ele>
        <time>2018-08-19T11:03:57.000Z</time>
      </trkpt>
      <trkpt lat="45.30799" lon="4.44365">
        <ele>1235.1</ele>
        <time>2018-08-19T11:03:58.000Z</time>
      </trkpt>
      <trkpt lat="45.30799" lon="4.44365">
        <ele>1235.1</ele>
        <time>2018-08-19T11:03:59.000Z</time>
      </trkpt>
      <trkpt lat="45.30799" lon="4.44365">
        <ele>1235.1</ele>
        <time>2018-08-19T11:04:00.000Z</time>
      </trkpt>
      <trkpt lat="45.30799" lon="4.44365">
        <ele>1235.1</ele>
        <time>2018-08-19T11:04:01.000Z</time>
      </trkpt>
      <trkpt lat="45.30799" lon="4.44365">
        <ele>1235.1</ele>
        <time>2018-08-19T11:04:02.000Z</time>
      </trkpt>
      <trkpt lat="45.30799" lon="4.44365">
        <ele>1235.1</ele>
        <time>2018-08-19T11:04:03.000Z</time>
      </trkpt>
      <trkpt lat="45.30799" lon="4.44365">
        <ele>1235.1</ele>
        <time>2018-08-19T11:04:04.000Z</time>
      </trkpt>
      <trkpt lat="45.30799" lon="4.44365">
        <ele>1235.1</ele>
        <time>2018-08-19T11:04:05.000Z</time>
      </trkpt>
      <trkpt lat="45.30799" lon="4.44365">
        <ele>1235.1</ele>
        <time>2018-08-19T11:04:06.000Z</time>
      </trkpt>
      <trkpt lat="45.30799" lon="4.44365">
        <ele>1235.1</ele>
        <time>2018-08-19T11:04:07.000Z</time>
      </trkpt>
      <trkpt lat="45.30799" lon="4.44365">
        <ele>1235.1</ele>
        <time>2018-08-19T11:04:08.000Z</time>
      </trkpt>
      <trkpt lat="45.30799" lon="4.44365">
        <ele>1235.1</ele>
        <time>2018-08-19T11:04:09.000Z</time>
      </trkpt>
      <trkpt lat="45.30799" lon="4.44365">
        <ele>1235.1</ele>
        <time>2018-08-19T11:04:10.000Z</time>
      </trkpt>
      <trkpt lat="45.30799" lon="4.44365">
        <ele>1235.1</ele>
        <time>2018-08-19T11:04:11.000Z</time>
      </trkpt>
      <trkpt lat="45.30799" lon="4.44365">
        <ele>1235.1</ele>
        <time>2018-08-19T11:04:12.000Z</time>
      </trkpt>
      <trkpt lat="45.30799" lon="4.44365">
        <ele>1235.1</ele>
        <time>2018-08-19T11:04:13.000Z</time>
      </trkpt>
      <trkpt lat="45.30799" lon="4.44365">
        <ele>1235.1</ele>
        <time>2018-08-19T11:04:14.000Z</time>
      </trkpt>
      <trkpt lat="45.30799" lon="4.44365">
        <ele>1235.1</ele>
        <time>2018-08-19T11:04:15.000Z</time>
      </trkpt>
      <trkpt lat="45.30799" lon="4.44365">
        <ele>1235.1</ele>
        <time>2018-08-19T11:04:16.000Z</time>
      </trkpt>
      <trkpt lat="45.30799" lon="4.44365">
        <ele>1235.1</ele>
        <time>2018-08-19T11:04:17.000Z</time>
      </trkpt>
      <trkpt lat="45.30799" lon="4.44365">
        <ele>1235.1</ele>
        <time>2018-08-19T11:04:18.000Z</time>
      </trkpt>
      <trkpt lat="45.30799" lon="4.44365">
        <ele>1235.1</ele>
        <time>2018-08-19T11:04:19.000Z</time>
      </trkpt>
      <trkpt lat="45.30799" lon="4.44365">
        <ele>1235.1</ele>
        <time>2018-08-19T11:04:20.000Z</time>
      </trkpt>
      <trkpt lat="45.30799" lon="4.44365">
        <ele>1235.1</ele>
        <time>2018-08-19T11:04:21.000Z</time>
      </trkpt>
      <trkpt lat="45.30799" lon="4.44365">
        <ele>1235.1</ele>
        <time>2018-08-19T11:04:22.000Z</time>
      </trkpt>
      <trkpt lat="45.30799" lon="4.44365">
        <ele>1235.1</ele>
        <time>2018-08-19T11:04:23.000Z</time>
      </trkpt>
      <trkpt lat="45.30799" lon="4.44365">
        <ele>1235.1</ele>
        <time>2018-08-19T11:04:24.000Z</time>
      </trkpt>
      <trkpt lat="45.30799" lon="4.44365">
        <ele>1235.1</ele>
        <time>2018-08-19T11:04:25.000Z</time>
      </trkpt>
      <trkpt lat="45.30799" lon="4.44365">
        <ele>1235.1</ele>
        <time>2018-08-19T11:04:26.000Z</time>
      </trkpt>
      <trkpt lat="45.30799" lon="4.44365">
        <ele>1235.1</ele>
        <time>2018-08-19T11:04:27.000Z</time>
      </trkpt>
      <trkpt lat="45.30799" lon="4.44365">
        <ele>1235.1</ele>
        <time>2018-08-19T11:04:28.000Z</time>
      </trkpt>
      <trkpt lat="45.30799" lon="4.44365">
        <ele>1235.1</ele>
        <time>2018-08-19T11:04:29.000Z</time>
      </trkpt>
      <trkpt lat="45.30799" lon="4.44365">
        <ele>1235.1</ele>
        <time>2018-08-19T11:04:30.000Z</time>
      </trkpt>
      <trkpt lat="45.30799" lon="4.44365">
        <ele>1235.1</ele>
        <time>2018-08-19T11:04:31.000Z</time>
      </trkpt>
      <trkpt lat="45.30799" lon="4.44365">
        <ele>1235.1</ele>
        <time>2018-08-19T11:04:32.000Z</time>
      </trkpt>
      <trkpt lat="45.30799" lon="4.44365">
        <ele>1235.1</ele>
        <time>2018-08-19T11:04:33.000Z</time>
      </trkpt>
      <trkpt lat="45.30799" lon="4.44365">
        <ele>1235.1</ele>
        <time>2018-08-19T11:04:34.000Z</time>
      </trkpt>
      <trkpt lat="45.30799" lon="4.44365">
        <ele>1235.1</ele>
        <time>2018-08-19T11:04:35.000Z</time>
      </trkpt>
      <trkpt lat="45.30799" lon="4.44365">
        <ele>1235.1</ele>
        <time>2018-08-19T11:04:36.000Z</time>
      </trkpt>
      <trkpt lat="45.30799" lon="4.44365">
        <ele>1235.1</ele>
        <time>2018-08-19T11:04:37.000Z</time>
      </trkpt>
      <trkpt lat="45.30799" lon="4.44365">
        <ele>1235.1</ele>
        <time>2018-08-19T11:04:38.000Z</time>
      </trkpt>
      <trkpt lat="45.30799" lon="4.44365">
        <ele>1235.1</ele>
        <time>2018-08-19T11:04:39.000Z</time>
      </trkpt>
      <trkpt lat="45.30799" lon="4.44365">
        <ele>1235.1</ele>
        <time>2018-08-19T11:04:40.000Z</time>
      </trkpt>
      <trkpt lat="45.30799" lon="4.44365">
        <ele>1235.1</ele>
        <time>2018-08-19T11:04:41.000Z</time>
      </trkpt>
      <trkpt lat="45.30799" lon="4.44365">
        <ele>1235.1</ele>
        <time>2018-08-19T11:04:42.000Z</time>
      </trkpt>
      <trkpt lat="45.30799" lon="4.44365">
        <ele>1235.1</ele>
        <time>2018-08-19T11:04:43.000Z</time>
      </trkpt>
      <trkpt lat="45.30799" lon="4.44365">
        <ele>1235.1</ele>
        <time>2018-08-19T11:04:44.000Z</time>
      </trkpt>
      <trkpt lat="45.30799" lon="4.44365">
        <ele>1235.1</ele>
        <time>2018-08-19T11:04:45.000Z</time>
      </trkpt>
      <trkpt lat="45.30799" lon="4.44365">
        <ele>1235.1</ele>
        <time>2018-08-19T11:04:46.000Z</time>
      </trkpt>
      <trkpt lat="45.30799" lon="4.44365">
        <ele>1235.1</ele>
        <time>2018-08-19T11:04:47.000Z</time>
      </trkpt>
      <trkpt lat="45.30799" lon="4.44365">
        <ele>1235.1</ele>
        <time>2018-08-19T11:04:48.000Z</time>
      </trkpt>
      <trkpt lat="45.30799" lon="4.44365">
        <ele>1235.1</ele>
        <time>2018-08-19T11:04:49.000Z</time>
      </trkpt>
      <trkpt lat="45.30799" lon="4.44365">
        <ele>1235.1</ele>
        <time>2018-08-19T11:04:50.000Z</time>
      </trkpt>
      <trkpt lat="45.30799" lon="4.44365">
        <ele>1235.1</ele>
        <time>2018-08-19T11:04:51.000Z</time>
      </trkpt>
      <trkpt lat="45.30799" lon="4.44365">
        <ele>1235.1</ele>
        <time>2018-08-19T11:04:52.000Z</time>
      </trkpt>
      <trkpt lat="45.30799" lon="4.44365">
        <ele>1235.1</ele>
        <time>2018-08-19T11:04:53.000Z</time>
      </trkpt>
      <trkpt lat="45.30799" lon="4.44365">
        <ele>1235.1</ele>
        <time>2018-08-19T11:04:54.000Z</time>
      </trkpt>
      <trkpt lat="45.30799" lon="4.44365">
        <ele>1235.1</ele>
        <time>2018-08-19T11:04:55.000Z</time>
      </trkpt>
      <trkpt lat="45.30799" lon="4.44365">
        <ele>1235.1</ele>
        <time>2018-08-19T11:04:56.000Z</time>
      </trkpt>
      <trkpt lat="45.30799" lon="4.44365">
        <ele>1235.1</ele>
        <time>2018-08-19T11:04:57.000Z</time>
      </trkpt>
      <trkpt lat="45.30799" lon="4.44365">
        <ele>1235.1</ele>
        <time>2018-08-19T11:04:58.000Z</time>
      </trkpt>
      <trkpt lat="45.30799" lon="4.44365">
        <ele>1235.1</ele>
        <time>2018-08-19T11:04:59.000Z</time>
      </trkpt>
      <trkpt lat="45.30799" lon="4.44365">
        <ele>1235.1</ele>
        <time>2018-08-19T11:05:00.000Z</time>
      </trkpt>
      <trkpt lat="45.30799" lon="4.44365">
        <ele>1235.1</ele>
        <time>2018-08-19T11:05:01.000Z</time>
      </trkpt>
      <trkpt lat="45.30799" lon="4.44365">
        <ele>1235.1</ele>
        <time>2018-08-19T11:05:02.000Z</time>
      </trkpt>
      <trkpt lat="45.30799" lon="4.44365">
        <ele>1235.1</ele>
        <time>2018-08-19T11:05:03.000Z</time>
      </trkpt>
      <trkpt lat="45.30799" lon="4.44365">
        <ele>1235.1</ele>
        <time>2018-08-19T11:05:04.000Z</time>
      </trkpt>
      <trkpt lat="45.30799" lon="4.44365">
        <ele>1235.1</ele>
        <time>2018-08-19T11:05:05.000Z</time>
      </trkpt>
      <trkpt lat="45.30799" lon="4.44365">
        <ele>1235.1</ele>
        <time>2018-08-19T11:05:06.000Z</time>
      </trkpt>
      <trkpt lat="45.30799" lon="4.44365">
        <ele>1235.1</ele>
        <time>2018-08-19T11:05:07.000Z</time>
      </trkpt>
      <trkpt lat="45.30799" lon="4.44365">
        <ele>1235.1</ele>
        <time>2018-08-19T11:05:08.000Z</time>
      </trkpt>
      <trkpt lat="45.30799" lon="4.44365">
        <ele>1235.1</ele>
        <time>2018-08-19T11:05:09.000Z</time>
      </trkpt>
      <trkpt lat="45.30799" lon="4.44365">
        <ele>1235.1</ele>
        <time>2018-08-19T11:05:10.000Z</time>
      </trkpt>
      <trkpt lat="45.30799" lon="4.44365">
        <ele>1235.1</ele>
        <time>2018-08-19T11:05:11.000Z</time>
      </trkpt>
      <trkpt lat="45.30799" lon="4.44365">
        <ele>1235.1</ele>
        <time>2018-08-19T11:05:12.000Z</time>
      </trkpt>
      <trkpt lat="45.30799" lon="4.44365">
        <ele>1235.1</ele>
        <time>2018-08-19T11:05:13.000Z</time>
      </trkpt>
      <trkpt lat="45.30799" lon="4.44365">
        <ele>1235.1</ele>
        <time>2018-08-19T11:05:14.000Z</time>
      </trkpt>
      <trkpt lat="45.30799" lon="4.44365">
        <ele>1235.1</ele>
        <time>2018-08-19T11:05:15.000Z</time>
      </trkpt>
      <trkpt lat="45.30799" lon="4.44365">
        <ele>1235.1</ele>
        <time>2018-08-19T11:05:16.000Z</time>
      </trkpt>
      <trkpt lat="45.30799" lon="4.44365">
        <ele>1235.1</ele>
        <time>2018-08-19T11:05:17.000Z</time>
      </trkpt>
      <trkpt lat="45.30799" lon="4.44365">
        <ele>1235.1</ele>
        <time>2018-08-19T11:05:18.000Z</time>
      </trkpt>
      <trkpt lat="45.30799" lon="4.44365">
        <ele>1235.1</ele>
        <time>2018-08-19T11:05:19.000Z</time>
      </trkpt>
      <trkpt lat="45.30799" lon="4.44365">
        <ele>1235.1</ele>
        <time>2018-08-19T11:05:20.000Z</time>
      </trkpt>
      <trkpt lat="45.30799" lon="4.44365">
        <ele>1235.1</ele>
        <time>2018-08-19T11:05:21.000Z</time>
      </trkpt>
      <trkpt lat="45.30799" lon="4.44365">
        <ele>1235.1</ele>
        <time>2018-08-19T11:05:22.000Z</time>
      </trkpt>
      <trkpt lat="45.30799" lon="4.44365">
        <ele>1235.1</ele>
        <time>2018-08-19T11:05:23.000Z</time>
      </trkpt>
      <trkpt lat="45.30799" lon="4.44365">
        <ele>1235.1</ele>
        <time>2018-08-19T11:05:24.000Z</time>
      </trkpt>
      <trkpt lat="45.30799" lon="4.44365">
        <ele>1235.1</ele>
        <time>2018-08-19T11:05:25.000Z</time>
      </trkpt>
      <trkpt lat="45.30799" lon="4.44365">
        <ele>1235.1</ele>
        <time>2018-08-19T11:05:26.000Z</time>
      </trkpt>
      <trkpt lat="45.30799" lon="4.44365">
        <ele>1235.1</ele>
        <time>2018-08-19T11:05:27.000Z</time>
      </trkpt>
      <trkpt lat="45.30799" lon="4.44365">
        <ele>1235.1</ele>
        <time>2018-08-19T11:05:28.000Z</time>
      </trkpt>
      <trkpt lat="45.30799" lon="4.44365">
        <ele>1235.1</ele>
        <time>2018-08-19T11:05:29.000Z</time>
      </trkpt>
      <trkpt lat="45.30799" lon="4.44365">
        <ele>1235.1</ele>
        <time>2018-08-19T11:05:30.000Z</time>
      </trkpt>
      <trkpt lat="45.30799" lon="4.44365">
        <ele>1235.1</ele>
        <time>2018-08-19T11:05:31.000Z</time>
      </trkpt>
      <trkpt lat="45.30799" lon="4.44365">
        <ele>1235.1</ele>
        <time>2018-08-19T11:05:32.000Z</time>
      </trkpt>
      <trkpt lat="45.30799" lon="4.44365">
        <ele>1235.1</ele>
        <time>2018-08-19T11:05:33.000Z</time>
      </trkpt>
      <trkpt lat="45.30799" lon="4.44365">
        <ele>1235.1</ele>
        <time>2018-08-19T11:05:34.000Z</time>
      </trkpt>
      <trkpt lat="45.30799" lon="4.44365">
        <ele>1235.1</ele>
        <time>2018-08-19T11:05:35.000Z</time>
      </trkpt>
      <trkpt lat="45.30799" lon="4.44365">
        <ele>1235.1</ele>
        <time>2018-08-19T11:05:36.000Z</time>
      </trkpt>
      <trkpt lat="45.30799" lon="4.44365">
        <ele>1235.1</ele>
        <time>2018-08-19T11:05:37.000Z</time>
      </trkpt>
      <trkpt lat="45.30799" lon="4.44365">
        <ele>1235.1</ele>
        <time>2018-08-19T11:05:38.000Z</time>
      </trkpt>
      <trkpt lat="45.30799" lon="4.44365">
        <ele>1235.1</ele>
        <time>2018-08-19T11:05:39.000Z</time>
      </trkpt>
      <trkpt lat="45.30799" lon="4.44365">
        <ele>1235.1</ele>
        <time>2018-08-19T11:05:40.000Z</time>
      </trkpt>
      <trkpt lat="45.30799" lon="4.44365">
        <ele>1235.1</ele>
        <time>2018-08-19T11:05:41.000Z</time>
      </trkpt>
      <trkpt lat="45.30799" lon="4.44365">
        <ele>1235.1</ele>
        <time>2018-08-19T11:05:42.000Z</time>
      </trkpt>
      <trkpt lat="45.30799" lon="4.44365">
        <ele>1235.1</ele>
        <time>2018-08-19T11:05:43.000Z</time>
      </trkpt>
      <trkpt lat="45.30799" lon="4.44365">
        <ele>1235.1</ele>
        <time>2018-08-19T11:05:44.000Z</time>
      </trkpt>
      <trkpt lat="45.30799" lon="4.44365">
        <ele>1235.1</ele>
        <time>2018-08-19T11:05:45.000Z</time>
      </trkpt>
      <trkpt lat="45.30799" lon="4.44365">
        <ele>1235.1</ele>
        <time>2018-08-19T11:05:46.000Z</time>
      </trkpt>
      <trkpt lat="45.30799" lon="4.44365">
        <ele>1235.1</ele>
        <time>2018-08-19T11:05:47.000Z</time>
      </trkpt>
      <trkpt lat="45.30799" lon="4.44365">
        <ele>1235.1</ele>
        <time>2018-08-19T11:05:48.000Z</time>
      </trkpt>
      <trkpt lat="45.30799" lon="4.44365">
        <ele>1235.1</ele>
        <time>2018-08-19T11:05:49.000Z</time>
      </trkpt>
      <trkpt lat="45.30799" lon="4.44365">
        <ele>1235.1</ele>
        <time>2018-08-19T11:05:50.000Z</time>
      </trkpt>
      <trkpt lat="45.30799" lon="4.44365">
        <ele>1235.1</ele>
        <time>2018-08-19T11:05:51.000Z</time>
      </trkpt>
      <trkpt lat="45.30799" lon="4.44365">
        <ele>1235.1</ele>
        <time>2018-08-19T11:05:52.000Z</time>
      </trkpt>
      <trkpt lat="45.30799" lon="4.44365">
        <ele>1235.1</ele>
        <time>2018-08-19T11:05:53.000Z</time>
      </trkpt>
      <trkpt lat="45.30799" lon="4.44365">
        <ele>1235.1</ele>
        <time>2018-08-19T11:05:54.000Z</time>
      </trkpt>
      <trkpt lat="45.30799" lon="4.44365">
        <ele>1235.1</ele>
        <time>2018-08-19T11:05:55.000Z</time>
      </trkpt>
      <trkpt lat="45.30799" lon="4.44365">
        <ele>1235.1</ele>
        <time>2018-08-19T11:05:56.000Z</time>
      </trkpt>
      <trkpt lat="45.30799" lon="4.44365">
        <ele>1235.1</ele>
        <time>2018-08-19T11:05:57.000Z</time>
      </trkpt>
      <trkpt lat="45.30799" lon="4.44365">
        <ele>1235.1</ele>
        <time>2018-08-19T11:05:58.000Z</time>
      </trkpt>
      <trkpt lat="45.30799" lon="4.44365">
        <ele>1235.1</ele>
        <time>2018-08-19T11:05:59.000Z</time>
      </trkpt>
      <trkpt lat="45.30799" lon="4.44365">
        <ele>1235.1</ele>
        <time>2018-08-19T11:06:00.000Z</time>
      </trkpt>
      <trkpt lat="45.30799" lon="4.44365">
        <ele>1235.1</ele>
        <time>2018-08-19T11:06:01.000Z</time>
      </trkpt>
      <trkpt lat="45.30799" lon="4.44365">
        <ele>1235.1</ele>
        <time>2018-08-19T11:06:02.000Z</time>
      </trkpt>
      <trkpt lat="45.30799" lon="4.44365">
        <ele>1235.1</ele>
        <time>2018-08-19T11:06:03.000Z</time>
      </trkpt>
      <trkpt lat="45.30799" lon="4.44365">
        <ele>1235.1</ele>
        <time>2018-08-19T11:06:04.000Z</time>
      </trkpt>
      <trkpt lat="45.30799" lon="4.44365">
        <ele>1235.1</ele>
        <time>2018-08-19T11:06:05.000Z</time>
      </trkpt>
      <trkpt lat="45.30799" lon="4.44365">
        <ele>1235.1</ele>
        <time>2018-08-19T11:06:06.000Z</time>
      </trkpt>
      <trkpt lat="45.30799" lon="4.44365">
        <ele>1235.1</ele>
        <time>2018-08-19T11:06:07.000Z</time>
      </trkpt>
      <trkpt lat="45.30799" lon="4.44365">
        <ele>1235.1</ele>
        <time>2018-08-19T11:06:08.000Z</time>
      </trkpt>
      <trkpt lat="45.30799" lon="4.44365">
        <ele>1235.1</ele>
        <time>2018-08-19T11:06:09.000Z</time>
      </trkpt>
      <trkpt lat="45.30799" lon="4.44365">
        <ele>1235.1</ele>
        <time>2018-08-19T11:06:10.000Z</time>
      </trkpt>
      <trkpt lat="45.30799" lon="4.44365">
        <ele>1235.1</ele>
        <time>2018-08-19T11:06:11.000Z</time>
      </trkpt>
      <trkpt lat="45.30799" lon="4.44365">
        <ele>1235.1</ele>
        <time>2018-08-19T11:06:12.000Z</time>
      </trkpt>
      <trkpt lat="45.30799" lon="4.44365">
        <ele>1235.1</ele>
        <time>2018-08-19T11:06:13.000Z</time>
      </trkpt>
      <trkpt lat="45.30799" lon="4.44365">
        <ele>1235.1</ele>
        <time>2018-08-19T11:06:14.000Z</time>
      </trkpt>
      <trkpt lat="45.30799" lon="4.44365">
        <ele>1235.1</ele>
        <time>2018-08-19T11:06:15.000Z</time>
      </trkpt>
      <trkpt lat="45.30799" lon="4.44365">
        <ele>1235.1</ele>
        <time>2018-08-19T11:06:16.000Z</time>
      </trkpt>
      <trkpt lat="45.30799" lon="4.44365">
        <ele>1235.1</ele>
        <time>2018-08-19T11:06:17.000Z</time>
      </trkpt>
      <trkpt lat="45.30799" lon="4.44365">
        <ele>1235.1</ele>
        <time>2018-08-19T11:06:18.000Z</time>
      </trkpt>
      <trkpt lat="45.30799" lon="4.44365">
        <ele>1235.1</ele>
        <time>2018-08-19T11:06:19.000Z</time>
      </trkpt>
      <trkpt lat="45.30799" lon="4.44365">
        <ele>1235.1</ele>
        <time>2018-08-19T11:06:20.000Z</time>
      </trkpt>
      <trkpt lat="45.30799" lon="4.44365">
        <ele>1235.1</ele>
        <time>2018-08-19T11:06:21.000Z</time>
      </trkpt>
      <trkpt lat="45.30799" lon="4.44365">
        <ele>1235.1</ele>
        <time>2018-08-19T11:06:22.000Z</time>
      </trkpt>
      <trkpt lat="45.30799" lon="4.44365">
        <ele>1235.1</ele>
        <time>2018-08-19T11:06:23.000Z</time>
      </trkpt>
      <trkpt lat="45.30799" lon="4.44365">
        <ele>1235.1</ele>
        <time>2018-08-19T11:06:24.000Z</time>
      </trkpt>
      <trkpt lat="45.30799" lon="4.44365">
        <ele>1235.1</ele>
        <time>2018-08-19T11:06:25.000Z</time>
      </trkpt>
      <trkpt lat="45.30799" lon="4.44365">
        <ele>1235.1</ele>
        <time>2018-08-19T11:06:26.000Z</time>
      </trkpt>
      <trkpt lat="45.30799" lon="4.44365">
        <ele>1235.1</ele>
        <time>2018-08-19T11:06:27.000Z</time>
      </trkpt>
      <trkpt lat="45.30799" lon="4.44365">
        <ele>1235.1</ele>
        <time>2018-08-19T11:06:28.000Z</time>
      </trkpt>
      <trkpt lat="45.30799" lon="4.44365">
        <ele>1235.1</ele>
        <time>2018-08-19T11:06:29.000Z</time>
      </trkpt>
      <trkpt lat="45.30799" lon="4.44365">
        <ele>1235.1</ele>
        <time>2018-08-19T11:06:30.000Z</time>
      </trkpt>
      <trkpt lat="45.30799" lon="4.44365">
        <ele>1235.1</ele>
        <time>2018-08-19T11:06:31.000Z</time>
      </trkpt>
      <trkpt lat="45.30799" lon="4.44365">
        <ele>1235.1</ele>
        <time>2018-08-19T11:06:32.000Z</time>
      </trkpt>
      <trkpt lat="45.30799" lon="4.44365">
        <ele>1235.1</ele>
        <time>2018-08-19T11:06:33.000Z</time>
      </trkpt>
      <trkpt lat="45.30799" lon="4.44365">
        <ele>1235.1</ele>
        <time>2018-08-19T11:06:34.000Z</time>
      </trkpt>
      <trkpt lat="45.30799" lon="4.44365">
        <ele>1235.1</ele>
        <time>2018-08-19T11:06:35.000Z</time>
      </trkpt>
      <trkpt lat="45.30799" lon="4.44365">
        <ele>1235.1</ele>
        <time>2018-08-19T11:06:36.000Z</time>
      </trkpt>
      <trkpt lat="45.30799" lon="4.44365">
        <ele>1235.1</ele>
        <time>2018-08-19T11:06:37.000Z</time>
      </trkpt>
      <trkpt lat="45.30799" lon="4.44365">
        <ele>1235.1</ele>
        <time>2018-08-19T11:06:38.000Z</time>
      </trkpt>
      <trkpt lat="45.30799" lon="4.44365">
        <ele>1235.1</ele>
        <time>2018-08-19T11:06:39.000Z</time>
      </trkpt>
      <trkpt lat="45.30799" lon="4.44365">
        <ele>1235.1</ele>
        <time>2018-08-19T11:06:40.000Z</time>
      </trkpt>
      <trkpt lat="45.30799" lon="4.44365">
        <ele>1235.1</ele>
        <time>2018-08-19T11:06:41.000Z</time>
      </trkpt>
      <trkpt lat="45.30799" lon="4.44365">
        <ele>1235.1</ele>
        <time>2018-08-19T11:06:42.000Z</time>
      </trkpt>
      <trkpt lat="45.30799" lon="4.44365">
        <ele>1235.1</ele>
        <time>2018-08-19T11:06:43.000Z</time>
      </trkpt>
      <trkpt lat="45.30799" lon="4.44365">
        <ele>1235.1</ele>
        <time>2018-08-19T11:06:44.000Z</time>
      </trkpt>
      <trkpt lat="45.30799" lon="4.44365">
        <ele>1235.1</ele>
        <time>2018-08-19T11:06:45.000Z</time>
      </trkpt>
      <trkpt lat="45.30799" lon="4.44365">
        <ele>1235.1</ele>
        <time>2018-08-19T11:06:46.000Z</time>
      </trkpt>
      <trkpt lat="45.30799" lon="4.44365">
        <ele>1235.1</ele>
        <time>2018-08-19T11:06:47.000Z</time>
      </trkpt>
      <trkpt lat="45.30799" lon="4.44365">
        <ele>1235.1</ele>
        <time>2018-08-19T11:06:48.000Z</time>
      </trkpt>
      <trkpt lat="45.30799" lon="4.44365">
        <ele>1235.1</ele>
        <time>2018-08-19T11:06:49.000Z</time>
      </trkpt>
      <trkpt lat="45.30799" lon="4.44365">
        <ele>1235.1</ele>
        <time>2018-08-19T11:06:50.000Z</time>
      </trkpt>
      <trkpt lat="45.30799" lon="4.44365">
        <ele>1235.1</ele>
        <time>2018-08-19T11:06:51.000Z</time>
      </trkpt>
      <trkpt lat="45.30799" lon="4.44365">
        <ele>1235.1</ele>
        <time>2018-08-19T11:06:52.000Z</time>
      </trkpt>
      <trkpt lat="45.30799" lon="4.44365">
        <ele>1235.1</ele>
        <time>2018-08-19T11:06:53.000Z</time>
      </trkpt>
      <trkpt lat="45.30799" lon="4.44365">
        <ele>1235.1</ele>
        <time>2018-08-19T11:06:54.000Z</time>
      </trkpt>
      <trkpt lat="45.30799" lon="4.44365">
        <ele>1235.1</ele>
        <time>2018-08-19T11:06:55.000Z</time>
      </trkpt>
      <trkpt lat="45.30799" lon="4.44365">
        <ele>1235.1</ele>
        <time>2018-08-19T11:06:56.000Z</time>
      </trkpt>
      <trkpt lat="45.30799" lon="4.44365">
        <ele>1235.1</ele>
        <time>2018-08-19T11:06:57.000Z</time>
      </trkpt>
      <trkpt lat="45.30799" lon="4.44365">
        <ele>1235.1</ele>
        <time>2018-08-19T11:06:58.000Z</time>
      </trkpt>
      <trkpt lat="45.30799" lon="4.44365">
        <ele>1235.1</ele>
        <time>2018-08-19T11:06:59.000Z</time>
      </trkpt>
      <trkpt lat="45.30799" lon="4.44365">
        <ele>1235.1</ele>
        <time>2018-08-19T11:07:00.000Z</time>
      </trkpt>
      <trkpt lat="45.30799" lon="4.44365">
        <ele>1235.1</ele>
        <time>2018-08-19T11:07:01.000Z</time>
      </trkpt>
      <trkpt lat="45.30799" lon="4.44365">
        <ele>1235.1</ele>
        <time>2018-08-19T11:07:02.000Z</time>
      </trkpt>
      <trkpt lat="45.30799" lon="4.44365">
        <ele>1235.1</ele>
        <time>2018-08-19T11:07:03.000Z</time>
      </trkpt>
      <trkpt lat="45.30799" lon="4.44365">
        <ele>1235.1</ele>
        <time>2018-08-19T11:07:04.000Z</time>
      </trkpt>
      <trkpt lat="45.30799" lon="4.44365">
        <ele>1235.1</ele>
        <time>2018-08-19T11:07:05.000Z</time>
      </trkpt>
      <trkpt lat="45.30799" lon="4.44365">
        <ele>1235.1</ele>
        <time>2018-08-19T11:07:06.000Z</time>
      </trkpt>
      <trkpt lat="45.30799" lon="4.44365">
        <ele>1235.1</ele>
        <time>2018-08-19T11:07:07.000Z</time>
      </trkpt>
      <trkpt lat="45.30799" lon="4.44365">
        <ele>1235.1</ele>
        <time>2018-08-19T11:07:08.000Z</time>
      </trkpt>
      <trkpt lat="45.30799" lon="4.44365">
        <ele>1235.1</ele>
        <time>2018-08-19T11:07:09.000Z</time>
      </trkpt>
      <trkpt lat="45.30799" lon="4.44365">
        <ele>1235.1</ele>
        <time>2018-08-19T11:07:10.000Z</time>
      </trkpt>
      <trkpt lat="45.30799" lon="4.44365">
        <ele>1235.1</ele>
        <time>2018-08-19T11:07:11.000Z</time>
      </trkpt>
      <trkpt lat="45.30799" lon="4.44365">
        <ele>1235.1</ele>
        <time>2018-08-19T11:07:12.000Z</time>
      </trkpt>
      <trkpt lat="45.30799" lon="4.44365">
        <ele>1235.1</ele>
        <time>2018-08-19T11:07:13.000Z</time>
      </trkpt>
      <trkpt lat="45.30799" lon="4.44365">
        <ele>1235.1</ele>
        <time>2018-08-19T11:07:14.000Z</time>
      </trkpt>
      <trkpt lat="45.30799" lon="4.44365">
        <ele>1235.1</ele>
        <time>2018-08-19T11:07:15.000Z</time>
      </trkpt>
      <trkpt lat="45.30799" lon="4.44365">
        <ele>1235.1</ele>
        <time>2018-08-19T11:07:16.000Z</time>
      </trkpt>
      <trkpt lat="45.30799" lon="4.44365">
        <ele>1235.1</ele>
        <time>2018-08-19T11:07:17.000Z</time>
      </trkpt>
      <trkpt lat="45.30799" lon="4.44365">
        <ele>1235.1</ele>
        <time>2018-08-19T11:07:18.000Z</time>
      </trkpt>
      <trkpt lat="45.30799" lon="4.44365">
        <ele>1235.1</ele>
        <time>2018-08-19T11:07:19.000Z</time>
      </trkpt>
      <trkpt lat="45.30799" lon="4.44365">
        <ele>1235.1</ele>
        <time>2018-08-19T11:07:20.000Z</time>
      </trkpt>
      <trkpt lat="45.30799" lon="4.44365">
        <ele>1235.1</ele>
        <time>2018-08-19T11:07:21.000Z</time>
      </trkpt>
      <trkpt lat="45.30799" lon="4.44365">
        <ele>1235.1</ele>
        <time>2018-08-19T11:07:22.000Z</time>
      </trkpt>
      <trkpt lat="45.30799" lon="4.44365">
        <ele>1235.1</ele>
        <time>2018-08-19T11:07:23.000Z</time>
      </trkpt>
      <trkpt lat="45.30799" lon="4.44365">
        <ele>1235.1</ele>
        <time>2018-08-19T11:07:24.000Z</time>
      </trkpt>
      <trkpt lat="45.30799" lon="4.44365">
        <ele>1235.1</ele>
        <time>2018-08-19T11:07:25.000Z</time>
      </trkpt>
      <trkpt lat="45.30799" lon="4.44365">
        <ele>1235.1</ele>
        <time>2018-08-19T11:07:26.000Z</time>
      </trkpt>
      <trkpt lat="45.30799" lon="4.44365">
        <ele>1235.1</ele>
        <time>2018-08-19T11:07:27.000Z</time>
      </trkpt>
      <trkpt lat="45.30799" lon="4.44365">
        <ele>1235.1</ele>
        <time>2018-08-19T11:07:28.000Z</time>
      </trkpt>
      <trkpt lat="45.30799" lon="4.44365">
        <ele>1235.1</ele>
        <time>2018-08-19T11:07:29.000Z</time>
      </trkpt>
      <trkpt lat="45.30799" lon="4.44365">
        <ele>1235.1</ele>
        <time>2018-08-19T11:07:30.000Z</time>
      </trkpt>
      <trkpt lat="45.30799" lon="4.44365">
        <ele>1235.1</ele>
        <time>2018-08-19T11:07:31.000Z</time>
      </trkpt>
      <trkpt lat="45.30799" lon="4.44365">
        <ele>1235.1</ele>
        <time>2018-08-19T11:07:32.000Z</time>
      </trkpt>
      <trkpt lat="45.30799" lon="4.44365">
        <ele>1235.1</ele>
        <time>2018-08-19T11:07:33.000Z</time>
      </trkpt>
      <trkpt lat="45.30799" lon="4.44365">
        <ele>1235.1</ele>
        <time>2018-08-19T11:07:34.000Z</time>
      </trkpt>
      <trkpt lat="45.30799" lon="4.44365">
        <ele>1235.1</ele>
        <time>2018-08-19T11:07:35.000Z</time>
      </trkpt>
      <trkpt lat="45.30799" lon="4.44365">
        <ele>1235.1</ele>
        <time>2018-08-19T11:07:36.000Z</time>
      </trkpt>
      <trkpt lat="45.30799" lon="4.44365">
        <ele>1235.1</ele>
        <time>2018-08-19T11:07:37.000Z</time>
      </trkpt>
      <trkpt lat="45.30799" lon="4.44365">
        <ele>1235.1</ele>
        <time>2018-08-19T11:07:38.000Z</time>
      </trkpt>
      <trkpt lat="45.30799" lon="4.44365">
        <ele>1235.1</ele>
        <time>2018-08-19T11:07:39.000Z</time>
      </trkpt>
      <trkpt lat="45.30799" lon="4.44365">
        <ele>1235.1</ele>
        <time>2018-08-19T11:07:40.000Z</time>
      </trkpt>
      <trkpt lat="45.30799" lon="4.44365">
        <ele>1235.1</ele>
        <time>2018-08-19T11:07:41.000Z</time>
      </trkpt>
      <trkpt lat="45.30799" lon="4.44365">
        <ele>1235.1</ele>
        <time>2018-08-19T11:07:42.000Z</time>
      </trkpt>
      <trkpt lat="45.30799" lon="4.44365">
        <ele>1235.1</ele>
        <time>2018-08-19T11:07:43.000Z</time>
      </trkpt>
      <trkpt lat="45.30799" lon="4.44365">
        <ele>1235.1</ele>
        <time>2018-08-19T11:07:44.000Z</time>
      </trkpt>
      <trkpt lat="45.30799" lon="4.44365">
        <ele>1235.1</ele>
        <time>2018-08-19T11:07:45.000Z</time>
      </trkpt>
      <trkpt lat="45.30799" lon="4.44365">
        <ele>1235.1</ele>
        <time>2018-08-19T11:07:46.000Z</time>
      </trkpt>
      <trkpt lat="45.30799" lon="4.44365">
        <ele>1235.1</ele>
        <time>2018-08-19T11:07:47.000Z</time>
      </trkpt>
      <trkpt lat="45.30799" lon="4.44365">
        <ele>1235.1</ele>
        <time>2018-08-19T11:07:48.000Z</time>
      </trkpt>
      <trkpt lat="45.30799" lon="4.44365">
        <ele>1235.1</ele>
        <time>2018-08-19T11:07:49.000Z</time>
      </trkpt>
      <trkpt lat="45.30799" lon="4.44365">
        <ele>1235.1</ele>
        <time>2018-08-19T11:07:50.000Z</time>
      </trkpt>
      <trkpt lat="45.30799" lon="4.44365">
        <ele>1235.1</ele>
        <time>2018-08-19T11:07:51.000Z</time>
      </trkpt>
      <trkpt lat="45.30799" lon="4.44365">
        <ele>1235.1</ele>
        <time>2018-08-19T11:07:52.000Z</time>
      </trkpt>
      <trkpt lat="45.30799" lon="4.44365">
        <ele>1235.1</ele>
        <time>2018-08-19T11:07:53.000Z</time>
      </trkpt>
      <trkpt lat="45.30799" lon="4.44365">
        <ele>1235.1</ele>
        <time>2018-08-19T11:07:54.000Z</time>
      </trkpt>
      <trkpt lat="45.30799" lon="4.44365">
        <ele>1235.1</ele>
        <time>2018-08-19T11:07:55.000Z</time>
      </trkpt>
      <trkpt lat="45.30799" lon="4.44365">
        <ele>1235.1</ele>
        <time>2018-08-19T11:07:56.000Z</time>
      </trkpt>
      <trkpt lat="45.30799" lon="4.44365">
        <ele>1235.1</ele>
        <time>2018-08-19T11:07:57.000Z</time>
      </trkpt>
      <trkpt lat="45.30799" lon="4.44365">
        <ele>1235.1</ele>
        <time>2018-08-19T11:07:58.000Z</time>
      </trkpt>
      <trkpt lat="45.30799" lon="4.44365">
        <ele>1235.1</ele>
        <time>2018-08-19T11:07:59.000Z</time>
      </trkpt>
      <trkpt lat="45.30799" lon="4.44365">
        <ele>1235.1</ele>
        <time>2018-08-19T11:08:00.000Z</time>
      </trkpt>
      <trkpt lat="45.30799" lon="4.44365">
        <ele>1235.1</ele>
        <time>2018-08-19T11:08:01.000Z</time>
      </trkpt>
      <trkpt lat="45.30799" lon="4.44365">
        <ele>1235.1</ele>
        <time>2018-08-19T11:08:02.000Z</time>
      </trkpt>
      <trkpt lat="45.30799" lon="4.44365">
        <ele>1235.1</ele>
        <time>2018-08-19T11:08:03.000Z</time>
      </trkpt>
      <trkpt lat="45.30799" lon="4.44365">
        <ele>1235.1</ele>
        <time>2018-08-19T11:08:04.000Z</time>
      </trkpt>
      <trkpt lat="45.30799" lon="4.44365">
        <ele>1235.1</ele>
        <time>2018-08-19T11:08:05.000Z</time>
      </trkpt>
      <trkpt lat="45.30799" lon="4.44365">
        <ele>1235.1</ele>
        <time>2018-08-19T11:08:06.000Z</time>
      </trkpt>
      <trkpt lat="45.30799" lon="4.44365">
        <ele>1235.1</ele>
        <time>2018-08-19T11:08:07.000Z</time>
      </trkpt>
      <trkpt lat="45.30799" lon="4.44365">
        <ele>1235.1</ele>
        <time>2018-08-19T11:08:08.000Z</time>
      </trkpt>
      <trkpt lat="45.30799" lon="4.44365">
        <ele>1235.1</ele>
        <time>2018-08-19T11:08:09.000Z</time>
      </trkpt>
      <trkpt lat="45.30799" lon="4.44365">
        <ele>1235.1</ele>
        <time>2018-08-19T11:08:10.000Z</time>
      </trkpt>
      <trkpt lat="45.30799" lon="4.44365">
        <ele>1235.1</ele>
        <time>2018-08-19T11:08:11.000Z</time>
      </trkpt>
      <trkpt lat="45.30799" lon="4.44365">
        <ele>1235.1</ele>
        <time>2018-08-19T11:08:12.000Z</time>
      </trkpt>
      <trkpt lat="45.30799" lon="4.44365">
        <ele>1235.1</ele>
        <time>2018-08-19T11:08:13.000Z</time>
      </trkpt>
      <trkpt lat="45.30799" lon="4.44365">
        <ele>1235.1</ele>
        <time>2018-08-19T11:08:14.000Z</time>
      </trkpt>
      <trkpt lat="45.30799" lon="4.44365">
        <ele>1235.1</ele>
        <time>2018-08-19T11:08:15.000Z</time>
      </trkpt>
      <trkpt lat="45.30799" lon="4.44365">
        <ele>1235.1</ele>
        <time>2018-08-19T11:08:16.000Z</time>
      </trkpt>
      <trkpt lat="45.30799" lon="4.44365">
        <ele>1235.1</ele>
        <time>2018-08-19T11:08:17.000Z</time>
      </trkpt>
      <trkpt lat="45.30799" lon="4.44365">
        <ele>1235.1</ele>
        <time>2018-08-19T11:08:18.000Z</time>
      </trkpt>
      <trkpt lat="45.30799" lon="4.44365">
        <ele>1235.1</ele>
        <time>2018-08-19T11:08:19.000Z</time>
      </trkpt>
      <trkpt lat="45.30799" lon="4.44365">
        <ele>1235.1</ele>
        <time>2018-08-19T11:08:20.000Z</time>
      </trkpt>
      <trkpt lat="45.30799" lon="4.44365">
        <ele>1235.1</ele>
        <time>2018-08-19T11:08:21.000Z</time>
      </trkpt>
      <trkpt lat="45.30799" lon="4.44365">
        <ele>1235.1</ele>
        <time>2018-08-19T11:08:22.000Z</time>
      </trkpt>
      <trkpt lat="45.30799" lon="4.44365">
        <ele>1235.1</ele>
        <time>2018-08-19T11:08:23.000Z</time>
      </trkpt>
      <trkpt lat="45.30799" lon="4.44365">
        <ele>1235.1</ele>
        <time>2018-08-19T11:08:24.000Z</time>
      </trkpt>
      <trkpt lat="45.30799" lon="4.44365">
        <ele>1235.1</ele>
        <time>2018-08-19T11:08:25.000Z</time>
      </trkpt>
      <trkpt lat="45.30799" lon="4.44365">
        <ele>1235.1</ele>
        <time>2018-08-19T11:08:26.000Z</time>
      </trkpt>
      <trkpt lat="45.30799" lon="4.44365">
        <ele>1235.1</ele>
        <time>2018-08-19T11:08:27.000Z</time>
      </trkpt>
      <trkpt lat="45.30799" lon="4.44365">
        <ele>1235.1</ele>
        <time>2018-08-19T11:08:28.000Z</time>
      </trkpt>
      <trkpt lat="45.30799" lon="4.44365">
        <ele>1235.1</ele>
        <time>2018-08-19T11:08:29.000Z</time>
      </trkpt>
      <trkpt lat="45.30799" lon="4.44365">
        <ele>1235.1</ele>
        <time>2018-08-19T11:08:30.000Z</time>
      </trkpt>
      <trkpt lat="45.30799" lon="4.44365">
        <ele>1235.1</ele>
        <time>2018-08-19T11:08:31.000Z</time>
      </trkpt>
      <trkpt lat="45.30799" lon="4.44365">
        <ele>1235.1</ele>
        <time>2018-08-19T11:08:32.000Z</time>
      </trkpt>
      <trkpt lat="45.30799" lon="4.44365">
        <ele>1235.1</ele>
        <time>2018-08-19T11:08:33.000Z</time>
      </trkpt>
      <trkpt lat="45.30799" lon="4.44365">
        <ele>1235.1</ele>
        <time>2018-08-19T11:08:34.000Z</time>
      </trkpt>
      <trkpt lat="45.30799" lon="4.44365">
        <ele>1235.1</ele>
        <time>2018-08-19T11:08:35.000Z</time>
      </trkpt>
      <trkpt lat="45.30799" lon="4.44365">
        <ele>1235.1</ele>
        <time>2018-08-19T11:08:36.000Z</time>
      </trkpt>
      <trkpt lat="45.30799" lon="4.44365">
        <ele>1235.1</ele>
        <time>2018-08-19T11:08:37.000Z</time>
      </trkpt>
      <trkpt lat="45.30799" lon="4.44365">
        <ele>1235.1</ele>
        <time>2018-08-19T11:08:38.000Z</time>
      </trkpt>
      <trkpt lat="45.30799" lon="4.44365">
        <ele>1235.1</ele>
        <time>2018-08-19T11:08:39.000Z</time>
      </trkpt>
      <trkpt lat="45.30799" lon="4.44365">
        <ele>1235.1</ele>
        <time>2018-08-19T11:08:40.000Z</time>
      </trkpt>
      <trkpt lat="45.30799" lon="4.44365">
        <ele>1235.1</ele>
        <time>2018-08-19T11:08:41.000Z</time>
      </trkpt>
      <trkpt lat="45.30799" lon="4.44365">
        <ele>1235.1</ele>
        <time>2018-08-19T11:08:42.000Z</time>
      </trkpt>
      <trkpt lat="45.30799" lon="4.44365">
        <ele>1235.1</ele>
        <time>2018-08-19T11:08:43.000Z</time>
      </trkpt>
      <trkpt lat="45.30799" lon="4.44365">
        <ele>1235.1</ele>
        <time>2018-08-19T11:08:44.000Z</time>
      </trkpt>
      <trkpt lat="45.30799" lon="4.44365">
        <ele>1235.1</ele>
        <time>2018-08-19T11:08:45.000Z</time>
      </trkpt>
      <trkpt lat="45.30799" lon="4.44365">
        <ele>1235.1</ele>
        <time>2018-08-19T11:08:46.000Z</time>
      </trkpt>
      <trkpt lat="45.30799" lon="4.44365">
        <ele>1235.1</ele>
        <time>2018-08-19T11:08:47.000Z</time>
      </trkpt>
      <trkpt lat="45.30799" lon="4.44365">
        <ele>1235.1</ele>
        <time>2018-08-19T11:08:48.000Z</time>
      </trkpt>
      <trkpt lat="45.30799" lon="4.44365">
        <ele>1235.1</ele>
        <time>2018-08-19T11:08:49.000Z</time>
      </trkpt>
      <trkpt lat="45.30799" lon="4.44365">
        <ele>1235.1</ele>
        <time>2018-08-19T11:08:50.000Z</time>
      </trkpt>
      <trkpt lat="45.30799" lon="4.44365">
        <ele>1235.1</ele>
        <time>2018-08-19T11:08:51.000Z</time>
      </trkpt>
      <trkpt lat="45.30799" lon="4.44365">
        <ele>1235.1</ele>
        <time>2018-08-19T11:08:52.000Z</time>
      </trkpt>
      <trkpt lat="45.30799" lon="4.44365">
        <ele>1235.1</ele>
        <time>2018-08-19T11:08:53.000Z</time>
      </trkpt>
      <trkpt lat="45.30799" lon="4.44365">
        <ele>1235.1</ele>
        <time>2018-08-19T11:08:54.000Z</time>
      </trkpt>
      <trkpt lat="45.30799" lon="4.44365">
        <ele>1235.1</ele>
        <time>2018-08-19T11:08:55.000Z</time>
      </trkpt>
      <trkpt lat="45.30799" lon="4.44365">
        <ele>1235.1</ele>
        <time>2018-08-19T11:08:56.000Z</time>
      </trkpt>
      <trkpt lat="45.30799" lon="4.44365">
        <ele>1235.1</ele>
        <time>2018-08-19T11:08:57.000Z</time>
      </trkpt>
      <trkpt lat="45.30799" lon="4.44365">
        <ele>1235.1</ele>
        <time>2018-08-19T11:08:58.000Z</time>
      </trkpt>
      <trkpt lat="45.30799" lon="4.44365">
        <ele>1235.1</ele>
        <time>2018-08-19T11:08:59.000Z</time>
      </trkpt>
      <trkpt lat="45.30799" lon="4.44365">
        <ele>1235.1</ele>
        <time>2018-08-19T11:09:00.000Z</time>
      </trkpt>
      <trkpt lat="45.30799" lon="4.44365">
        <ele>1235.1</ele>
        <time>2018-08-19T11:09:01.000Z</time>
      </trkpt>
      <trkpt lat="45.30799" lon="4.44365">
        <ele>1235.1</ele>
        <time>2018-08-19T11:09:02.000Z</time>
      </trkpt>
      <trkpt lat="45.30799" lon="4.44365">
        <ele>1235.1</ele>
        <time>2018-08-19T11:09:03.000Z</time>
      </trkpt>
      <trkpt lat="45.30799" lon="4.44365">
        <ele>1235.1</ele>
        <time>2018-08-19T11:09:04.000Z</time>
      </trkpt>
      <trkpt lat="45.30799" lon="4.44365">
        <ele>1235.1</ele>
        <time>2018-08-19T11:09:05.000Z</time>
      </trkpt>
      <trkpt lat="45.30799" lon="4.44365">
        <ele>1235.1</ele>
        <time>2018-08-19T11:09:06.000Z</time>
      </trkpt>
      <trkpt lat="45.30799" lon="4.44365">
        <ele>1235.1</ele>
        <time>2018-08-19T11:09:07.000Z</time>
      </trkpt>
      <trkpt lat="45.30799" lon="4.44365">
        <ele>1235.1</ele>
        <time>2018-08-19T11:09:08.000Z</time>
      </trkpt>
      <trkpt lat="45.30799" lon="4.44365">
        <ele>1235.1</ele>
        <time>2018-08-19T11:09:09.000Z</time>
      </trkpt>
      <trkpt lat="45.30799" lon="4.44365">
        <ele>1235.1</ele>
        <time>2018-08-19T11:09:10.000Z</time>
      </trkpt>
      <trkpt lat="45.30799" lon="4.44365">
        <ele>1235.1</ele>
        <time>2018-08-19T11:09:11.000Z</time>
      </trkpt>
      <trkpt lat="45.30799" lon="4.44365">
        <ele>1235.1</ele>
        <time>2018-08-19T11:09:12.000Z</time>
      </trkpt>
      <trkpt lat="45.30799" lon="4.44365">
        <ele>1235.1</ele>
        <time>2018-08-19T11:09:13.000Z</time>
      </trkpt>
      <trkpt lat="45.30799" lon="4.44365">
        <ele>1235.1</ele>
        <time>2018-08-19T11:09:14.000Z</time>
      </trkpt>
      <trkpt lat="45.30799" lon="4.44365">
        <ele>1235.1</ele>
        <time>2018-08-19T11:09:15.000Z</time>
      </trkpt>
      <trkpt lat="45.30799" lon="4.44365">
        <ele>1235.1</ele>
        <time>2018-08-19T11:09:16.000Z</time>
      </trkpt>
      <trkpt lat="45.30799" lon="4.44365">
        <ele>1235.1</ele>
        <time>2018-08-19T11:09:17.000Z</time>
      </trkpt>
      <trkpt lat="45.30799" lon="4.44365">
        <ele>1235.1</ele>
        <time>2018-08-19T11:09:18.000Z</time>
      </trkpt>
      <trkpt lat="45.30799" lon="4.44365">
        <ele>1235.1</ele>
        <time>2018-08-19T11:09:19.000Z</time>
      </trkpt>
      <trkpt lat="45.30799" lon="4.44365">
        <ele>1235.1</ele>
        <time>2018-08-19T11:09:20.000Z</time>
      </trkpt>
      <trkpt lat="45.30799" lon="4.44365">
        <ele>1235.1</ele>
        <time>2018-08-19T11:09:21.000Z</time>
      </trkpt>
      <trkpt lat="45.30799" lon="4.44365">
        <ele>1235.1</ele>
        <time>2018-08-19T11:09:22.000Z</time>
      </trkpt>
      <trkpt lat="45.30799" lon="4.44365">
        <ele>1235.1</ele>
        <time>2018-08-19T11:09:23.000Z</time>
      </trkpt>
      <trkpt lat="45.30799" lon="4.44365">
        <ele>1235.1</ele>
        <time>2018-08-19T11:09:24.000Z</time>
      </trkpt>
      <trkpt lat="45.30799" lon="4.44365">
        <ele>1235.1</ele>
        <time>2018-08-19T11:09:25.000Z</time>
      </trkpt>
      <trkpt lat="45.30799" lon="4.44365">
        <ele>1235.1</ele>
        <time>2018-08-19T11:09:26.000Z</time>
      </trkpt>
      <trkpt lat="45.30799" lon="4.44365">
        <ele>1235.1</ele>
        <time>2018-08-19T11:09:27.000Z</time>
      </trkpt>
      <trkpt lat="45.30799" lon="4.44365">
        <ele>1235.1</ele>
        <time>2018-08-19T11:09:28.000Z</time>
      </trkpt>
      <trkpt lat="45.30799" lon="4.44365">
        <ele>1235.1</ele>
        <time>2018-08-19T11:09:29.000Z</time>
      </trkpt>
      <trkpt lat="45.30799" lon="4.44365">
        <ele>1235.1</ele>
        <time>2018-08-19T11:09:30.000Z</time>
      </trkpt>
      <trkpt lat="45.30799" lon="4.44365">
        <ele>1235.1</ele>
        <time>2018-08-19T11:09:31.000Z</time>
      </trkpt>
      <trkpt lat="45.30799" lon="4.44365">
        <ele>1235.1</ele>
        <time>2018-08-19T11:09:32.000Z</time>
      </trkpt>
      <trkpt lat="45.30799" lon="4.44365">
        <ele>1235.1</ele>
        <time>2018-08-19T11:09:33.000Z</time>
      </trkpt>
      <trkpt lat="45.30799" lon="4.44365">
        <ele>1235.1</ele>
        <time>2018-08-19T11:09:34.000Z</time>
      </trkpt>
      <trkpt lat="45.30799" lon="4.44365">
        <ele>1235.1</ele>
        <time>2018-08-19T11:09:35.000Z</time>
      </trkpt>
      <trkpt lat="45.30799" lon="4.44365">
        <ele>1235.1</ele>
        <time>2018-08-19T11:09:36.000Z</time>
      </trkpt>
      <trkpt lat="45.30799" lon="4.44365">
        <ele>1235.1</ele>
        <time>2018-08-19T11:09:37.000Z</time>
      </trkpt>
      <trkpt lat="45.30799" lon="4.44365">
        <ele>1235.1</ele>
        <time>2018-08-19T11:09:38.000Z</time>
      </trkpt>
      <trkpt lat="45.30799" lon="4.44365">
        <ele>1235.1</ele>
        <time>2018-08-19T11:09:39.000Z</time>
      </trkpt>
      <trkpt lat="45.30799" lon="4.44365">
        <ele>1235.1</ele>
        <time>2018-08-19T11:09:40.000Z</time>
      </trkpt>
      <trkpt lat="45.30799" lon="4.44365">
        <ele>1235.1</ele>
        <time>2018-08-19T11:09:41.000Z</time>
      </trkpt>
      <trkpt lat="45.30799" lon="4.44365">
        <ele>1235.1</ele>
        <time>2018-08-19T11:09:42.000Z</time>
      </trkpt>
      <trkpt lat="45.30799" lon="4.44365">
        <ele>1235.1</ele>
        <time>2018-08-19T11:09:43.000Z</time>
      </trkpt>
      <trkpt lat="45.30799" lon="4.44365">
        <ele>1235.1</ele>
        <time>2018-08-19T11:09:44.000Z</time>
      </trkpt>
      <trkpt lat="45.30799" lon="4.44365">
        <ele>1235.1</ele>
        <time>2018-08-19T11:09:45.000Z</time>
      </trkpt>
      <trkpt lat="45.30799" lon="4.44365">
        <ele>1235.1</ele>
        <time>2018-08-19T11:09:46.000Z</time>
      </trkpt>
      <trkpt lat="45.30799" lon="4.44365">
        <ele>1235.1</ele>
        <time>2018-08-19T11:09:47.000Z</time>
      </trkpt>
      <trkpt lat="45.30799" lon="4.44365">
        <ele>1235.1</ele>
        <time>2018-08-19T11:09:48.000Z</time>
      </trkpt>
      <trkpt lat="45.30799" lon="4.44365">
        <ele>1235.1</ele>
        <time>2018-08-19T11:09:49.000Z</time>
      </trkpt>
      <trkpt lat="45.30799" lon="4.44365">
        <ele>1235.1</ele>
        <time>2018-08-19T11:09:50.000Z</time>
      </trkpt>
      <trkpt lat="45.30799" lon="4.44365">
        <ele>1235.1</ele>
        <time>2018-08-19T11:09:51.000Z</time>
      </trkpt>
      <trkpt lat="45.30799" lon="4.44365">
        <ele>1235.1</ele>
        <time>2018-08-19T11:09:52.000Z</time>
      </trkpt>
      <trkpt lat="45.30799" lon="4.44365">
        <ele>1235.1</ele>
        <time>2018-08-19T11:09:53.000Z</time>
      </trkpt>
      <trkpt lat="45.30799" lon="4.44365">
        <ele>1235.1</ele>
        <time>2018-08-19T11:09:54.000Z</time>
      </trkpt>
      <trkpt lat="45.30799" lon="4.44365">
        <ele>1235.1</ele>
        <time>2018-08-19T11:09:55.000Z</time>
      </trkpt>
      <trkpt lat="45.30799" lon="4.44365">
        <ele>1235.1</ele>
        <time>2018-08-19T11:09:56.000Z</time>
      </trkpt>
      <trkpt lat="45.30799" lon="4.44365">
        <ele>1235.1</ele>
        <time>2018-08-19T11:09:57.000Z</time>
      </trkpt>
      <trkpt lat="45.30799" lon="4.44365">
        <ele>1235.1</ele>
        <time>2018-08-19T11:09:58.000Z</time>
      </trkpt>
      <trkpt lat="45.30799" lon="4.44365">
        <ele>1235.1</ele>
        <time>2018-08-19T11:09:59.000Z</time>
      </trkpt>
      <trkpt lat="45.30799" lon="4.44365">
        <ele>1235.1</ele>
        <time>2018-08-19T11:10:00.000Z</time>
      </trkpt>
      <trkpt lat="45.30799" lon="4.44365">
        <ele>1235.1</ele>
        <time>2018-08-19T11:10:01.000Z</time>
      </trkpt>
      <trkpt lat="45.30799" lon="4.44365">
        <ele>1235.1</ele>
        <time>2018-08-19T11:10:02.000Z</time>
      </trkpt>
      <trkpt lat="45.30799" lon="4.44365">
        <ele>1235.1</ele>
        <time>2018-08-19T11:10:03.000Z</time>
      </trkpt>
      <trkpt lat="45.30799" lon="4.44365">
        <ele>1235.1</ele>
        <time>2018-08-19T11:10:04.000Z</time>
      </trkpt>
      <trkpt lat="45.30799" lon="4.44365">
        <ele>1235.1</ele>
        <time>2018-08-19T11:10:05.000Z</time>
      </trkpt>
      <trkpt lat="45.30799" lon="4.44365">
        <ele>1235.1</ele>
        <time>2018-08-19T11:10:06.000Z</time>
      </trkpt>
      <trkpt lat="45.30799" lon="4.44365">
        <ele>1235.1</ele>
        <time>2018-08-19T11:10:07.000Z</time>
      </trkpt>
      <trkpt lat="45.30799" lon="4.44365">
        <ele>1235.1</ele>
        <time>2018-08-19T11:10:08.000Z</time>
      </trkpt>
      <trkpt lat="45.30799" lon="4.44365">
        <ele>1235.1</ele>
        <time>2018-08-19T11:10:09.000Z</time>
      </trkpt>
      <trkpt lat="45.30799" lon="4.44365">
        <ele>1235.1</ele>
        <time>2018-08-19T11:10:10.000Z</time>
      </trkpt>
      <trkpt lat="45.30799" lon="4.44365">
        <ele>1235.1</ele>
        <time>2018-08-19T11:10:11.000Z</time>
      </trkpt>
      <trkpt lat="45.30799" lon="4.44365">
        <ele>1235.1</ele>
        <time>2018-08-19T11:10:12.000Z</time>
      </trkpt>
      <trkpt lat="45.30799" lon="4.44365">
        <ele>1235.1</ele>
        <time>2018-08-19T11:10:13.000Z</time>
      </trkpt>
      <trkpt lat="45.30799" lon="4.44365">
        <ele>1235.1</ele>
        <time>2018-08-19T11:10:14.000Z</time>
      </trkpt>
      <trkpt lat="45.30799" lon="4.44365">
        <ele>1235.1</ele>
        <time>2018-08-19T11:10:15.000Z</time>
      </trkpt>
      <trkpt lat="45.30799" lon="4.44365">
        <ele>1235.1</ele>
        <time>2018-08-19T11:10:16.000Z</time>
      </trkpt>
      <trkpt lat="45.30799" lon="4.44365">
        <ele>1235.1</ele>
        <time>2018-08-19T11:10:17.000Z</time>
      </trkpt>
      <trkpt lat="45.30799" lon="4.44365">
        <ele>1235.1</ele>
        <time>2018-08-19T11:10:18.000Z</time>
      </trkpt>
      <trkpt lat="45.30799" lon="4.44365">
        <ele>1235.1</ele>
        <time>2018-08-19T11:10:19.000Z</time>
      </trkpt>
      <trkpt lat="45.30799" lon="4.44365">
        <ele>1235.1</ele>
        <time>2018-08-19T11:10:20.000Z</time>
      </trkpt>
      <trkpt lat="45.30799" lon="4.44365">
        <ele>1235.1</ele>
        <time>2018-08-19T11:10:21.000Z</time>
      </trkpt>
      <trkpt lat="45.30799" lon="4.44365">
        <ele>1235.1</ele>
        <time>2018-08-19T11:10:22.000Z</time>
      </trkpt>
      <trkpt lat="45.30799" lon="4.44365">
        <ele>1235.1</ele>
        <time>2018-08-19T11:10:23.000Z</time>
      </trkpt>
      <trkpt lat="45.30799" lon="4.44365">
        <ele>1235.1</ele>
        <time>2018-08-19T11:10:24.000Z</time>
      </trkpt>
      <trkpt lat="45.30799" lon="4.44365">
        <ele>1235.1</ele>
        <time>2018-08-19T11:10:25.000Z</time>
      </trkpt>
      <trkpt lat="45.30799" lon="4.44365">
        <ele>1235.1</ele>
        <time>2018-08-19T11:10:26.000Z</time>
      </trkpt>
      <trkpt lat="45.30799" lon="4.44365">
        <ele>1235.1</ele>
        <time>2018-08-19T11:10:27.000Z</time>
      </trkpt>
      <trkpt lat="45.30799" lon="4.44365">
        <ele>1235.1</ele>
        <time>2018-08-19T11:10:28.000Z</time>
      </trkpt>
      <trkpt lat="45.30799" lon="4.44365">
        <ele>1235.1</ele>
        <time>2018-08-19T11:10:29.000Z</time>
      </trkpt>
      <trkpt lat="45.30799" lon="4.44365">
        <ele>1235.1</ele>
        <time>2018-08-19T11:10:30.000Z</time>
      </trkpt>
      <trkpt lat="45.30799" lon="4.44365">
        <ele>1235.1</ele>
        <time>2018-08-19T11:10:31.000Z</time>
      </trkpt>
      <trkpt lat="45.30799" lon="4.44365">
        <ele>1235.1</ele>
        <time>2018-08-19T11:10:32.000Z</time>
      </trkpt>
      <trkpt lat="45.30799" lon="4.44365">
        <ele>1235.1</ele>
        <time>2018-08-19T11:10:33.000Z</time>
      </trkpt>
      <trkpt lat="45.30799" lon="4.44365">
        <ele>1235.1</ele>
        <time>2018-08-19T11:10:34.000Z</time>
      </trkpt>
      <trkpt lat="45.30799" lon="4.44365">
        <ele>1235.1</ele>
        <time>2018-08-19T11:10:35.000Z</time>
      </trkpt>
      <trkpt lat="45.30799" lon="4.44365">
        <ele>1235.1</ele>
        <time>2018-08-19T11:10:36.000Z</time>
      </trkpt>
      <trkpt lat="45.30799" lon="4.44365">
        <ele>1235.1</ele>
        <time>2018-08-19T11:10:37.000Z</time>
      </trkpt>
      <trkpt lat="45.30799" lon="4.44365">
        <ele>1235.1</ele>
        <time>2018-08-19T11:10:38.000Z</time>
      </trkpt>
      <trkpt lat="45.30799" lon="4.44365">
        <ele>1235.1</ele>
        <time>2018-08-19T11:10:39.000Z</time>
      </trkpt>
      <trkpt lat="45.30799" lon="4.44365">
        <ele>1235.1</ele>
        <time>2018-08-19T11:10:40.000Z</time>
      </trkpt>
      <trkpt lat="45.30799" lon="4.44365">
        <ele>1235.1</ele>
        <time>2018-08-19T11:10:41.000Z</time>
      </trkpt>
      <trkpt lat="45.30799" lon="4.44365">
        <ele>1235.1</ele>
        <time>2018-08-19T11:10:42.000Z</time>
      </trkpt>
      <trkpt lat="45.30799" lon="4.44365">
        <ele>1235.1</ele>
        <time>2018-08-19T11:10:43.000Z</time>
      </trkpt>
      <trkpt lat="45.30799" lon="4.44365">
        <ele>1235.1</ele>
        <time>2018-08-19T11:10:44.000Z</time>
      </trkpt>
      <trkpt lat="45.30799" lon="4.44365">
        <ele>1235.1</ele>
        <time>2018-08-19T11:10:45.000Z</time>
      </trkpt>
      <trkpt lat="45.30799" lon="4.44365">
        <ele>1235.1</ele>
        <time>2018-08-19T11:10:46.000Z</time>
      </trkpt>
      <trkpt lat="45.30799" lon="4.44365">
        <ele>1235.1</ele>
        <time>2018-08-19T11:10:47.000Z</time>
      </trkpt>
      <trkpt lat="45.30799" lon="4.44365">
        <ele>1235.1</ele>
        <time>2018-08-19T11:10:48.000Z</time>
      </trkpt>
      <trkpt lat="45.30799" lon="4.44365">
        <ele>1235.1</ele>
        <time>2018-08-19T11:10:49.000Z</time>
      </trkpt>
      <trkpt lat="45.30799" lon="4.44365">
        <ele>1235.1</ele>
        <time>2018-08-19T11:10:50.000Z</time>
      </trkpt>
      <trkpt lat="45.30799" lon="4.44365">
        <ele>1235.1</ele>
        <time>2018-08-19T11:10:51.000Z</time>
      </trkpt>
      <trkpt lat="45.30799" lon="4.44365">
        <ele>1235.1</ele>
        <time>2018-08-19T11:10:52.000Z</time>
      </trkpt>
      <trkpt lat="45.30799" lon="4.44365">
        <ele>1235.1</ele>
        <time>2018-08-19T11:10:53.000Z</time>
      </trkpt>
      <trkpt lat="45.30799" lon="4.44365">
        <ele>1235.1</ele>
        <time>2018-08-19T11:10:54.000Z</time>
      </trkpt>
      <trkpt lat="45.30799" lon="4.44365">
        <ele>1235.1</ele>
        <time>2018-08-19T11:10:55.000Z</time>
      </trkpt>
      <trkpt lat="45.30799" lon="4.44365">
        <ele>1235.1</ele>
        <time>2018-08-19T11:10:56.000Z</time>
      </trkpt>
      <trkpt lat="45.30799" lon="4.44365">
        <ele>1235.1</ele>
        <time>2018-08-19T11:10:57.000Z</time>
      </trkpt>
      <trkpt lat="45.30799" lon="4.44365">
        <ele>1235.1</ele>
        <time>2018-08-19T11:10:58.000Z</time>
      </trkpt>
      <trkpt lat="45.30799" lon="4.44365">
        <ele>1235.1</ele>
        <time>2018-08-19T11:10:59.000Z</time>
      </trkpt>
      <trkpt lat="45.30799" lon="4.44365">
        <ele>1235.1</ele>
        <time>2018-08-19T11:11:00.000Z</time>
      </trkpt>
      <trkpt lat="45.30799" lon="4.44365">
        <ele>1235.1</ele>
        <time>2018-08-19T11:11:01.000Z</time>
      </trkpt>
      <trkpt lat="45.30799" lon="4.44365">
        <ele>1235.1</ele>
        <time>2018-08-19T11:11:02.000Z</time>
      </trkpt>
      <trkpt lat="45.30799" lon="4.44365">
        <ele>1235.1</ele>
        <time>2018-08-19T11:11:03.000Z</time>
      </trkpt>
      <trkpt lat="45.30799" lon="4.44365">
        <ele>1235.1</ele>
        <time>2018-08-19T11:11:04.000Z</time>
      </trkpt>
      <trkpt lat="45.30799" lon="4.44365">
        <ele>1235.1</ele>
        <time>2018-08-19T11:11:05.000Z</time>
      </trkpt>
      <trkpt lat="45.30799" lon="4.44365">
        <ele>1235.1</ele>
        <time>2018-08-19T11:11:06.000Z</time>
      </trkpt>
      <trkpt lat="45.30799" lon="4.44365">
        <ele>1235.1</ele>
        <time>2018-08-19T11:11:07.000Z</time>
      </trkpt>
      <trkpt lat="45.30799" lon="4.44365">
        <ele>1235.1</ele>
        <time>2018-08-19T11:11:08.000Z</time>
      </trkpt>
      <trkpt lat="45.30799" lon="4.44365">
        <ele>1235.1</ele>
        <time>2018-08-19T11:11:09.000Z</time>
      </trkpt>
      <trkpt lat="45.30799" lon="4.44365">
        <ele>1235.1</ele>
        <time>2018-08-19T11:11:10.000Z</time>
      </trkpt>
      <trkpt lat="45.30799" lon="4.44365">
        <ele>1235.1</ele>
        <time>2018-08-19T11:11:11.000Z</time>
      </trkpt>
      <trkpt lat="45.30799" lon="4.44365">
        <ele>1235.1</ele>
        <time>2018-08-19T11:11:12.000Z</time>
      </trkpt>
      <trkpt lat="45.30799" lon="4.44365">
        <ele>1235.1</ele>
        <time>2018-08-19T11:11:13.000Z</time>
      </trkpt>
      <trkpt lat="45.30799" lon="4.44365">
        <ele>1235.1</ele>
        <time>2018-08-19T11:11:14.000Z</time>
      </trkpt>
      <trkpt lat="45.30799" lon="4.44365">
        <ele>1235.1</ele>
        <time>2018-08-19T11:11:15.000Z</time>
      </trkpt>
      <trkpt lat="45.30799" lon="4.44365">
        <ele>1235.1</ele>
        <time>2018-08-19T11:11:16.000Z</time>
      </trkpt>
      <trkpt lat="45.30799" lon="4.44365">
        <ele>1235.1</ele>
        <time>2018-08-19T11:11:17.000Z</time>
      </trkpt>
      <trkpt lat="45.30799" lon="4.44365">
        <ele>1235.1</ele>
        <time>2018-08-19T11:11:18.000Z</time>
      </trkpt>
      <trkpt lat="45.30799" lon="4.44365">
        <ele>1235.1</ele>
        <time>2018-08-19T11:11:19.000Z</time>
      </trkpt>
      <trkpt lat="45.30799" lon="4.44365">
        <ele>1235.1</ele>
        <time>2018-08-19T11:11:20.000Z</time>
      </trkpt>
      <trkpt lat="45.30799" lon="4.44365">
        <ele>1235.1</ele>
        <time>2018-08-19T11:11:21.000Z</time>
      </trkpt>
      <trkpt lat="45.30799" lon="4.44365">
        <ele>1235.1</ele>
        <time>2018-08-19T11:11:22.000Z</time>
      </trkpt>
      <trkpt lat="45.30799" lon="4.44365">
        <ele>1235.1</ele>
        <time>2018-08-19T11:11:23.000Z</time>
      </trkpt>
      <trkpt lat="45.30799" lon="4.44365">
        <ele>1235.1</ele>
        <time>2018-08-19T11:11:24.000Z</time>
      </trkpt>
      <trkpt lat="45.30799" lon="4.44365">
        <ele>1235.1</ele>
        <time>2018-08-19T11:11:25.000Z</time>
      </trkpt>
      <trkpt lat="45.30799" lon="4.44365">
        <ele>1235.1</ele>
        <time>2018-08-19T11:11:26.000Z</time>
      </trkpt>
      <trkpt lat="45.30799" lon="4.44365">
        <ele>1235.1</ele>
        <time>2018-08-19T11:11:27.000Z</time>
      </trkpt>
      <trkpt lat="45.30799" lon="4.44365">
        <ele>1235.1</ele>
        <time>2018-08-19T11:11:28.000Z</time>
      </trkpt>
      <trkpt lat="45.30799" lon="4.44365">
        <ele>1235.1</ele>
        <time>2018-08-19T11:11:29.000Z</time>
      </trkpt>
      <trkpt lat="45.30799" lon="4.44365">
        <ele>1235.1</ele>
        <time>2018-08-19T11:11:30.000Z</time>
      </trkpt>
      <trkpt lat="45.30799" lon="4.44365">
        <ele>1235.1</ele>
        <time>2018-08-19T11:11:31.000Z</time>
      </trkpt>
      <trkpt lat="45.30799" lon="4.44365">
        <ele>1235.1</ele>
        <time>2018-08-19T11:11:32.000Z</time>
      </trkpt>
      <trkpt lat="45.30799" lon="4.44365">
        <ele>1235.1</ele>
        <time>2018-08-19T11:11:33.000Z</time>
      </trkpt>
      <trkpt lat="45.30799" lon="4.44365">
        <ele>1235.1</ele>
        <time>2018-08-19T11:11:34.000Z</time>
      </trkpt>
      <trkpt lat="45.30799" lon="4.44365">
        <ele>1235.1</ele>
        <time>2018-08-19T11:11:35.000Z</time>
      </trkpt>
      <trkpt lat="45.30799" lon="4.44365">
        <ele>1235.1</ele>
        <time>2018-08-19T11:11:36.000Z</time>
      </trkpt>
      <trkpt lat="45.30799" lon="4.44365">
        <ele>1235.1</ele>
        <time>2018-08-19T11:11:37.000Z</time>
      </trkpt>
      <trkpt lat="45.30799" lon="4.44365">
        <ele>1235.1</ele>
        <time>2018-08-19T11:11:38.000Z</time>
      </trkpt>
      <trkpt lat="45.30799" lon="4.44365">
        <ele>1235.1</ele>
        <time>2018-08-19T11:11:39.000Z</time>
      </trkpt>
      <trkpt lat="45.30799" lon="4.44365">
        <ele>1235.1</ele>
        <time>2018-08-19T11:11:40.000Z</time>
      </trkpt>
      <trkpt lat="45.30799" lon="4.44365">
        <ele>1235.1</ele>
        <time>2018-08-19T11:11:41.000Z</time>
      </trkpt>
      <trkpt lat="45.30799" lon="4.44365">
        <ele>1235.1</ele>
        <time>2018-08-19T11:11:42.000Z</time>
      </trkpt>
      <trkpt lat="45.30799" lon="4.44365">
        <ele>1235.1</ele>
        <time>2018-08-19T11:11:43.000Z</time>
      </trkpt>
      <trkpt lat="45.30799" lon="4.44365">
        <ele>1235.1</ele>
        <time>2018-08-19T11:11:44.000Z</time>
      </trkpt>
      <trkpt lat="45.30799" lon="4.44365">
        <ele>1235.1</ele>
        <time>2018-08-19T11:11:45.000Z</time>
      </trkpt>
      <trkpt lat="45.30799" lon="4.44365">
        <ele>1235.1</ele>
        <time>2018-08-19T11:11:46.000Z</time>
      </trkpt>
      <trkpt lat="45.30799" lon="4.44365">
        <ele>1235.1</ele>
        <time>2018-08-19T11:11:47.000Z</time>
      </trkpt>
      <trkpt lat="45.30799" lon="4.44365">
        <ele>1235.1</ele>
        <time>2018-08-19T11:11:48.000Z</time>
      </trkpt>
      <trkpt lat="45.30799" lon="4.44365">
        <ele>1235.1</ele>
        <time>2018-08-19T11:11:49.000Z</time>
      </trkpt>
      <trkpt lat="45.30799" lon="4.44365">
        <ele>1235.1</ele>
        <time>2018-08-19T11:11:50.000Z</time>
      </trkpt>
      <trkpt lat="45.30799" lon="4.44365">
        <ele>1235.1</ele>
        <time>2018-08-19T11:11:51.000Z</time>
      </trkpt>
      <trkpt lat="45.30799" lon="4.44365">
        <ele>1235.1</ele>
        <time>2018-08-19T11:11:52.000Z</time>
      </trkpt>
      <trkpt lat="45.30799" lon="4.44365">
        <ele>1235.1</ele>
        <time>2018-08-19T11:11:53.000Z</time>
      </trkpt>
      <trkpt lat="45.30799" lon="4.44365">
        <ele>1235.1</ele>
        <time>2018-08-19T11:11:54.000Z</time>
      </trkpt>
      <trkpt lat="45.30799" lon="4.44365">
        <ele>1235.1</ele>
        <time>2018-08-19T11:11:55.000Z</time>
      </trkpt>
      <trkpt lat="45.30799" lon="4.44365">
        <ele>1235.1</ele>
        <time>2018-08-19T11:11:56.000Z</time>
      </trkpt>
      <trkpt lat="45.30799" lon="4.44365">
        <ele>1235.1</ele>
        <time>2018-08-19T11:11:57.000Z</time>
      </trkpt>
      <trkpt lat="45.30799" lon="4.44365">
        <ele>1235.1</ele>
        <time>2018-08-19T11:11:58.000Z</time>
      </trkpt>
      <trkpt lat="45.30799" lon="4.44365">
        <ele>1235.1</ele>
        <time>2018-08-19T11:11:59.000Z</time>
      </trkpt>
      <trkpt lat="45.30799" lon="4.44365">
        <ele>1235.1</ele>
        <time>2018-08-19T11:12:00.000Z</time>
      </trkpt>
      <trkpt lat="45.30799" lon="4.44365">
        <ele>1235.1</ele>
        <time>2018-08-19T11:12:01.000Z</time>
      </trkpt>
      <trkpt lat="45.30799" lon="4.44365">
        <ele>1235.1</ele>
        <time>2018-08-19T11:12:02.000Z</time>
      </trkpt>
      <trkpt lat="45.30799" lon="4.44365">
        <ele>1235.1</ele>
        <time>2018-08-19T11:12:03.000Z</time>
      </trkpt>
      <trkpt lat="45.30799" lon="4.44365">
        <ele>1235.1</ele>
        <time>2018-08-19T11:12:04.000Z</time>
      </trkpt>
      <trkpt lat="45.30799" lon="4.44365">
        <ele>1235.1</ele>
        <time>2018-08-19T11:12:05.000Z</time>
      </trkpt>
      <trkpt lat="45.30799" lon="4.44365">
        <ele>1235.1</ele>
        <time>2018-08-19T11:12:06.000Z</time>
      </trkpt>
      <trkpt lat="45.30799" lon="4.44365">
        <ele>1235.1</ele>
        <time>2018-08-19T11:12:07.000Z</time>
      </trkpt>
      <trkpt lat="45.30799" lon="4.44365">
        <ele>1235.1</ele>
        <time>2018-08-19T11:12:08.000Z</time>
      </trkpt>
      <trkpt lat="45.30799" lon="4.44365">
        <ele>1235.1</ele>
        <time>2018-08-19T11:12:09.000Z</time>
      </trkpt>
      <trkpt lat="45.30799" lon="4.44365">
        <ele>1235.1</ele>
        <time>2018-08-19T11:12:10.000Z</time>
      </trkpt>
      <trkpt lat="45.30799" lon="4.44365">
        <ele>1235.1</ele>
        <time>2018-08-19T11:12:11.000Z</time>
      </trkpt>
      <trkpt lat="45.30799" lon="4.44365">
        <ele>1235.1</ele>
        <time>2018-08-19T11:12:12.000Z</time>
      </trkpt>
      <trkpt lat="45.30799" lon="4.44365">
        <ele>1235.1</ele>
        <time>2018-08-19T11:12:13.000Z</time>
      </trkpt>
      <trkpt lat="45.30799" lon="4.44365">
        <ele>1235.1</ele>
        <time>2018-08-19T11:12:14.000Z</time>
      </trkpt>
      <trkpt lat="45.30799" lon="4.44365">
        <ele>1235.1</ele>
        <time>2018-08-19T11:12:15.000Z</time>
      </trkpt>
      <trkpt lat="45.30799" lon="4.44365">
        <ele>1235.1</ele>
        <time>2018-08-19T11:12:16.000Z</time>
      </trkpt>
      <trkpt lat="45.30799" lon="4.44365">
        <ele>1235.1</ele>
        <time>2018-08-19T11:12:17.000Z</time>
      </trkpt>
      <trkpt lat="45.30799" lon="4.44365">
        <ele>1235.1</ele>
        <time>2018-08-19T11:12:18.000Z</time>
      </trkpt>
      <trkpt lat="45.30799" lon="4.44365">
        <ele>1235.1</ele>
        <time>2018-08-19T11:12:19.000Z</time>
      </trkpt>
      <trkpt lat="45.30799" lon="4.44365">
        <ele>1235.1</ele>
        <time>2018-08-19T11:12:20.000Z</time>
      </trkpt>
      <trkpt lat="45.30799" lon="4.44365">
        <ele>1235.1</ele>
        <time>2018-08-19T11:12:21.000Z</time>
      </trkpt>
      <trkpt lat="45.30799" lon="4.44365">
        <ele>1235.1</ele>
        <time>2018-08-19T11:12:22.000Z</time>
      </trkpt>
      <trkpt lat="45.30799" lon="4.44365">
        <ele>1235.1</ele>
        <time>2018-08-19T11:12:23.000Z</time>
      </trkpt>
      <trkpt lat="45.30799" lon="4.44365">
        <ele>1235.1</ele>
        <time>2018-08-19T11:12:24.000Z</time>
      </trkpt>
      <trkpt lat="45.30799" lon="4.44365">
        <ele>1235.1</ele>
        <time>2018-08-19T11:12:25.000Z</time>
      </trkpt>
      <trkpt lat="45.30799" lon="4.44365">
        <ele>1235.1</ele>
        <time>2018-08-19T11:12:26.000Z</time>
      </trkpt>
      <trkpt lat="45.30799" lon="4.44365">
        <ele>1235.1</ele>
        <time>2018-08-19T11:12:27.000Z</time>
      </trkpt>
      <trkpt lat="45.30799" lon="4.44365">
        <ele>1235.1</ele>
        <time>2018-08-19T11:12:28.000Z</time>
      </trkpt>
      <trkpt lat="45.30799" lon="4.44365">
        <ele>1235.1</ele>
        <time>2018-08-19T11:12:29.000Z</time>
      </trkpt>
      <trkpt lat="45.30799" lon="4.44365">
        <ele>1235.1</ele>
        <time>2018-08-19T11:12:30.000Z</time>
      </trkpt>
      <trkpt lat="45.30799" lon="4.44365">
        <ele>1235.1</ele>
        <time>2018-08-19T11:12:31.000Z</time>
      </trkpt>
      <trkpt lat="45.30799" lon="4.44365">
        <ele>1235.1</ele>
        <time>2018-08-19T11:12:32.000Z</time>
      </trkpt>
      <trkpt lat="45.30799" lon="4.44365">
        <ele>1235.1</ele>
        <time>2018-08-19T11:12:33.000Z</time>
      </trkpt>
      <trkpt lat="45.30799" lon="4.44365">
        <ele>1235.1</ele>
        <time>2018-08-19T11:12:34.000Z</time>
      </trkpt>
      <trkpt lat="45.30799" lon="4.44365">
        <ele>1235.1</ele>
        <time>2018-08-19T11:12:35.000Z</time>
      </trkpt>
      <trkpt lat="45.30799" lon="4.44365">
        <ele>1235.1</ele>
        <time>2018-08-19T11:12:36.000Z</time>
      </trkpt>
      <trkpt lat="45.30799" lon="4.44365">
        <ele>1235.1</ele>
        <time>2018-08-19T11:12:37.000Z</time>
      </trkpt>
      <trkpt lat="45.30799" lon="4.44365">
        <ele>1235.1</ele>
        <time>2018-08-19T11:12:38.000Z</time>
      </trkpt>
      <trkpt lat="45.30799" lon="4.44365">
        <ele>1235.1</ele>
        <time>2018-08-19T11:12:39.000Z</time>
      </trkpt>
      <trkpt lat="45.30799" lon="4.44365">
        <ele>1235.1</ele>
        <time>2018-08-19T11:12:40.000Z</time>
      </trkpt>
      <trkpt lat="45.30799" lon="4.44365">
        <ele>1235.1</ele>
        <time>2018-08-19T11:12:41.000Z</time>
      </trkpt>
      <trkpt lat="45.30799" lon="4.44365">
        <ele>1235.1</ele>
        <time>2018-08-19T11:12:42.000Z</time>
      </trkpt>
      <trkpt lat="45.30799" lon="4.44365">
        <ele>1235.1</ele>
        <time>2018-08-19T11:12:43.000Z</time>
      </trkpt>
      <trkpt lat="45.30799" lon="4.44365">
        <ele>1235.1</ele>
        <time>2018-08-19T11:12:44.000Z</time>
      </trkpt>
      <trkpt lat="45.30799" lon="4.44365">
        <ele>1235.1</ele>
        <time>2018-08-19T11:12:45.000Z</time>
      </trkpt>
      <trkpt lat="45.30799" lon="4.44365">
        <ele>1235.1</ele>
        <time>2018-08-19T11:12:46.000Z</time>
      </trkpt>
      <trkpt lat="45.30799" lon="4.44365">
        <ele>1235.1</ele>
        <time>2018-08-19T11:12:47.000Z</time>
      </trkpt>
      <trkpt lat="45.30799" lon="4.44365">
        <ele>1235.1</ele>
        <time>2018-08-19T11:12:48.000Z</time>
      </trkpt>
      <trkpt lat="45.30799" lon="4.44365">
        <ele>1235.1</ele>
        <time>2018-08-19T11:12:49.000Z</time>
      </trkpt>
      <trkpt lat="45.30799" lon="4.44365">
        <ele>1235.1</ele>
        <time>2018-08-19T11:12:50.000Z</time>
      </trkpt>
      <trkpt lat="45.30799" lon="4.44365">
        <ele>1235.1</ele>
        <time>2018-08-19T11:12:51.000Z</time>
      </trkpt>
      <trkpt lat="45.30799" lon="4.44365">
        <ele>1235.1</ele>
        <time>2018-08-19T11:12:52.000Z</time>
      </trkpt>
      <trkpt lat="45.30799" lon="4.44365">
        <ele>1235.1</ele>
        <time>2018-08-19T11:12:53.000Z</time>
      </trkpt>
      <trkpt lat="45.30799" lon="4.44365">
        <ele>1235.1</ele>
        <time>2018-08-19T11:12:54.000Z</time>
      </trkpt>
      <trkpt lat="45.30799" lon="4.44365">
        <ele>1235.1</ele>
        <time>2018-08-19T11:12:55.000Z</time>
      </trkpt>
      <trkpt lat="45.30799" lon="4.44365">
        <ele>1235.1</ele>
        <time>2018-08-19T11:12:56.000Z</time>
      </trkpt>
      <trkpt lat="45.30799" lon="4.44365">
        <ele>1235.1</ele>
        <time>2018-08-19T11:12:57.000Z</time>
      </trkpt>
      <trkpt lat="45.30799" lon="4.44365">
        <ele>1235.1</ele>
        <time>2018-08-19T11:12:58.000Z</time>
      </trkpt>
      <trkpt lat="45.30799" lon="4.44365">
        <ele>1235.1</ele>
        <time>2018-08-19T11:12:59.000Z</time>
      </trkpt>
      <trkpt lat="45.30799" lon="4.44365">
        <ele>1235.1</ele>
        <time>2018-08-19T11:13:00.000Z</time>
      </trkpt>
      <trkpt lat="45.30799" lon="4.44365">
        <ele>1235.1</ele>
        <time>2018-08-19T11:13:01.000Z</time>
      </trkpt>
      <trkpt lat="45.30799" lon="4.44365">
        <ele>1235.1</ele>
        <time>2018-08-19T11:13:02.000Z</time>
      </trkpt>
      <trkpt lat="45.30799" lon="4.44365">
        <ele>1235.1</ele>
        <time>2018-08-19T11:13:03.000Z</time>
      </trkpt>
      <trkpt lat="45.30799" lon="4.44365">
        <ele>1235.1</ele>
        <time>2018-08-19T11:13:04.000Z</time>
      </trkpt>
      <trkpt lat="45.30799" lon="4.44365">
        <ele>1235.1</ele>
        <time>2018-08-19T11:13:05.000Z</time>
      </trkpt>
      <trkpt lat="45.30799" lon="4.44365">
        <ele>1235.1</ele>
        <time>2018-08-19T11:13:06.000Z</time>
      </trkpt>
      <trkpt lat="45.30799" lon="4.44365">
        <ele>1235.1</ele>
        <time>2018-08-19T11:13:07.000Z</time>
      </trkpt>
      <trkpt lat="45.30799" lon="4.44365">
        <ele>1235.1</ele>
        <time>2018-08-19T11:13:08.000Z</time>
      </trkpt>
      <trkpt lat="45.30799" lon="4.44365">
        <ele>1235.1</ele>
        <time>2018-08-19T11:13:09.000Z</time>
      </trkpt>
      <trkpt lat="45.30799" lon="4.44365">
        <ele>1235.1</ele>
        <time>2018-08-19T11:13:10.000Z</time>
      </trkpt>
      <trkpt lat="45.30799" lon="4.44365">
        <ele>1235.1</ele>
        <time>2018-08-19T11:13:11.000Z</time>
      </trkpt>
      <trkpt lat="45.30799" lon="4.44365">
        <ele>1235.1</ele>
        <time>2018-08-19T11:13:12.000Z</time>
      </trkpt>
      <trkpt lat="45.30799" lon="4.44365">
        <ele>1235.1</ele>
        <time>2018-08-19T11:13:13.000Z</time>
      </trkpt>
      <trkpt lat="45.30799" lon="4.44365">
        <ele>1235.1</ele>
        <time>2018-08-19T11:13:14.000Z</time>
      </trkpt>
      <trkpt lat="45.30799" lon="4.44365">
        <ele>1235.1</ele>
        <time>2018-08-19T11:13:15.000Z</time>
      </trkpt>
      <trkpt lat="45.30799" lon="4.44365">
        <ele>1235.1</ele>
        <time>2018-08-19T11:13:16.000Z</time>
      </trkpt>
      <trkpt lat="45.30799" lon="4.44365">
        <ele>1235.1</ele>
        <time>2018-08-19T11:13:17.000Z</time>
      </trkpt>
      <trkpt lat="45.30799" lon="4.44365">
        <ele>1235.1</ele>
        <time>2018-08-19T11:13:18.000Z</time>
      </trkpt>
      <trkpt lat="45.30799" lon="4.44365">
        <ele>1235.1</ele>
        <time>2018-08-19T11:13:19.000Z</time>
      </trkpt>
      <trkpt lat="45.30799" lon="4.44365">
        <ele>1235.1</ele>
        <time>2018-08-19T11:13:20.000Z</time>
      </trkpt>
      <trkpt lat="45.30799" lon="4.44365">
        <ele>1235.1</ele>
        <time>2018-08-19T11:13:21.000Z</time>
      </trkpt>
      <trkpt lat="45.30799" lon="4.44365">
        <ele>1235.1</ele>
        <time>2018-08-19T11:13:22.000Z</time>
      </trkpt>
      <trkpt lat="45.30799" lon="4.44365">
        <ele>1235.1</ele>
        <time>2018-08-19T11:13:23.000Z</time>
      </trkpt>
      <trkpt lat="45.30799" lon="4.44365">
        <ele>1235.1</ele>
        <time>2018-08-19T11:13:24.000Z</time>
      </trkpt>
      <trkpt lat="45.30799" lon="4.44365">
        <ele>1235.1</ele>
        <time>2018-08-19T11:13:25.000Z</time>
      </trkpt>
      <trkpt lat="45.30799" lon="4.44365">
        <ele>1235.1</ele>
        <time>2018-08-19T11:13:26.000Z</time>
      </trkpt>
      <trkpt lat="45.30799" lon="4.44365">
        <ele>1235.1</ele>
        <time>2018-08-19T11:13:27.000Z</time>
      </trkpt>
      <trkpt lat="45.30799" lon="4.44365">
        <ele>1235.1</ele>
        <time>2018-08-19T11:13:28.000Z</time>
      </trkpt>
      <trkpt lat="45.30799" lon="4.44365">
        <ele>1235.1</ele>
        <time>2018-08-19T11:13:29.000Z</time>
      </trkpt>
      <trkpt lat="45.30799" lon="4.44365">
        <ele>1235.1</ele>
        <time>2018-08-19T11:13:30.000Z</time>
      </trkpt>
      <trkpt lat="45.30799" lon="4.44365">
        <ele>1235.1</ele>
        <time>2018-08-19T11:13:31.000Z</time>
      </trkpt>
      <trkpt lat="45.30799" lon="4.44365">
        <ele>1235.1</ele>
        <time>2018-08-19T11:13:32.000Z</time>
      </trkpt>
      <trkpt lat="45.30799" lon="4.44365">
        <ele>1235.1</ele>
        <time>2018-08-19T11:13:33.000Z</time>
      </trkpt>
      <trkpt lat="45.30799" lon="4.44365">
        <ele>1235.1</ele>
        <time>2018-08-19T11:13:34.000Z</time>
      </trkpt>
      <trkpt lat="45.30799" lon="4.44365">
        <ele>1235.1</ele>
        <time>2018-08-19T11:13:35.000Z</time>
      </trkpt>
      <trkpt lat="45.30799" lon="4.44365">
        <ele>1235.1</ele>
        <time>2018-08-19T11:13:36.000Z</time>
      </trkpt>
      <trkpt lat="45.30799" lon="4.44365">
        <ele>1235.1</ele>
        <time>2018-08-19T11:13:37.000Z</time>
      </trkpt>
      <trkpt lat="45.30799" lon="4.44365">
        <ele>1235.1</ele>
        <time>2018-08-19T11:13:38.000Z</time>
      </trkpt>
      <trkpt lat="45.30799" lon="4.44365">
        <ele>1235.1</ele>
        <time>2018-08-19T11:13:39.000Z</time>
      </trkpt>
      <trkpt lat="45.30799" lon="4.44365">
        <ele>1235.1</ele>
        <time>2018-08-19T11:13:40.000Z</time>
      </trkpt>
      <trkpt lat="45.30799" lon="4.44365">
        <ele>1235.1</ele>
        <time>2018-08-19T11:13:41.000Z</time>
      </trkpt>
      <trkpt lat="45.30799" lon="4.44365">
        <ele>1235.1</ele>
        <time>2018-08-19T11:13:42.000Z</time>
      </trkpt>
      <trkpt lat="45.30799" lon="4.44365">
        <ele>1235.1</ele>
        <time>2018-08-19T11:13:43.000Z</time>
      </trkpt>
      <trkpt lat="45.30799" lon="4.44365">
        <ele>1235.1</ele>
        <time>2018-08-19T11:13:44.000Z</time>
      </trkpt>
      <trkpt lat="45.30799" lon="4.44365">
        <ele>1235.1</ele>
        <time>2018-08-19T11:13:45.000Z</time>
      </trkpt>
      <trkpt lat="45.30799" lon="4.44365">
        <ele>1235.1</ele>
        <time>2018-08-19T11:13:46.000Z</time>
      </trkpt>
      <trkpt lat="45.30799" lon="4.44365">
        <ele>1235.1</ele>
        <time>2018-08-19T11:13:47.000Z</time>
      </trkpt>
      <trkpt lat="45.30799" lon="4.44365">
        <ele>1235.1</ele>
        <time>2018-08-19T11:13:48.000Z</time>
      </trkpt>
      <trkpt lat="45.30799" lon="4.44365">
        <ele>1235.1</ele>
        <time>2018-08-19T11:13:49.000Z</time>
      </trkpt>
      <trkpt lat="45.30799" lon="4.44365">
        <ele>1235.1</ele>
        <time>2018-08-19T11:13:50.000Z</time>
      </trkpt>
      <trkpt lat="45.30799" lon="4.44365">
        <ele>1235.1</ele>
        <time>2018-08-19T11:13:51.000Z</time>
      </trkpt>
      <trkpt lat="45.30799" lon="4.44365">
        <ele>1235.1</ele>
        <time>2018-08-19T11:13:52.000Z</time>
      </trkpt>
      <trkpt lat="45.30799" lon="4.44365">
        <ele>1235.1</ele>
        <time>2018-08-19T11:13:53.000Z</time>
      </trkpt>
      <trkpt lat="45.30799" lon="4.44365">
        <ele>1235.1</ele>
        <time>2018-08-19T11:13:54.000Z</time>
      </trkpt>
      <trkpt lat="45.30799" lon="4.44365">
        <ele>1235.1</ele>
        <time>2018-08-19T11:13:55.000Z</time>
      </trkpt>
      <trkpt lat="45.30799" lon="4.44365">
        <ele>1235.1</ele>
        <time>2018-08-19T11:13:56.000Z</time>
      </trkpt>
      <trkpt lat="45.30799" lon="4.44365">
        <ele>1235.1</ele>
        <time>2018-08-19T11:13:57.000Z</time>
      </trkpt>
      <trkpt lat="45.30799" lon="4.44365">
        <ele>1235.1</ele>
        <time>2018-08-19T11:13:58.000Z</time>
      </trkpt>
      <trkpt lat="45.30799" lon="4.44365">
        <ele>1235.1</ele>
        <time>2018-08-19T11:13:59.000Z</time>
      </trkpt>
      <trkpt lat="45.30799" lon="4.44365">
        <ele>1235.1</ele>
        <time>2018-08-19T11:14:00.000Z</time>
      </trkpt>
      <trkpt lat="45.30799" lon="4.44365">
        <ele>1235.1</ele>
        <time>2018-08-19T11:14:01.000Z</time>
      </trkpt>
      <trkpt lat="45.30799" lon="4.44365">
        <ele>1235.1</ele>
        <time>2018-08-19T11:14:02.000Z</time>
      </trkpt>
      <trkpt lat="45.30799" lon="4.44365">
        <ele>1235.1</ele>
        <time>2018-08-19T11:14:03.000Z</time>
      </trkpt>
      <trkpt lat="45.30799" lon="4.44365">
        <ele>1235.1</ele>
        <time>2018-08-19T11:14:04.000Z</time>
      </trkpt>
      <trkpt lat="45.30799" lon="4.44365">
        <ele>1235.1</ele>
        <time>2018-08-19T11:14:05.000Z</time>
      </trkpt>
      <trkpt lat="45.30799" lon="4.44365">
        <ele>1235.1</ele>
        <time>2018-08-19T11:14:06.000Z</time>
      </trkpt>
      <trkpt lat="45.30799" lon="4.44365">
        <ele>1235.1</ele>
        <time>2018-08-19T11:14:07.000Z</time>
      </trkpt>
      <trkpt lat="45.30799" lon="4.44365">
        <ele>1235.1</ele>
        <time>2018-08-19T11:14:08.000Z</time>
      </trkpt>
      <trkpt lat="45.30799" lon="4.44365">
        <ele>1235.1</ele>
        <time>2018-08-19T11:14:09.000Z</time>
      </trkpt>
      <trkpt lat="45.30799" lon="4.44365">
        <ele>1235.1</ele>
        <time>2018-08-19T11:14:10.000Z</time>
      </trkpt>
      <trkpt lat="45.30799" lon="4.44365">
        <ele>1235.1</ele>
        <time>2018-08-19T11:14:11.000Z</time>
      </trkpt>
      <trkpt lat="45.30799" lon="4.44365">
        <ele>1235.1</ele>
        <time>2018-08-19T11:14:12.000Z</time>
      </trkpt>
      <trkpt lat="45.30799" lon="4.44365">
        <ele>1235.1</ele>
        <time>2018-08-19T11:14:13.000Z</time>
      </trkpt>
      <trkpt lat="45.30799" lon="4.44365">
        <ele>1235.1</ele>
        <time>2018-08-19T11:14:14.000Z</time>
      </trkpt>
      <trkpt lat="45.30799" lon="4.44365">
        <ele>1235.1</ele>
        <time>2018-08-19T11:14:15.000Z</time>
      </trkpt>
      <trkpt lat="45.30799" lon="4.44365">
        <ele>1235.1</ele>
        <time>2018-08-19T11:14:16.000Z</time>
      </trkpt>
      <trkpt lat="45.30799" lon="4.44365">
        <ele>1235.1</ele>
        <time>2018-08-19T11:14:17.000Z</time>
      </trkpt>
      <trkpt lat="45.30799" lon="4.44365">
        <ele>1235.1</ele>
        <time>2018-08-19T11:14:18.000Z</time>
      </trkpt>
      <trkpt lat="45.30799" lon="4.44365">
        <ele>1235.1</ele>
        <time>2018-08-19T11:14:19.000Z</time>
      </trkpt>
      <trkpt lat="45.30799" lon="4.44365">
        <ele>1235.1</ele>
        <time>2018-08-19T11:14:20.000Z</time>
      </trkpt>
      <trkpt lat="45.30799" lon="4.44365">
        <ele>1235.1</ele>
        <time>2018-08-19T11:14:21.000Z</time>
      </trkpt>
      <trkpt lat="45.30799" lon="4.44365">
        <ele>1235.1</ele>
        <time>2018-08-19T11:14:22.000Z</time>
      </trkpt>
      <trkpt lat="45.30799" lon="4.44365">
        <ele>1235.1</ele>
        <time>2018-08-19T11:14:23.000Z</time>
      </trkpt>
      <trkpt lat="45.30799" lon="4.44365">
        <ele>1235.1</ele>
        <time>2018-08-19T11:14:24.000Z</time>
      </trkpt>
      <trkpt lat="45.30799" lon="4.44365">
        <ele>1235.1</ele>
        <time>2018-08-19T11:14:25.000Z</time>
      </trkpt>
      <trkpt lat="45.30799" lon="4.44365">
        <ele>1235.1</ele>
        <time>2018-08-19T11:14:26.000Z</time>
      </trkpt>
      <trkpt lat="45.30799" lon="4.44365">
        <ele>1235.1</ele>
        <time>2018-08-19T11:14:27.000Z</time>
      </trkpt>
      <trkpt lat="45.30799" lon="4.44365">
        <ele>1235.1</ele>
        <time>2018-08-19T11:14:28.000Z</time>
      </trkpt>
      <trkpt lat="45.30799" lon="4.44365">
        <ele>1235.1</ele>
        <time>2018-08-19T11:14:29.000Z</time>
      </trkpt>
      <trkpt lat="45.30799" lon="4.44365">
        <ele>1235.1</ele>
        <time>2018-08-19T11:14:30.000Z</time>
      </trkpt>
      <trkpt lat="45.30799" lon="4.44365">
        <ele>1235.1</ele>
        <time>2018-08-19T11:14:31.000Z</time>
      </trkpt>
      <trkpt lat="45.30799" lon="4.44365">
        <ele>1235.1</ele>
        <time>2018-08-19T11:14:32.000Z</time>
      </trkpt>
      <trkpt lat="45.30799" lon="4.44365">
        <ele>1235.1</ele>
        <time>2018-08-19T11:14:33.000Z</time>
      </trkpt>
      <trkpt lat="45.30799" lon="4.44365">
        <ele>1235.1</ele>
        <time>2018-08-19T11:14:34.000Z</time>
      </trkpt>
      <trkpt lat="45.30799" lon="4.44365">
        <ele>1235.1</ele>
        <time>2018-08-19T11:14:35.000Z</time>
      </trkpt>
      <trkpt lat="45.30799" lon="4.44365">
        <ele>1235.1</ele>
        <time>2018-08-19T11:14:36.000Z</time>
      </trkpt>
      <trkpt lat="45.30799" lon="4.44365">
        <ele>1235.1</ele>
        <time>2018-08-19T11:14:37.000Z</time>
      </trkpt>
      <trkpt lat="45.30799" lon="4.44365">
        <ele>1235.1</ele>
        <time>2018-08-19T11:14:38.000Z</time>
      </trkpt>
      <trkpt lat="45.30799" lon="4.44365">
        <ele>1235.1</ele>
        <time>2018-08-19T11:14:39.000Z</time>
      </trkpt>
      <trkpt lat="45.30799" lon="4.44365">
        <ele>1235.1</ele>
        <time>2018-08-19T11:14:40.000Z</time>
      </trkpt>
      <trkpt lat="45.30799" lon="4.44365">
        <ele>1235.1</ele>
        <time>2018-08-19T11:14:41.000Z</time>
      </trkpt>
      <trkpt lat="45.30799" lon="4.44365">
        <ele>1235.1</ele>
        <time>2018-08-19T11:14:42.000Z</time>
      </trkpt>
      <trkpt lat="45.30799" lon="4.44365">
        <ele>1235.1</ele>
        <time>2018-08-19T11:14:43.000Z</time>
      </trkpt>
      <trkpt lat="45.30799" lon="4.44365">
        <ele>1235.1</ele>
        <time>2018-08-19T11:14:44.000Z</time>
      </trkpt>
      <trkpt lat="45.30799" lon="4.44365">
        <ele>1235.1</ele>
        <time>2018-08-19T11:14:45.000Z</time>
      </trkpt>
      <trkpt lat="45.30799" lon="4.44365">
        <ele>1235.1</ele>
        <time>2018-08-19T11:14:46.000Z</time>
      </trkpt>
      <trkpt lat="45.30799" lon="4.44365">
        <ele>1235.1</ele>
        <time>2018-08-19T11:14:47.000Z</time>
      </trkpt>
      <trkpt lat="45.30799" lon="4.44365">
        <ele>1235.1</ele>
        <time>2018-08-19T11:14:48.000Z</time>
      </trkpt>
      <trkpt lat="45.30799" lon="4.44365">
        <ele>1235.1</ele>
        <time>2018-08-19T11:14:49.000Z</time>
      </trkpt>
      <trkpt lat="45.30799" lon="4.44365">
        <ele>1235.1</ele>
        <time>2018-08-19T11:14:50.000Z</time>
      </trkpt>
      <trkpt lat="45.30799" lon="4.44365">
        <ele>1235.1</ele>
        <time>2018-08-19T11:14:51.000Z</time>
      </trkpt>
      <trkpt lat="45.30799" lon="4.44365">
        <ele>1235.1</ele>
        <time>2018-08-19T11:14:52.000Z</time>
      </trkpt>
      <trkpt lat="45.30799" lon="4.44365">
        <ele>1235.1</ele>
        <time>2018-08-19T11:14:53.000Z</time>
      </trkpt>
      <trkpt lat="45.30799" lon="4.44365">
        <ele>1235.1</ele>
        <time>2018-08-19T11:14:54.000Z</time>
      </trkpt>
      <trkpt lat="45.30799" lon="4.44365">
        <ele>1235.1</ele>
        <time>2018-08-19T11:14:55.000Z</time>
      </trkpt>
      <trkpt lat="45.30799" lon="4.44365">
        <ele>1235.1</ele>
        <time>2018-08-19T11:14:56.000Z</time>
      </trkpt>
      <trkpt lat="45.30799" lon="4.44365">
        <ele>1235.1</ele>
        <time>2018-08-19T11:14:57.000Z</time>
      </trkpt>
      <trkpt lat="45.30799" lon="4.44365">
        <ele>1235.1</ele>
        <time>2018-08-19T11:14:58.000Z</time>
      </trkpt>
      <trkpt lat="45.30799" lon="4.44365">
        <ele>1235.1</ele>
        <time>2018-08-19T11:14:59.000Z</time>
      </trkpt>
      <trkpt lat="45.30799" lon="4.44365">
        <ele>1235.1</ele>
        <time>2018-08-19T11:15:00.000Z</time>
      </trkpt>
      <trkpt lat="45.30799" lon="4.44365">
        <ele>1235.1</ele>
        <time>2018-08-19T11:15:01.000Z</time>
      </trkpt>
      <trkpt lat="45.30799" lon="4.44365">
        <ele>1235.1</ele>
        <time>2018-08-19T11:15:02.000Z</time>
      </trkpt>
      <trkpt lat="45.30799" lon="4.44365">
        <ele>1235.1</ele>
        <time>2018-08-19T11:15:03.000Z</time>
      </trkpt>
      <trkpt lat="45.30799" lon="4.44365">
        <ele>1235.1</ele>
        <time>2018-08-19T11:15:04.000Z</time>
      </trkpt>
      <trkpt lat="45.30799" lon="4.44365">
        <ele>1235.1</ele>
        <time>2018-08-19T11:15:05.000Z</time>
      </trkpt>
      <trkpt lat="45.30799" lon="4.44365">
        <ele>1235.1</ele>
        <time>2018-08-19T11:15:06.000Z</time>
      </trkpt>
      <trkpt lat="45.30799" lon="4.44365">
        <ele>1235.1</ele>
        <time>2018-08-19T11:15:07.000Z</time>
      </trkpt>
      <trkpt lat="45.30799" lon="4.44365">
        <ele>1235.1</ele>
        <time>2018-08-19T11:15:08.000Z</time>
      </trkpt>
      <trkpt lat="45.30799" lon="4.44365">
        <ele>1235.1</ele>
        <time>2018-08-19T11:15:09.000Z</time>
      </trkpt>
      <trkpt lat="45.30799" lon="4.44365">
        <ele>1235.1</ele>
        <time>2018-08-19T11:15:10.000Z</time>
      </trkpt>
      <trkpt lat="45.30799" lon="4.44365">
        <ele>1235.1</ele>
        <time>2018-08-19T11:15:11.000Z</time>
      </trkpt>
      <trkpt lat="45.30799" lon="4.44365">
        <ele>1235.1</ele>
        <time>2018-08-19T11:15:12.000Z</time>
      </trkpt>
      <trkpt lat="45.30799" lon="4.44365">
        <ele>1235.1</ele>
        <time>2018-08-19T11:15:13.000Z</time>
      </trkpt>
      <trkpt lat="45.30799" lon="4.44365">
        <ele>1235.1</ele>
        <time>2018-08-19T11:15:14.000Z</time>
      </trkpt>
      <trkpt lat="45.30799" lon="4.44365">
        <ele>1235.1</ele>
        <time>2018-08-19T11:15:15.000Z</time>
      </trkpt>
      <trkpt lat="45.30799" lon="4.44365">
        <ele>1235.1</ele>
        <time>2018-08-19T11:15:16.000Z</time>
      </trkpt>
      <trkpt lat="45.30799" lon="4.44365">
        <ele>1235.1</ele>
        <time>2018-08-19T11:15:17.000Z</time>
      </trkpt>
      <trkpt lat="45.30799" lon="4.44365">
        <ele>1235.1</ele>
        <time>2018-08-19T11:15:18.000Z</time>
      </trkpt>
      <trkpt lat="45.30799" lon="4.44365">
        <ele>1235.1</ele>
        <time>2018-08-19T11:15:19.000Z</time>
      </trkpt>
      <trkpt lat="45.30799" lon="4.44365">
        <ele>1235.1</ele>
        <time>2018-08-19T11:15:20.000Z</time>
      </trkpt>
      <trkpt lat="45.30799" lon="4.44365">
        <ele>1235.1</ele>
        <time>2018-08-19T11:15:21.000Z</time>
      </trkpt>
      <trkpt lat="45.30799" lon="4.44365">
        <ele>1235.1</ele>
        <time>2018-08-19T11:15:22.000Z</time>
      </trkpt>
      <trkpt lat="45.30799" lon="4.44365">
        <ele>1235.1</ele>
        <time>2018-08-19T11:15:23.000Z</time>
      </trkpt>
      <trkpt lat="45.30799" lon="4.44365">
        <ele>1235.1</ele>
        <time>2018-08-19T11:15:24.000Z</time>
      </trkpt>
      <trkpt lat="45.30799" lon="4.44365">
        <ele>1235.1</ele>
        <time>2018-08-19T11:15:25.000Z</time>
      </trkpt>
      <trkpt lat="45.30799" lon="4.44365">
        <ele>1235.1</ele>
        <time>2018-08-19T11:15:26.000Z</time>
      </trkpt>
      <trkpt lat="45.30799" lon="4.44365">
        <ele>1235.1</ele>
        <time>2018-08-19T11:15:27.000Z</time>
      </trkpt>
      <trkpt lat="45.30799" lon="4.44365">
        <ele>1235.1</ele>
        <time>2018-08-19T11:15:28.000Z</time>
      </trkpt>
      <trkpt lat="45.30799" lon="4.44365">
        <ele>1235.1</ele>
        <time>2018-08-19T11:15:29.000Z</time>
      </trkpt>
      <trkpt lat="45.30799" lon="4.44365">
        <ele>1235.1</ele>
        <time>2018-08-19T11:15:30.000Z</time>
      </trkpt>
      <trkpt lat="45.30799" lon="4.44365">
        <ele>1235.1</ele>
        <time>2018-08-19T11:15:31.000Z</time>
      </trkpt>
      <trkpt lat="45.30799" lon="4.44365">
        <ele>1235.1</ele>
        <time>2018-08-19T11:15:32.000Z</time>
      </trkpt>
      <trkpt lat="45.30799" lon="4.44365">
        <ele>1235.1</ele>
        <time>2018-08-19T11:15:33.000Z</time>
      </trkpt>
      <trkpt lat="45.30799" lon="4.44365">
        <ele>1235.1</ele>
        <time>2018-08-19T11:15:34.000Z</time>
      </trkpt>
      <trkpt lat="45.30799" lon="4.44365">
        <ele>1235.1</ele>
        <time>2018-08-19T11:15:35.000Z</time>
      </trkpt>
      <trkpt lat="45.30799" lon="4.44365">
        <ele>1235.1</ele>
        <time>2018-08-19T11:15:36.000Z</time>
      </trkpt>
      <trkpt lat="45.30799" lon="4.44365">
        <ele>1235.1</ele>
        <time>2018-08-19T11:15:37.000Z</time>
      </trkpt>
      <trkpt lat="45.30799" lon="4.44365">
        <ele>1235.1</ele>
        <time>2018-08-19T11:15:38.000Z</time>
      </trkpt>
      <trkpt lat="45.30799" lon="4.44365">
        <ele>1235.1</ele>
        <time>2018-08-19T11:15:39.000Z</time>
      </trkpt>
      <trkpt lat="45.30799" lon="4.44365">
        <ele>1235.1</ele>
        <time>2018-08-19T11:15:40.000Z</time>
      </trkpt>
      <trkpt lat="45.30799" lon="4.44365">
        <ele>1235.1</ele>
        <time>2018-08-19T11:15:41.000Z</time>
      </trkpt>
      <trkpt lat="45.30799" lon="4.44365">
        <ele>1235.1</ele>
        <time>2018-08-19T11:15:42.000Z</time>
      </trkpt>
      <trkpt lat="45.30799" lon="4.44365">
        <ele>1235.1</ele>
        <time>2018-08-19T11:15:43.000Z</time>
      </trkpt>
      <trkpt lat="45.30799" lon="4.44365">
        <ele>1235.1</ele>
        <time>2018-08-19T11:15:44.000Z</time>
      </trkpt>
      <trkpt lat="45.30799" lon="4.44365">
        <ele>1235.1</ele>
        <time>2018-08-19T11:15:45.000Z</time>
      </trkpt>
      <trkpt lat="45.30799" lon="4.44365">
        <ele>1235.1</ele>
        <time>2018-08-19T11:15:46.000Z</time>
      </trkpt>
      <trkpt lat="45.30799" lon="4.44365">
        <ele>1235.1</ele>
        <time>2018-08-19T11:15:47.000Z</time>
      </trkpt>
      <trkpt lat="45.30799" lon="4.44365">
        <ele>1235.1</ele>
        <time>2018-08-19T11:15:48.000Z</time>
      </trkpt>
      <trkpt lat="45.30799" lon="4.44365">
        <ele>1235.1</ele>
        <time>2018-08-19T11:15:49.000Z</time>
      </trkpt>
      <trkpt lat="45.30799" lon="4.44365">
        <ele>1235.1</ele>
        <time>2018-08-19T11:15:50.000Z</time>
      </trkpt>
      <trkpt lat="45.30799" lon="4.44365">
        <ele>1235.1</ele>
        <time>2018-08-19T11:15:51.000Z</time>
      </trkpt>
      <trkpt lat="45.30799" lon="4.44365">
        <ele>1235.1</ele>
        <time>2018-08-19T11:15:52.000Z</time>
      </trkpt>
      <trkpt lat="45.30799" lon="4.44365">
        <ele>1235.1</ele>
        <time>2018-08-19T11:15:53.000Z</time>
      </trkpt>
      <trkpt lat="45.30799" lon="4.44365">
        <ele>1235.1</ele>
        <time>2018-08-19T11:15:54.000Z</time>
      </trkpt>
      <trkpt lat="45.30799" lon="4.44365">
        <ele>1235.1</ele>
        <time>2018-08-19T11:15:55.000Z</time>
      </trkpt>
      <trkpt lat="45.30799" lon="4.44365">
        <ele>1235.1</ele>
        <time>2018-08-19T11:15:56.000Z</time>
      </trkpt>
      <trkpt lat="45.30799" lon="4.44365">
        <ele>1235.1</ele>
        <time>2018-08-19T11:15:57.000Z</time>
      </trkpt>
      <trkpt lat="45.30799" lon="4.44365">
        <ele>1235.1</ele>
        <time>2018-08-19T11:15:58.000Z</time>
      </trkpt>
      <trkpt lat="45.30799" lon="4.44365">
        <ele>1235.1</ele>
        <time>2018-08-19T11:15:59.000Z</time>
      </trkpt>
      <trkpt lat="45.30799" lon="4.44365">
        <ele>1235.1</ele>
        <time>2018-08-19T11:16:00.000Z</time>
      </trkpt>
      <trkpt lat="45.30799" lon="4.44365">
        <ele>1235.1</ele>
        <time>2018-08-19T11:16:01.000Z</time>
      </trkpt>
      <trkpt lat="45.30799" lon="4.44365">
        <ele>1235.1</ele>
        <time>2018-08-19T11:16:02.000Z</time>
      </trkpt>
      <trkpt lat="45.30799" lon="4.44365">
        <ele>1235.1</ele>
        <time>2018-08-19T11:16:03.000Z</time>
      </trkpt>
      <trkpt lat="45.30799" lon="4.44365">
        <ele>1235.1</ele>
        <time>2018-08-19T11:16:04.000Z</time>
      </trkpt>
      <trkpt lat="45.30799" lon="4.44365">
        <ele>1235.1</ele>
        <time>2018-08-19T11:16:05.000Z</time>
      </trkpt>
      <trkpt lat="45.30799" lon="4.44365">
        <ele>1235.1</ele>
        <time>2018-08-19T11:16:06.000Z</time>
      </trkpt>
      <trkpt lat="45.30799" lon="4.44365">
        <ele>1235.1</ele>
        <time>2018-08-19T11:16:07.000Z</time>
      </trkpt>
      <trkpt lat="45.30799" lon="4.44365">
        <ele>1235.1</ele>
        <time>2018-08-19T11:16:08.000Z</time>
      </trkpt>
      <trkpt lat="45.30799" lon="4.44365">
        <ele>1235.1</ele>
        <time>2018-08-19T11:16:09.000Z</time>
      </trkpt>
      <trkpt lat="45.30799" lon="4.44365">
        <ele>1235.1</ele>
        <time>2018-08-19T11:16:10.000Z</time>
      </trkpt>
      <trkpt lat="45.30799" lon="4.44365">
        <ele>1235.1</ele>
        <time>2018-08-19T11:16:11.000Z</time>
      </trkpt>
      <trkpt lat="45.30799" lon="4.44365">
        <ele>1235.1</ele>
        <time>2018-08-19T11:16:12.000Z</time>
      </trkpt>
      <trkpt lat="45.30799" lon="4.44365">
        <ele>1235.1</ele>
        <time>2018-08-19T11:16:13.000Z</time>
      </trkpt>
      <trkpt lat="45.30799" lon="4.44365">
        <ele>1235.1</ele>
        <time>2018-08-19T11:16:14.000Z</time>
      </trkpt>
      <trkpt lat="45.30799" lon="4.44365">
        <ele>1235.1</ele>
        <time>2018-08-19T11:16:15.000Z</time>
      </trkpt>
      <trkpt lat="45.30799" lon="4.44365">
        <ele>1235.1</ele>
        <time>2018-08-19T11:16:16.000Z</time>
      </trkpt>
      <trkpt lat="45.30799" lon="4.44365">
        <ele>1235.1</ele>
        <time>2018-08-19T11:16:17.000Z</time>
      </trkpt>
      <trkpt lat="45.30799" lon="4.44365">
        <ele>1235.1</ele>
        <time>2018-08-19T11:16:18.000Z</time>
      </trkpt>
      <trkpt lat="45.30799" lon="4.44365">
        <ele>1235.1</ele>
        <time>2018-08-19T11:16:19.000Z</time>
      </trkpt>
      <trkpt lat="45.30799" lon="4.44365">
        <ele>1235.1</ele>
        <time>2018-08-19T11:16:20.000Z</time>
      </trkpt>
      <trkpt lat="45.30799" lon="4.44365">
        <ele>1235.1</ele>
        <time>2018-08-19T11:16:21.000Z</time>
      </trkpt>
      <trkpt lat="45.30799" lon="4.44365">
        <ele>1235.1</ele>
        <time>2018-08-19T11:16:22.000Z</time>
      </trkpt>
      <trkpt lat="45.30799" lon="4.44365">
        <ele>1235.1</ele>
        <time>2018-08-19T11:16:23.000Z</time>
      </trkpt>
      <trkpt lat="45.30799" lon="4.44365">
        <ele>1235.1</ele>
        <time>2018-08-19T11:16:24.000Z</time>
      </trkpt>
      <trkpt lat="45.30799" lon="4.44365">
        <ele>1235.1</ele>
        <time>2018-08-19T11:16:25.000Z</time>
      </trkpt>
      <trkpt lat="45.30799" lon="4.44365">
        <ele>1235.1</ele>
        <time>2018-08-19T11:16:26.000Z</time>
      </trkpt>
      <trkpt lat="45.30799" lon="4.44365">
        <ele>1235.1</ele>
        <time>2018-08-19T11:16:27.000Z</time>
      </trkpt>
      <trkpt lat="45.30799" lon="4.44365">
        <ele>1235.1</ele>
        <time>2018-08-19T11:16:28.000Z</time>
      </trkpt>
      <trkpt lat="45.30799" lon="4.44365">
        <ele>1235.1</ele>
        <time>2018-08-19T11:16:29.000Z</time>
      </trkpt>
      <trkpt lat="45.30799" lon="4.44365">
        <ele>1235.1</ele>
        <time>2018-08-19T11:16:30.000Z</time>
      </trkpt>
      <trkpt lat="45.30799" lon="4.44365">
        <ele>1235.1</ele>
        <time>2018-08-19T11:16:31.000Z</time>
      </trkpt>
      <trkpt lat="45.30799" lon="4.44365">
        <ele>1235.1</ele>
        <time>2018-08-19T11:16:32.000Z</time>
      </trkpt>
      <trkpt lat="45.30799" lon="4.44365">
        <ele>1235.1</ele>
        <time>2018-08-19T11:16:33.000Z</time>
      </trkpt>
      <trkpt lat="45.30799" lon="4.44365">
        <ele>1235.1</ele>
        <time>2018-08-19T11:16:34.000Z</time>
      </trkpt>
      <trkpt lat="45.30799" lon="4.44365">
        <ele>1235.1</ele>
        <time>2018-08-19T11:16:35.000Z</time>
      </trkpt>
      <trkpt lat="45.30799" lon="4.44365">
        <ele>1235.1</ele>
        <time>2018-08-19T11:16:36.000Z</time>
      </trkpt>
      <trkpt lat="45.30799" lon="4.44365">
        <ele>1235.1</ele>
        <time>2018-08-19T11:16:37.000Z</time>
      </trkpt>
      <trkpt lat="45.30799" lon="4.44365">
        <ele>1235.1</ele>
        <time>2018-08-19T11:16:38.000Z</time>
      </trkpt>
      <trkpt lat="45.30799" lon="4.44365">
        <ele>1235.1</ele>
        <time>2018-08-19T11:16:39.000Z</time>
      </trkpt>
      <trkpt lat="45.30799" lon="4.44365">
        <ele>1235.1</ele>
        <time>2018-08-19T11:16:40.000Z</time>
      </trkpt>
      <trkpt lat="45.30799" lon="4.44365">
        <ele>1235.1</ele>
        <time>2018-08-19T11:16:41.000Z</time>
      </trkpt>
      <trkpt lat="45.30799" lon="4.44365">
        <ele>1235.1</ele>
        <time>2018-08-19T11:16:42.000Z</time>
      </trkpt>
      <trkpt lat="45.30799" lon="4.44365">
        <ele>1235.1</ele>
        <time>2018-08-19T11:16:43.000Z</time>
      </trkpt>
      <trkpt lat="45.30799" lon="4.44365">
        <ele>1235.1</ele>
        <time>2018-08-19T11:16:44.000Z</time>
      </trkpt>
      <trkpt lat="45.30799" lon="4.44365">
        <ele>1235.1</ele>
        <time>2018-08-19T11:16:45.000Z</time>
      </trkpt>
      <trkpt lat="45.30799" lon="4.44365">
        <ele>1235.1</ele>
        <time>2018-08-19T11:16:46.000Z</time>
      </trkpt>
      <trkpt lat="45.30799" lon="4.44365">
        <ele>1235.1</ele>
        <time>2018-08-19T11:16:47.000Z</time>
      </trkpt>
      <trkpt lat="45.30799" lon="4.44365">
        <ele>1235.1</ele>
        <time>2018-08-19T11:16:48.000Z</time>
      </trkpt>
      <trkpt lat="45.30799" lon="4.44365">
        <ele>1235.1</ele>
        <time>2018-08-19T11:16:49.000Z</time>
      </trkpt>
      <trkpt lat="45.30799" lon="4.44365">
        <ele>1235.1</ele>
        <time>2018-08-19T11:16:50.000Z</time>
      </trkpt>
      <trkpt lat="45.30799" lon="4.44365">
        <ele>1235.1</ele>
        <time>2018-08-19T11:16:51.000Z</time>
      </trkpt>
      <trkpt lat="45.30799" lon="4.44365">
        <ele>1235.1</ele>
        <time>2018-08-19T11:16:52.000Z</time>
      </trkpt>
      <trkpt lat="45.30799" lon="4.44365">
        <ele>1235.1</ele>
        <time>2018-08-19T11:16:53.000Z</time>
      </trkpt>
      <trkpt lat="45.30799" lon="4.44365">
        <ele>1235.1</ele>
        <time>2018-08-19T11:16:54.000Z</time>
      </trkpt>
      <trkpt lat="45.30799" lon="4.44365">
        <ele>1235.1</ele>
        <time>2018-08-19T11:16:55.000Z</time>
      </trkpt>
      <trkpt lat="45.30799" lon="4.44365">
        <ele>1235.1</ele>
        <time>2018-08-19T11:16:56.000Z</time>
      </trkpt>
      <trkpt lat="45.30799" lon="4.44365">
        <ele>1235.1</ele>
        <time>2018-08-19T11:16:57.000Z</time>
      </trkpt>
      <trkpt lat="45.30799" lon="4.44365">
        <ele>1235.1</ele>
        <time>2018-08-19T11:16:58.000Z</time>
      </trkpt>
      <trkpt lat="45.30799" lon="4.44365">
        <ele>1235.1</ele>
        <time>2018-08-19T11:16:59.000Z</time>
      </trkpt>
      <trkpt lat="45.30799" lon="4.44365">
        <ele>1235.1</ele>
        <time>2018-08-19T11:17:00.000Z</time>
      </trkpt>
      <trkpt lat="45.30799" lon="4.44365">
        <ele>1235.1</ele>
        <time>2018-08-19T11:17:01.000Z</time>
      </trkpt>
      <trkpt lat="45.30799" lon="4.44365">
        <ele>1235.1</ele>
        <time>2018-08-19T11:17:02.000Z</time>
      </trkpt>
      <trkpt lat="45.30799" lon="4.44365">
        <ele>1235.1</ele>
        <time>2018-08-19T11:17:03.000Z</time>
      </trkpt>
      <trkpt lat="45.30799" lon="4.44365">
        <ele>1235.1</ele>
        <time>2018-08-19T11:17:04.000Z</time>
      </trkpt>
      <trkpt lat="45.30799" lon="4.44365">
        <ele>1235.1</ele>
        <time>2018-08-19T11:17:05.000Z</time>
      </trkpt>
      <trkpt lat="45.30799" lon="4.44365">
        <ele>1235.1</ele>
        <time>2018-08-19T11:17:06.000Z</time>
      </trkpt>
      <trkpt lat="45.30799" lon="4.44365">
        <ele>1235.1</ele>
        <time>2018-08-19T11:17:07.000Z</time>
      </trkpt>
      <trkpt lat="45.30799" lon="4.44365">
        <ele>1235.1</ele>
        <time>2018-08-19T11:17:08.000Z</time>
      </trkpt>
      <trkpt lat="45.30799" lon="4.44365">
        <ele>1235.1</ele>
        <time>2018-08-19T11:17:09.000Z</time>
      </trkpt>
      <trkpt lat="45.30799" lon="4.44365">
        <ele>1235.1</ele>
        <time>2018-08-19T11:17:10.000Z</time>
      </trkpt>
      <trkpt lat="45.30799" lon="4.44365">
        <ele>1235.1</ele>
        <time>2018-08-19T11:17:11.000Z</time>
      </trkpt>
      <trkpt lat="45.30799" lon="4.44365">
        <ele>1235.1</ele>
        <time>2018-08-19T11:17:12.000Z</time>
      </trkpt>
      <trkpt lat="45.30799" lon="4.44365">
        <ele>1235.1</ele>
        <time>2018-08-19T11:17:13.000Z</time>
      </trkpt>
      <trkpt lat="45.30799" lon="4.44365">
        <ele>1235.1</ele>
        <time>2018-08-19T11:17:14.000Z</time>
      </trkpt>
      <trkpt lat="45.30799" lon="4.44365">
        <ele>1235.1</ele>
        <time>2018-08-19T11:17:15.000Z</time>
      </trkpt>
      <trkpt lat="45.30799" lon="4.44365">
        <ele>1235.1</ele>
        <time>2018-08-19T11:17:16.000Z</time>
      </trkpt>
      <trkpt lat="45.30799" lon="4.44365">
        <ele>1235.1</ele>
        <time>2018-08-19T11:17:17.000Z</time>
      </trkpt>
      <trkpt lat="45.30799" lon="4.44365">
        <ele>1235.1</ele>
        <time>2018-08-19T11:17:18.000Z</time>
      </trkpt>
      <trkpt lat="45.30799" lon="4.44365">
        <ele>1235.1</ele>
        <time>2018-08-19T11:17:19.000Z</time>
      </trkpt>
      <trkpt lat="45.30799" lon="4.44365">
        <ele>1235.1</ele>
        <time>2018-08-19T11:17:20.000Z</time>
      </trkpt>
      <trkpt lat="45.30799" lon="4.44365">
        <ele>1235.1</ele>
        <time>2018-08-19T11:17:21.000Z</time>
      </trkpt>
      <trkpt lat="45.30799" lon="4.44365">
        <ele>1235.1</ele>
        <time>2018-08-19T11:17:22.000Z</time>
      </trkpt>
      <trkpt lat="45.30799" lon="4.44365">
        <ele>1235.1</ele>
        <time>2018-08-19T11:17:23.000Z</time>
      </trkpt>
      <trkpt lat="45.30799" lon="4.44365">
        <ele>1235.1</ele>
        <time>2018-08-19T11:17:24.000Z</time>
      </trkpt>
      <trkpt lat="45.30799" lon="4.44365">
        <ele>1235.1</ele>
        <time>2018-08-19T11:17:25.000Z</time>
      </trkpt>
      <trkpt lat="45.30799" lon="4.44365">
        <ele>1235.1</ele>
        <time>2018-08-19T11:17:26.000Z</time>
      </trkpt>
      <trkpt lat="45.30799" lon="4.44365">
        <ele>1235.1</ele>
        <time>2018-08-19T11:17:27.000Z</time>
      </trkpt>
      <trkpt lat="45.30799" lon="4.44365">
        <ele>1235.1</ele>
        <time>2018-08-19T11:17:28.000Z</time>
      </trkpt>
      <trkpt lat="45.30799" lon="4.44365">
        <ele>1235.1</ele>
        <time>2018-08-19T11:17:29.000Z</time>
      </trkpt>
      <trkpt lat="45.30799" lon="4.44365">
        <ele>1235.1</ele>
        <time>2018-08-19T11:17:30.000Z</time>
      </trkpt>
      <trkpt lat="45.30799" lon="4.44365">
        <ele>1235.1</ele>
        <time>2018-08-19T11:17:31.000Z</time>
      </trkpt>
      <trkpt lat="45.30799" lon="4.44365">
        <ele>1235.1</ele>
        <time>2018-08-19T11:17:32.000Z</time>
      </trkpt>
      <trkpt lat="45.30799" lon="4.44365">
        <ele>1235.1</ele>
        <time>2018-08-19T11:17:33.000Z</time>
      </trkpt>
      <trkpt lat="45.30799" lon="4.44365">
        <ele>1235.1</ele>
        <time>2018-08-19T11:17:34.000Z</time>
      </trkpt>
      <trkpt lat="45.30799" lon="4.44365">
        <ele>1235.1</ele>
        <time>2018-08-19T11:17:35.000Z</time>
      </trkpt>
      <trkpt lat="45.30799" lon="4.44365">
        <ele>1235.1</ele>
        <time>2018-08-19T11:17:36.000Z</time>
      </trkpt>
      <trkpt lat="45.30799" lon="4.44365">
        <ele>1235.1</ele>
        <time>2018-08-19T11:17:37.000Z</time>
      </trkpt>
      <trkpt lat="45.30799" lon="4.44365">
        <ele>1235.1</ele>
        <time>2018-08-19T11:17:38.000Z</time>
      </trkpt>
      <trkpt lat="45.30799" lon="4.44365">
        <ele>1235.1</ele>
        <time>2018-08-19T11:17:39.000Z</time>
      </trkpt>
      <trkpt lat="45.30799" lon="4.44365">
        <ele>1235.1</ele>
        <time>2018-08-19T11:17:40.000Z</time>
      </trkpt>
      <trkpt lat="45.30799" lon="4.44365">
        <ele>1235.1</ele>
        <time>2018-08-19T11:17:41.000Z</time>
      </trkpt>
      <trkpt lat="45.30799" lon="4.44365">
        <ele>1235.1</ele>
        <time>2018-08-19T11:17:42.000Z</time>
      </trkpt>
      <trkpt lat="45.30799" lon="4.44365">
        <ele>1235.1</ele>
        <time>2018-08-19T11:17:43.000Z</time>
      </trkpt>
      <trkpt lat="45.30799" lon="4.44365">
        <ele>1235.1</ele>
        <time>2018-08-19T11:17:44.000Z</time>
      </trkpt>
      <trkpt lat="45.30799" lon="4.44365">
        <ele>1235.1</ele>
        <time>2018-08-19T11:17:45.000Z</time>
      </trkpt>
      <trkpt lat="45.30799" lon="4.44365">
        <ele>1235.1</ele>
        <time>2018-08-19T11:17:46.000Z</time>
      </trkpt>
      <trkpt lat="45.30799" lon="4.44365">
        <ele>1235.1</ele>
        <time>2018-08-19T11:17:47.000Z</time>
      </trkpt>
      <trkpt lat="45.30799" lon="4.44365">
        <ele>1235.1</ele>
        <time>2018-08-19T11:17:48.000Z</time>
      </trkpt>
      <trkpt lat="45.30799" lon="4.44365">
        <ele>1235.1</ele>
        <time>2018-08-19T11:17:49.000Z</time>
      </trkpt>
      <trkpt lat="45.30799" lon="4.44365">
        <ele>1235.1</ele>
        <time>2018-08-19T11:17:50.000Z</time>
      </trkpt>
      <trkpt lat="45.30799" lon="4.44365">
        <ele>1235.1</ele>
        <time>2018-08-19T11:17:51.000Z</time>
      </trkpt>
      <trkpt lat="45.30799" lon="4.44365">
        <ele>1235.1</ele>
        <time>2018-08-19T11:17:52.000Z</time>
      </trkpt>
      <trkpt lat="45.30799" lon="4.44365">
        <ele>1235.1</ele>
        <time>2018-08-19T11:17:53.000Z</time>
      </trkpt>
      <trkpt lat="45.30799" lon="4.44365">
        <ele>1235.1</ele>
        <time>2018-08-19T11:17:54.000Z</time>
      </trkpt>
      <trkpt lat="45.30799" lon="4.44365">
        <ele>1235.1</ele>
        <time>2018-08-19T11:17:55.000Z</time>
      </trkpt>
      <trkpt lat="45.30799" lon="4.44365">
        <ele>1235.1</ele>
        <time>2018-08-19T11:17:56.000Z</time>
      </trkpt>
      <trkpt lat="45.30799" lon="4.44365">
        <ele>1235.1</ele>
        <time>2018-08-19T11:17:57.000Z</time>
      </trkpt>
      <trkpt lat="45.30799" lon="4.44365">
        <ele>1235.1</ele>
        <time>2018-08-19T11:17:58.000Z</time>
      </trkpt>
      <trkpt lat="45.30799" lon="4.44365">
        <ele>1235.1</ele>
        <time>2018-08-19T11:17:59.000Z</time>
      </trkpt>
      <trkpt lat="45.30799" lon="4.44365">
        <ele>1235.1</ele>
        <time>2018-08-19T11:18:00.000Z</time>
      </trkpt>
      <trkpt lat="45.30799" lon="4.44365">
        <ele>1235.1</ele>
        <time>2018-08-19T11:18:01.000Z</time>
      </trkpt>
      <trkpt lat="45.30799" lon="4.44365">
        <ele>1235.1</ele>
        <time>2018-08-19T11:18:02.000Z</time>
      </trkpt>
      <trkpt lat="45.30799" lon="4.44365">
        <ele>1235.1</ele>
        <time>2018-08-19T11:18:03.000Z</time>
      </trkpt>
      <trkpt lat="45.30799" lon="4.44365">
        <ele>1235.1</ele>
        <time>2018-08-19T11:18:04.000Z</time>
      </trkpt>
      <trkpt lat="45.30799" lon="4.44365">
        <ele>1235.1</ele>
        <time>2018-08-19T11:18:05.000Z</time>
      </trkpt>
      <trkpt lat="45.30799" lon="4.44365">
        <ele>1235.1</ele>
        <time>2018-08-19T11:18:06.000Z</time>
      </trkpt>
      <trkpt lat="45.30799" lon="4.44365">
        <ele>1235.1</ele>
        <time>2018-08-19T11:18:07.000Z</time>
      </trkpt>
      <trkpt lat="45.30799" lon="4.44365">
        <ele>1235.1</ele>
        <time>2018-08-19T11:18:08.000Z</time>
      </trkpt>
      <trkpt lat="45.30799" lon="4.44365">
        <ele>1235.1</ele>
        <time>2018-08-19T11:18:09.000Z</time>
      </trkpt>
      <trkpt lat="45.30799" lon="4.44365">
        <ele>1235.1</ele>
        <time>2018-08-19T11:18:10.000Z</time>
      </trkpt>
      <trkpt lat="45.30799" lon="4.44365">
        <ele>1235.1</ele>
        <time>2018-08-19T11:18:11.000Z</time>
      </trkpt>
      <trkpt lat="45.30799" lon="4.44365">
        <ele>1235.1</ele>
        <time>2018-08-19T11:18:12.000Z</time>
      </trkpt>
      <trkpt lat="45.30799" lon="4.44365">
        <ele>1235.1</ele>
        <time>2018-08-19T11:18:13.000Z</time>
      </trkpt>
      <trkpt lat="45.30799" lon="4.44365">
        <ele>1235.1</ele>
        <time>2018-08-19T11:18:14.000Z</time>
      </trkpt>
      <trkpt lat="45.30799" lon="4.44365">
        <ele>1235.1</ele>
        <time>2018-08-19T11:18:15.000Z</time>
      </trkpt>
      <trkpt lat="45.30799" lon="4.44365">
        <ele>1235.1</ele>
        <time>2018-08-19T11:18:16.000Z</time>
      </trkpt>
      <trkpt lat="45.30799" lon="4.44365">
        <ele>1235.1</ele>
        <time>2018-08-19T11:18:17.000Z</time>
      </trkpt>
      <trkpt lat="45.30799" lon="4.44365">
        <ele>1235.1</ele>
        <time>2018-08-19T11:18:18.000Z</time>
      </trkpt>
      <trkpt lat="45.30799" lon="4.44365">
        <ele>1235.1</ele>
        <time>2018-08-19T11:18:19.000Z</time>
      </trkpt>
      <trkpt lat="45.30799" lon="4.44365">
        <ele>1235.1</ele>
        <time>2018-08-19T11:18:20.000Z</time>
      </trkpt>
      <trkpt lat="45.30799" lon="4.44365">
        <ele>1235.1</ele>
        <time>2018-08-19T11:18:21.000Z</time>
      </trkpt>
      <trkpt lat="45.30799" lon="4.44365">
        <ele>1235.1</ele>
        <time>2018-08-19T11:18:22.000Z</time>
      </trkpt>
      <trkpt lat="45.30799" lon="4.44365">
        <ele>1235.1</ele>
        <time>2018-08-19T11:18:23.000Z</time>
      </trkpt>
      <trkpt lat="45.30799" lon="4.44365">
        <ele>1235.1</ele>
        <time>2018-08-19T11:18:24.000Z</time>
      </trkpt>
      <trkpt lat="45.30799" lon="4.44365">
        <ele>1235.1</ele>
        <time>2018-08-19T11:18:25.000Z</time>
      </trkpt>
      <trkpt lat="45.30799" lon="4.44365">
        <ele>1235.1</ele>
        <time>2018-08-19T11:18:26.000Z</time>
      </trkpt>
      <trkpt lat="45.30799" lon="4.44365">
        <ele>1235.1</ele>
        <time>2018-08-19T11:18:27.000Z</time>
      </trkpt>
      <trkpt lat="45.30799" lon="4.44365">
        <ele>1235.1</ele>
        <time>2018-08-19T11:18:28.000Z</time>
      </trkpt>
      <trkpt lat="45.30799" lon="4.44365">
        <ele>1235.1</ele>
        <time>2018-08-19T11:18:29.000Z</time>
      </trkpt>
      <trkpt lat="45.30799" lon="4.44365">
        <ele>1235.1</ele>
        <time>2018-08-19T11:18:30.000Z</time>
      </trkpt>
      <trkpt lat="45.30799" lon="4.44365">
        <ele>1235.1</ele>
        <time>2018-08-19T11:18:31.000Z</time>
      </trkpt>
      <trkpt lat="45.30798" lon="4.44365">
        <ele>1235.1</ele>
        <time>2018-08-19T11:18:32.000Z</time>
      </trkpt>
      <trkpt lat="45.30798" lon="4.44365">
        <ele>1235.1</ele>
        <time>2018-08-19T11:18:33.000Z</time>
      </trkpt>
      <trkpt lat="45.30798" lon="4.44365">
        <ele>1235.1</ele>
        <time>2018-08-19T11:18:34.000Z</time>
      </trkpt>
      <trkpt lat="45.30798" lon="4.44365">
        <ele>1235.1</ele>
        <time>2018-08-19T11:18:35.000Z</time>
      </trkpt>
      <trkpt lat="45.30798" lon="4.44365">
        <ele>1235.1</ele>
        <time>2018-08-19T11:18:36.000Z</time>
      </trkpt>
      <trkpt lat="45.30798" lon="4.44365">
        <ele>1235.1</ele>
        <time>2018-08-19T11:18:37.000Z</time>
      </trkpt>
      <trkpt lat="45.30798" lon="4.44365">
        <ele>1235.1</ele>
        <time>2018-08-19T11:18:38.000Z</time>
      </trkpt>
      <trkpt lat="45.30798" lon="4.44365">
        <ele>1235.1</ele>
        <time>2018-08-19T11:18:39.000Z</time>
      </trkpt>
      <trkpt lat="45.30798" lon="4.44365">
        <ele>1235.1</ele>
        <time>2018-08-19T11:18:40.000Z</time>
      </trkpt>
      <trkpt lat="45.30798" lon="4.44365">
        <ele>1235.1</ele>
        <time>2018-08-19T11:18:41.000Z</time>
      </trkpt>
      <trkpt lat="45.30798" lon="4.44365">
        <ele>1235.1</ele>
        <time>2018-08-19T11:18:42.000Z</time>
      </trkpt>
      <trkpt lat="45.30798" lon="4.44365">
        <ele>1235.1</ele>
        <time>2018-08-19T11:18:43.000Z</time>
      </trkpt>
      <trkpt lat="45.30798" lon="4.44366">
        <ele>1235.1</ele>
        <time>2018-08-19T11:18:44.000Z</time>
      </trkpt>
      <trkpt lat="45.30798" lon="4.44366">
        <ele>1235.1</ele>
        <time>2018-08-19T11:18:45.000Z</time>
      </trkpt>
      <trkpt lat="45.30798" lon="4.44366">
        <ele>1235.1</ele>
        <time>2018-08-19T11:18:46.000Z</time>
      </trkpt>
      <trkpt lat="45.30798" lon="4.44366">
        <ele>1235.1</ele>
        <time>2018-08-19T11:18:47.000Z</time>
      </trkpt>
      <trkpt lat="45.30798" lon="4.44366">
        <ele>1235.1</ele>
        <time>2018-08-19T11:18:48.000Z</time>
      </trkpt>
      <trkpt lat="45.30798" lon="4.44366">
        <ele>1235.1</ele>
        <time>2018-08-19T11:18:49.000Z</time>
      </trkpt>
      <trkpt lat="45.30798" lon="4.44366">
        <ele>1235.1</ele>
        <time>2018-08-19T11:18:50.000Z</time>
      </trkpt>
      <trkpt lat="45.30798" lon="4.44366">
        <ele>1235.1</ele>
        <time>2018-08-19T11:18:51.000Z</time>
      </trkpt>
      <trkpt lat="45.30798" lon="4.44366">
        <ele>1235.1</ele>
        <time>2018-08-19T11:18:52.000Z</time>
      </trkpt>
      <trkpt lat="45.30798" lon="4.44366">
        <ele>1235.1</ele>
        <time>2018-08-19T11:18:53.000Z</time>
      </trkpt>
      <trkpt lat="45.30798" lon="4.44366">
        <ele>1235.1</ele>
        <time>2018-08-19T11:18:54.000Z</time>
      </trkpt>
      <trkpt lat="45.30798" lon="4.44366">
        <ele>1235.1</ele>
        <time>2018-08-19T11:18:55.000Z</time>
      </trkpt>
      <trkpt lat="45.30798" lon="4.44366">
        <ele>1235.1</ele>
        <time>2018-08-19T11:18:56.000Z</time>
      </trkpt>
      <trkpt lat="45.30798" lon="4.44366">
        <ele>1235.1</ele>
        <time>2018-08-19T11:18:57.000Z</time>
      </trkpt>
      <trkpt lat="45.30798" lon="4.44366">
        <ele>1235.1</ele>
        <time>2018-08-19T11:18:58.000Z</time>
      </trkpt>
      <trkpt lat="45.30798" lon="4.44366">
        <ele>1235.1</ele>
        <time>2018-08-19T11:18:59.000Z</time>
      </trkpt>
      <trkpt lat="45.30798" lon="4.44366">
        <ele>1235.1</ele>
        <time>2018-08-19T11:19:00.000Z</time>
      </trkpt>
      <trkpt lat="45.30798" lon="4.44366">
        <ele>1235.1</ele>
        <time>2018-08-19T11:19:01.000Z</time>
      </trkpt>
      <trkpt lat="45.30798" lon="4.44366">
        <ele>1235.1</ele>
        <time>2018-08-19T11:19:02.000Z</time>
      </trkpt>
      <trkpt lat="45.30798" lon="4.44366">
        <ele>1235.1</ele>
        <time>2018-08-19T11:19:03.000Z</time>
      </trkpt>
      <trkpt lat="45.30798" lon="4.44366">
        <ele>1235.1</ele>
        <time>2018-08-19T11:19:04.000Z</time>
      </trkpt>
      <trkpt lat="45.30798" lon="4.44366">
        <ele>1235.1</ele>
        <time>2018-08-19T11:19:05.000Z</time>
      </trkpt>
      <trkpt lat="45.30798" lon="4.44366">
        <ele>1235.1</ele>
        <time>2018-08-19T11:19:06.000Z</time>
      </trkpt>
      <trkpt lat="45.30798" lon="4.44366">
        <ele>1235.1</ele>
        <time>2018-08-19T11:19:07.000Z</time>
      </trkpt>
      <trkpt lat="45.30798" lon="4.44366">
        <ele>1235.1</ele>
        <time>2018-08-19T11:19:08.000Z</time>
      </trkpt>
      <trkpt lat="45.30798" lon="4.44366">
        <ele>1235.1</ele>
        <time>2018-08-19T11:19:09.000Z</time>
      </trkpt>
      <trkpt lat="45.30798" lon="4.44366">
        <ele>1235.1</ele>
        <time>2018-08-19T11:19:10.000Z</time>
      </trkpt>
      <trkpt lat="45.30798" lon="4.44366">
        <ele>1235.1</ele>
        <time>2018-08-19T11:19:11.000Z</time>
      </trkpt>
      <trkpt lat="45.30798" lon="4.44366">
        <ele>1235.1</ele>
        <time>2018-08-19T11:19:12.000Z</time>
      </trkpt>
      <trkpt lat="45.30798" lon="4.44366">
        <ele>1235.1</ele>
        <time>2018-08-19T11:19:13.000Z</time>
      </trkpt>
      <trkpt lat="45.30798" lon="4.44366">
        <ele>1235.1</ele>
        <time>2018-08-19T11:19:14.000Z</time>
      </trkpt>
      <trkpt lat="45.30798" lon="4.44366">
        <ele>1235.1</ele>
        <time>2018-08-19T11:19:15.000Z</time>
      </trkpt>
      <trkpt lat="45.30798" lon="4.44366">
        <ele>1235.1</ele>
        <time>2018-08-19T11:19:16.000Z</time>
      </trkpt>
      <trkpt lat="45.30798" lon="4.44366">
        <ele>1235.1</ele>
        <time>2018-08-19T11:19:17.000Z</time>
      </trkpt>
      <trkpt lat="45.30798" lon="4.44366">
        <ele>1235.1</ele>
        <time>2018-08-19T11:19:18.000Z</time>
      </trkpt>
      <trkpt lat="45.30798" lon="4.44366">
        <ele>1235.1</ele>
        <time>2018-08-19T11:19:19.000Z</time>
      </trkpt>
      <trkpt lat="45.30798" lon="4.44366">
        <ele>1235.1</ele>
        <time>2018-08-19T11:19:20.000Z</time>
      </trkpt>
      <trkpt lat="45.30798" lon="4.44366">
        <ele>1235.1</ele>
        <time>2018-08-19T11:19:21.000Z</time>
      </trkpt>
      <trkpt lat="45.30798" lon="4.44366">
        <ele>1235.1</ele>
        <time>2018-08-19T11:19:22.000Z</time>
      </trkpt>
      <trkpt lat="45.30798" lon="4.44366">
        <ele>1235.1</ele>
        <time>2018-08-19T11:19:23.000Z</time>
      </trkpt>
      <trkpt lat="45.30798" lon="4.44366">
        <ele>1235.1</ele>
        <time>2018-08-19T11:19:24.000Z</time>
      </trkpt>
      <trkpt lat="45.30798" lon="4.44366">
        <ele>1235.1</ele>
        <time>2018-08-19T11:19:25.000Z</time>
      </trkpt>
      <trkpt lat="45.30798" lon="4.44366">
        <ele>1235.1</ele>
        <time>2018-08-19T11:19:26.000Z</time>
      </trkpt>
      <trkpt lat="45.30798" lon="4.44366">
        <ele>1235.1</ele>
        <time>2018-08-19T11:19:27.000Z</time>
      </trkpt>
      <trkpt lat="45.30798" lon="4.44366">
        <ele>1235.1</ele>
        <time>2018-08-19T11:19:28.000Z</time>
      </trkpt>
      <trkpt lat="45.30798" lon="4.44366">
        <ele>1235.1</ele>
        <time>2018-08-19T11:19:29.000Z</time>
      </trkpt>
      <trkpt lat="45.30798" lon="4.44366">
        <ele>1235.1</ele>
        <time>2018-08-19T11:19:30.000Z</time>
      </trkpt>
      <trkpt lat="45.30798" lon="4.44366">
        <ele>1235.1</ele>
        <time>2018-08-19T11:19:31.000Z</time>
      </trkpt>
      <trkpt lat="45.30798" lon="4.44366">
        <ele>1235.1</ele>
        <time>2018-08-19T11:19:32.000Z</time>
      </trkpt>
      <trkpt lat="45.30798" lon="4.44366">
        <ele>1235.1</ele>
        <time>2018-08-19T11:19:33.000Z</time>
      </trkpt>
      <trkpt lat="45.30798" lon="4.44366">
        <ele>1235.1</ele>
        <time>2018-08-19T11:19:34.000Z</time>
      </trkpt>
      <trkpt lat="45.30798" lon="4.44366">
        <ele>1235.1</ele>
        <time>2018-08-19T11:19:35.000Z</time>
      </trkpt>
      <trkpt lat="45.30798" lon="4.44366">
        <ele>1235.1</ele>
        <time>2018-08-19T11:19:36.000Z</time>
      </trkpt>
      <trkpt lat="45.30798" lon="4.44366">
        <ele>1235.1</ele>
        <time>2018-08-19T11:19:37.000Z</time>
      </trkpt>
      <trkpt lat="45.30798" lon="4.44366">
        <ele>1235.1</ele>
        <time>2018-08-19T11:19:38.000Z</time>
      </trkpt>
      <trkpt lat="45.30798" lon="4.44366">
        <ele>1235.1</ele>
        <time>2018-08-19T11:19:39.000Z</time>
      </trkpt>
      <trkpt lat="45.30798" lon="4.44366">
        <ele>1235.1</ele>
        <time>2018-08-19T11:19:40.000Z</time>
      </trkpt>
      <trkpt lat="45.30798" lon="4.44366">
        <ele>1235.1</ele>
        <time>2018-08-19T11:19:41.000Z</time>
      </trkpt>
      <trkpt lat="45.30798" lon="4.44366">
        <ele>1235.1</ele>
        <time>2018-08-19T11:19:42.000Z</time>
      </trkpt>
      <trkpt lat="45.30798" lon="4.44366">
        <ele>1235.1</ele>
        <time>2018-08-19T11:19:43.000Z</time>
      </trkpt>
      <trkpt lat="45.30798" lon="4.44366">
        <ele>1235.1</ele>
        <time>2018-08-19T11:19:44.000Z</time>
      </trkpt>
      <trkpt lat="45.30798" lon="4.44366">
        <ele>1235.1</ele>
        <time>2018-08-19T11:19:45.000Z</time>
      </trkpt>
      <trkpt lat="45.30798" lon="4.44366">
        <ele>1235.1</ele>
        <time>2018-08-19T11:19:46.000Z</time>
      </trkpt>
      <trkpt lat="45.30798" lon="4.44366">
        <ele>1235.1</ele>
        <time>2018-08-19T11:19:47.000Z</time>
      </trkpt>
      <trkpt lat="45.30798" lon="4.44366">
        <ele>1235.1</ele>
        <time>2018-08-19T11:19:48.000Z</time>
      </trkpt>
      <trkpt lat="45.30798" lon="4.44366">
        <ele>1235.1</ele>
        <time>2018-08-19T11:19:49.000Z</time>
      </trkpt>
      <trkpt lat="45.30798" lon="4.44366">
        <ele>1235.1</ele>
        <time>2018-08-19T11:19:50.000Z</time>
      </trkpt>
      <trkpt lat="45.30798" lon="4.44366">
        <ele>1235.1</ele>
        <time>2018-08-19T11:19:51.000Z</time>
      </trkpt>
      <trkpt lat="45.30798" lon="4.44366">
        <ele>1235.1</ele>
        <time>2018-08-19T11:19:52.000Z</time>
      </trkpt>
      <trkpt lat="45.30798" lon="4.44366">
        <ele>1235.1</ele>
        <time>2018-08-19T11:19:53.000Z</time>
      </trkpt>
      <trkpt lat="45.30798" lon="4.44366">
        <ele>1235.1</ele>
        <time>2018-08-19T11:19:54.000Z</time>
      </trkpt>
      <trkpt lat="45.30798" lon="4.44366">
        <ele>1235.1</ele>
        <time>2018-08-19T11:19:55.000Z</time>
      </trkpt>
      <trkpt lat="45.30798" lon="4.44366">
        <ele>1235.1</ele>
        <time>2018-08-19T11:19:56.000Z</time>
      </trkpt>
      <trkpt lat="45.30798" lon="4.44366">
        <ele>1235.1</ele>
        <time>2018-08-19T11:19:57.000Z</time>
      </trkpt>
      <trkpt lat="45.30798" lon="4.44366">
        <ele>1235.1</ele>
        <time>2018-08-19T11:19:58.000Z</time>
      </trkpt>
      <trkpt lat="45.30798" lon="4.44366">
        <ele>1235.1</ele>
        <time>2018-08-19T11:19:59.000Z</time>
      </trkpt>
      <trkpt lat="45.30798" lon="4.44366">
        <ele>1235.1</ele>
        <time>2018-08-19T11:20:00.000Z</time>
      </trkpt>
      <trkpt lat="45.30798" lon="4.44366">
        <ele>1235.1</ele>
        <time>2018-08-19T11:20:01.000Z</time>
      </trkpt>
      <trkpt lat="45.30798" lon="4.44366">
        <ele>1235.1</ele>
        <time>2018-08-19T11:20:02.000Z</time>
      </trkpt>
      <trkpt lat="45.30798" lon="4.44366">
        <ele>1235.1</ele>
        <time>2018-08-19T11:20:03.000Z</time>
      </trkpt>
      <trkpt lat="45.30798" lon="4.44366">
        <ele>1235.1</ele>
        <time>2018-08-19T11:20:04.000Z</time>
      </trkpt>
      <trkpt lat="45.30798" lon="4.44366">
        <ele>1235.1</ele>
        <time>2018-08-19T11:20:05.000Z</time>
      </trkpt>
      <trkpt lat="45.30798" lon="4.44366">
        <ele>1235.1</ele>
        <time>2018-08-19T11:20:06.000Z</time>
      </trkpt>
      <trkpt lat="45.30798" lon="4.44366">
        <ele>1235.1</ele>
        <time>2018-08-19T11:20:07.000Z</time>
      </trkpt>
      <trkpt lat="45.30798" lon="4.44366">
        <ele>1235.1</ele>
        <time>2018-08-19T11:20:08.000Z</time>
      </trkpt>
      <trkpt lat="45.30798" lon="4.44366">
        <ele>1235.1</ele>
        <time>2018-08-19T11:20:09.000Z</time>
      </trkpt>
      <trkpt lat="45.30798" lon="4.44366">
        <ele>1235.1</ele>
        <time>2018-08-19T11:20:10.000Z</time>
      </trkpt>
      <trkpt lat="45.30798" lon="4.44366">
        <ele>1235.1</ele>
        <time>2018-08-19T11:20:11.000Z</time>
      </trkpt>
      <trkpt lat="45.30798" lon="4.44366">
        <ele>1235.1</ele>
        <time>2018-08-19T11:20:12.000Z</time>
      </trkpt>
      <trkpt lat="45.30798" lon="4.44366">
        <ele>1235.1</ele>
        <time>2018-08-19T11:20:13.000Z</time>
      </trkpt>
      <trkpt lat="45.30798" lon="4.44366">
        <ele>1235.1</ele>
        <time>2018-08-19T11:20:14.000Z</time>
      </trkpt>
      <trkpt lat="45.30798" lon="4.44366">
        <ele>1235.1</ele>
        <time>2018-08-19T11:20:15.000Z</time>
      </trkpt>
      <trkpt lat="45.30798" lon="4.44366">
        <ele>1235.1</ele>
        <time>2018-08-19T11:20:16.000Z</time>
      </trkpt>
      <trkpt lat="45.30798" lon="4.44366">
        <ele>1235.1</ele>
        <time>2018-08-19T11:20:17.000Z</time>
      </trkpt>
      <trkpt lat="45.30798" lon="4.44366">
        <ele>1235.1</ele>
        <time>2018-08-19T11:20:18.000Z</time>
      </trkpt>
      <trkpt lat="45.30798" lon="4.44366">
        <ele>1235.1</ele>
        <time>2018-08-19T11:20:19.000Z</time>
      </trkpt>
      <trkpt lat="45.30798" lon="4.44366">
        <ele>1235.1</ele>
        <time>2018-08-19T11:20:20.000Z</time>
      </trkpt>
      <trkpt lat="45.30798" lon="4.44366">
        <ele>1235.1</ele>
        <time>2018-08-19T11:20:21.000Z</time>
      </trkpt>
      <trkpt lat="45.30798" lon="4.44366">
        <ele>1235.1</ele>
        <time>2018-08-19T11:20:22.000Z</time>
      </trkpt>
      <trkpt lat="45.30798" lon="4.44366">
        <ele>1235.1</ele>
        <time>2018-08-19T11:20:23.000Z</time>
      </trkpt>
      <trkpt lat="45.30798" lon="4.44366">
        <ele>1235.1</ele>
        <time>2018-08-19T11:20:24.000Z</time>
      </trkpt>
      <trkpt lat="45.30798" lon="4.44366">
        <ele>1235.1</ele>
        <time>2018-08-19T11:20:25.000Z</time>
      </trkpt>
      <trkpt lat="45.30798" lon="4.44366">
        <ele>1235.1</ele>
        <time>2018-08-19T11:20:26.000Z</time>
      </trkpt>
      <trkpt lat="45.30798" lon="4.44366">
        <ele>1235.1</ele>
        <time>2018-08-19T11:20:27.000Z</time>
      </trkpt>
      <trkpt lat="45.30798" lon="4.44366">
        <ele>1235.1</ele>
        <time>2018-08-19T11:20:28.000Z</time>
      </trkpt>
      <trkpt lat="45.30798" lon="4.44366">
        <ele>1235.1</ele>
        <time>2018-08-19T11:20:29.000Z</time>
      </trkpt>
      <trkpt lat="45.30798" lon="4.44366">
        <ele>1235.1</ele>
        <time>2018-08-19T11:20:30.000Z</time>
      </trkpt>
      <trkpt lat="45.30798" lon="4.44366">
        <ele>1235.1</ele>
        <time>2018-08-19T11:20:31.000Z</time>
      </trkpt>
      <trkpt lat="45.30798" lon="4.44366">
        <ele>1235.1</ele>
        <time>2018-08-19T11:20:32.000Z</time>
      </trkpt>
      <trkpt lat="45.30798" lon="4.44366">
        <ele>1235.1</ele>
        <time>2018-08-19T11:20:33.000Z</time>
      </trkpt>
      <trkpt lat="45.30798" lon="4.44366">
        <ele>1235.1</ele>
        <time>2018-08-19T11:20:34.000Z</time>
      </trkpt>
      <trkpt lat="45.30798" lon="4.44366">
        <ele>1235.1</ele>
        <time>2018-08-19T11:20:35.000Z</time>
      </trkpt>
      <trkpt lat="45.30798" lon="4.44366">
        <ele>1235.1</ele>
        <time>2018-08-19T11:20:36.000Z</time>
      </trkpt>
      <trkpt lat="45.30798" lon="4.44366">
        <ele>1235.1</ele>
        <time>2018-08-19T11:20:37.000Z</time>
      </trkpt>
      <trkpt lat="45.30798" lon="4.44366">
        <ele>1235.1</ele>
        <time>2018-08-19T11:20:38.000Z</time>
      </trkpt>
      <trkpt lat="45.30798" lon="4.44366">
        <ele>1235.1</ele>
        <time>2018-08-19T11:20:39.000Z</time>
      </trkpt>
      <trkpt lat="45.30798" lon="4.44366">
        <ele>1235.1</ele>
        <time>2018-08-19T11:20:40.000Z</time>
      </trkpt>
      <trkpt lat="45.30798" lon="4.44366">
        <ele>1235.1</ele>
        <time>2018-08-19T11:20:41.000Z</time>
      </trkpt>
      <trkpt lat="45.30798" lon="4.44366">
        <ele>1235.1</ele>
        <time>2018-08-19T11:20:42.000Z</time>
      </trkpt>
      <trkpt lat="45.30798" lon="4.44366">
        <ele>1235.1</ele>
        <time>2018-08-19T11:20:43.000Z</time>
      </trkpt>
      <trkpt lat="45.30798" lon="4.44366">
        <ele>1235.1</ele>
        <time>2018-08-19T11:20:44.000Z</time>
      </trkpt>
      <trkpt lat="45.30798" lon="4.44366">
        <ele>1235.1</ele>
        <time>2018-08-19T11:20:45.000Z</time>
      </trkpt>
      <trkpt lat="45.30798" lon="4.44366">
        <ele>1235.1</ele>
        <time>2018-08-19T11:20:46.000Z</time>
      </trkpt>
      <trkpt lat="45.30798" lon="4.44366">
        <ele>1235.1</ele>
        <time>2018-08-19T11:20:47.000Z</time>
      </trkpt>
      <trkpt lat="45.30798" lon="4.44366">
        <ele>1235.1</ele>
        <time>2018-08-19T11:20:48.000Z</time>
      </trkpt>
      <trkpt lat="45.30798" lon="4.44366">
        <ele>1235.1</ele>
        <time>2018-08-19T11:20:49.000Z</time>
      </trkpt>
      <trkpt lat="45.30798" lon="4.44366">
        <ele>1235.1</ele>
        <time>2018-08-19T11:20:50.000Z</time>
      </trkpt>
      <trkpt lat="45.30798" lon="4.44366">
        <ele>1235.1</ele>
        <time>2018-08-19T11:20:51.000Z</time>
      </trkpt>
      <trkpt lat="45.30798" lon="4.44366">
        <ele>1235.1</ele>
        <time>2018-08-19T11:20:52.000Z</time>
      </trkpt>
      <trkpt lat="45.30798" lon="4.44366">
        <ele>1235.1</ele>
        <time>2018-08-19T11:20:53.000Z</time>
      </trkpt>
      <trkpt lat="45.30798" lon="4.44366">
        <ele>1235.1</ele>
        <time>2018-08-19T11:20:54.000Z</time>
      </trkpt>
      <trkpt lat="45.30798" lon="4.44366">
        <ele>1235.1</ele>
        <time>2018-08-19T11:20:55.000Z</time>
      </trkpt>
      <trkpt lat="45.30798" lon="4.44366">
        <ele>1235.1</ele>
        <time>2018-08-19T11:20:56.000Z</time>
      </trkpt>
      <trkpt lat="45.30798" lon="4.44366">
        <ele>1235.1</ele>
        <time>2018-08-19T11:20:57.000Z</time>
      </trkpt>
      <trkpt lat="45.30798" lon="4.44366">
        <ele>1235.1</ele>
        <time>2018-08-19T11:20:58.000Z</time>
      </trkpt>
      <trkpt lat="45.30798" lon="4.44366">
        <ele>1235.1</ele>
        <time>2018-08-19T11:20:59.000Z</time>
      </trkpt>
      <trkpt lat="45.30798" lon="4.44366">
        <ele>1235.1</ele>
        <time>2018-08-19T11:21:00.000Z</time>
      </trkpt>
      <trkpt lat="45.30798" lon="4.44366">
        <ele>1235.1</ele>
        <time>2018-08-19T11:21:01.000Z</time>
      </trkpt>
      <trkpt lat="45.30798" lon="4.44366">
        <ele>1235.1</ele>
        <time>2018-08-19T11:21:02.000Z</time>
      </trkpt>
      <trkpt lat="45.30798" lon="4.44366">
        <ele>1235.1</ele>
        <time>2018-08-19T11:21:03.000Z</time>
      </trkpt>
      <trkpt lat="45.30798" lon="4.44366">
        <ele>1235.1</ele>
        <time>2018-08-19T11:21:04.000Z</time>
      </trkpt>
      <trkpt lat="45.30798" lon="4.44366">
        <ele>1235.1</ele>
        <time>2018-08-19T11:21:05.000Z</time>
      </trkpt>
      <trkpt lat="45.30798" lon="4.44366">
        <ele>1235.1</ele>
        <time>2018-08-19T11:21:06.000Z</time>
      </trkpt>
      <trkpt lat="45.30798" lon="4.44366">
        <ele>1235.1</ele>
        <time>2018-08-19T11:21:07.000Z</time>
      </trkpt>
      <trkpt lat="45.30798" lon="4.44366">
        <ele>1235.1</ele>
        <time>2018-08-19T11:21:08.000Z</time>
      </trkpt>
      <trkpt lat="45.30798" lon="4.44366">
        <ele>1235.1</ele>
        <time>2018-08-19T11:21:09.000Z</time>
      </trkpt>
      <trkpt lat="45.30798" lon="4.44366">
        <ele>1235.1</ele>
        <time>2018-08-19T11:21:10.000Z</time>
      </trkpt>
      <trkpt lat="45.30798" lon="4.44366">
        <ele>1235.1</ele>
        <time>2018-08-19T11:21:11.000Z</time>
      </trkpt>
      <trkpt lat="45.30798" lon="4.44366">
        <ele>1235.1</ele>
        <time>2018-08-19T11:21:12.000Z</time>
      </trkpt>
      <trkpt lat="45.30798" lon="4.44366">
        <ele>1235.1</ele>
        <time>2018-08-19T11:21:13.000Z</time>
      </trkpt>
      <trkpt lat="45.30798" lon="4.44366">
        <ele>1235.1</ele>
        <time>2018-08-19T11:21:14.000Z</time>
      </trkpt>
      <trkpt lat="45.30798" lon="4.44366">
        <ele>1235.1</ele>
        <time>2018-08-19T11:21:15.000Z</time>
      </trkpt>
      <trkpt lat="45.30798" lon="4.44366">
        <ele>1235.1</ele>
        <time>2018-08-19T11:21:16.000Z</time>
      </trkpt>
      <trkpt lat="45.30798" lon="4.44366">
        <ele>1235.1</ele>
        <time>2018-08-19T11:21:17.000Z</time>
      </trkpt>
      <trkpt lat="45.30798" lon="4.44366">
        <ele>1235.1</ele>
        <time>2018-08-19T11:21:18.000Z</time>
      </trkpt>
      <trkpt lat="45.30798" lon="4.44366">
        <ele>1235.1</ele>
        <time>2018-08-19T11:21:19.000Z</time>
      </trkpt>
      <trkpt lat="45.30798" lon="4.44366">
        <ele>1235.1</ele>
        <time>2018-08-19T11:21:20.000Z</time>
      </trkpt>
      <trkpt lat="45.30798" lon="4.44366">
        <ele>1235.1</ele>
        <time>2018-08-19T11:21:21.000Z</time>
      </trkpt>
      <trkpt lat="45.30798" lon="4.44366">
        <ele>1235.1</ele>
        <time>2018-08-19T11:21:22.000Z</time>
      </trkpt>
      <trkpt lat="45.30798" lon="4.44366">
        <ele>1235.1</ele>
        <time>2018-08-19T11:21:23.000Z</time>
      </trkpt>
      <trkpt lat="45.30798" lon="4.44366">
        <ele>1235.1</ele>
        <time>2018-08-19T11:21:24.000Z</time>
      </trkpt>
      <trkpt lat="45.30798" lon="4.44366">
        <ele>1235.1</ele>
        <time>2018-08-19T11:21:25.000Z</time>
      </trkpt>
      <trkpt lat="45.30798" lon="4.44366">
        <ele>1235.1</ele>
        <time>2018-08-19T11:21:26.000Z</time>
      </trkpt>
      <trkpt lat="45.30798" lon="4.44366">
        <ele>1235.1</ele>
        <time>2018-08-19T11:21:27.000Z</time>
      </trkpt>
      <trkpt lat="45.30798" lon="4.44366">
        <ele>1235.1</ele>
        <time>2018-08-19T11:21:28.000Z</time>
      </trkpt>
      <trkpt lat="45.30798" lon="4.44366">
        <ele>1235.1</ele>
        <time>2018-08-19T11:21:29.000Z</time>
      </trkpt>
      <trkpt lat="45.30798" lon="4.44366">
        <ele>1235.1</ele>
        <time>2018-08-19T11:21:30.000Z</time>
      </trkpt>
      <trkpt lat="45.30798" lon="4.44366">
        <ele>1235.1</ele>
        <time>2018-08-19T11:21:31.000Z</time>
      </trkpt>
      <trkpt lat="45.30798" lon="4.44366">
        <ele>1235.1</ele>
        <time>2018-08-19T11:21:32.000Z</time>
      </trkpt>
      <trkpt lat="45.30798" lon="4.44366">
        <ele>1235.1</ele>
        <time>2018-08-19T11:21:33.000Z</time>
      </trkpt>
      <trkpt lat="45.30798" lon="4.44366">
        <ele>1235.1</ele>
        <time>2018-08-19T11:21:34.000Z</time>
      </trkpt>
      <trkpt lat="45.30798" lon="4.44366">
        <ele>1235.1</ele>
        <time>2018-08-19T11:21:35.000Z</time>
      </trkpt>
      <trkpt lat="45.30798" lon="4.44366">
        <ele>1235.1</ele>
        <time>2018-08-19T11:21:36.000Z</time>
      </trkpt>
      <trkpt lat="45.30798" lon="4.44366">
        <ele>1235.1</ele>
        <time>2018-08-19T11:21:37.000Z</time>
      </trkpt>
      <trkpt lat="45.30798" lon="4.44366">
        <ele>1235.1</ele>
        <time>2018-08-19T11:21:38.000Z</time>
      </trkpt>
      <trkpt lat="45.30798" lon="4.44366">
        <ele>1235.1</ele>
        <time>2018-08-19T11:21:39.000Z</time>
      </trkpt>
      <trkpt lat="45.30798" lon="4.44366">
        <ele>1235.1</ele>
        <time>2018-08-19T11:21:40.000Z</time>
      </trkpt>
      <trkpt lat="45.30798" lon="4.44366">
        <ele>1235.1</ele>
        <time>2018-08-19T11:21:41.000Z</time>
      </trkpt>
      <trkpt lat="45.30798" lon="4.44366">
        <ele>1235.1</ele>
        <time>2018-08-19T11:21:42.000Z</time>
      </trkpt>
      <trkpt lat="45.30798" lon="4.44366">
        <ele>1235.1</ele>
        <time>2018-08-19T11:21:43.000Z</time>
      </trkpt>
      <trkpt lat="45.30798" lon="4.44366">
        <ele>1235.1</ele>
        <time>2018-08-19T11:21:44.000Z</time>
      </trkpt>
      <trkpt lat="45.30798" lon="4.44366">
        <ele>1235.1</ele>
        <time>2018-08-19T11:21:45.000Z</time>
      </trkpt>
      <trkpt lat="45.30798" lon="4.44366">
        <ele>1235.1</ele>
        <time>2018-08-19T11:21:46.000Z</time>
      </trkpt>
      <trkpt lat="45.30798" lon="4.44366">
        <ele>1235.1</ele>
        <time>2018-08-19T11:21:47.000Z</time>
      </trkpt>
      <trkpt lat="45.30798" lon="4.44366">
        <ele>1235.1</ele>
        <time>2018-08-19T11:21:48.000Z</time>
      </trkpt>
      <trkpt lat="45.30798" lon="4.44366">
        <ele>1235.1</ele>
        <time>2018-08-19T11:21:49.000Z</time>
      </trkpt>
      <trkpt lat="45.30798" lon="4.44366">
        <ele>1235.1</ele>
        <time>2018-08-19T11:21:50.000Z</time>
      </trkpt>
      <trkpt lat="45.30798" lon="4.44366">
        <ele>1235.1</ele>
        <time>2018-08-19T11:21:51.000Z</time>
      </trkpt>
      <trkpt lat="45.30798" lon="4.44366">
        <ele>1235.1</ele>
        <time>2018-08-19T11:21:52.000Z</time>
      </trkpt>
      <trkpt lat="45.30798" lon="4.44366">
        <ele>1235.1</ele>
        <time>2018-08-19T11:21:53.000Z</time>
      </trkpt>
      <trkpt lat="45.30798" lon="4.44366">
        <ele>1235.1</ele>
        <time>2018-08-19T11:21:54.000Z</time>
      </trkpt>
      <trkpt lat="45.30798" lon="4.44366">
        <ele>1235.1</ele>
        <time>2018-08-19T11:21:55.000Z</time>
      </trkpt>
      <trkpt lat="45.30798" lon="4.44366">
        <ele>1235.1</ele>
        <time>2018-08-19T11:21:56.000Z</time>
      </trkpt>
      <trkpt lat="45.30798" lon="4.44366">
        <ele>1235.1</ele>
        <time>2018-08-19T11:21:57.000Z</time>
      </trkpt>
      <trkpt lat="45.30798" lon="4.44366">
        <ele>1235.1</ele>
        <time>2018-08-19T11:21:58.000Z</time>
      </trkpt>
      <trkpt lat="45.30798" lon="4.44366">
        <ele>1235.1</ele>
        <time>2018-08-19T11:21:59.000Z</time>
      </trkpt>
      <trkpt lat="45.30798" lon="4.44366">
        <ele>1235.1</ele>
        <time>2018-08-19T11:22:00.000Z</time>
      </trkpt>
      <trkpt lat="45.30798" lon="4.44366">
        <ele>1235.1</ele>
        <time>2018-08-19T11:22:01.000Z</time>
      </trkpt>
      <trkpt lat="45.30798" lon="4.44366">
        <ele>1235.1</ele>
        <time>2018-08-19T11:22:02.000Z</time>
      </trkpt>
      <trkpt lat="45.30798" lon="4.44366">
        <ele>1235.1</ele>
        <time>2018-08-19T11:22:03.000Z</time>
      </trkpt>
      <trkpt lat="45.30798" lon="4.44366">
        <ele>1235.1</ele>
        <time>2018-08-19T11:22:04.000Z</time>
      </trkpt>
      <trkpt lat="45.30798" lon="4.44366">
        <ele>1235.1</ele>
        <time>2018-08-19T11:22:05.000Z</time>
      </trkpt>
      <trkpt lat="45.30798" lon="4.44366">
        <ele>1235.1</ele>
        <time>2018-08-19T11:22:06.000Z</time>
      </trkpt>
      <trkpt lat="45.30798" lon="4.44366">
        <ele>1235.1</ele>
        <time>2018-08-19T11:22:07.000Z</time>
      </trkpt>
      <trkpt lat="45.30798" lon="4.44366">
        <ele>1235.1</ele>
        <time>2018-08-19T11:22:08.000Z</time>
      </trkpt>
      <trkpt lat="45.30798" lon="4.44366">
        <ele>1235.1</ele>
        <time>2018-08-19T11:22:09.000Z</time>
      </trkpt>
      <trkpt lat="45.30798" lon="4.44366">
        <ele>1235.1</ele>
        <time>2018-08-19T11:22:10.000Z</time>
      </trkpt>
      <trkpt lat="45.30798" lon="4.44366">
        <ele>1235.1</ele>
        <time>2018-08-19T11:22:11.000Z</time>
      </trkpt>
      <trkpt lat="45.30798" lon="4.44366">
        <ele>1235.1</ele>
        <time>2018-08-19T11:22:12.000Z</time>
      </trkpt>
      <trkpt lat="45.30798" lon="4.44366">
        <ele>1235.1</ele>
        <time>2018-08-19T11:22:13.000Z</time>
      </trkpt>
      <trkpt lat="45.30798" lon="4.44366">
        <ele>1235.1</ele>
        <time>2018-08-19T11:22:14.000Z</time>
      </trkpt>
      <trkpt lat="45.30798" lon="4.44366">
        <ele>1235.1</ele>
        <time>2018-08-19T11:22:15.000Z</time>
      </trkpt>
      <trkpt lat="45.30798" lon="4.44366">
        <ele>1235.1</ele>
        <time>2018-08-19T11:22:16.000Z</time>
      </trkpt>
      <trkpt lat="45.30798" lon="4.44366">
        <ele>1235.1</ele>
        <time>2018-08-19T11:22:17.000Z</time>
      </trkpt>
      <trkpt lat="45.30798" lon="4.44366">
        <ele>1235.1</ele>
        <time>2018-08-19T11:22:18.000Z</time>
      </trkpt>
      <trkpt lat="45.30798" lon="4.44366">
        <ele>1235.1</ele>
        <time>2018-08-19T11:22:19.000Z</time>
      </trkpt>
      <trkpt lat="45.30798" lon="4.44366">
        <ele>1235.1</ele>
        <time>2018-08-19T11:22:20.000Z</time>
      </trkpt>
      <trkpt lat="45.30798" lon="4.44366">
        <ele>1235.1</ele>
        <time>2018-08-19T11:22:21.000Z</time>
      </trkpt>
      <trkpt lat="45.30798" lon="4.44366">
        <ele>1235.1</ele>
        <time>2018-08-19T11:22:22.000Z</time>
      </trkpt>
      <trkpt lat="45.30798" lon="4.44366">
        <ele>1235.1</ele>
        <time>2018-08-19T11:22:23.000Z</time>
      </trkpt>
      <trkpt lat="45.30798" lon="4.44366">
        <ele>1235.1</ele>
        <time>2018-08-19T11:22:24.000Z</time>
      </trkpt>
      <trkpt lat="45.30798" lon="4.44366">
        <ele>1235.1</ele>
        <time>2018-08-19T11:22:25.000Z</time>
      </trkpt>
      <trkpt lat="45.30798" lon="4.44366">
        <ele>1235.1</ele>
        <time>2018-08-19T11:22:26.000Z</time>
      </trkpt>
      <trkpt lat="45.30798" lon="4.44366">
        <ele>1235.1</ele>
        <time>2018-08-19T11:22:27.000Z</time>
      </trkpt>
      <trkpt lat="45.30798" lon="4.44366">
        <ele>1235.1</ele>
        <time>2018-08-19T11:22:28.000Z</time>
      </trkpt>
      <trkpt lat="45.30798" lon="4.44366">
        <ele>1235.1</ele>
        <time>2018-08-19T11:22:29.000Z</time>
      </trkpt>
      <trkpt lat="45.30798" lon="4.44366">
        <ele>1235.1</ele>
        <time>2018-08-19T11:22:30.000Z</time>
      </trkpt>
      <trkpt lat="45.30798" lon="4.44366">
        <ele>1235.1</ele>
        <time>2018-08-19T11:22:31.000Z</time>
      </trkpt>
      <trkpt lat="45.30798" lon="4.44366">
        <ele>1235.1</ele>
        <time>2018-08-19T11:22:32.000Z</time>
      </trkpt>
      <trkpt lat="45.30798" lon="4.44366">
        <ele>1235.1</ele>
        <time>2018-08-19T11:22:33.000Z</time>
      </trkpt>
      <trkpt lat="45.30798" lon="4.44366">
        <ele>1235.1</ele>
        <time>2018-08-19T11:22:34.000Z</time>
      </trkpt>
      <trkpt lat="45.30798" lon="4.44366">
        <ele>1235.1</ele>
        <time>2018-08-19T11:22:35.000Z</time>
      </trkpt>
      <trkpt lat="45.30798" lon="4.44366">
        <ele>1235.1</ele>
        <time>2018-08-19T11:22:36.000Z</time>
      </trkpt>
      <trkpt lat="45.30798" lon="4.44366">
        <ele>1235.1</ele>
        <time>2018-08-19T11:22:37.000Z</time>
      </trkpt>
      <trkpt lat="45.30798" lon="4.44366">
        <ele>1235.1</ele>
        <time>2018-08-19T11:22:38.000Z</time>
      </trkpt>
      <trkpt lat="45.30798" lon="4.44366">
        <ele>1235.1</ele>
        <time>2018-08-19T11:22:39.000Z</time>
      </trkpt>
      <trkpt lat="45.30798" lon="4.44366">
        <ele>1235.1</ele>
        <time>2018-08-19T11:22:40.000Z</time>
      </trkpt>
      <trkpt lat="45.30798" lon="4.44366">
        <ele>1235.1</ele>
        <time>2018-08-19T11:22:41.000Z</time>
      </trkpt>
      <trkpt lat="45.30798" lon="4.44366">
        <ele>1235.1</ele>
        <time>2018-08-19T11:22:42.000Z</time>
      </trkpt>
      <trkpt lat="45.30798" lon="4.44366">
        <ele>1235.1</ele>
        <time>2018-08-19T11:22:43.000Z</time>
      </trkpt>
      <trkpt lat="45.30798" lon="4.44366">
        <ele>1235.1</ele>
        <time>2018-08-19T11:22:44.000Z</time>
      </trkpt>
      <trkpt lat="45.30798" lon="4.44366">
        <ele>1235.1</ele>
        <time>2018-08-19T11:22:45.000Z</time>
      </trkpt>
      <trkpt lat="45.30798" lon="4.44366">
        <ele>1235.1</ele>
        <time>2018-08-19T11:22:46.000Z</time>
      </trkpt>
      <trkpt lat="45.30798" lon="4.44366">
        <ele>1235.1</ele>
        <time>2018-08-19T11:22:47.000Z</time>
      </trkpt>
      <trkpt lat="45.30798" lon="4.44366">
        <ele>1235.1</ele>
        <time>2018-08-19T11:22:48.000Z</time>
      </trkpt>
      <trkpt lat="45.30798" lon="4.44366">
        <ele>1235.1</ele>
        <time>2018-08-19T11:22:49.000Z</time>
      </trkpt>
      <trkpt lat="45.30798" lon="4.44366">
        <ele>1235.1</ele>
        <time>2018-08-19T11:22:50.000Z</time>
      </trkpt>
      <trkpt lat="45.30798" lon="4.44366">
        <ele>1235.1</ele>
        <time>2018-08-19T11:22:51.000Z</time>
      </trkpt>
      <trkpt lat="45.30798" lon="4.44366">
        <ele>1235.1</ele>
        <time>2018-08-19T11:22:52.000Z</time>
      </trkpt>
      <trkpt lat="45.30798" lon="4.44366">
        <ele>1235.1</ele>
        <time>2018-08-19T11:22:53.000Z</time>
      </trkpt>
      <trkpt lat="45.30798" lon="4.44366">
        <ele>1235.1</ele>
        <time>2018-08-19T11:22:54.000Z</time>
      </trkpt>
      <trkpt lat="45.30798" lon="4.44366">
        <ele>1235.1</ele>
        <time>2018-08-19T11:22:55.000Z</time>
      </trkpt>
      <trkpt lat="45.30798" lon="4.44366">
        <ele>1235.1</ele>
        <time>2018-08-19T11:22:56.000Z</time>
      </trkpt>
      <trkpt lat="45.30798" lon="4.44366">
        <ele>1235.1</ele>
        <time>2018-08-19T11:22:57.000Z</time>
      </trkpt>
      <trkpt lat="45.30798" lon="4.44366">
        <ele>1235.1</ele>
        <time>2018-08-19T11:22:58.000Z</time>
      </trkpt>
      <trkpt lat="45.30798" lon="4.44366">
        <ele>1235.1</ele>
        <time>2018-08-19T11:22:59.000Z</time>
      </trkpt>
      <trkpt lat="45.30798" lon="4.44366">
        <ele>1235.1</ele>
        <time>2018-08-19T11:23:00.000Z</time>
      </trkpt>
      <trkpt lat="45.30798" lon="4.44366">
        <ele>1235.1</ele>
        <time>2018-08-19T11:23:01.000Z</time>
      </trkpt>
      <trkpt lat="45.30798" lon="4.44366">
        <ele>1235.1</ele>
        <time>2018-08-19T11:23:02.000Z</time>
      </trkpt>
      <trkpt lat="45.30798" lon="4.44366">
        <ele>1235.1</ele>
        <time>2018-08-19T11:23:03.000Z</time>
      </trkpt>
      <trkpt lat="45.30798" lon="4.44366">
        <ele>1235.1</ele>
        <time>2018-08-19T11:23:04.000Z</time>
      </trkpt>
      <trkpt lat="45.30798" lon="4.44366">
        <ele>1235.1</ele>
        <time>2018-08-19T11:23:05.000Z</time>
      </trkpt>
      <trkpt lat="45.30798" lon="4.44366">
        <ele>1235.1</ele>
        <time>2018-08-19T11:23:06.000Z</time>
      </trkpt>
      <trkpt lat="45.30798" lon="4.44366">
        <ele>1235.1</ele>
        <time>2018-08-19T11:23:07.000Z</time>
      </trkpt>
      <trkpt lat="45.30798" lon="4.44366">
        <ele>1235.1</ele>
        <time>2018-08-19T11:23:08.000Z</time>
      </trkpt>
      <trkpt lat="45.30798" lon="4.44366">
        <ele>1235.1</ele>
        <time>2018-08-19T11:23:09.000Z</time>
      </trkpt>
      <trkpt lat="45.30798" lon="4.44366">
        <ele>1235.1</ele>
        <time>2018-08-19T11:23:10.000Z</time>
      </trkpt>
      <trkpt lat="45.30798" lon="4.44366">
        <ele>1235.1</ele>
        <time>2018-08-19T11:23:11.000Z</time>
      </trkpt>
      <trkpt lat="45.30798" lon="4.44366">
        <ele>1235.1</ele>
        <time>2018-08-19T11:23:12.000Z</time>
      </trkpt>
      <trkpt lat="45.30798" lon="4.44366">
        <ele>1235.1</ele>
        <time>2018-08-19T11:23:13.000Z</time>
      </trkpt>
      <trkpt lat="45.30798" lon="4.44366">
        <ele>1235.1</ele>
        <time>2018-08-19T11:23:14.000Z</time>
      </trkpt>
      <trkpt lat="45.30798" lon="4.44366">
        <ele>1235.1</ele>
        <time>2018-08-19T11:23:15.000Z</time>
      </trkpt>
      <trkpt lat="45.30798" lon="4.44366">
        <ele>1235.1</ele>
        <time>2018-08-19T11:23:16.000Z</time>
      </trkpt>
      <trkpt lat="45.30798" lon="4.44366">
        <ele>1235.1</ele>
        <time>2018-08-19T11:23:17.000Z</time>
      </trkpt>
      <trkpt lat="45.30798" lon="4.44366">
        <ele>1235.1</ele>
        <time>2018-08-19T11:23:18.000Z</time>
      </trkpt>
      <trkpt lat="45.30798" lon="4.44366">
        <ele>1235.1</ele>
        <time>2018-08-19T11:23:19.000Z</time>
      </trkpt>
      <trkpt lat="45.30798" lon="4.44366">
        <ele>1235.1</ele>
        <time>2018-08-19T11:23:20.000Z</time>
      </trkpt>
      <trkpt lat="45.30798" lon="4.44366">
        <ele>1235.1</ele>
        <time>2018-08-19T11:23:21.000Z</time>
      </trkpt>
      <trkpt lat="45.30798" lon="4.44366">
        <ele>1235.1</ele>
        <time>2018-08-19T11:23:22.000Z</time>
      </trkpt>
      <trkpt lat="45.30798" lon="4.44366">
        <ele>1235.1</ele>
        <time>2018-08-19T11:23:23.000Z</time>
      </trkpt>
      <trkpt lat="45.30798" lon="4.44366">
        <ele>1235.1</ele>
        <time>2018-08-19T11:23:24.000Z</time>
      </trkpt>
      <trkpt lat="45.30798" lon="4.44366">
        <ele>1235.1</ele>
        <time>2018-08-19T11:23:25.000Z</time>
      </trkpt>
      <trkpt lat="45.30798" lon="4.44366">
        <ele>1235.1</ele>
        <time>2018-08-19T11:23:26.000Z</time>
      </trkpt>
      <trkpt lat="45.30798" lon="4.44366">
        <ele>1235.1</ele>
        <time>2018-08-19T11:23:27.000Z</time>
      </trkpt>
      <trkpt lat="45.30798" lon="4.44366">
        <ele>1235.1</ele>
        <time>2018-08-19T11:23:28.000Z</time>
      </trkpt>
      <trkpt lat="45.30798" lon="4.44366">
        <ele>1235.1</ele>
        <time>2018-08-19T11:23:29.000Z</time>
      </trkpt>
      <trkpt lat="45.30798" lon="4.44366">
        <ele>1235.1</ele>
        <time>2018-08-19T11:23:30.000Z</time>
      </trkpt>
      <trkpt lat="45.30798" lon="4.44366">
        <ele>1235.1</ele>
        <time>2018-08-19T11:23:31.000Z</time>
      </trkpt>
      <trkpt lat="45.30798" lon="4.44366">
        <ele>1235.1</ele>
        <time>2018-08-19T11:23:32.000Z</time>
      </trkpt>
      <trkpt lat="45.30798" lon="4.44366">
        <ele>1235.1</ele>
        <time>2018-08-19T11:23:33.000Z</time>
      </trkpt>
      <trkpt lat="45.30798" lon="4.44366">
        <ele>1235.1</ele>
        <time>2018-08-19T11:23:34.000Z</time>
      </trkpt>
      <trkpt lat="45.30798" lon="4.44366">
        <ele>1235.1</ele>
        <time>2018-08-19T11:23:35.000Z</time>
      </trkpt>
      <trkpt lat="45.30798" lon="4.44366">
        <ele>1235.1</ele>
        <time>2018-08-19T11:23:36.000Z</time>
      </trkpt>
      <trkpt lat="45.30798" lon="4.44366">
        <ele>1235.1</ele>
        <time>2018-08-19T11:23:37.000Z</time>
      </trkpt>
      <trkpt lat="45.30798" lon="4.44366">
        <ele>1235.1</ele>
        <time>2018-08-19T11:23:38.000Z</time>
      </trkpt>
      <trkpt lat="45.30798" lon="4.44366">
        <ele>1235.1</ele>
        <time>2018-08-19T11:23:39.000Z</time>
      </trkpt>
      <trkpt lat="45.30798" lon="4.44366">
        <ele>1235.1</ele>
        <time>2018-08-19T11:23:40.000Z</time>
      </trkpt>
      <trkpt lat="45.30798" lon="4.44366">
        <ele>1235.1</ele>
        <time>2018-08-19T11:23:41.000Z</time>
      </trkpt>
      <trkpt lat="45.30798" lon="4.44366">
        <ele>1235.1</ele>
        <time>2018-08-19T11:23:42.000Z</time>
      </trkpt>
      <trkpt lat="45.30798" lon="4.44366">
        <ele>1235.1</ele>
        <time>2018-08-19T11:23:43.000Z</time>
      </trkpt>
      <trkpt lat="45.30798" lon="4.44366">
        <ele>1235.1</ele>
        <time>2018-08-19T11:23:44.000Z</time>
      </trkpt>
      <trkpt lat="45.30798" lon="4.44366">
        <ele>1235.1</ele>
        <time>2018-08-19T11:23:45.000Z</time>
      </trkpt>
      <trkpt lat="45.30798" lon="4.44366">
        <ele>1235.1</ele>
        <time>2018-08-19T11:23:46.000Z</time>
      </trkpt>
      <trkpt lat="45.30798" lon="4.44366">
        <ele>1235.1</ele>
        <time>2018-08-19T11:23:47.000Z</time>
      </trkpt>
      <trkpt lat="45.30798" lon="4.44366">
        <ele>1235.1</ele>
        <time>2018-08-19T11:23:48.000Z</time>
      </trkpt>
      <trkpt lat="45.30798" lon="4.44366">
        <ele>1235.1</ele>
        <time>2018-08-19T11:23:49.000Z</time>
      </trkpt>
      <trkpt lat="45.30798" lon="4.44366">
        <ele>1235.1</ele>
        <time>2018-08-19T11:23:50.000Z</time>
      </trkpt>
      <trkpt lat="45.30798" lon="4.44366">
        <ele>1235.1</ele>
        <time>2018-08-19T11:23:51.000Z</time>
      </trkpt>
      <trkpt lat="45.30798" lon="4.44366">
        <ele>1235.1</ele>
        <time>2018-08-19T11:23:52.000Z</time>
      </trkpt>
      <trkpt lat="45.30798" lon="4.44366">
        <ele>1235.1</ele>
        <time>2018-08-19T11:23:53.000Z</time>
      </trkpt>
      <trkpt lat="45.30798" lon="4.44366">
        <ele>1235.1</ele>
        <time>2018-08-19T11:23:54.000Z</time>
      </trkpt>
      <trkpt lat="45.30798" lon="4.44366">
        <ele>1235.1</ele>
        <time>2018-08-19T11:23:55.000Z</time>
      </trkpt>
      <trkpt lat="45.30798" lon="4.44366">
        <ele>1235.1</ele>
        <time>2018-08-19T11:23:56.000Z</time>
      </trkpt>
      <trkpt lat="45.30798" lon="4.44366">
        <ele>1235.1</ele>
        <time>2018-08-19T11:23:57.000Z</time>
      </trkpt>
      <trkpt lat="45.30798" lon="4.44366">
        <ele>1235.1</ele>
        <time>2018-08-19T11:23:58.000Z</time>
      </trkpt>
      <trkpt lat="45.30798" lon="4.44366">
        <ele>1235.1</ele>
        <time>2018-08-19T11:23:59.000Z</time>
      </trkpt>
      <trkpt lat="45.30798" lon="4.44366">
        <ele>1235.1</ele>
        <time>2018-08-19T11:24:00.000Z</time>
      </trkpt>
      <trkpt lat="45.30798" lon="4.44366">
        <ele>1235.1</ele>
        <time>2018-08-19T11:24:01.000Z</time>
      </trkpt>
      <trkpt lat="45.30798" lon="4.44366">
        <ele>1235.1</ele>
        <time>2018-08-19T11:24:02.000Z</time>
      </trkpt>
      <trkpt lat="45.30798" lon="4.44366">
        <ele>1235.1</ele>
        <time>2018-08-19T11:24:03.000Z</time>
      </trkpt>
      <trkpt lat="45.30798" lon="4.44366">
        <ele>1235.1</ele>
        <time>2018-08-19T11:24:04.000Z</time>
      </trkpt>
      <trkpt lat="45.30798" lon="4.44366">
        <ele>1235.1</ele>
        <time>2018-08-19T11:24:05.000Z</time>
      </trkpt>
      <trkpt lat="45.30798" lon="4.44366">
        <ele>1235.1</ele>
        <time>2018-08-19T11:24:06.000Z</time>
      </trkpt>
      <trkpt lat="45.30798" lon="4.44366">
        <ele>1235.1</ele>
        <time>2018-08-19T11:24:07.000Z</time>
      </trkpt>
      <trkpt lat="45.30798" lon="4.44366">
        <ele>1235.1</ele>
        <time>2018-08-19T11:24:08.000Z</time>
      </trkpt>
      <trkpt lat="45.30798" lon="4.44366">
        <ele>1235.1</ele>
        <time>2018-08-19T11:24:09.000Z</time>
      </trkpt>
      <trkpt lat="45.30798" lon="4.44366">
        <ele>1235.1</ele>
        <time>2018-08-19T11:24:10.000Z</time>
      </trkpt>
      <trkpt lat="45.30798" lon="4.44366">
        <ele>1235.1</ele>
        <time>2018-08-19T11:24:11.000Z</time>
      </trkpt>
      <trkpt lat="45.30798" lon="4.44366">
        <ele>1235.1</ele>
        <time>2018-08-19T11:24:12.000Z</time>
      </trkpt>
      <trkpt lat="45.30798" lon="4.44366">
        <ele>1235.1</ele>
        <time>2018-08-19T11:24:13.000Z</time>
      </trkpt>
      <trkpt lat="45.30798" lon="4.44366">
        <ele>1235.1</ele>
        <time>2018-08-19T11:24:14.000Z</time>
      </trkpt>
      <trkpt lat="45.30798" lon="4.44366">
        <ele>1235.1</ele>
        <time>2018-08-19T11:24:15.000Z</time>
      </trkpt>
      <trkpt lat="45.30798" lon="4.44366">
        <ele>1235.1</ele>
        <time>2018-08-19T11:24:16.000Z</time>
      </trkpt>
      <trkpt lat="45.30798" lon="4.44366">
        <ele>1235.1</ele>
        <time>2018-08-19T11:24:17.000Z</time>
      </trkpt>
      <trkpt lat="45.30798" lon="4.44366">
        <ele>1235.1</ele>
        <time>2018-08-19T11:24:18.000Z</time>
      </trkpt>
      <trkpt lat="45.30798" lon="4.44366">
        <ele>1235.1</ele>
        <time>2018-08-19T11:24:19.000Z</time>
      </trkpt>
      <trkpt lat="45.30798" lon="4.44366">
        <ele>1235.1</ele>
        <time>2018-08-19T11:24:20.000Z</time>
      </trkpt>
      <trkpt lat="45.30798" lon="4.44366">
        <ele>1235.1</ele>
        <time>2018-08-19T11:24:21.000Z</time>
      </trkpt>
      <trkpt lat="45.30798" lon="4.44366">
        <ele>1235.1</ele>
        <time>2018-08-19T11:24:22.000Z</time>
      </trkpt>
      <trkpt lat="45.30798" lon="4.44366">
        <ele>1235.1</ele>
        <time>2018-08-19T11:24:23.000Z</time>
      </trkpt>
      <trkpt lat="45.30798" lon="4.44366">
        <ele>1235.1</ele>
        <time>2018-08-19T11:24:24.000Z</time>
      </trkpt>
      <trkpt lat="45.30798" lon="4.44366">
        <ele>1235.1</ele>
        <time>2018-08-19T11:24:25.000Z</time>
      </trkpt>
      <trkpt lat="45.30798" lon="4.44366">
        <ele>1235.1</ele>
        <time>2018-08-19T11:24:26.000Z</time>
      </trkpt>
      <trkpt lat="45.30798" lon="4.44366">
        <ele>1235.1</ele>
        <time>2018-08-19T11:24:27.000Z</time>
      </trkpt>
      <trkpt lat="45.30798" lon="4.44366">
        <ele>1235.1</ele>
        <time>2018-08-19T11:24:28.000Z</time>
      </trkpt>
      <trkpt lat="45.30798" lon="4.44366">
        <ele>1235.1</ele>
        <time>2018-08-19T11:24:29.000Z</time>
      </trkpt>
      <trkpt lat="45.30798" lon="4.44366">
        <ele>1235.1</ele>
        <time>2018-08-19T11:24:30.000Z</time>
      </trkpt>
      <trkpt lat="45.30798" lon="4.44366">
        <ele>1235.1</ele>
        <time>2018-08-19T11:24:31.000Z</time>
      </trkpt>
      <trkpt lat="45.30798" lon="4.44366">
        <ele>1235.1</ele>
        <time>2018-08-19T11:24:32.000Z</time>
      </trkpt>
      <trkpt lat="45.30798" lon="4.44366">
        <ele>1235.1</ele>
        <time>2018-08-19T11:24:33.000Z</time>
      </trkpt>
      <trkpt lat="45.30798" lon="4.44366">
        <ele>1235.1</ele>
        <time>2018-08-19T11:24:34.000Z</time>
      </trkpt>
      <trkpt lat="45.30798" lon="4.44366">
        <ele>1235.1</ele>
        <time>2018-08-19T11:24:35.000Z</time>
      </trkpt>
      <trkpt lat="45.30798" lon="4.44366">
        <ele>1235.1</ele>
        <time>2018-08-19T11:24:36.000Z</time>
      </trkpt>
      <trkpt lat="45.30798" lon="4.44366">
        <ele>1235.1</ele>
        <time>2018-08-19T11:24:37.000Z</time>
      </trkpt>
      <trkpt lat="45.30798" lon="4.44366">
        <ele>1235.1</ele>
        <time>2018-08-19T11:24:38.000Z</time>
      </trkpt>
      <trkpt lat="45.30798" lon="4.44366">
        <ele>1235.1</ele>
        <time>2018-08-19T11:24:39.000Z</time>
      </trkpt>
      <trkpt lat="45.30798" lon="4.44366">
        <ele>1235.1</ele>
        <time>2018-08-19T11:24:40.000Z</time>
      </trkpt>
      <trkpt lat="45.30798" lon="4.44366">
        <ele>1235.1</ele>
        <time>2018-08-19T11:24:41.000Z</time>
      </trkpt>
      <trkpt lat="45.30798" lon="4.44366">
        <ele>1235.1</ele>
        <time>2018-08-19T11:24:42.000Z</time>
      </trkpt>
      <trkpt lat="45.30798" lon="4.44366">
        <ele>1235.1</ele>
        <time>2018-08-19T11:24:43.000Z</time>
      </trkpt>
      <trkpt lat="45.30798" lon="4.44366">
        <ele>1235.1</ele>
        <time>2018-08-19T11:24:44.000Z</time>
      </trkpt>
      <trkpt lat="45.30798" lon="4.44366">
        <ele>1235.1</ele>
        <time>2018-08-19T11:24:45.000Z</time>
      </trkpt>
      <trkpt lat="45.30798" lon="4.44366">
        <ele>1235.1</ele>
        <time>2018-08-19T11:24:46.000Z</time>
      </trkpt>
      <trkpt lat="45.30798" lon="4.44366">
        <ele>1235.1</ele>
        <time>2018-08-19T11:24:47.000Z</time>
      </trkpt>
      <trkpt lat="45.30798" lon="4.44366">
        <ele>1235.1</ele>
        <time>2018-08-19T11:24:48.000Z</time>
      </trkpt>
      <trkpt lat="45.30798" lon="4.44366">
        <ele>1235.1</ele>
        <time>2018-08-19T11:24:49.000Z</time>
      </trkpt>
      <trkpt lat="45.30798" lon="4.44366">
        <ele>1235.1</ele>
        <time>2018-08-19T11:24:50.000Z</time>
      </trkpt>
      <trkpt lat="45.30798" lon="4.44366">
        <ele>1235.1</ele>
        <time>2018-08-19T11:24:51.000Z</time>
      </trkpt>
      <trkpt lat="45.30798" lon="4.44366">
        <ele>1235.1</ele>
        <time>2018-08-19T11:24:52.000Z</time>
      </trkpt>
      <trkpt lat="45.30798" lon="4.44366">
        <ele>1235.1</ele>
        <time>2018-08-19T11:24:53.000Z</time>
      </trkpt>
      <trkpt lat="45.30798" lon="4.44366">
        <ele>1235.1</ele>
        <time>2018-08-19T11:24:54.000Z</time>
      </trkpt>
      <trkpt lat="45.30798" lon="4.44366">
        <ele>1235.1</ele>
        <time>2018-08-19T11:24:55.000Z</time>
      </trkpt>
      <trkpt lat="45.30798" lon="4.44366">
        <ele>1235.1</ele>
        <time>2018-08-19T11:24:56.000Z</time>
      </trkpt>
      <trkpt lat="45.30798" lon="4.44366">
        <ele>1235.1</ele>
        <time>2018-08-19T11:24:57.000Z</time>
      </trkpt>
      <trkpt lat="45.30798" lon="4.44366">
        <ele>1235.1</ele>
        <time>2018-08-19T11:24:58.000Z</time>
      </trkpt>
      <trkpt lat="45.30798" lon="4.44366">
        <ele>1235.1</ele>
        <time>2018-08-19T11:24:59.000Z</time>
      </trkpt>
      <trkpt lat="45.30798" lon="4.44366">
        <ele>1235.1</ele>
        <time>2018-08-19T11:25:00.000Z</time>
      </trkpt>
      <trkpt lat="45.30798" lon="4.44366">
        <ele>1235.1</ele>
        <time>2018-08-19T11:25:01.000Z</time>
      </trkpt>
      <trkpt lat="45.30798" lon="4.44366">
        <ele>1235.1</ele>
        <time>2018-08-19T11:25:02.000Z</time>
      </trkpt>
      <trkpt lat="45.30798" lon="4.44366">
        <ele>1235.1</ele>
        <time>2018-08-19T11:25:03.000Z</time>
      </trkpt>
      <trkpt lat="45.30798" lon="4.44366">
        <ele>1235.1</ele>
        <time>2018-08-19T11:25:04.000Z</time>
      </trkpt>
      <trkpt lat="45.30798" lon="4.44366">
        <ele>1235.1</ele>
        <time>2018-08-19T11:25:05.000Z</time>
      </trkpt>
      <trkpt lat="45.30798" lon="4.44366">
        <ele>1235.1</ele>
        <time>2018-08-19T11:25:06.000Z</time>
      </trkpt>
      <trkpt lat="45.30798" lon="4.44366">
        <ele>1235.1</ele>
        <time>2018-08-19T11:25:07.000Z</time>
      </trkpt>
      <trkpt lat="45.30798" lon="4.44366">
        <ele>1235.1</ele>
        <time>2018-08-19T11:25:08.000Z</time>
      </trkpt>
      <trkpt lat="45.30798" lon="4.44366">
        <ele>1235.1</ele>
        <time>2018-08-19T11:25:09.000Z</time>
      </trkpt>
      <trkpt lat="45.30798" lon="4.44366">
        <ele>1235.1</ele>
        <time>2018-08-19T11:25:10.000Z</time>
      </trkpt>
      <trkpt lat="45.30798" lon="4.44366">
        <ele>1235.1</ele>
        <time>2018-08-19T11:25:11.000Z</time>
      </trkpt>
      <trkpt lat="45.30798" lon="4.44366">
        <ele>1235.1</ele>
        <time>2018-08-19T11:25:12.000Z</time>
      </trkpt>
      <trkpt lat="45.30798" lon="4.44366">
        <ele>1235.1</ele>
        <time>2018-08-19T11:25:13.000Z</time>
      </trkpt>
      <trkpt lat="45.30798" lon="4.44366">
        <ele>1235.1</ele>
        <time>2018-08-19T11:25:14.000Z</time>
      </trkpt>
      <trkpt lat="45.30798" lon="4.44366">
        <ele>1235.1</ele>
        <time>2018-08-19T11:25:15.000Z</time>
      </trkpt>
      <trkpt lat="45.30798" lon="4.44366">
        <ele>1235.1</ele>
        <time>2018-08-19T11:25:16.000Z</time>
      </trkpt>
      <trkpt lat="45.30798" lon="4.44366">
        <ele>1235.1</ele>
        <time>2018-08-19T11:25:17.000Z</time>
      </trkpt>
      <trkpt lat="45.30798" lon="4.44366">
        <ele>1235.1</ele>
        <time>2018-08-19T11:25:18.000Z</time>
      </trkpt>
      <trkpt lat="45.30798" lon="4.44366">
        <ele>1235.1</ele>
        <time>2018-08-19T11:25:19.000Z</time>
      </trkpt>
      <trkpt lat="45.30798" lon="4.44366">
        <ele>1235.1</ele>
        <time>2018-08-19T11:25:20.000Z</time>
      </trkpt>
      <trkpt lat="45.30798" lon="4.44366">
        <ele>1235.1</ele>
        <time>2018-08-19T11:25:21.000Z</time>
      </trkpt>
      <trkpt lat="45.30798" lon="4.44366">
        <ele>1235.1</ele>
        <time>2018-08-19T11:25:22.000Z</time>
      </trkpt>
      <trkpt lat="45.30798" lon="4.44366">
        <ele>1235.1</ele>
        <time>2018-08-19T11:25:23.000Z</time>
      </trkpt>
      <trkpt lat="45.30798" lon="4.44366">
        <ele>1235.1</ele>
        <time>2018-08-19T11:25:24.000Z</time>
      </trkpt>
      <trkpt lat="45.30798" lon="4.44366">
        <ele>1235.1</ele>
        <time>2018-08-19T11:25:25.000Z</time>
      </trkpt>
      <trkpt lat="45.30798" lon="4.44366">
        <ele>1235.1</ele>
        <time>2018-08-19T11:25:26.000Z</time>
      </trkpt>
      <trkpt lat="45.30798" lon="4.44366">
        <ele>1235.1</ele>
        <time>2018-08-19T11:25:27.000Z</time>
      </trkpt>
      <trkpt lat="45.30798" lon="4.44366">
        <ele>1235.1</ele>
        <time>2018-08-19T11:25:28.000Z</time>
      </trkpt>
      <trkpt lat="45.30798" lon="4.44366">
        <ele>1235.1</ele>
        <time>2018-08-19T11:25:29.000Z</time>
      </trkpt>
      <trkpt lat="45.30798" lon="4.44366">
        <ele>1235.1</ele>
        <time>2018-08-19T11:25:30.000Z</time>
      </trkpt>
      <trkpt lat="45.30798" lon="4.44366">
        <ele>1235.1</ele>
        <time>2018-08-19T11:25:31.000Z</time>
      </trkpt>
      <trkpt lat="45.30798" lon="4.44366">
        <ele>1235.1</ele>
        <time>2018-08-19T11:25:32.000Z</time>
      </trkpt>
      <trkpt lat="45.30798" lon="4.44366">
        <ele>1235.1</ele>
        <time>2018-08-19T11:25:33.000Z</time>
      </trkpt>
      <trkpt lat="45.30798" lon="4.44366">
        <ele>1235.1</ele>
        <time>2018-08-19T11:25:34.000Z</time>
      </trkpt>
      <trkpt lat="45.30798" lon="4.44366">
        <ele>1235.1</ele>
        <time>2018-08-19T11:25:35.000Z</time>
      </trkpt>
      <trkpt lat="45.30798" lon="4.44366">
        <ele>1235.1</ele>
        <time>2018-08-19T11:25:36.000Z</time>
      </trkpt>
      <trkpt lat="45.30798" lon="4.44366">
        <ele>1235.1</ele>
        <time>2018-08-19T11:25:37.000Z</time>
      </trkpt>
      <trkpt lat="45.30798" lon="4.44366">
        <ele>1235.1</ele>
        <time>2018-08-19T11:25:38.000Z</time>
      </trkpt>
      <trkpt lat="45.30798" lon="4.44366">
        <ele>1235.1</ele>
        <time>2018-08-19T11:25:39.000Z</time>
      </trkpt>
      <trkpt lat="45.30798" lon="4.44366">
        <ele>1235.1</ele>
        <time>2018-08-19T11:25:40.000Z</time>
      </trkpt>
      <trkpt lat="45.30798" lon="4.44366">
        <ele>1235.1</ele>
        <time>2018-08-19T11:25:41.000Z</time>
      </trkpt>
      <trkpt lat="45.30798" lon="4.44366">
        <ele>1235.1</ele>
        <time>2018-08-19T11:25:42.000Z</time>
      </trkpt>
      <trkpt lat="45.30798" lon="4.44366">
        <ele>1235.1</ele>
        <time>2018-08-19T11:25:43.000Z</time>
      </trkpt>
      <trkpt lat="45.30798" lon="4.44366">
        <ele>1235.1</ele>
        <time>2018-08-19T11:25:44.000Z</time>
      </trkpt>
      <trkpt lat="45.30798" lon="4.44366">
        <ele>1235.1</ele>
        <time>2018-08-19T11:25:45.000Z</time>
      </trkpt>
      <trkpt lat="45.30798" lon="4.44366">
        <ele>1235.1</ele>
        <time>2018-08-19T11:25:46.000Z</time>
      </trkpt>
      <trkpt lat="45.30798" lon="4.44366">
        <ele>1235.1</ele>
        <time>2018-08-19T11:25:47.000Z</time>
      </trkpt>
      <trkpt lat="45.30798" lon="4.44366">
        <ele>1235.1</ele>
        <time>2018-08-19T11:25:48.000Z</time>
      </trkpt>
      <trkpt lat="45.30798" lon="4.44366">
        <ele>1235.1</ele>
        <time>2018-08-19T11:25:49.000Z</time>
      </trkpt>
      <trkpt lat="45.30798" lon="4.44366">
        <ele>1235.1</ele>
        <time>2018-08-19T11:25:50.000Z</time>
      </trkpt>
      <trkpt lat="45.30798" lon="4.44366">
        <ele>1235.1</ele>
        <time>2018-08-19T11:25:51.000Z</time>
      </trkpt>
      <trkpt lat="45.30798" lon="4.44366">
        <ele>1235.1</ele>
        <time>2018-08-19T11:25:52.000Z</time>
      </trkpt>
      <trkpt lat="45.30798" lon="4.44366">
        <ele>1235.1</ele>
        <time>2018-08-19T11:25:53.000Z</time>
      </trkpt>
      <trkpt lat="45.30798" lon="4.44366">
        <ele>1235.1</ele>
        <time>2018-08-19T11:25:54.000Z</time>
      </trkpt>
      <trkpt lat="45.30798" lon="4.44366">
        <ele>1235.1</ele>
        <time>2018-08-19T11:25:55.000Z</time>
      </trkpt>
      <trkpt lat="45.30798" lon="4.44366">
        <ele>1235.1</ele>
        <time>2018-08-19T11:25:56.000Z</time>
      </trkpt>
      <trkpt lat="45.30798" lon="4.44366">
        <ele>1235.1</ele>
        <time>2018-08-19T11:25:57.000Z</time>
      </trkpt>
      <trkpt lat="45.30798" lon="4.44366">
        <ele>1235.1</ele>
        <time>2018-08-19T11:25:58.000Z</time>
      </trkpt>
      <trkpt lat="45.30798" lon="4.44366">
        <ele>1235.1</ele>
        <time>2018-08-19T11:25:59.000Z</time>
      </trkpt>
      <trkpt lat="45.30798" lon="4.44366">
        <ele>1235.1</ele>
        <time>2018-08-19T11:26:00.000Z</time>
      </trkpt>
      <trkpt lat="45.30798" lon="4.44366">
        <ele>1235.1</ele>
        <time>2018-08-19T11:26:01.000Z</time>
      </trkpt>
      <trkpt lat="45.30798" lon="4.44366">
        <ele>1235.1</ele>
        <time>2018-08-19T11:26:02.000Z</time>
      </trkpt>
      <trkpt lat="45.30798" lon="4.44366">
        <ele>1235.1</ele>
        <time>2018-08-19T11:26:03.000Z</time>
      </trkpt>
      <trkpt lat="45.30798" lon="4.44366">
        <ele>1235.1</ele>
        <time>2018-08-19T11:26:04.000Z</time>
      </trkpt>
      <trkpt lat="45.30798" lon="4.44366">
        <ele>1235.1</ele>
        <time>2018-08-19T11:26:05.000Z</time>
      </trkpt>
      <trkpt lat="45.30798" lon="4.44366">
        <ele>1235.1</ele>
        <time>2018-08-19T11:26:06.000Z</time>
      </trkpt>
      <trkpt lat="45.30798" lon="4.44366">
        <ele>1235.1</ele>
        <time>2018-08-19T11:26:07.000Z</time>
      </trkpt>
      <trkpt lat="45.30798" lon="4.44366">
        <ele>1235.1</ele>
        <time>2018-08-19T11:26:08.000Z</time>
      </trkpt>
      <trkpt lat="45.30798" lon="4.44366">
        <ele>1235.1</ele>
        <time>2018-08-19T11:26:09.000Z</time>
      </trkpt>
      <trkpt lat="45.30798" lon="4.44366">
        <ele>1235.1</ele>
        <time>2018-08-19T11:26:10.000Z</time>
      </trkpt>
      <trkpt lat="45.30798" lon="4.44366">
        <ele>1235.1</ele>
        <time>2018-08-19T11:26:11.000Z</time>
      </trkpt>
      <trkpt lat="45.30798" lon="4.44366">
        <ele>1235.1</ele>
        <time>2018-08-19T11:26:12.000Z</time>
      </trkpt>
      <trkpt lat="45.30798" lon="4.44366">
        <ele>1235.1</ele>
        <time>2018-08-19T11:26:13.000Z</time>
      </trkpt>
      <trkpt lat="45.30798" lon="4.44366">
        <ele>1235.1</ele>
        <time>2018-08-19T11:26:14.000Z</time>
      </trkpt>
      <trkpt lat="45.30798" lon="4.44366">
        <ele>1235.1</ele>
        <time>2018-08-19T11:26:15.000Z</time>
      </trkpt>
      <trkpt lat="45.30798" lon="4.44366">
        <ele>1235.1</ele>
        <time>2018-08-19T11:26:16.000Z</time>
      </trkpt>
      <trkpt lat="45.30798" lon="4.44366">
        <ele>1235.1</ele>
        <time>2018-08-19T11:26:17.000Z</time>
      </trkpt>
      <trkpt lat="45.30798" lon="4.44366">
        <ele>1235.1</ele>
        <time>2018-08-19T11:26:18.000Z</time>
      </trkpt>
      <trkpt lat="45.30798" lon="4.44366">
        <ele>1235.1</ele>
        <time>2018-08-19T11:26:19.000Z</time>
      </trkpt>
      <trkpt lat="45.30798" lon="4.44366">
        <ele>1235.1</ele>
        <time>2018-08-19T11:26:20.000Z</time>
      </trkpt>
      <trkpt lat="45.30798" lon="4.44366">
        <ele>1235.1</ele>
        <time>2018-08-19T11:26:21.000Z</time>
      </trkpt>
      <trkpt lat="45.30798" lon="4.44366">
        <ele>1235.1</ele>
        <time>2018-08-19T11:26:22.000Z</time>
      </trkpt>
      <trkpt lat="45.30798" lon="4.44366">
        <ele>1235.1</ele>
        <time>2018-08-19T11:26:23.000Z</time>
      </trkpt>
      <trkpt lat="45.30798" lon="4.44366">
        <ele>1235.1</ele>
        <time>2018-08-19T11:26:24.000Z</time>
      </trkpt>
      <trkpt lat="45.30798" lon="4.44366">
        <ele>1235.1</ele>
        <time>2018-08-19T11:26:25.000Z</time>
      </trkpt>
      <trkpt lat="45.30798" lon="4.44366">
        <ele>1235.1</ele>
        <time>2018-08-19T11:26:26.000Z</time>
      </trkpt>
      <trkpt lat="45.30798" lon="4.44366">
        <ele>1235.1</ele>
        <time>2018-08-19T11:26:27.000Z</time>
      </trkpt>
      <trkpt lat="45.30798" lon="4.44366">
        <ele>1235.1</ele>
        <time>2018-08-19T11:26:28.000Z</time>
      </trkpt>
      <trkpt lat="45.30798" lon="4.44366">
        <ele>1235.1</ele>
        <time>2018-08-19T11:26:29.000Z</time>
      </trkpt>
      <trkpt lat="45.30798" lon="4.44366">
        <ele>1235.1</ele>
        <time>2018-08-19T11:26:30.000Z</time>
      </trkpt>
      <trkpt lat="45.30798" lon="4.44366">
        <ele>1235.1</ele>
        <time>2018-08-19T11:26:31.000Z</time>
      </trkpt>
      <trkpt lat="45.30798" lon="4.44366">
        <ele>1235.1</ele>
        <time>2018-08-19T11:26:32.000Z</time>
      </trkpt>
      <trkpt lat="45.30798" lon="4.44366">
        <ele>1235.1</ele>
        <time>2018-08-19T11:26:33.000Z</time>
      </trkpt>
      <trkpt lat="45.30798" lon="4.44366">
        <ele>1235.1</ele>
        <time>2018-08-19T11:26:34.000Z</time>
      </trkpt>
      <trkpt lat="45.30798" lon="4.44366">
        <ele>1235.1</ele>
        <time>2018-08-19T11:26:35.000Z</time>
      </trkpt>
      <trkpt lat="45.30798" lon="4.44366">
        <ele>1235.1</ele>
        <time>2018-08-19T11:26:36.000Z</time>
      </trkpt>
      <trkpt lat="45.30798" lon="4.44366">
        <ele>1235.1</ele>
        <time>2018-08-19T11:26:37.000Z</time>
      </trkpt>
      <trkpt lat="45.30798" lon="4.44366">
        <ele>1235.1</ele>
        <time>2018-08-19T11:26:38.000Z</time>
      </trkpt>
      <trkpt lat="45.30798" lon="4.44366">
        <ele>1235.1</ele>
        <time>2018-08-19T11:26:39.000Z</time>
      </trkpt>
      <trkpt lat="45.30798" lon="4.44366">
        <ele>1235.1</ele>
        <time>2018-08-19T11:26:40.000Z</time>
      </trkpt>
      <trkpt lat="45.30798" lon="4.44366">
        <ele>1235.1</ele>
        <time>2018-08-19T11:26:41.000Z</time>
      </trkpt>
      <trkpt lat="45.30798" lon="4.44366">
        <ele>1235.1</ele>
        <time>2018-08-19T11:26:42.000Z</time>
      </trkpt>
      <trkpt lat="45.30798" lon="4.44366">
        <ele>1235.1</ele>
        <time>2018-08-19T11:26:43.000Z</time>
      </trkpt>
      <trkpt lat="45.30798" lon="4.44366">
        <ele>1235.1</ele>
        <time>2018-08-19T11:26:44.000Z</time>
      </trkpt>
      <trkpt lat="45.30798" lon="4.44366">
        <ele>1235.1</ele>
        <time>2018-08-19T11:26:45.000Z</time>
      </trkpt>
      <trkpt lat="45.30798" lon="4.44366">
        <ele>1235.1</ele>
        <time>2018-08-19T11:26:46.000Z</time>
      </trkpt>
      <trkpt lat="45.30798" lon="4.44366">
        <ele>1235.1</ele>
        <time>2018-08-19T11:26:47.000Z</time>
      </trkpt>
      <trkpt lat="45.30798" lon="4.44366">
        <ele>1235.1</ele>
        <time>2018-08-19T11:26:48.000Z</time>
      </trkpt>
      <trkpt lat="45.30798" lon="4.44366">
        <ele>1235.1</ele>
        <time>2018-08-19T11:26:49.000Z</time>
      </trkpt>
      <trkpt lat="45.30798" lon="4.44366">
        <ele>1235.1</ele>
        <time>2018-08-19T11:26:50.000Z</time>
      </trkpt>
      <trkpt lat="45.30798" lon="4.44366">
        <ele>1235.1</ele>
        <time>2018-08-19T11:26:51.000Z</time>
      </trkpt>
      <trkpt lat="45.30798" lon="4.44366">
        <ele>1235.1</ele>
        <time>2018-08-19T11:26:52.000Z</time>
      </trkpt>
      <trkpt lat="45.30798" lon="4.44366">
        <ele>1235.1</ele>
        <time>2018-08-19T11:26:53.000Z</time>
      </trkpt>
      <trkpt lat="45.30798" lon="4.44366">
        <ele>1235.1</ele>
        <time>2018-08-19T11:26:54.000Z</time>
      </trkpt>
      <trkpt lat="45.30798" lon="4.44366">
        <ele>1235.1</ele>
        <time>2018-08-19T11:26:55.000Z</time>
      </trkpt>
      <trkpt lat="45.30798" lon="4.44366">
        <ele>1235.1</ele>
        <time>2018-08-19T11:26:56.000Z</time>
      </trkpt>
      <trkpt lat="45.30798" lon="4.44366">
        <ele>1235.1</ele>
        <time>2018-08-19T11:26:57.000Z</time>
      </trkpt>
      <trkpt lat="45.30798" lon="4.44366">
        <ele>1235.1</ele>
        <time>2018-08-19T11:26:58.000Z</time>
      </trkpt>
      <trkpt lat="45.30798" lon="4.44366">
        <ele>1235.1</ele>
        <time>2018-08-19T11:26:59.000Z</time>
      </trkpt>
      <trkpt lat="45.30798" lon="4.44366">
        <ele>1235.1</ele>
        <time>2018-08-19T11:27:00.000Z</time>
      </trkpt>
      <trkpt lat="45.30798" lon="4.44366">
        <ele>1235.1</ele>
        <time>2018-08-19T11:27:01.000Z</time>
      </trkpt>
      <trkpt lat="45.30798" lon="4.44366">
        <ele>1235.1</ele>
        <time>2018-08-19T11:27:02.000Z</time>
      </trkpt>
      <trkpt lat="45.30798" lon="4.44366">
        <ele>1235.1</ele>
        <time>2018-08-19T11:27:03.000Z</time>
      </trkpt>
      <trkpt lat="45.30798" lon="4.44366">
        <ele>1235.1</ele>
        <time>2018-08-19T11:27:04.000Z</time>
      </trkpt>
      <trkpt lat="45.30798" lon="4.44366">
        <ele>1235.1</ele>
        <time>2018-08-19T11:27:05.000Z</time>
      </trkpt>
      <trkpt lat="45.30798" lon="4.44366">
        <ele>1235.1</ele>
        <time>2018-08-19T11:27:06.000Z</time>
      </trkpt>
      <trkpt lat="45.30798" lon="4.44366">
        <ele>1235.1</ele>
        <time>2018-08-19T11:27:07.000Z</time>
      </trkpt>
      <trkpt lat="45.30798" lon="4.44366">
        <ele>1235.1</ele>
        <time>2018-08-19T11:27:08.000Z</time>
      </trkpt>
      <trkpt lat="45.30798" lon="4.44366">
        <ele>1235.1</ele>
        <time>2018-08-19T11:27:09.000Z</time>
      </trkpt>
      <trkpt lat="45.30798" lon="4.44366">
        <ele>1235.1</ele>
        <time>2018-08-19T11:27:10.000Z</time>
      </trkpt>
      <trkpt lat="45.30798" lon="4.44366">
        <ele>1235.1</ele>
        <time>2018-08-19T11:27:11.000Z</time>
      </trkpt>
      <trkpt lat="45.30798" lon="4.44366">
        <ele>1235.1</ele>
        <time>2018-08-19T11:27:12.000Z</time>
      </trkpt>
      <trkpt lat="45.30798" lon="4.44366">
        <ele>1235.1</ele>
        <time>2018-08-19T11:27:13.000Z</time>
      </trkpt>
      <trkpt lat="45.30798" lon="4.44366">
        <ele>1235.1</ele>
        <time>2018-08-19T11:27:14.000Z</time>
      </trkpt>
      <trkpt lat="45.30798" lon="4.44366">
        <ele>1235.1</ele>
        <time>2018-08-19T11:27:15.000Z</time>
      </trkpt>
      <trkpt lat="45.30798" lon="4.44366">
        <ele>1235.1</ele>
        <time>2018-08-19T11:27:16.000Z</time>
      </trkpt>
      <trkpt lat="45.30798" lon="4.44366">
        <ele>1235.1</ele>
        <time>2018-08-19T11:27:17.000Z</time>
      </trkpt>
      <trkpt lat="45.30798" lon="4.44366">
        <ele>1235.1</ele>
        <time>2018-08-19T11:27:18.000Z</time>
      </trkpt>
      <trkpt lat="45.30798" lon="4.44366">
        <ele>1235.1</ele>
        <time>2018-08-19T11:27:19.000Z</time>
      </trkpt>
      <trkpt lat="45.30798" lon="4.44366">
        <ele>1235.1</ele>
        <time>2018-08-19T11:27:20.000Z</time>
      </trkpt>
      <trkpt lat="45.30798" lon="4.44366">
        <ele>1235.1</ele>
        <time>2018-08-19T11:27:21.000Z</time>
      </trkpt>
      <trkpt lat="45.30798" lon="4.44366">
        <ele>1235.1</ele>
        <time>2018-08-19T11:27:22.000Z</time>
      </trkpt>
      <trkpt lat="45.30798" lon="4.44366">
        <ele>1235.1</ele>
        <time>2018-08-19T11:27:23.000Z</time>
      </trkpt>
      <trkpt lat="45.30798" lon="4.44366">
        <ele>1235.1</ele>
        <time>2018-08-19T11:27:24.000Z</time>
      </trkpt>
      <trkpt lat="45.30798" lon="4.44366">
        <ele>1235.1</ele>
        <time>2018-08-19T11:27:25.000Z</time>
      </trkpt>
      <trkpt lat="45.30798" lon="4.44366">
        <ele>1235.1</ele>
        <time>2018-08-19T11:27:26.000Z</time>
      </trkpt>
      <trkpt lat="45.30798" lon="4.44366">
        <ele>1235.1</ele>
        <time>2018-08-19T11:27:27.000Z</time>
      </trkpt>
      <trkpt lat="45.30798" lon="4.44366">
        <ele>1235.1</ele>
        <time>2018-08-19T11:27:28.000Z</time>
      </trkpt>
      <trkpt lat="45.30798" lon="4.44366">
        <ele>1235.1</ele>
        <time>2018-08-19T11:27:29.000Z</time>
      </trkpt>
      <trkpt lat="45.30798" lon="4.44366">
        <ele>1235.1</ele>
        <time>2018-08-19T11:27:30.000Z</time>
      </trkpt>
      <trkpt lat="45.30798" lon="4.44366">
        <ele>1235.1</ele>
        <time>2018-08-19T11:27:31.000Z</time>
      </trkpt>
      <trkpt lat="45.30798" lon="4.44366">
        <ele>1235.1</ele>
        <time>2018-08-19T11:27:32.000Z</time>
      </trkpt>
      <trkpt lat="45.30798" lon="4.44366">
        <ele>1235.1</ele>
        <time>2018-08-19T11:27:33.000Z</time>
      </trkpt>
      <trkpt lat="45.30798" lon="4.44366">
        <ele>1235.1</ele>
        <time>2018-08-19T11:27:34.000Z</time>
      </trkpt>
      <trkpt lat="45.30798" lon="4.44366">
        <ele>1235.1</ele>
        <time>2018-08-19T11:27:35.000Z</time>
      </trkpt>
      <trkpt lat="45.30798" lon="4.44366">
        <ele>1235.1</ele>
        <time>2018-08-19T11:27:36.000Z</time>
      </trkpt>
      <trkpt lat="45.30798" lon="4.44366">
        <ele>1235.1</ele>
        <time>2018-08-19T11:27:37.000Z</time>
      </trkpt>
      <trkpt lat="45.30798" lon="4.44366">
        <ele>1235.1</ele>
        <time>2018-08-19T11:27:38.000Z</time>
      </trkpt>
      <trkpt lat="45.30798" lon="4.44366">
        <ele>1235.1</ele>
        <time>2018-08-19T11:27:39.000Z</time>
      </trkpt>
      <trkpt lat="45.30798" lon="4.44366">
        <ele>1235.1</ele>
        <time>2018-08-19T11:27:40.000Z</time>
      </trkpt>
      <trkpt lat="45.30798" lon="4.44366">
        <ele>1235.1</ele>
        <time>2018-08-19T11:27:41.000Z</time>
      </trkpt>
      <trkpt lat="45.30798" lon="4.44366">
        <ele>1235.1</ele>
        <time>2018-08-19T11:27:42.000Z</time>
      </trkpt>
      <trkpt lat="45.30798" lon="4.44366">
        <ele>1235.1</ele>
        <time>2018-08-19T11:27:43.000Z</time>
      </trkpt>
      <trkpt lat="45.30798" lon="4.44366">
        <ele>1235.1</ele>
        <time>2018-08-19T11:27:44.000Z</time>
      </trkpt>
      <trkpt lat="45.30798" lon="4.44366">
        <ele>1235.1</ele>
        <time>2018-08-19T11:27:45.000Z</time>
      </trkpt>
      <trkpt lat="45.30798" lon="4.44366">
        <ele>1235.1</ele>
        <time>2018-08-19T11:27:46.000Z</time>
      </trkpt>
      <trkpt lat="45.30798" lon="4.44366">
        <ele>1235.1</ele>
        <time>2018-08-19T11:27:47.000Z</time>
      </trkpt>
      <trkpt lat="45.30798" lon="4.44366">
        <ele>1235.1</ele>
        <time>2018-08-19T11:27:48.000Z</time>
      </trkpt>
      <trkpt lat="45.30798" lon="4.44366">
        <ele>1235.1</ele>
        <time>2018-08-19T11:27:49.000Z</time>
      </trkpt>
      <trkpt lat="45.30798" lon="4.44366">
        <ele>1235.1</ele>
        <time>2018-08-19T11:27:50.000Z</time>
      </trkpt>
      <trkpt lat="45.30798" lon="4.44366">
        <ele>1235.1</ele>
        <time>2018-08-19T11:27:51.000Z</time>
      </trkpt>
      <trkpt lat="45.30798" lon="4.44366">
        <ele>1235.1</ele>
        <time>2018-08-19T11:27:52.000Z</time>
      </trkpt>
      <trkpt lat="45.30798" lon="4.44366">
        <ele>1235.1</ele>
        <time>2018-08-19T11:27:53.000Z</time>
      </trkpt>
      <trkpt lat="45.30798" lon="4.44366">
        <ele>1235.1</ele>
        <time>2018-08-19T11:27:54.000Z</time>
      </trkpt>
      <trkpt lat="45.30798" lon="4.44366">
        <ele>1235.1</ele>
        <time>2018-08-19T11:27:55.000Z</time>
      </trkpt>
      <trkpt lat="45.30798" lon="4.44366">
        <ele>1235.1</ele>
        <time>2018-08-19T11:27:56.000Z</time>
      </trkpt>
      <trkpt lat="45.30798" lon="4.44366">
        <ele>1235.1</ele>
        <time>2018-08-19T11:27:57.000Z</time>
      </trkpt>
      <trkpt lat="45.30798" lon="4.44366">
        <ele>1235.1</ele>
        <time>2018-08-19T11:27:58.000Z</time>
      </trkpt>
      <trkpt lat="45.30798" lon="4.44366">
        <ele>1235.1</ele>
        <time>2018-08-19T11:27:59.000Z</time>
      </trkpt>
      <trkpt lat="45.30798" lon="4.44366">
        <ele>1235.1</ele>
        <time>2018-08-19T11:28:00.000Z</time>
      </trkpt>
      <trkpt lat="45.30798" lon="4.44366">
        <ele>1235.1</ele>
        <time>2018-08-19T11:28:01.000Z</time>
      </trkpt>
      <trkpt lat="45.30798" lon="4.44366">
        <ele>1235.1</ele>
        <time>2018-08-19T11:28:02.000Z</time>
      </trkpt>
      <trkpt lat="45.30798" lon="4.44366">
        <ele>1235.1</ele>
        <time>2018-08-19T11:28:03.000Z</time>
      </trkpt>
      <trkpt lat="45.30798" lon="4.44366">
        <ele>1235.1</ele>
        <time>2018-08-19T11:28:04.000Z</time>
      </trkpt>
      <trkpt lat="45.30798" lon="4.44366">
        <ele>1235.1</ele>
        <time>2018-08-19T11:28:05.000Z</time>
      </trkpt>
      <trkpt lat="45.30798" lon="4.44366">
        <ele>1235.1</ele>
        <time>2018-08-19T11:28:06.000Z</time>
      </trkpt>
      <trkpt lat="45.30798" lon="4.44366">
        <ele>1235.1</ele>
        <time>2018-08-19T11:28:07.000Z</time>
      </trkpt>
      <trkpt lat="45.30798" lon="4.44366">
        <ele>1235.1</ele>
        <time>2018-08-19T11:28:08.000Z</time>
      </trkpt>
      <trkpt lat="45.30798" lon="4.44366">
        <ele>1235.1</ele>
        <time>2018-08-19T11:28:09.000Z</time>
      </trkpt>
      <trkpt lat="45.30798" lon="4.44366">
        <ele>1235.1</ele>
        <time>2018-08-19T11:28:10.000Z</time>
      </trkpt>
      <trkpt lat="45.30798" lon="4.44366">
        <ele>1235.1</ele>
        <time>2018-08-19T11:28:11.000Z</time>
      </trkpt>
      <trkpt lat="45.30798" lon="4.44366">
        <ele>1235.1</ele>
        <time>2018-08-19T11:28:12.000Z</time>
      </trkpt>
      <trkpt lat="45.30798" lon="4.44366">
        <ele>1235.1</ele>
        <time>2018-08-19T11:28:13.000Z</time>
      </trkpt>
      <trkpt lat="45.30798" lon="4.44366">
        <ele>1235.1</ele>
        <time>2018-08-19T11:28:14.000Z</time>
      </trkpt>
      <trkpt lat="45.30798" lon="4.44366">
        <ele>1235.1</ele>
        <time>2018-08-19T11:28:15.000Z</time>
      </trkpt>
      <trkpt lat="45.30798" lon="4.44366">
        <ele>1235.1</ele>
        <time>2018-08-19T11:28:16.000Z</time>
      </trkpt>
      <trkpt lat="45.30798" lon="4.44366">
        <ele>1235.1</ele>
        <time>2018-08-19T11:28:17.000Z</time>
      </trkpt>
      <trkpt lat="45.30798" lon="4.44366">
        <ele>1235.1</ele>
        <time>2018-08-19T11:28:18.000Z</time>
      </trkpt>
      <trkpt lat="45.30798" lon="4.44366">
        <ele>1235.1</ele>
        <time>2018-08-19T11:28:19.000Z</time>
      </trkpt>
      <trkpt lat="45.30798" lon="4.44366">
        <ele>1235.1</ele>
        <time>2018-08-19T11:28:20.000Z</time>
      </trkpt>
      <trkpt lat="45.30798" lon="4.44366">
        <ele>1235.1</ele>
        <time>2018-08-19T11:28:21.000Z</time>
      </trkpt>
      <trkpt lat="45.30798" lon="4.44366">
        <ele>1235.1</ele>
        <time>2018-08-19T11:28:22.000Z</time>
      </trkpt>
      <trkpt lat="45.30798" lon="4.44366">
        <ele>1235.1</ele>
        <time>2018-08-19T11:28:23.000Z</time>
      </trkpt>
      <trkpt lat="45.30798" lon="4.44366">
        <ele>1235.1</ele>
        <time>2018-08-19T11:28:24.000Z</time>
      </trkpt>
      <trkpt lat="45.30798" lon="4.44366">
        <ele>1235.1</ele>
        <time>2018-08-19T11:28:25.000Z</time>
      </trkpt>
      <trkpt lat="45.30798" lon="4.44366">
        <ele>1235.1</ele>
        <time>2018-08-19T11:28:26.000Z</time>
      </trkpt>
      <trkpt lat="45.30798" lon="4.44366">
        <ele>1235.1</ele>
        <time>2018-08-19T11:28:27.000Z</time>
      </trkpt>
      <trkpt lat="45.30798" lon="4.44366">
        <ele>1235.1</ele>
        <time>2018-08-19T11:28:28.000Z</time>
      </trkpt>
      <trkpt lat="45.30798" lon="4.44366">
        <ele>1235.1</ele>
        <time>2018-08-19T11:28:29.000Z</time>
      </trkpt>
      <trkpt lat="45.30798" lon="4.44366">
        <ele>1235.1</ele>
        <time>2018-08-19T11:28:30.000Z</time>
      </trkpt>
      <trkpt lat="45.30798" lon="4.44366">
        <ele>1235.1</ele>
        <time>2018-08-19T11:28:31.000Z</time>
      </trkpt>
      <trkpt lat="45.30798" lon="4.44366">
        <ele>1235.1</ele>
        <time>2018-08-19T11:28:32.000Z</time>
      </trkpt>
      <trkpt lat="45.30798" lon="4.44366">
        <ele>1235.1</ele>
        <time>2018-08-19T11:28:33.000Z</time>
      </trkpt>
      <trkpt lat="45.30798" lon="4.44366">
        <ele>1235.1</ele>
        <time>2018-08-19T11:28:34.000Z</time>
      </trkpt>
      <trkpt lat="45.30798" lon="4.44366">
        <ele>1235.1</ele>
        <time>2018-08-19T11:28:35.000Z</time>
      </trkpt>
      <trkpt lat="45.30798" lon="4.44366">
        <ele>1235.1</ele>
        <time>2018-08-19T11:28:36.000Z</time>
      </trkpt>
      <trkpt lat="45.30798" lon="4.44366">
        <ele>1235.1</ele>
        <time>2018-08-19T11:28:37.000Z</time>
      </trkpt>
      <trkpt lat="45.30798" lon="4.44366">
        <ele>1235.1</ele>
        <time>2018-08-19T11:28:38.000Z</time>
      </trkpt>
      <trkpt lat="45.30798" lon="4.44366">
        <ele>1235.1</ele>
        <time>2018-08-19T11:28:39.000Z</time>
      </trkpt>
      <trkpt lat="45.30798" lon="4.44366">
        <ele>1235.1</ele>
        <time>2018-08-19T11:28:40.000Z</time>
      </trkpt>
      <trkpt lat="45.30798" lon="4.44366">
        <ele>1235.1</ele>
        <time>2018-08-19T11:28:41.000Z</time>
      </trkpt>
      <trkpt lat="45.30798" lon="4.44366">
        <ele>1235.1</ele>
        <time>2018-08-19T11:28:42.000Z</time>
      </trkpt>
      <trkpt lat="45.30798" lon="4.44366">
        <ele>1235.1</ele>
        <time>2018-08-19T11:28:43.000Z</time>
      </trkpt>
      <trkpt lat="45.30798" lon="4.44366">
        <ele>1235.1</ele>
        <time>2018-08-19T11:28:44.000Z</time>
      </trkpt>
      <trkpt lat="45.30798" lon="4.44366">
        <ele>1235.1</ele>
        <time>2018-08-19T11:28:45.000Z</time>
      </trkpt>
      <trkpt lat="45.30798" lon="4.44366">
        <ele>1235.1</ele>
        <time>2018-08-19T11:28:46.000Z</time>
      </trkpt>
      <trkpt lat="45.30798" lon="4.44366">
        <ele>1235.1</ele>
        <time>2018-08-19T11:28:47.000Z</time>
      </trkpt>
      <trkpt lat="45.30798" lon="4.44366">
        <ele>1235.1</ele>
        <time>2018-08-19T11:28:48.000Z</time>
      </trkpt>
      <trkpt lat="45.30798" lon="4.44366">
        <ele>1235.1</ele>
        <time>2018-08-19T11:28:49.000Z</time>
      </trkpt>
      <trkpt lat="45.30798" lon="4.44366">
        <ele>1235.1</ele>
        <time>2018-08-19T11:28:50.000Z</time>
      </trkpt>
      <trkpt lat="45.30798" lon="4.44366">
        <ele>1235.1</ele>
        <time>2018-08-19T11:28:51.000Z</time>
      </trkpt>
      <trkpt lat="45.30798" lon="4.44366">
        <ele>1235.1</ele>
        <time>2018-08-19T11:28:52.000Z</time>
      </trkpt>
      <trkpt lat="45.30798" lon="4.44366">
        <ele>1235.1</ele>
        <time>2018-08-19T11:28:53.000Z</time>
      </trkpt>
      <trkpt lat="45.30798" lon="4.44366">
        <ele>1235.1</ele>
        <time>2018-08-19T11:28:54.000Z</time>
      </trkpt>
      <trkpt lat="45.30798" lon="4.44366">
        <ele>1235.1</ele>
        <time>2018-08-19T11:28:55.000Z</time>
      </trkpt>
      <trkpt lat="45.30798" lon="4.44366">
        <ele>1235.1</ele>
        <time>2018-08-19T11:28:56.000Z</time>
      </trkpt>
      <trkpt lat="45.30798" lon="4.44366">
        <ele>1235.1</ele>
        <time>2018-08-19T11:28:57.000Z</time>
      </trkpt>
      <trkpt lat="45.30798" lon="4.44366">
        <ele>1235.1</ele>
        <time>2018-08-19T11:28:58.000Z</time>
      </trkpt>
      <trkpt lat="45.30798" lon="4.44366">
        <ele>1235.1</ele>
        <time>2018-08-19T11:28:59.000Z</time>
      </trkpt>
      <trkpt lat="45.30798" lon="4.44366">
        <ele>1235.1</ele>
        <time>2018-08-19T11:29:00.000Z</time>
      </trkpt>
      <trkpt lat="45.30798" lon="4.44366">
        <ele>1235.1</ele>
        <time>2018-08-19T11:29:01.000Z</time>
      </trkpt>
      <trkpt lat="45.30798" lon="4.44366">
        <ele>1235.1</ele>
        <time>2018-08-19T11:29:02.000Z</time>
      </trkpt>
      <trkpt lat="45.30798" lon="4.44366">
        <ele>1235.1</ele>
        <time>2018-08-19T11:29:03.000Z</time>
      </trkpt>
      <trkpt lat="45.30798" lon="4.44366">
        <ele>1235.1</ele>
        <time>2018-08-19T11:29:04.000Z</time>
      </trkpt>
      <trkpt lat="45.30798" lon="4.44366">
        <ele>1235.1</ele>
        <time>2018-08-19T11:29:05.000Z</time>
      </trkpt>
      <trkpt lat="45.30798" lon="4.44366">
        <ele>1235.1</ele>
        <time>2018-08-19T11:29:06.000Z</time>
      </trkpt>
      <trkpt lat="45.30798" lon="4.44366">
        <ele>1235.1</ele>
        <time>2018-08-19T11:29:07.000Z</time>
      </trkpt>
      <trkpt lat="45.30798" lon="4.44366">
        <ele>1235.1</ele>
        <time>2018-08-19T11:29:08.000Z</time>
      </trkpt>
      <trkpt lat="45.30798" lon="4.44366">
        <ele>1235.1</ele>
        <time>2018-08-19T11:29:09.000Z</time>
      </trkpt>
      <trkpt lat="45.30798" lon="4.44366">
        <ele>1235.1</ele>
        <time>2018-08-19T11:29:10.000Z</time>
      </trkpt>
      <trkpt lat="45.30798" lon="4.44366">
        <ele>1235.1</ele>
        <time>2018-08-19T11:29:11.000Z</time>
      </trkpt>
      <trkpt lat="45.30798" lon="4.44366">
        <ele>1235.1</ele>
        <time>2018-08-19T11:29:12.000Z</time>
      </trkpt>
      <trkpt lat="45.30798" lon="4.44366">
        <ele>1235.1</ele>
        <time>2018-08-19T11:29:13.000Z</time>
      </trkpt>
      <trkpt lat="45.30798" lon="4.44366">
        <ele>1235.1</ele>
        <time>2018-08-19T11:29:14.000Z</time>
      </trkpt>
      <trkpt lat="45.30798" lon="4.44366">
        <ele>1235.1</ele>
        <time>2018-08-19T11:29:15.000Z</time>
      </trkpt>
      <trkpt lat="45.30798" lon="4.44366">
        <ele>1235.1</ele>
        <time>2018-08-19T11:29:16.000Z</time>
      </trkpt>
      <trkpt lat="45.30798" lon="4.44366">
        <ele>1235.1</ele>
        <time>2018-08-19T11:29:17.000Z</time>
      </trkpt>
      <trkpt lat="45.30798" lon="4.44366">
        <ele>1235.1</ele>
        <time>2018-08-19T11:29:18.000Z</time>
      </trkpt>
      <trkpt lat="45.30798" lon="4.44366">
        <ele>1235.1</ele>
        <time>2018-08-19T11:29:19.000Z</time>
      </trkpt>
      <trkpt lat="45.30798" lon="4.44366">
        <ele>1235.1</ele>
        <time>2018-08-19T11:29:20.000Z</time>
      </trkpt>
      <trkpt lat="45.30798" lon="4.44366">
        <ele>1235.1</ele>
        <time>2018-08-19T11:29:21.000Z</time>
      </trkpt>
      <trkpt lat="45.30798" lon="4.44366">
        <ele>1235.1</ele>
        <time>2018-08-19T11:29:22.000Z</time>
      </trkpt>
      <trkpt lat="45.30798" lon="4.44366">
        <ele>1235.1</ele>
        <time>2018-08-19T11:29:23.000Z</time>
      </trkpt>
      <trkpt lat="45.30798" lon="4.44366">
        <ele>1235.1</ele>
        <time>2018-08-19T11:29:24.000Z</time>
      </trkpt>
      <trkpt lat="45.30798" lon="4.44366">
        <ele>1235.1</ele>
        <time>2018-08-19T11:29:25.000Z</time>
      </trkpt>
      <trkpt lat="45.30798" lon="4.44366">
        <ele>1235.1</ele>
        <time>2018-08-19T11:29:26.000Z</time>
      </trkpt>
      <trkpt lat="45.30798" lon="4.44366">
        <ele>1235.1</ele>
        <time>2018-08-19T11:29:27.000Z</time>
      </trkpt>
      <trkpt lat="45.30798" lon="4.44366">
        <ele>1235.1</ele>
        <time>2018-08-19T11:29:28.000Z</time>
      </trkpt>
      <trkpt lat="45.30798" lon="4.44366">
        <ele>1235.1</ele>
        <time>2018-08-19T11:29:29.000Z</time>
      </trkpt>
      <trkpt lat="45.30798" lon="4.44366">
        <ele>1235.1</ele>
        <time>2018-08-19T11:29:30.000Z</time>
      </trkpt>
      <trkpt lat="45.30798" lon="4.44366">
        <ele>1235.1</ele>
        <time>2018-08-19T11:29:31.000Z</time>
      </trkpt>
      <trkpt lat="45.30798" lon="4.44366">
        <ele>1235.1</ele>
        <time>2018-08-19T11:29:32.000Z</time>
      </trkpt>
      <trkpt lat="45.30798" lon="4.44366">
        <ele>1235.1</ele>
        <time>2018-08-19T11:29:33.000Z</time>
      </trkpt>
      <trkpt lat="45.30798" lon="4.44366">
        <ele>1235.1</ele>
        <time>2018-08-19T11:29:34.000Z</time>
      </trkpt>
      <trkpt lat="45.30798" lon="4.44366">
        <ele>1235.1</ele>
        <time>2018-08-19T11:29:35.000Z</time>
      </trkpt>
      <trkpt lat="45.30798" lon="4.44366">
        <ele>1235.1</ele>
        <time>2018-08-19T11:29:36.000Z</time>
      </trkpt>
      <trkpt lat="45.30798" lon="4.44366">
        <ele>1235.1</ele>
        <time>2018-08-19T11:29:37.000Z</time>
      </trkpt>
      <trkpt lat="45.30798" lon="4.44366">
        <ele>1235.1</ele>
        <time>2018-08-19T11:29:38.000Z</time>
      </trkpt>
      <trkpt lat="45.30798" lon="4.44366">
        <ele>1235.1</ele>
        <time>2018-08-19T11:29:39.000Z</time>
      </trkpt>
      <trkpt lat="45.30798" lon="4.44366">
        <ele>1235.1</ele>
        <time>2018-08-19T11:29:40.000Z</time>
      </trkpt>
      <trkpt lat="45.30798" lon="4.44366">
        <ele>1235.1</ele>
        <time>2018-08-19T11:29:41.000Z</time>
      </trkpt>
      <trkpt lat="45.30798" lon="4.44366">
        <ele>1235.1</ele>
        <time>2018-08-19T11:29:42.000Z</time>
      </trkpt>
      <trkpt lat="45.30798" lon="4.44366">
        <ele>1235.1</ele>
        <time>2018-08-19T11:29:43.000Z</time>
      </trkpt>
      <trkpt lat="45.30798" lon="4.44366">
        <ele>1235.1</ele>
        <time>2018-08-19T11:29:44.000Z</time>
      </trkpt>
      <trkpt lat="45.30798" lon="4.44366">
        <ele>1235.1</ele>
        <time>2018-08-19T11:29:45.000Z</time>
      </trkpt>
      <trkpt lat="45.30798" lon="4.44366">
        <ele>1235.1</ele>
        <time>2018-08-19T11:29:46.000Z</time>
      </trkpt>
      <trkpt lat="45.30798" lon="4.44366">
        <ele>1235.1</ele>
        <time>2018-08-19T11:29:47.000Z</time>
      </trkpt>
      <trkpt lat="45.30798" lon="4.44366">
        <ele>1235.1</ele>
        <time>2018-08-19T11:29:48.000Z</time>
      </trkpt>
      <trkpt lat="45.30798" lon="4.44366">
        <ele>1235.1</ele>
        <time>2018-08-19T11:29:49.000Z</time>
      </trkpt>
      <trkpt lat="45.30798" lon="4.44366">
        <ele>1235.1</ele>
        <time>2018-08-19T11:29:50.000Z</time>
      </trkpt>
      <trkpt lat="45.30798" lon="4.44366">
        <ele>1235.1</ele>
        <time>2018-08-19T11:29:51.000Z</time>
      </trkpt>
      <trkpt lat="45.30798" lon="4.44366">
        <ele>1235.1</ele>
        <time>2018-08-19T11:29:52.000Z</time>
      </trkpt>
      <trkpt lat="45.30798" lon="4.44366">
        <ele>1235.1</ele>
        <time>2018-08-19T11:29:53.000Z</time>
      </trkpt>
      <trkpt lat="45.30798" lon="4.44366">
        <ele>1235.1</ele>
        <time>2018-08-19T11:29:54.000Z</time>
      </trkpt>
      <trkpt lat="45.30798" lon="4.44366">
        <ele>1235.1</ele>
        <time>2018-08-19T11:29:55.000Z</time>
      </trkpt>
      <trkpt lat="45.30798" lon="4.44366">
        <ele>1235.1</ele>
        <time>2018-08-19T11:29:56.000Z</time>
      </trkpt>
      <trkpt lat="45.30798" lon="4.44366">
        <ele>1235.1</ele>
        <time>2018-08-19T11:29:57.000Z</time>
      </trkpt>
      <trkpt lat="45.30798" lon="4.44366">
        <ele>1235.1</ele>
        <time>2018-08-19T11:29:58.000Z</time>
      </trkpt>
      <trkpt lat="45.30798" lon="4.44366">
        <ele>1235.1</ele>
        <time>2018-08-19T11:29:59.000Z</time>
      </trkpt>
      <trkpt lat="45.30798" lon="4.44366">
        <ele>1235.1</ele>
        <time>2018-08-19T11:30:00.000Z</time>
      </trkpt>
      <trkpt lat="45.30798" lon="4.44366">
        <ele>1235.1</ele>
        <time>2018-08-19T11:30:01.000Z</time>
      </trkpt>
      <trkpt lat="45.30798" lon="4.44366">
        <ele>1235.1</ele>
        <time>2018-08-19T11:30:02.000Z</time>
      </trkpt>
      <trkpt lat="45.30798" lon="4.44366">
        <ele>1235.1</ele>
        <time>2018-08-19T11:30:03.000Z</time>
      </trkpt>
      <trkpt lat="45.30798" lon="4.44366">
        <ele>1235.1</ele>
        <time>2018-08-19T11:30:04.000Z</time>
      </trkpt>
      <trkpt lat="45.30798" lon="4.44366">
        <ele>1235.1</ele>
        <time>2018-08-19T11:30:05.000Z</time>
      </trkpt>
      <trkpt lat="45.30798" lon="4.44366">
        <ele>1235.1</ele>
        <time>2018-08-19T11:30:06.000Z</time>
      </trkpt>
      <trkpt lat="45.30798" lon="4.44366">
        <ele>1235.1</ele>
        <time>2018-08-19T11:30:07.000Z</time>
      </trkpt>
      <trkpt lat="45.30798" lon="4.44366">
        <ele>1235.1</ele>
        <time>2018-08-19T11:30:08.000Z</time>
      </trkpt>
      <trkpt lat="45.30798" lon="4.44366">
        <ele>1235.1</ele>
        <time>2018-08-19T11:30:09.000Z</time>
      </trkpt>
      <trkpt lat="45.30798" lon="4.44366">
        <ele>1235.1</ele>
        <time>2018-08-19T11:30:10.000Z</time>
      </trkpt>
      <trkpt lat="45.30798" lon="4.44366">
        <ele>1235.1</ele>
        <time>2018-08-19T11:30:11.000Z</time>
      </trkpt>
      <trkpt lat="45.30798" lon="4.44366">
        <ele>1235.1</ele>
        <time>2018-08-19T11:30:12.000Z</time>
      </trkpt>
      <trkpt lat="45.30798" lon="4.44366">
        <ele>1235.1</ele>
        <time>2018-08-19T11:30:13.000Z</time>
      </trkpt>
      <trkpt lat="45.30798" lon="4.44366">
        <ele>1235.1</ele>
        <time>2018-08-19T11:30:14.000Z</time>
      </trkpt>
      <trkpt lat="45.30798" lon="4.44366">
        <ele>1235.1</ele>
        <time>2018-08-19T11:30:15.000Z</time>
      </trkpt>
      <trkpt lat="45.30798" lon="4.44366">
        <ele>1235.1</ele>
        <time>2018-08-19T11:30:16.000Z</time>
      </trkpt>
      <trkpt lat="45.30798" lon="4.44366">
        <ele>1235.1</ele>
        <time>2018-08-19T11:30:17.000Z</time>
      </trkpt>
      <trkpt lat="45.30798" lon="4.44366">
        <ele>1235.1</ele>
        <time>2018-08-19T11:30:18.000Z</time>
      </trkpt>
      <trkpt lat="45.30798" lon="4.44366">
        <ele>1235.1</ele>
        <time>2018-08-19T11:30:19.000Z</time>
      </trkpt>
      <trkpt lat="45.30798" lon="4.44366">
        <ele>1235.1</ele>
        <time>2018-08-19T11:30:20.000Z</time>
      </trkpt>
      <trkpt lat="45.30798" lon="4.44366">
        <ele>1235.1</ele>
        <time>2018-08-19T11:30:21.000Z</time>
      </trkpt>
      <trkpt lat="45.30798" lon="4.44366">
        <ele>1235.1</ele>
        <time>2018-08-19T11:30:22.000Z</time>
      </trkpt>
      <trkpt lat="45.30798" lon="4.44366">
        <ele>1235.1</ele>
        <time>2018-08-19T11:30:23.000Z</time>
      </trkpt>
      <trkpt lat="45.30798" lon="4.44366">
        <ele>1235.1</ele>
        <time>2018-08-19T11:30:24.000Z</time>
      </trkpt>
      <trkpt lat="45.30798" lon="4.44366">
        <ele>1235.1</ele>
        <time>2018-08-19T11:30:25.000Z</time>
      </trkpt>
      <trkpt lat="45.30798" lon="4.44366">
        <ele>1235.1</ele>
        <time>2018-08-19T11:30:26.000Z</time>
      </trkpt>
      <trkpt lat="45.30798" lon="4.44366">
        <ele>1235.1</ele>
        <time>2018-08-19T11:30:27.000Z</time>
      </trkpt>
      <trkpt lat="45.30798" lon="4.44366">
        <ele>1235.1</ele>
        <time>2018-08-19T11:30:28.000Z</time>
      </trkpt>
      <trkpt lat="45.30798" lon="4.44366">
        <ele>1235.1</ele>
        <time>2018-08-19T11:30:29.000Z</time>
      </trkpt>
      <trkpt lat="45.30798" lon="4.44366">
        <ele>1235.1</ele>
        <time>2018-08-19T11:30:30.000Z</time>
      </trkpt>
      <trkpt lat="45.30798" lon="4.44366">
        <ele>1235.1</ele>
        <time>2018-08-19T11:30:31.000Z</time>
      </trkpt>
      <trkpt lat="45.30798" lon="4.44366">
        <ele>1235.1</ele>
        <time>2018-08-19T11:30:32.000Z</time>
      </trkpt>
      <trkpt lat="45.30798" lon="4.44366">
        <ele>1235.1</ele>
        <time>2018-08-19T11:30:33.000Z</time>
      </trkpt>
      <trkpt lat="45.30798" lon="4.44366">
        <ele>1235.1</ele>
        <time>2018-08-19T11:30:34.000Z</time>
      </trkpt>
      <trkpt lat="45.30798" lon="4.44366">
        <ele>1235.1</ele>
        <time>2018-08-19T11:30:35.000Z</time>
      </trkpt>
      <trkpt lat="45.30798" lon="4.44366">
        <ele>1235.1</ele>
        <time>2018-08-19T11:30:36.000Z</time>
      </trkpt>
      <trkpt lat="45.30798" lon="4.44366">
        <ele>1235.1</ele>
        <time>2018-08-19T11:30:37.000Z</time>
      </trkpt>
      <trkpt lat="45.30798" lon="4.44366">
        <ele>1235.1</ele>
        <time>2018-08-19T11:30:38.000Z</time>
      </trkpt>
      <trkpt lat="45.30798" lon="4.44366">
        <ele>1235.1</ele>
        <time>2018-08-19T11:30:39.000Z</time>
      </trkpt>
      <trkpt lat="45.30798" lon="4.44366">
        <ele>1235.1</ele>
        <time>2018-08-19T11:30:40.000Z</time>
      </trkpt>
      <trkpt lat="45.30798" lon="4.44366">
        <ele>1235.1</ele>
        <time>2018-08-19T11:30:41.000Z</time>
      </trkpt>
      <trkpt lat="45.30798" lon="4.44366">
        <ele>1235.1</ele>
        <time>2018-08-19T11:30:42.000Z</time>
      </trkpt>
      <trkpt lat="45.30798" lon="4.44366">
        <ele>1235.1</ele>
        <time>2018-08-19T11:30:43.000Z</time>
      </trkpt>
      <trkpt lat="45.30798" lon="4.44366">
        <ele>1235.1</ele>
        <time>2018-08-19T11:30:44.000Z</time>
      </trkpt>
      <trkpt lat="45.30798" lon="4.44366">
        <ele>1235.1</ele>
        <time>2018-08-19T11:30:45.000Z</time>
      </trkpt>
      <trkpt lat="45.30798" lon="4.44366">
        <ele>1235.1</ele>
        <time>2018-08-19T11:30:46.000Z</time>
      </trkpt>
      <trkpt lat="45.30798" lon="4.44366">
        <ele>1235.1</ele>
        <time>2018-08-19T11:30:47.000Z</time>
      </trkpt>
      <trkpt lat="45.30798" lon="4.44366">
        <ele>1235.1</ele>
        <time>2018-08-19T11:30:48.000Z</time>
      </trkpt>
      <trkpt lat="45.30798" lon="4.44366">
        <ele>1235.1</ele>
        <time>2018-08-19T11:30:49.000Z</time>
      </trkpt>
      <trkpt lat="45.30798" lon="4.44366">
        <ele>1235.1</ele>
        <time>2018-08-19T11:30:50.000Z</time>
      </trkpt>
      <trkpt lat="45.30798" lon="4.44366">
        <ele>1235.1</ele>
        <time>2018-08-19T11:30:51.000Z</time>
      </trkpt>
      <trkpt lat="45.30798" lon="4.44366">
        <ele>1235.1</ele>
        <time>2018-08-19T11:30:52.000Z</time>
      </trkpt>
      <trkpt lat="45.30798" lon="4.44366">
        <ele>1235.1</ele>
        <time>2018-08-19T11:30:53.000Z</time>
      </trkpt>
      <trkpt lat="45.30798" lon="4.44366">
        <ele>1235.1</ele>
        <time>2018-08-19T11:30:54.000Z</time>
      </trkpt>
      <trkpt lat="45.30798" lon="4.44366">
        <ele>1235.1</ele>
        <time>2018-08-19T11:30:55.000Z</time>
      </trkpt>
      <trkpt lat="45.30798" lon="4.44366">
        <ele>1235.1</ele>
        <time>2018-08-19T11:30:56.000Z</time>
      </trkpt>
      <trkpt lat="45.30798" lon="4.44366">
        <ele>1235.1</ele>
        <time>2018-08-19T11:30:57.000Z</time>
      </trkpt>
      <trkpt lat="45.30798" lon="4.44366">
        <ele>1235.1</ele>
        <time>2018-08-19T11:30:58.000Z</time>
      </trkpt>
      <trkpt lat="45.30798" lon="4.44366">
        <ele>1235.1</ele>
        <time>2018-08-19T11:30:59.000Z</time>
      </trkpt>
      <trkpt lat="45.30798" lon="4.44366">
        <ele>1235.1</ele>
        <time>2018-08-19T11:31:00.000Z</time>
      </trkpt>
      <trkpt lat="45.30798" lon="4.44366">
        <ele>1235.1</ele>
        <time>2018-08-19T11:31:01.000Z</time>
      </trkpt>
      <trkpt lat="45.30798" lon="4.44366">
        <ele>1235.1</ele>
        <time>2018-08-19T11:31:02.000Z</time>
      </trkpt>
      <trkpt lat="45.30798" lon="4.44366">
        <ele>1235.1</ele>
        <time>2018-08-19T11:31:03.000Z</time>
      </trkpt>
      <trkpt lat="45.30798" lon="4.44366">
        <ele>1235.1</ele>
        <time>2018-08-19T11:31:04.000Z</time>
      </trkpt>
      <trkpt lat="45.30798" lon="4.44366">
        <ele>1235.1</ele>
        <time>2018-08-19T11:31:05.000Z</time>
      </trkpt>
      <trkpt lat="45.30798" lon="4.44366">
        <ele>1235.1</ele>
        <time>2018-08-19T11:31:06.000Z</time>
      </trkpt>
      <trkpt lat="45.30798" lon="4.44366">
        <ele>1235.1</ele>
        <time>2018-08-19T11:31:07.000Z</time>
      </trkpt>
      <trkpt lat="45.30798" lon="4.44366">
        <ele>1235.1</ele>
        <time>2018-08-19T11:31:08.000Z</time>
      </trkpt>
      <trkpt lat="45.30798" lon="4.44366">
        <ele>1235.1</ele>
        <time>2018-08-19T11:31:09.000Z</time>
      </trkpt>
      <trkpt lat="45.30798" lon="4.44366">
        <ele>1235.1</ele>
        <time>2018-08-19T11:31:10.000Z</time>
      </trkpt>
      <trkpt lat="45.30798" lon="4.44366">
        <ele>1235.1</ele>
        <time>2018-08-19T11:31:11.000Z</time>
      </trkpt>
      <trkpt lat="45.30798" lon="4.44366">
        <ele>1235.1</ele>
        <time>2018-08-19T11:31:12.000Z</time>
      </trkpt>
      <trkpt lat="45.30798" lon="4.44366">
        <ele>1235.1</ele>
        <time>2018-08-19T11:31:13.000Z</time>
      </trkpt>
      <trkpt lat="45.30798" lon="4.44366">
        <ele>1235.1</ele>
        <time>2018-08-19T11:31:14.000Z</time>
      </trkpt>
      <trkpt lat="45.30798" lon="4.44366">
        <ele>1235.1</ele>
        <time>2018-08-19T11:31:15.000Z</time>
      </trkpt>
      <trkpt lat="45.30798" lon="4.44366">
        <ele>1235.1</ele>
        <time>2018-08-19T11:31:16.000Z</time>
      </trkpt>
      <trkpt lat="45.30798" lon="4.44366">
        <ele>1235.1</ele>
        <time>2018-08-19T11:31:17.000Z</time>
      </trkpt>
      <trkpt lat="45.30798" lon="4.44366">
        <ele>1235.1</ele>
        <time>2018-08-19T11:31:18.000Z</time>
      </trkpt>
      <trkpt lat="45.30798" lon="4.44366">
        <ele>1235.1</ele>
        <time>2018-08-19T11:31:19.000Z</time>
      </trkpt>
      <trkpt lat="45.30798" lon="4.44366">
        <ele>1235.1</ele>
        <time>2018-08-19T11:31:20.000Z</time>
      </trkpt>
      <trkpt lat="45.30798" lon="4.44366">
        <ele>1235.1</ele>
        <time>2018-08-19T11:31:21.000Z</time>
      </trkpt>
      <trkpt lat="45.30798" lon="4.44366">
        <ele>1235.1</ele>
        <time>2018-08-19T11:31:22.000Z</time>
      </trkpt>
      <trkpt lat="45.30798" lon="4.44366">
        <ele>1235.1</ele>
        <time>2018-08-19T11:31:23.000Z</time>
      </trkpt>
      <trkpt lat="45.30798" lon="4.44366">
        <ele>1235.1</ele>
        <time>2018-08-19T11:31:24.000Z</time>
      </trkpt>
      <trkpt lat="45.30798" lon="4.44366">
        <ele>1235.1</ele>
        <time>2018-08-19T11:31:25.000Z</time>
      </trkpt>
      <trkpt lat="45.30798" lon="4.44366">
        <ele>1235.1</ele>
        <time>2018-08-19T11:31:26.000Z</time>
      </trkpt>
      <trkpt lat="45.30798" lon="4.44366">
        <ele>1235.1</ele>
        <time>2018-08-19T11:31:27.000Z</time>
      </trkpt>
      <trkpt lat="45.30798" lon="4.44366">
        <ele>1235.1</ele>
        <time>2018-08-19T11:31:28.000Z</time>
      </trkpt>
      <trkpt lat="45.30798" lon="4.44366">
        <ele>1235.1</ele>
        <time>2018-08-19T11:31:29.000Z</time>
      </trkpt>
      <trkpt lat="45.30798" lon="4.44366">
        <ele>1235.1</ele>
        <time>2018-08-19T11:31:30.000Z</time>
      </trkpt>
      <trkpt lat="45.30798" lon="4.44366">
        <ele>1235.1</ele>
        <time>2018-08-19T11:31:31.000Z</time>
      </trkpt>
      <trkpt lat="45.30798" lon="4.44366">
        <ele>1235.1</ele>
        <time>2018-08-19T11:31:32.000Z</time>
      </trkpt>
      <trkpt lat="45.30798" lon="4.44366">
        <ele>1235.1</ele>
        <time>2018-08-19T11:31:33.000Z</time>
      </trkpt>
      <trkpt lat="45.30798" lon="4.44366">
        <ele>1235.1</ele>
        <time>2018-08-19T11:31:34.000Z</time>
      </trkpt>
      <trkpt lat="45.30798" lon="4.44366">
        <ele>1235.1</ele>
        <time>2018-08-19T11:31:35.000Z</time>
      </trkpt>
      <trkpt lat="45.30798" lon="4.44366">
        <ele>1235.1</ele>
        <time>2018-08-19T11:31:36.000Z</time>
      </trkpt>
      <trkpt lat="45.30798" lon="4.44366">
        <ele>1235.1</ele>
        <time>2018-08-19T11:31:37.000Z</time>
      </trkpt>
      <trkpt lat="45.30798" lon="4.44366">
        <ele>1235.1</ele>
        <time>2018-08-19T11:31:38.000Z</time>
      </trkpt>
      <trkpt lat="45.30798" lon="4.44366">
        <ele>1235.1</ele>
        <time>2018-08-19T11:31:39.000Z</time>
      </trkpt>
      <trkpt lat="45.30798" lon="4.44366">
        <ele>1235.1</ele>
        <time>2018-08-19T11:31:40.000Z</time>
      </trkpt>
      <trkpt lat="45.30798" lon="4.44366">
        <ele>1235.1</ele>
        <time>2018-08-19T11:31:41.000Z</time>
      </trkpt>
      <trkpt lat="45.30798" lon="4.44366">
        <ele>1235.1</ele>
        <time>2018-08-19T11:31:42.000Z</time>
      </trkpt>
      <trkpt lat="45.30798" lon="4.44366">
        <ele>1235.1</ele>
        <time>2018-08-19T11:31:43.000Z</time>
      </trkpt>
      <trkpt lat="45.30798" lon="4.44366">
        <ele>1235.1</ele>
        <time>2018-08-19T11:31:44.000Z</time>
      </trkpt>
      <trkpt lat="45.30798" lon="4.44366">
        <ele>1235.1</ele>
        <time>2018-08-19T11:31:45.000Z</time>
      </trkpt>
      <trkpt lat="45.30798" lon="4.44366">
        <ele>1235.1</ele>
        <time>2018-08-19T11:31:46.000Z</time>
      </trkpt>
      <trkpt lat="45.30798" lon="4.44366">
        <ele>1235.1</ele>
        <time>2018-08-19T11:31:47.000Z</time>
      </trkpt>
      <trkpt lat="45.30798" lon="4.44366">
        <ele>1235.1</ele>
        <time>2018-08-19T11:31:48.000Z</time>
      </trkpt>
      <trkpt lat="45.30798" lon="4.44366">
        <ele>1235.1</ele>
        <time>2018-08-19T11:31:49.000Z</time>
      </trkpt>
      <trkpt lat="45.30798" lon="4.44366">
        <ele>1235.1</ele>
        <time>2018-08-19T11:31:50.000Z</time>
      </trkpt>
      <trkpt lat="45.30798" lon="4.44366">
        <ele>1235.1</ele>
        <time>2018-08-19T11:31:51.000Z</time>
      </trkpt>
      <trkpt lat="45.30798" lon="4.44366">
        <ele>1235.1</ele>
        <time>2018-08-19T11:31:52.000Z</time>
      </trkpt>
      <trkpt lat="45.30798" lon="4.44366">
        <ele>1235.1</ele>
        <time>2018-08-19T11:31:53.000Z</time>
      </trkpt>
      <trkpt lat="45.30798" lon="4.44366">
        <ele>1235.1</ele>
        <time>2018-08-19T11:31:54.000Z</time>
      </trkpt>
      <trkpt lat="45.30798" lon="4.44366">
        <ele>1235.1</ele>
        <time>2018-08-19T11:31:55.000Z</time>
      </trkpt>
      <trkpt lat="45.30798" lon="4.44366">
        <ele>1235.1</ele>
        <time>2018-08-19T11:31:56.000Z</time>
      </trkpt>
      <trkpt lat="45.30798" lon="4.44366">
        <ele>1235.1</ele>
        <time>2018-08-19T11:31:57.000Z</time>
      </trkpt>
      <trkpt lat="45.30798" lon="4.44366">
        <ele>1235.1</ele>
        <time>2018-08-19T11:31:58.000Z</time>
      </trkpt>
      <trkpt lat="45.30798" lon="4.44366">
        <ele>1235.1</ele>
        <time>2018-08-19T11:31:59.000Z</time>
      </trkpt>
      <trkpt lat="45.30798" lon="4.44366">
        <ele>1235.1</ele>
        <time>2018-08-19T11:32:00.000Z</time>
      </trkpt>
      <trkpt lat="45.30798" lon="4.44366">
        <ele>1235.1</ele>
        <time>2018-08-19T11:32:01.000Z</time>
      </trkpt>
      <trkpt lat="45.30798" lon="4.44366">
        <ele>1235.1</ele>
        <time>2018-08-19T11:32:02.000Z</time>
      </trkpt>
      <trkpt lat="45.30798" lon="4.44366">
        <ele>1235.1</ele>
        <time>2018-08-19T11:32:03.000Z</time>
      </trkpt>
      <trkpt lat="45.30798" lon="4.44366">
        <ele>1235.1</ele>
        <time>2018-08-19T11:32:04.000Z</time>
      </trkpt>
      <trkpt lat="45.30798" lon="4.44366">
        <ele>1235.1</ele>
        <time>2018-08-19T11:32:05.000Z</time>
      </trkpt>
      <trkpt lat="45.30798" lon="4.44366">
        <ele>1235.1</ele>
        <time>2018-08-19T11:32:06.000Z</time>
      </trkpt>
      <trkpt lat="45.30798" lon="4.44366">
        <ele>1235.1</ele>
        <time>2018-08-19T11:32:07.000Z</time>
      </trkpt>
      <trkpt lat="45.30798" lon="4.44366">
        <ele>1235.1</ele>
        <time>2018-08-19T11:32:08.000Z</time>
      </trkpt>
      <trkpt lat="45.30798" lon="4.44366">
        <ele>1235.1</ele>
        <time>2018-08-19T11:32:09.000Z</time>
      </trkpt>
      <trkpt lat="45.30798" lon="4.44366">
        <ele>1235.1</ele>
        <time>2018-08-19T11:32:10.000Z</time>
      </trkpt>
      <trkpt lat="45.30798" lon="4.44366">
        <ele>1235.1</ele>
        <time>2018-08-19T11:32:11.000Z</time>
      </trkpt>
      <trkpt lat="45.30798" lon="4.44366">
        <ele>1235.1</ele>
        <time>2018-08-19T11:32:12.000Z</time>
      </trkpt>
      <trkpt lat="45.30798" lon="4.44366">
        <ele>1235.1</ele>
        <time>2018-08-19T11:32:13.000Z</time>
      </trkpt>
      <trkpt lat="45.30798" lon="4.44366">
        <ele>1235.1</ele>
        <time>2018-08-19T11:32:14.000Z</time>
      </trkpt>
      <trkpt lat="45.30798" lon="4.44366">
        <ele>1235.1</ele>
        <time>2018-08-19T11:32:15.000Z</time>
      </trkpt>
      <trkpt lat="45.30798" lon="4.44366">
        <ele>1235.1</ele>
        <time>2018-08-19T11:32:16.000Z</time>
      </trkpt>
      <trkpt lat="45.30798" lon="4.44366">
        <ele>1235.1</ele>
        <time>2018-08-19T11:32:17.000Z</time>
      </trkpt>
      <trkpt lat="45.30798" lon="4.44366">
        <ele>1235.1</ele>
        <time>2018-08-19T11:32:18.000Z</time>
      </trkpt>
      <trkpt lat="45.30798" lon="4.44366">
        <ele>1235.1</ele>
        <time>2018-08-19T11:32:19.000Z</time>
      </trkpt>
      <trkpt lat="45.30798" lon="4.44366">
        <ele>1235.1</ele>
        <time>2018-08-19T11:32:20.000Z</time>
      </trkpt>
      <trkpt lat="45.30798" lon="4.44366">
        <ele>1235.1</ele>
        <time>2018-08-19T11:32:21.000Z</time>
      </trkpt>
      <trkpt lat="45.30798" lon="4.44366">
        <ele>1235.1</ele>
        <time>2018-08-19T11:32:22.000Z</time>
      </trkpt>
      <trkpt lat="45.30798" lon="4.44366">
        <ele>1235.1</ele>
        <time>2018-08-19T11:32:23.000Z</time>
      </trkpt>
      <trkpt lat="45.30798" lon="4.44366">
        <ele>1235.1</ele>
        <time>2018-08-19T11:32:24.000Z</time>
      </trkpt>
      <trkpt lat="45.30798" lon="4.44366">
        <ele>1235.1</ele>
        <time>2018-08-19T11:32:25.000Z</time>
      </trkpt>
      <trkpt lat="45.30798" lon="4.44366">
        <ele>1235.1</ele>
        <time>2018-08-19T11:32:26.000Z</time>
      </trkpt>
      <trkpt lat="45.30798" lon="4.44366">
        <ele>1235.1</ele>
        <time>2018-08-19T11:32:27.000Z</time>
      </trkpt>
      <trkpt lat="45.30798" lon="4.44366">
        <ele>1235.1</ele>
        <time>2018-08-19T11:32:28.000Z</time>
      </trkpt>
      <trkpt lat="45.30798" lon="4.44366">
        <ele>1235.1</ele>
        <time>2018-08-19T11:32:29.000Z</time>
      </trkpt>
      <trkpt lat="45.30798" lon="4.44366">
        <ele>1235.1</ele>
        <time>2018-08-19T11:32:30.000Z</time>
      </trkpt>
      <trkpt lat="45.30798" lon="4.44366">
        <ele>1235.1</ele>
        <time>2018-08-19T11:32:31.000Z</time>
      </trkpt>
      <trkpt lat="45.30798" lon="4.44366">
        <ele>1235.1</ele>
        <time>2018-08-19T11:32:32.000Z</time>
      </trkpt>
      <trkpt lat="45.30798" lon="4.44366">
        <ele>1235.1</ele>
        <time>2018-08-19T11:32:33.000Z</time>
      </trkpt>
      <trkpt lat="45.30798" lon="4.44366">
        <ele>1235.1</ele>
        <time>2018-08-19T11:32:34.000Z</time>
      </trkpt>
      <trkpt lat="45.30798" lon="4.44366">
        <ele>1235.1</ele>
        <time>2018-08-19T11:32:35.000Z</time>
      </trkpt>
      <trkpt lat="45.30798" lon="4.44366">
        <ele>1235.1</ele>
        <time>2018-08-19T11:32:36.000Z</time>
      </trkpt>
      <trkpt lat="45.30798" lon="4.44366">
        <ele>1235.1</ele>
        <time>2018-08-19T11:32:37.000Z</time>
      </trkpt>
      <trkpt lat="45.30798" lon="4.44366">
        <ele>1235.1</ele>
        <time>2018-08-19T11:32:38.000Z</time>
      </trkpt>
      <trkpt lat="45.30798" lon="4.44366">
        <ele>1235.1</ele>
        <time>2018-08-19T11:32:39.000Z</time>
      </trkpt>
      <trkpt lat="45.30798" lon="4.44366">
        <ele>1235.1</ele>
        <time>2018-08-19T11:32:40.000Z</time>
      </trkpt>
      <trkpt lat="45.30798" lon="4.44366">
        <ele>1235.1</ele>
        <time>2018-08-19T11:32:41.000Z</time>
      </trkpt>
      <trkpt lat="45.30798" lon="4.44366">
        <ele>1235.1</ele>
        <time>2018-08-19T11:32:42.000Z</time>
      </trkpt>
      <trkpt lat="45.30798" lon="4.44366">
        <ele>1235.1</ele>
        <time>2018-08-19T11:32:43.000Z</time>
      </trkpt>
      <trkpt lat="45.30798" lon="4.44366">
        <ele>1235.1</ele>
        <time>2018-08-19T11:32:44.000Z</time>
      </trkpt>
      <trkpt lat="45.30798" lon="4.44366">
        <ele>1235.1</ele>
        <time>2018-08-19T11:32:45.000Z</time>
      </trkpt>
      <trkpt lat="45.30798" lon="4.44366">
        <ele>1235.1</ele>
        <time>2018-08-19T11:32:46.000Z</time>
      </trkpt>
      <trkpt lat="45.30798" lon="4.44366">
        <ele>1235.1</ele>
        <time>2018-08-19T11:32:47.000Z</time>
      </trkpt>
      <trkpt lat="45.30798" lon="4.44366">
        <ele>1235.1</ele>
        <time>2018-08-19T11:32:48.000Z</time>
      </trkpt>
      <trkpt lat="45.30798" lon="4.44366">
        <ele>1235.1</ele>
        <time>2018-08-19T11:32:49.000Z</time>
      </trkpt>
      <trkpt lat="45.30798" lon="4.44366">
        <ele>1235.1</ele>
        <time>2018-08-19T11:32:50.000Z</time>
      </trkpt>
      <trkpt lat="45.30798" lon="4.44366">
        <ele>1235.1</ele>
        <time>2018-08-19T11:32:51.000Z</time>
      </trkpt>
      <trkpt lat="45.30798" lon="4.44366">
        <ele>1235.1</ele>
        <time>2018-08-19T11:32:52.000Z</time>
      </trkpt>
      <trkpt lat="45.30798" lon="4.44366">
        <ele>1235.1</ele>
        <time>2018-08-19T11:32:53.000Z</time>
      </trkpt>
      <trkpt lat="45.30798" lon="4.44366">
        <ele>1235.1</ele>
        <time>2018-08-19T11:32:54.000Z</time>
      </trkpt>
      <trkpt lat="45.30798" lon="4.44366">
        <ele>1235.1</ele>
        <time>2018-08-19T11:32:55.000Z</time>
      </trkpt>
      <trkpt lat="45.30798" lon="4.44366">
        <ele>1235.1</ele>
        <time>2018-08-19T11:32:56.000Z</time>
      </trkpt>
      <trkpt lat="45.30798" lon="4.44366">
        <ele>1235.1</ele>
        <time>2018-08-19T11:32:57.000Z</time>
      </trkpt>
      <trkpt lat="45.30798" lon="4.44366">
        <ele>1235.1</ele>
        <time>2018-08-19T11:32:58.000Z</time>
      </trkpt>
      <trkpt lat="45.30798" lon="4.44366">
        <ele>1235.1</ele>
        <time>2018-08-19T11:32:59.000Z</time>
      </trkpt>
      <trkpt lat="45.30798" lon="4.44366">
        <ele>1235.1</ele>
        <time>2018-08-19T11:33:00.000Z</time>
      </trkpt>
      <trkpt lat="45.30798" lon="4.44366">
        <ele>1235.1</ele>
        <time>2018-08-19T11:33:01.000Z</time>
      </trkpt>
      <trkpt lat="45.30798" lon="4.44366">
        <ele>1235.1</ele>
        <time>2018-08-19T11:33:02.000Z</time>
      </trkpt>
      <trkpt lat="45.30798" lon="4.44366">
        <ele>1235.1</ele>
        <time>2018-08-19T11:33:03.000Z</time>
      </trkpt>
      <trkpt lat="45.30798" lon="4.44366">
        <ele>1235.1</ele>
        <time>2018-08-19T11:33:04.000Z</time>
      </trkpt>
      <trkpt lat="45.30798" lon="4.44366">
        <ele>1235.1</ele>
        <time>2018-08-19T11:33:05.000Z</time>
      </trkpt>
      <trkpt lat="45.30798" lon="4.44366">
        <ele>1235.1</ele>
        <time>2018-08-19T11:33:06.000Z</time>
      </trkpt>
      <trkpt lat="45.30798" lon="4.44366">
        <ele>1235.1</ele>
        <time>2018-08-19T11:33:07.000Z</time>
      </trkpt>
      <trkpt lat="45.30798" lon="4.44366">
        <ele>1235.1</ele>
        <time>2018-08-19T11:33:08.000Z</time>
      </trkpt>
      <trkpt lat="45.30798" lon="4.44366">
        <ele>1235.1</ele>
        <time>2018-08-19T11:33:09.000Z</time>
      </trkpt>
      <trkpt lat="45.30798" lon="4.44366">
        <ele>1235.1</ele>
        <time>2018-08-19T11:33:10.000Z</time>
      </trkpt>
      <trkpt lat="45.30798" lon="4.44366">
        <ele>1235.1</ele>
        <time>2018-08-19T11:33:11.000Z</time>
      </trkpt>
      <trkpt lat="45.30798" lon="4.44366">
        <ele>1235.1</ele>
        <time>2018-08-19T11:33:12.000Z</time>
      </trkpt>
      <trkpt lat="45.30798" lon="4.44366">
        <ele>1235.1</ele>
        <time>2018-08-19T11:33:13.000Z</time>
      </trkpt>
      <trkpt lat="45.30798" lon="4.44366">
        <ele>1235.1</ele>
        <time>2018-08-19T11:33:14.000Z</time>
      </trkpt>
      <trkpt lat="45.30798" lon="4.44366">
        <ele>1235.1</ele>
        <time>2018-08-19T11:33:15.000Z</time>
      </trkpt>
      <trkpt lat="45.30798" lon="4.44366">
        <ele>1235.1</ele>
        <time>2018-08-19T11:33:16.000Z</time>
      </trkpt>
      <trkpt lat="45.30798" lon="4.44366">
        <ele>1235.1</ele>
        <time>2018-08-19T11:33:17.000Z</time>
      </trkpt>
      <trkpt lat="45.30798" lon="4.44366">
        <ele>1235.1</ele>
        <time>2018-08-19T11:33:18.000Z</time>
      </trkpt>
      <trkpt lat="45.30798" lon="4.44366">
        <ele>1235.1</ele>
        <time>2018-08-19T11:33:19.000Z</time>
      </trkpt>
      <trkpt lat="45.30798" lon="4.44366">
        <ele>1235.1</ele>
        <time>2018-08-19T11:33:20.000Z</time>
      </trkpt>
      <trkpt lat="45.30798" lon="4.44366">
        <ele>1235.1</ele>
        <time>2018-08-19T11:33:21.000Z</time>
      </trkpt>
      <trkpt lat="45.30798" lon="4.44366">
        <ele>1235.1</ele>
        <time>2018-08-19T11:33:22.000Z</time>
      </trkpt>
      <trkpt lat="45.30798" lon="4.44366">
        <ele>1235.1</ele>
        <time>2018-08-19T11:33:23.000Z</time>
      </trkpt>
      <trkpt lat="45.30798" lon="4.44366">
        <ele>1235.1</ele>
        <time>2018-08-19T11:33:24.000Z</time>
      </trkpt>
      <trkpt lat="45.30798" lon="4.44366">
        <ele>1235.1</ele>
        <time>2018-08-19T11:33:25.000Z</time>
      </trkpt>
      <trkpt lat="45.30798" lon="4.44366">
        <ele>1235.1</ele>
        <time>2018-08-19T11:33:26.000Z</time>
      </trkpt>
      <trkpt lat="45.30798" lon="4.44366">
        <ele>1235.1</ele>
        <time>2018-08-19T11:33:27.000Z</time>
      </trkpt>
      <trkpt lat="45.30798" lon="4.44366">
        <ele>1235.1</ele>
        <time>2018-08-19T11:33:28.000Z</time>
      </trkpt>
      <trkpt lat="45.30798" lon="4.44366">
        <ele>1235.1</ele>
        <time>2018-08-19T11:33:29.000Z</time>
      </trkpt>
      <trkpt lat="45.30798" lon="4.44366">
        <ele>1235.1</ele>
        <time>2018-08-19T11:33:30.000Z</time>
      </trkpt>
      <trkpt lat="45.30798" lon="4.44366">
        <ele>1235.1</ele>
        <time>2018-08-19T11:33:31.000Z</time>
      </trkpt>
      <trkpt lat="45.30798" lon="4.44366">
        <ele>1235.1</ele>
        <time>2018-08-19T11:33:32.000Z</time>
      </trkpt>
      <trkpt lat="45.30798" lon="4.44366">
        <ele>1235.1</ele>
        <time>2018-08-19T11:33:33.000Z</time>
      </trkpt>
      <trkpt lat="45.30798" lon="4.44366">
        <ele>1235.1</ele>
        <time>2018-08-19T11:33:34.000Z</time>
      </trkpt>
      <trkpt lat="45.30798" lon="4.44366">
        <ele>1235.1</ele>
        <time>2018-08-19T11:33:35.000Z</time>
      </trkpt>
      <trkpt lat="45.30798" lon="4.44366">
        <ele>1235.1</ele>
        <time>2018-08-19T11:33:36.000Z</time>
      </trkpt>
      <trkpt lat="45.30798" lon="4.44366">
        <ele>1235.1</ele>
        <time>2018-08-19T11:33:37.000Z</time>
      </trkpt>
      <trkpt lat="45.30798" lon="4.44366">
        <ele>1235.1</ele>
        <time>2018-08-19T11:33:38.000Z</time>
      </trkpt>
      <trkpt lat="45.30798" lon="4.44366">
        <ele>1235.1</ele>
        <time>2018-08-19T11:33:39.000Z</time>
      </trkpt>
      <trkpt lat="45.30798" lon="4.44366">
        <ele>1235.1</ele>
        <time>2018-08-19T11:33:40.000Z</time>
      </trkpt>
      <trkpt lat="45.30798" lon="4.44366">
        <ele>1235.1</ele>
        <time>2018-08-19T11:33:41.000Z</time>
      </trkpt>
      <trkpt lat="45.30798" lon="4.44366">
        <ele>1235.1</ele>
        <time>2018-08-19T11:33:42.000Z</time>
      </trkpt>
      <trkpt lat="45.30798" lon="4.44366">
        <ele>1235.1</ele>
        <time>2018-08-19T11:33:43.000Z</time>
      </trkpt>
      <trkpt lat="45.30798" lon="4.44366">
        <ele>1235.1</ele>
        <time>2018-08-19T11:33:44.000Z</time>
      </trkpt>
      <trkpt lat="45.30798" lon="4.44366">
        <ele>1235.1</ele>
        <time>2018-08-19T11:33:45.000Z</time>
      </trkpt>
      <trkpt lat="45.30798" lon="4.44366">
        <ele>1235.1</ele>
        <time>2018-08-19T11:33:46.000Z</time>
      </trkpt>
      <trkpt lat="45.30798" lon="4.44366">
        <ele>1235.1</ele>
        <time>2018-08-19T11:33:47.000Z</time>
      </trkpt>
      <trkpt lat="45.30798" lon="4.44366">
        <ele>1235.1</ele>
        <time>2018-08-19T11:33:48.000Z</time>
      </trkpt>
      <trkpt lat="45.30798" lon="4.44366">
        <ele>1235.1</ele>
        <time>2018-08-19T11:33:49.000Z</time>
      </trkpt>
      <trkpt lat="45.30798" lon="4.44366">
        <ele>1235.1</ele>
        <time>2018-08-19T11:33:50.000Z</time>
      </trkpt>
      <trkpt lat="45.30798" lon="4.44366">
        <ele>1235.1</ele>
        <time>2018-08-19T11:33:51.000Z</time>
      </trkpt>
      <trkpt lat="45.30798" lon="4.44366">
        <ele>1235.1</ele>
        <time>2018-08-19T11:33:52.000Z</time>
      </trkpt>
      <trkpt lat="45.30798" lon="4.44366">
        <ele>1235.1</ele>
        <time>2018-08-19T11:33:53.000Z</time>
      </trkpt>
      <trkpt lat="45.30798" lon="4.44366">
        <ele>1235.1</ele>
        <time>2018-08-19T11:33:54.000Z</time>
      </trkpt>
      <trkpt lat="45.30798" lon="4.44366">
        <ele>1235.1</ele>
        <time>2018-08-19T11:33:55.000Z</time>
      </trkpt>
      <trkpt lat="45.30798" lon="4.44366">
        <ele>1235.1</ele>
        <time>2018-08-19T11:33:56.000Z</time>
      </trkpt>
      <trkpt lat="45.30798" lon="4.44366">
        <ele>1235.1</ele>
        <time>2018-08-19T11:33:57.000Z</time>
      </trkpt>
      <trkpt lat="45.30798" lon="4.44366">
        <ele>1235.1</ele>
        <time>2018-08-19T11:33:58.000Z</time>
      </trkpt>
      <trkpt lat="45.30798" lon="4.44366">
        <ele>1235.1</ele>
        <time>2018-08-19T11:33:59.000Z</time>
      </trkpt>
      <trkpt lat="45.30798" lon="4.44366">
        <ele>1235.1</ele>
        <time>2018-08-19T11:34:00.000Z</time>
      </trkpt>
      <trkpt lat="45.30798" lon="4.44366">
        <ele>1235.1</ele>
        <time>2018-08-19T11:34:01.000Z</time>
      </trkpt>
      <trkpt lat="45.30798" lon="4.44366">
        <ele>1235.1</ele>
        <time>2018-08-19T11:34:02.000Z</time>
      </trkpt>
      <trkpt lat="45.30798" lon="4.44366">
        <ele>1235.1</ele>
        <time>2018-08-19T11:34:03.000Z</time>
      </trkpt>
      <trkpt lat="45.30798" lon="4.44366">
        <ele>1235.1</ele>
        <time>2018-08-19T11:34:04.000Z</time>
      </trkpt>
      <trkpt lat="45.30798" lon="4.44366">
        <ele>1235.1</ele>
        <time>2018-08-19T11:34:05.000Z</time>
      </trkpt>
      <trkpt lat="45.30798" lon="4.44366">
        <ele>1235.1</ele>
        <time>2018-08-19T11:34:06.000Z</time>
      </trkpt>
      <trkpt lat="45.30798" lon="4.44366">
        <ele>1235.1</ele>
        <time>2018-08-19T11:34:07.000Z</time>
      </trkpt>
      <trkpt lat="45.30798" lon="4.44366">
        <ele>1235.1</ele>
        <time>2018-08-19T11:34:08.000Z</time>
      </trkpt>
      <trkpt lat="45.30798" lon="4.44366">
        <ele>1235.1</ele>
        <time>2018-08-19T11:34:09.000Z</time>
      </trkpt>
      <trkpt lat="45.30798" lon="4.44366">
        <ele>1235.1</ele>
        <time>2018-08-19T11:34:10.000Z</time>
      </trkpt>
      <trkpt lat="45.30798" lon="4.44366">
        <ele>1235.1</ele>
        <time>2018-08-19T11:34:11.000Z</time>
      </trkpt>
      <trkpt lat="45.30798" lon="4.44366">
        <ele>1235.1</ele>
        <time>2018-08-19T11:34:12.000Z</time>
      </trkpt>
      <trkpt lat="45.30798" lon="4.44366">
        <ele>1235.1</ele>
        <time>2018-08-19T11:34:13.000Z</time>
      </trkpt>
      <trkpt lat="45.30798" lon="4.44366">
        <ele>1235.1</ele>
        <time>2018-08-19T11:34:14.000Z</time>
      </trkpt>
      <trkpt lat="45.30798" lon="4.44366">
        <ele>1235.1</ele>
        <time>2018-08-19T11:34:15.000Z</time>
      </trkpt>
      <trkpt lat="45.30798" lon="4.44366">
        <ele>1235.1</ele>
        <time>2018-08-19T11:34:16.000Z</time>
      </trkpt>
      <trkpt lat="45.30798" lon="4.44366">
        <ele>1235.1</ele>
        <time>2018-08-19T11:34:17.000Z</time>
      </trkpt>
      <trkpt lat="45.30798" lon="4.44366">
        <ele>1235.1</ele>
        <time>2018-08-19T11:34:18.000Z</time>
      </trkpt>
      <trkpt lat="45.30798" lon="4.44366">
        <ele>1235.1</ele>
        <time>2018-08-19T11:34:19.000Z</time>
      </trkpt>
      <trkpt lat="45.30798" lon="4.44366">
        <ele>1235.1</ele>
        <time>2018-08-19T11:34:20.000Z</time>
      </trkpt>
      <trkpt lat="45.30798" lon="4.44366">
        <ele>1235.1</ele>
        <time>2018-08-19T11:34:21.000Z</time>
      </trkpt>
      <trkpt lat="45.30798" lon="4.44366">
        <ele>1235.1</ele>
        <time>2018-08-19T11:34:22.000Z</time>
      </trkpt>
      <trkpt lat="45.30798" lon="4.44366">
        <ele>1235.1</ele>
        <time>2018-08-19T11:34:23.000Z</time>
      </trkpt>
      <trkpt lat="45.30798" lon="4.44366">
        <ele>1235.1</ele>
        <time>2018-08-19T11:34:24.000Z</time>
      </trkpt>
      <trkpt lat="45.30798" lon="4.44366">
        <ele>1235.1</ele>
        <time>2018-08-19T11:34:25.000Z</time>
      </trkpt>
      <trkpt lat="45.30798" lon="4.44366">
        <ele>1235.1</ele>
        <time>2018-08-19T11:34:26.000Z</time>
      </trkpt>
      <trkpt lat="45.30798" lon="4.44366">
        <ele>1235.1</ele>
        <time>2018-08-19T11:34:27.000Z</time>
      </trkpt>
      <trkpt lat="45.30798" lon="4.44366">
        <ele>1235.1</ele>
        <time>2018-08-19T11:34:28.000Z</time>
      </trkpt>
      <trkpt lat="45.30798" lon="4.44366">
        <ele>1235.1</ele>
        <time>2018-08-19T11:34:29.000Z</time>
      </trkpt>
      <trkpt lat="45.30798" lon="4.44366">
        <ele>1235.1</ele>
        <time>2018-08-19T11:34:30.000Z</time>
      </trkpt>
      <trkpt lat="45.30798" lon="4.44366">
        <ele>1235.1</ele>
        <time>2018-08-19T11:34:31.000Z</time>
      </trkpt>
      <trkpt lat="45.30798" lon="4.44366">
        <ele>1235.1</ele>
        <time>2018-08-19T11:34:32.000Z</time>
      </trkpt>
      <trkpt lat="45.30798" lon="4.44366">
        <ele>1235.1</ele>
        <time>2018-08-19T11:34:33.000Z</time>
      </trkpt>
      <trkpt lat="45.30798" lon="4.44366">
        <ele>1235.1</ele>
        <time>2018-08-19T11:34:34.000Z</time>
      </trkpt>
      <trkpt lat="45.30798" lon="4.44366">
        <ele>1235.1</ele>
        <time>2018-08-19T11:34:35.000Z</time>
      </trkpt>
      <trkpt lat="45.30798" lon="4.44366">
        <ele>1235.1</ele>
        <time>2018-08-19T11:34:36.000Z</time>
      </trkpt>
      <trkpt lat="45.30798" lon="4.44366">
        <ele>1235.1</ele>
        <time>2018-08-19T11:34:37.000Z</time>
      </trkpt>
      <trkpt lat="45.30798" lon="4.44366">
        <ele>1235.1</ele>
        <time>2018-08-19T11:34:38.000Z</time>
      </trkpt>
      <trkpt lat="45.30798" lon="4.44366">
        <ele>1235.1</ele>
        <time>2018-08-19T11:34:39.000Z</time>
      </trkpt>
      <trkpt lat="45.30798" lon="4.44366">
        <ele>1235.1</ele>
        <time>2018-08-19T11:34:40.000Z</time>
      </trkpt>
      <trkpt lat="45.30798" lon="4.44366">
        <ele>1235.1</ele>
        <time>2018-08-19T11:34:41.000Z</time>
      </trkpt>
      <trkpt lat="45.30798" lon="4.44366">
        <ele>1235.1</ele>
        <time>2018-08-19T11:34:42.000Z</time>
      </trkpt>
      <trkpt lat="45.30798" lon="4.44366">
        <ele>1235.1</ele>
        <time>2018-08-19T11:34:43.000Z</time>
      </trkpt>
      <trkpt lat="45.30798" lon="4.44366">
        <ele>1235.1</ele>
        <time>2018-08-19T11:34:44.000Z</time>
      </trkpt>
      <trkpt lat="45.30798" lon="4.44366">
        <ele>1235.1</ele>
        <time>2018-08-19T11:34:45.000Z</time>
      </trkpt>
      <trkpt lat="45.30798" lon="4.44366">
        <ele>1235.1</ele>
        <time>2018-08-19T11:34:46.000Z</time>
      </trkpt>
      <trkpt lat="45.30798" lon="4.44366">
        <ele>1235.1</ele>
        <time>2018-08-19T11:34:47.000Z</time>
      </trkpt>
      <trkpt lat="45.30798" lon="4.44366">
        <ele>1235.1</ele>
        <time>2018-08-19T11:34:48.000Z</time>
      </trkpt>
      <trkpt lat="45.30798" lon="4.44366">
        <ele>1235.1</ele>
        <time>2018-08-19T11:34:49.000Z</time>
      </trkpt>
      <trkpt lat="45.30798" lon="4.44366">
        <ele>1235.1</ele>
        <time>2018-08-19T11:34:50.000Z</time>
      </trkpt>
      <trkpt lat="45.30798" lon="4.44366">
        <ele>1235.1</ele>
        <time>2018-08-19T11:34:51.000Z</time>
      </trkpt>
      <trkpt lat="45.30798" lon="4.44366">
        <ele>1235.1</ele>
        <time>2018-08-19T11:34:52.000Z</time>
      </trkpt>
      <trkpt lat="45.30798" lon="4.44366">
        <ele>1235.1</ele>
        <time>2018-08-19T11:34:53.000Z</time>
      </trkpt>
      <trkpt lat="45.30798" lon="4.44366">
        <ele>1235.1</ele>
        <time>2018-08-19T11:34:54.000Z</time>
      </trkpt>
      <trkpt lat="45.30798" lon="4.44366">
        <ele>1235.1</ele>
        <time>2018-08-19T11:34:55.000Z</time>
      </trkpt>
      <trkpt lat="45.30798" lon="4.44366">
        <ele>1235.1</ele>
        <time>2018-08-19T11:34:56.000Z</time>
      </trkpt>
      <trkpt lat="45.30798" lon="4.44366">
        <ele>1235.1</ele>
        <time>2018-08-19T11:34:57.000Z</time>
      </trkpt>
      <trkpt lat="45.30798" lon="4.44366">
        <ele>1235.1</ele>
        <time>2018-08-19T11:34:58.000Z</time>
      </trkpt>
      <trkpt lat="45.30798" lon="4.44366">
        <ele>1235.1</ele>
        <time>2018-08-19T11:34:59.000Z</time>
      </trkpt>
      <trkpt lat="45.30798" lon="4.44366">
        <ele>1235.1</ele>
        <time>2018-08-19T11:35:00.000Z</time>
      </trkpt>
      <trkpt lat="45.30798" lon="4.44366">
        <ele>1235.1</ele>
        <time>2018-08-19T11:35:01.000Z</time>
      </trkpt>
      <trkpt lat="45.30798" lon="4.44366">
        <ele>1235.1</ele>
        <time>2018-08-19T11:35:02.000Z</time>
      </trkpt>
      <trkpt lat="45.30798" lon="4.44366">
        <ele>1235.1</ele>
        <time>2018-08-19T11:35:03.000Z</time>
      </trkpt>
      <trkpt lat="45.30798" lon="4.44366">
        <ele>1235.1</ele>
        <time>2018-08-19T11:35:04.000Z</time>
      </trkpt>
      <trkpt lat="45.30798" lon="4.44366">
        <ele>1235.1</ele>
        <time>2018-08-19T11:35:05.000Z</time>
      </trkpt>
      <trkpt lat="45.30798" lon="4.44366">
        <ele>1235.1</ele>
        <time>2018-08-19T11:35:06.000Z</time>
      </trkpt>
      <trkpt lat="45.30798" lon="4.44366">
        <ele>1235.1</ele>
        <time>2018-08-19T11:35:07.000Z</time>
      </trkpt>
      <trkpt lat="45.30798" lon="4.44366">
        <ele>1235.1</ele>
        <time>2018-08-19T11:35:08.000Z</time>
      </trkpt>
      <trkpt lat="45.30798" lon="4.44366">
        <ele>1235.1</ele>
        <time>2018-08-19T11:35:09.000Z</time>
      </trkpt>
      <trkpt lat="45.30798" lon="4.44366">
        <ele>1235.1</ele>
        <time>2018-08-19T11:35:10.000Z</time>
      </trkpt>
      <trkpt lat="45.30798" lon="4.44366">
        <ele>1235.1</ele>
        <time>2018-08-19T11:35:11.000Z</time>
      </trkpt>
      <trkpt lat="45.30798" lon="4.44366">
        <ele>1235.1</ele>
        <time>2018-08-19T11:35:12.000Z</time>
      </trkpt>
      <trkpt lat="45.30798" lon="4.44366">
        <ele>1235.1</ele>
        <time>2018-08-19T11:35:13.000Z</time>
      </trkpt>
      <trkpt lat="45.30798" lon="4.44366">
        <ele>1235.1</ele>
        <time>2018-08-19T11:35:14.000Z</time>
      </trkpt>
      <trkpt lat="45.30798" lon="4.44366">
        <ele>1235.1</ele>
        <time>2018-08-19T11:35:15.000Z</time>
      </trkpt>
      <trkpt lat="45.30798" lon="4.44366">
        <ele>1235.1</ele>
        <time>2018-08-19T11:35:16.000Z</time>
      </trkpt>
      <trkpt lat="45.30798" lon="4.44366">
        <ele>1235.1</ele>
        <time>2018-08-19T11:35:17.000Z</time>
      </trkpt>
      <trkpt lat="45.30798" lon="4.44366">
        <ele>1235.1</ele>
        <time>2018-08-19T11:35:18.000Z</time>
      </trkpt>
      <trkpt lat="45.30798" lon="4.44366">
        <ele>1235.1</ele>
        <time>2018-08-19T11:35:19.000Z</time>
      </trkpt>
      <trkpt lat="45.30798" lon="4.44366">
        <ele>1235.1</ele>
        <time>2018-08-19T11:35:20.000Z</time>
      </trkpt>
      <trkpt lat="45.30798" lon="4.44366">
        <ele>1235.1</ele>
        <time>2018-08-19T11:35:21.000Z</time>
      </trkpt>
      <trkpt lat="45.30798" lon="4.44366">
        <ele>1235.1</ele>
        <time>2018-08-19T11:35:22.000Z</time>
      </trkpt>
      <trkpt lat="45.30798" lon="4.44366">
        <ele>1235.1</ele>
        <time>2018-08-19T11:35:23.000Z</time>
      </trkpt>
      <trkpt lat="45.30798" lon="4.44366">
        <ele>1235.1</ele>
        <time>2018-08-19T11:35:24.000Z</time>
      </trkpt>
      <trkpt lat="45.30798" lon="4.44366">
        <ele>1235.1</ele>
        <time>2018-08-19T11:35:25.000Z</time>
      </trkpt>
      <trkpt lat="45.30798" lon="4.44366">
        <ele>1235.1</ele>
        <time>2018-08-19T11:35:26.000Z</time>
      </trkpt>
      <trkpt lat="45.30798" lon="4.44366">
        <ele>1235.1</ele>
        <time>2018-08-19T11:35:27.000Z</time>
      </trkpt>
      <trkpt lat="45.30798" lon="4.44366">
        <ele>1235.1</ele>
        <time>2018-08-19T11:35:28.000Z</time>
      </trkpt>
      <trkpt lat="45.30798" lon="4.44366">
        <ele>1235.1</ele>
        <time>2018-08-19T11:35:29.000Z</time>
      </trkpt>
      <trkpt lat="45.30798" lon="4.44366">
        <ele>1235.1</ele>
        <time>2018-08-19T11:35:30.000Z</time>
      </trkpt>
      <trkpt lat="45.30798" lon="4.44366">
        <ele>1235.1</ele>
        <time>2018-08-19T11:35:31.000Z</time>
      </trkpt>
      <trkpt lat="45.30798" lon="4.44366">
        <ele>1235.1</ele>
        <time>2018-08-19T11:35:32.000Z</time>
      </trkpt>
      <trkpt lat="45.30798" lon="4.44366">
        <ele>1235.1</ele>
        <time>2018-08-19T11:35:33.000Z</time>
      </trkpt>
      <trkpt lat="45.30798" lon="4.44366">
        <ele>1235.1</ele>
        <time>2018-08-19T11:35:34.000Z</time>
      </trkpt>
      <trkpt lat="45.30798" lon="4.44366">
        <ele>1235.1</ele>
        <time>2018-08-19T11:35:35.000Z</time>
      </trkpt>
      <trkpt lat="45.30798" lon="4.44366">
        <ele>1235.1</ele>
        <time>2018-08-19T11:35:36.000Z</time>
      </trkpt>
      <trkpt lat="45.30798" lon="4.44366">
        <ele>1235.1</ele>
        <time>2018-08-19T11:35:37.000Z</time>
      </trkpt>
      <trkpt lat="45.30798" lon="4.44366">
        <ele>1235.1</ele>
        <time>2018-08-19T11:35:38.000Z</time>
      </trkpt>
      <trkpt lat="45.30798" lon="4.44366">
        <ele>1235.1</ele>
        <time>2018-08-19T11:35:39.000Z</time>
      </trkpt>
      <trkpt lat="45.30798" lon="4.44366">
        <ele>1235.1</ele>
        <time>2018-08-19T11:35:40.000Z</time>
      </trkpt>
      <trkpt lat="45.30798" lon="4.44366">
        <ele>1235.1</ele>
        <time>2018-08-19T11:35:41.000Z</time>
      </trkpt>
      <trkpt lat="45.30798" lon="4.44366">
        <ele>1235.1</ele>
        <time>2018-08-19T11:35:42.000Z</time>
      </trkpt>
      <trkpt lat="45.30798" lon="4.44366">
        <ele>1235.1</ele>
        <time>2018-08-19T11:35:43.000Z</time>
      </trkpt>
      <trkpt lat="45.30798" lon="4.44366">
        <ele>1235.1</ele>
        <time>2018-08-19T11:35:44.000Z</time>
      </trkpt>
      <trkpt lat="45.30798" lon="4.44366">
        <ele>1235.1</ele>
        <time>2018-08-19T11:35:45.000Z</time>
      </trkpt>
      <trkpt lat="45.30798" lon="4.44366">
        <ele>1235.1</ele>
        <time>2018-08-19T11:35:46.000Z</time>
      </trkpt>
      <trkpt lat="45.30798" lon="4.44366">
        <ele>1235.1</ele>
        <time>2018-08-19T11:35:47.000Z</time>
      </trkpt>
      <trkpt lat="45.30798" lon="4.44366">
        <ele>1235.1</ele>
        <time>2018-08-19T11:35:48.000Z</time>
      </trkpt>
      <trkpt lat="45.30798" lon="4.44366">
        <ele>1235.1</ele>
        <time>2018-08-19T11:35:49.000Z</time>
      </trkpt>
      <trkpt lat="45.30798" lon="4.44366">
        <ele>1235.1</ele>
        <time>2018-08-19T11:35:50.000Z</time>
      </trkpt>
      <trkpt lat="45.30798" lon="4.44366">
        <ele>1235.1</ele>
        <time>2018-08-19T11:35:51.000Z</time>
      </trkpt>
      <trkpt lat="45.30798" lon="4.44366">
        <ele>1235.1</ele>
        <time>2018-08-19T11:35:52.000Z</time>
      </trkpt>
      <trkpt lat="45.30798" lon="4.44366">
        <ele>1235.1</ele>
        <time>2018-08-19T11:35:53.000Z</time>
      </trkpt>
      <trkpt lat="45.30798" lon="4.44366">
        <ele>1235.1</ele>
        <time>2018-08-19T11:35:54.000Z</time>
      </trkpt>
      <trkpt lat="45.30798" lon="4.44366">
        <ele>1235.1</ele>
        <time>2018-08-19T11:35:55.000Z</time>
      </trkpt>
      <trkpt lat="45.30798" lon="4.44366">
        <ele>1235.1</ele>
        <time>2018-08-19T11:35:56.000Z</time>
      </trkpt>
      <trkpt lat="45.30798" lon="4.44366">
        <ele>1235.1</ele>
        <time>2018-08-19T11:35:57.000Z</time>
      </trkpt>
      <trkpt lat="45.30798" lon="4.44366">
        <ele>1235.1</ele>
        <time>2018-08-19T11:35:58.000Z</time>
      </trkpt>
      <trkpt lat="45.30798" lon="4.44366">
        <ele>1235.1</ele>
        <time>2018-08-19T11:35:59.000Z</time>
      </trkpt>
      <trkpt lat="45.30798" lon="4.44366">
        <ele>1235.1</ele>
        <time>2018-08-19T11:36:00.000Z</time>
      </trkpt>
      <trkpt lat="45.30798" lon="4.44366">
        <ele>1235.1</ele>
        <time>2018-08-19T11:36:01.000Z</time>
      </trkpt>
      <trkpt lat="45.30798" lon="4.44366">
        <ele>1235.1</ele>
        <time>2018-08-19T11:36:02.000Z</time>
      </trkpt>
      <trkpt lat="45.30798" lon="4.44366">
        <ele>1235.1</ele>
        <time>2018-08-19T11:36:03.000Z</time>
      </trkpt>
      <trkpt lat="45.30798" lon="4.44366">
        <ele>1235.1</ele>
        <time>2018-08-19T11:36:04.000Z</time>
      </trkpt>
      <trkpt lat="45.30798" lon="4.44366">
        <ele>1235.1</ele>
        <time>2018-08-19T11:36:05.000Z</time>
      </trkpt>
      <trkpt lat="45.30798" lon="4.44366">
        <ele>1235.1</ele>
        <time>2018-08-19T11:36:06.000Z</time>
      </trkpt>
      <trkpt lat="45.30798" lon="4.44366">
        <ele>1235.1</ele>
        <time>2018-08-19T11:36:07.000Z</time>
      </trkpt>
      <trkpt lat="45.30798" lon="4.44366">
        <ele>1235.1</ele>
        <time>2018-08-19T11:36:08.000Z</time>
      </trkpt>
      <trkpt lat="45.30798" lon="4.44366">
        <ele>1235.1</ele>
        <time>2018-08-19T11:36:09.000Z</time>
      </trkpt>
      <trkpt lat="45.30798" lon="4.44366">
        <ele>1235.1</ele>
        <time>2018-08-19T11:36:10.000Z</time>
      </trkpt>
      <trkpt lat="45.30798" lon="4.44366">
        <ele>1235.1</ele>
        <time>2018-08-19T11:36:11.000Z</time>
      </trkpt>
      <trkpt lat="45.30798" lon="4.44366">
        <ele>1235.1</ele>
        <time>2018-08-19T11:36:12.000Z</time>
      </trkpt>
      <trkpt lat="45.30798" lon="4.44366">
        <ele>1235.1</ele>
        <time>2018-08-19T11:36:13.000Z</time>
      </trkpt>
      <trkpt lat="45.30798" lon="4.44366">
        <ele>1235.1</ele>
        <time>2018-08-19T11:36:14.000Z</time>
      </trkpt>
      <trkpt lat="45.30798" lon="4.44366">
        <ele>1235.1</ele>
        <time>2018-08-19T11:36:15.000Z</time>
      </trkpt>
      <trkpt lat="45.30798" lon="4.44366">
        <ele>1235.1</ele>
        <time>2018-08-19T11:36:16.000Z</time>
      </trkpt>
      <trkpt lat="45.30798" lon="4.44366">
        <ele>1235.1</ele>
        <time>2018-08-19T11:36:17.000Z</time>
      </trkpt>
      <trkpt lat="45.30798" lon="4.44366">
        <ele>1235.1</ele>
        <time>2018-08-19T11:36:18.000Z</time>
      </trkpt>
      <trkpt lat="45.30798" lon="4.44366">
        <ele>1235.1</ele>
        <time>2018-08-19T11:36:19.000Z</time>
      </trkpt>
      <trkpt lat="45.30798" lon="4.44366">
        <ele>1235.1</ele>
        <time>2018-08-19T11:36:20.000Z</time>
      </trkpt>
      <trkpt lat="45.30798" lon="4.44366">
        <ele>1235.1</ele>
        <time>2018-08-19T11:36:21.000Z</time>
      </trkpt>
      <trkpt lat="45.30798" lon="4.44366">
        <ele>1235.1</ele>
        <time>2018-08-19T11:36:22.000Z</time>
      </trkpt>
      <trkpt lat="45.30798" lon="4.44366">
        <ele>1235.1</ele>
        <time>2018-08-19T11:36:23.000Z</time>
      </trkpt>
      <trkpt lat="45.30798" lon="4.44366">
        <ele>1235.1</ele>
        <time>2018-08-19T11:36:24.000Z</time>
      </trkpt>
      <trkpt lat="45.30798" lon="4.44366">
        <ele>1235.1</ele>
        <time>2018-08-19T11:36:25.000Z</time>
      </trkpt>
      <trkpt lat="45.30798" lon="4.44366">
        <ele>1235.1</ele>
        <time>2018-08-19T11:36:26.000Z</time>
      </trkpt>
      <trkpt lat="45.30798" lon="4.44366">
        <ele>1235.1</ele>
        <time>2018-08-19T11:36:27.000Z</time>
      </trkpt>
      <trkpt lat="45.30798" lon="4.44366">
        <ele>1235.1</ele>
        <time>2018-08-19T11:36:28.000Z</time>
      </trkpt>
      <trkpt lat="45.30798" lon="4.44366">
        <ele>1235.1</ele>
        <time>2018-08-19T11:36:29.000Z</time>
      </trkpt>
      <trkpt lat="45.30798" lon="4.44366">
        <ele>1235.1</ele>
        <time>2018-08-19T11:36:30.000Z</time>
      </trkpt>
      <trkpt lat="45.30798" lon="4.44366">
        <ele>1235.1</ele>
        <time>2018-08-19T11:36:31.000Z</time>
      </trkpt>
      <trkpt lat="45.30798" lon="4.44366">
        <ele>1235.1</ele>
        <time>2018-08-19T11:36:32.000Z</time>
      </trkpt>
      <trkpt lat="45.30798" lon="4.44366">
        <ele>1235.1</ele>
        <time>2018-08-19T11:36:33.000Z</time>
      </trkpt>
      <trkpt lat="45.30798" lon="4.44366">
        <ele>1235.1</ele>
        <time>2018-08-19T11:36:34.000Z</time>
      </trkpt>
      <trkpt lat="45.30798" lon="4.44366">
        <ele>1235.1</ele>
        <time>2018-08-19T11:36:35.000Z</time>
      </trkpt>
      <trkpt lat="45.30798" lon="4.44366">
        <ele>1235.1</ele>
        <time>2018-08-19T11:36:36.000Z</time>
      </trkpt>
      <trkpt lat="45.30798" lon="4.44366">
        <ele>1235.1</ele>
        <time>2018-08-19T11:36:37.000Z</time>
      </trkpt>
      <trkpt lat="45.30798" lon="4.44366">
        <ele>1235.1</ele>
        <time>2018-08-19T11:36:38.000Z</time>
      </trkpt>
      <trkpt lat="45.30798" lon="4.44366">
        <ele>1235.1</ele>
        <time>2018-08-19T11:36:39.000Z</time>
      </trkpt>
      <trkpt lat="45.30798" lon="4.44366">
        <ele>1235.1</ele>
        <time>2018-08-19T11:36:40.000Z</time>
      </trkpt>
      <trkpt lat="45.30798" lon="4.44366">
        <ele>1235.1</ele>
        <time>2018-08-19T11:36:41.000Z</time>
      </trkpt>
      <trkpt lat="45.30798" lon="4.44366">
        <ele>1235.1</ele>
        <time>2018-08-19T11:36:42.000Z</time>
      </trkpt>
      <trkpt lat="45.30798" lon="4.44366">
        <ele>1235.1</ele>
        <time>2018-08-19T11:36:43.000Z</time>
      </trkpt>
      <trkpt lat="45.30798" lon="4.44366">
        <ele>1235.1</ele>
        <time>2018-08-19T11:36:44.000Z</time>
      </trkpt>
      <trkpt lat="45.30798" lon="4.44366">
        <ele>1235.1</ele>
        <time>2018-08-19T11:36:45.000Z</time>
      </trkpt>
      <trkpt lat="45.30798" lon="4.44366">
        <ele>1235.1</ele>
        <time>2018-08-19T11:36:46.000Z</time>
      </trkpt>
      <trkpt lat="45.30798" lon="4.44366">
        <ele>1235.1</ele>
        <time>2018-08-19T11:36:47.000Z</time>
      </trkpt>
      <trkpt lat="45.30798" lon="4.44366">
        <ele>1235.1</ele>
        <time>2018-08-19T11:36:48.000Z</time>
      </trkpt>
      <trkpt lat="45.30798" lon="4.44366">
        <ele>1235.1</ele>
        <time>2018-08-19T11:36:49.000Z</time>
      </trkpt>
      <trkpt lat="45.30798" lon="4.44366">
        <ele>1235.1</ele>
        <time>2018-08-19T11:36:50.000Z</time>
      </trkpt>
      <trkpt lat="45.30798" lon="4.44366">
        <ele>1235.1</ele>
        <time>2018-08-19T11:36:51.000Z</time>
      </trkpt>
      <trkpt lat="45.30798" lon="4.44366">
        <ele>1235.1</ele>
        <time>2018-08-19T11:36:52.000Z</time>
      </trkpt>
      <trkpt lat="45.30798" lon="4.44366">
        <ele>1235.1</ele>
        <time>2018-08-19T11:36:53.000Z</time>
      </trkpt>
      <trkpt lat="45.30798" lon="4.44366">
        <ele>1235.1</ele>
        <time>2018-08-19T11:36:54.000Z</time>
      </trkpt>
      <trkpt lat="45.30798" lon="4.44366">
        <ele>1235.1</ele>
        <time>2018-08-19T11:36:55.000Z</time>
      </trkpt>
      <trkpt lat="45.30798" lon="4.44366">
        <ele>1235.1</ele>
        <time>2018-08-19T11:36:56.000Z</time>
      </trkpt>
      <trkpt lat="45.30798" lon="4.44366">
        <ele>1235.1</ele>
        <time>2018-08-19T11:36:57.000Z</time>
      </trkpt>
      <trkpt lat="45.30798" lon="4.44366">
        <ele>1235.1</ele>
        <time>2018-08-19T11:36:58.000Z</time>
      </trkpt>
      <trkpt lat="45.30798" lon="4.44366">
        <ele>1235.1</ele>
        <time>2018-08-19T11:36:59.000Z</time>
      </trkpt>
      <trkpt lat="45.30798" lon="4.44366">
        <ele>1235.1</ele>
        <time>2018-08-19T11:37:00.000Z</time>
      </trkpt>
      <trkpt lat="45.30798" lon="4.44366">
        <ele>1235.1</ele>
        <time>2018-08-19T11:37:01.000Z</time>
      </trkpt>
      <trkpt lat="45.30798" lon="4.44366">
        <ele>1235.1</ele>
        <time>2018-08-19T11:37:02.000Z</time>
      </trkpt>
      <trkpt lat="45.30798" lon="4.44366">
        <ele>1235.1</ele>
        <time>2018-08-19T11:37:03.000Z</time>
      </trkpt>
      <trkpt lat="45.30798" lon="4.44366">
        <ele>1235.1</ele>
        <time>2018-08-19T11:37:04.000Z</time>
      </trkpt>
      <trkpt lat="45.30798" lon="4.44366">
        <ele>1235.1</ele>
        <time>2018-08-19T11:37:05.000Z</time>
      </trkpt>
      <trkpt lat="45.30798" lon="4.44366">
        <ele>1235.1</ele>
        <time>2018-08-19T11:37:06.000Z</time>
      </trkpt>
      <trkpt lat="45.30798" lon="4.44366">
        <ele>1235.1</ele>
        <time>2018-08-19T11:37:07.000Z</time>
      </trkpt>
      <trkpt lat="45.30798" lon="4.44366">
        <ele>1235.1</ele>
        <time>2018-08-19T11:37:08.000Z</time>
      </trkpt>
      <trkpt lat="45.30798" lon="4.44366">
        <ele>1235.1</ele>
        <time>2018-08-19T11:37:09.000Z</time>
      </trkpt>
      <trkpt lat="45.30798" lon="4.44366">
        <ele>1235.1</ele>
        <time>2018-08-19T11:37:10.000Z</time>
      </trkpt>
      <trkpt lat="45.30798" lon="4.44366">
        <ele>1235.1</ele>
        <time>2018-08-19T11:37:11.000Z</time>
      </trkpt>
      <trkpt lat="45.30798" lon="4.44366">
        <ele>1235.1</ele>
        <time>2018-08-19T11:37:12.000Z</time>
      </trkpt>
      <trkpt lat="45.30798" lon="4.44366">
        <ele>1235.1</ele>
        <time>2018-08-19T11:37:13.000Z</time>
      </trkpt>
      <trkpt lat="45.30798" lon="4.44366">
        <ele>1235.1</ele>
        <time>2018-08-19T11:37:14.000Z</time>
      </trkpt>
      <trkpt lat="45.30798" lon="4.44366">
        <ele>1235.1</ele>
        <time>2018-08-19T11:37:15.000Z</time>
      </trkpt>
      <trkpt lat="45.30798" lon="4.44366">
        <ele>1235.1</ele>
        <time>2018-08-19T11:37:16.000Z</time>
      </trkpt>
      <trkpt lat="45.30798" lon="4.44366">
        <ele>1235.1</ele>
        <time>2018-08-19T11:37:17.000Z</time>
      </trkpt>
      <trkpt lat="45.30798" lon="4.44366">
        <ele>1235.1</ele>
        <time>2018-08-19T11:37:18.000Z</time>
      </trkpt>
      <trkpt lat="45.30798" lon="4.44366">
        <ele>1235.1</ele>
        <time>2018-08-19T11:37:19.000Z</time>
      </trkpt>
      <trkpt lat="45.30798" lon="4.44366">
        <ele>1235.1</ele>
        <time>2018-08-19T11:37:20.000Z</time>
      </trkpt>
      <trkpt lat="45.30798" lon="4.44366">
        <ele>1235.1</ele>
        <time>2018-08-19T11:37:21.000Z</time>
      </trkpt>
      <trkpt lat="45.30798" lon="4.44366">
        <ele>1235.1</ele>
        <time>2018-08-19T11:37:22.000Z</time>
      </trkpt>
      <trkpt lat="45.30798" lon="4.44366">
        <ele>1235.1</ele>
        <time>2018-08-19T11:37:23.000Z</time>
      </trkpt>
      <trkpt lat="45.30798" lon="4.44366">
        <ele>1235.1</ele>
        <time>2018-08-19T11:37:24.000Z</time>
      </trkpt>
      <trkpt lat="45.30798" lon="4.44366">
        <ele>1235.1</ele>
        <time>2018-08-19T11:37:25.000Z</time>
      </trkpt>
      <trkpt lat="45.30798" lon="4.44366">
        <ele>1235.1</ele>
        <time>2018-08-19T11:37:26.000Z</time>
      </trkpt>
      <trkpt lat="45.30798" lon="4.44366">
        <ele>1235.1</ele>
        <time>2018-08-19T11:37:27.000Z</time>
      </trkpt>
      <trkpt lat="45.30798" lon="4.44366">
        <ele>1235.1</ele>
        <time>2018-08-19T11:37:28.000Z</time>
      </trkpt>
      <trkpt lat="45.30798" lon="4.44366">
        <ele>1235.1</ele>
        <time>2018-08-19T11:37:29.000Z</time>
      </trkpt>
      <trkpt lat="45.30798" lon="4.44366">
        <ele>1235.1</ele>
        <time>2018-08-19T11:37:30.000Z</time>
      </trkpt>
      <trkpt lat="45.30798" lon="4.44366">
        <ele>1235.1</ele>
        <time>2018-08-19T11:37:31.000Z</time>
      </trkpt>
      <trkpt lat="45.30798" lon="4.44366">
        <ele>1235.1</ele>
        <time>2018-08-19T11:37:32.000Z</time>
      </trkpt>
      <trkpt lat="45.30798" lon="4.44366">
        <ele>1235.1</ele>
        <time>2018-08-19T11:37:33.000Z</time>
      </trkpt>
      <trkpt lat="45.30798" lon="4.44366">
        <ele>1235.1</ele>
        <time>2018-08-19T11:37:34.000Z</time>
      </trkpt>
      <trkpt lat="45.30798" lon="4.44366">
        <ele>1235.1</ele>
        <time>2018-08-19T11:37:35.000Z</time>
      </trkpt>
      <trkpt lat="45.30798" lon="4.44366">
        <ele>1235.1</ele>
        <time>2018-08-19T11:37:36.000Z</time>
      </trkpt>
      <trkpt lat="45.30798" lon="4.44366">
        <ele>1235.1</ele>
        <time>2018-08-19T11:37:37.000Z</time>
      </trkpt>
      <trkpt lat="45.30798" lon="4.44366">
        <ele>1235.1</ele>
        <time>2018-08-19T11:37:38.000Z</time>
      </trkpt>
      <trkpt lat="45.30798" lon="4.44366">
        <ele>1235.1</ele>
        <time>2018-08-19T11:37:39.000Z</time>
      </trkpt>
      <trkpt lat="45.30798" lon="4.44366">
        <ele>1235.1</ele>
        <time>2018-08-19T11:37:40.000Z</time>
      </trkpt>
      <trkpt lat="45.30798" lon="4.44366">
        <ele>1235.1</ele>
        <time>2018-08-19T11:37:41.000Z</time>
      </trkpt>
      <trkpt lat="45.30798" lon="4.44366">
        <ele>1235.1</ele>
        <time>2018-08-19T11:37:42.000Z</time>
      </trkpt>
      <trkpt lat="45.30798" lon="4.44366">
        <ele>1235.1</ele>
        <time>2018-08-19T11:37:43.000Z</time>
      </trkpt>
      <trkpt lat="45.30798" lon="4.44366">
        <ele>1235.1</ele>
        <time>2018-08-19T11:37:44.000Z</time>
      </trkpt>
      <trkpt lat="45.30798" lon="4.44366">
        <ele>1235.1</ele>
        <time>2018-08-19T11:37:45.000Z</time>
      </trkpt>
      <trkpt lat="45.30798" lon="4.44366">
        <ele>1235.1</ele>
        <time>2018-08-19T11:37:46.000Z</time>
      </trkpt>
      <trkpt lat="45.30798" lon="4.44366">
        <ele>1235.1</ele>
        <time>2018-08-19T11:37:47.000Z</time>
      </trkpt>
      <trkpt lat="45.30798" lon="4.44366">
        <ele>1235.1</ele>
        <time>2018-08-19T11:37:48.000Z</time>
      </trkpt>
      <trkpt lat="45.30798" lon="4.44366">
        <ele>1235.1</ele>
        <time>2018-08-19T11:37:49.000Z</time>
      </trkpt>
      <trkpt lat="45.30798" lon="4.44366">
        <ele>1235.1</ele>
        <time>2018-08-19T11:37:50.000Z</time>
      </trkpt>
      <trkpt lat="45.30798" lon="4.44366">
        <ele>1235.1</ele>
        <time>2018-08-19T11:37:51.000Z</time>
      </trkpt>
      <trkpt lat="45.30798" lon="4.44366">
        <ele>1235.1</ele>
        <time>2018-08-19T11:37:52.000Z</time>
      </trkpt>
      <trkpt lat="45.30798" lon="4.44366">
        <ele>1235.1</ele>
        <time>2018-08-19T11:37:53.000Z</time>
      </trkpt>
      <trkpt lat="45.30798" lon="4.44366">
        <ele>1235.1</ele>
        <time>2018-08-19T11:37:54.000Z</time>
      </trkpt>
      <trkpt lat="45.30798" lon="4.44366">
        <ele>1235.1</ele>
        <time>2018-08-19T11:37:55.000Z</time>
      </trkpt>
      <trkpt lat="45.30798" lon="4.44366">
        <ele>1235.1</ele>
        <time>2018-08-19T11:37:56.000Z</time>
      </trkpt>
      <trkpt lat="45.30798" lon="4.44366">
        <ele>1235.1</ele>
        <time>2018-08-19T11:37:57.000Z</time>
      </trkpt>
      <trkpt lat="45.30798" lon="4.44366">
        <ele>1235.1</ele>
        <time>2018-08-19T11:37:58.000Z</time>
      </trkpt>
      <trkpt lat="45.30798" lon="4.44366">
        <ele>1235.1</ele>
        <time>2018-08-19T11:37:59.000Z</time>
      </trkpt>
      <trkpt lat="45.30798" lon="4.44366">
        <ele>1235.1</ele>
        <time>2018-08-19T11:38:00.000Z</time>
      </trkpt>
      <trkpt lat="45.30798" lon="4.44366">
        <ele>1235.1</ele>
        <time>2018-08-19T11:38:01.000Z</time>
      </trkpt>
      <trkpt lat="45.30798" lon="4.44366">
        <ele>1235.1</ele>
        <time>2018-08-19T11:38:02.000Z</time>
      </trkpt>
      <trkpt lat="45.30798" lon="4.44366">
        <ele>1235.1</ele>
        <time>2018-08-19T11:38:03.000Z</time>
      </trkpt>
      <trkpt lat="45.30798" lon="4.44366">
        <ele>1235.1</ele>
        <time>2018-08-19T11:38:04.000Z</time>
      </trkpt>
      <trkpt lat="45.30798" lon="4.44366">
        <ele>1235.1</ele>
        <time>2018-08-19T11:38:05.000Z</time>
      </trkpt>
      <trkpt lat="45.30798" lon="4.44366">
        <ele>1235.1</ele>
        <time>2018-08-19T11:38:06.000Z</time>
      </trkpt>
      <trkpt lat="45.30798" lon="4.44366">
        <ele>1235.1</ele>
        <time>2018-08-19T11:38:07.000Z</time>
      </trkpt>
      <trkpt lat="45.30798" lon="4.44366">
        <ele>1235.1</ele>
        <time>2018-08-19T11:38:08.000Z</time>
      </trkpt>
      <trkpt lat="45.30798" lon="4.44366">
        <ele>1235.1</ele>
        <time>2018-08-19T11:38:09.000Z</time>
      </trkpt>
      <trkpt lat="45.30798" lon="4.44366">
        <ele>1235.1</ele>
        <time>2018-08-19T11:38:10.000Z</time>
      </trkpt>
      <trkpt lat="45.30798" lon="4.44366">
        <ele>1235.1</ele>
        <time>2018-08-19T11:38:11.000Z</time>
      </trkpt>
      <trkpt lat="45.30798" lon="4.44366">
        <ele>1235.1</ele>
        <time>2018-08-19T11:38:12.000Z</time>
      </trkpt>
      <trkpt lat="45.30798" lon="4.44366">
        <ele>1235.1</ele>
        <time>2018-08-19T11:38:13.000Z</time>
      </trkpt>
      <trkpt lat="45.30798" lon="4.44366">
        <ele>1235.1</ele>
        <time>2018-08-19T11:38:14.000Z</time>
      </trkpt>
      <trkpt lat="45.30798" lon="4.44366">
        <ele>1235.1</ele>
        <time>2018-08-19T11:38:15.000Z</time>
      </trkpt>
      <trkpt lat="45.30798" lon="4.44366">
        <ele>1235.1</ele>
        <time>2018-08-19T11:38:16.000Z</time>
      </trkpt>
      <trkpt lat="45.30798" lon="4.44366">
        <ele>1235.1</ele>
        <time>2018-08-19T11:38:17.000Z</time>
      </trkpt>
      <trkpt lat="45.30798" lon="4.44366">
        <ele>1235.1</ele>
        <time>2018-08-19T11:38:18.000Z</time>
      </trkpt>
      <trkpt lat="45.30798" lon="4.44366">
        <ele>1235.1</ele>
        <time>2018-08-19T11:38:19.000Z</time>
      </trkpt>
      <trkpt lat="45.30798" lon="4.44366">
        <ele>1235.1</ele>
        <time>2018-08-19T11:38:20.000Z</time>
      </trkpt>
      <trkpt lat="45.30798" lon="4.44366">
        <ele>1235.1</ele>
        <time>2018-08-19T11:38:21.000Z</time>
      </trkpt>
      <trkpt lat="45.30798" lon="4.44366">
        <ele>1235.1</ele>
        <time>2018-08-19T11:38:22.000Z</time>
      </trkpt>
      <trkpt lat="45.30798" lon="4.44366">
        <ele>1235.1</ele>
        <time>2018-08-19T11:38:23.000Z</time>
      </trkpt>
      <trkpt lat="45.30798" lon="4.44366">
        <ele>1235.1</ele>
        <time>2018-08-19T11:38:24.000Z</time>
      </trkpt>
      <trkpt lat="45.30798" lon="4.44366">
        <ele>1235.1</ele>
        <time>2018-08-19T11:38:25.000Z</time>
      </trkpt>
      <trkpt lat="45.30798" lon="4.44366">
        <ele>1235.1</ele>
        <time>2018-08-19T11:38:26.000Z</time>
      </trkpt>
      <trkpt lat="45.30798" lon="4.44366">
        <ele>1235.1</ele>
        <time>2018-08-19T11:38:27.000Z</time>
      </trkpt>
      <trkpt lat="45.30798" lon="4.44366">
        <ele>1235.1</ele>
        <time>2018-08-19T11:38:28.000Z</time>
      </trkpt>
      <trkpt lat="45.30798" lon="4.44366">
        <ele>1235.1</ele>
        <time>2018-08-19T11:38:29.000Z</time>
      </trkpt>
      <trkpt lat="45.30798" lon="4.44366">
        <ele>1235.1</ele>
        <time>2018-08-19T11:38:30.000Z</time>
      </trkpt>
      <trkpt lat="45.30798" lon="4.44366">
        <ele>1235.1</ele>
        <time>2018-08-19T11:38:31.000Z</time>
      </trkpt>
      <trkpt lat="45.30798" lon="4.44366">
        <ele>1235.1</ele>
        <time>2018-08-19T11:38:32.000Z</time>
      </trkpt>
      <trkpt lat="45.30798" lon="4.44366">
        <ele>1235.1</ele>
        <time>2018-08-19T11:38:33.000Z</time>
      </trkpt>
      <trkpt lat="45.30798" lon="4.44366">
        <ele>1235.1</ele>
        <time>2018-08-19T11:38:34.000Z</time>
      </trkpt>
      <trkpt lat="45.30798" lon="4.44366">
        <ele>1235.1</ele>
        <time>2018-08-19T11:38:35.000Z</time>
      </trkpt>
      <trkpt lat="45.30798" lon="4.44366">
        <ele>1235.1</ele>
        <time>2018-08-19T11:38:36.000Z</time>
      </trkpt>
      <trkpt lat="45.30798" lon="4.44366">
        <ele>1235.1</ele>
        <time>2018-08-19T11:38:37.000Z</time>
      </trkpt>
      <trkpt lat="45.30798" lon="4.44366">
        <ele>1235.1</ele>
        <time>2018-08-19T11:38:38.000Z</time>
      </trkpt>
      <trkpt lat="45.30798" lon="4.44366">
        <ele>1235.1</ele>
        <time>2018-08-19T11:38:39.000Z</time>
      </trkpt>
      <trkpt lat="45.30798" lon="4.44366">
        <ele>1235.1</ele>
        <time>2018-08-19T11:38:40.000Z</time>
      </trkpt>
      <trkpt lat="45.30798" lon="4.44366">
        <ele>1235.1</ele>
        <time>2018-08-19T11:38:41.000Z</time>
      </trkpt>
      <trkpt lat="45.30798" lon="4.44366">
        <ele>1235.1</ele>
        <time>2018-08-19T11:38:42.000Z</time>
      </trkpt>
      <trkpt lat="45.30798" lon="4.44366">
        <ele>1235.1</ele>
        <time>2018-08-19T11:38:43.000Z</time>
      </trkpt>
      <trkpt lat="45.30798" lon="4.44366">
        <ele>1235.1</ele>
        <time>2018-08-19T11:38:44.000Z</time>
      </trkpt>
      <trkpt lat="45.30798" lon="4.44366">
        <ele>1235.1</ele>
        <time>2018-08-19T11:38:45.000Z</time>
      </trkpt>
      <trkpt lat="45.30798" lon="4.44366">
        <ele>1235.1</ele>
        <time>2018-08-19T11:38:46.000Z</time>
      </trkpt>
      <trkpt lat="45.30798" lon="4.44366">
        <ele>1235.1</ele>
        <time>2018-08-19T11:38:47.000Z</time>
      </trkpt>
      <trkpt lat="45.30798" lon="4.44366">
        <ele>1235.1</ele>
        <time>2018-08-19T11:38:48.000Z</time>
      </trkpt>
      <trkpt lat="45.30798" lon="4.44366">
        <ele>1235.1</ele>
        <time>2018-08-19T11:38:49.000Z</time>
      </trkpt>
      <trkpt lat="45.30798" lon="4.44366">
        <ele>1235.1</ele>
        <time>2018-08-19T11:38:50.000Z</time>
      </trkpt>
      <trkpt lat="45.30798" lon="4.44366">
        <ele>1235.1</ele>
        <time>2018-08-19T11:38:51.000Z</time>
      </trkpt>
      <trkpt lat="45.30798" lon="4.44366">
        <ele>1235.1</ele>
        <time>2018-08-19T11:38:52.000Z</time>
      </trkpt>
      <trkpt lat="45.30798" lon="4.44366">
        <ele>1235.1</ele>
        <time>2018-08-19T11:38:53.000Z</time>
      </trkpt>
      <trkpt lat="45.30798" lon="4.44366">
        <ele>1235.1</ele>
        <time>2018-08-19T11:38:54.000Z</time>
      </trkpt>
      <trkpt lat="45.30798" lon="4.44366">
        <ele>1235.1</ele>
        <time>2018-08-19T11:38:55.000Z</time>
      </trkpt>
      <trkpt lat="45.30798" lon="4.44366">
        <ele>1235.1</ele>
        <time>2018-08-19T11:38:56.000Z</time>
      </trkpt>
      <trkpt lat="45.30798" lon="4.44366">
        <ele>1235.1</ele>
        <time>2018-08-19T11:38:57.000Z</time>
      </trkpt>
      <trkpt lat="45.30798" lon="4.44366">
        <ele>1235.1</ele>
        <time>2018-08-19T11:38:58.000Z</time>
      </trkpt>
      <trkpt lat="45.30798" lon="4.44366">
        <ele>1235.1</ele>
        <time>2018-08-19T11:38:59.000Z</time>
      </trkpt>
      <trkpt lat="45.30798" lon="4.44366">
        <ele>1235.1</ele>
        <time>2018-08-19T11:39:00.000Z</time>
      </trkpt>
      <trkpt lat="45.30798" lon="4.44366">
        <ele>1235.1</ele>
        <time>2018-08-19T11:39:01.000Z</time>
      </trkpt>
      <trkpt lat="45.30798" lon="4.44366">
        <ele>1235.1</ele>
        <time>2018-08-19T11:39:02.000Z</time>
      </trkpt>
      <trkpt lat="45.30798" lon="4.44366">
        <ele>1235.1</ele>
        <time>2018-08-19T11:39:03.000Z</time>
      </trkpt>
      <trkpt lat="45.30798" lon="4.44366">
        <ele>1235.1</ele>
        <time>2018-08-19T11:39:04.000Z</time>
      </trkpt>
      <trkpt lat="45.30798" lon="4.44366">
        <ele>1235.1</ele>
        <time>2018-08-19T11:39:05.000Z</time>
      </trkpt>
      <trkpt lat="45.30798" lon="4.44366">
        <ele>1235.1</ele>
        <time>2018-08-19T11:39:06.000Z</time>
      </trkpt>
      <trkpt lat="45.30798" lon="4.44366">
        <ele>1235.1</ele>
        <time>2018-08-19T11:39:07.000Z</time>
      </trkpt>
      <trkpt lat="45.30798" lon="4.44366">
        <ele>1235.1</ele>
        <time>2018-08-19T11:39:08.000Z</time>
      </trkpt>
      <trkpt lat="45.30798" lon="4.44366">
        <ele>1235.1</ele>
        <time>2018-08-19T11:39:09.000Z</time>
      </trkpt>
      <trkpt lat="45.30798" lon="4.44366">
        <ele>1235.1</ele>
        <time>2018-08-19T11:39:10.000Z</time>
      </trkpt>
      <trkpt lat="45.30798" lon="4.44366">
        <ele>1235.1</ele>
        <time>2018-08-19T11:39:11.000Z</time>
      </trkpt>
      <trkpt lat="45.30798" lon="4.44366">
        <ele>1235.1</ele>
        <time>2018-08-19T11:39:12.000Z</time>
      </trkpt>
      <trkpt lat="45.30798" lon="4.44366">
        <ele>1235.1</ele>
        <time>2018-08-19T11:39:13.000Z</time>
      </trkpt>
      <trkpt lat="45.30798" lon="4.44366">
        <ele>1235.1</ele>
        <time>2018-08-19T11:39:14.000Z</time>
      </trkpt>
      <trkpt lat="45.30798" lon="4.44366">
        <ele>1235.1</ele>
        <time>2018-08-19T11:39:15.000Z</time>
      </trkpt>
      <trkpt lat="45.30798" lon="4.44366">
        <ele>1235.1</ele>
        <time>2018-08-19T11:39:16.000Z</time>
      </trkpt>
      <trkpt lat="45.30798" lon="4.44366">
        <ele>1235.1</ele>
        <time>2018-08-19T11:39:17.000Z</time>
      </trkpt>
      <trkpt lat="45.30798" lon="4.44366">
        <ele>1235.1</ele>
        <time>2018-08-19T11:39:18.000Z</time>
      </trkpt>
      <trkpt lat="45.30798" lon="4.44366">
        <ele>1235.1</ele>
        <time>2018-08-19T11:39:19.000Z</time>
      </trkpt>
      <trkpt lat="45.30798" lon="4.44366">
        <ele>1235.1</ele>
        <time>2018-08-19T11:39:20.000Z</time>
      </trkpt>
      <trkpt lat="45.30798" lon="4.44366">
        <ele>1235.1</ele>
        <time>2018-08-19T11:39:21.000Z</time>
      </trkpt>
      <trkpt lat="45.30798" lon="4.44366">
        <ele>1235.1</ele>
        <time>2018-08-19T11:39:22.000Z</time>
      </trkpt>
      <trkpt lat="45.30798" lon="4.44366">
        <ele>1235.1</ele>
        <time>2018-08-19T11:39:23.000Z</time>
      </trkpt>
      <trkpt lat="45.30798" lon="4.44366">
        <ele>1235.1</ele>
        <time>2018-08-19T11:39:24.000Z</time>
      </trkpt>
      <trkpt lat="45.30798" lon="4.44366">
        <ele>1235.1</ele>
        <time>2018-08-19T11:39:25.000Z</time>
      </trkpt>
      <trkpt lat="45.30798" lon="4.44366">
        <ele>1235.1</ele>
        <time>2018-08-19T11:39:26.000Z</time>
      </trkpt>
      <trkpt lat="45.30798" lon="4.44366">
        <ele>1235.1</ele>
        <time>2018-08-19T11:39:27.000Z</time>
      </trkpt>
      <trkpt lat="45.30798" lon="4.44366">
        <ele>1235.1</ele>
        <time>2018-08-19T11:39:28.000Z</time>
      </trkpt>
      <trkpt lat="45.30798" lon="4.44366">
        <ele>1235.1</ele>
        <time>2018-08-19T11:39:29.000Z</time>
      </trkpt>
      <trkpt lat="45.30798" lon="4.44366">
        <ele>1235.1</ele>
        <time>2018-08-19T11:39:30.000Z</time>
      </trkpt>
      <trkpt lat="45.30798" lon="4.44366">
        <ele>1235.1</ele>
        <time>2018-08-19T11:39:31.000Z</time>
      </trkpt>
      <trkpt lat="45.30798" lon="4.44366">
        <ele>1235.1</ele>
        <time>2018-08-19T11:39:32.000Z</time>
      </trkpt>
      <trkpt lat="45.30798" lon="4.44366">
        <ele>1235.1</ele>
        <time>2018-08-19T11:39:33.000Z</time>
      </trkpt>
      <trkpt lat="45.30798" lon="4.44366">
        <ele>1235.1</ele>
        <time>2018-08-19T11:39:34.000Z</time>
      </trkpt>
      <trkpt lat="45.30798" lon="4.44366">
        <ele>1235.1</ele>
        <time>2018-08-19T11:39:35.000Z</time>
      </trkpt>
      <trkpt lat="45.30798" lon="4.44366">
        <ele>1235.1</ele>
        <time>2018-08-19T11:39:36.000Z</time>
      </trkpt>
      <trkpt lat="45.30798" lon="4.44366">
        <ele>1235.1</ele>
        <time>2018-08-19T11:39:37.000Z</time>
      </trkpt>
      <trkpt lat="45.30798" lon="4.44366">
        <ele>1235.1</ele>
        <time>2018-08-19T11:39:38.000Z</time>
      </trkpt>
      <trkpt lat="45.30798" lon="4.44366">
        <ele>1235.1</ele>
        <time>2018-08-19T11:39:39.000Z</time>
      </trkpt>
      <trkpt lat="45.30798" lon="4.44366">
        <ele>1235.1</ele>
        <time>2018-08-19T11:39:40.000Z</time>
      </trkpt>
      <trkpt lat="45.30798" lon="4.44366">
        <ele>1235.1</ele>
        <time>2018-08-19T11:39:41.000Z</time>
      </trkpt>
      <trkpt lat="45.30798" lon="4.44366">
        <ele>1235.1</ele>
        <time>2018-08-19T11:39:42.000Z</time>
      </trkpt>
      <trkpt lat="45.30798" lon="4.44366">
        <ele>1235.1</ele>
        <time>2018-08-19T11:39:43.000Z</time>
      </trkpt>
      <trkpt lat="45.30798" lon="4.44366">
        <ele>1235.1</ele>
        <time>2018-08-19T11:39:44.000Z</time>
      </trkpt>
      <trkpt lat="45.30798" lon="4.44366">
        <ele>1235.1</ele>
        <time>2018-08-19T11:39:45.000Z</time>
      </trkpt>
      <trkpt lat="45.30798" lon="4.44366">
        <ele>1235.1</ele>
        <time>2018-08-19T11:39:46.000Z</time>
      </trkpt>
      <trkpt lat="45.30798" lon="4.44366">
        <ele>1235.1</ele>
        <time>2018-08-19T11:39:47.000Z</time>
      </trkpt>
      <trkpt lat="45.30798" lon="4.44366">
        <ele>1235.1</ele>
        <time>2018-08-19T11:39:48.000Z</time>
      </trkpt>
      <trkpt lat="45.30798" lon="4.44366">
        <ele>1235.1</ele>
        <time>2018-08-19T11:39:49.000Z</time>
      </trkpt>
      <trkpt lat="45.30798" lon="4.44366">
        <ele>1235.1</ele>
        <time>2018-08-19T11:39:50.000Z</time>
      </trkpt>
      <trkpt lat="45.30798" lon="4.44366">
        <ele>1235.1</ele>
        <time>2018-08-19T11:39:51.000Z</time>
      </trkpt>
      <trkpt lat="45.30798" lon="4.44366">
        <ele>1235.1</ele>
        <time>2018-08-19T11:39:52.000Z</time>
      </trkpt>
      <trkpt lat="45.30798" lon="4.44366">
        <ele>1235.1</ele>
        <time>2018-08-19T11:39:53.000Z</time>
      </trkpt>
      <trkpt lat="45.30798" lon="4.44366">
        <ele>1235.1</ele>
        <time>2018-08-19T11:39:54.000Z</time>
      </trkpt>
      <trkpt lat="45.30798" lon="4.44366">
        <ele>1235.1</ele>
        <time>2018-08-19T11:39:55.000Z</time>
      </trkpt>
      <trkpt lat="45.30798" lon="4.44366">
        <ele>1235.1</ele>
        <time>2018-08-19T11:39:56.000Z</time>
      </trkpt>
      <trkpt lat="45.30798" lon="4.44366">
        <ele>1235.1</ele>
        <time>2018-08-19T11:39:57.000Z</time>
      </trkpt>
      <trkpt lat="45.30798" lon="4.44366">
        <ele>1235.1</ele>
        <time>2018-08-19T11:39:58.000Z</time>
      </trkpt>
      <trkpt lat="45.30798" lon="4.44366">
        <ele>1235.1</ele>
        <time>2018-08-19T11:39:59.000Z</time>
      </trkpt>
      <trkpt lat="45.30798" lon="4.44366">
        <ele>1235.1</ele>
        <time>2018-08-19T11:40:00.000Z</time>
      </trkpt>
      <trkpt lat="45.30798" lon="4.44366">
        <ele>1235.1</ele>
        <time>2018-08-19T11:40:01.000Z</time>
      </trkpt>
      <trkpt lat="45.30798" lon="4.44366">
        <ele>1235.1</ele>
        <time>2018-08-19T11:40:02.000Z</time>
      </trkpt>
      <trkpt lat="45.30798" lon="4.44366">
        <ele>1235.1</ele>
        <time>2018-08-19T11:40:03.000Z</time>
      </trkpt>
      <trkpt lat="45.30798" lon="4.44366">
        <ele>1235.1</ele>
        <time>2018-08-19T11:40:04.000Z</time>
      </trkpt>
      <trkpt lat="45.30798" lon="4.44366">
        <ele>1235.1</ele>
        <time>2018-08-19T11:40:05.000Z</time>
      </trkpt>
      <trkpt lat="45.30798" lon="4.44366">
        <ele>1235.1</ele>
        <time>2018-08-19T11:40:06.000Z</time>
      </trkpt>
      <trkpt lat="45.30798" lon="4.44366">
        <ele>1235.1</ele>
        <time>2018-08-19T11:40:07.000Z</time>
      </trkpt>
      <trkpt lat="45.30798" lon="4.44366">
        <ele>1235.1</ele>
        <time>2018-08-19T11:40:08.000Z</time>
      </trkpt>
      <trkpt lat="45.30798" lon="4.44366">
        <ele>1235.1</ele>
        <time>2018-08-19T11:40:09.000Z</time>
      </trkpt>
      <trkpt lat="45.30798" lon="4.44366">
        <ele>1235.1</ele>
        <time>2018-08-19T11:40:10.000Z</time>
      </trkpt>
      <trkpt lat="45.30798" lon="4.44366">
        <ele>1235.1</ele>
        <time>2018-08-19T11:40:11.000Z</time>
      </trkpt>
      <trkpt lat="45.30798" lon="4.44366">
        <ele>1235.1</ele>
        <time>2018-08-19T11:40:12.000Z</time>
      </trkpt>
      <trkpt lat="45.30798" lon="4.44366">
        <ele>1235.1</ele>
        <time>2018-08-19T11:40:13.000Z</time>
      </trkpt>
      <trkpt lat="45.30798" lon="4.44366">
        <ele>1235.1</ele>
        <time>2018-08-19T11:40:14.000Z</time>
      </trkpt>
      <trkpt lat="45.30798" lon="4.44366">
        <ele>1235.1</ele>
        <time>2018-08-19T11:40:15.000Z</time>
      </trkpt>
      <trkpt lat="45.30798" lon="4.44366">
        <ele>1235.1</ele>
        <time>2018-08-19T11:40:16.000Z</time>
      </trkpt>
      <trkpt lat="45.30798" lon="4.44366">
        <ele>1235.1</ele>
        <time>2018-08-19T11:40:17.000Z</time>
      </trkpt>
      <trkpt lat="45.30798" lon="4.44366">
        <ele>1235.1</ele>
        <time>2018-08-19T11:40:18.000Z</time>
      </trkpt>
      <trkpt lat="45.30798" lon="4.44366">
        <ele>1235.1</ele>
        <time>2018-08-19T11:40:19.000Z</time>
      </trkpt>
      <trkpt lat="45.30798" lon="4.44366">
        <ele>1235.1</ele>
        <time>2018-08-19T11:40:20.000Z</time>
      </trkpt>
      <trkpt lat="45.30798" lon="4.44366">
        <ele>1235.1</ele>
        <time>2018-08-19T11:40:21.000Z</time>
      </trkpt>
      <trkpt lat="45.30798" lon="4.44366">
        <ele>1235.1</ele>
        <time>2018-08-19T11:40:22.000Z</time>
      </trkpt>
      <trkpt lat="45.30798" lon="4.44366">
        <ele>1235.1</ele>
        <time>2018-08-19T11:40:23.000Z</time>
      </trkpt>
      <trkpt lat="45.30798" lon="4.44366">
        <ele>1235.1</ele>
        <time>2018-08-19T11:40:24.000Z</time>
      </trkpt>
      <trkpt lat="45.30798" lon="4.44366">
        <ele>1235.1</ele>
        <time>2018-08-19T11:40:25.000Z</time>
      </trkpt>
      <trkpt lat="45.30798" lon="4.44366">
        <ele>1235.1</ele>
        <time>2018-08-19T11:40:26.000Z</time>
      </trkpt>
      <trkpt lat="45.30798" lon="4.44366">
        <ele>1235.1</ele>
        <time>2018-08-19T11:40:27.000Z</time>
      </trkpt>
      <trkpt lat="45.30798" lon="4.44366">
        <ele>1235.1</ele>
        <time>2018-08-19T11:40:28.000Z</time>
      </trkpt>
      <trkpt lat="45.30798" lon="4.44366">
        <ele>1235.1</ele>
        <time>2018-08-19T11:40:29.000Z</time>
      </trkpt>
      <trkpt lat="45.30798" lon="4.44366">
        <ele>1235.1</ele>
        <time>2018-08-19T11:40:30.000Z</time>
      </trkpt>
      <trkpt lat="45.30798" lon="4.44366">
        <ele>1235.1</ele>
        <time>2018-08-19T11:40:31.000Z</time>
      </trkpt>
      <trkpt lat="45.30798" lon="4.44366">
        <ele>1235.1</ele>
        <time>2018-08-19T11:40:32.000Z</time>
      </trkpt>
      <trkpt lat="45.30798" lon="4.44366">
        <ele>1235.1</ele>
        <time>2018-08-19T11:40:33.000Z</time>
      </trkpt>
      <trkpt lat="45.30798" lon="4.44366">
        <ele>1235.1</ele>
        <time>2018-08-19T11:40:34.000Z</time>
      </trkpt>
      <trkpt lat="45.30798" lon="4.44366">
        <ele>1235.1</ele>
        <time>2018-08-19T11:40:35.000Z</time>
      </trkpt>
      <trkpt lat="45.30798" lon="4.44366">
        <ele>1235.1</ele>
        <time>2018-08-19T11:40:36.000Z</time>
      </trkpt>
      <trkpt lat="45.30798" lon="4.44366">
        <ele>1235.1</ele>
        <time>2018-08-19T11:40:37.000Z</time>
      </trkpt>
      <trkpt lat="45.30798" lon="4.44366">
        <ele>1235.1</ele>
        <time>2018-08-19T11:40:38.000Z</time>
      </trkpt>
      <trkpt lat="45.30798" lon="4.44366">
        <ele>1235.1</ele>
        <time>2018-08-19T11:40:39.000Z</time>
      </trkpt>
      <trkpt lat="45.30798" lon="4.44366">
        <ele>1235.1</ele>
        <time>2018-08-19T11:40:40.000Z</time>
      </trkpt>
      <trkpt lat="45.30798" lon="4.44366">
        <ele>1235.1</ele>
        <time>2018-08-19T11:40:41.000Z</time>
      </trkpt>
      <trkpt lat="45.30798" lon="4.44366">
        <ele>1235.1</ele>
        <time>2018-08-19T11:40:42.000Z</time>
      </trkpt>
      <trkpt lat="45.30798" lon="4.44366">
        <ele>1235.1</ele>
        <time>2018-08-19T11:40:43.000Z</time>
      </trkpt>
      <trkpt lat="45.30798" lon="4.44366">
        <ele>1235.1</ele>
        <time>2018-08-19T11:40:44.000Z</time>
      </trkpt>
      <trkpt lat="45.30798" lon="4.44366">
        <ele>1235.1</ele>
        <time>2018-08-19T11:40:45.000Z</time>
      </trkpt>
      <trkpt lat="45.30798" lon="4.44366">
        <ele>1235.1</ele>
        <time>2018-08-19T11:40:46.000Z</time>
      </trkpt>
      <trkpt lat="45.30798" lon="4.44366">
        <ele>1235.1</ele>
        <time>2018-08-19T11:40:47.000Z</time>
      </trkpt>
      <trkpt lat="45.30798" lon="4.44366">
        <ele>1235.1</ele>
        <time>2018-08-19T11:40:48.000Z</time>
      </trkpt>
      <trkpt lat="45.30798" lon="4.44366">
        <ele>1235.1</ele>
        <time>2018-08-19T11:40:49.000Z</time>
      </trkpt>
      <trkpt lat="45.30798" lon="4.44366">
        <ele>1235.1</ele>
        <time>2018-08-19T11:40:50.000Z</time>
      </trkpt>
      <trkpt lat="45.30798" lon="4.44366">
        <ele>1235.1</ele>
        <time>2018-08-19T11:40:51.000Z</time>
      </trkpt>
      <trkpt lat="45.30798" lon="4.44366">
        <ele>1235.1</ele>
        <time>2018-08-19T11:40:52.000Z</time>
      </trkpt>
      <trkpt lat="45.30798" lon="4.44366">
        <ele>1235.1</ele>
        <time>2018-08-19T11:40:53.000Z</time>
      </trkpt>
      <trkpt lat="45.30798" lon="4.44366">
        <ele>1235.1</ele>
        <time>2018-08-19T11:40:54.000Z</time>
      </trkpt>
      <trkpt lat="45.30798" lon="4.44366">
        <ele>1235.1</ele>
        <time>2018-08-19T11:40:55.000Z</time>
      </trkpt>
      <trkpt lat="45.30798" lon="4.44366">
        <ele>1235.1</ele>
        <time>2018-08-19T11:40:56.000Z</time>
      </trkpt>
      <trkpt lat="45.30798" lon="4.44366">
        <ele>1235.1</ele>
        <time>2018-08-19T11:40:57.000Z</time>
      </trkpt>
      <trkpt lat="45.30798" lon="4.44366">
        <ele>1235.1</ele>
        <time>2018-08-19T11:40:58.000Z</time>
      </trkpt>
      <trkpt lat="45.30798" lon="4.44366">
        <ele>1235.1</ele>
        <time>2018-08-19T11:40:59.000Z</time>
      </trkpt>
      <trkpt lat="45.30798" lon="4.44366">
        <ele>1235.1</ele>
        <time>2018-08-19T11:41:00.000Z</time>
      </trkpt>
      <trkpt lat="45.30798" lon="4.44366">
        <ele>1235.1</ele>
        <time>2018-08-19T11:41:01.000Z</time>
      </trkpt>
      <trkpt lat="45.30798" lon="4.44366">
        <ele>1235.1</ele>
        <time>2018-08-19T11:41:02.000Z</time>
      </trkpt>
      <trkpt lat="45.30798" lon="4.44366">
        <ele>1235.1</ele>
        <time>2018-08-19T11:41:03.000Z</time>
      </trkpt>
      <trkpt lat="45.30798" lon="4.44366">
        <ele>1235.1</ele>
        <time>2018-08-19T11:41:04.000Z</time>
      </trkpt>
      <trkpt lat="45.30798" lon="4.44366">
        <ele>1235.1</ele>
        <time>2018-08-19T11:41:05.000Z</time>
      </trkpt>
      <trkpt lat="45.30798" lon="4.44366">
        <ele>1235.1</ele>
        <time>2018-08-19T11:41:06.000Z</time>
      </trkpt>
      <trkpt lat="45.30798" lon="4.44366">
        <ele>1235.1</ele>
        <time>2018-08-19T11:41:07.000Z</time>
      </trkpt>
      <trkpt lat="45.30798" lon="4.44366">
        <ele>1235.1</ele>
        <time>2018-08-19T11:41:08.000Z</time>
      </trkpt>
      <trkpt lat="45.30798" lon="4.44366">
        <ele>1235.1</ele>
        <time>2018-08-19T11:41:09.000Z</time>
      </trkpt>
      <trkpt lat="45.30798" lon="4.44366">
        <ele>1235.1</ele>
        <time>2018-08-19T11:41:10.000Z</time>
      </trkpt>
      <trkpt lat="45.30798" lon="4.44366">
        <ele>1235.1</ele>
        <time>2018-08-19T11:41:11.000Z</time>
      </trkpt>
      <trkpt lat="45.30798" lon="4.44366">
        <ele>1235.1</ele>
        <time>2018-08-19T11:41:12.000Z</time>
      </trkpt>
      <trkpt lat="45.30798" lon="4.44366">
        <ele>1235.1</ele>
        <time>2018-08-19T11:41:13.000Z</time>
      </trkpt>
      <trkpt lat="45.30798" lon="4.44365">
        <ele>1235.1</ele>
        <time>2018-08-19T11:41:14.000Z</time>
      </trkpt>
      <trkpt lat="45.30797" lon="4.44365">
        <ele>1235.1</ele>
        <time>2018-08-19T11:41:15.000Z</time>
      </trkpt>
      <trkpt lat="45.30797" lon="4.44363">
        <ele>1235</ele>
        <time>2018-08-19T11:41:16.000Z</time>
      </trkpt>
      <trkpt lat="45.30796" lon="4.44363">
        <ele>1235</ele>
        <time>2018-08-19T11:41:17.000Z</time>
      </trkpt>
      <trkpt lat="45.30796" lon="4.44362">
        <ele>1235</ele>
        <time>2018-08-19T11:41:18.000Z</time>
      </trkpt>
      <trkpt lat="45.30795" lon="4.44361">
        <ele>1235</ele>
        <time>2018-08-19T11:41:19.000Z</time>
      </trkpt>
      <trkpt lat="45.30794" lon="4.44361">
        <ele>1235</ele>
        <time>2018-08-19T11:41:20.000Z</time>
      </trkpt>
      <trkpt lat="45.30794" lon="4.44361">
        <ele>1235</ele>
        <time>2018-08-19T11:41:21.000Z</time>
      </trkpt>
      <trkpt lat="45.30793" lon="4.44361">
        <ele>1235</ele>
        <time>2018-08-19T11:41:22.000Z</time>
      </trkpt>
      <trkpt lat="45.30792" lon="4.44361">
        <ele>1235</ele>
        <time>2018-08-19T11:41:23.000Z</time>
      </trkpt>
      <trkpt lat="45.30791" lon="4.44361">
        <ele>1235</ele>
        <time>2018-08-19T11:41:24.000Z</time>
      </trkpt>
      <trkpt lat="45.3079" lon="4.44361">
        <ele>1235</ele>
        <time>2018-08-19T11:41:25.000Z</time>
      </trkpt>
      <trkpt lat="45.30789" lon="4.44361">
        <ele>1235</ele>
        <time>2018-08-19T11:41:26.000Z</time>
      </trkpt>
      <trkpt lat="45.30788" lon="4.44361">
        <ele>1235</ele>
        <time>2018-08-19T11:41:27.000Z</time>
      </trkpt>
      <trkpt lat="45.30787" lon="4.44361">
        <ele>1235</ele>
        <time>2018-08-19T11:41:28.000Z</time>
      </trkpt>
      <trkpt lat="45.30786" lon="4.44361">
        <ele>1235</ele>
        <time>2018-08-19T11:41:29.000Z</time>
      </trkpt>
      <trkpt lat="45.30785" lon="4.44361">
        <ele>1235.1</ele>
        <time>2018-08-19T11:41:30.000Z</time>
      </trkpt>
      <trkpt lat="45.30784" lon="4.44362">
        <ele>1235.1</ele>
        <time>2018-08-19T11:41:31.000Z</time>
      </trkpt>
      <trkpt lat="45.30783" lon="4.44362">
        <ele>1235.1</ele>
        <time>2018-08-19T11:41:32.000Z</time>
      </trkpt>
      <trkpt lat="45.30782" lon="4.44362">
        <ele>1235.1</ele>
        <time>2018-08-19T11:41:33.000Z</time>
      </trkpt>
      <trkpt lat="45.30781" lon="4.44362">
        <ele>1235.1</ele>
        <time>2018-08-19T11:41:34.000Z</time>
      </trkpt>
      <trkpt lat="45.3078" lon="4.44362">
        <ele>1235.1</ele>
        <time>2018-08-19T11:41:35.000Z</time>
      </trkpt>
      <trkpt lat="45.3078" lon="4.44362">
        <ele>1235.1</ele>
        <time>2018-08-19T11:41:36.000Z</time>
      </trkpt>
      <trkpt lat="45.30779" lon="4.44361">
        <ele>1235.1</ele>
        <time>2018-08-19T11:41:37.000Z</time>
      </trkpt>
      <trkpt lat="45.30778" lon="4.4436">
        <ele>1235</ele>
        <time>2018-08-19T11:41:38.000Z</time>
      </trkpt>
      <trkpt lat="45.30778" lon="4.44358">
        <ele>1235</ele>
        <time>2018-08-19T11:41:39.000Z</time>
      </trkpt>
      <trkpt lat="45.30778" lon="4.44357">
        <ele>1234.9</ele>
        <time>2018-08-19T11:41:40.000Z</time>
      </trkpt>
      <trkpt lat="45.30778" lon="4.44356">
        <ele>1234.9</ele>
        <time>2018-08-19T11:41:41.000Z</time>
      </trkpt>
      <trkpt lat="45.30779" lon="4.44354">
        <ele>1234.8</ele>
        <time>2018-08-19T11:41:42.000Z</time>
      </trkpt>
      <trkpt lat="45.30779" lon="4.44353">
        <ele>1234.8</ele>
        <time>2018-08-19T11:41:43.000Z</time>
      </trkpt>
      <trkpt lat="45.30779" lon="4.44351">
        <ele>1234.7</ele>
        <time>2018-08-19T11:41:44.000Z</time>
      </trkpt>
      <trkpt lat="45.3078" lon="4.4435">
        <ele>1234.6</ele>
        <time>2018-08-19T11:41:45.000Z</time>
      </trkpt>
      <trkpt lat="45.3078" lon="4.44349">
        <ele>1234.6</ele>
        <time>2018-08-19T11:41:46.000Z</time>
      </trkpt>
      <trkpt lat="45.3078" lon="4.44347">
        <ele>1234.6</ele>
        <time>2018-08-19T11:41:47.000Z</time>
      </trkpt>
      <trkpt lat="45.3078" lon="4.44346">
        <ele>1234.5</ele>
        <time>2018-08-19T11:41:48.000Z</time>
      </trkpt>
      <trkpt lat="45.3078" lon="4.44345">
        <ele>1234.5</ele>
        <time>2018-08-19T11:41:49.000Z</time>
      </trkpt>
      <trkpt lat="45.3078" lon="4.44344">
        <ele>1234.4</ele>
        <time>2018-08-19T11:41:50.000Z</time>
      </trkpt>
      <trkpt lat="45.30781" lon="4.44343">
        <ele>1234.4</ele>
        <time>2018-08-19T11:41:51.000Z</time>
      </trkpt>
      <trkpt lat="45.30781" lon="4.44342">
        <ele>1234.3</ele>
        <time>2018-08-19T11:41:52.000Z</time>
      </trkpt>
      <trkpt lat="45.30782" lon="4.4434">
        <ele>1234.3</ele>
        <time>2018-08-19T11:41:53.000Z</time>
      </trkpt>
      <trkpt lat="45.30782" lon="4.44339">
        <ele>1234.2</ele>
        <time>2018-08-19T11:41:54.000Z</time>
      </trkpt>
      <trkpt lat="45.30783" lon="4.44338">
        <ele>1234.2</ele>
        <time>2018-08-19T11:41:55.000Z</time>
      </trkpt>
      <trkpt lat="45.30783" lon="4.44337">
        <ele>1234.1</ele>
        <time>2018-08-19T11:41:56.000Z</time>
      </trkpt>
      <trkpt lat="45.30783" lon="4.44336">
        <ele>1234.1</ele>
        <time>2018-08-19T11:41:57.000Z</time>
      </trkpt>
      <trkpt lat="45.30784" lon="4.44335">
        <ele>1234.1</ele>
        <time>2018-08-19T11:41:58.000Z</time>
      </trkpt>
      <trkpt lat="45.30784" lon="4.44335">
        <ele>1234</ele>
        <time>2018-08-19T11:41:59.000Z</time>
      </trkpt>
      <trkpt lat="45.30785" lon="4.44334">
        <ele>1234</ele>
        <time>2018-08-19T11:42:00.000Z</time>
      </trkpt>
      <trkpt lat="45.30785" lon="4.44333">
        <ele>1234</ele>
        <time>2018-08-19T11:42:01.000Z</time>
      </trkpt>
      <trkpt lat="45.30785" lon="4.44332">
        <ele>1233.9</ele>
        <time>2018-08-19T11:42:02.000Z</time>
      </trkpt>
      <trkpt lat="45.30786" lon="4.44331">
        <ele>1233.9</ele>
        <time>2018-08-19T11:42:03.000Z</time>
      </trkpt>
      <trkpt lat="45.30786" lon="4.4433">
        <ele>1233.8</ele>
        <time>2018-08-19T11:42:04.000Z</time>
      </trkpt>
      <trkpt lat="45.30786" lon="4.44328">
        <ele>1233.7</ele>
        <time>2018-08-19T11:42:05.000Z</time>
      </trkpt>
      <trkpt lat="45.30786" lon="4.44327">
        <ele>1233.7</ele>
        <time>2018-08-19T11:42:06.000Z</time>
      </trkpt>
      <trkpt lat="45.30787" lon="4.44325">
        <ele>1233.6</ele>
        <time>2018-08-19T11:42:07.000Z</time>
      </trkpt>
      <trkpt lat="45.30787" lon="4.44324">
        <ele>1233.5</ele>
        <time>2018-08-19T11:42:08.000Z</time>
      </trkpt>
      <trkpt lat="45.30787" lon="4.44322">
        <ele>1233.4</ele>
        <time>2018-08-19T11:42:09.000Z</time>
      </trkpt>
      <trkpt lat="45.30787" lon="4.44321">
        <ele>1233.3</ele>
        <time>2018-08-19T11:42:10.000Z</time>
      </trkpt>
      <trkpt lat="45.30787" lon="4.44319">
        <ele>1233.2</ele>
        <time>2018-08-19T11:42:11.000Z</time>
      </trkpt>
      <trkpt lat="45.30787" lon="4.44317">
        <ele>1233.1</ele>
        <time>2018-08-19T11:42:12.000Z</time>
      </trkpt>
      <trkpt lat="45.30788" lon="4.44316">
        <ele>1233.1</ele>
        <time>2018-08-19T11:42:13.000Z</time>
      </trkpt>
      <trkpt lat="45.30788" lon="4.44314">
        <ele>1233</ele>
        <time>2018-08-19T11:42:14.000Z</time>
      </trkpt>
      <trkpt lat="45.30788" lon="4.44313">
        <ele>1232.9</ele>
        <time>2018-08-19T11:42:15.000Z</time>
      </trkpt>
      <trkpt lat="45.30788" lon="4.44311">
        <ele>1232.8</ele>
        <time>2018-08-19T11:42:16.000Z</time>
      </trkpt>
      <trkpt lat="45.30789" lon="4.4431">
        <ele>1232.7</ele>
        <time>2018-08-19T11:42:17.000Z</time>
      </trkpt>
      <trkpt lat="45.30789" lon="4.44308">
        <ele>1232.6</ele>
        <time>2018-08-19T11:42:18.000Z</time>
      </trkpt>
      <trkpt lat="45.30789" lon="4.44307">
        <ele>1232.6</ele>
        <time>2018-08-19T11:42:19.000Z</time>
      </trkpt>
      <trkpt lat="45.30789" lon="4.44305">
        <ele>1232.5</ele>
        <time>2018-08-19T11:42:20.000Z</time>
      </trkpt>
      <trkpt lat="45.3079" lon="4.44304">
        <ele>1232.4</ele>
        <time>2018-08-19T11:42:21.000Z</time>
      </trkpt>
      <trkpt lat="45.3079" lon="4.44302">
        <ele>1232.3</ele>
        <time>2018-08-19T11:42:22.000Z</time>
      </trkpt>
      <trkpt lat="45.3079" lon="4.44301">
        <ele>1232.2</ele>
        <time>2018-08-19T11:42:23.000Z</time>
      </trkpt>
      <trkpt lat="45.3079" lon="4.44299">
        <ele>1232.2</ele>
        <time>2018-08-19T11:42:24.000Z</time>
      </trkpt>
      <trkpt lat="45.3079" lon="4.44298">
        <ele>1232.1</ele>
        <time>2018-08-19T11:42:25.000Z</time>
      </trkpt>
      <trkpt lat="45.30791" lon="4.44296">
        <ele>1232</ele>
        <time>2018-08-19T11:42:26.000Z</time>
      </trkpt>
      <trkpt lat="45.30791" lon="4.44295">
        <ele>1231.9</ele>
        <time>2018-08-19T11:42:27.000Z</time>
      </trkpt>
      <trkpt lat="45.30791" lon="4.44293">
        <ele>1231.8</ele>
        <time>2018-08-19T11:42:28.000Z</time>
      </trkpt>
      <trkpt lat="45.30791" lon="4.44292">
        <ele>1231.7</ele>
        <time>2018-08-19T11:42:29.000Z</time>
      </trkpt>
      <trkpt lat="45.30792" lon="4.4429">
        <ele>1231.7</ele>
        <time>2018-08-19T11:42:30.000Z</time>
      </trkpt>
      <trkpt lat="45.30792" lon="4.44289">
        <ele>1231.6</ele>
        <time>2018-08-19T11:42:31.000Z</time>
      </trkpt>
      <trkpt lat="45.30792" lon="4.44287">
        <ele>1231.5</ele>
        <time>2018-08-19T11:42:32.000Z</time>
      </trkpt>
      <trkpt lat="45.30792" lon="4.44286">
        <ele>1231.4</ele>
        <time>2018-08-19T11:42:33.000Z</time>
      </trkpt>
      <trkpt lat="45.30793" lon="4.44284">
        <ele>1231.4</ele>
        <time>2018-08-19T11:42:34.000Z</time>
      </trkpt>
      <trkpt lat="45.30793" lon="4.44283">
        <ele>1231.3</ele>
        <time>2018-08-19T11:42:35.000Z</time>
      </trkpt>
      <trkpt lat="45.30793" lon="4.44282">
        <ele>1231.2</ele>
        <time>2018-08-19T11:42:36.000Z</time>
      </trkpt>
      <trkpt lat="45.30793" lon="4.4428">
        <ele>1231.1</ele>
        <time>2018-08-19T11:42:37.000Z</time>
      </trkpt>
      <trkpt lat="45.30793" lon="4.44279">
        <ele>1231</ele>
        <time>2018-08-19T11:42:38.000Z</time>
      </trkpt>
      <trkpt lat="45.30793" lon="4.44277">
        <ele>1231</ele>
        <time>2018-08-19T11:42:39.000Z</time>
      </trkpt>
      <trkpt lat="45.30793" lon="4.44276">
        <ele>1230.9</ele>
        <time>2018-08-19T11:42:40.000Z</time>
      </trkpt>
      <trkpt lat="45.30794" lon="4.44275">
        <ele>1230.8</ele>
        <time>2018-08-19T11:42:41.000Z</time>
      </trkpt>
      <trkpt lat="45.30794" lon="4.44273">
        <ele>1230.7</ele>
        <time>2018-08-19T11:42:42.000Z</time>
      </trkpt>
      <trkpt lat="45.30794" lon="4.44272">
        <ele>1230.7</ele>
        <time>2018-08-19T11:42:43.000Z</time>
      </trkpt>
      <trkpt lat="45.30794" lon="4.44271">
        <ele>1230.6</ele>
        <time>2018-08-19T11:42:44.000Z</time>
      </trkpt>
      <trkpt lat="45.30794" lon="4.44269">
        <ele>1230.5</ele>
        <time>2018-08-19T11:42:45.000Z</time>
      </trkpt>
      <trkpt lat="45.30794" lon="4.44268">
        <ele>1230.4</ele>
        <time>2018-08-19T11:42:46.000Z</time>
      </trkpt>
      <trkpt lat="45.30794" lon="4.44267">
        <ele>1230.4</ele>
        <time>2018-08-19T11:42:47.000Z</time>
      </trkpt>
      <trkpt lat="45.30794" lon="4.44265">
        <ele>1230.3</ele>
        <time>2018-08-19T11:42:48.000Z</time>
      </trkpt>
      <trkpt lat="45.30795" lon="4.44264">
        <ele>1230.2</ele>
        <time>2018-08-19T11:42:49.000Z</time>
      </trkpt>
      <trkpt lat="45.30795" lon="4.44263">
        <ele>1230.1</ele>
        <time>2018-08-19T11:42:50.000Z</time>
      </trkpt>
      <trkpt lat="45.30795" lon="4.44261">
        <ele>1230.1</ele>
        <time>2018-08-19T11:42:51.000Z</time>
      </trkpt>
      <trkpt lat="45.30795" lon="4.4426">
        <ele>1230</ele>
        <time>2018-08-19T11:42:52.000Z</time>
      </trkpt>
      <trkpt lat="45.30796" lon="4.44259">
        <ele>1229.9</ele>
        <time>2018-08-19T11:42:53.000Z</time>
      </trkpt>
      <trkpt lat="45.30796" lon="4.44257">
        <ele>1229.8</ele>
        <time>2018-08-19T11:42:54.000Z</time>
      </trkpt>
      <trkpt lat="45.30796" lon="4.44256">
        <ele>1229.8</ele>
        <time>2018-08-19T11:42:55.000Z</time>
      </trkpt>
      <trkpt lat="45.30797" lon="4.44255">
        <ele>1229.7</ele>
        <time>2018-08-19T11:42:56.000Z</time>
      </trkpt>
      <trkpt lat="45.30797" lon="4.44253">
        <ele>1229.6</ele>
        <time>2018-08-19T11:42:57.000Z</time>
      </trkpt>
      <trkpt lat="45.30798" lon="4.44252">
        <ele>1229.5</ele>
        <time>2018-08-19T11:42:58.000Z</time>
      </trkpt>
      <trkpt lat="45.30798" lon="4.44251">
        <ele>1229.5</ele>
        <time>2018-08-19T11:42:59.000Z</time>
      </trkpt>
      <trkpt lat="45.30798" lon="4.44249">
        <ele>1229.4</ele>
        <time>2018-08-19T11:43:00.000Z</time>
      </trkpt>
      <trkpt lat="45.30799" lon="4.44248">
        <ele>1229.3</ele>
        <time>2018-08-19T11:43:01.000Z</time>
      </trkpt>
      <trkpt lat="45.30799" lon="4.44246">
        <ele>1229.2</ele>
        <time>2018-08-19T11:43:02.000Z</time>
      </trkpt>
      <trkpt lat="45.30799" lon="4.44245">
        <ele>1229</ele>
        <time>2018-08-19T11:43:03.000Z</time>
      </trkpt>
      <trkpt lat="45.30799" lon="4.44244">
        <ele>1228.9</ele>
        <time>2018-08-19T11:43:04.000Z</time>
      </trkpt>
      <trkpt lat="45.308" lon="4.44242">
        <ele>1228.8</ele>
        <time>2018-08-19T11:43:05.000Z</time>
      </trkpt>
      <trkpt lat="45.308" lon="4.44241">
        <ele>1228.7</ele>
        <time>2018-08-19T11:43:06.000Z</time>
      </trkpt>
      <trkpt lat="45.308" lon="4.44239">
        <ele>1228.6</ele>
        <time>2018-08-19T11:43:07.000Z</time>
      </trkpt>
      <trkpt lat="45.30801" lon="4.44238">
        <ele>1228.5</ele>
        <time>2018-08-19T11:43:08.000Z</time>
      </trkpt>
      <trkpt lat="45.30801" lon="4.44237">
        <ele>1228.5</ele>
        <time>2018-08-19T11:43:09.000Z</time>
      </trkpt>
      <trkpt lat="45.30801" lon="4.44236">
        <ele>1228.4</ele>
        <time>2018-08-19T11:43:10.000Z</time>
      </trkpt>
      <trkpt lat="45.30802" lon="4.44235">
        <ele>1228.3</ele>
        <time>2018-08-19T11:43:11.000Z</time>
      </trkpt>
      <trkpt lat="45.30802" lon="4.44233">
        <ele>1228.2</ele>
        <time>2018-08-19T11:43:12.000Z</time>
      </trkpt>
      <trkpt lat="45.30803" lon="4.44232">
        <ele>1228.1</ele>
        <time>2018-08-19T11:43:13.000Z</time>
      </trkpt>
      <trkpt lat="45.30803" lon="4.44231">
        <ele>1228</ele>
        <time>2018-08-19T11:43:14.000Z</time>
      </trkpt>
      <trkpt lat="45.30803" lon="4.44229">
        <ele>1227.9</ele>
        <time>2018-08-19T11:43:15.000Z</time>
      </trkpt>
      <trkpt lat="45.30803" lon="4.44228">
        <ele>1227.8</ele>
        <time>2018-08-19T11:43:16.000Z</time>
      </trkpt>
      <trkpt lat="45.30804" lon="4.44226">
        <ele>1227.6</ele>
        <time>2018-08-19T11:43:17.000Z</time>
      </trkpt>
      <trkpt lat="45.30804" lon="4.44225">
        <ele>1227.5</ele>
        <time>2018-08-19T11:43:18.000Z</time>
      </trkpt>
      <trkpt lat="45.30804" lon="4.44223">
        <ele>1227.4</ele>
        <time>2018-08-19T11:43:19.000Z</time>
      </trkpt>
      <trkpt lat="45.30804" lon="4.44222">
        <ele>1227.3</ele>
        <time>2018-08-19T11:43:20.000Z</time>
      </trkpt>
      <trkpt lat="45.30804" lon="4.44221">
        <ele>1227.2</ele>
        <time>2018-08-19T11:43:21.000Z</time>
      </trkpt>
      <trkpt lat="45.30805" lon="4.44219">
        <ele>1227.1</ele>
        <time>2018-08-19T11:43:22.000Z</time>
      </trkpt>
      <trkpt lat="45.30805" lon="4.44218">
        <ele>1227</ele>
        <time>2018-08-19T11:43:23.000Z</time>
      </trkpt>
      <trkpt lat="45.30805" lon="4.44216">
        <ele>1226.9</ele>
        <time>2018-08-19T11:43:24.000Z</time>
      </trkpt>
      <trkpt lat="45.30805" lon="4.44215">
        <ele>1226.8</ele>
        <time>2018-08-19T11:43:25.000Z</time>
      </trkpt>
      <trkpt lat="45.30805" lon="4.44214">
        <ele>1226.7</ele>
        <time>2018-08-19T11:43:26.000Z</time>
      </trkpt>
      <trkpt lat="45.30806" lon="4.44212">
        <ele>1226.6</ele>
        <time>2018-08-19T11:43:27.000Z</time>
      </trkpt>
      <trkpt lat="45.30806" lon="4.44211">
        <ele>1226.5</ele>
        <time>2018-08-19T11:43:28.000Z</time>
      </trkpt>
      <trkpt lat="45.30806" lon="4.4421">
        <ele>1226.4</ele>
        <time>2018-08-19T11:43:29.000Z</time>
      </trkpt>
      <trkpt lat="45.30806" lon="4.44209">
        <ele>1226.3</ele>
        <time>2018-08-19T11:43:30.000Z</time>
      </trkpt>
      <trkpt lat="45.30807" lon="4.44207">
        <ele>1226.2</ele>
        <time>2018-08-19T11:43:31.000Z</time>
      </trkpt>
      <trkpt lat="45.30807" lon="4.44206">
        <ele>1226.1</ele>
        <time>2018-08-19T11:43:32.000Z</time>
      </trkpt>
      <trkpt lat="45.30807" lon="4.44205">
        <ele>1226</ele>
        <time>2018-08-19T11:43:33.000Z</time>
      </trkpt>
      <trkpt lat="45.30807" lon="4.44203">
        <ele>1225.9</ele>
        <time>2018-08-19T11:43:34.000Z</time>
      </trkpt>
      <trkpt lat="45.30808" lon="4.44202">
        <ele>1225.8</ele>
        <time>2018-08-19T11:43:35.000Z</time>
      </trkpt>
      <trkpt lat="45.30808" lon="4.44201">
        <ele>1225.8</ele>
        <time>2018-08-19T11:43:36.000Z</time>
      </trkpt>
      <trkpt lat="45.30808" lon="4.44199">
        <ele>1225.6</ele>
        <time>2018-08-19T11:43:37.000Z</time>
      </trkpt>
      <trkpt lat="45.30808" lon="4.44198">
        <ele>1225.5</ele>
        <time>2018-08-19T11:43:38.000Z</time>
      </trkpt>
      <trkpt lat="45.30808" lon="4.44196">
        <ele>1225.4</ele>
        <time>2018-08-19T11:43:39.000Z</time>
      </trkpt>
      <trkpt lat="45.30808" lon="4.44195">
        <ele>1225.3</ele>
        <time>2018-08-19T11:43:40.000Z</time>
      </trkpt>
      <trkpt lat="45.30808" lon="4.44193">
        <ele>1225.2</ele>
        <time>2018-08-19T11:43:41.000Z</time>
      </trkpt>
      <trkpt lat="45.30808" lon="4.44192">
        <ele>1225.1</ele>
        <time>2018-08-19T11:43:42.000Z</time>
      </trkpt>
      <trkpt lat="45.30808" lon="4.4419">
        <ele>1225</ele>
        <time>2018-08-19T11:43:43.000Z</time>
      </trkpt>
      <trkpt lat="45.30808" lon="4.44189">
        <ele>1224.9</ele>
        <time>2018-08-19T11:43:44.000Z</time>
      </trkpt>
      <trkpt lat="45.30808" lon="4.44187">
        <ele>1224.8</ele>
        <time>2018-08-19T11:43:45.000Z</time>
      </trkpt>
      <trkpt lat="45.30808" lon="4.44186">
        <ele>1224.7</ele>
        <time>2018-08-19T11:43:46.000Z</time>
      </trkpt>
      <trkpt lat="45.30808" lon="4.44184">
        <ele>1224.6</ele>
        <time>2018-08-19T11:43:47.000Z</time>
      </trkpt>
      <trkpt lat="45.30808" lon="4.44183">
        <ele>1224.5</ele>
        <time>2018-08-19T11:43:48.000Z</time>
      </trkpt>
      <trkpt lat="45.30808" lon="4.44181">
        <ele>1224.3</ele>
        <time>2018-08-19T11:43:49.000Z</time>
      </trkpt>
      <trkpt lat="45.30808" lon="4.4418">
        <ele>1224.2</ele>
        <time>2018-08-19T11:43:50.000Z</time>
      </trkpt>
      <trkpt lat="45.30808" lon="4.44178">
        <ele>1224.1</ele>
        <time>2018-08-19T11:43:51.000Z</time>
      </trkpt>
      <trkpt lat="45.30808" lon="4.44176">
        <ele>1224</ele>
        <time>2018-08-19T11:43:52.000Z</time>
      </trkpt>
      <trkpt lat="45.30808" lon="4.44175">
        <ele>1223.9</ele>
        <time>2018-08-19T11:43:53.000Z</time>
      </trkpt>
      <trkpt lat="45.30808" lon="4.44173">
        <ele>1223.8</ele>
        <time>2018-08-19T11:43:54.000Z</time>
      </trkpt>
      <trkpt lat="45.30808" lon="4.44172">
        <ele>1223.7</ele>
        <time>2018-08-19T11:43:55.000Z</time>
      </trkpt>
      <trkpt lat="45.30807" lon="4.4417">
        <ele>1223.6</ele>
        <time>2018-08-19T11:43:56.000Z</time>
      </trkpt>
      <trkpt lat="45.30807" lon="4.44169">
        <ele>1223.5</ele>
        <time>2018-08-19T11:43:57.000Z</time>
      </trkpt>
      <trkpt lat="45.30807" lon="4.44167">
        <ele>1223.3</ele>
        <time>2018-08-19T11:43:58.000Z</time>
      </trkpt>
      <trkpt lat="45.30807" lon="4.44166">
        <ele>1223.3</ele>
        <time>2018-08-19T11:43:59.000Z</time>
      </trkpt>
      <trkpt lat="45.30807" lon="4.44164">
        <ele>1223.2</ele>
        <time>2018-08-19T11:44:00.000Z</time>
      </trkpt>
      <trkpt lat="45.30807" lon="4.44163">
        <ele>1223.1</ele>
        <time>2018-08-19T11:44:01.000Z</time>
      </trkpt>
      <trkpt lat="45.30807" lon="4.44161">
        <ele>1223.1</ele>
        <time>2018-08-19T11:44:02.000Z</time>
      </trkpt>
      <trkpt lat="45.30807" lon="4.44159">
        <ele>1223</ele>
        <time>2018-08-19T11:44:03.000Z</time>
      </trkpt>
      <trkpt lat="45.30807" lon="4.44158">
        <ele>1223</ele>
        <time>2018-08-19T11:44:04.000Z</time>
      </trkpt>
      <trkpt lat="45.30807" lon="4.44156">
        <ele>1222.9</ele>
        <time>2018-08-19T11:44:05.000Z</time>
      </trkpt>
      <trkpt lat="45.30807" lon="4.44155">
        <ele>1222.8</ele>
        <time>2018-08-19T11:44:06.000Z</time>
      </trkpt>
      <trkpt lat="45.30807" lon="4.44153">
        <ele>1222.8</ele>
        <time>2018-08-19T11:44:07.000Z</time>
      </trkpt>
      <trkpt lat="45.30807" lon="4.44152">
        <ele>1222.7</ele>
        <time>2018-08-19T11:44:08.000Z</time>
      </trkpt>
      <trkpt lat="45.30807" lon="4.4415">
        <ele>1222.7</ele>
        <time>2018-08-19T11:44:09.000Z</time>
      </trkpt>
      <trkpt lat="45.30807" lon="4.44149">
        <ele>1222.6</ele>
        <time>2018-08-19T11:44:10.000Z</time>
      </trkpt>
      <trkpt lat="45.30808" lon="4.44147">
        <ele>1222.5</ele>
        <time>2018-08-19T11:44:11.000Z</time>
      </trkpt>
      <trkpt lat="45.30808" lon="4.44146">
        <ele>1222.5</ele>
        <time>2018-08-19T11:44:12.000Z</time>
      </trkpt>
      <trkpt lat="45.30808" lon="4.44144">
        <ele>1222.4</ele>
        <time>2018-08-19T11:44:13.000Z</time>
      </trkpt>
      <trkpt lat="45.30808" lon="4.44143">
        <ele>1222.4</ele>
        <time>2018-08-19T11:44:14.000Z</time>
      </trkpt>
      <trkpt lat="45.30808" lon="4.44141">
        <ele>1222.3</ele>
        <time>2018-08-19T11:44:15.000Z</time>
      </trkpt>
      <trkpt lat="45.30808" lon="4.4414">
        <ele>1222.2</ele>
        <time>2018-08-19T11:44:16.000Z</time>
      </trkpt>
      <trkpt lat="45.30808" lon="4.44138">
        <ele>1222.2</ele>
        <time>2018-08-19T11:44:17.000Z</time>
      </trkpt>
      <trkpt lat="45.30808" lon="4.44137">
        <ele>1222.1</ele>
        <time>2018-08-19T11:44:18.000Z</time>
      </trkpt>
      <trkpt lat="45.30808" lon="4.44135">
        <ele>1222</ele>
        <time>2018-08-19T11:44:19.000Z</time>
      </trkpt>
      <trkpt lat="45.30808" lon="4.44133">
        <ele>1222</ele>
        <time>2018-08-19T11:44:20.000Z</time>
      </trkpt>
      <trkpt lat="45.30808" lon="4.44132">
        <ele>1221.9</ele>
        <time>2018-08-19T11:44:21.000Z</time>
      </trkpt>
      <trkpt lat="45.30808" lon="4.4413">
        <ele>1221.9</ele>
        <time>2018-08-19T11:44:22.000Z</time>
      </trkpt>
      <trkpt lat="45.30808" lon="4.44129">
        <ele>1221.8</ele>
        <time>2018-08-19T11:44:23.000Z</time>
      </trkpt>
      <trkpt lat="45.30808" lon="4.44127">
        <ele>1221.7</ele>
        <time>2018-08-19T11:44:24.000Z</time>
      </trkpt>
      <trkpt lat="45.30808" lon="4.44125">
        <ele>1221.7</ele>
        <time>2018-08-19T11:44:25.000Z</time>
      </trkpt>
      <trkpt lat="45.30808" lon="4.44124">
        <ele>1221.6</ele>
        <time>2018-08-19T11:44:26.000Z</time>
      </trkpt>
      <trkpt lat="45.30808" lon="4.44122">
        <ele>1221.5</ele>
        <time>2018-08-19T11:44:27.000Z</time>
      </trkpt>
      <trkpt lat="45.30808" lon="4.44121">
        <ele>1221.5</ele>
        <time>2018-08-19T11:44:28.000Z</time>
      </trkpt>
      <trkpt lat="45.30808" lon="4.44119">
        <ele>1221.4</ele>
        <time>2018-08-19T11:44:29.000Z</time>
      </trkpt>
      <trkpt lat="45.30808" lon="4.44118">
        <ele>1221.4</ele>
        <time>2018-08-19T11:44:30.000Z</time>
      </trkpt>
      <trkpt lat="45.30808" lon="4.44116">
        <ele>1221.3</ele>
        <time>2018-08-19T11:44:31.000Z</time>
      </trkpt>
      <trkpt lat="45.30808" lon="4.44114">
        <ele>1221.2</ele>
        <time>2018-08-19T11:44:32.000Z</time>
      </trkpt>
      <trkpt lat="45.30808" lon="4.44113">
        <ele>1221.2</ele>
        <time>2018-08-19T11:44:33.000Z</time>
      </trkpt>
      <trkpt lat="45.30808" lon="4.44111">
        <ele>1221.1</ele>
        <time>2018-08-19T11:44:34.000Z</time>
      </trkpt>
      <trkpt lat="45.30808" lon="4.4411">
        <ele>1221</ele>
        <time>2018-08-19T11:44:35.000Z</time>
      </trkpt>
      <trkpt lat="45.30808" lon="4.44108">
        <ele>1221</ele>
        <time>2018-08-19T11:44:36.000Z</time>
      </trkpt>
      <trkpt lat="45.30808" lon="4.44106">
        <ele>1220.9</ele>
        <time>2018-08-19T11:44:37.000Z</time>
      </trkpt>
      <trkpt lat="45.30808" lon="4.44105">
        <ele>1220.9</ele>
        <time>2018-08-19T11:44:38.000Z</time>
      </trkpt>
      <trkpt lat="45.30807" lon="4.44103">
        <ele>1220.8</ele>
        <time>2018-08-19T11:44:39.000Z</time>
      </trkpt>
      <trkpt lat="45.30807" lon="4.44102">
        <ele>1220.7</ele>
        <time>2018-08-19T11:44:40.000Z</time>
      </trkpt>
      <trkpt lat="45.30807" lon="4.441">
        <ele>1220.7</ele>
        <time>2018-08-19T11:44:41.000Z</time>
      </trkpt>
      <trkpt lat="45.30807" lon="4.44098">
        <ele>1220.6</ele>
        <time>2018-08-19T11:44:42.000Z</time>
      </trkpt>
      <trkpt lat="45.30807" lon="4.44097">
        <ele>1220.5</ele>
        <time>2018-08-19T11:44:43.000Z</time>
      </trkpt>
      <trkpt lat="45.30807" lon="4.44095">
        <ele>1220.5</ele>
        <time>2018-08-19T11:44:44.000Z</time>
      </trkpt>
      <trkpt lat="45.30807" lon="4.44094">
        <ele>1220.4</ele>
        <time>2018-08-19T11:44:45.000Z</time>
      </trkpt>
      <trkpt lat="45.30807" lon="4.44092">
        <ele>1220.3</ele>
        <time>2018-08-19T11:44:46.000Z</time>
      </trkpt>
      <trkpt lat="45.30807" lon="4.4409">
        <ele>1220.3</ele>
        <time>2018-08-19T11:44:47.000Z</time>
      </trkpt>
      <trkpt lat="45.30807" lon="4.44089">
        <ele>1220.2</ele>
        <time>2018-08-19T11:44:48.000Z</time>
      </trkpt>
      <trkpt lat="45.30807" lon="4.44087">
        <ele>1220.2</ele>
        <time>2018-08-19T11:44:49.000Z</time>
      </trkpt>
      <trkpt lat="45.30807" lon="4.44086">
        <ele>1220.1</ele>
        <time>2018-08-19T11:44:50.000Z</time>
      </trkpt>
      <trkpt lat="45.30807" lon="4.44084">
        <ele>1220</ele>
        <time>2018-08-19T11:44:51.000Z</time>
      </trkpt>
      <trkpt lat="45.30807" lon="4.44082">
        <ele>1219.9</ele>
        <time>2018-08-19T11:44:52.000Z</time>
      </trkpt>
      <trkpt lat="45.30807" lon="4.44081">
        <ele>1219.9</ele>
        <time>2018-08-19T11:44:53.000Z</time>
      </trkpt>
      <trkpt lat="45.30807" lon="4.44079">
        <ele>1219.8</ele>
        <time>2018-08-19T11:44:54.000Z</time>
      </trkpt>
      <trkpt lat="45.30806" lon="4.44078">
        <ele>1219.7</ele>
        <time>2018-08-19T11:44:55.000Z</time>
      </trkpt>
      <trkpt lat="45.30806" lon="4.44076">
        <ele>1219.6</ele>
        <time>2018-08-19T11:44:56.000Z</time>
      </trkpt>
      <trkpt lat="45.30806" lon="4.44075">
        <ele>1219.5</ele>
        <time>2018-08-19T11:44:57.000Z</time>
      </trkpt>
      <trkpt lat="45.30806" lon="4.44073">
        <ele>1219.4</ele>
        <time>2018-08-19T11:44:58.000Z</time>
      </trkpt>
      <trkpt lat="45.30806" lon="4.44072">
        <ele>1219.3</ele>
        <time>2018-08-19T11:44:59.000Z</time>
      </trkpt>
      <trkpt lat="45.30806" lon="4.4407">
        <ele>1219.2</ele>
        <time>2018-08-19T11:45:00.000Z</time>
      </trkpt>
      <trkpt lat="45.30806" lon="4.44068">
        <ele>1219.2</ele>
        <time>2018-08-19T11:45:01.000Z</time>
      </trkpt>
      <trkpt lat="45.30806" lon="4.44067">
        <ele>1219.1</ele>
        <time>2018-08-19T11:45:02.000Z</time>
      </trkpt>
      <trkpt lat="45.30806" lon="4.44065">
        <ele>1219</ele>
        <time>2018-08-19T11:45:03.000Z</time>
      </trkpt>
      <trkpt lat="45.30806" lon="4.44064">
        <ele>1218.9</ele>
        <time>2018-08-19T11:45:04.000Z</time>
      </trkpt>
      <trkpt lat="45.30806" lon="4.44062">
        <ele>1218.8</ele>
        <time>2018-08-19T11:45:05.000Z</time>
      </trkpt>
      <trkpt lat="45.30806" lon="4.44061">
        <ele>1218.7</ele>
        <time>2018-08-19T11:45:06.000Z</time>
      </trkpt>
      <trkpt lat="45.30806" lon="4.44059">
        <ele>1218.7</ele>
        <time>2018-08-19T11:45:07.000Z</time>
      </trkpt>
      <trkpt lat="45.30806" lon="4.44058">
        <ele>1218.6</ele>
        <time>2018-08-19T11:45:08.000Z</time>
      </trkpt>
      <trkpt lat="45.30806" lon="4.44056">
        <ele>1218.5</ele>
        <time>2018-08-19T11:45:09.000Z</time>
      </trkpt>
      <trkpt lat="45.30806" lon="4.44055">
        <ele>1218.4</ele>
        <time>2018-08-19T11:45:10.000Z</time>
      </trkpt>
      <trkpt lat="45.30806" lon="4.44054">
        <ele>1218.3</ele>
        <time>2018-08-19T11:45:11.000Z</time>
      </trkpt>
      <trkpt lat="45.30806" lon="4.44052">
        <ele>1218.3</ele>
        <time>2018-08-19T11:45:12.000Z</time>
      </trkpt>
      <trkpt lat="45.30806" lon="4.44051">
        <ele>1218.2</ele>
        <time>2018-08-19T11:45:13.000Z</time>
      </trkpt>
      <trkpt lat="45.30805" lon="4.44049">
        <ele>1218.1</ele>
        <time>2018-08-19T11:45:14.000Z</time>
      </trkpt>
      <trkpt lat="45.30805" lon="4.44048">
        <ele>1218</ele>
        <time>2018-08-19T11:45:15.000Z</time>
      </trkpt>
      <trkpt lat="45.30805" lon="4.44047">
        <ele>1218</ele>
        <time>2018-08-19T11:45:16.000Z</time>
      </trkpt>
      <trkpt lat="45.30805" lon="4.44046">
        <ele>1217.9</ele>
        <time>2018-08-19T11:45:17.000Z</time>
      </trkpt>
      <trkpt lat="45.30806" lon="4.44044">
        <ele>1217.8</ele>
        <time>2018-08-19T11:45:18.000Z</time>
      </trkpt>
      <trkpt lat="45.30806" lon="4.44043">
        <ele>1217.7</ele>
        <time>2018-08-19T11:45:19.000Z</time>
      </trkpt>
      <trkpt lat="45.30806" lon="4.44042">
        <ele>1217.7</ele>
        <time>2018-08-19T11:45:20.000Z</time>
      </trkpt>
      <trkpt lat="45.30806" lon="4.44041">
        <ele>1217.6</ele>
        <time>2018-08-19T11:45:21.000Z</time>
      </trkpt>
      <trkpt lat="45.30806" lon="4.44039">
        <ele>1217.5</ele>
        <time>2018-08-19T11:45:22.000Z</time>
      </trkpt>
      <trkpt lat="45.30805" lon="4.44038">
        <ele>1217.5</ele>
        <time>2018-08-19T11:45:23.000Z</time>
      </trkpt>
      <trkpt lat="45.30805" lon="4.44036">
        <ele>1217.4</ele>
        <time>2018-08-19T11:45:24.000Z</time>
      </trkpt>
      <trkpt lat="45.30805" lon="4.44035">
        <ele>1217.3</ele>
        <time>2018-08-19T11:45:25.000Z</time>
      </trkpt>
      <trkpt lat="45.30805" lon="4.44034">
        <ele>1217.2</ele>
        <time>2018-08-19T11:45:26.000Z</time>
      </trkpt>
      <trkpt lat="45.30805" lon="4.44032">
        <ele>1217.1</ele>
        <time>2018-08-19T11:45:27.000Z</time>
      </trkpt>
      <trkpt lat="45.30805" lon="4.44031">
        <ele>1217.1</ele>
        <time>2018-08-19T11:45:28.000Z</time>
      </trkpt>
      <trkpt lat="45.30804" lon="4.44029">
        <ele>1217</ele>
        <time>2018-08-19T11:45:29.000Z</time>
      </trkpt>
      <trkpt lat="45.30804" lon="4.44028">
        <ele>1216.9</ele>
        <time>2018-08-19T11:45:30.000Z</time>
      </trkpt>
      <trkpt lat="45.30804" lon="4.44027">
        <ele>1216.9</ele>
        <time>2018-08-19T11:45:31.000Z</time>
      </trkpt>
      <trkpt lat="45.30803" lon="4.44026">
        <ele>1216.8</ele>
        <time>2018-08-19T11:45:32.000Z</time>
      </trkpt>
      <trkpt lat="45.30803" lon="4.44024">
        <ele>1216.7</ele>
        <time>2018-08-19T11:45:33.000Z</time>
      </trkpt>
      <trkpt lat="45.30802" lon="4.44023">
        <ele>1216.7</ele>
        <time>2018-08-19T11:45:34.000Z</time>
      </trkpt>
      <trkpt lat="45.30802" lon="4.44022">
        <ele>1216.6</ele>
        <time>2018-08-19T11:45:35.000Z</time>
      </trkpt>
      <trkpt lat="45.30801" lon="4.44021">
        <ele>1216.5</ele>
        <time>2018-08-19T11:45:36.000Z</time>
      </trkpt>
      <trkpt lat="45.30801" lon="4.44019">
        <ele>1216.5</ele>
        <time>2018-08-19T11:45:37.000Z</time>
      </trkpt>
      <trkpt lat="45.308" lon="4.44018">
        <ele>1216.4</ele>
        <time>2018-08-19T11:45:38.000Z</time>
      </trkpt>
      <trkpt lat="45.308" lon="4.44017">
        <ele>1216.3</ele>
        <time>2018-08-19T11:45:39.000Z</time>
      </trkpt>
      <trkpt lat="45.30799" lon="4.44016">
        <ele>1216.3</ele>
        <time>2018-08-19T11:45:40.000Z</time>
      </trkpt>
      <trkpt lat="45.30799" lon="4.44014">
        <ele>1216.2</ele>
        <time>2018-08-19T11:45:41.000Z</time>
      </trkpt>
      <trkpt lat="45.30798" lon="4.44013">
        <ele>1216.1</ele>
        <time>2018-08-19T11:45:42.000Z</time>
      </trkpt>
      <trkpt lat="45.30798" lon="4.44012">
        <ele>1216.1</ele>
        <time>2018-08-19T11:45:43.000Z</time>
      </trkpt>
      <trkpt lat="45.30797" lon="4.4401">
        <ele>1216</ele>
        <time>2018-08-19T11:45:44.000Z</time>
      </trkpt>
      <trkpt lat="45.30797" lon="4.44009">
        <ele>1215.9</ele>
        <time>2018-08-19T11:45:45.000Z</time>
      </trkpt>
      <trkpt lat="45.30796" lon="4.44008">
        <ele>1215.9</ele>
        <time>2018-08-19T11:45:46.000Z</time>
      </trkpt>
      <trkpt lat="45.30796" lon="4.44007">
        <ele>1215.9</ele>
        <time>2018-08-19T11:45:47.000Z</time>
      </trkpt>
      <trkpt lat="45.30795" lon="4.44007">
        <ele>1215.8</ele>
        <time>2018-08-19T11:45:48.000Z</time>
      </trkpt>
      <trkpt lat="45.30794" lon="4.44006">
        <ele>1215.8</ele>
        <time>2018-08-19T11:45:49.000Z</time>
      </trkpt>
      <trkpt lat="45.30793" lon="4.44005">
        <ele>1215.8</ele>
        <time>2018-08-19T11:45:50.000Z</time>
      </trkpt>
      <trkpt lat="45.30792" lon="4.44005">
        <ele>1215.8</ele>
        <time>2018-08-19T11:45:51.000Z</time>
      </trkpt>
      <trkpt lat="45.30791" lon="4.44004">
        <ele>1215.7</ele>
        <time>2018-08-19T11:45:52.000Z</time>
      </trkpt>
      <trkpt lat="45.30791" lon="4.44004">
        <ele>1215.7</ele>
        <time>2018-08-19T11:45:53.000Z</time>
      </trkpt>
      <trkpt lat="45.3079" lon="4.44003">
        <ele>1215.7</ele>
        <time>2018-08-19T11:45:54.000Z</time>
      </trkpt>
      <trkpt lat="45.30789" lon="4.44002">
        <ele>1215.6</ele>
        <time>2018-08-19T11:45:55.000Z</time>
      </trkpt>
      <trkpt lat="45.30789" lon="4.44">
        <ele>1215.6</ele>
        <time>2018-08-19T11:45:56.000Z</time>
      </trkpt>
      <trkpt lat="45.30789" lon="4.43999">
        <ele>1215.4</ele>
        <time>2018-08-19T11:45:57.000Z</time>
      </trkpt>
      <trkpt lat="45.30788" lon="4.43998">
        <ele>1215.3</ele>
        <time>2018-08-19T11:45:58.000Z</time>
      </trkpt>
      <trkpt lat="45.30788" lon="4.43996">
        <ele>1215.2</ele>
        <time>2018-08-19T11:45:59.000Z</time>
      </trkpt>
      <trkpt lat="45.30788" lon="4.43995">
        <ele>1215</ele>
        <time>2018-08-19T11:46:00.000Z</time>
      </trkpt>
      <trkpt lat="45.30788" lon="4.43994">
        <ele>1214.9</ele>
        <time>2018-08-19T11:46:01.000Z</time>
      </trkpt>
      <trkpt lat="45.30788" lon="4.43993">
        <ele>1214.8</ele>
        <time>2018-08-19T11:46:02.000Z</time>
      </trkpt>
      <trkpt lat="45.30788" lon="4.43992">
        <ele>1214.6</ele>
        <time>2018-08-19T11:46:03.000Z</time>
      </trkpt>
      <trkpt lat="45.30788" lon="4.43991">
        <ele>1214.5</ele>
        <time>2018-08-19T11:46:04.000Z</time>
      </trkpt>
      <trkpt lat="45.30789" lon="4.43989">
        <ele>1214.4</ele>
        <time>2018-08-19T11:46:05.000Z</time>
      </trkpt>
      <trkpt lat="45.30789" lon="4.43989">
        <ele>1214.3</ele>
        <time>2018-08-19T11:46:06.000Z</time>
      </trkpt>
      <trkpt lat="45.3079" lon="4.43988">
        <ele>1214.2</ele>
        <time>2018-08-19T11:46:07.000Z</time>
      </trkpt>
      <trkpt lat="45.3079" lon="4.43987">
        <ele>1214.1</ele>
        <time>2018-08-19T11:46:08.000Z</time>
      </trkpt>
      <trkpt lat="45.3079" lon="4.43986">
        <ele>1214</ele>
        <time>2018-08-19T11:46:09.000Z</time>
      </trkpt>
      <trkpt lat="45.3079" lon="4.43985">
        <ele>1213.9</ele>
        <time>2018-08-19T11:46:10.000Z</time>
      </trkpt>
      <trkpt lat="45.30789" lon="4.43984">
        <ele>1213.8</ele>
        <time>2018-08-19T11:46:11.000Z</time>
      </trkpt>
      <trkpt lat="45.30789" lon="4.43983">
        <ele>1213.7</ele>
        <time>2018-08-19T11:46:12.000Z</time>
      </trkpt>
      <trkpt lat="45.30789" lon="4.43983">
        <ele>1213.7</ele>
        <time>2018-08-19T11:46:13.000Z</time>
      </trkpt>
      <trkpt lat="45.30789" lon="4.43983">
        <ele>1213.7</ele>
        <time>2018-08-19T11:46:14.000Z</time>
      </trkpt>
      <trkpt lat="45.30788" lon="4.43983">
        <ele>1213.7</ele>
        <time>2018-08-19T11:46:15.000Z</time>
      </trkpt>
      <trkpt lat="45.30788" lon="4.43983">
        <ele>1213.7</ele>
        <time>2018-08-19T11:46:16.000Z</time>
      </trkpt>
      <trkpt lat="45.30788" lon="4.43983">
        <ele>1213.7</ele>
        <time>2018-08-19T11:46:17.000Z</time>
      </trkpt>
      <trkpt lat="45.30788" lon="4.43983">
        <ele>1213.7</ele>
        <time>2018-08-19T11:46:18.000Z</time>
      </trkpt>
      <trkpt lat="45.30788" lon="4.43983">
        <ele>1213.7</ele>
        <time>2018-08-19T11:46:19.000Z</time>
      </trkpt>
      <trkpt lat="45.30788" lon="4.43983">
        <ele>1213.7</ele>
        <time>2018-08-19T11:46:20.000Z</time>
      </trkpt>
      <trkpt lat="45.30788" lon="4.43983">
        <ele>1213.7</ele>
        <time>2018-08-19T11:46:21.000Z</time>
      </trkpt>
      <trkpt lat="45.30788" lon="4.43983">
        <ele>1213.7</ele>
        <time>2018-08-19T11:46:22.000Z</time>
      </trkpt>
      <trkpt lat="45.30788" lon="4.43983">
        <ele>1213.7</ele>
        <time>2018-08-19T11:46:23.000Z</time>
      </trkpt>
      <trkpt lat="45.30788" lon="4.43983">
        <ele>1213.7</ele>
        <time>2018-08-19T11:46:24.000Z</time>
      </trkpt>
      <trkpt lat="45.30788" lon="4.43983">
        <ele>1213.7</ele>
        <time>2018-08-19T11:46:25.000Z</time>
      </trkpt>
      <trkpt lat="45.30788" lon="4.43983">
        <ele>1213.7</ele>
        <time>2018-08-19T11:46:26.000Z</time>
      </trkpt>
      <trkpt lat="45.30788" lon="4.43983">
        <ele>1213.7</ele>
        <time>2018-08-19T11:46:27.000Z</time>
      </trkpt>
      <trkpt lat="45.30788" lon="4.43983">
        <ele>1213.7</ele>
        <time>2018-08-19T11:46:28.000Z</time>
      </trkpt>
      <trkpt lat="45.30788" lon="4.43983">
        <ele>1213.7</ele>
        <time>2018-08-19T11:46:29.000Z</time>
      </trkpt>
      <trkpt lat="45.30788" lon="4.43983">
        <ele>1213.7</ele>
        <time>2018-08-19T11:46:30.000Z</time>
      </trkpt>
      <trkpt lat="45.30788" lon="4.43983">
        <ele>1213.7</ele>
        <time>2018-08-19T11:46:31.000Z</time>
      </trkpt>
      <trkpt lat="45.30788" lon="4.43983">
        <ele>1213.7</ele>
        <time>2018-08-19T11:46:32.000Z</time>
      </trkpt>
      <trkpt lat="45.30788" lon="4.43983">
        <ele>1213.7</ele>
        <time>2018-08-19T11:46:33.000Z</time>
      </trkpt>
      <trkpt lat="45.30788" lon="4.43983">
        <ele>1213.7</ele>
        <time>2018-08-19T11:46:34.000Z</time>
      </trkpt>
      <trkpt lat="45.30788" lon="4.43983">
        <ele>1213.7</ele>
        <time>2018-08-19T11:46:35.000Z</time>
      </trkpt>
      <trkpt lat="45.30788" lon="4.43983">
        <ele>1213.7</ele>
        <time>2018-08-19T11:46:36.000Z</time>
      </trkpt>
      <trkpt lat="45.30788" lon="4.43983">
        <ele>1213.7</ele>
        <time>2018-08-19T11:46:37.000Z</time>
      </trkpt>
      <trkpt lat="45.30788" lon="4.43983">
        <ele>1213.7</ele>
        <time>2018-08-19T11:46:38.000Z</time>
      </trkpt>
      <trkpt lat="45.30788" lon="4.43983">
        <ele>1213.7</ele>
        <time>2018-08-19T11:46:39.000Z</time>
      </trkpt>
      <trkpt lat="45.30788" lon="4.43983">
        <ele>1213.7</ele>
        <time>2018-08-19T11:46:40.000Z</time>
      </trkpt>
      <trkpt lat="45.30788" lon="4.43983">
        <ele>1213.7</ele>
        <time>2018-08-19T11:46:41.000Z</time>
      </trkpt>
      <trkpt lat="45.30788" lon="4.43983">
        <ele>1213.7</ele>
        <time>2018-08-19T11:46:42.000Z</time>
      </trkpt>
      <trkpt lat="45.30788" lon="4.43983">
        <ele>1213.7</ele>
        <time>2018-08-19T11:46:43.000Z</time>
      </trkpt>
      <trkpt lat="45.30788" lon="4.43983">
        <ele>1213.7</ele>
        <time>2018-08-19T11:46:44.000Z</time>
      </trkpt>
      <trkpt lat="45.30788" lon="4.43983">
        <ele>1213.7</ele>
        <time>2018-08-19T11:46:45.000Z</time>
      </trkpt>
      <trkpt lat="45.30788" lon="4.43983">
        <ele>1213.7</ele>
        <time>2018-08-19T11:46:46.000Z</time>
      </trkpt>
      <trkpt lat="45.30788" lon="4.43983">
        <ele>1213.7</ele>
        <time>2018-08-19T11:46:47.000Z</time>
      </trkpt>
      <trkpt lat="45.30788" lon="4.43983">
        <ele>1213.7</ele>
        <time>2018-08-19T11:46:48.000Z</time>
      </trkpt>
      <trkpt lat="45.30788" lon="4.43983">
        <ele>1213.7</ele>
        <time>2018-08-19T11:46:49.000Z</time>
      </trkpt>
      <trkpt lat="45.30788" lon="4.43983">
        <ele>1213.7</ele>
        <time>2018-08-19T11:46:50.000Z</time>
      </trkpt>
      <trkpt lat="45.30788" lon="4.43983">
        <ele>1213.7</ele>
        <time>2018-08-19T11:46:51.000Z</time>
      </trkpt>
      <trkpt lat="45.30788" lon="4.43983">
        <ele>1213.7</ele>
        <time>2018-08-19T11:46:52.000Z</time>
      </trkpt>
      <trkpt lat="45.30788" lon="4.43983">
        <ele>1213.7</ele>
        <time>2018-08-19T11:46:53.000Z</time>
      </trkpt>
      <trkpt lat="45.30788" lon="4.43983">
        <ele>1213.7</ele>
        <time>2018-08-19T11:46:54.000Z</time>
      </trkpt>
      <trkpt lat="45.30788" lon="4.43983">
        <ele>1213.7</ele>
        <time>2018-08-19T11:46:55.000Z</time>
      </trkpt>
      <trkpt lat="45.30788" lon="4.43983">
        <ele>1213.7</ele>
        <time>2018-08-19T11:46:56.000Z</time>
      </trkpt>
      <trkpt lat="45.30788" lon="4.43983">
        <ele>1213.7</ele>
        <time>2018-08-19T11:46:57.000Z</time>
      </trkpt>
      <trkpt lat="45.30788" lon="4.43983">
        <ele>1213.7</ele>
        <time>2018-08-19T11:46:58.000Z</time>
      </trkpt>
      <trkpt lat="45.30788" lon="4.43983">
        <ele>1213.7</ele>
        <time>2018-08-19T11:46:59.000Z</time>
      </trkpt>
      <trkpt lat="45.30788" lon="4.43983">
        <ele>1213.7</ele>
        <time>2018-08-19T11:47:00.000Z</time>
      </trkpt>
      <trkpt lat="45.30788" lon="4.43983">
        <ele>1213.7</ele>
        <time>2018-08-19T11:47:01.000Z</time>
      </trkpt>
      <trkpt lat="45.30788" lon="4.43983">
        <ele>1213.7</ele>
        <time>2018-08-19T11:47:02.000Z</time>
      </trkpt>
      <trkpt lat="45.30788" lon="4.43983">
        <ele>1213.7</ele>
        <time>2018-08-19T11:47:03.000Z</time>
      </trkpt>
      <trkpt lat="45.30788" lon="4.43983">
        <ele>1213.7</ele>
        <time>2018-08-19T11:47:04.000Z</time>
      </trkpt>
      <trkpt lat="45.30788" lon="4.43983">
        <ele>1213.7</ele>
        <time>2018-08-19T11:47:05.000Z</time>
      </trkpt>
      <trkpt lat="45.30788" lon="4.43983">
        <ele>1213.7</ele>
        <time>2018-08-19T11:47:06.000Z</time>
      </trkpt>
      <trkpt lat="45.30788" lon="4.43983">
        <ele>1213.7</ele>
        <time>2018-08-19T11:47:07.000Z</time>
      </trkpt>
      <trkpt lat="45.30788" lon="4.43983">
        <ele>1213.7</ele>
        <time>2018-08-19T11:47:08.000Z</time>
      </trkpt>
      <trkpt lat="45.30788" lon="4.43983">
        <ele>1213.7</ele>
        <time>2018-08-19T11:47:09.000Z</time>
      </trkpt>
      <trkpt lat="45.30788" lon="4.43983">
        <ele>1213.7</ele>
        <time>2018-08-19T11:47:10.000Z</time>
      </trkpt>
      <trkpt lat="45.30788" lon="4.43983">
        <ele>1213.7</ele>
        <time>2018-08-19T11:47:11.000Z</time>
      </trkpt>
      <trkpt lat="45.30788" lon="4.43983">
        <ele>1213.7</ele>
        <time>2018-08-19T11:47:12.000Z</time>
      </trkpt>
      <trkpt lat="45.30788" lon="4.43983">
        <ele>1213.7</ele>
        <time>2018-08-19T11:47:13.000Z</time>
      </trkpt>
      <trkpt lat="45.30788" lon="4.43983">
        <ele>1213.7</ele>
        <time>2018-08-19T11:47:14.000Z</time>
      </trkpt>
      <trkpt lat="45.30788" lon="4.43983">
        <ele>1213.7</ele>
        <time>2018-08-19T11:47:15.000Z</time>
      </trkpt>
      <trkpt lat="45.30788" lon="4.43983">
        <ele>1213.7</ele>
        <time>2018-08-19T11:47:16.000Z</time>
      </trkpt>
      <trkpt lat="45.30788" lon="4.43983">
        <ele>1213.7</ele>
        <time>2018-08-19T11:47:17.000Z</time>
      </trkpt>
      <trkpt lat="45.30788" lon="4.43983">
        <ele>1213.7</ele>
        <time>2018-08-19T11:47:18.000Z</time>
      </trkpt>
      <trkpt lat="45.30788" lon="4.43983">
        <ele>1213.7</ele>
        <time>2018-08-19T11:47:19.000Z</time>
      </trkpt>
      <trkpt lat="45.30788" lon="4.43983">
        <ele>1213.7</ele>
        <time>2018-08-19T11:47:20.000Z</time>
      </trkpt>
      <trkpt lat="45.30788" lon="4.43983">
        <ele>1213.7</ele>
        <time>2018-08-19T11:47:21.000Z</time>
      </trkpt>
      <trkpt lat="45.30788" lon="4.43983">
        <ele>1213.7</ele>
        <time>2018-08-19T11:47:22.000Z</time>
      </trkpt>
      <trkpt lat="45.30788" lon="4.43983">
        <ele>1213.7</ele>
        <time>2018-08-19T11:47:23.000Z</time>
      </trkpt>
      <trkpt lat="45.30788" lon="4.43983">
        <ele>1213.7</ele>
        <time>2018-08-19T11:47:24.000Z</time>
      </trkpt>
      <trkpt lat="45.30788" lon="4.43983">
        <ele>1213.7</ele>
        <time>2018-08-19T11:47:25.000Z</time>
      </trkpt>
      <trkpt lat="45.30788" lon="4.43983">
        <ele>1213.7</ele>
        <time>2018-08-19T11:47:26.000Z</time>
      </trkpt>
      <trkpt lat="45.30788" lon="4.43983">
        <ele>1213.7</ele>
        <time>2018-08-19T11:47:27.000Z</time>
      </trkpt>
      <trkpt lat="45.30788" lon="4.43983">
        <ele>1213.7</ele>
        <time>2018-08-19T11:47:28.000Z</time>
      </trkpt>
      <trkpt lat="45.30788" lon="4.43983">
        <ele>1213.7</ele>
        <time>2018-08-19T11:47:29.000Z</time>
      </trkpt>
      <trkpt lat="45.30788" lon="4.43983">
        <ele>1213.7</ele>
        <time>2018-08-19T11:47:30.000Z</time>
      </trkpt>
      <trkpt lat="45.30788" lon="4.43983">
        <ele>1213.7</ele>
        <time>2018-08-19T11:47:31.000Z</time>
      </trkpt>
      <trkpt lat="45.30788" lon="4.43983">
        <ele>1213.7</ele>
        <time>2018-08-19T11:47:32.000Z</time>
      </trkpt>
      <trkpt lat="45.30788" lon="4.43983">
        <ele>1213.7</ele>
        <time>2018-08-19T11:47:33.000Z</time>
      </trkpt>
      <trkpt lat="45.30788" lon="4.43983">
        <ele>1213.7</ele>
        <time>2018-08-19T11:47:34.000Z</time>
      </trkpt>
      <trkpt lat="45.30788" lon="4.43983">
        <ele>1213.7</ele>
        <time>2018-08-19T11:47:35.000Z</time>
      </trkpt>
      <trkpt lat="45.30788" lon="4.43983">
        <ele>1213.7</ele>
        <time>2018-08-19T11:47:36.000Z</time>
      </trkpt>
      <trkpt lat="45.30788" lon="4.43983">
        <ele>1213.7</ele>
        <time>2018-08-19T11:47:37.000Z</time>
      </trkpt>
      <trkpt lat="45.30788" lon="4.43983">
        <ele>1213.7</ele>
        <time>2018-08-19T11:47:38.000Z</time>
      </trkpt>
      <trkpt lat="45.30788" lon="4.43983">
        <ele>1213.7</ele>
        <time>2018-08-19T11:47:39.000Z</time>
      </trkpt>
      <trkpt lat="45.30788" lon="4.43983">
        <ele>1213.7</ele>
        <time>2018-08-19T11:47:40.000Z</time>
      </trkpt>
      <trkpt lat="45.30788" lon="4.43983">
        <ele>1213.7</ele>
        <time>2018-08-19T11:47:41.000Z</time>
      </trkpt>
      <trkpt lat="45.30788" lon="4.43983">
        <ele>1213.7</ele>
        <time>2018-08-19T11:47:42.000Z</time>
      </trkpt>
      <trkpt lat="45.30788" lon="4.43983">
        <ele>1213.7</ele>
        <time>2018-08-19T11:47:43.000Z</time>
      </trkpt>
      <trkpt lat="45.30788" lon="4.43983">
        <ele>1213.7</ele>
        <time>2018-08-19T11:47:44.000Z</time>
      </trkpt>
      <trkpt lat="45.30788" lon="4.43983">
        <ele>1213.7</ele>
        <time>2018-08-19T11:47:45.000Z</time>
      </trkpt>
      <trkpt lat="45.30788" lon="4.43983">
        <ele>1213.7</ele>
        <time>2018-08-19T11:47:46.000Z</time>
      </trkpt>
      <trkpt lat="45.30788" lon="4.43983">
        <ele>1213.7</ele>
        <time>2018-08-19T11:47:47.000Z</time>
      </trkpt>
      <trkpt lat="45.30788" lon="4.43983">
        <ele>1213.7</ele>
        <time>2018-08-19T11:47:48.000Z</time>
      </trkpt>
      <trkpt lat="45.30788" lon="4.43983">
        <ele>1213.7</ele>
        <time>2018-08-19T11:47:49.000Z</time>
      </trkpt>
      <trkpt lat="45.30788" lon="4.43983">
        <ele>1213.7</ele>
        <time>2018-08-19T11:47:50.000Z</time>
      </trkpt>
      <trkpt lat="45.30788" lon="4.43983">
        <ele>1213.7</ele>
        <time>2018-08-19T11:47:51.000Z</time>
      </trkpt>
      <trkpt lat="45.30788" lon="4.43983">
        <ele>1213.7</ele>
        <time>2018-08-19T11:47:52.000Z</time>
      </trkpt>
      <trkpt lat="45.30788" lon="4.43983">
        <ele>1213.7</ele>
        <time>2018-08-19T11:47:53.000Z</time>
      </trkpt>
      <trkpt lat="45.30788" lon="4.43983">
        <ele>1213.7</ele>
        <time>2018-08-19T11:47:54.000Z</time>
      </trkpt>
      <trkpt lat="45.30788" lon="4.43983">
        <ele>1213.7</ele>
        <time>2018-08-19T11:47:55.000Z</time>
      </trkpt>
      <trkpt lat="45.30788" lon="4.43983">
        <ele>1213.7</ele>
        <time>2018-08-19T11:47:56.000Z</time>
      </trkpt>
      <trkpt lat="45.30788" lon="4.43983">
        <ele>1213.7</ele>
        <time>2018-08-19T11:47:57.000Z</time>
      </trkpt>
      <trkpt lat="45.30788" lon="4.43983">
        <ele>1213.7</ele>
        <time>2018-08-19T11:47:58.000Z</time>
      </trkpt>
      <trkpt lat="45.30788" lon="4.43983">
        <ele>1213.7</ele>
        <time>2018-08-19T11:47:59.000Z</time>
      </trkpt>
      <trkpt lat="45.30788" lon="4.43983">
        <ele>1213.7</ele>
        <time>2018-08-19T11:48:00.000Z</time>
      </trkpt>
      <trkpt lat="45.30788" lon="4.43983">
        <ele>1213.7</ele>
        <time>2018-08-19T11:48:01.000Z</time>
      </trkpt>
      <trkpt lat="45.30788" lon="4.43983">
        <ele>1213.7</ele>
        <time>2018-08-19T11:48:02.000Z</time>
      </trkpt>
      <trkpt lat="45.30788" lon="4.43983">
        <ele>1213.7</ele>
        <time>2018-08-19T11:48:03.000Z</time>
      </trkpt>
      <trkpt lat="45.30788" lon="4.43983">
        <ele>1213.7</ele>
        <time>2018-08-19T11:48:04.000Z</time>
      </trkpt>
      <trkpt lat="45.30788" lon="4.43983">
        <ele>1213.7</ele>
        <time>2018-08-19T11:48:05.000Z</time>
      </trkpt>
      <trkpt lat="45.30788" lon="4.43983">
        <ele>1213.7</ele>
        <time>2018-08-19T11:48:06.000Z</time>
      </trkpt>
      <trkpt lat="45.30788" lon="4.43983">
        <ele>1213.7</ele>
        <time>2018-08-19T11:48:07.000Z</time>
      </trkpt>
      <trkpt lat="45.30788" lon="4.43983">
        <ele>1213.7</ele>
        <time>2018-08-19T11:48:08.000Z</time>
      </trkpt>
      <trkpt lat="45.30788" lon="4.43983">
        <ele>1213.7</ele>
        <time>2018-08-19T11:48:09.000Z</time>
      </trkpt>
      <trkpt lat="45.30788" lon="4.43983">
        <ele>1213.7</ele>
        <time>2018-08-19T11:48:10.000Z</time>
      </trkpt>
      <trkpt lat="45.30788" lon="4.43983">
        <ele>1213.7</ele>
        <time>2018-08-19T11:48:11.000Z</time>
      </trkpt>
      <trkpt lat="45.30788" lon="4.43983">
        <ele>1213.7</ele>
        <time>2018-08-19T11:48:12.000Z</time>
      </trkpt>
      <trkpt lat="45.30788" lon="4.43983">
        <ele>1213.7</ele>
        <time>2018-08-19T11:48:13.000Z</time>
      </trkpt>
      <trkpt lat="45.30788" lon="4.43983">
        <ele>1213.7</ele>
        <time>2018-08-19T11:48:14.000Z</time>
      </trkpt>
      <trkpt lat="45.30788" lon="4.43983">
        <ele>1213.7</ele>
        <time>2018-08-19T11:48:15.000Z</time>
      </trkpt>
      <trkpt lat="45.30788" lon="4.43983">
        <ele>1213.7</ele>
        <time>2018-08-19T11:48:16.000Z</time>
      </trkpt>
      <trkpt lat="45.30788" lon="4.43983">
        <ele>1213.7</ele>
        <time>2018-08-19T11:48:17.000Z</time>
      </trkpt>
      <trkpt lat="45.30788" lon="4.43983">
        <ele>1213.7</ele>
        <time>2018-08-19T11:48:18.000Z</time>
      </trkpt>
      <trkpt lat="45.30788" lon="4.43983">
        <ele>1213.7</ele>
        <time>2018-08-19T11:48:19.000Z</time>
      </trkpt>
      <trkpt lat="45.30788" lon="4.43983">
        <ele>1213.7</ele>
        <time>2018-08-19T11:48:20.000Z</time>
      </trkpt>
      <trkpt lat="45.30788" lon="4.43983">
        <ele>1213.7</ele>
        <time>2018-08-19T11:48:21.000Z</time>
      </trkpt>
      <trkpt lat="45.30788" lon="4.43983">
        <ele>1213.7</ele>
        <time>2018-08-19T11:48:22.000Z</time>
      </trkpt>
      <trkpt lat="45.30788" lon="4.43983">
        <ele>1213.7</ele>
        <time>2018-08-19T11:48:23.000Z</time>
      </trkpt>
      <trkpt lat="45.30788" lon="4.43983">
        <ele>1213.7</ele>
        <time>2018-08-19T11:48:24.000Z</time>
      </trkpt>
      <trkpt lat="45.30788" lon="4.43983">
        <ele>1213.7</ele>
        <time>2018-08-19T11:48:25.000Z</time>
      </trkpt>
      <trkpt lat="45.30788" lon="4.43983">
        <ele>1213.7</ele>
        <time>2018-08-19T11:48:26.000Z</time>
      </trkpt>
      <trkpt lat="45.30788" lon="4.43983">
        <ele>1213.7</ele>
        <time>2018-08-19T11:48:27.000Z</time>
      </trkpt>
      <trkpt lat="45.30788" lon="4.43983">
        <ele>1213.7</ele>
        <time>2018-08-19T11:48:28.000Z</time>
      </trkpt>
      <trkpt lat="45.30788" lon="4.43983">
        <ele>1213.7</ele>
        <time>2018-08-19T11:48:29.000Z</time>
      </trkpt>
      <trkpt lat="45.30788" lon="4.43983">
        <ele>1213.7</ele>
        <time>2018-08-19T11:48:30.000Z</time>
      </trkpt>
      <trkpt lat="45.30788" lon="4.43983">
        <ele>1213.7</ele>
        <time>2018-08-19T11:48:31.000Z</time>
      </trkpt>
      <trkpt lat="45.30788" lon="4.43983">
        <ele>1213.7</ele>
        <time>2018-08-19T11:48:32.000Z</time>
      </trkpt>
      <trkpt lat="45.30788" lon="4.43983">
        <ele>1213.7</ele>
        <time>2018-08-19T11:48:33.000Z</time>
      </trkpt>
      <trkpt lat="45.30788" lon="4.43983">
        <ele>1213.7</ele>
        <time>2018-08-19T11:48:34.000Z</time>
      </trkpt>
      <trkpt lat="45.30788" lon="4.43983">
        <ele>1213.7</ele>
        <time>2018-08-19T11:48:35.000Z</time>
      </trkpt>
      <trkpt lat="45.30788" lon="4.43983">
        <ele>1213.7</ele>
        <time>2018-08-19T11:48:36.000Z</time>
      </trkpt>
      <trkpt lat="45.30788" lon="4.43983">
        <ele>1213.7</ele>
        <time>2018-08-19T11:48:37.000Z</time>
      </trkpt>
      <trkpt lat="45.30788" lon="4.43983">
        <ele>1213.7</ele>
        <time>2018-08-19T11:48:38.000Z</time>
      </trkpt>
      <trkpt lat="45.30788" lon="4.43983">
        <ele>1213.7</ele>
        <time>2018-08-19T11:48:39.000Z</time>
      </trkpt>
      <trkpt lat="45.30788" lon="4.43983">
        <ele>1213.7</ele>
        <time>2018-08-19T11:48:40.000Z</time>
      </trkpt>
      <trkpt lat="45.30788" lon="4.43983">
        <ele>1213.7</ele>
        <time>2018-08-19T11:48:41.000Z</time>
      </trkpt>
      <trkpt lat="45.30788" lon="4.43983">
        <ele>1213.7</ele>
        <time>2018-08-19T11:48:42.000Z</time>
      </trkpt>
      <trkpt lat="45.30788" lon="4.43983">
        <ele>1213.7</ele>
        <time>2018-08-19T11:48:43.000Z</time>
      </trkpt>
      <trkpt lat="45.30788" lon="4.43983">
        <ele>1213.7</ele>
        <time>2018-08-19T11:48:44.000Z</time>
      </trkpt>
      <trkpt lat="45.30788" lon="4.43983">
        <ele>1213.7</ele>
        <time>2018-08-19T11:48:45.000Z</time>
      </trkpt>
      <trkpt lat="45.30788" lon="4.43983">
        <ele>1213.7</ele>
        <time>2018-08-19T11:48:46.000Z</time>
      </trkpt>
      <trkpt lat="45.30788" lon="4.43983">
        <ele>1213.7</ele>
        <time>2018-08-19T11:48:47.000Z</time>
      </trkpt>
      <trkpt lat="45.30788" lon="4.43983">
        <ele>1213.7</ele>
        <time>2018-08-19T11:48:48.000Z</time>
      </trkpt>
      <trkpt lat="45.30788" lon="4.43983">
        <ele>1213.7</ele>
        <time>2018-08-19T11:48:49.000Z</time>
      </trkpt>
      <trkpt lat="45.30788" lon="4.43983">
        <ele>1213.7</ele>
        <time>2018-08-19T11:48:50.000Z</time>
      </trkpt>
      <trkpt lat="45.30788" lon="4.43983">
        <ele>1213.7</ele>
        <time>2018-08-19T11:48:51.000Z</time>
      </trkpt>
      <trkpt lat="45.30788" lon="4.43983">
        <ele>1213.7</ele>
        <time>2018-08-19T11:48:52.000Z</time>
      </trkpt>
      <trkpt lat="45.30788" lon="4.43983">
        <ele>1213.7</ele>
        <time>2018-08-19T11:48:53.000Z</time>
      </trkpt>
      <trkpt lat="45.30788" lon="4.43983">
        <ele>1213.7</ele>
        <time>2018-08-19T11:48:54.000Z</time>
      </trkpt>
      <trkpt lat="45.30788" lon="4.43983">
        <ele>1213.7</ele>
        <time>2018-08-19T11:48:55.000Z</time>
      </trkpt>
      <trkpt lat="45.30788" lon="4.43983">
        <ele>1213.7</ele>
        <time>2018-08-19T11:48:56.000Z</time>
      </trkpt>
      <trkpt lat="45.30788" lon="4.43983">
        <ele>1213.7</ele>
        <time>2018-08-19T11:48:57.000Z</time>
      </trkpt>
      <trkpt lat="45.30788" lon="4.43983">
        <ele>1213.7</ele>
        <time>2018-08-19T11:48:58.000Z</time>
      </trkpt>
      <trkpt lat="45.30788" lon="4.43983">
        <ele>1213.7</ele>
        <time>2018-08-19T11:48:59.000Z</time>
      </trkpt>
      <trkpt lat="45.30788" lon="4.43983">
        <ele>1213.7</ele>
        <time>2018-08-19T11:49:00.000Z</time>
      </trkpt>
      <trkpt lat="45.30788" lon="4.43983">
        <ele>1213.7</ele>
        <time>2018-08-19T11:49:01.000Z</time>
      </trkpt>
      <trkpt lat="45.30788" lon="4.43983">
        <ele>1213.7</ele>
        <time>2018-08-19T11:49:02.000Z</time>
      </trkpt>
      <trkpt lat="45.30788" lon="4.43983">
        <ele>1213.7</ele>
        <time>2018-08-19T11:49:03.000Z</time>
      </trkpt>
      <trkpt lat="45.30788" lon="4.43983">
        <ele>1213.7</ele>
        <time>2018-08-19T11:49:04.000Z</time>
      </trkpt>
      <trkpt lat="45.30788" lon="4.43983">
        <ele>1213.7</ele>
        <time>2018-08-19T11:49:05.000Z</time>
      </trkpt>
      <trkpt lat="45.30788" lon="4.43983">
        <ele>1213.7</ele>
        <time>2018-08-19T11:49:06.000Z</time>
      </trkpt>
      <trkpt lat="45.30788" lon="4.43983">
        <ele>1213.7</ele>
        <time>2018-08-19T11:49:07.000Z</time>
      </trkpt>
      <trkpt lat="45.30788" lon="4.43983">
        <ele>1213.7</ele>
        <time>2018-08-19T11:49:08.000Z</time>
      </trkpt>
      <trkpt lat="45.30788" lon="4.43983">
        <ele>1213.7</ele>
        <time>2018-08-19T11:49:09.000Z</time>
      </trkpt>
      <trkpt lat="45.30788" lon="4.43983">
        <ele>1213.7</ele>
        <time>2018-08-19T11:49:10.000Z</time>
      </trkpt>
      <trkpt lat="45.30788" lon="4.43983">
        <ele>1213.7</ele>
        <time>2018-08-19T11:49:11.000Z</time>
      </trkpt>
      <trkpt lat="45.30788" lon="4.43983">
        <ele>1213.7</ele>
        <time>2018-08-19T11:49:12.000Z</time>
      </trkpt>
      <trkpt lat="45.30788" lon="4.43983">
        <ele>1213.7</ele>
        <time>2018-08-19T11:49:13.000Z</time>
      </trkpt>
      <trkpt lat="45.30788" lon="4.43983">
        <ele>1213.7</ele>
        <time>2018-08-19T11:49:14.000Z</time>
      </trkpt>
      <trkpt lat="45.30788" lon="4.43983">
        <ele>1213.7</ele>
        <time>2018-08-19T11:49:15.000Z</time>
      </trkpt>
      <trkpt lat="45.30788" lon="4.43983">
        <ele>1213.7</ele>
        <time>2018-08-19T11:49:16.000Z</time>
      </trkpt>
      <trkpt lat="45.30788" lon="4.43983">
        <ele>1213.7</ele>
        <time>2018-08-19T11:49:17.000Z</time>
      </trkpt>
      <trkpt lat="45.30788" lon="4.43983">
        <ele>1213.7</ele>
        <time>2018-08-19T11:49:18.000Z</time>
      </trkpt>
      <trkpt lat="45.30788" lon="4.43983">
        <ele>1213.7</ele>
        <time>2018-08-19T11:49:19.000Z</time>
      </trkpt>
      <trkpt lat="45.30788" lon="4.43983">
        <ele>1213.7</ele>
        <time>2018-08-19T11:49:20.000Z</time>
      </trkpt>
      <trkpt lat="45.30788" lon="4.43983">
        <ele>1213.7</ele>
        <time>2018-08-19T11:49:21.000Z</time>
      </trkpt>
      <trkpt lat="45.30788" lon="4.43983">
        <ele>1213.7</ele>
        <time>2018-08-19T11:49:22.000Z</time>
      </trkpt>
      <trkpt lat="45.30788" lon="4.43983">
        <ele>1213.7</ele>
        <time>2018-08-19T11:49:23.000Z</time>
      </trkpt>
      <trkpt lat="45.30788" lon="4.43983">
        <ele>1213.7</ele>
        <time>2018-08-19T11:49:24.000Z</time>
      </trkpt>
      <trkpt lat="45.30788" lon="4.43983">
        <ele>1213.7</ele>
        <time>2018-08-19T11:49:25.000Z</time>
      </trkpt>
      <trkpt lat="45.30788" lon="4.43983">
        <ele>1213.7</ele>
        <time>2018-08-19T11:49:26.000Z</time>
      </trkpt>
      <trkpt lat="45.30788" lon="4.43983">
        <ele>1213.7</ele>
        <time>2018-08-19T11:49:27.000Z</time>
      </trkpt>
      <trkpt lat="45.30788" lon="4.43983">
        <ele>1213.7</ele>
        <time>2018-08-19T11:49:28.000Z</time>
      </trkpt>
      <trkpt lat="45.30788" lon="4.43983">
        <ele>1213.7</ele>
        <time>2018-08-19T11:49:29.000Z</time>
      </trkpt>
      <trkpt lat="45.30788" lon="4.43983">
        <ele>1213.7</ele>
        <time>2018-08-19T11:49:30.000Z</time>
      </trkpt>
      <trkpt lat="45.30788" lon="4.43983">
        <ele>1213.7</ele>
        <time>2018-08-19T11:49:31.000Z</time>
      </trkpt>
      <trkpt lat="45.30788" lon="4.43983">
        <ele>1213.7</ele>
        <time>2018-08-19T11:49:32.000Z</time>
      </trkpt>
      <trkpt lat="45.30788" lon="4.43983">
        <ele>1213.7</ele>
        <time>2018-08-19T11:49:33.000Z</time>
      </trkpt>
      <trkpt lat="45.30788" lon="4.43983">
        <ele>1213.7</ele>
        <time>2018-08-19T11:49:34.000Z</time>
      </trkpt>
      <trkpt lat="45.30788" lon="4.43983">
        <ele>1213.7</ele>
        <time>2018-08-19T11:49:35.000Z</time>
      </trkpt>
      <trkpt lat="45.30788" lon="4.43983">
        <ele>1213.7</ele>
        <time>2018-08-19T11:49:36.000Z</time>
      </trkpt>
      <trkpt lat="45.30788" lon="4.43983">
        <ele>1213.7</ele>
        <time>2018-08-19T11:49:37.000Z</time>
      </trkpt>
      <trkpt lat="45.30788" lon="4.43983">
        <ele>1213.7</ele>
        <time>2018-08-19T11:49:38.000Z</time>
      </trkpt>
      <trkpt lat="45.30788" lon="4.43983">
        <ele>1213.7</ele>
        <time>2018-08-19T11:49:39.000Z</time>
      </trkpt>
      <trkpt lat="45.30788" lon="4.43983">
        <ele>1213.7</ele>
        <time>2018-08-19T11:49:40.000Z</time>
      </trkpt>
      <trkpt lat="45.30788" lon="4.43983">
        <ele>1213.7</ele>
        <time>2018-08-19T11:49:41.000Z</time>
      </trkpt>
      <trkpt lat="45.30788" lon="4.43983">
        <ele>1213.7</ele>
        <time>2018-08-19T11:49:42.000Z</time>
      </trkpt>
      <trkpt lat="45.30788" lon="4.43983">
        <ele>1213.7</ele>
        <time>2018-08-19T11:49:43.000Z</time>
      </trkpt>
      <trkpt lat="45.30788" lon="4.43983">
        <ele>1213.7</ele>
        <time>2018-08-19T11:49:44.000Z</time>
      </trkpt>
      <trkpt lat="45.30788" lon="4.43983">
        <ele>1213.7</ele>
        <time>2018-08-19T11:49:45.000Z</time>
      </trkpt>
      <trkpt lat="45.30788" lon="4.43983">
        <ele>1213.7</ele>
        <time>2018-08-19T11:49:46.000Z</time>
      </trkpt>
      <trkpt lat="45.30788" lon="4.43983">
        <ele>1213.7</ele>
        <time>2018-08-19T11:49:47.000Z</time>
      </trkpt>
      <trkpt lat="45.30788" lon="4.43983">
        <ele>1213.7</ele>
        <time>2018-08-19T11:49:48.000Z</time>
      </trkpt>
      <trkpt lat="45.30788" lon="4.43983">
        <ele>1213.7</ele>
        <time>2018-08-19T11:49:49.000Z</time>
      </trkpt>
      <trkpt lat="45.30788" lon="4.43983">
        <ele>1213.7</ele>
        <time>2018-08-19T11:49:50.000Z</time>
      </trkpt>
      <trkpt lat="45.30788" lon="4.43983">
        <ele>1213.7</ele>
        <time>2018-08-19T11:49:51.000Z</time>
      </trkpt>
      <trkpt lat="45.30788" lon="4.43983">
        <ele>1213.7</ele>
        <time>2018-08-19T11:49:52.000Z</time>
      </trkpt>
      <trkpt lat="45.30788" lon="4.43983">
        <ele>1213.7</ele>
        <time>2018-08-19T11:49:53.000Z</time>
      </trkpt>
      <trkpt lat="45.30788" lon="4.43983">
        <ele>1213.7</ele>
        <time>2018-08-19T11:49:54.000Z</time>
      </trkpt>
      <trkpt lat="45.30788" lon="4.43983">
        <ele>1213.7</ele>
        <time>2018-08-19T11:49:55.000Z</time>
      </trkpt>
      <trkpt lat="45.30788" lon="4.43983">
        <ele>1213.7</ele>
        <time>2018-08-19T11:49:56.000Z</time>
      </trkpt>
      <trkpt lat="45.30788" lon="4.43983">
        <ele>1213.7</ele>
        <time>2018-08-19T11:49:57.000Z</time>
      </trkpt>
      <trkpt lat="45.30788" lon="4.43982">
        <ele>1213.7</ele>
        <time>2018-08-19T11:49:58.000Z</time>
      </trkpt>
      <trkpt lat="45.30788" lon="4.43982">
        <ele>1213.7</ele>
        <time>2018-08-19T11:49:59.000Z</time>
      </trkpt>
      <trkpt lat="45.30788" lon="4.43982">
        <ele>1213.7</ele>
        <time>2018-08-19T11:50:00.000Z</time>
      </trkpt>
      <trkpt lat="45.30788" lon="4.43982">
        <ele>1213.7</ele>
        <time>2018-08-19T11:50:01.000Z</time>
      </trkpt>
      <trkpt lat="45.30788" lon="4.43982">
        <ele>1213.7</ele>
        <time>2018-08-19T11:50:02.000Z</time>
      </trkpt>
      <trkpt lat="45.30788" lon="4.43982">
        <ele>1213.7</ele>
        <time>2018-08-19T11:50:03.000Z</time>
      </trkpt>
      <trkpt lat="45.30788" lon="4.43982">
        <ele>1213.6</ele>
        <time>2018-08-19T11:50:04.000Z</time>
      </trkpt>
      <trkpt lat="45.30788" lon="4.43982">
        <ele>1213.6</ele>
        <time>2018-08-19T11:50:05.000Z</time>
      </trkpt>
      <trkpt lat="45.30788" lon="4.43982">
        <ele>1213.6</ele>
        <time>2018-08-19T11:50:06.000Z</time>
      </trkpt>
      <trkpt lat="45.30788" lon="4.43982">
        <ele>1213.6</ele>
        <time>2018-08-19T11:50:07.000Z</time>
      </trkpt>
      <trkpt lat="45.30788" lon="4.43982">
        <ele>1213.6</ele>
        <time>2018-08-19T11:50:08.000Z</time>
      </trkpt>
      <trkpt lat="45.30788" lon="4.43982">
        <ele>1213.6</ele>
        <time>2018-08-19T11:50:09.000Z</time>
      </trkpt>
      <trkpt lat="45.30788" lon="4.43982">
        <ele>1213.6</ele>
        <time>2018-08-19T11:50:10.000Z</time>
      </trkpt>
      <trkpt lat="45.30788" lon="4.43982">
        <ele>1213.6</ele>
        <time>2018-08-19T11:50:11.000Z</time>
      </trkpt>
      <trkpt lat="45.30788" lon="4.43982">
        <ele>1213.6</ele>
        <time>2018-08-19T11:50:12.000Z</time>
      </trkpt>
      <trkpt lat="45.30788" lon="4.43982">
        <ele>1213.6</ele>
        <time>2018-08-19T11:50:13.000Z</time>
      </trkpt>
      <trkpt lat="45.30788" lon="4.43982">
        <ele>1213.6</ele>
        <time>2018-08-19T11:50:14.000Z</time>
      </trkpt>
      <trkpt lat="45.30788" lon="4.43982">
        <ele>1213.6</ele>
        <time>2018-08-19T11:50:15.000Z</time>
      </trkpt>
      <trkpt lat="45.30788" lon="4.43982">
        <ele>1213.6</ele>
        <time>2018-08-19T11:50:16.000Z</time>
      </trkpt>
      <trkpt lat="45.30788" lon="4.43982">
        <ele>1213.6</ele>
        <time>2018-08-19T11:50:17.000Z</time>
      </trkpt>
      <trkpt lat="45.30788" lon="4.43982">
        <ele>1213.6</ele>
        <time>2018-08-19T11:50:18.000Z</time>
      </trkpt>
      <trkpt lat="45.30788" lon="4.43982">
        <ele>1213.6</ele>
        <time>2018-08-19T11:50:19.000Z</time>
      </trkpt>
      <trkpt lat="45.30788" lon="4.43982">
        <ele>1213.6</ele>
        <time>2018-08-19T11:50:20.000Z</time>
      </trkpt>
      <trkpt lat="45.30788" lon="4.43982">
        <ele>1213.6</ele>
        <time>2018-08-19T11:50:21.000Z</time>
      </trkpt>
      <trkpt lat="45.30788" lon="4.43982">
        <ele>1213.7</ele>
        <time>2018-08-19T11:50:22.000Z</time>
      </trkpt>
      <trkpt lat="45.30788" lon="4.43983">
        <ele>1213.7</ele>
        <time>2018-08-19T11:50:23.000Z</time>
      </trkpt>
      <trkpt lat="45.30788" lon="4.43983">
        <ele>1213.7</ele>
        <time>2018-08-19T11:50:24.000Z</time>
      </trkpt>
      <trkpt lat="45.30788" lon="4.43983">
        <ele>1213.8</ele>
        <time>2018-08-19T11:50:25.000Z</time>
      </trkpt>
      <trkpt lat="45.30788" lon="4.43983">
        <ele>1213.8</ele>
        <time>2018-08-19T11:50:26.000Z</time>
      </trkpt>
      <trkpt lat="45.30788" lon="4.43983">
        <ele>1213.8</ele>
        <time>2018-08-19T11:50:27.000Z</time>
      </trkpt>
      <trkpt lat="45.30788" lon="4.43983">
        <ele>1213.8</ele>
        <time>2018-08-19T11:50:28.000Z</time>
      </trkpt>
      <trkpt lat="45.30788" lon="4.43984">
        <ele>1213.8</ele>
        <time>2018-08-19T11:50:29.000Z</time>
      </trkpt>
      <trkpt lat="45.30788" lon="4.43984">
        <ele>1213.8</ele>
        <time>2018-08-19T11:50:30.000Z</time>
      </trkpt>
      <trkpt lat="45.30788" lon="4.43984">
        <ele>1213.8</ele>
        <time>2018-08-19T11:50:31.000Z</time>
      </trkpt>
      <trkpt lat="45.30789" lon="4.43984">
        <ele>1213.8</ele>
        <time>2018-08-19T11:50:32.000Z</time>
      </trkpt>
      <trkpt lat="45.30789" lon="4.43984">
        <ele>1213.8</ele>
        <time>2018-08-19T11:50:33.000Z</time>
      </trkpt>
      <trkpt lat="45.30789" lon="4.43984">
        <ele>1213.8</ele>
        <time>2018-08-19T11:50:34.000Z</time>
      </trkpt>
      <trkpt lat="45.3079" lon="4.43984">
        <ele>1213.8</ele>
        <time>2018-08-19T11:50:35.000Z</time>
      </trkpt>
      <trkpt lat="45.3079" lon="4.43984">
        <ele>1213.8</ele>
        <time>2018-08-19T11:50:36.000Z</time>
      </trkpt>
      <trkpt lat="45.3079" lon="4.43985">
        <ele>1213.9</ele>
        <time>2018-08-19T11:50:37.000Z</time>
      </trkpt>
      <trkpt lat="45.3079" lon="4.43985">
        <ele>1213.9</ele>
        <time>2018-08-19T11:50:38.000Z</time>
      </trkpt>
      <trkpt lat="45.3079" lon="4.43986">
        <ele>1214</ele>
        <time>2018-08-19T11:50:39.000Z</time>
      </trkpt>
      <trkpt lat="45.30791" lon="4.43987">
        <ele>1214.1</ele>
        <time>2018-08-19T11:50:40.000Z</time>
      </trkpt>
      <trkpt lat="45.30791" lon="4.43988">
        <ele>1214.3</ele>
        <time>2018-08-19T11:50:41.000Z</time>
      </trkpt>
      <trkpt lat="45.3079" lon="4.43989">
        <ele>1214.4</ele>
        <time>2018-08-19T11:50:42.000Z</time>
      </trkpt>
      <trkpt lat="45.3079" lon="4.4399">
        <ele>1214.5</ele>
        <time>2018-08-19T11:50:43.000Z</time>
      </trkpt>
      <trkpt lat="45.3079" lon="4.43991">
        <ele>1214.6</ele>
        <time>2018-08-19T11:50:44.000Z</time>
      </trkpt>
      <trkpt lat="45.30789" lon="4.43992">
        <ele>1214.7</ele>
        <time>2018-08-19T11:50:45.000Z</time>
      </trkpt>
      <trkpt lat="45.30788" lon="4.43993">
        <ele>1214.8</ele>
        <time>2018-08-19T11:50:46.000Z</time>
      </trkpt>
      <trkpt lat="45.30788" lon="4.43993">
        <ele>1214.8</ele>
        <time>2018-08-19T11:50:47.000Z</time>
      </trkpt>
      <trkpt lat="45.30788" lon="4.43994">
        <ele>1214.9</ele>
        <time>2018-08-19T11:50:48.000Z</time>
      </trkpt>
      <trkpt lat="45.30788" lon="4.43995">
        <ele>1215</ele>
        <time>2018-08-19T11:50:49.000Z</time>
      </trkpt>
      <trkpt lat="45.30788" lon="4.43996">
        <ele>1215.1</ele>
        <time>2018-08-19T11:50:50.000Z</time>
      </trkpt>
      <trkpt lat="45.30788" lon="4.43997">
        <ele>1215.3</ele>
        <time>2018-08-19T11:50:51.000Z</time>
      </trkpt>
      <trkpt lat="45.30789" lon="4.43998">
        <ele>1215.4</ele>
        <time>2018-08-19T11:50:52.000Z</time>
      </trkpt>
      <trkpt lat="45.30789" lon="4.43999">
        <ele>1215.4</ele>
        <time>2018-08-19T11:50:53.000Z</time>
      </trkpt>
      <trkpt lat="45.30789" lon="4.44">
        <ele>1215.5</ele>
        <time>2018-08-19T11:50:54.000Z</time>
      </trkpt>
      <trkpt lat="45.3079" lon="4.44001">
        <ele>1215.6</ele>
        <time>2018-08-19T11:50:55.000Z</time>
      </trkpt>
      <trkpt lat="45.30791" lon="4.44002">
        <ele>1215.6</ele>
        <time>2018-08-19T11:50:56.000Z</time>
      </trkpt>
      <trkpt lat="45.30791" lon="4.44003">
        <ele>1215.6</ele>
        <time>2018-08-19T11:50:57.000Z</time>
      </trkpt>
      <trkpt lat="45.30792" lon="4.44003">
        <ele>1215.7</ele>
        <time>2018-08-19T11:50:58.000Z</time>
      </trkpt>
      <trkpt lat="45.30793" lon="4.44004">
        <ele>1215.7</ele>
        <time>2018-08-19T11:50:59.000Z</time>
      </trkpt>
      <trkpt lat="45.30794" lon="4.44005">
        <ele>1215.7</ele>
        <time>2018-08-19T11:51:00.000Z</time>
      </trkpt>
      <trkpt lat="45.30795" lon="4.44006">
        <ele>1215.8</ele>
        <time>2018-08-19T11:51:01.000Z</time>
      </trkpt>
      <trkpt lat="45.30795" lon="4.44007">
        <ele>1215.8</ele>
        <time>2018-08-19T11:51:02.000Z</time>
      </trkpt>
      <trkpt lat="45.30796" lon="4.44008">
        <ele>1215.9</ele>
        <time>2018-08-19T11:51:03.000Z</time>
      </trkpt>
      <trkpt lat="45.30797" lon="4.44009">
        <ele>1215.9</ele>
        <time>2018-08-19T11:51:04.000Z</time>
      </trkpt>
      <trkpt lat="45.30798" lon="4.4401">
        <ele>1216</ele>
        <time>2018-08-19T11:51:05.000Z</time>
      </trkpt>
      <trkpt lat="45.30798" lon="4.44011">
        <ele>1216</ele>
        <time>2018-08-19T11:51:06.000Z</time>
      </trkpt>
      <trkpt lat="45.30799" lon="4.44012">
        <ele>1216.1</ele>
        <time>2018-08-19T11:51:07.000Z</time>
      </trkpt>
      <trkpt lat="45.30799" lon="4.44013">
        <ele>1216.1</ele>
        <time>2018-08-19T11:51:08.000Z</time>
      </trkpt>
      <trkpt lat="45.308" lon="4.44015">
        <ele>1216.2</ele>
        <time>2018-08-19T11:51:09.000Z</time>
      </trkpt>
      <trkpt lat="45.30801" lon="4.44016">
        <ele>1216.3</ele>
        <time>2018-08-19T11:51:10.000Z</time>
      </trkpt>
      <trkpt lat="45.30801" lon="4.44017">
        <ele>1216.3</ele>
        <time>2018-08-19T11:51:11.000Z</time>
      </trkpt>
      <trkpt lat="45.30802" lon="4.44019">
        <ele>1216.4</ele>
        <time>2018-08-19T11:51:12.000Z</time>
      </trkpt>
      <trkpt lat="45.30802" lon="4.4402">
        <ele>1216.5</ele>
        <time>2018-08-19T11:51:13.000Z</time>
      </trkpt>
      <trkpt lat="45.30803" lon="4.44022">
        <ele>1216.6</ele>
        <time>2018-08-19T11:51:14.000Z</time>
      </trkpt>
      <trkpt lat="45.30803" lon="4.44023">
        <ele>1216.6</ele>
        <time>2018-08-19T11:51:15.000Z</time>
      </trkpt>
      <trkpt lat="45.30804" lon="4.44024">
        <ele>1216.7</ele>
        <time>2018-08-19T11:51:16.000Z</time>
      </trkpt>
      <trkpt lat="45.30804" lon="4.44026">
        <ele>1216.8</ele>
        <time>2018-08-19T11:51:17.000Z</time>
      </trkpt>
      <trkpt lat="45.30805" lon="4.44027">
        <ele>1216.9</ele>
        <time>2018-08-19T11:51:18.000Z</time>
      </trkpt>
      <trkpt lat="45.30805" lon="4.44028">
        <ele>1216.9</ele>
        <time>2018-08-19T11:51:19.000Z</time>
      </trkpt>
      <trkpt lat="45.30806" lon="4.4403">
        <ele>1217</ele>
        <time>2018-08-19T11:51:20.000Z</time>
      </trkpt>
      <trkpt lat="45.30806" lon="4.44031">
        <ele>1217</ele>
        <time>2018-08-19T11:51:21.000Z</time>
      </trkpt>
      <trkpt lat="45.30807" lon="4.44032">
        <ele>1217.1</ele>
        <time>2018-08-19T11:51:22.000Z</time>
      </trkpt>
      <trkpt lat="45.30807" lon="4.44033">
        <ele>1217.2</ele>
        <time>2018-08-19T11:51:23.000Z</time>
      </trkpt>
      <trkpt lat="45.30808" lon="4.44034">
        <ele>1217.2</ele>
        <time>2018-08-19T11:51:24.000Z</time>
      </trkpt>
      <trkpt lat="45.30808" lon="4.44036">
        <ele>1217.3</ele>
        <time>2018-08-19T11:51:25.000Z</time>
      </trkpt>
      <trkpt lat="45.30809" lon="4.44037">
        <ele>1217.4</ele>
        <time>2018-08-19T11:51:26.000Z</time>
      </trkpt>
      <trkpt lat="45.30809" lon="4.44038">
        <ele>1217.4</ele>
        <time>2018-08-19T11:51:27.000Z</time>
      </trkpt>
      <trkpt lat="45.30809" lon="4.44039">
        <ele>1217.5</ele>
        <time>2018-08-19T11:51:28.000Z</time>
      </trkpt>
      <trkpt lat="45.3081" lon="4.4404">
        <ele>1217.5</ele>
        <time>2018-08-19T11:51:29.000Z</time>
      </trkpt>
      <trkpt lat="45.3081" lon="4.44041">
        <ele>1217.6</ele>
        <time>2018-08-19T11:51:30.000Z</time>
      </trkpt>
      <trkpt lat="45.30811" lon="4.44041">
        <ele>1217.6</ele>
        <time>2018-08-19T11:51:31.000Z</time>
      </trkpt>
      <trkpt lat="45.30812" lon="4.44042">
        <ele>1217.6</ele>
        <time>2018-08-19T11:51:32.000Z</time>
      </trkpt>
      <trkpt lat="45.30813" lon="4.44042">
        <ele>1217.6</ele>
        <time>2018-08-19T11:51:33.000Z</time>
      </trkpt>
      <trkpt lat="45.30813" lon="4.44042">
        <ele>1217.6</ele>
        <time>2018-08-19T11:51:34.000Z</time>
      </trkpt>
      <trkpt lat="45.30814" lon="4.44042">
        <ele>1217.6</ele>
        <time>2018-08-19T11:51:35.000Z</time>
      </trkpt>
      <trkpt lat="45.30814" lon="4.44042">
        <ele>1217.6</ele>
        <time>2018-08-19T11:51:36.000Z</time>
      </trkpt>
      <trkpt lat="45.30814" lon="4.44042">
        <ele>1217.6</ele>
        <time>2018-08-19T11:51:37.000Z</time>
      </trkpt>
      <trkpt lat="45.30815" lon="4.44041">
        <ele>1217.6</ele>
        <time>2018-08-19T11:51:38.000Z</time>
      </trkpt>
      <trkpt lat="45.30815" lon="4.44041">
        <ele>1217.6</ele>
        <time>2018-08-19T11:51:39.000Z</time>
      </trkpt>
      <trkpt lat="45.30816" lon="4.44042">
        <ele>1217.6</ele>
        <time>2018-08-19T11:51:40.000Z</time>
      </trkpt>
      <trkpt lat="45.30817" lon="4.44042">
        <ele>1217.6</ele>
        <time>2018-08-19T11:51:41.000Z</time>
      </trkpt>
      <trkpt lat="45.30818" lon="4.44043">
        <ele>1217.7</ele>
        <time>2018-08-19T11:51:42.000Z</time>
      </trkpt>
      <trkpt lat="45.30818" lon="4.44043">
        <ele>1217.7</ele>
        <time>2018-08-19T11:51:43.000Z</time>
      </trkpt>
      <trkpt lat="45.30819" lon="4.44044">
        <ele>1217.7</ele>
        <time>2018-08-19T11:51:44.000Z</time>
      </trkpt>
      <trkpt lat="45.3082" lon="4.44044">
        <ele>1217.7</ele>
        <time>2018-08-19T11:51:45.000Z</time>
      </trkpt>
      <trkpt lat="45.30821" lon="4.44045">
        <ele>1217.8</ele>
        <time>2018-08-19T11:51:46.000Z</time>
      </trkpt>
      <trkpt lat="45.30822" lon="4.44045">
        <ele>1217.8</ele>
        <time>2018-08-19T11:51:47.000Z</time>
      </trkpt>
      <trkpt lat="45.30823" lon="4.44045">
        <ele>1217.8</ele>
        <time>2018-08-19T11:51:48.000Z</time>
      </trkpt>
      <trkpt lat="45.30824" lon="4.44045">
        <ele>1217.8</ele>
        <time>2018-08-19T11:51:49.000Z</time>
      </trkpt>
      <trkpt lat="45.30825" lon="4.44046">
        <ele>1217.8</ele>
        <time>2018-08-19T11:51:50.000Z</time>
      </trkpt>
      <trkpt lat="45.30826" lon="4.44046">
        <ele>1217.8</ele>
        <time>2018-08-19T11:51:51.000Z</time>
      </trkpt>
      <trkpt lat="45.30827" lon="4.44046">
        <ele>1217.8</ele>
        <time>2018-08-19T11:51:52.000Z</time>
      </trkpt>
      <trkpt lat="45.30828" lon="4.44046">
        <ele>1217.8</ele>
        <time>2018-08-19T11:51:53.000Z</time>
      </trkpt>
      <trkpt lat="45.30829" lon="4.44046">
        <ele>1217.8</ele>
        <time>2018-08-19T11:51:54.000Z</time>
      </trkpt>
      <trkpt lat="45.3083" lon="4.44047">
        <ele>1217.8</ele>
        <time>2018-08-19T11:51:55.000Z</time>
      </trkpt>
      <trkpt lat="45.30831" lon="4.44047">
        <ele>1217.8</ele>
        <time>2018-08-19T11:51:56.000Z</time>
      </trkpt>
      <trkpt lat="45.30832" lon="4.44047">
        <ele>1217.8</ele>
        <time>2018-08-19T11:51:57.000Z</time>
      </trkpt>
      <trkpt lat="45.30834" lon="4.44047">
        <ele>1217.8</ele>
        <time>2018-08-19T11:51:58.000Z</time>
      </trkpt>
      <trkpt lat="45.30835" lon="4.44048">
        <ele>1217.7</ele>
        <time>2018-08-19T11:51:59.000Z</time>
      </trkpt>
      <trkpt lat="45.30836" lon="4.44048">
        <ele>1217.6</ele>
        <time>2018-08-19T11:52:00.000Z</time>
      </trkpt>
      <trkpt lat="45.30837" lon="4.44048">
        <ele>1217.5</ele>
        <time>2018-08-19T11:52:01.000Z</time>
      </trkpt>
      <trkpt lat="45.30838" lon="4.44048">
        <ele>1217.4</ele>
        <time>2018-08-19T11:52:02.000Z</time>
      </trkpt>
      <trkpt lat="45.30839" lon="4.44048">
        <ele>1217.3</ele>
        <time>2018-08-19T11:52:03.000Z</time>
      </trkpt>
      <trkpt lat="45.3084" lon="4.44048">
        <ele>1217.1</ele>
        <time>2018-08-19T11:52:04.000Z</time>
      </trkpt>
      <trkpt lat="45.30841" lon="4.44048">
        <ele>1217</ele>
        <time>2018-08-19T11:52:05.000Z</time>
      </trkpt>
      <trkpt lat="45.30842" lon="4.44048">
        <ele>1216.9</ele>
        <time>2018-08-19T11:52:06.000Z</time>
      </trkpt>
      <trkpt lat="45.30843" lon="4.44048">
        <ele>1216.8</ele>
        <time>2018-08-19T11:52:07.000Z</time>
      </trkpt>
      <trkpt lat="45.30844" lon="4.44048">
        <ele>1216.7</ele>
        <time>2018-08-19T11:52:08.000Z</time>
      </trkpt>
      <trkpt lat="45.30845" lon="4.44048">
        <ele>1216.6</ele>
        <time>2018-08-19T11:52:09.000Z</time>
      </trkpt>
      <trkpt lat="45.30846" lon="4.44048">
        <ele>1216.4</ele>
        <time>2018-08-19T11:52:10.000Z</time>
      </trkpt>
      <trkpt lat="45.30847" lon="4.44048">
        <ele>1216.3</ele>
        <time>2018-08-19T11:52:11.000Z</time>
      </trkpt>
      <trkpt lat="45.30848" lon="4.44048">
        <ele>1216.2</ele>
        <time>2018-08-19T11:52:12.000Z</time>
      </trkpt>
      <trkpt lat="45.30849" lon="4.44048">
        <ele>1216.1</ele>
        <time>2018-08-19T11:52:13.000Z</time>
      </trkpt>
      <trkpt lat="45.3085" lon="4.44048">
        <ele>1216</ele>
        <time>2018-08-19T11:52:14.000Z</time>
      </trkpt>
      <trkpt lat="45.30851" lon="4.44048">
        <ele>1215.9</ele>
        <time>2018-08-19T11:52:15.000Z</time>
      </trkpt>
      <trkpt lat="45.30852" lon="4.44048">
        <ele>1215.7</ele>
        <time>2018-08-19T11:52:16.000Z</time>
      </trkpt>
      <trkpt lat="45.30853" lon="4.44048">
        <ele>1215.6</ele>
        <time>2018-08-19T11:52:17.000Z</time>
      </trkpt>
      <trkpt lat="45.30854" lon="4.44048">
        <ele>1215.5</ele>
        <time>2018-08-19T11:52:18.000Z</time>
      </trkpt>
      <trkpt lat="45.30855" lon="4.44048">
        <ele>1215.4</ele>
        <time>2018-08-19T11:52:19.000Z</time>
      </trkpt>
      <trkpt lat="45.30856" lon="4.44048">
        <ele>1215.3</ele>
        <time>2018-08-19T11:52:20.000Z</time>
      </trkpt>
      <trkpt lat="45.30857" lon="4.44048">
        <ele>1215.2</ele>
        <time>2018-08-19T11:52:21.000Z</time>
      </trkpt>
      <trkpt lat="45.30858" lon="4.44048">
        <ele>1215.1</ele>
        <time>2018-08-19T11:52:22.000Z</time>
      </trkpt>
      <trkpt lat="45.30859" lon="4.44047">
        <ele>1215</ele>
        <time>2018-08-19T11:52:23.000Z</time>
      </trkpt>
      <trkpt lat="45.3086" lon="4.44047">
        <ele>1214.9</ele>
        <time>2018-08-19T11:52:24.000Z</time>
      </trkpt>
      <trkpt lat="45.3086" lon="4.44047">
        <ele>1214.8</ele>
        <time>2018-08-19T11:52:25.000Z</time>
      </trkpt>
      <trkpt lat="45.30861" lon="4.44046">
        <ele>1214.7</ele>
        <time>2018-08-19T11:52:26.000Z</time>
      </trkpt>
      <trkpt lat="45.30861" lon="4.44046">
        <ele>1214.5</ele>
        <time>2018-08-19T11:52:27.000Z</time>
      </trkpt>
      <trkpt lat="45.30862" lon="4.44045">
        <ele>1214.5</ele>
        <time>2018-08-19T11:52:28.000Z</time>
      </trkpt>
      <trkpt lat="45.30862" lon="4.44045">
        <ele>1214.4</ele>
        <time>2018-08-19T11:52:29.000Z</time>
      </trkpt>
      <trkpt lat="45.30863" lon="4.44044">
        <ele>1214.3</ele>
        <time>2018-08-19T11:52:30.000Z</time>
      </trkpt>
      <trkpt lat="45.30863" lon="4.44043">
        <ele>1214.2</ele>
        <time>2018-08-19T11:52:31.000Z</time>
      </trkpt>
      <trkpt lat="45.30864" lon="4.44043">
        <ele>1214.1</ele>
        <time>2018-08-19T11:52:32.000Z</time>
      </trkpt>
      <trkpt lat="45.30864" lon="4.44042">
        <ele>1214</ele>
        <time>2018-08-19T11:52:33.000Z</time>
      </trkpt>
      <trkpt lat="45.30865" lon="4.44041">
        <ele>1213.8</ele>
        <time>2018-08-19T11:52:34.000Z</time>
      </trkpt>
      <trkpt lat="45.30865" lon="4.4404">
        <ele>1213.7</ele>
        <time>2018-08-19T11:52:35.000Z</time>
      </trkpt>
      <trkpt lat="45.30866" lon="4.44039">
        <ele>1213.6</ele>
        <time>2018-08-19T11:52:36.000Z</time>
      </trkpt>
      <trkpt lat="45.30867" lon="4.44038">
        <ele>1213.4</ele>
        <time>2018-08-19T11:52:37.000Z</time>
      </trkpt>
      <trkpt lat="45.30867" lon="4.44036">
        <ele>1213.3</ele>
        <time>2018-08-19T11:52:38.000Z</time>
      </trkpt>
      <trkpt lat="45.30868" lon="4.44035">
        <ele>1213.2</ele>
        <time>2018-08-19T11:52:39.000Z</time>
      </trkpt>
      <trkpt lat="45.30868" lon="4.44034">
        <ele>1213</ele>
        <time>2018-08-19T11:52:40.000Z</time>
      </trkpt>
      <trkpt lat="45.30869" lon="4.44033">
        <ele>1212.9</ele>
        <time>2018-08-19T11:52:41.000Z</time>
      </trkpt>
      <trkpt lat="45.30869" lon="4.44032">
        <ele>1212.8</ele>
        <time>2018-08-19T11:52:42.000Z</time>
      </trkpt>
      <trkpt lat="45.3087" lon="4.44031">
        <ele>1212.6</ele>
        <time>2018-08-19T11:52:43.000Z</time>
      </trkpt>
      <trkpt lat="45.3087" lon="4.4403">
        <ele>1212.5</ele>
        <time>2018-08-19T11:52:44.000Z</time>
      </trkpt>
      <trkpt lat="45.30871" lon="4.44029">
        <ele>1212.4</ele>
        <time>2018-08-19T11:52:45.000Z</time>
      </trkpt>
      <trkpt lat="45.30871" lon="4.44027">
        <ele>1212.2</ele>
        <time>2018-08-19T11:52:46.000Z</time>
      </trkpt>
      <trkpt lat="45.30872" lon="4.44026">
        <ele>1212.1</ele>
        <time>2018-08-19T11:52:47.000Z</time>
      </trkpt>
      <trkpt lat="45.30872" lon="4.44025">
        <ele>1212</ele>
        <time>2018-08-19T11:52:48.000Z</time>
      </trkpt>
      <trkpt lat="45.30873" lon="4.44024">
        <ele>1211.9</ele>
        <time>2018-08-19T11:52:49.000Z</time>
      </trkpt>
      <trkpt lat="45.30873" lon="4.44023">
        <ele>1211.7</ele>
        <time>2018-08-19T11:52:50.000Z</time>
      </trkpt>
      <trkpt lat="45.30874" lon="4.44022">
        <ele>1211.6</ele>
        <time>2018-08-19T11:52:51.000Z</time>
      </trkpt>
      <trkpt lat="45.30874" lon="4.4402">
        <ele>1211.5</ele>
        <time>2018-08-19T11:52:52.000Z</time>
      </trkpt>
      <trkpt lat="45.30875" lon="4.44019">
        <ele>1211.3</ele>
        <time>2018-08-19T11:52:53.000Z</time>
      </trkpt>
      <trkpt lat="45.30875" lon="4.44018">
        <ele>1211.2</ele>
        <time>2018-08-19T11:52:54.000Z</time>
      </trkpt>
      <trkpt lat="45.30876" lon="4.44017">
        <ele>1211</ele>
        <time>2018-08-19T11:52:55.000Z</time>
      </trkpt>
      <trkpt lat="45.30876" lon="4.44016">
        <ele>1210.9</ele>
        <time>2018-08-19T11:52:56.000Z</time>
      </trkpt>
      <trkpt lat="45.30877" lon="4.44015">
        <ele>1210.8</ele>
        <time>2018-08-19T11:52:57.000Z</time>
      </trkpt>
      <trkpt lat="45.30878" lon="4.44015">
        <ele>1210.7</ele>
        <time>2018-08-19T11:52:58.000Z</time>
      </trkpt>
      <trkpt lat="45.30878" lon="4.44014">
        <ele>1210.5</ele>
        <time>2018-08-19T11:52:59.000Z</time>
      </trkpt>
      <trkpt lat="45.30879" lon="4.44013">
        <ele>1210.4</ele>
        <time>2018-08-19T11:53:00.000Z</time>
      </trkpt>
      <trkpt lat="45.3088" lon="4.44012">
        <ele>1210.2</ele>
        <time>2018-08-19T11:53:01.000Z</time>
      </trkpt>
      <trkpt lat="45.3088" lon="4.44011">
        <ele>1210.1</ele>
        <time>2018-08-19T11:53:02.000Z</time>
      </trkpt>
      <trkpt lat="45.30881" lon="4.4401">
        <ele>1210</ele>
        <time>2018-08-19T11:53:03.000Z</time>
      </trkpt>
      <trkpt lat="45.30882" lon="4.44009">
        <ele>1209.8</ele>
        <time>2018-08-19T11:53:04.000Z</time>
      </trkpt>
      <trkpt lat="45.30882" lon="4.44009">
        <ele>1209.7</ele>
        <time>2018-08-19T11:53:05.000Z</time>
      </trkpt>
      <trkpt lat="45.30883" lon="4.44008">
        <ele>1209.5</ele>
        <time>2018-08-19T11:53:06.000Z</time>
      </trkpt>
      <trkpt lat="45.30884" lon="4.44007">
        <ele>1209.4</ele>
        <time>2018-08-19T11:53:07.000Z</time>
      </trkpt>
      <trkpt lat="45.30885" lon="4.44006">
        <ele>1209.2</ele>
        <time>2018-08-19T11:53:08.000Z</time>
      </trkpt>
      <trkpt lat="45.30885" lon="4.44005">
        <ele>1209.1</ele>
        <time>2018-08-19T11:53:09.000Z</time>
      </trkpt>
      <trkpt lat="45.30886" lon="4.44004">
        <ele>1208.9</ele>
        <time>2018-08-19T11:53:10.000Z</time>
      </trkpt>
      <trkpt lat="45.30887" lon="4.44003">
        <ele>1208.8</ele>
        <time>2018-08-19T11:53:11.000Z</time>
      </trkpt>
      <trkpt lat="45.30888" lon="4.44002">
        <ele>1208.6</ele>
        <time>2018-08-19T11:53:12.000Z</time>
      </trkpt>
      <trkpt lat="45.30888" lon="4.44001">
        <ele>1208.5</ele>
        <time>2018-08-19T11:53:13.000Z</time>
      </trkpt>
      <trkpt lat="45.30889" lon="4.44">
        <ele>1208.3</ele>
        <time>2018-08-19T11:53:14.000Z</time>
      </trkpt>
      <trkpt lat="45.3089" lon="4.43999">
        <ele>1208.1</ele>
        <time>2018-08-19T11:53:15.000Z</time>
      </trkpt>
      <trkpt lat="45.3089" lon="4.43997">
        <ele>1207.9</ele>
        <time>2018-08-19T11:53:16.000Z</time>
      </trkpt>
      <trkpt lat="45.30891" lon="4.43996">
        <ele>1207.6</ele>
        <time>2018-08-19T11:53:17.000Z</time>
      </trkpt>
      <trkpt lat="45.30892" lon="4.43995">
        <ele>1207.4</ele>
        <time>2018-08-19T11:53:18.000Z</time>
      </trkpt>
      <trkpt lat="45.30892" lon="4.43994">
        <ele>1207.2</ele>
        <time>2018-08-19T11:53:19.000Z</time>
      </trkpt>
      <trkpt lat="45.30893" lon="4.43994">
        <ele>1207</ele>
        <time>2018-08-19T11:53:20.000Z</time>
      </trkpt>
      <trkpt lat="45.30894" lon="4.43993">
        <ele>1206.9</ele>
        <time>2018-08-19T11:53:21.000Z</time>
      </trkpt>
      <trkpt lat="45.30895" lon="4.43992">
        <ele>1206.7</ele>
        <time>2018-08-19T11:53:22.000Z</time>
      </trkpt>
      <trkpt lat="45.30895" lon="4.43991">
        <ele>1206.5</ele>
        <time>2018-08-19T11:53:23.000Z</time>
      </trkpt>
      <trkpt lat="45.30896" lon="4.4399">
        <ele>1206.3</ele>
        <time>2018-08-19T11:53:24.000Z</time>
      </trkpt>
      <trkpt lat="45.30897" lon="4.4399">
        <ele>1206.1</ele>
        <time>2018-08-19T11:53:25.000Z</time>
      </trkpt>
      <trkpt lat="45.30898" lon="4.43989">
        <ele>1205.9</ele>
        <time>2018-08-19T11:53:26.000Z</time>
      </trkpt>
      <trkpt lat="45.30899" lon="4.43988">
        <ele>1205.7</ele>
        <time>2018-08-19T11:53:27.000Z</time>
      </trkpt>
      <trkpt lat="45.309" lon="4.43988">
        <ele>1205.6</ele>
        <time>2018-08-19T11:53:28.000Z</time>
      </trkpt>
      <trkpt lat="45.30901" lon="4.43987">
        <ele>1205.4</ele>
        <time>2018-08-19T11:53:29.000Z</time>
      </trkpt>
      <trkpt lat="45.30902" lon="4.43987">
        <ele>1205.2</ele>
        <time>2018-08-19T11:53:30.000Z</time>
      </trkpt>
      <trkpt lat="45.30903" lon="4.43987">
        <ele>1205.1</ele>
        <time>2018-08-19T11:53:31.000Z</time>
      </trkpt>
      <trkpt lat="45.30904" lon="4.43986">
        <ele>1204.9</ele>
        <time>2018-08-19T11:53:32.000Z</time>
      </trkpt>
      <trkpt lat="45.30905" lon="4.43986">
        <ele>1204.7</ele>
        <time>2018-08-19T11:53:33.000Z</time>
      </trkpt>
      <trkpt lat="45.30906" lon="4.43985">
        <ele>1204.6</ele>
        <time>2018-08-19T11:53:34.000Z</time>
      </trkpt>
      <trkpt lat="45.30906" lon="4.43985">
        <ele>1204.4</ele>
        <time>2018-08-19T11:53:35.000Z</time>
      </trkpt>
      <trkpt lat="45.30907" lon="4.43984">
        <ele>1204.2</ele>
        <time>2018-08-19T11:53:36.000Z</time>
      </trkpt>
      <trkpt lat="45.30908" lon="4.43984">
        <ele>1204.1</ele>
        <time>2018-08-19T11:53:37.000Z</time>
      </trkpt>
      <trkpt lat="45.30909" lon="4.43983">
        <ele>1203.9</ele>
        <time>2018-08-19T11:53:38.000Z</time>
      </trkpt>
      <trkpt lat="45.30909" lon="4.43982">
        <ele>1203.7</ele>
        <time>2018-08-19T11:53:39.000Z</time>
      </trkpt>
      <trkpt lat="45.3091" lon="4.43981">
        <ele>1203.6</ele>
        <time>2018-08-19T11:53:40.000Z</time>
      </trkpt>
      <trkpt lat="45.30911" lon="4.43981">
        <ele>1203.4</ele>
        <time>2018-08-19T11:53:41.000Z</time>
      </trkpt>
      <trkpt lat="45.30912" lon="4.4398">
        <ele>1203.2</ele>
        <time>2018-08-19T11:53:42.000Z</time>
      </trkpt>
      <trkpt lat="45.30912" lon="4.43979">
        <ele>1203</ele>
        <time>2018-08-19T11:53:43.000Z</time>
      </trkpt>
      <trkpt lat="45.30913" lon="4.43978">
        <ele>1202.8</ele>
        <time>2018-08-19T11:53:44.000Z</time>
      </trkpt>
      <trkpt lat="45.30914" lon="4.43977">
        <ele>1202.6</ele>
        <time>2018-08-19T11:53:45.000Z</time>
      </trkpt>
      <trkpt lat="45.30914" lon="4.43976">
        <ele>1202.4</ele>
        <time>2018-08-19T11:53:46.000Z</time>
      </trkpt>
      <trkpt lat="45.30915" lon="4.43975">
        <ele>1202.2</ele>
        <time>2018-08-19T11:53:47.000Z</time>
      </trkpt>
      <trkpt lat="45.30915" lon="4.43974">
        <ele>1202</ele>
        <time>2018-08-19T11:53:48.000Z</time>
      </trkpt>
      <trkpt lat="45.30916" lon="4.43973">
        <ele>1201.8</ele>
        <time>2018-08-19T11:53:49.000Z</time>
      </trkpt>
      <trkpt lat="45.30917" lon="4.43971">
        <ele>1201.6</ele>
        <time>2018-08-19T11:53:50.000Z</time>
      </trkpt>
      <trkpt lat="45.30917" lon="4.4397">
        <ele>1201.3</ele>
        <time>2018-08-19T11:53:51.000Z</time>
      </trkpt>
      <trkpt lat="45.30918" lon="4.43969">
        <ele>1201.1</ele>
        <time>2018-08-19T11:53:52.000Z</time>
      </trkpt>
      <trkpt lat="45.30919" lon="4.43968">
        <ele>1200.9</ele>
        <time>2018-08-19T11:53:53.000Z</time>
      </trkpt>
      <trkpt lat="45.30919" lon="4.43967">
        <ele>1200.6</ele>
        <time>2018-08-19T11:53:54.000Z</time>
      </trkpt>
      <trkpt lat="45.3092" lon="4.43966">
        <ele>1200.4</ele>
        <time>2018-08-19T11:53:55.000Z</time>
      </trkpt>
      <trkpt lat="45.30921" lon="4.43966">
        <ele>1200.2</ele>
        <time>2018-08-19T11:53:56.000Z</time>
      </trkpt>
      <trkpt lat="45.30922" lon="4.43965">
        <ele>1200</ele>
        <time>2018-08-19T11:53:57.000Z</time>
      </trkpt>
      <trkpt lat="45.30923" lon="4.43964">
        <ele>1199.8</ele>
        <time>2018-08-19T11:53:58.000Z</time>
      </trkpt>
      <trkpt lat="45.30924" lon="4.43964">
        <ele>1199.6</ele>
        <time>2018-08-19T11:53:59.000Z</time>
      </trkpt>
      <trkpt lat="45.30924" lon="4.43963">
        <ele>1199.4</ele>
        <time>2018-08-19T11:54:00.000Z</time>
      </trkpt>
      <trkpt lat="45.30925" lon="4.43963">
        <ele>1199.2</ele>
        <time>2018-08-19T11:54:01.000Z</time>
      </trkpt>
      <trkpt lat="45.30926" lon="4.43962">
        <ele>1199</ele>
        <time>2018-08-19T11:54:02.000Z</time>
      </trkpt>
      <trkpt lat="45.30927" lon="4.43961">
        <ele>1198.8</ele>
        <time>2018-08-19T11:54:03.000Z</time>
      </trkpt>
      <trkpt lat="45.30928" lon="4.43961">
        <ele>1198.5</ele>
        <time>2018-08-19T11:54:04.000Z</time>
      </trkpt>
      <trkpt lat="45.30929" lon="4.4396">
        <ele>1198.3</ele>
        <time>2018-08-19T11:54:05.000Z</time>
      </trkpt>
      <trkpt lat="45.3093" lon="4.43959">
        <ele>1198.1</ele>
        <time>2018-08-19T11:54:06.000Z</time>
      </trkpt>
      <trkpt lat="45.30931" lon="4.43959">
        <ele>1197.9</ele>
        <time>2018-08-19T11:54:07.000Z</time>
      </trkpt>
      <trkpt lat="45.30932" lon="4.43958">
        <ele>1197.6</ele>
        <time>2018-08-19T11:54:08.000Z</time>
      </trkpt>
      <trkpt lat="45.30933" lon="4.43957">
        <ele>1197.4</ele>
        <time>2018-08-19T11:54:09.000Z</time>
      </trkpt>
      <trkpt lat="45.30933" lon="4.43956">
        <ele>1197.1</ele>
        <time>2018-08-19T11:54:10.000Z</time>
      </trkpt>
      <trkpt lat="45.30934" lon="4.43955">
        <ele>1196.9</ele>
        <time>2018-08-19T11:54:11.000Z</time>
      </trkpt>
      <trkpt lat="45.30935" lon="4.43954">
        <ele>1196.7</ele>
        <time>2018-08-19T11:54:12.000Z</time>
      </trkpt>
      <trkpt lat="45.30936" lon="4.43954">
        <ele>1196.5</ele>
        <time>2018-08-19T11:54:13.000Z</time>
      </trkpt>
      <trkpt lat="45.30936" lon="4.43953">
        <ele>1196.3</ele>
        <time>2018-08-19T11:54:14.000Z</time>
      </trkpt>
      <trkpt lat="45.30937" lon="4.43952">
        <ele>1196.1</ele>
        <time>2018-08-19T11:54:15.000Z</time>
      </trkpt>
      <trkpt lat="45.30938" lon="4.43951">
        <ele>1195.7</ele>
        <time>2018-08-19T11:54:16.000Z</time>
      </trkpt>
      <trkpt lat="45.30939" lon="4.43949">
        <ele>1195.4</ele>
        <time>2018-08-19T11:54:17.000Z</time>
      </trkpt>
      <trkpt lat="45.3094" lon="4.43949">
        <ele>1195.1</ele>
        <time>2018-08-19T11:54:18.000Z</time>
      </trkpt>
      <trkpt lat="45.30941" lon="4.43948">
        <ele>1195</ele>
        <time>2018-08-19T11:54:19.000Z</time>
      </trkpt>
      <trkpt lat="45.30941" lon="4.43947">
        <ele>1194.8</ele>
        <time>2018-08-19T11:54:20.000Z</time>
      </trkpt>
      <trkpt lat="45.30942" lon="4.43946">
        <ele>1194.6</ele>
        <time>2018-08-19T11:54:21.000Z</time>
      </trkpt>
      <trkpt lat="45.30943" lon="4.43945">
        <ele>1194.4</ele>
        <time>2018-08-19T11:54:22.000Z</time>
      </trkpt>
      <trkpt lat="45.30943" lon="4.43944">
        <ele>1194.1</ele>
        <time>2018-08-19T11:54:23.000Z</time>
      </trkpt>
      <trkpt lat="45.30944" lon="4.43943">
        <ele>1193.9</ele>
        <time>2018-08-19T11:54:24.000Z</time>
      </trkpt>
      <trkpt lat="45.30945" lon="4.43942">
        <ele>1193.7</ele>
        <time>2018-08-19T11:54:25.000Z</time>
      </trkpt>
      <trkpt lat="45.30945" lon="4.43941">
        <ele>1193.4</ele>
        <time>2018-08-19T11:54:26.000Z</time>
      </trkpt>
      <trkpt lat="45.30946" lon="4.4394">
        <ele>1193.2</ele>
        <time>2018-08-19T11:54:27.000Z</time>
      </trkpt>
      <trkpt lat="45.30947" lon="4.43939">
        <ele>1193</ele>
        <time>2018-08-19T11:54:28.000Z</time>
      </trkpt>
      <trkpt lat="45.30948" lon="4.43938">
        <ele>1192.8</ele>
        <time>2018-08-19T11:54:29.000Z</time>
      </trkpt>
      <trkpt lat="45.30948" lon="4.43937">
        <ele>1192.6</ele>
        <time>2018-08-19T11:54:30.000Z</time>
      </trkpt>
      <trkpt lat="45.30949" lon="4.43937">
        <ele>1192.4</ele>
        <time>2018-08-19T11:54:31.000Z</time>
      </trkpt>
      <trkpt lat="45.3095" lon="4.43936">
        <ele>1192.2</ele>
        <time>2018-08-19T11:54:32.000Z</time>
      </trkpt>
      <trkpt lat="45.3095" lon="4.43935">
        <ele>1192</ele>
        <time>2018-08-19T11:54:33.000Z</time>
      </trkpt>
      <trkpt lat="45.30951" lon="4.43935">
        <ele>1191.8</ele>
        <time>2018-08-19T11:54:34.000Z</time>
      </trkpt>
      <trkpt lat="45.30952" lon="4.43934">
        <ele>1191.6</ele>
        <time>2018-08-19T11:54:35.000Z</time>
      </trkpt>
      <trkpt lat="45.30952" lon="4.43933">
        <ele>1191.4</ele>
        <time>2018-08-19T11:54:36.000Z</time>
      </trkpt>
      <trkpt lat="45.30953" lon="4.43933">
        <ele>1191.2</ele>
        <time>2018-08-19T11:54:37.000Z</time>
      </trkpt>
      <trkpt lat="45.30954" lon="4.43932">
        <ele>1191.1</ele>
        <time>2018-08-19T11:54:38.000Z</time>
      </trkpt>
      <trkpt lat="45.30955" lon="4.43932">
        <ele>1190.9</ele>
        <time>2018-08-19T11:54:39.000Z</time>
      </trkpt>
      <trkpt lat="45.30956" lon="4.43931">
        <ele>1190.7</ele>
        <time>2018-08-19T11:54:40.000Z</time>
      </trkpt>
      <trkpt lat="45.30956" lon="4.43931">
        <ele>1190.5</ele>
        <time>2018-08-19T11:54:41.000Z</time>
      </trkpt>
      <trkpt lat="45.30957" lon="4.4393">
        <ele>1190.3</ele>
        <time>2018-08-19T11:54:42.000Z</time>
      </trkpt>
      <trkpt lat="45.30958" lon="4.4393">
        <ele>1190.1</ele>
        <time>2018-08-19T11:54:43.000Z</time>
      </trkpt>
      <trkpt lat="45.30959" lon="4.43929">
        <ele>1190</ele>
        <time>2018-08-19T11:54:44.000Z</time>
      </trkpt>
      <trkpt lat="45.3096" lon="4.43929">
        <ele>1189.8</ele>
        <time>2018-08-19T11:54:45.000Z</time>
      </trkpt>
      <trkpt lat="45.3096" lon="4.43929">
        <ele>1189.7</ele>
        <time>2018-08-19T11:54:46.000Z</time>
      </trkpt>
      <trkpt lat="45.30961" lon="4.43929">
        <ele>1189.6</ele>
        <time>2018-08-19T11:54:47.000Z</time>
      </trkpt>
      <trkpt lat="45.30961" lon="4.43929">
        <ele>1189.5</ele>
        <time>2018-08-19T11:54:48.000Z</time>
      </trkpt>
      <trkpt lat="45.30962" lon="4.43929">
        <ele>1189.4</ele>
        <time>2018-08-19T11:54:49.000Z</time>
      </trkpt>
      <trkpt lat="45.30963" lon="4.43928">
        <ele>1189.2</ele>
        <time>2018-08-19T11:54:50.000Z</time>
      </trkpt>
      <trkpt lat="45.30964" lon="4.43928">
        <ele>1189</ele>
        <time>2018-08-19T11:54:51.000Z</time>
      </trkpt>
      <trkpt lat="45.30965" lon="4.43928">
        <ele>1188.8</ele>
        <time>2018-08-19T11:54:52.000Z</time>
      </trkpt>
      <trkpt lat="45.30966" lon="4.43927">
        <ele>1188.6</ele>
        <time>2018-08-19T11:54:53.000Z</time>
      </trkpt>
      <trkpt lat="45.30967" lon="4.43927">
        <ele>1188.4</ele>
        <time>2018-08-19T11:54:54.000Z</time>
      </trkpt>
      <trkpt lat="45.30968" lon="4.43927">
        <ele>1188.2</ele>
        <time>2018-08-19T11:54:55.000Z</time>
      </trkpt>
      <trkpt lat="45.30969" lon="4.43926">
        <ele>1188</ele>
        <time>2018-08-19T11:54:56.000Z</time>
      </trkpt>
      <trkpt lat="45.3097" lon="4.43926">
        <ele>1187.9</ele>
        <time>2018-08-19T11:54:57.000Z</time>
      </trkpt>
      <trkpt lat="45.30971" lon="4.43926">
        <ele>1187.7</ele>
        <time>2018-08-19T11:54:58.000Z</time>
      </trkpt>
      <trkpt lat="45.30972" lon="4.43926">
        <ele>1187.5</ele>
        <time>2018-08-19T11:54:59.000Z</time>
      </trkpt>
      <trkpt lat="45.30973" lon="4.43926">
        <ele>1187.4</ele>
        <time>2018-08-19T11:55:00.000Z</time>
      </trkpt>
      <trkpt lat="45.30974" lon="4.43926">
        <ele>1187.2</ele>
        <time>2018-08-19T11:55:01.000Z</time>
      </trkpt>
      <trkpt lat="45.30975" lon="4.43926">
        <ele>1187.1</ele>
        <time>2018-08-19T11:55:02.000Z</time>
      </trkpt>
      <trkpt lat="45.30976" lon="4.43926">
        <ele>1186.9</ele>
        <time>2018-08-19T11:55:03.000Z</time>
      </trkpt>
      <trkpt lat="45.30977" lon="4.43926">
        <ele>1186.7</ele>
        <time>2018-08-19T11:55:04.000Z</time>
      </trkpt>
      <trkpt lat="45.30978" lon="4.43926">
        <ele>1186.6</ele>
        <time>2018-08-19T11:55:05.000Z</time>
      </trkpt>
      <trkpt lat="45.30979" lon="4.43926">
        <ele>1186.4</ele>
        <time>2018-08-19T11:55:06.000Z</time>
      </trkpt>
      <trkpt lat="45.3098" lon="4.43926">
        <ele>1186.2</ele>
        <time>2018-08-19T11:55:07.000Z</time>
      </trkpt>
      <trkpt lat="45.30981" lon="4.43926">
        <ele>1186.1</ele>
        <time>2018-08-19T11:55:08.000Z</time>
      </trkpt>
      <trkpt lat="45.30982" lon="4.43926">
        <ele>1185.9</ele>
        <time>2018-08-19T11:55:09.000Z</time>
      </trkpt>
      <trkpt lat="45.30983" lon="4.43925">
        <ele>1185.7</ele>
        <time>2018-08-19T11:55:10.000Z</time>
      </trkpt>
      <trkpt lat="45.30984" lon="4.43925">
        <ele>1185.6</ele>
        <time>2018-08-19T11:55:11.000Z</time>
      </trkpt>
      <trkpt lat="45.30984" lon="4.43925">
        <ele>1185.4</ele>
        <time>2018-08-19T11:55:12.000Z</time>
      </trkpt>
      <trkpt lat="45.30985" lon="4.43924">
        <ele>1185.2</ele>
        <time>2018-08-19T11:55:13.000Z</time>
      </trkpt>
      <trkpt lat="45.30986" lon="4.43924">
        <ele>1185</ele>
        <time>2018-08-19T11:55:14.000Z</time>
      </trkpt>
      <trkpt lat="45.30987" lon="4.43923">
        <ele>1184.9</ele>
        <time>2018-08-19T11:55:15.000Z</time>
      </trkpt>
      <trkpt lat="45.30988" lon="4.43923">
        <ele>1184.7</ele>
        <time>2018-08-19T11:55:16.000Z</time>
      </trkpt>
      <trkpt lat="45.30989" lon="4.43922">
        <ele>1184.5</ele>
        <time>2018-08-19T11:55:17.000Z</time>
      </trkpt>
      <trkpt lat="45.30989" lon="4.43922">
        <ele>1184.3</ele>
        <time>2018-08-19T11:55:18.000Z</time>
      </trkpt>
      <trkpt lat="45.3099" lon="4.43921">
        <ele>1184.1</ele>
        <time>2018-08-19T11:55:19.000Z</time>
      </trkpt>
      <trkpt lat="45.30991" lon="4.43921">
        <ele>1183.9</ele>
        <time>2018-08-19T11:55:20.000Z</time>
      </trkpt>
      <trkpt lat="45.30992" lon="4.43921">
        <ele>1183.7</ele>
        <time>2018-08-19T11:55:21.000Z</time>
      </trkpt>
      <trkpt lat="45.30993" lon="4.4392">
        <ele>1183.5</ele>
        <time>2018-08-19T11:55:22.000Z</time>
      </trkpt>
      <trkpt lat="45.30994" lon="4.4392">
        <ele>1183.3</ele>
        <time>2018-08-19T11:55:23.000Z</time>
      </trkpt>
      <trkpt lat="45.30995" lon="4.43919">
        <ele>1183.1</ele>
        <time>2018-08-19T11:55:24.000Z</time>
      </trkpt>
      <trkpt lat="45.30996" lon="4.43919">
        <ele>1182.9</ele>
        <time>2018-08-19T11:55:25.000Z</time>
      </trkpt>
      <trkpt lat="45.30997" lon="4.43918">
        <ele>1182.7</ele>
        <time>2018-08-19T11:55:26.000Z</time>
      </trkpt>
      <trkpt lat="45.30998" lon="4.43918">
        <ele>1182.4</ele>
        <time>2018-08-19T11:55:27.000Z</time>
      </trkpt>
      <trkpt lat="45.30999" lon="4.43918">
        <ele>1182.2</ele>
        <time>2018-08-19T11:55:28.000Z</time>
      </trkpt>
      <trkpt lat="45.31" lon="4.43917">
        <ele>1182</ele>
        <time>2018-08-19T11:55:29.000Z</time>
      </trkpt>
      <trkpt lat="45.31001" lon="4.43917">
        <ele>1181.8</ele>
        <time>2018-08-19T11:55:30.000Z</time>
      </trkpt>
      <trkpt lat="45.31002" lon="4.43916">
        <ele>1181.6</ele>
        <time>2018-08-19T11:55:31.000Z</time>
      </trkpt>
      <trkpt lat="45.31004" lon="4.43916">
        <ele>1181.4</ele>
        <time>2018-08-19T11:55:32.000Z</time>
      </trkpt>
      <trkpt lat="45.31005" lon="4.43916">
        <ele>1181.2</ele>
        <time>2018-08-19T11:55:33.000Z</time>
      </trkpt>
      <trkpt lat="45.31006" lon="4.43915">
        <ele>1181</ele>
        <time>2018-08-19T11:55:34.000Z</time>
      </trkpt>
      <trkpt lat="45.31007" lon="4.43915">
        <ele>1180.8</ele>
        <time>2018-08-19T11:55:35.000Z</time>
      </trkpt>
      <trkpt lat="45.31008" lon="4.43914">
        <ele>1180.7</ele>
        <time>2018-08-19T11:55:36.000Z</time>
      </trkpt>
      <trkpt lat="45.31009" lon="4.43914">
        <ele>1180.5</ele>
        <time>2018-08-19T11:55:37.000Z</time>
      </trkpt>
      <trkpt lat="45.3101" lon="4.43914">
        <ele>1180.3</ele>
        <time>2018-08-19T11:55:38.000Z</time>
      </trkpt>
      <trkpt lat="45.31011" lon="4.43913">
        <ele>1180.1</ele>
        <time>2018-08-19T11:55:39.000Z</time>
      </trkpt>
      <trkpt lat="45.31012" lon="4.43913">
        <ele>1180</ele>
        <time>2018-08-19T11:55:40.000Z</time>
      </trkpt>
      <trkpt lat="45.31013" lon="4.43913">
        <ele>1179.8</ele>
        <time>2018-08-19T11:55:41.000Z</time>
      </trkpt>
      <trkpt lat="45.31014" lon="4.43913">
        <ele>1179.6</ele>
        <time>2018-08-19T11:55:42.000Z</time>
      </trkpt>
      <trkpt lat="45.31015" lon="4.43913">
        <ele>1179.5</ele>
        <time>2018-08-19T11:55:43.000Z</time>
      </trkpt>
      <trkpt lat="45.31016" lon="4.43912">
        <ele>1179.3</ele>
        <time>2018-08-19T11:55:44.000Z</time>
      </trkpt>
      <trkpt lat="45.31017" lon="4.43912">
        <ele>1179.2</ele>
        <time>2018-08-19T11:55:45.000Z</time>
      </trkpt>
      <trkpt lat="45.31018" lon="4.43912">
        <ele>1179</ele>
        <time>2018-08-19T11:55:46.000Z</time>
      </trkpt>
      <trkpt lat="45.31019" lon="4.43912">
        <ele>1178.9</ele>
        <time>2018-08-19T11:55:47.000Z</time>
      </trkpt>
      <trkpt lat="45.3102" lon="4.43911">
        <ele>1178.7</ele>
        <time>2018-08-19T11:55:48.000Z</time>
      </trkpt>
      <trkpt lat="45.31021" lon="4.43911">
        <ele>1178.5</ele>
        <time>2018-08-19T11:55:49.000Z</time>
      </trkpt>
      <trkpt lat="45.31022" lon="4.4391">
        <ele>1178.4</ele>
        <time>2018-08-19T11:55:50.000Z</time>
      </trkpt>
      <trkpt lat="45.31022" lon="4.4391">
        <ele>1178.2</ele>
        <time>2018-08-19T11:55:51.000Z</time>
      </trkpt>
      <trkpt lat="45.31023" lon="4.43909">
        <ele>1178</ele>
        <time>2018-08-19T11:55:52.000Z</time>
      </trkpt>
      <trkpt lat="45.31024" lon="4.43909">
        <ele>1177.8</ele>
        <time>2018-08-19T11:55:53.000Z</time>
      </trkpt>
      <trkpt lat="45.31025" lon="4.43908">
        <ele>1177.6</ele>
        <time>2018-08-19T11:55:54.000Z</time>
      </trkpt>
      <trkpt lat="45.31026" lon="4.43908">
        <ele>1177.4</ele>
        <time>2018-08-19T11:55:55.000Z</time>
      </trkpt>
      <trkpt lat="45.31027" lon="4.43907">
        <ele>1177.2</ele>
        <time>2018-08-19T11:55:56.000Z</time>
      </trkpt>
      <trkpt lat="45.31028" lon="4.43906">
        <ele>1177</ele>
        <time>2018-08-19T11:55:57.000Z</time>
      </trkpt>
      <trkpt lat="45.31029" lon="4.43905">
        <ele>1176.8</ele>
        <time>2018-08-19T11:55:58.000Z</time>
      </trkpt>
      <trkpt lat="45.3103" lon="4.43905">
        <ele>1176.5</ele>
        <time>2018-08-19T11:55:59.000Z</time>
      </trkpt>
      <trkpt lat="45.31031" lon="4.43904">
        <ele>1176.3</ele>
        <time>2018-08-19T11:56:00.000Z</time>
      </trkpt>
      <trkpt lat="45.31032" lon="4.43903">
        <ele>1176.1</ele>
        <time>2018-08-19T11:56:01.000Z</time>
      </trkpt>
      <trkpt lat="45.31032" lon="4.43902">
        <ele>1175.9</ele>
        <time>2018-08-19T11:56:02.000Z</time>
      </trkpt>
      <trkpt lat="45.31033" lon="4.43901">
        <ele>1175.7</ele>
        <time>2018-08-19T11:56:03.000Z</time>
      </trkpt>
      <trkpt lat="45.31034" lon="4.439">
        <ele>1175.4</ele>
        <time>2018-08-19T11:56:04.000Z</time>
      </trkpt>
      <trkpt lat="45.31034" lon="4.43899">
        <ele>1175.2</ele>
        <time>2018-08-19T11:56:05.000Z</time>
      </trkpt>
      <trkpt lat="45.31035" lon="4.43898">
        <ele>1175</ele>
        <time>2018-08-19T11:56:06.000Z</time>
      </trkpt>
      <trkpt lat="45.31035" lon="4.43897">
        <ele>1174.8</ele>
        <time>2018-08-19T11:56:07.000Z</time>
      </trkpt>
      <trkpt lat="45.31035" lon="4.43895">
        <ele>1174.6</ele>
        <time>2018-08-19T11:56:08.000Z</time>
      </trkpt>
      <trkpt lat="45.31036" lon="4.43894">
        <ele>1174.4</ele>
        <time>2018-08-19T11:56:09.000Z</time>
      </trkpt>
      <trkpt lat="45.31036" lon="4.43893">
        <ele>1174.2</ele>
        <time>2018-08-19T11:56:10.000Z</time>
      </trkpt>
      <trkpt lat="45.31037" lon="4.43892">
        <ele>1174.1</ele>
        <time>2018-08-19T11:56:11.000Z</time>
      </trkpt>
      <trkpt lat="45.31037" lon="4.43891">
        <ele>1173.9</ele>
        <time>2018-08-19T11:56:12.000Z</time>
      </trkpt>
      <trkpt lat="45.31038" lon="4.4389">
        <ele>1173.7</ele>
        <time>2018-08-19T11:56:13.000Z</time>
      </trkpt>
      <trkpt lat="45.31038" lon="4.43889">
        <ele>1173.5</ele>
        <time>2018-08-19T11:56:14.000Z</time>
      </trkpt>
      <trkpt lat="45.31039" lon="4.43889">
        <ele>1173.3</ele>
        <time>2018-08-19T11:56:15.000Z</time>
      </trkpt>
      <trkpt lat="45.3104" lon="4.43888">
        <ele>1173.1</ele>
        <time>2018-08-19T11:56:16.000Z</time>
      </trkpt>
      <trkpt lat="45.31041" lon="4.43888">
        <ele>1173</ele>
        <time>2018-08-19T11:56:17.000Z</time>
      </trkpt>
      <trkpt lat="45.31042" lon="4.43887">
        <ele>1172.8</ele>
        <time>2018-08-19T11:56:18.000Z</time>
      </trkpt>
      <trkpt lat="45.31043" lon="4.43887">
        <ele>1172.6</ele>
        <time>2018-08-19T11:56:19.000Z</time>
      </trkpt>
      <trkpt lat="45.31044" lon="4.43887">
        <ele>1172.5</ele>
        <time>2018-08-19T11:56:20.000Z</time>
      </trkpt>
      <trkpt lat="45.31045" lon="4.43887">
        <ele>1172.3</ele>
        <time>2018-08-19T11:56:21.000Z</time>
      </trkpt>
      <trkpt lat="45.31047" lon="4.43887">
        <ele>1172.2</ele>
        <time>2018-08-19T11:56:22.000Z</time>
      </trkpt>
      <trkpt lat="45.31048" lon="4.43888">
        <ele>1172.1</ele>
        <time>2018-08-19T11:56:23.000Z</time>
      </trkpt>
      <trkpt lat="45.31049" lon="4.43888">
        <ele>1171.9</ele>
        <time>2018-08-19T11:56:24.000Z</time>
      </trkpt>
      <trkpt lat="45.3105" lon="4.43888">
        <ele>1171.8</ele>
        <time>2018-08-19T11:56:25.000Z</time>
      </trkpt>
      <trkpt lat="45.31052" lon="4.43889">
        <ele>1171.7</ele>
        <time>2018-08-19T11:56:26.000Z</time>
      </trkpt>
      <trkpt lat="45.31053" lon="4.43889">
        <ele>1171.6</ele>
        <time>2018-08-19T11:56:27.000Z</time>
      </trkpt>
      <trkpt lat="45.31054" lon="4.4389">
        <ele>1171.5</ele>
        <time>2018-08-19T11:56:28.000Z</time>
      </trkpt>
      <trkpt lat="45.31055" lon="4.4389">
        <ele>1171.4</ele>
        <time>2018-08-19T11:56:29.000Z</time>
      </trkpt>
      <trkpt lat="45.31056" lon="4.4389">
        <ele>1171.3</ele>
        <time>2018-08-19T11:56:30.000Z</time>
      </trkpt>
      <trkpt lat="45.31057" lon="4.4389">
        <ele>1171.2</ele>
        <time>2018-08-19T11:56:31.000Z</time>
      </trkpt>
      <trkpt lat="45.31059" lon="4.4389">
        <ele>1171</ele>
        <time>2018-08-19T11:56:32.000Z</time>
      </trkpt>
      <trkpt lat="45.3106" lon="4.4389">
        <ele>1170.9</ele>
        <time>2018-08-19T11:56:33.000Z</time>
      </trkpt>
      <trkpt lat="45.31061" lon="4.4389">
        <ele>1170.7</ele>
        <time>2018-08-19T11:56:34.000Z</time>
      </trkpt>
      <trkpt lat="45.31062" lon="4.4389">
        <ele>1170.6</ele>
        <time>2018-08-19T11:56:35.000Z</time>
      </trkpt>
      <trkpt lat="45.31063" lon="4.4389">
        <ele>1170.4</ele>
        <time>2018-08-19T11:56:36.000Z</time>
      </trkpt>
      <trkpt lat="45.31064" lon="4.4389">
        <ele>1170.2</ele>
        <time>2018-08-19T11:56:37.000Z</time>
      </trkpt>
      <trkpt lat="45.31066" lon="4.4389">
        <ele>1170.1</ele>
        <time>2018-08-19T11:56:38.000Z</time>
      </trkpt>
      <trkpt lat="45.31067" lon="4.4389">
        <ele>1169.9</ele>
        <time>2018-08-19T11:56:39.000Z</time>
      </trkpt>
      <trkpt lat="45.31068" lon="4.4389">
        <ele>1169.8</ele>
        <time>2018-08-19T11:56:40.000Z</time>
      </trkpt>
      <trkpt lat="45.31069" lon="4.43891">
        <ele>1169.7</ele>
        <time>2018-08-19T11:56:41.000Z</time>
      </trkpt>
      <trkpt lat="45.31071" lon="4.43891">
        <ele>1169.5</ele>
        <time>2018-08-19T11:56:42.000Z</time>
      </trkpt>
      <trkpt lat="45.31072" lon="4.43891">
        <ele>1169.4</ele>
        <time>2018-08-19T11:56:43.000Z</time>
      </trkpt>
      <trkpt lat="45.31073" lon="4.43891">
        <ele>1169.2</ele>
        <time>2018-08-19T11:56:44.000Z</time>
      </trkpt>
      <trkpt lat="45.31075" lon="4.43891">
        <ele>1169.1</ele>
        <time>2018-08-19T11:56:45.000Z</time>
      </trkpt>
      <trkpt lat="45.31076" lon="4.43892">
        <ele>1168.9</ele>
        <time>2018-08-19T11:56:46.000Z</time>
      </trkpt>
      <trkpt lat="45.31077" lon="4.43891">
        <ele>1168.8</ele>
        <time>2018-08-19T11:56:47.000Z</time>
      </trkpt>
      <trkpt lat="45.31078" lon="4.43891">
        <ele>1168.6</ele>
        <time>2018-08-19T11:56:48.000Z</time>
      </trkpt>
      <trkpt lat="45.3108" lon="4.43891">
        <ele>1168.4</ele>
        <time>2018-08-19T11:56:49.000Z</time>
      </trkpt>
      <trkpt lat="45.31081" lon="4.43891">
        <ele>1168.2</ele>
        <time>2018-08-19T11:56:50.000Z</time>
      </trkpt>
      <trkpt lat="45.31082" lon="4.4389">
        <ele>1168</ele>
        <time>2018-08-19T11:56:51.000Z</time>
      </trkpt>
      <trkpt lat="45.31083" lon="4.4389">
        <ele>1167.9</ele>
        <time>2018-08-19T11:56:52.000Z</time>
      </trkpt>
      <trkpt lat="45.31084" lon="4.4389">
        <ele>1167.7</ele>
        <time>2018-08-19T11:56:53.000Z</time>
      </trkpt>
      <trkpt lat="45.31084" lon="4.43889">
        <ele>1167.5</ele>
        <time>2018-08-19T11:56:54.000Z</time>
      </trkpt>
      <trkpt lat="45.31085" lon="4.43889">
        <ele>1167.4</ele>
        <time>2018-08-19T11:56:55.000Z</time>
      </trkpt>
      <trkpt lat="45.31086" lon="4.43888">
        <ele>1167.2</ele>
        <time>2018-08-19T11:56:56.000Z</time>
      </trkpt>
      <trkpt lat="45.31087" lon="4.43888">
        <ele>1167</ele>
        <time>2018-08-19T11:56:57.000Z</time>
      </trkpt>
      <trkpt lat="45.31088" lon="4.43887">
        <ele>1166.8</ele>
        <time>2018-08-19T11:56:58.000Z</time>
      </trkpt>
      <trkpt lat="45.31089" lon="4.43887">
        <ele>1166.6</ele>
        <time>2018-08-19T11:56:59.000Z</time>
      </trkpt>
      <trkpt lat="45.3109" lon="4.43887">
        <ele>1166.4</ele>
        <time>2018-08-19T11:57:00.000Z</time>
      </trkpt>
      <trkpt lat="45.31091" lon="4.43886">
        <ele>1166.1</ele>
        <time>2018-08-19T11:57:01.000Z</time>
      </trkpt>
      <trkpt lat="45.31092" lon="4.43886">
        <ele>1165.9</ele>
        <time>2018-08-19T11:57:02.000Z</time>
      </trkpt>
      <trkpt lat="45.31094" lon="4.43885">
        <ele>1165.7</ele>
        <time>2018-08-19T11:57:03.000Z</time>
      </trkpt>
      <trkpt lat="45.31095" lon="4.43885">
        <ele>1165.5</ele>
        <time>2018-08-19T11:57:04.000Z</time>
      </trkpt>
      <trkpt lat="45.31096" lon="4.43885">
        <ele>1165.3</ele>
        <time>2018-08-19T11:57:05.000Z</time>
      </trkpt>
      <trkpt lat="45.31097" lon="4.43884">
        <ele>1165.1</ele>
        <time>2018-08-19T11:57:06.000Z</time>
      </trkpt>
      <trkpt lat="45.31098" lon="4.43884">
        <ele>1164.9</ele>
        <time>2018-08-19T11:57:07.000Z</time>
      </trkpt>
      <trkpt lat="45.31099" lon="4.43884">
        <ele>1164.7</ele>
        <time>2018-08-19T11:57:08.000Z</time>
      </trkpt>
      <trkpt lat="45.311" lon="4.43883">
        <ele>1164.5</ele>
        <time>2018-08-19T11:57:09.000Z</time>
      </trkpt>
      <trkpt lat="45.31101" lon="4.43883">
        <ele>1164.4</ele>
        <time>2018-08-19T11:57:10.000Z</time>
      </trkpt>
      <trkpt lat="45.31102" lon="4.43883">
        <ele>1164.2</ele>
        <time>2018-08-19T11:57:11.000Z</time>
      </trkpt>
      <trkpt lat="45.31103" lon="4.43883">
        <ele>1164</ele>
        <time>2018-08-19T11:57:12.000Z</time>
      </trkpt>
      <trkpt lat="45.31104" lon="4.43882">
        <ele>1163.8</ele>
        <time>2018-08-19T11:57:13.000Z</time>
      </trkpt>
      <trkpt lat="45.31105" lon="4.43882">
        <ele>1163.6</ele>
        <time>2018-08-19T11:57:14.000Z</time>
      </trkpt>
      <trkpt lat="45.31106" lon="4.43882">
        <ele>1163.5</ele>
        <time>2018-08-19T11:57:15.000Z</time>
      </trkpt>
      <trkpt lat="45.31107" lon="4.43881">
        <ele>1163.3</ele>
        <time>2018-08-19T11:57:16.000Z</time>
      </trkpt>
      <trkpt lat="45.31108" lon="4.43881">
        <ele>1163.1</ele>
        <time>2018-08-19T11:57:17.000Z</time>
      </trkpt>
      <trkpt lat="45.31109" lon="4.43881">
        <ele>1162.9</ele>
        <time>2018-08-19T11:57:18.000Z</time>
      </trkpt>
      <trkpt lat="45.3111" lon="4.43881">
        <ele>1162.7</ele>
        <time>2018-08-19T11:57:19.000Z</time>
      </trkpt>
      <trkpt lat="45.31111" lon="4.4388">
        <ele>1162.5</ele>
        <time>2018-08-19T11:57:20.000Z</time>
      </trkpt>
      <trkpt lat="45.31112" lon="4.4388">
        <ele>1162.3</ele>
        <time>2018-08-19T11:57:21.000Z</time>
      </trkpt>
      <trkpt lat="45.31113" lon="4.43879">
        <ele>1162.1</ele>
        <time>2018-08-19T11:57:22.000Z</time>
      </trkpt>
      <trkpt lat="45.31114" lon="4.43879">
        <ele>1161.9</ele>
        <time>2018-08-19T11:57:23.000Z</time>
      </trkpt>
      <trkpt lat="45.31114" lon="4.43878">
        <ele>1161.7</ele>
        <time>2018-08-19T11:57:24.000Z</time>
      </trkpt>
      <trkpt lat="45.31115" lon="4.43878">
        <ele>1161.6</ele>
        <time>2018-08-19T11:57:25.000Z</time>
      </trkpt>
      <trkpt lat="45.31116" lon="4.43878">
        <ele>1161.5</ele>
        <time>2018-08-19T11:57:26.000Z</time>
      </trkpt>
      <trkpt lat="45.31117" lon="4.43878">
        <ele>1161.3</ele>
        <time>2018-08-19T11:57:27.000Z</time>
      </trkpt>
      <trkpt lat="45.31118" lon="4.43878">
        <ele>1161.2</ele>
        <time>2018-08-19T11:57:28.000Z</time>
      </trkpt>
      <trkpt lat="45.31119" lon="4.43878">
        <ele>1161.1</ele>
        <time>2018-08-19T11:57:29.000Z</time>
      </trkpt>
      <trkpt lat="45.31119" lon="4.43878">
        <ele>1160.9</ele>
        <time>2018-08-19T11:57:30.000Z</time>
      </trkpt>
      <trkpt lat="45.3112" lon="4.43878">
        <ele>1160.8</ele>
        <time>2018-08-19T11:57:31.000Z</time>
      </trkpt>
      <trkpt lat="45.31121" lon="4.43878">
        <ele>1160.7</ele>
        <time>2018-08-19T11:57:32.000Z</time>
      </trkpt>
      <trkpt lat="45.31122" lon="4.43878">
        <ele>1160.5</ele>
        <time>2018-08-19T11:57:33.000Z</time>
      </trkpt>
      <trkpt lat="45.31123" lon="4.43877">
        <ele>1160.4</ele>
        <time>2018-08-19T11:57:34.000Z</time>
      </trkpt>
      <trkpt lat="45.31124" lon="4.43877">
        <ele>1160.2</ele>
        <time>2018-08-19T11:57:35.000Z</time>
      </trkpt>
      <trkpt lat="45.31125" lon="4.43877">
        <ele>1160</ele>
        <time>2018-08-19T11:57:36.000Z</time>
      </trkpt>
      <trkpt lat="45.31126" lon="4.43877">
        <ele>1159.9</ele>
        <time>2018-08-19T11:57:37.000Z</time>
      </trkpt>
      <trkpt lat="45.31127" lon="4.43877">
        <ele>1159.7</ele>
        <time>2018-08-19T11:57:38.000Z</time>
      </trkpt>
      <trkpt lat="45.31127" lon="4.43876">
        <ele>1159.6</ele>
        <time>2018-08-19T11:57:39.000Z</time>
      </trkpt>
      <trkpt lat="45.31128" lon="4.43876">
        <ele>1159.4</ele>
        <time>2018-08-19T11:57:40.000Z</time>
      </trkpt>
      <trkpt lat="45.31129" lon="4.43876">
        <ele>1159.2</ele>
        <time>2018-08-19T11:57:41.000Z</time>
      </trkpt>
      <trkpt lat="45.3113" lon="4.43875">
        <ele>1159.1</ele>
        <time>2018-08-19T11:57:42.000Z</time>
      </trkpt>
      <trkpt lat="45.31131" lon="4.43875">
        <ele>1158.9</ele>
        <time>2018-08-19T11:57:43.000Z</time>
      </trkpt>
      <trkpt lat="45.31132" lon="4.43875">
        <ele>1158.7</ele>
        <time>2018-08-19T11:57:44.000Z</time>
      </trkpt>
      <trkpt lat="45.31133" lon="4.43875">
        <ele>1158.6</ele>
        <time>2018-08-19T11:57:45.000Z</time>
      </trkpt>
      <trkpt lat="45.31134" lon="4.43875">
        <ele>1158.4</ele>
        <time>2018-08-19T11:57:46.000Z</time>
      </trkpt>
      <trkpt lat="45.31134" lon="4.43874">
        <ele>1158.3</ele>
        <time>2018-08-19T11:57:47.000Z</time>
      </trkpt>
      <trkpt lat="45.31135" lon="4.43874">
        <ele>1158.1</ele>
        <time>2018-08-19T11:57:48.000Z</time>
      </trkpt>
      <trkpt lat="45.31136" lon="4.43874">
        <ele>1157.9</ele>
        <time>2018-08-19T11:57:49.000Z</time>
      </trkpt>
      <trkpt lat="45.31137" lon="4.43874">
        <ele>1157.8</ele>
        <time>2018-08-19T11:57:50.000Z</time>
      </trkpt>
      <trkpt lat="45.31138" lon="4.43874">
        <ele>1157.6</ele>
        <time>2018-08-19T11:57:51.000Z</time>
      </trkpt>
      <trkpt lat="45.31139" lon="4.43874">
        <ele>1157.5</ele>
        <time>2018-08-19T11:57:52.000Z</time>
      </trkpt>
      <trkpt lat="45.3114" lon="4.43874">
        <ele>1157.3</ele>
        <time>2018-08-19T11:57:53.000Z</time>
      </trkpt>
      <trkpt lat="45.31141" lon="4.43873">
        <ele>1157.1</ele>
        <time>2018-08-19T11:57:54.000Z</time>
      </trkpt>
      <trkpt lat="45.31142" lon="4.43873">
        <ele>1156.9</ele>
        <time>2018-08-19T11:57:55.000Z</time>
      </trkpt>
      <trkpt lat="45.31143" lon="4.43873">
        <ele>1156.7</ele>
        <time>2018-08-19T11:57:56.000Z</time>
      </trkpt>
      <trkpt lat="45.31145" lon="4.43873">
        <ele>1156.5</ele>
        <time>2018-08-19T11:57:57.000Z</time>
      </trkpt>
      <trkpt lat="45.31146" lon="4.43873">
        <ele>1156.3</ele>
        <time>2018-08-19T11:57:58.000Z</time>
      </trkpt>
      <trkpt lat="45.31147" lon="4.43872">
        <ele>1156.1</ele>
        <time>2018-08-19T11:57:59.000Z</time>
      </trkpt>
      <trkpt lat="45.31148" lon="4.43872">
        <ele>1155.9</ele>
        <time>2018-08-19T11:58:00.000Z</time>
      </trkpt>
      <trkpt lat="45.31149" lon="4.43872">
        <ele>1155.7</ele>
        <time>2018-08-19T11:58:01.000Z</time>
      </trkpt>
      <trkpt lat="45.3115" lon="4.43871">
        <ele>1155.5</ele>
        <time>2018-08-19T11:58:02.000Z</time>
      </trkpt>
      <trkpt lat="45.31151" lon="4.43871">
        <ele>1155.3</ele>
        <time>2018-08-19T11:58:03.000Z</time>
      </trkpt>
      <trkpt lat="45.31152" lon="4.43871">
        <ele>1155.1</ele>
        <time>2018-08-19T11:58:04.000Z</time>
      </trkpt>
      <trkpt lat="45.31153" lon="4.4387">
        <ele>1154.9</ele>
        <time>2018-08-19T11:58:05.000Z</time>
      </trkpt>
      <trkpt lat="45.31154" lon="4.4387">
        <ele>1154.7</ele>
        <time>2018-08-19T11:58:06.000Z</time>
      </trkpt>
      <trkpt lat="45.31155" lon="4.4387">
        <ele>1154.5</ele>
        <time>2018-08-19T11:58:07.000Z</time>
      </trkpt>
      <trkpt lat="45.31156" lon="4.43869">
        <ele>1154.4</ele>
        <time>2018-08-19T11:58:08.000Z</time>
      </trkpt>
      <trkpt lat="45.31157" lon="4.43869">
        <ele>1154.2</ele>
        <time>2018-08-19T11:58:09.000Z</time>
      </trkpt>
      <trkpt lat="45.31158" lon="4.43868">
        <ele>1154</ele>
        <time>2018-08-19T11:58:10.000Z</time>
      </trkpt>
      <trkpt lat="45.31159" lon="4.43868">
        <ele>1153.8</ele>
        <time>2018-08-19T11:58:11.000Z</time>
      </trkpt>
      <trkpt lat="45.3116" lon="4.43867">
        <ele>1153.6</ele>
        <time>2018-08-19T11:58:12.000Z</time>
      </trkpt>
      <trkpt lat="45.3116" lon="4.43867">
        <ele>1153.4</ele>
        <time>2018-08-19T11:58:13.000Z</time>
      </trkpt>
      <trkpt lat="45.31161" lon="4.43866">
        <ele>1153.2</ele>
        <time>2018-08-19T11:58:14.000Z</time>
      </trkpt>
      <trkpt lat="45.31162" lon="4.43866">
        <ele>1152.9</ele>
        <time>2018-08-19T11:58:15.000Z</time>
      </trkpt>
      <trkpt lat="45.31163" lon="4.43865">
        <ele>1152.7</ele>
        <time>2018-08-19T11:58:16.000Z</time>
      </trkpt>
      <trkpt lat="45.31164" lon="4.43865">
        <ele>1152.5</ele>
        <time>2018-08-19T11:58:17.000Z</time>
      </trkpt>
      <trkpt lat="45.31165" lon="4.43864">
        <ele>1152.3</ele>
        <time>2018-08-19T11:58:18.000Z</time>
      </trkpt>
      <trkpt lat="45.31166" lon="4.43864">
        <ele>1152.1</ele>
        <time>2018-08-19T11:58:19.000Z</time>
      </trkpt>
      <trkpt lat="45.31167" lon="4.43863">
        <ele>1151.9</ele>
        <time>2018-08-19T11:58:20.000Z</time>
      </trkpt>
      <trkpt lat="45.31168" lon="4.43863">
        <ele>1151.7</ele>
        <time>2018-08-19T11:58:21.000Z</time>
      </trkpt>
      <trkpt lat="45.31168" lon="4.43862">
        <ele>1151.6</ele>
        <time>2018-08-19T11:58:22.000Z</time>
      </trkpt>
      <trkpt lat="45.31169" lon="4.43862">
        <ele>1151.4</ele>
        <time>2018-08-19T11:58:23.000Z</time>
      </trkpt>
      <trkpt lat="45.3117" lon="4.43862">
        <ele>1151.2</ele>
        <time>2018-08-19T11:58:24.000Z</time>
      </trkpt>
      <trkpt lat="45.31171" lon="4.43862">
        <ele>1151.1</ele>
        <time>2018-08-19T11:58:25.000Z</time>
      </trkpt>
      <trkpt lat="45.31172" lon="4.43862">
        <ele>1150.9</ele>
        <time>2018-08-19T11:58:26.000Z</time>
      </trkpt>
      <trkpt lat="45.31173" lon="4.43862">
        <ele>1150.8</ele>
        <time>2018-08-19T11:58:27.000Z</time>
      </trkpt>
      <trkpt lat="45.31174" lon="4.43862">
        <ele>1150.7</ele>
        <time>2018-08-19T11:58:28.000Z</time>
      </trkpt>
      <trkpt lat="45.31175" lon="4.43862">
        <ele>1150.5</ele>
        <time>2018-08-19T11:58:29.000Z</time>
      </trkpt>
      <trkpt lat="45.31176" lon="4.43862">
        <ele>1150.4</ele>
        <time>2018-08-19T11:58:30.000Z</time>
      </trkpt>
      <trkpt lat="45.31177" lon="4.43861">
        <ele>1150.2</ele>
        <time>2018-08-19T11:58:31.000Z</time>
      </trkpt>
      <trkpt lat="45.31178" lon="4.43861">
        <ele>1150</ele>
        <time>2018-08-19T11:58:32.000Z</time>
      </trkpt>
      <trkpt lat="45.31179" lon="4.43861">
        <ele>1149.9</ele>
        <time>2018-08-19T11:58:33.000Z</time>
      </trkpt>
      <trkpt lat="45.3118" lon="4.4386">
        <ele>1149.7</ele>
        <time>2018-08-19T11:58:34.000Z</time>
      </trkpt>
      <trkpt lat="45.31181" lon="4.4386">
        <ele>1149.5</ele>
        <time>2018-08-19T11:58:35.000Z</time>
      </trkpt>
      <trkpt lat="45.31182" lon="4.43859">
        <ele>1149.3</ele>
        <time>2018-08-19T11:58:36.000Z</time>
      </trkpt>
      <trkpt lat="45.31182" lon="4.43858">
        <ele>1149</ele>
        <time>2018-08-19T11:58:37.000Z</time>
      </trkpt>
      <trkpt lat="45.31183" lon="4.43857">
        <ele>1148.7</ele>
        <time>2018-08-19T11:58:38.000Z</time>
      </trkpt>
      <trkpt lat="45.31184" lon="4.43856">
        <ele>1148.5</ele>
        <time>2018-08-19T11:58:39.000Z</time>
      </trkpt>
      <trkpt lat="45.31185" lon="4.43855">
        <ele>1148.2</ele>
        <time>2018-08-19T11:58:40.000Z</time>
      </trkpt>
      <trkpt lat="45.31186" lon="4.43853">
        <ele>1147.9</ele>
        <time>2018-08-19T11:58:41.000Z</time>
      </trkpt>
      <trkpt lat="45.31186" lon="4.43852">
        <ele>1147.7</ele>
        <time>2018-08-19T11:58:42.000Z</time>
      </trkpt>
      <trkpt lat="45.31187" lon="4.43851">
        <ele>1147.4</ele>
        <time>2018-08-19T11:58:43.000Z</time>
      </trkpt>
      <trkpt lat="45.31188" lon="4.4385">
        <ele>1147.1</ele>
        <time>2018-08-19T11:58:44.000Z</time>
      </trkpt>
      <trkpt lat="45.31189" lon="4.43849">
        <ele>1146.9</ele>
        <time>2018-08-19T11:58:45.000Z</time>
      </trkpt>
      <trkpt lat="45.3119" lon="4.43848">
        <ele>1146.6</ele>
        <time>2018-08-19T11:58:46.000Z</time>
      </trkpt>
      <trkpt lat="45.31191" lon="4.43847">
        <ele>1146.4</ele>
        <time>2018-08-19T11:58:47.000Z</time>
      </trkpt>
      <trkpt lat="45.31191" lon="4.43846">
        <ele>1146.2</ele>
        <time>2018-08-19T11:58:48.000Z</time>
      </trkpt>
      <trkpt lat="45.31192" lon="4.43846">
        <ele>1145.9</ele>
        <time>2018-08-19T11:58:49.000Z</time>
      </trkpt>
      <trkpt lat="45.31193" lon="4.43845">
        <ele>1145.7</ele>
        <time>2018-08-19T11:58:50.000Z</time>
      </trkpt>
      <trkpt lat="45.31194" lon="4.43844">
        <ele>1145.5</ele>
        <time>2018-08-19T11:58:51.000Z</time>
      </trkpt>
      <trkpt lat="45.31194" lon="4.43843">
        <ele>1145.3</ele>
        <time>2018-08-19T11:58:52.000Z</time>
      </trkpt>
      <trkpt lat="45.31195" lon="4.43842">
        <ele>1145</ele>
        <time>2018-08-19T11:58:53.000Z</time>
      </trkpt>
      <trkpt lat="45.31196" lon="4.43841">
        <ele>1144.8</ele>
        <time>2018-08-19T11:58:54.000Z</time>
      </trkpt>
      <trkpt lat="45.31196" lon="4.4384">
        <ele>1144.6</ele>
        <time>2018-08-19T11:58:55.000Z</time>
      </trkpt>
      <trkpt lat="45.31197" lon="4.43839">
        <ele>1144.3</ele>
        <time>2018-08-19T11:58:56.000Z</time>
      </trkpt>
      <trkpt lat="45.31198" lon="4.43838">
        <ele>1144.1</ele>
        <time>2018-08-19T11:58:57.000Z</time>
      </trkpt>
      <trkpt lat="45.31198" lon="4.43836">
        <ele>1143.8</ele>
        <time>2018-08-19T11:58:58.000Z</time>
      </trkpt>
      <trkpt lat="45.31199" lon="4.43835">
        <ele>1143.5</ele>
        <time>2018-08-19T11:58:59.000Z</time>
      </trkpt>
      <trkpt lat="45.312" lon="4.43834">
        <ele>1143.3</ele>
        <time>2018-08-19T11:59:00.000Z</time>
      </trkpt>
      <trkpt lat="45.31201" lon="4.43833">
        <ele>1143</ele>
        <time>2018-08-19T11:59:01.000Z</time>
      </trkpt>
      <trkpt lat="45.31201" lon="4.43832">
        <ele>1142.8</ele>
        <time>2018-08-19T11:59:02.000Z</time>
      </trkpt>
      <trkpt lat="45.31202" lon="4.43831">
        <ele>1142.6</ele>
        <time>2018-08-19T11:59:03.000Z</time>
      </trkpt>
      <trkpt lat="45.31203" lon="4.4383">
        <ele>1142.4</ele>
        <time>2018-08-19T11:59:04.000Z</time>
      </trkpt>
      <trkpt lat="45.31204" lon="4.4383">
        <ele>1142.2</ele>
        <time>2018-08-19T11:59:05.000Z</time>
      </trkpt>
      <trkpt lat="45.31205" lon="4.4383">
        <ele>1142</ele>
        <time>2018-08-19T11:59:06.000Z</time>
      </trkpt>
      <trkpt lat="45.31206" lon="4.4383">
        <ele>1141.9</ele>
        <time>2018-08-19T11:59:07.000Z</time>
      </trkpt>
      <trkpt lat="45.31207" lon="4.4383">
        <ele>1141.8</ele>
        <time>2018-08-19T11:59:08.000Z</time>
      </trkpt>
      <trkpt lat="45.31208" lon="4.4383">
        <ele>1141.6</ele>
        <time>2018-08-19T11:59:09.000Z</time>
      </trkpt>
      <trkpt lat="45.31209" lon="4.4383">
        <ele>1141.5</ele>
        <time>2018-08-19T11:59:10.000Z</time>
      </trkpt>
      <trkpt lat="45.3121" lon="4.43831">
        <ele>1141.4</ele>
        <time>2018-08-19T11:59:11.000Z</time>
      </trkpt>
      <trkpt lat="45.31211" lon="4.43831">
        <ele>1141.3</ele>
        <time>2018-08-19T11:59:12.000Z</time>
      </trkpt>
      <trkpt lat="45.31212" lon="4.43831">
        <ele>1141.2</ele>
        <time>2018-08-19T11:59:13.000Z</time>
      </trkpt>
      <trkpt lat="45.31213" lon="4.43831">
        <ele>1141.1</ele>
        <time>2018-08-19T11:59:14.000Z</time>
      </trkpt>
      <trkpt lat="45.31214" lon="4.43832">
        <ele>1141</ele>
        <time>2018-08-19T11:59:15.000Z</time>
      </trkpt>
      <trkpt lat="45.31215" lon="4.43832">
        <ele>1140.9</ele>
        <time>2018-08-19T11:59:16.000Z</time>
      </trkpt>
      <trkpt lat="45.31216" lon="4.43832">
        <ele>1140.8</ele>
        <time>2018-08-19T11:59:17.000Z</time>
      </trkpt>
      <trkpt lat="45.31217" lon="4.43832">
        <ele>1140.6</ele>
        <time>2018-08-19T11:59:18.000Z</time>
      </trkpt>
      <trkpt lat="45.31218" lon="4.43832">
        <ele>1140.5</ele>
        <time>2018-08-19T11:59:19.000Z</time>
      </trkpt>
      <trkpt lat="45.31219" lon="4.43832">
        <ele>1140.3</ele>
        <time>2018-08-19T11:59:20.000Z</time>
      </trkpt>
      <trkpt lat="45.3122" lon="4.43832">
        <ele>1140.2</ele>
        <time>2018-08-19T11:59:21.000Z</time>
      </trkpt>
      <trkpt lat="45.31221" lon="4.43831">
        <ele>1140</ele>
        <time>2018-08-19T11:59:22.000Z</time>
      </trkpt>
      <trkpt lat="45.31222" lon="4.43831">
        <ele>1139.8</ele>
        <time>2018-08-19T11:59:23.000Z</time>
      </trkpt>
      <trkpt lat="45.31223" lon="4.43831">
        <ele>1139.6</ele>
        <time>2018-08-19T11:59:24.000Z</time>
      </trkpt>
      <trkpt lat="45.31224" lon="4.43831">
        <ele>1139.5</ele>
        <time>2018-08-19T11:59:25.000Z</time>
      </trkpt>
      <trkpt lat="45.31225" lon="4.4383">
        <ele>1139.3</ele>
        <time>2018-08-19T11:59:26.000Z</time>
      </trkpt>
      <trkpt lat="45.31226" lon="4.4383">
        <ele>1139.1</ele>
        <time>2018-08-19T11:59:27.000Z</time>
      </trkpt>
      <trkpt lat="45.31227" lon="4.4383">
        <ele>1138.9</ele>
        <time>2018-08-19T11:59:28.000Z</time>
      </trkpt>
      <trkpt lat="45.31228" lon="4.43829">
        <ele>1138.7</ele>
        <time>2018-08-19T11:59:29.000Z</time>
      </trkpt>
      <trkpt lat="45.31229" lon="4.43829">
        <ele>1138.6</ele>
        <time>2018-08-19T11:59:30.000Z</time>
      </trkpt>
      <trkpt lat="45.3123" lon="4.43829">
        <ele>1138.4</ele>
        <time>2018-08-19T11:59:31.000Z</time>
      </trkpt>
      <trkpt lat="45.31231" lon="4.43828">
        <ele>1138.2</ele>
        <time>2018-08-19T11:59:32.000Z</time>
      </trkpt>
      <trkpt lat="45.31232" lon="4.43828">
        <ele>1138</ele>
        <time>2018-08-19T11:59:33.000Z</time>
      </trkpt>
      <trkpt lat="45.31233" lon="4.43828">
        <ele>1137.8</ele>
        <time>2018-08-19T11:59:34.000Z</time>
      </trkpt>
      <trkpt lat="45.31234" lon="4.43828">
        <ele>1137.7</ele>
        <time>2018-08-19T11:59:35.000Z</time>
      </trkpt>
      <trkpt lat="45.31236" lon="4.43828">
        <ele>1137.5</ele>
        <time>2018-08-19T11:59:36.000Z</time>
      </trkpt>
      <trkpt lat="45.31237" lon="4.43827">
        <ele>1137.3</ele>
        <time>2018-08-19T11:59:37.000Z</time>
      </trkpt>
      <trkpt lat="45.31238" lon="4.43827">
        <ele>1137.1</ele>
        <time>2018-08-19T11:59:38.000Z</time>
      </trkpt>
      <trkpt lat="45.31239" lon="4.43827">
        <ele>1137</ele>
        <time>2018-08-19T11:59:39.000Z</time>
      </trkpt>
      <trkpt lat="45.3124" lon="4.43827">
        <ele>1136.8</ele>
        <time>2018-08-19T11:59:40.000Z</time>
      </trkpt>
      <trkpt lat="45.31241" lon="4.43827">
        <ele>1136.6</ele>
        <time>2018-08-19T11:59:41.000Z</time>
      </trkpt>
      <trkpt lat="45.31242" lon="4.43827">
        <ele>1136.5</ele>
        <time>2018-08-19T11:59:42.000Z</time>
      </trkpt>
      <trkpt lat="45.31243" lon="4.43827">
        <ele>1136.3</ele>
        <time>2018-08-19T11:59:43.000Z</time>
      </trkpt>
      <trkpt lat="45.31244" lon="4.43827">
        <ele>1136.1</ele>
        <time>2018-08-19T11:59:44.000Z</time>
      </trkpt>
      <trkpt lat="45.31245" lon="4.43826">
        <ele>1136</ele>
        <time>2018-08-19T11:59:45.000Z</time>
      </trkpt>
      <trkpt lat="45.31246" lon="4.43826">
        <ele>1135.8</ele>
        <time>2018-08-19T11:59:46.000Z</time>
      </trkpt>
      <trkpt lat="45.31247" lon="4.43826">
        <ele>1135.7</ele>
        <time>2018-08-19T11:59:47.000Z</time>
      </trkpt>
      <trkpt lat="45.31248" lon="4.43826">
        <ele>1135.5</ele>
        <time>2018-08-19T11:59:48.000Z</time>
      </trkpt>
      <trkpt lat="45.31249" lon="4.43825">
        <ele>1135.3</ele>
        <time>2018-08-19T11:59:49.000Z</time>
      </trkpt>
      <trkpt lat="45.3125" lon="4.43825">
        <ele>1135.2</ele>
        <time>2018-08-19T11:59:50.000Z</time>
      </trkpt>
      <trkpt lat="45.31251" lon="4.43825">
        <ele>1135.1</ele>
        <time>2018-08-19T11:59:51.000Z</time>
      </trkpt>
      <trkpt lat="45.31252" lon="4.43824">
        <ele>1134.9</ele>
        <time>2018-08-19T11:59:52.000Z</time>
      </trkpt>
      <trkpt lat="45.31252" lon="4.43824">
        <ele>1134.7</ele>
        <time>2018-08-19T11:59:53.000Z</time>
      </trkpt>
      <trkpt lat="45.31253" lon="4.43823">
        <ele>1134.6</ele>
        <time>2018-08-19T11:59:54.000Z</time>
      </trkpt>
      <trkpt lat="45.31254" lon="4.43823">
        <ele>1134.4</ele>
        <time>2018-08-19T11:59:55.000Z</time>
      </trkpt>
      <trkpt lat="45.31255" lon="4.43822">
        <ele>1134.3</ele>
        <time>2018-08-19T11:59:56.000Z</time>
      </trkpt>
      <trkpt lat="45.31256" lon="4.43822">
        <ele>1134.1</ele>
        <time>2018-08-19T11:59:57.000Z</time>
      </trkpt>
      <trkpt lat="45.31257" lon="4.43821">
        <ele>1133.9</ele>
        <time>2018-08-19T11:59:58.000Z</time>
      </trkpt>
      <trkpt lat="45.31258" lon="4.43821">
        <ele>1133.8</ele>
        <time>2018-08-19T11:59:59.000Z</time>
      </trkpt>
      <trkpt lat="45.31259" lon="4.43821">
        <ele>1133.6</ele>
        <time>2018-08-19T12:00:00.000Z</time>
      </trkpt>
      <trkpt lat="45.3126" lon="4.43821">
        <ele>1133.5</ele>
        <time>2018-08-19T12:00:01.000Z</time>
      </trkpt>
      <trkpt lat="45.31261" lon="4.43821">
        <ele>1133.3</ele>
        <time>2018-08-19T12:00:02.000Z</time>
      </trkpt>
      <trkpt lat="45.31262" lon="4.43821">
        <ele>1133.1</ele>
        <time>2018-08-19T12:00:03.000Z</time>
      </trkpt>
      <trkpt lat="45.31263" lon="4.43821">
        <ele>1133</ele>
        <time>2018-08-19T12:00:04.000Z</time>
      </trkpt>
      <trkpt lat="45.31264" lon="4.43821">
        <ele>1132.9</ele>
        <time>2018-08-19T12:00:05.000Z</time>
      </trkpt>
      <trkpt lat="45.31265" lon="4.43821">
        <ele>1132.8</ele>
        <time>2018-08-19T12:00:06.000Z</time>
      </trkpt>
      <trkpt lat="45.31266" lon="4.43821">
        <ele>1132.7</ele>
        <time>2018-08-19T12:00:07.000Z</time>
      </trkpt>
      <trkpt lat="45.31267" lon="4.43821">
        <ele>1132.6</ele>
        <time>2018-08-19T12:00:08.000Z</time>
      </trkpt>
      <trkpt lat="45.31267" lon="4.43821">
        <ele>1132.5</ele>
        <time>2018-08-19T12:00:09.000Z</time>
      </trkpt>
      <trkpt lat="45.31268" lon="4.43821">
        <ele>1132.5</ele>
        <time>2018-08-19T12:00:10.000Z</time>
      </trkpt>
      <trkpt lat="45.31268" lon="4.43821">
        <ele>1132.4</ele>
        <time>2018-08-19T12:00:11.000Z</time>
      </trkpt>
      <trkpt lat="45.31269" lon="4.43821">
        <ele>1132.4</ele>
        <time>2018-08-19T12:00:12.000Z</time>
      </trkpt>
      <trkpt lat="45.31269" lon="4.43822">
        <ele>1132.3</ele>
        <time>2018-08-19T12:00:13.000Z</time>
      </trkpt>
      <trkpt lat="45.3127" lon="4.43822">
        <ele>1132.3</ele>
        <time>2018-08-19T12:00:14.000Z</time>
      </trkpt>
      <trkpt lat="45.31271" lon="4.43822">
        <ele>1132.2</ele>
        <time>2018-08-19T12:00:15.000Z</time>
      </trkpt>
      <trkpt lat="45.31271" lon="4.43822">
        <ele>1132.1</ele>
        <time>2018-08-19T12:00:16.000Z</time>
      </trkpt>
      <trkpt lat="45.31272" lon="4.43822">
        <ele>1131.9</ele>
        <time>2018-08-19T12:00:17.000Z</time>
      </trkpt>
      <trkpt lat="45.31273" lon="4.43822">
        <ele>1131.8</ele>
        <time>2018-08-19T12:00:18.000Z</time>
      </trkpt>
      <trkpt lat="45.31274" lon="4.43822">
        <ele>1131.6</ele>
        <time>2018-08-19T12:00:19.000Z</time>
      </trkpt>
      <trkpt lat="45.31275" lon="4.43821">
        <ele>1131.5</ele>
        <time>2018-08-19T12:00:20.000Z</time>
      </trkpt>
      <trkpt lat="45.31276" lon="4.43821">
        <ele>1131.3</ele>
        <time>2018-08-19T12:00:21.000Z</time>
      </trkpt>
      <trkpt lat="45.31278" lon="4.43821">
        <ele>1131.1</ele>
        <time>2018-08-19T12:00:22.000Z</time>
      </trkpt>
      <trkpt lat="45.31279" lon="4.43821">
        <ele>1131</ele>
        <time>2018-08-19T12:00:23.000Z</time>
      </trkpt>
      <trkpt lat="45.3128" lon="4.4382">
        <ele>1130.8</ele>
        <time>2018-08-19T12:00:24.000Z</time>
      </trkpt>
      <trkpt lat="45.31281" lon="4.4382">
        <ele>1130.6</ele>
        <time>2018-08-19T12:00:25.000Z</time>
      </trkpt>
      <trkpt lat="45.31282" lon="4.4382">
        <ele>1130.5</ele>
        <time>2018-08-19T12:00:26.000Z</time>
      </trkpt>
      <trkpt lat="45.31282" lon="4.43819">
        <ele>1130.3</ele>
        <time>2018-08-19T12:00:27.000Z</time>
      </trkpt>
      <trkpt lat="45.31283" lon="4.43819">
        <ele>1130.2</ele>
        <time>2018-08-19T12:00:28.000Z</time>
      </trkpt>
      <trkpt lat="45.31284" lon="4.43819">
        <ele>1130</ele>
        <time>2018-08-19T12:00:29.000Z</time>
      </trkpt>
      <trkpt lat="45.31285" lon="4.43819">
        <ele>1129.9</ele>
        <time>2018-08-19T12:00:30.000Z</time>
      </trkpt>
      <trkpt lat="45.31286" lon="4.43819">
        <ele>1129.7</ele>
        <time>2018-08-19T12:00:31.000Z</time>
      </trkpt>
      <trkpt lat="45.31287" lon="4.43818">
        <ele>1129.6</ele>
        <time>2018-08-19T12:00:32.000Z</time>
      </trkpt>
      <trkpt lat="45.31288" lon="4.43818">
        <ele>1129.4</ele>
        <time>2018-08-19T12:00:33.000Z</time>
      </trkpt>
      <trkpt lat="45.31289" lon="4.43818">
        <ele>1129.3</ele>
        <time>2018-08-19T12:00:34.000Z</time>
      </trkpt>
      <trkpt lat="45.3129" lon="4.43818">
        <ele>1129.1</ele>
        <time>2018-08-19T12:00:35.000Z</time>
      </trkpt>
      <trkpt lat="45.31291" lon="4.43817">
        <ele>1129</ele>
        <time>2018-08-19T12:00:36.000Z</time>
      </trkpt>
      <trkpt lat="45.31292" lon="4.43817">
        <ele>1128.8</ele>
        <time>2018-08-19T12:00:37.000Z</time>
      </trkpt>
      <trkpt lat="45.31293" lon="4.43817">
        <ele>1128.7</ele>
        <time>2018-08-19T12:00:38.000Z</time>
      </trkpt>
      <trkpt lat="45.31294" lon="4.43817">
        <ele>1128.6</ele>
        <time>2018-08-19T12:00:39.000Z</time>
      </trkpt>
      <trkpt lat="45.31294" lon="4.43817">
        <ele>1128.4</ele>
        <time>2018-08-19T12:00:40.000Z</time>
      </trkpt>
      <trkpt lat="45.31295" lon="4.43816">
        <ele>1128.3</ele>
        <time>2018-08-19T12:00:41.000Z</time>
      </trkpt>
      <trkpt lat="45.31296" lon="4.43816">
        <ele>1128.1</ele>
        <time>2018-08-19T12:00:42.000Z</time>
      </trkpt>
      <trkpt lat="45.31297" lon="4.43816">
        <ele>1128</ele>
        <time>2018-08-19T12:00:43.000Z</time>
      </trkpt>
      <trkpt lat="45.31298" lon="4.43816">
        <ele>1127.8</ele>
        <time>2018-08-19T12:00:44.000Z</time>
      </trkpt>
      <trkpt lat="45.31299" lon="4.43815">
        <ele>1127.7</ele>
        <time>2018-08-19T12:00:45.000Z</time>
      </trkpt>
      <trkpt lat="45.313" lon="4.43815">
        <ele>1127.5</ele>
        <time>2018-08-19T12:00:46.000Z</time>
      </trkpt>
      <trkpt lat="45.31301" lon="4.43815">
        <ele>1127.4</ele>
        <time>2018-08-19T12:00:47.000Z</time>
      </trkpt>
      <trkpt lat="45.31302" lon="4.43814">
        <ele>1127.2</ele>
        <time>2018-08-19T12:00:48.000Z</time>
      </trkpt>
      <trkpt lat="45.31303" lon="4.43814">
        <ele>1127.1</ele>
        <time>2018-08-19T12:00:49.000Z</time>
      </trkpt>
      <trkpt lat="45.31304" lon="4.43814">
        <ele>1126.9</ele>
        <time>2018-08-19T12:00:50.000Z</time>
      </trkpt>
      <trkpt lat="45.31305" lon="4.43813">
        <ele>1126.7</ele>
        <time>2018-08-19T12:00:51.000Z</time>
      </trkpt>
      <trkpt lat="45.31306" lon="4.43813">
        <ele>1126.6</ele>
        <time>2018-08-19T12:00:52.000Z</time>
      </trkpt>
      <trkpt lat="45.31307" lon="4.43813">
        <ele>1126.4</ele>
        <time>2018-08-19T12:00:53.000Z</time>
      </trkpt>
      <trkpt lat="45.31308" lon="4.43812">
        <ele>1126.2</ele>
        <time>2018-08-19T12:00:54.000Z</time>
      </trkpt>
      <trkpt lat="45.31309" lon="4.43812">
        <ele>1126</ele>
        <time>2018-08-19T12:00:55.000Z</time>
      </trkpt>
      <trkpt lat="45.3131" lon="4.43812">
        <ele>1125.9</ele>
        <time>2018-08-19T12:00:56.000Z</time>
      </trkpt>
      <trkpt lat="45.31311" lon="4.43811">
        <ele>1125.7</ele>
        <time>2018-08-19T12:00:57.000Z</time>
      </trkpt>
      <trkpt lat="45.31312" lon="4.43811">
        <ele>1125.5</ele>
        <time>2018-08-19T12:00:58.000Z</time>
      </trkpt>
      <trkpt lat="45.31313" lon="4.43811">
        <ele>1125.3</ele>
        <time>2018-08-19T12:00:59.000Z</time>
      </trkpt>
      <trkpt lat="45.31314" lon="4.4381">
        <ele>1125.1</ele>
        <time>2018-08-19T12:01:00.000Z</time>
      </trkpt>
      <trkpt lat="45.31315" lon="4.4381">
        <ele>1125</ele>
        <time>2018-08-19T12:01:01.000Z</time>
      </trkpt>
      <trkpt lat="45.31316" lon="4.43809">
        <ele>1124.8</ele>
        <time>2018-08-19T12:01:02.000Z</time>
      </trkpt>
      <trkpt lat="45.31317" lon="4.43809">
        <ele>1124.6</ele>
        <time>2018-08-19T12:01:03.000Z</time>
      </trkpt>
      <trkpt lat="45.31318" lon="4.43809">
        <ele>1124.4</ele>
        <time>2018-08-19T12:01:04.000Z</time>
      </trkpt>
      <trkpt lat="45.31319" lon="4.43808">
        <ele>1124.2</ele>
        <time>2018-08-19T12:01:05.000Z</time>
      </trkpt>
      <trkpt lat="45.3132" lon="4.43808">
        <ele>1124</ele>
        <time>2018-08-19T12:01:06.000Z</time>
      </trkpt>
      <trkpt lat="45.31321" lon="4.43807">
        <ele>1123.8</ele>
        <time>2018-08-19T12:01:07.000Z</time>
      </trkpt>
      <trkpt lat="45.31322" lon="4.43807">
        <ele>1123.6</ele>
        <time>2018-08-19T12:01:08.000Z</time>
      </trkpt>
      <trkpt lat="45.31323" lon="4.43807">
        <ele>1123.5</ele>
        <time>2018-08-19T12:01:09.000Z</time>
      </trkpt>
      <trkpt lat="45.31324" lon="4.43806">
        <ele>1123.3</ele>
        <time>2018-08-19T12:01:10.000Z</time>
      </trkpt>
      <trkpt lat="45.31326" lon="4.43806">
        <ele>1123.1</ele>
        <time>2018-08-19T12:01:11.000Z</time>
      </trkpt>
      <trkpt lat="45.31327" lon="4.43805">
        <ele>1122.9</ele>
        <time>2018-08-19T12:01:12.000Z</time>
      </trkpt>
      <trkpt lat="45.31328" lon="4.43805">
        <ele>1122.7</ele>
        <time>2018-08-19T12:01:13.000Z</time>
      </trkpt>
      <trkpt lat="45.31329" lon="4.43804">
        <ele>1122.5</ele>
        <time>2018-08-19T12:01:14.000Z</time>
      </trkpt>
      <trkpt lat="45.3133" lon="4.43803">
        <ele>1122.3</ele>
        <time>2018-08-19T12:01:15.000Z</time>
      </trkpt>
      <trkpt lat="45.31331" lon="4.43803">
        <ele>1122.1</ele>
        <time>2018-08-19T12:01:16.000Z</time>
      </trkpt>
      <trkpt lat="45.31332" lon="4.43802">
        <ele>1121.9</ele>
        <time>2018-08-19T12:01:17.000Z</time>
      </trkpt>
      <trkpt lat="45.31333" lon="4.43802">
        <ele>1121.7</ele>
        <time>2018-08-19T12:01:18.000Z</time>
      </trkpt>
      <trkpt lat="45.31334" lon="4.43801">
        <ele>1121.5</ele>
        <time>2018-08-19T12:01:19.000Z</time>
      </trkpt>
      <trkpt lat="45.31335" lon="4.438">
        <ele>1121.3</ele>
        <time>2018-08-19T12:01:20.000Z</time>
      </trkpt>
      <trkpt lat="45.31335" lon="4.438">
        <ele>1121.2</ele>
        <time>2018-08-19T12:01:21.000Z</time>
      </trkpt>
      <trkpt lat="45.31336" lon="4.43799">
        <ele>1121</ele>
        <time>2018-08-19T12:01:22.000Z</time>
      </trkpt>
      <trkpt lat="45.31337" lon="4.43799">
        <ele>1120.9</ele>
        <time>2018-08-19T12:01:23.000Z</time>
      </trkpt>
      <trkpt lat="45.31338" lon="4.43798">
        <ele>1120.7</ele>
        <time>2018-08-19T12:01:24.000Z</time>
      </trkpt>
      <trkpt lat="45.31339" lon="4.43798">
        <ele>1120.5</ele>
        <time>2018-08-19T12:01:25.000Z</time>
      </trkpt>
      <trkpt lat="45.3134" lon="4.43797">
        <ele>1120.4</ele>
        <time>2018-08-19T12:01:26.000Z</time>
      </trkpt>
      <trkpt lat="45.31341" lon="4.43797">
        <ele>1120.3</ele>
        <time>2018-08-19T12:01:27.000Z</time>
      </trkpt>
      <trkpt lat="45.31342" lon="4.43797">
        <ele>1120.1</ele>
        <time>2018-08-19T12:01:28.000Z</time>
      </trkpt>
      <trkpt lat="45.31343" lon="4.43796">
        <ele>1120</ele>
        <time>2018-08-19T12:01:29.000Z</time>
      </trkpt>
      <trkpt lat="45.31344" lon="4.43796">
        <ele>1119.9</ele>
        <time>2018-08-19T12:01:30.000Z</time>
      </trkpt>
      <trkpt lat="45.31345" lon="4.43796">
        <ele>1119.7</ele>
        <time>2018-08-19T12:01:31.000Z</time>
      </trkpt>
      <trkpt lat="45.31346" lon="4.43796">
        <ele>1119.6</ele>
        <time>2018-08-19T12:01:32.000Z</time>
      </trkpt>
      <trkpt lat="45.31347" lon="4.43795">
        <ele>1119.5</ele>
        <time>2018-08-19T12:01:33.000Z</time>
      </trkpt>
      <trkpt lat="45.31348" lon="4.43795">
        <ele>1119.3</ele>
        <time>2018-08-19T12:01:34.000Z</time>
      </trkpt>
      <trkpt lat="45.31349" lon="4.43795">
        <ele>1119.2</ele>
        <time>2018-08-19T12:01:35.000Z</time>
      </trkpt>
      <trkpt lat="45.3135" lon="4.43795">
        <ele>1119.1</ele>
        <time>2018-08-19T12:01:36.000Z</time>
      </trkpt>
      <trkpt lat="45.31351" lon="4.43794">
        <ele>1119</ele>
        <time>2018-08-19T12:01:37.000Z</time>
      </trkpt>
      <trkpt lat="45.31352" lon="4.43794">
        <ele>1118.8</ele>
        <time>2018-08-19T12:01:38.000Z</time>
      </trkpt>
      <trkpt lat="45.31353" lon="4.43794">
        <ele>1118.7</ele>
        <time>2018-08-19T12:01:39.000Z</time>
      </trkpt>
      <trkpt lat="45.31354" lon="4.43793">
        <ele>1118.6</ele>
        <time>2018-08-19T12:01:40.000Z</time>
      </trkpt>
      <trkpt lat="45.31355" lon="4.43793">
        <ele>1118.4</ele>
        <time>2018-08-19T12:01:41.000Z</time>
      </trkpt>
      <trkpt lat="45.31356" lon="4.43793">
        <ele>1118.3</ele>
        <time>2018-08-19T12:01:42.000Z</time>
      </trkpt>
      <trkpt lat="45.31357" lon="4.43792">
        <ele>1118.2</ele>
        <time>2018-08-19T12:01:43.000Z</time>
      </trkpt>
      <trkpt lat="45.31358" lon="4.43792">
        <ele>1118</ele>
        <time>2018-08-19T12:01:44.000Z</time>
      </trkpt>
      <trkpt lat="45.31359" lon="4.43791">
        <ele>1117.9</ele>
        <time>2018-08-19T12:01:45.000Z</time>
      </trkpt>
      <trkpt lat="45.3136" lon="4.43791">
        <ele>1117.7</ele>
        <time>2018-08-19T12:01:46.000Z</time>
      </trkpt>
      <trkpt lat="45.31361" lon="4.4379">
        <ele>1117.6</ele>
        <time>2018-08-19T12:01:47.000Z</time>
      </trkpt>
      <trkpt lat="45.31362" lon="4.4379">
        <ele>1117.4</ele>
        <time>2018-08-19T12:01:48.000Z</time>
      </trkpt>
      <trkpt lat="45.31363" lon="4.43789">
        <ele>1117.3</ele>
        <time>2018-08-19T12:01:49.000Z</time>
      </trkpt>
      <trkpt lat="45.31364" lon="4.43789">
        <ele>1117.1</ele>
        <time>2018-08-19T12:01:50.000Z</time>
      </trkpt>
      <trkpt lat="45.31365" lon="4.43788">
        <ele>1117</ele>
        <time>2018-08-19T12:01:51.000Z</time>
      </trkpt>
      <trkpt lat="45.31366" lon="4.43788">
        <ele>1116.8</ele>
        <time>2018-08-19T12:01:52.000Z</time>
      </trkpt>
      <trkpt lat="45.31367" lon="4.43788">
        <ele>1116.7</ele>
        <time>2018-08-19T12:01:53.000Z</time>
      </trkpt>
      <trkpt lat="45.31368" lon="4.43787">
        <ele>1116.5</ele>
        <time>2018-08-19T12:01:54.000Z</time>
      </trkpt>
      <trkpt lat="45.31369" lon="4.43787">
        <ele>1116.4</ele>
        <time>2018-08-19T12:01:55.000Z</time>
      </trkpt>
      <trkpt lat="45.3137" lon="4.43786">
        <ele>1116.3</ele>
        <time>2018-08-19T12:01:56.000Z</time>
      </trkpt>
      <trkpt lat="45.31371" lon="4.43786">
        <ele>1116.1</ele>
        <time>2018-08-19T12:01:57.000Z</time>
      </trkpt>
      <trkpt lat="45.31372" lon="4.43786">
        <ele>1116</ele>
        <time>2018-08-19T12:01:58.000Z</time>
      </trkpt>
      <trkpt lat="45.31373" lon="4.43785">
        <ele>1115.9</ele>
        <time>2018-08-19T12:01:59.000Z</time>
      </trkpt>
      <trkpt lat="45.31374" lon="4.43785">
        <ele>1115.7</ele>
        <time>2018-08-19T12:02:00.000Z</time>
      </trkpt>
      <trkpt lat="45.31375" lon="4.43785">
        <ele>1115.6</ele>
        <time>2018-08-19T12:02:01.000Z</time>
      </trkpt>
      <trkpt lat="45.31376" lon="4.43784">
        <ele>1115.4</ele>
        <time>2018-08-19T12:02:02.000Z</time>
      </trkpt>
      <trkpt lat="45.31377" lon="4.43784">
        <ele>1115.3</ele>
        <time>2018-08-19T12:02:03.000Z</time>
      </trkpt>
      <trkpt lat="45.31378" lon="4.43784">
        <ele>1115.2</ele>
        <time>2018-08-19T12:02:04.000Z</time>
      </trkpt>
      <trkpt lat="45.31379" lon="4.43784">
        <ele>1115</ele>
        <time>2018-08-19T12:02:05.000Z</time>
      </trkpt>
      <trkpt lat="45.3138" lon="4.43783">
        <ele>1114.9</ele>
        <time>2018-08-19T12:02:06.000Z</time>
      </trkpt>
      <trkpt lat="45.31381" lon="4.43783">
        <ele>1114.8</ele>
        <time>2018-08-19T12:02:07.000Z</time>
      </trkpt>
      <trkpt lat="45.31382" lon="4.43783">
        <ele>1114.6</ele>
        <time>2018-08-19T12:02:08.000Z</time>
      </trkpt>
      <trkpt lat="45.31383" lon="4.43782">
        <ele>1114.5</ele>
        <time>2018-08-19T12:02:09.000Z</time>
      </trkpt>
      <trkpt lat="45.31384" lon="4.43782">
        <ele>1114.3</ele>
        <time>2018-08-19T12:02:10.000Z</time>
      </trkpt>
      <trkpt lat="45.31385" lon="4.43782">
        <ele>1114.2</ele>
        <time>2018-08-19T12:02:11.000Z</time>
      </trkpt>
      <trkpt lat="45.31386" lon="4.43782">
        <ele>1114.1</ele>
        <time>2018-08-19T12:02:12.000Z</time>
      </trkpt>
      <trkpt lat="45.31387" lon="4.43782">
        <ele>1114.1</ele>
        <time>2018-08-19T12:02:13.000Z</time>
      </trkpt>
      <trkpt lat="45.31387" lon="4.43782">
        <ele>1114</ele>
        <time>2018-08-19T12:02:14.000Z</time>
      </trkpt>
      <trkpt lat="45.31387" lon="4.43782">
        <ele>1114</ele>
        <time>2018-08-19T12:02:15.000Z</time>
      </trkpt>
      <trkpt lat="45.31388" lon="4.43781">
        <ele>1113.9</ele>
        <time>2018-08-19T12:02:16.000Z</time>
      </trkpt>
      <trkpt lat="45.31389" lon="4.43781">
        <ele>1113.8</ele>
        <time>2018-08-19T12:02:17.000Z</time>
      </trkpt>
      <trkpt lat="45.31391" lon="4.43781">
        <ele>1113.6</ele>
        <time>2018-08-19T12:02:18.000Z</time>
      </trkpt>
      <trkpt lat="45.31392" lon="4.43781">
        <ele>1113.4</ele>
        <time>2018-08-19T12:02:19.000Z</time>
      </trkpt>
      <trkpt lat="45.31393" lon="4.43781">
        <ele>1113.3</ele>
        <time>2018-08-19T12:02:20.000Z</time>
      </trkpt>
      <trkpt lat="45.31395" lon="4.43781">
        <ele>1113.2</ele>
        <time>2018-08-19T12:02:21.000Z</time>
      </trkpt>
      <trkpt lat="45.31396" lon="4.43782">
        <ele>1113.1</ele>
        <time>2018-08-19T12:02:22.000Z</time>
      </trkpt>
      <trkpt lat="45.31397" lon="4.43783">
        <ele>1113.1</ele>
        <time>2018-08-19T12:02:23.000Z</time>
      </trkpt>
      <trkpt lat="45.31399" lon="4.43783">
        <ele>1113</ele>
        <time>2018-08-19T12:02:24.000Z</time>
      </trkpt>
      <trkpt lat="45.314" lon="4.43784">
        <ele>1112.9</ele>
        <time>2018-08-19T12:02:25.000Z</time>
      </trkpt>
      <trkpt lat="45.31401" lon="4.43784">
        <ele>1112.8</ele>
        <time>2018-08-19T12:02:26.000Z</time>
      </trkpt>
      <trkpt lat="45.31403" lon="4.43785">
        <ele>1112.7</ele>
        <time>2018-08-19T12:02:27.000Z</time>
      </trkpt>
      <trkpt lat="45.31404" lon="4.43785">
        <ele>1112.6</ele>
        <time>2018-08-19T12:02:28.000Z</time>
      </trkpt>
      <trkpt lat="45.31405" lon="4.43785">
        <ele>1112.5</ele>
        <time>2018-08-19T12:02:29.000Z</time>
      </trkpt>
      <trkpt lat="45.31406" lon="4.43785">
        <ele>1112.4</ele>
        <time>2018-08-19T12:02:30.000Z</time>
      </trkpt>
      <trkpt lat="45.31407" lon="4.43785">
        <ele>1112.3</ele>
        <time>2018-08-19T12:02:31.000Z</time>
      </trkpt>
      <trkpt lat="45.31409" lon="4.43786">
        <ele>1112.3</ele>
        <time>2018-08-19T12:02:32.000Z</time>
      </trkpt>
      <trkpt lat="45.3141" lon="4.43786">
        <ele>1112.2</ele>
        <time>2018-08-19T12:02:33.000Z</time>
      </trkpt>
      <trkpt lat="45.31411" lon="4.43787">
        <ele>1112.2</ele>
        <time>2018-08-19T12:02:34.000Z</time>
      </trkpt>
      <trkpt lat="45.31412" lon="4.43788">
        <ele>1112.1</ele>
        <time>2018-08-19T12:02:35.000Z</time>
      </trkpt>
      <trkpt lat="45.31413" lon="4.43789">
        <ele>1112.1</ele>
        <time>2018-08-19T12:02:36.000Z</time>
      </trkpt>
      <trkpt lat="45.31414" lon="4.43789">
        <ele>1112.1</ele>
        <time>2018-08-19T12:02:37.000Z</time>
      </trkpt>
      <trkpt lat="45.31414" lon="4.4379">
        <ele>1112.1</ele>
        <time>2018-08-19T12:02:38.000Z</time>
      </trkpt>
      <trkpt lat="45.31415" lon="4.43791">
        <ele>1112.1</ele>
        <time>2018-08-19T12:02:39.000Z</time>
      </trkpt>
      <trkpt lat="45.31416" lon="4.43792">
        <ele>1112.1</ele>
        <time>2018-08-19T12:02:40.000Z</time>
      </trkpt>
      <trkpt lat="45.31417" lon="4.43792">
        <ele>1112.1</ele>
        <time>2018-08-19T12:02:41.000Z</time>
      </trkpt>
      <trkpt lat="45.31418" lon="4.43793">
        <ele>1112</ele>
        <time>2018-08-19T12:02:42.000Z</time>
      </trkpt>
      <trkpt lat="45.31418" lon="4.43794">
        <ele>1112</ele>
        <time>2018-08-19T12:02:43.000Z</time>
      </trkpt>
      <trkpt lat="45.31419" lon="4.43794">
        <ele>1111.9</ele>
        <time>2018-08-19T12:02:44.000Z</time>
      </trkpt>
      <trkpt lat="45.3142" lon="4.43795">
        <ele>1111.8</ele>
        <time>2018-08-19T12:02:45.000Z</time>
      </trkpt>
      <trkpt lat="45.31421" lon="4.43795">
        <ele>1111.7</ele>
        <time>2018-08-19T12:02:46.000Z</time>
      </trkpt>
      <trkpt lat="45.31422" lon="4.43796">
        <ele>1111.6</ele>
        <time>2018-08-19T12:02:47.000Z</time>
      </trkpt>
      <trkpt lat="45.31424" lon="4.43797">
        <ele>1111.5</ele>
        <time>2018-08-19T12:02:48.000Z</time>
      </trkpt>
      <trkpt lat="45.31425" lon="4.43797">
        <ele>1111.4</ele>
        <time>2018-08-19T12:02:49.000Z</time>
      </trkpt>
      <trkpt lat="45.31426" lon="4.43798">
        <ele>1111.3</ele>
        <time>2018-08-19T12:02:50.000Z</time>
      </trkpt>
      <trkpt lat="45.31427" lon="4.43799">
        <ele>1111.2</ele>
        <time>2018-08-19T12:02:51.000Z</time>
      </trkpt>
      <trkpt lat="45.31428" lon="4.43799">
        <ele>1111.1</ele>
        <time>2018-08-19T12:02:52.000Z</time>
      </trkpt>
      <trkpt lat="45.31429" lon="4.438">
        <ele>1111</ele>
        <time>2018-08-19T12:02:53.000Z</time>
      </trkpt>
      <trkpt lat="45.3143" lon="4.43801">
        <ele>1110.9</ele>
        <time>2018-08-19T12:02:54.000Z</time>
      </trkpt>
      <trkpt lat="45.31431" lon="4.43801">
        <ele>1110.8</ele>
        <time>2018-08-19T12:02:55.000Z</time>
      </trkpt>
      <trkpt lat="45.31432" lon="4.43802">
        <ele>1110.8</ele>
        <time>2018-08-19T12:02:56.000Z</time>
      </trkpt>
      <trkpt lat="45.31433" lon="4.43802">
        <ele>1110.7</ele>
        <time>2018-08-19T12:02:57.000Z</time>
      </trkpt>
      <trkpt lat="45.31434" lon="4.43803">
        <ele>1110.6</ele>
        <time>2018-08-19T12:02:58.000Z</time>
      </trkpt>
      <trkpt lat="45.31435" lon="4.43803">
        <ele>1110.5</ele>
        <time>2018-08-19T12:02:59.000Z</time>
      </trkpt>
      <trkpt lat="45.31436" lon="4.43804">
        <ele>1110.4</ele>
        <time>2018-08-19T12:03:00.000Z</time>
      </trkpt>
      <trkpt lat="45.31437" lon="4.43804">
        <ele>1110.3</ele>
        <time>2018-08-19T12:03:01.000Z</time>
      </trkpt>
      <trkpt lat="45.31438" lon="4.43804">
        <ele>1110.2</ele>
        <time>2018-08-19T12:03:02.000Z</time>
      </trkpt>
      <trkpt lat="45.31439" lon="4.43804">
        <ele>1110</ele>
        <time>2018-08-19T12:03:03.000Z</time>
      </trkpt>
      <trkpt lat="45.3144" lon="4.43804">
        <ele>1109.9</ele>
        <time>2018-08-19T12:03:04.000Z</time>
      </trkpt>
      <trkpt lat="45.31441" lon="4.43804">
        <ele>1109.7</ele>
        <time>2018-08-19T12:03:05.000Z</time>
      </trkpt>
      <trkpt lat="45.31442" lon="4.43803">
        <ele>1109.5</ele>
        <time>2018-08-19T12:03:06.000Z</time>
      </trkpt>
      <trkpt lat="45.31443" lon="4.43803">
        <ele>1109.3</ele>
        <time>2018-08-19T12:03:07.000Z</time>
      </trkpt>
      <trkpt lat="45.31444" lon="4.43802">
        <ele>1109.1</ele>
        <time>2018-08-19T12:03:08.000Z</time>
      </trkpt>
      <trkpt lat="45.31445" lon="4.43801">
        <ele>1108.9</ele>
        <time>2018-08-19T12:03:09.000Z</time>
      </trkpt>
      <trkpt lat="45.31446" lon="4.43801">
        <ele>1108.7</ele>
        <time>2018-08-19T12:03:10.000Z</time>
      </trkpt>
      <trkpt lat="45.31447" lon="4.438">
        <ele>1108.5</ele>
        <time>2018-08-19T12:03:11.000Z</time>
      </trkpt>
      <trkpt lat="45.31448" lon="4.438">
        <ele>1108.4</ele>
        <time>2018-08-19T12:03:12.000Z</time>
      </trkpt>
      <trkpt lat="45.31449" lon="4.438">
        <ele>1108.2</ele>
        <time>2018-08-19T12:03:13.000Z</time>
      </trkpt>
      <trkpt lat="45.3145" lon="4.438">
        <ele>1108.1</ele>
        <time>2018-08-19T12:03:14.000Z</time>
      </trkpt>
      <trkpt lat="45.31451" lon="4.438">
        <ele>1108</ele>
        <time>2018-08-19T12:03:15.000Z</time>
      </trkpt>
      <trkpt lat="45.31452" lon="4.438">
        <ele>1107.8</ele>
        <time>2018-08-19T12:03:16.000Z</time>
      </trkpt>
      <trkpt lat="45.31453" lon="4.438">
        <ele>1107.7</ele>
        <time>2018-08-19T12:03:17.000Z</time>
      </trkpt>
      <trkpt lat="45.31454" lon="4.438">
        <ele>1107.6</ele>
        <time>2018-08-19T12:03:18.000Z</time>
      </trkpt>
      <trkpt lat="45.31454" lon="4.43799">
        <ele>1107.4</ele>
        <time>2018-08-19T12:03:19.000Z</time>
      </trkpt>
      <trkpt lat="45.31455" lon="4.43799">
        <ele>1107.2</ele>
        <time>2018-08-19T12:03:20.000Z</time>
      </trkpt>
      <trkpt lat="45.31456" lon="4.43798">
        <ele>1107.1</ele>
        <time>2018-08-19T12:03:21.000Z</time>
      </trkpt>
      <trkpt lat="45.31457" lon="4.43797">
        <ele>1106.9</ele>
        <time>2018-08-19T12:03:22.000Z</time>
      </trkpt>
      <trkpt lat="45.31457" lon="4.43796">
        <ele>1106.8</ele>
        <time>2018-08-19T12:03:23.000Z</time>
      </trkpt>
      <trkpt lat="45.31458" lon="4.43796">
        <ele>1106.6</ele>
        <time>2018-08-19T12:03:24.000Z</time>
      </trkpt>
      <trkpt lat="45.31459" lon="4.43795">
        <ele>1106.4</ele>
        <time>2018-08-19T12:03:25.000Z</time>
      </trkpt>
      <trkpt lat="45.31459" lon="4.43794">
        <ele>1106.3</ele>
        <time>2018-08-19T12:03:26.000Z</time>
      </trkpt>
      <trkpt lat="45.3146" lon="4.43793">
        <ele>1106.1</ele>
        <time>2018-08-19T12:03:27.000Z</time>
      </trkpt>
      <trkpt lat="45.3146" lon="4.43792">
        <ele>1106</ele>
        <time>2018-08-19T12:03:28.000Z</time>
      </trkpt>
      <trkpt lat="45.31461" lon="4.43791">
        <ele>1105.8</ele>
        <time>2018-08-19T12:03:29.000Z</time>
      </trkpt>
      <trkpt lat="45.31462" lon="4.4379">
        <ele>1105.7</ele>
        <time>2018-08-19T12:03:30.000Z</time>
      </trkpt>
      <trkpt lat="45.31462" lon="4.43789">
        <ele>1105.5</ele>
        <time>2018-08-19T12:03:31.000Z</time>
      </trkpt>
      <trkpt lat="45.31463" lon="4.43788">
        <ele>1105.4</ele>
        <time>2018-08-19T12:03:32.000Z</time>
      </trkpt>
      <trkpt lat="45.31463" lon="4.43787">
        <ele>1105.2</ele>
        <time>2018-08-19T12:03:33.000Z</time>
      </trkpt>
      <trkpt lat="45.31464" lon="4.43786">
        <ele>1105.1</ele>
        <time>2018-08-19T12:03:34.000Z</time>
      </trkpt>
      <trkpt lat="45.31464" lon="4.43785">
        <ele>1104.9</ele>
        <time>2018-08-19T12:03:35.000Z</time>
      </trkpt>
      <trkpt lat="45.31465" lon="4.43784">
        <ele>1104.7</ele>
        <time>2018-08-19T12:03:36.000Z</time>
      </trkpt>
      <trkpt lat="45.31466" lon="4.43783">
        <ele>1104.6</ele>
        <time>2018-08-19T12:03:37.000Z</time>
      </trkpt>
      <trkpt lat="45.31466" lon="4.43782">
        <ele>1104.4</ele>
        <time>2018-08-19T12:03:38.000Z</time>
      </trkpt>
      <trkpt lat="45.31467" lon="4.4378">
        <ele>1104.2</ele>
        <time>2018-08-19T12:03:39.000Z</time>
      </trkpt>
      <trkpt lat="45.31468" lon="4.43779">
        <ele>1104.1</ele>
        <time>2018-08-19T12:03:40.000Z</time>
      </trkpt>
      <trkpt lat="45.31468" lon="4.43778">
        <ele>1103.9</ele>
        <time>2018-08-19T12:03:41.000Z</time>
      </trkpt>
      <trkpt lat="45.31469" lon="4.43777">
        <ele>1103.7</ele>
        <time>2018-08-19T12:03:42.000Z</time>
      </trkpt>
      <trkpt lat="45.31469" lon="4.43776">
        <ele>1103.5</ele>
        <time>2018-08-19T12:03:43.000Z</time>
      </trkpt>
      <trkpt lat="45.3147" lon="4.43774">
        <ele>1103.4</ele>
        <time>2018-08-19T12:03:44.000Z</time>
      </trkpt>
      <trkpt lat="45.31471" lon="4.43773">
        <ele>1103.2</ele>
        <time>2018-08-19T12:03:45.000Z</time>
      </trkpt>
      <trkpt lat="45.31472" lon="4.43772">
        <ele>1103</ele>
        <time>2018-08-19T12:03:46.000Z</time>
      </trkpt>
      <trkpt lat="45.31472" lon="4.43771">
        <ele>1102.8</ele>
        <time>2018-08-19T12:03:47.000Z</time>
      </trkpt>
      <trkpt lat="45.31473" lon="4.43769">
        <ele>1102.7</ele>
        <time>2018-08-19T12:03:48.000Z</time>
      </trkpt>
      <trkpt lat="45.31474" lon="4.43768">
        <ele>1102.5</ele>
        <time>2018-08-19T12:03:49.000Z</time>
      </trkpt>
      <trkpt lat="45.31474" lon="4.43767">
        <ele>1102.3</ele>
        <time>2018-08-19T12:03:50.000Z</time>
      </trkpt>
      <trkpt lat="45.31475" lon="4.43766">
        <ele>1102.1</ele>
        <time>2018-08-19T12:03:51.000Z</time>
      </trkpt>
      <trkpt lat="45.31475" lon="4.43765">
        <ele>1102</ele>
        <time>2018-08-19T12:03:52.000Z</time>
      </trkpt>
      <trkpt lat="45.31476" lon="4.43764">
        <ele>1101.8</ele>
        <time>2018-08-19T12:03:53.000Z</time>
      </trkpt>
      <trkpt lat="45.31477" lon="4.43763">
        <ele>1101.7</ele>
        <time>2018-08-19T12:03:54.000Z</time>
      </trkpt>
      <trkpt lat="45.31477" lon="4.43761">
        <ele>1101.5</ele>
        <time>2018-08-19T12:03:55.000Z</time>
      </trkpt>
      <trkpt lat="45.31478" lon="4.4376">
        <ele>1101.4</ele>
        <time>2018-08-19T12:03:56.000Z</time>
      </trkpt>
      <trkpt lat="45.31479" lon="4.43759">
        <ele>1101.2</ele>
        <time>2018-08-19T12:03:57.000Z</time>
      </trkpt>
      <trkpt lat="45.3148" lon="4.43758">
        <ele>1101</ele>
        <time>2018-08-19T12:03:58.000Z</time>
      </trkpt>
      <trkpt lat="45.31481" lon="4.43757">
        <ele>1100.8</ele>
        <time>2018-08-19T12:03:59.000Z</time>
      </trkpt>
      <trkpt lat="45.31482" lon="4.43756">
        <ele>1100.6</ele>
        <time>2018-08-19T12:04:00.000Z</time>
      </trkpt>
      <trkpt lat="45.31483" lon="4.43755">
        <ele>1100.4</ele>
        <time>2018-08-19T12:04:01.000Z</time>
      </trkpt>
      <trkpt lat="45.31484" lon="4.43754">
        <ele>1100.2</ele>
        <time>2018-08-19T12:04:02.000Z</time>
      </trkpt>
      <trkpt lat="45.31485" lon="4.43753">
        <ele>1100.1</ele>
        <time>2018-08-19T12:04:03.000Z</time>
      </trkpt>
      <trkpt lat="45.31486" lon="4.43752">
        <ele>1099.9</ele>
        <time>2018-08-19T12:04:04.000Z</time>
      </trkpt>
      <trkpt lat="45.31486" lon="4.43751">
        <ele>1099.7</ele>
        <time>2018-08-19T12:04:05.000Z</time>
      </trkpt>
      <trkpt lat="45.31487" lon="4.43751">
        <ele>1099.6</ele>
        <time>2018-08-19T12:04:06.000Z</time>
      </trkpt>
      <trkpt lat="45.31488" lon="4.4375">
        <ele>1099.4</ele>
        <time>2018-08-19T12:04:07.000Z</time>
      </trkpt>
      <trkpt lat="45.31488" lon="4.43749">
        <ele>1099.3</ele>
        <time>2018-08-19T12:04:08.000Z</time>
      </trkpt>
      <trkpt lat="45.31489" lon="4.43748">
        <ele>1099.2</ele>
        <time>2018-08-19T12:04:09.000Z</time>
      </trkpt>
      <trkpt lat="45.31489" lon="4.43748">
        <ele>1099.2</ele>
        <time>2018-08-19T12:04:10.000Z</time>
      </trkpt>
      <trkpt lat="45.3149" lon="4.43747">
        <ele>1099.1</ele>
        <time>2018-08-19T12:04:11.000Z</time>
      </trkpt>
      <trkpt lat="45.3149" lon="4.43747">
        <ele>1099</ele>
        <time>2018-08-19T12:04:12.000Z</time>
      </trkpt>
      <trkpt lat="45.31491" lon="4.43746">
        <ele>1099</ele>
        <time>2018-08-19T12:04:13.000Z</time>
      </trkpt>
      <trkpt lat="45.31491" lon="4.43746">
        <ele>1098.9</ele>
        <time>2018-08-19T12:04:14.000Z</time>
      </trkpt>
      <trkpt lat="45.31491" lon="4.43746">
        <ele>1098.9</ele>
        <time>2018-08-19T12:04:15.000Z</time>
      </trkpt>
      <trkpt lat="45.31491" lon="4.43746">
        <ele>1098.9</ele>
        <time>2018-08-19T12:04:16.000Z</time>
      </trkpt>
      <trkpt lat="45.31491" lon="4.43745">
        <ele>1098.9</ele>
        <time>2018-08-19T12:04:17.000Z</time>
      </trkpt>
      <trkpt lat="45.31491" lon="4.43745">
        <ele>1098.9</ele>
        <time>2018-08-19T12:04:18.000Z</time>
      </trkpt>
      <trkpt lat="45.31491" lon="4.43745">
        <ele>1098.9</ele>
        <time>2018-08-19T12:04:19.000Z</time>
      </trkpt>
      <trkpt lat="45.31491" lon="4.43745">
        <ele>1098.8</ele>
        <time>2018-08-19T12:04:20.000Z</time>
      </trkpt>
      <trkpt lat="45.31491" lon="4.43745">
        <ele>1098.8</ele>
        <time>2018-08-19T12:04:21.000Z</time>
      </trkpt>
      <trkpt lat="45.31491" lon="4.43745">
        <ele>1098.8</ele>
        <time>2018-08-19T12:04:22.000Z</time>
      </trkpt>
      <trkpt lat="45.31492" lon="4.43745">
        <ele>1098.7</ele>
        <time>2018-08-19T12:04:23.000Z</time>
      </trkpt>
      <trkpt lat="45.31492" lon="4.43744">
        <ele>1098.6</ele>
        <time>2018-08-19T12:04:24.000Z</time>
      </trkpt>
      <trkpt lat="45.31493" lon="4.43744">
        <ele>1098.5</ele>
        <time>2018-08-19T12:04:25.000Z</time>
      </trkpt>
      <trkpt lat="45.31495" lon="4.43743">
        <ele>1098.3</ele>
        <time>2018-08-19T12:04:26.000Z</time>
      </trkpt>
      <trkpt lat="45.31496" lon="4.43743">
        <ele>1098.1</ele>
        <time>2018-08-19T12:04:27.000Z</time>
      </trkpt>
      <trkpt lat="45.31497" lon="4.43743">
        <ele>1098</ele>
        <time>2018-08-19T12:04:28.000Z</time>
      </trkpt>
      <trkpt lat="45.31498" lon="4.43743">
        <ele>1097.9</ele>
        <time>2018-08-19T12:04:29.000Z</time>
      </trkpt>
      <trkpt lat="45.31499" lon="4.43743">
        <ele>1097.7</ele>
        <time>2018-08-19T12:04:30.000Z</time>
      </trkpt>
      <trkpt lat="45.31501" lon="4.43743">
        <ele>1097.6</ele>
        <time>2018-08-19T12:04:31.000Z</time>
      </trkpt>
      <trkpt lat="45.31502" lon="4.43743">
        <ele>1097.5</ele>
        <time>2018-08-19T12:04:32.000Z</time>
      </trkpt>
      <trkpt lat="45.31503" lon="4.43743">
        <ele>1097.4</ele>
        <time>2018-08-19T12:04:33.000Z</time>
      </trkpt>
      <trkpt lat="45.31505" lon="4.43743">
        <ele>1097.4</ele>
        <time>2018-08-19T12:04:34.000Z</time>
      </trkpt>
      <trkpt lat="45.31506" lon="4.43744">
        <ele>1097.3</ele>
        <time>2018-08-19T12:04:35.000Z</time>
      </trkpt>
      <trkpt lat="45.31507" lon="4.43744">
        <ele>1097.2</ele>
        <time>2018-08-19T12:04:36.000Z</time>
      </trkpt>
      <trkpt lat="45.31509" lon="4.43744">
        <ele>1097.1</ele>
        <time>2018-08-19T12:04:37.000Z</time>
      </trkpt>
      <trkpt lat="45.3151" lon="4.43745">
        <ele>1097.1</ele>
        <time>2018-08-19T12:04:38.000Z</time>
      </trkpt>
      <trkpt lat="45.31511" lon="4.43746">
        <ele>1097</ele>
        <time>2018-08-19T12:04:39.000Z</time>
      </trkpt>
      <trkpt lat="45.31512" lon="4.43747">
        <ele>1097</ele>
        <time>2018-08-19T12:04:40.000Z</time>
      </trkpt>
      <trkpt lat="45.31513" lon="4.43748">
        <ele>1097</ele>
        <time>2018-08-19T12:04:41.000Z</time>
      </trkpt>
      <trkpt lat="45.31514" lon="4.43749">
        <ele>1096.9</ele>
        <time>2018-08-19T12:04:42.000Z</time>
      </trkpt>
      <trkpt lat="45.31515" lon="4.4375">
        <ele>1096.9</ele>
        <time>2018-08-19T12:04:43.000Z</time>
      </trkpt>
      <trkpt lat="45.31516" lon="4.43751">
        <ele>1096.9</ele>
        <time>2018-08-19T12:04:44.000Z</time>
      </trkpt>
      <trkpt lat="45.31517" lon="4.43752">
        <ele>1096.9</ele>
        <time>2018-08-19T12:04:45.000Z</time>
      </trkpt>
      <trkpt lat="45.31518" lon="4.43753">
        <ele>1096.9</ele>
        <time>2018-08-19T12:04:46.000Z</time>
      </trkpt>
      <trkpt lat="45.31519" lon="4.43754">
        <ele>1096.8</ele>
        <time>2018-08-19T12:04:47.000Z</time>
      </trkpt>
      <trkpt lat="45.3152" lon="4.43755">
        <ele>1096.8</ele>
        <time>2018-08-19T12:04:48.000Z</time>
      </trkpt>
      <trkpt lat="45.31521" lon="4.43756">
        <ele>1096.8</ele>
        <time>2018-08-19T12:04:49.000Z</time>
      </trkpt>
      <trkpt lat="45.31522" lon="4.43757">
        <ele>1096.7</ele>
        <time>2018-08-19T12:04:50.000Z</time>
      </trkpt>
      <trkpt lat="45.31523" lon="4.43758">
        <ele>1096.7</ele>
        <time>2018-08-19T12:04:51.000Z</time>
      </trkpt>
      <trkpt lat="45.31525" lon="4.43758">
        <ele>1096.6</ele>
        <time>2018-08-19T12:04:52.000Z</time>
      </trkpt>
      <trkpt lat="45.31526" lon="4.43759">
        <ele>1096.6</ele>
        <time>2018-08-19T12:04:53.000Z</time>
      </trkpt>
      <trkpt lat="45.31527" lon="4.4376">
        <ele>1096.5</ele>
        <time>2018-08-19T12:04:54.000Z</time>
      </trkpt>
      <trkpt lat="45.31528" lon="4.43761">
        <ele>1096.5</ele>
        <time>2018-08-19T12:04:55.000Z</time>
      </trkpt>
      <trkpt lat="45.31529" lon="4.43761">
        <ele>1096.4</ele>
        <time>2018-08-19T12:04:56.000Z</time>
      </trkpt>
      <trkpt lat="45.31531" lon="4.43762">
        <ele>1096.3</ele>
        <time>2018-08-19T12:04:57.000Z</time>
      </trkpt>
      <trkpt lat="45.31532" lon="4.43762">
        <ele>1096.3</ele>
        <time>2018-08-19T12:04:58.000Z</time>
      </trkpt>
      <trkpt lat="45.31533" lon="4.43762">
        <ele>1096.2</ele>
        <time>2018-08-19T12:04:59.000Z</time>
      </trkpt>
      <trkpt lat="45.31534" lon="4.43763">
        <ele>1096.1</ele>
        <time>2018-08-19T12:05:00.000Z</time>
      </trkpt>
      <trkpt lat="45.31535" lon="4.43763">
        <ele>1096</ele>
        <time>2018-08-19T12:05:01.000Z</time>
      </trkpt>
      <trkpt lat="45.31536" lon="4.43763">
        <ele>1096</ele>
        <time>2018-08-19T12:05:02.000Z</time>
      </trkpt>
      <trkpt lat="45.31537" lon="4.43763">
        <ele>1095.9</ele>
        <time>2018-08-19T12:05:03.000Z</time>
      </trkpt>
      <trkpt lat="45.31538" lon="4.43763">
        <ele>1095.9</ele>
        <time>2018-08-19T12:05:04.000Z</time>
      </trkpt>
      <trkpt lat="45.31539" lon="4.43763">
        <ele>1095.8</ele>
        <time>2018-08-19T12:05:05.000Z</time>
      </trkpt>
      <trkpt lat="45.3154" lon="4.43763">
        <ele>1095.7</ele>
        <time>2018-08-19T12:05:06.000Z</time>
      </trkpt>
      <trkpt lat="45.31541" lon="4.43762">
        <ele>1095.6</ele>
        <time>2018-08-19T12:05:07.000Z</time>
      </trkpt>
      <trkpt lat="45.31542" lon="4.43762">
        <ele>1095.5</ele>
        <time>2018-08-19T12:05:08.000Z</time>
      </trkpt>
      <trkpt lat="45.31543" lon="4.43761">
        <ele>1095.4</ele>
        <time>2018-08-19T12:05:09.000Z</time>
      </trkpt>
      <trkpt lat="45.31544" lon="4.43761">
        <ele>1095.2</ele>
        <time>2018-08-19T12:05:10.000Z</time>
      </trkpt>
      <trkpt lat="45.31546" lon="4.4376">
        <ele>1095.1</ele>
        <time>2018-08-19T12:05:11.000Z</time>
      </trkpt>
      <trkpt lat="45.31547" lon="4.43759">
        <ele>1095</ele>
        <time>2018-08-19T12:05:12.000Z</time>
      </trkpt>
      <trkpt lat="45.31548" lon="4.43759">
        <ele>1094.9</ele>
        <time>2018-08-19T12:05:13.000Z</time>
      </trkpt>
      <trkpt lat="45.3155" lon="4.43758">
        <ele>1094.7</ele>
        <time>2018-08-19T12:05:14.000Z</time>
      </trkpt>
      <trkpt lat="45.31551" lon="4.43758">
        <ele>1094.6</ele>
        <time>2018-08-19T12:05:15.000Z</time>
      </trkpt>
      <trkpt lat="45.31553" lon="4.43757">
        <ele>1094.5</ele>
        <time>2018-08-19T12:05:16.000Z</time>
      </trkpt>
      <trkpt lat="45.31554" lon="4.43756">
        <ele>1094.4</ele>
        <time>2018-08-19T12:05:17.000Z</time>
      </trkpt>
      <trkpt lat="45.31555" lon="4.43756">
        <ele>1094.2</ele>
        <time>2018-08-19T12:05:18.000Z</time>
      </trkpt>
      <trkpt lat="45.31557" lon="4.43756">
        <ele>1094.1</ele>
        <time>2018-08-19T12:05:19.000Z</time>
      </trkpt>
      <trkpt lat="45.31558" lon="4.43755">
        <ele>1094</ele>
        <time>2018-08-19T12:05:20.000Z</time>
      </trkpt>
      <trkpt lat="45.31559" lon="4.43755">
        <ele>1093.9</ele>
        <time>2018-08-19T12:05:21.000Z</time>
      </trkpt>
      <trkpt lat="45.31561" lon="4.43755">
        <ele>1093.8</ele>
        <time>2018-08-19T12:05:22.000Z</time>
      </trkpt>
      <trkpt lat="45.31562" lon="4.43755">
        <ele>1093.7</ele>
        <time>2018-08-19T12:05:23.000Z</time>
      </trkpt>
      <trkpt lat="45.31563" lon="4.43754">
        <ele>1093.6</ele>
        <time>2018-08-19T12:05:24.000Z</time>
      </trkpt>
      <trkpt lat="45.31565" lon="4.43754">
        <ele>1093.5</ele>
        <time>2018-08-19T12:05:25.000Z</time>
      </trkpt>
      <trkpt lat="45.31566" lon="4.43754">
        <ele>1093.4</ele>
        <time>2018-08-19T12:05:26.000Z</time>
      </trkpt>
      <trkpt lat="45.31567" lon="4.43754">
        <ele>1093.3</ele>
        <time>2018-08-19T12:05:27.000Z</time>
      </trkpt>
      <trkpt lat="45.31568" lon="4.43754">
        <ele>1093.2</ele>
        <time>2018-08-19T12:05:28.000Z</time>
      </trkpt>
      <trkpt lat="45.3157" lon="4.43754">
        <ele>1093.1</ele>
        <time>2018-08-19T12:05:29.000Z</time>
      </trkpt>
      <trkpt lat="45.31571" lon="4.43754">
        <ele>1093</ele>
        <time>2018-08-19T12:05:30.000Z</time>
      </trkpt>
      <trkpt lat="45.31572" lon="4.43753">
        <ele>1092.9</ele>
        <time>2018-08-19T12:05:31.000Z</time>
      </trkpt>
      <trkpt lat="45.31573" lon="4.43752">
        <ele>1092.8</ele>
        <time>2018-08-19T12:05:32.000Z</time>
      </trkpt>
      <trkpt lat="45.31574" lon="4.43752">
        <ele>1092.7</ele>
        <time>2018-08-19T12:05:33.000Z</time>
      </trkpt>
      <trkpt lat="45.31575" lon="4.43751">
        <ele>1092.6</ele>
        <time>2018-08-19T12:05:34.000Z</time>
      </trkpt>
      <trkpt lat="45.31576" lon="4.4375">
        <ele>1092.5</ele>
        <time>2018-08-19T12:05:35.000Z</time>
      </trkpt>
      <trkpt lat="45.31577" lon="4.43749">
        <ele>1092.4</ele>
        <time>2018-08-19T12:05:36.000Z</time>
      </trkpt>
      <trkpt lat="45.31578" lon="4.43749">
        <ele>1092.3</ele>
        <time>2018-08-19T12:05:37.000Z</time>
      </trkpt>
      <trkpt lat="45.31579" lon="4.43748">
        <ele>1092.2</ele>
        <time>2018-08-19T12:05:38.000Z</time>
      </trkpt>
      <trkpt lat="45.3158" lon="4.43748">
        <ele>1092.1</ele>
        <time>2018-08-19T12:05:39.000Z</time>
      </trkpt>
      <trkpt lat="45.31581" lon="4.43747">
        <ele>1092</ele>
        <time>2018-08-19T12:05:40.000Z</time>
      </trkpt>
      <trkpt lat="45.31583" lon="4.43747">
        <ele>1092</ele>
        <time>2018-08-19T12:05:41.000Z</time>
      </trkpt>
      <trkpt lat="45.31584" lon="4.43747">
        <ele>1091.8</ele>
        <time>2018-08-19T12:05:42.000Z</time>
      </trkpt>
      <trkpt lat="45.31585" lon="4.43746">
        <ele>1091.7</ele>
        <time>2018-08-19T12:05:43.000Z</time>
      </trkpt>
      <trkpt lat="45.31586" lon="4.43746">
        <ele>1091.5</ele>
        <time>2018-08-19T12:05:44.000Z</time>
      </trkpt>
      <trkpt lat="45.31587" lon="4.43745">
        <ele>1091.4</ele>
        <time>2018-08-19T12:05:45.000Z</time>
      </trkpt>
      <trkpt lat="45.31588" lon="4.43745">
        <ele>1091.2</ele>
        <time>2018-08-19T12:05:46.000Z</time>
      </trkpt>
      <trkpt lat="45.31589" lon="4.43744">
        <ele>1091.1</ele>
        <time>2018-08-19T12:05:47.000Z</time>
      </trkpt>
      <trkpt lat="45.3159" lon="4.43744">
        <ele>1090.9</ele>
        <time>2018-08-19T12:05:48.000Z</time>
      </trkpt>
      <trkpt lat="45.31591" lon="4.43744">
        <ele>1090.7</ele>
        <time>2018-08-19T12:05:49.000Z</time>
      </trkpt>
      <trkpt lat="45.31593" lon="4.43744">
        <ele>1090.6</ele>
        <time>2018-08-19T12:05:50.000Z</time>
      </trkpt>
      <trkpt lat="45.31594" lon="4.43745">
        <ele>1090.4</ele>
        <time>2018-08-19T12:05:51.000Z</time>
      </trkpt>
      <trkpt lat="45.31595" lon="4.43745">
        <ele>1090.3</ele>
        <time>2018-08-19T12:05:52.000Z</time>
      </trkpt>
      <trkpt lat="45.31596" lon="4.43746">
        <ele>1090.1</ele>
        <time>2018-08-19T12:05:53.000Z</time>
      </trkpt>
      <trkpt lat="45.31597" lon="4.43747">
        <ele>1090.1</ele>
        <time>2018-08-19T12:05:54.000Z</time>
      </trkpt>
      <trkpt lat="45.31598" lon="4.43748">
        <ele>1090</ele>
        <time>2018-08-19T12:05:55.000Z</time>
      </trkpt>
      <trkpt lat="45.31599" lon="4.43749">
        <ele>1089.9</ele>
        <time>2018-08-19T12:05:56.000Z</time>
      </trkpt>
      <trkpt lat="45.31599" lon="4.4375">
        <ele>1089.9</ele>
        <time>2018-08-19T12:05:57.000Z</time>
      </trkpt>
      <trkpt lat="45.316" lon="4.43751">
        <ele>1089.9</ele>
        <time>2018-08-19T12:05:58.000Z</time>
      </trkpt>
      <trkpt lat="45.316" lon="4.43752">
        <ele>1089.8</ele>
        <time>2018-08-19T12:05:59.000Z</time>
      </trkpt>
      <trkpt lat="45.31601" lon="4.43753">
        <ele>1089.8</ele>
        <time>2018-08-19T12:06:00.000Z</time>
      </trkpt>
      <trkpt lat="45.31601" lon="4.43753">
        <ele>1089.8</ele>
        <time>2018-08-19T12:06:01.000Z</time>
      </trkpt>
      <trkpt lat="45.31601" lon="4.43753">
        <ele>1089.8</ele>
        <time>2018-08-19T12:06:02.000Z</time>
      </trkpt>
      <trkpt lat="45.31601" lon="4.43753">
        <ele>1089.8</ele>
        <time>2018-08-19T12:06:03.000Z</time>
      </trkpt>
      <trkpt lat="45.31601" lon="4.43753">
        <ele>1089.8</ele>
        <time>2018-08-19T12:06:04.000Z</time>
      </trkpt>
      <trkpt lat="45.31601" lon="4.43753">
        <ele>1089.8</ele>
        <time>2018-08-19T12:06:05.000Z</time>
      </trkpt>
      <trkpt lat="45.31601" lon="4.43753">
        <ele>1089.8</ele>
        <time>2018-08-19T12:06:06.000Z</time>
      </trkpt>
      <trkpt lat="45.31601" lon="4.43753">
        <ele>1089.8</ele>
        <time>2018-08-19T12:06:07.000Z</time>
      </trkpt>
      <trkpt lat="45.31601" lon="4.43753">
        <ele>1089.8</ele>
        <time>2018-08-19T12:06:08.000Z</time>
      </trkpt>
      <trkpt lat="45.31601" lon="4.43753">
        <ele>1089.8</ele>
        <time>2018-08-19T12:06:09.000Z</time>
      </trkpt>
      <trkpt lat="45.31601" lon="4.43753">
        <ele>1089.8</ele>
        <time>2018-08-19T12:06:10.000Z</time>
      </trkpt>
      <trkpt lat="45.31601" lon="4.43753">
        <ele>1089.8</ele>
        <time>2018-08-19T12:06:11.000Z</time>
      </trkpt>
      <trkpt lat="45.31601" lon="4.43753">
        <ele>1089.8</ele>
        <time>2018-08-19T12:06:12.000Z</time>
      </trkpt>
      <trkpt lat="45.31601" lon="4.43753">
        <ele>1089.8</ele>
        <time>2018-08-19T12:06:13.000Z</time>
      </trkpt>
      <trkpt lat="45.31601" lon="4.43753">
        <ele>1089.8</ele>
        <time>2018-08-19T12:06:14.000Z</time>
      </trkpt>
      <trkpt lat="45.31601" lon="4.43753">
        <ele>1089.8</ele>
        <time>2018-08-19T12:06:15.000Z</time>
      </trkpt>
      <trkpt lat="45.31601" lon="4.43753">
        <ele>1089.8</ele>
        <time>2018-08-19T12:06:16.000Z</time>
      </trkpt>
      <trkpt lat="45.31601" lon="4.43753">
        <ele>1089.8</ele>
        <time>2018-08-19T12:06:17.000Z</time>
      </trkpt>
      <trkpt lat="45.31601" lon="4.43753">
        <ele>1089.8</ele>
        <time>2018-08-19T12:06:18.000Z</time>
      </trkpt>
      <trkpt lat="45.31601" lon="4.43753">
        <ele>1089.8</ele>
        <time>2018-08-19T12:06:19.000Z</time>
      </trkpt>
      <trkpt lat="45.31601" lon="4.43753">
        <ele>1089.8</ele>
        <time>2018-08-19T12:06:20.000Z</time>
      </trkpt>
      <trkpt lat="45.31601" lon="4.43753">
        <ele>1089.8</ele>
        <time>2018-08-19T12:06:21.000Z</time>
      </trkpt>
      <trkpt lat="45.31601" lon="4.43753">
        <ele>1089.8</ele>
        <time>2018-08-19T12:06:22.000Z</time>
      </trkpt>
      <trkpt lat="45.31601" lon="4.43753">
        <ele>1089.8</ele>
        <time>2018-08-19T12:06:23.000Z</time>
      </trkpt>
      <trkpt lat="45.31601" lon="4.43753">
        <ele>1089.8</ele>
        <time>2018-08-19T12:06:24.000Z</time>
      </trkpt>
      <trkpt lat="45.31601" lon="4.43753">
        <ele>1089.8</ele>
        <time>2018-08-19T12:06:25.000Z</time>
      </trkpt>
      <trkpt lat="45.31601" lon="4.43753">
        <ele>1089.8</ele>
        <time>2018-08-19T12:06:26.000Z</time>
      </trkpt>
      <trkpt lat="45.31601" lon="4.43753">
        <ele>1089.8</ele>
        <time>2018-08-19T12:06:27.000Z</time>
      </trkpt>
      <trkpt lat="45.31601" lon="4.43753">
        <ele>1089.8</ele>
        <time>2018-08-19T12:06:28.000Z</time>
      </trkpt>
      <trkpt lat="45.31601" lon="4.43753">
        <ele>1089.8</ele>
        <time>2018-08-19T12:06:29.000Z</time>
      </trkpt>
      <trkpt lat="45.31601" lon="4.43753">
        <ele>1089.8</ele>
        <time>2018-08-19T12:06:30.000Z</time>
      </trkpt>
      <trkpt lat="45.31601" lon="4.43753">
        <ele>1089.8</ele>
        <time>2018-08-19T12:06:31.000Z</time>
      </trkpt>
      <trkpt lat="45.31601" lon="4.43753">
        <ele>1089.8</ele>
        <time>2018-08-19T12:06:32.000Z</time>
      </trkpt>
      <trkpt lat="45.31601" lon="4.43753">
        <ele>1089.8</ele>
        <time>2018-08-19T12:06:33.000Z</time>
      </trkpt>
      <trkpt lat="45.31601" lon="4.43753">
        <ele>1089.8</ele>
        <time>2018-08-19T12:06:34.000Z</time>
      </trkpt>
      <trkpt lat="45.31601" lon="4.43753">
        <ele>1089.8</ele>
        <time>2018-08-19T12:06:35.000Z</time>
      </trkpt>
      <trkpt lat="45.31601" lon="4.43753">
        <ele>1089.8</ele>
        <time>2018-08-19T12:06:36.000Z</time>
      </trkpt>
      <trkpt lat="45.31601" lon="4.43753">
        <ele>1089.8</ele>
        <time>2018-08-19T12:06:37.000Z</time>
      </trkpt>
      <trkpt lat="45.31601" lon="4.43753">
        <ele>1089.8</ele>
        <time>2018-08-19T12:06:38.000Z</time>
      </trkpt>
      <trkpt lat="45.31601" lon="4.43753">
        <ele>1089.8</ele>
        <time>2018-08-19T12:06:39.000Z</time>
      </trkpt>
      <trkpt lat="45.31601" lon="4.43753">
        <ele>1089.8</ele>
        <time>2018-08-19T12:06:40.000Z</time>
      </trkpt>
      <trkpt lat="45.31601" lon="4.43753">
        <ele>1089.8</ele>
        <time>2018-08-19T12:06:41.000Z</time>
      </trkpt>
      <trkpt lat="45.31601" lon="4.43753">
        <ele>1089.8</ele>
        <time>2018-08-19T12:06:42.000Z</time>
      </trkpt>
      <trkpt lat="45.31601" lon="4.43753">
        <ele>1089.8</ele>
        <time>2018-08-19T12:06:43.000Z</time>
      </trkpt>
      <trkpt lat="45.31601" lon="4.43753">
        <ele>1089.8</ele>
        <time>2018-08-19T12:06:44.000Z</time>
      </trkpt>
      <trkpt lat="45.31601" lon="4.43753">
        <ele>1089.8</ele>
        <time>2018-08-19T12:06:45.000Z</time>
      </trkpt>
      <trkpt lat="45.31601" lon="4.43753">
        <ele>1089.8</ele>
        <time>2018-08-19T12:06:46.000Z</time>
      </trkpt>
      <trkpt lat="45.31601" lon="4.43753">
        <ele>1089.8</ele>
        <time>2018-08-19T12:06:47.000Z</time>
      </trkpt>
      <trkpt lat="45.31601" lon="4.43753">
        <ele>1089.8</ele>
        <time>2018-08-19T12:06:48.000Z</time>
      </trkpt>
      <trkpt lat="45.31601" lon="4.43753">
        <ele>1089.8</ele>
        <time>2018-08-19T12:06:49.000Z</time>
      </trkpt>
      <trkpt lat="45.31601" lon="4.43753">
        <ele>1089.8</ele>
        <time>2018-08-19T12:06:50.000Z</time>
      </trkpt>
      <trkpt lat="45.31601" lon="4.43753">
        <ele>1089.8</ele>
        <time>2018-08-19T12:06:51.000Z</time>
      </trkpt>
      <trkpt lat="45.31601" lon="4.43753">
        <ele>1089.8</ele>
        <time>2018-08-19T12:06:52.000Z</time>
      </trkpt>
      <trkpt lat="45.31601" lon="4.43753">
        <ele>1089.8</ele>
        <time>2018-08-19T12:06:53.000Z</time>
      </trkpt>
      <trkpt lat="45.31601" lon="4.43753">
        <ele>1089.8</ele>
        <time>2018-08-19T12:06:54.000Z</time>
      </trkpt>
      <trkpt lat="45.31601" lon="4.43753">
        <ele>1089.8</ele>
        <time>2018-08-19T12:06:55.000Z</time>
      </trkpt>
      <trkpt lat="45.31601" lon="4.43753">
        <ele>1089.8</ele>
        <time>2018-08-19T12:06:56.000Z</time>
      </trkpt>
      <trkpt lat="45.31601" lon="4.43753">
        <ele>1089.8</ele>
        <time>2018-08-19T12:06:57.000Z</time>
      </trkpt>
      <trkpt lat="45.31601" lon="4.43753">
        <ele>1089.8</ele>
        <time>2018-08-19T12:06:58.000Z</time>
      </trkpt>
      <trkpt lat="45.31601" lon="4.43753">
        <ele>1089.8</ele>
        <time>2018-08-19T12:06:59.000Z</time>
      </trkpt>
      <trkpt lat="45.31601" lon="4.43753">
        <ele>1089.8</ele>
        <time>2018-08-19T12:07:00.000Z</time>
      </trkpt>
      <trkpt lat="45.31601" lon="4.43753">
        <ele>1089.8</ele>
        <time>2018-08-19T12:07:01.000Z</time>
      </trkpt>
      <trkpt lat="45.31601" lon="4.43753">
        <ele>1089.8</ele>
        <time>2018-08-19T12:07:02.000Z</time>
      </trkpt>
      <trkpt lat="45.31601" lon="4.43753">
        <ele>1089.8</ele>
        <time>2018-08-19T12:07:03.000Z</time>
      </trkpt>
      <trkpt lat="45.31601" lon="4.43753">
        <ele>1089.7</ele>
        <time>2018-08-19T12:07:04.000Z</time>
      </trkpt>
      <trkpt lat="45.31602" lon="4.43753">
        <ele>1089.6</ele>
        <time>2018-08-19T12:07:05.000Z</time>
      </trkpt>
      <trkpt lat="45.31603" lon="4.43752">
        <ele>1089.5</ele>
        <time>2018-08-19T12:07:06.000Z</time>
      </trkpt>
      <trkpt lat="45.31604" lon="4.43752">
        <ele>1089.4</ele>
        <time>2018-08-19T12:07:07.000Z</time>
      </trkpt>
      <trkpt lat="45.31605" lon="4.43752">
        <ele>1089.2</ele>
        <time>2018-08-19T12:07:08.000Z</time>
      </trkpt>
      <trkpt lat="45.31606" lon="4.43752">
        <ele>1089.1</ele>
        <time>2018-08-19T12:07:09.000Z</time>
      </trkpt>
      <trkpt lat="45.31608" lon="4.43753">
        <ele>1088.9</ele>
        <time>2018-08-19T12:07:10.000Z</time>
      </trkpt>
      <trkpt lat="45.31609" lon="4.43753">
        <ele>1088.8</ele>
        <time>2018-08-19T12:07:11.000Z</time>
      </trkpt>
      <trkpt lat="45.3161" lon="4.43754">
        <ele>1088.7</ele>
        <time>2018-08-19T12:07:12.000Z</time>
      </trkpt>
      <trkpt lat="45.31611" lon="4.43754">
        <ele>1088.6</ele>
        <time>2018-08-19T12:07:13.000Z</time>
      </trkpt>
      <trkpt lat="45.31612" lon="4.43755">
        <ele>1088.5</ele>
        <time>2018-08-19T12:07:14.000Z</time>
      </trkpt>
      <trkpt lat="45.31613" lon="4.43756">
        <ele>1088.4</ele>
        <time>2018-08-19T12:07:15.000Z</time>
      </trkpt>
      <trkpt lat="45.31614" lon="4.43756">
        <ele>1088.3</ele>
        <time>2018-08-19T12:07:16.000Z</time>
      </trkpt>
      <trkpt lat="45.31615" lon="4.43757">
        <ele>1088.3</ele>
        <time>2018-08-19T12:07:17.000Z</time>
      </trkpt>
      <trkpt lat="45.31615" lon="4.43758">
        <ele>1088.2</ele>
        <time>2018-08-19T12:07:18.000Z</time>
      </trkpt>
      <trkpt lat="45.31616" lon="4.43759">
        <ele>1088.2</ele>
        <time>2018-08-19T12:07:19.000Z</time>
      </trkpt>
      <trkpt lat="45.31617" lon="4.4376">
        <ele>1088.1</ele>
        <time>2018-08-19T12:07:20.000Z</time>
      </trkpt>
      <trkpt lat="45.31618" lon="4.43761">
        <ele>1088.1</ele>
        <time>2018-08-19T12:07:21.000Z</time>
      </trkpt>
      <trkpt lat="45.31618" lon="4.43763">
        <ele>1088.1</ele>
        <time>2018-08-19T12:07:22.000Z</time>
      </trkpt>
      <trkpt lat="45.31619" lon="4.43764">
        <ele>1088.1</ele>
        <time>2018-08-19T12:07:23.000Z</time>
      </trkpt>
      <trkpt lat="45.31619" lon="4.43765">
        <ele>1088.1</ele>
        <time>2018-08-19T12:07:24.000Z</time>
      </trkpt>
      <trkpt lat="45.3162" lon="4.43767">
        <ele>1088.2</ele>
        <time>2018-08-19T12:07:25.000Z</time>
      </trkpt>
      <trkpt lat="45.3162" lon="4.43768">
        <ele>1088.2</ele>
        <time>2018-08-19T12:07:26.000Z</time>
      </trkpt>
      <trkpt lat="45.3162" lon="4.4377">
        <ele>1088.3</ele>
        <time>2018-08-19T12:07:27.000Z</time>
      </trkpt>
      <trkpt lat="45.3162" lon="4.43772">
        <ele>1088.3</ele>
        <time>2018-08-19T12:07:28.000Z</time>
      </trkpt>
      <trkpt lat="45.3162" lon="4.43773">
        <ele>1088.4</ele>
        <time>2018-08-19T12:07:29.000Z</time>
      </trkpt>
      <trkpt lat="45.31621" lon="4.43775">
        <ele>1088.5</ele>
        <time>2018-08-19T12:07:30.000Z</time>
      </trkpt>
      <trkpt lat="45.31621" lon="4.43776">
        <ele>1088.5</ele>
        <time>2018-08-19T12:07:31.000Z</time>
      </trkpt>
      <trkpt lat="45.31621" lon="4.43778">
        <ele>1088.6</ele>
        <time>2018-08-19T12:07:32.000Z</time>
      </trkpt>
      <trkpt lat="45.31621" lon="4.4378">
        <ele>1088.7</ele>
        <time>2018-08-19T12:07:33.000Z</time>
      </trkpt>
      <trkpt lat="45.31621" lon="4.43781">
        <ele>1088.8</ele>
        <time>2018-08-19T12:07:34.000Z</time>
      </trkpt>
      <trkpt lat="45.31621" lon="4.43783">
        <ele>1088.9</ele>
        <time>2018-08-19T12:07:35.000Z</time>
      </trkpt>
      <trkpt lat="45.31621" lon="4.43784">
        <ele>1089</ele>
        <time>2018-08-19T12:07:36.000Z</time>
      </trkpt>
      <trkpt lat="45.31621" lon="4.43786">
        <ele>1089.1</ele>
        <time>2018-08-19T12:07:37.000Z</time>
      </trkpt>
      <trkpt lat="45.31621" lon="4.43787">
        <ele>1089.2</ele>
        <time>2018-08-19T12:07:38.000Z</time>
      </trkpt>
      <trkpt lat="45.31621" lon="4.43789">
        <ele>1089.2</ele>
        <time>2018-08-19T12:07:39.000Z</time>
      </trkpt>
      <trkpt lat="45.31621" lon="4.4379">
        <ele>1089.3</ele>
        <time>2018-08-19T12:07:40.000Z</time>
      </trkpt>
      <trkpt lat="45.31621" lon="4.43792">
        <ele>1089.4</ele>
        <time>2018-08-19T12:07:41.000Z</time>
      </trkpt>
      <trkpt lat="45.31621" lon="4.43793">
        <ele>1089.5</ele>
        <time>2018-08-19T12:07:42.000Z</time>
      </trkpt>
      <trkpt lat="45.31621" lon="4.43794">
        <ele>1089.6</ele>
        <time>2018-08-19T12:07:43.000Z</time>
      </trkpt>
      <trkpt lat="45.31621" lon="4.43796">
        <ele>1089.7</ele>
        <time>2018-08-19T12:07:44.000Z</time>
      </trkpt>
      <trkpt lat="45.31621" lon="4.43797">
        <ele>1089.7</ele>
        <time>2018-08-19T12:07:45.000Z</time>
      </trkpt>
      <trkpt lat="45.3162" lon="4.43798">
        <ele>1089.8</ele>
        <time>2018-08-19T12:07:46.000Z</time>
      </trkpt>
      <trkpt lat="45.3162" lon="4.438">
        <ele>1089.9</ele>
        <time>2018-08-19T12:07:47.000Z</time>
      </trkpt>
      <trkpt lat="45.3162" lon="4.43801">
        <ele>1090</ele>
        <time>2018-08-19T12:07:48.000Z</time>
      </trkpt>
      <trkpt lat="45.3162" lon="4.43802">
        <ele>1090.1</ele>
        <time>2018-08-19T12:07:49.000Z</time>
      </trkpt>
      <trkpt lat="45.3162" lon="4.43804">
        <ele>1090.1</ele>
        <time>2018-08-19T12:07:50.000Z</time>
      </trkpt>
      <trkpt lat="45.3162" lon="4.43805">
        <ele>1090.2</ele>
        <time>2018-08-19T12:07:51.000Z</time>
      </trkpt>
      <trkpt lat="45.3162" lon="4.43806">
        <ele>1090.3</ele>
        <time>2018-08-19T12:07:52.000Z</time>
      </trkpt>
      <trkpt lat="45.3162" lon="4.43808">
        <ele>1090.4</ele>
        <time>2018-08-19T12:07:53.000Z</time>
      </trkpt>
      <trkpt lat="45.3162" lon="4.43809">
        <ele>1090.5</ele>
        <time>2018-08-19T12:07:54.000Z</time>
      </trkpt>
      <trkpt lat="45.3162" lon="4.4381">
        <ele>1090.5</ele>
        <time>2018-08-19T12:07:55.000Z</time>
      </trkpt>
      <trkpt lat="45.3162" lon="4.43811">
        <ele>1090.6</ele>
        <time>2018-08-19T12:07:56.000Z</time>
      </trkpt>
      <trkpt lat="45.3162" lon="4.43813">
        <ele>1090.7</ele>
        <time>2018-08-19T12:07:57.000Z</time>
      </trkpt>
      <trkpt lat="45.3162" lon="4.43814">
        <ele>1090.7</ele>
        <time>2018-08-19T12:07:58.000Z</time>
      </trkpt>
      <trkpt lat="45.3162" lon="4.43816">
        <ele>1090.8</ele>
        <time>2018-08-19T12:07:59.000Z</time>
      </trkpt>
      <trkpt lat="45.3162" lon="4.43817">
        <ele>1090.9</ele>
        <time>2018-08-19T12:08:00.000Z</time>
      </trkpt>
      <trkpt lat="45.3162" lon="4.43818">
        <ele>1090.9</ele>
        <time>2018-08-19T12:08:01.000Z</time>
      </trkpt>
      <trkpt lat="45.3162" lon="4.4382">
        <ele>1091</ele>
        <time>2018-08-19T12:08:02.000Z</time>
      </trkpt>
      <trkpt lat="45.31621" lon="4.43821">
        <ele>1091.1</ele>
        <time>2018-08-19T12:08:03.000Z</time>
      </trkpt>
      <trkpt lat="45.31621" lon="4.43823">
        <ele>1091.1</ele>
        <time>2018-08-19T12:08:04.000Z</time>
      </trkpt>
      <trkpt lat="45.31621" lon="4.43824">
        <ele>1091.2</ele>
        <time>2018-08-19T12:08:05.000Z</time>
      </trkpt>
      <trkpt lat="45.31622" lon="4.43826">
        <ele>1091.3</ele>
        <time>2018-08-19T12:08:06.000Z</time>
      </trkpt>
      <trkpt lat="45.31622" lon="4.43827">
        <ele>1091.3</ele>
        <time>2018-08-19T12:08:07.000Z</time>
      </trkpt>
      <trkpt lat="45.31622" lon="4.43828">
        <ele>1091.4</ele>
        <time>2018-08-19T12:08:08.000Z</time>
      </trkpt>
      <trkpt lat="45.31623" lon="4.4383">
        <ele>1091.4</ele>
        <time>2018-08-19T12:08:09.000Z</time>
      </trkpt>
      <trkpt lat="45.31623" lon="4.43831">
        <ele>1091.5</ele>
        <time>2018-08-19T12:08:10.000Z</time>
      </trkpt>
      <trkpt lat="45.31624" lon="4.43833">
        <ele>1091.5</ele>
        <time>2018-08-19T12:08:11.000Z</time>
      </trkpt>
      <trkpt lat="45.31624" lon="4.43834">
        <ele>1091.6</ele>
        <time>2018-08-19T12:08:12.000Z</time>
      </trkpt>
      <trkpt lat="45.31624" lon="4.43835">
        <ele>1091.7</ele>
        <time>2018-08-19T12:08:13.000Z</time>
      </trkpt>
      <trkpt lat="45.31625" lon="4.43837">
        <ele>1091.8</ele>
        <time>2018-08-19T12:08:14.000Z</time>
      </trkpt>
      <trkpt lat="45.31625" lon="4.43838">
        <ele>1091.9</ele>
        <time>2018-08-19T12:08:15.000Z</time>
      </trkpt>
      <trkpt lat="45.31626" lon="4.43839">
        <ele>1092</ele>
        <time>2018-08-19T12:08:16.000Z</time>
      </trkpt>
      <trkpt lat="45.31626" lon="4.4384">
        <ele>1092.1</ele>
        <time>2018-08-19T12:08:17.000Z</time>
      </trkpt>
      <trkpt lat="45.31627" lon="4.43842">
        <ele>1092.2</ele>
        <time>2018-08-19T12:08:18.000Z</time>
      </trkpt>
      <trkpt lat="45.31627" lon="4.43843">
        <ele>1092.4</ele>
        <time>2018-08-19T12:08:19.000Z</time>
      </trkpt>
      <trkpt lat="45.31628" lon="4.43844">
        <ele>1092.5</ele>
        <time>2018-08-19T12:08:20.000Z</time>
      </trkpt>
      <trkpt lat="45.31628" lon="4.43846">
        <ele>1092.6</ele>
        <time>2018-08-19T12:08:21.000Z</time>
      </trkpt>
      <trkpt lat="45.31628" lon="4.43848">
        <ele>1092.7</ele>
        <time>2018-08-19T12:08:22.000Z</time>
      </trkpt>
      <trkpt lat="45.31629" lon="4.43849">
        <ele>1092.9</ele>
        <time>2018-08-19T12:08:23.000Z</time>
      </trkpt>
      <trkpt lat="45.31629" lon="4.43851">
        <ele>1093</ele>
        <time>2018-08-19T12:08:24.000Z</time>
      </trkpt>
      <trkpt lat="45.31629" lon="4.43852">
        <ele>1093.2</ele>
        <time>2018-08-19T12:08:25.000Z</time>
      </trkpt>
      <trkpt lat="45.3163" lon="4.43854">
        <ele>1093.3</ele>
        <time>2018-08-19T12:08:26.000Z</time>
      </trkpt>
      <trkpt lat="45.3163" lon="4.43856">
        <ele>1093.5</ele>
        <time>2018-08-19T12:08:27.000Z</time>
      </trkpt>
      <trkpt lat="45.3163" lon="4.43857">
        <ele>1093.6</ele>
        <time>2018-08-19T12:08:28.000Z</time>
      </trkpt>
      <trkpt lat="45.31631" lon="4.43859">
        <ele>1093.8</ele>
        <time>2018-08-19T12:08:29.000Z</time>
      </trkpt>
      <trkpt lat="45.31631" lon="4.4386">
        <ele>1093.9</ele>
        <time>2018-08-19T12:08:30.000Z</time>
      </trkpt>
      <trkpt lat="45.31631" lon="4.43862">
        <ele>1094</ele>
        <time>2018-08-19T12:08:31.000Z</time>
      </trkpt>
      <trkpt lat="45.31632" lon="4.43863">
        <ele>1094.2</ele>
        <time>2018-08-19T12:08:32.000Z</time>
      </trkpt>
      <trkpt lat="45.31632" lon="4.43864">
        <ele>1094.3</ele>
        <time>2018-08-19T12:08:33.000Z</time>
      </trkpt>
      <trkpt lat="45.31632" lon="4.43866">
        <ele>1094.4</ele>
        <time>2018-08-19T12:08:34.000Z</time>
      </trkpt>
      <trkpt lat="45.31633" lon="4.43867">
        <ele>1094.5</ele>
        <time>2018-08-19T12:08:35.000Z</time>
      </trkpt>
      <trkpt lat="45.31633" lon="4.43869">
        <ele>1094.7</ele>
        <time>2018-08-19T12:08:36.000Z</time>
      </trkpt>
      <trkpt lat="45.31633" lon="4.4387">
        <ele>1094.8</ele>
        <time>2018-08-19T12:08:37.000Z</time>
      </trkpt>
      <trkpt lat="45.31634" lon="4.43872">
        <ele>1094.9</ele>
        <time>2018-08-19T12:08:38.000Z</time>
      </trkpt>
      <trkpt lat="45.31634" lon="4.43873">
        <ele>1095</ele>
        <time>2018-08-19T12:08:39.000Z</time>
      </trkpt>
      <trkpt lat="45.31635" lon="4.43875">
        <ele>1095.2</ele>
        <time>2018-08-19T12:08:40.000Z</time>
      </trkpt>
      <trkpt lat="45.31635" lon="4.43876">
        <ele>1095.3</ele>
        <time>2018-08-19T12:08:41.000Z</time>
      </trkpt>
      <trkpt lat="45.31636" lon="4.43877">
        <ele>1095.4</ele>
        <time>2018-08-19T12:08:42.000Z</time>
      </trkpt>
      <trkpt lat="45.31636" lon="4.43879">
        <ele>1095.6</ele>
        <time>2018-08-19T12:08:43.000Z</time>
      </trkpt>
      <trkpt lat="45.31636" lon="4.4388">
        <ele>1095.7</ele>
        <time>2018-08-19T12:08:44.000Z</time>
      </trkpt>
      <trkpt lat="45.31637" lon="4.43882">
        <ele>1095.8</ele>
        <time>2018-08-19T12:08:45.000Z</time>
      </trkpt>
      <trkpt lat="45.31637" lon="4.43883">
        <ele>1095.9</ele>
        <time>2018-08-19T12:08:46.000Z</time>
      </trkpt>
      <trkpt lat="45.31638" lon="4.43885">
        <ele>1096.1</ele>
        <time>2018-08-19T12:08:47.000Z</time>
      </trkpt>
      <trkpt lat="45.31638" lon="4.43886">
        <ele>1096.2</ele>
        <time>2018-08-19T12:08:48.000Z</time>
      </trkpt>
      <trkpt lat="45.31639" lon="4.43888">
        <ele>1096.3</ele>
        <time>2018-08-19T12:08:49.000Z</time>
      </trkpt>
      <trkpt lat="45.31639" lon="4.43889">
        <ele>1096.5</ele>
        <time>2018-08-19T12:08:50.000Z</time>
      </trkpt>
      <trkpt lat="45.31639" lon="4.43891">
        <ele>1096.6</ele>
        <time>2018-08-19T12:08:51.000Z</time>
      </trkpt>
      <trkpt lat="45.3164" lon="4.43892">
        <ele>1096.7</ele>
        <time>2018-08-19T12:08:52.000Z</time>
      </trkpt>
      <trkpt lat="45.3164" lon="4.43894">
        <ele>1096.9</ele>
        <time>2018-08-19T12:08:53.000Z</time>
      </trkpt>
      <trkpt lat="45.3164" lon="4.43895">
        <ele>1097</ele>
        <time>2018-08-19T12:08:54.000Z</time>
      </trkpt>
      <trkpt lat="45.31641" lon="4.43896">
        <ele>1097.1</ele>
        <time>2018-08-19T12:08:55.000Z</time>
      </trkpt>
      <trkpt lat="45.31641" lon="4.43898">
        <ele>1097.3</ele>
        <time>2018-08-19T12:08:56.000Z</time>
      </trkpt>
      <trkpt lat="45.31641" lon="4.43899">
        <ele>1097.4</ele>
        <time>2018-08-19T12:08:57.000Z</time>
      </trkpt>
      <trkpt lat="45.31642" lon="4.43901">
        <ele>1097.5</ele>
        <time>2018-08-19T12:08:58.000Z</time>
      </trkpt>
      <trkpt lat="45.31642" lon="4.43902">
        <ele>1097.7</ele>
        <time>2018-08-19T12:08:59.000Z</time>
      </trkpt>
      <trkpt lat="45.31642" lon="4.43903">
        <ele>1097.8</ele>
        <time>2018-08-19T12:09:00.000Z</time>
      </trkpt>
      <trkpt lat="45.31642" lon="4.43905">
        <ele>1097.9</ele>
        <time>2018-08-19T12:09:01.000Z</time>
      </trkpt>
      <trkpt lat="45.31643" lon="4.43906">
        <ele>1098.1</ele>
        <time>2018-08-19T12:09:02.000Z</time>
      </trkpt>
      <trkpt lat="45.31643" lon="4.43908">
        <ele>1098.2</ele>
        <time>2018-08-19T12:09:03.000Z</time>
      </trkpt>
      <trkpt lat="45.31643" lon="4.43909">
        <ele>1098.3</ele>
        <time>2018-08-19T12:09:04.000Z</time>
      </trkpt>
      <trkpt lat="45.31644" lon="4.43911">
        <ele>1098.5</ele>
        <time>2018-08-19T12:09:05.000Z</time>
      </trkpt>
      <trkpt lat="45.31644" lon="4.43912">
        <ele>1098.6</ele>
        <time>2018-08-19T12:09:06.000Z</time>
      </trkpt>
      <trkpt lat="45.31645" lon="4.43914">
        <ele>1098.7</ele>
        <time>2018-08-19T12:09:07.000Z</time>
      </trkpt>
      <trkpt lat="45.31645" lon="4.43915">
        <ele>1098.9</ele>
        <time>2018-08-19T12:09:08.000Z</time>
      </trkpt>
      <trkpt lat="45.31646" lon="4.43917">
        <ele>1099</ele>
        <time>2018-08-19T12:09:09.000Z</time>
      </trkpt>
      <trkpt lat="45.31646" lon="4.43918">
        <ele>1099.1</ele>
        <time>2018-08-19T12:09:10.000Z</time>
      </trkpt>
      <trkpt lat="45.31647" lon="4.4392">
        <ele>1099.2</ele>
        <time>2018-08-19T12:09:11.000Z</time>
      </trkpt>
      <trkpt lat="45.31648" lon="4.43921">
        <ele>1099.3</ele>
        <time>2018-08-19T12:09:12.000Z</time>
      </trkpt>
      <trkpt lat="45.31649" lon="4.43923">
        <ele>1099.3</ele>
        <time>2018-08-19T12:09:13.000Z</time>
      </trkpt>
      <trkpt lat="45.31649" lon="4.43924">
        <ele>1099.4</ele>
        <time>2018-08-19T12:09:14.000Z</time>
      </trkpt>
      <trkpt lat="45.3165" lon="4.43926">
        <ele>1099.5</ele>
        <time>2018-08-19T12:09:15.000Z</time>
      </trkpt>
      <trkpt lat="45.31651" lon="4.43927">
        <ele>1099.5</ele>
        <time>2018-08-19T12:09:16.000Z</time>
      </trkpt>
      <trkpt lat="45.31652" lon="4.43928">
        <ele>1099.6</ele>
        <time>2018-08-19T12:09:17.000Z</time>
      </trkpt>
      <trkpt lat="45.31653" lon="4.4393">
        <ele>1099.6</ele>
        <time>2018-08-19T12:09:18.000Z</time>
      </trkpt>
      <trkpt lat="45.31653" lon="4.43931">
        <ele>1099.7</ele>
        <time>2018-08-19T12:09:19.000Z</time>
      </trkpt>
      <trkpt lat="45.31654" lon="4.43933">
        <ele>1099.7</ele>
        <time>2018-08-19T12:09:20.000Z</time>
      </trkpt>
      <trkpt lat="45.31655" lon="4.43934">
        <ele>1099.8</ele>
        <time>2018-08-19T12:09:21.000Z</time>
      </trkpt>
      <trkpt lat="45.31656" lon="4.43935">
        <ele>1099.9</ele>
        <time>2018-08-19T12:09:22.000Z</time>
      </trkpt>
      <trkpt lat="45.31656" lon="4.43937">
        <ele>1099.9</ele>
        <time>2018-08-19T12:09:23.000Z</time>
      </trkpt>
      <trkpt lat="45.31657" lon="4.43938">
        <ele>1100</ele>
        <time>2018-08-19T12:09:24.000Z</time>
      </trkpt>
      <trkpt lat="45.31658" lon="4.4394">
        <ele>1100</ele>
        <time>2018-08-19T12:09:25.000Z</time>
      </trkpt>
      <trkpt lat="45.31659" lon="4.43941">
        <ele>1100.1</ele>
        <time>2018-08-19T12:09:26.000Z</time>
      </trkpt>
      <trkpt lat="45.31659" lon="4.43943">
        <ele>1100.1</ele>
        <time>2018-08-19T12:09:27.000Z</time>
      </trkpt>
      <trkpt lat="45.3166" lon="4.43944">
        <ele>1100.1</ele>
        <time>2018-08-19T12:09:28.000Z</time>
      </trkpt>
      <trkpt lat="45.31661" lon="4.43945">
        <ele>1100.2</ele>
        <time>2018-08-19T12:09:29.000Z</time>
      </trkpt>
      <trkpt lat="45.31661" lon="4.43947">
        <ele>1100.2</ele>
        <time>2018-08-19T12:09:30.000Z</time>
      </trkpt>
      <trkpt lat="45.31662" lon="4.43948">
        <ele>1100.3</ele>
        <time>2018-08-19T12:09:31.000Z</time>
      </trkpt>
      <trkpt lat="45.31663" lon="4.4395">
        <ele>1100.3</ele>
        <time>2018-08-19T12:09:32.000Z</time>
      </trkpt>
      <trkpt lat="45.31663" lon="4.43951">
        <ele>1100.3</ele>
        <time>2018-08-19T12:09:33.000Z</time>
      </trkpt>
      <trkpt lat="45.31664" lon="4.43953">
        <ele>1100.4</ele>
        <time>2018-08-19T12:09:34.000Z</time>
      </trkpt>
      <trkpt lat="45.31665" lon="4.43954">
        <ele>1100.4</ele>
        <time>2018-08-19T12:09:35.000Z</time>
      </trkpt>
      <trkpt lat="45.31666" lon="4.43955">
        <ele>1100.4</ele>
        <time>2018-08-19T12:09:36.000Z</time>
      </trkpt>
      <trkpt lat="45.31666" lon="4.43957">
        <ele>1100.4</ele>
        <time>2018-08-19T12:09:37.000Z</time>
      </trkpt>
      <trkpt lat="45.31667" lon="4.43958">
        <ele>1100.4</ele>
        <time>2018-08-19T12:09:38.000Z</time>
      </trkpt>
      <trkpt lat="45.31668" lon="4.4396">
        <ele>1100.4</ele>
        <time>2018-08-19T12:09:39.000Z</time>
      </trkpt>
      <trkpt lat="45.31669" lon="4.43961">
        <ele>1100.4</ele>
        <time>2018-08-19T12:09:40.000Z</time>
      </trkpt>
      <trkpt lat="45.31669" lon="4.43962">
        <ele>1100.4</ele>
        <time>2018-08-19T12:09:41.000Z</time>
      </trkpt>
      <trkpt lat="45.3167" lon="4.43964">
        <ele>1100.5</ele>
        <time>2018-08-19T12:09:42.000Z</time>
      </trkpt>
      <trkpt lat="45.31671" lon="4.43965">
        <ele>1100.5</ele>
        <time>2018-08-19T12:09:43.000Z</time>
      </trkpt>
      <trkpt lat="45.31672" lon="4.43967">
        <ele>1100.5</ele>
        <time>2018-08-19T12:09:44.000Z</time>
      </trkpt>
      <trkpt lat="45.31672" lon="4.43968">
        <ele>1100.5</ele>
        <time>2018-08-19T12:09:45.000Z</time>
      </trkpt>
      <trkpt lat="45.31673" lon="4.43969">
        <ele>1100.5</ele>
        <time>2018-08-19T12:09:46.000Z</time>
      </trkpt>
      <trkpt lat="45.31674" lon="4.43971">
        <ele>1100.5</ele>
        <time>2018-08-19T12:09:47.000Z</time>
      </trkpt>
      <trkpt lat="45.31675" lon="4.43972">
        <ele>1100.5</ele>
        <time>2018-08-19T12:09:48.000Z</time>
      </trkpt>
      <trkpt lat="45.31675" lon="4.43974">
        <ele>1100.6</ele>
        <time>2018-08-19T12:09:49.000Z</time>
      </trkpt>
      <trkpt lat="45.31676" lon="4.43975">
        <ele>1100.6</ele>
        <time>2018-08-19T12:09:50.000Z</time>
      </trkpt>
      <trkpt lat="45.31677" lon="4.43976">
        <ele>1100.6</ele>
        <time>2018-08-19T12:09:51.000Z</time>
      </trkpt>
      <trkpt lat="45.31678" lon="4.43978">
        <ele>1100.6</ele>
        <time>2018-08-19T12:09:52.000Z</time>
      </trkpt>
      <trkpt lat="45.31679" lon="4.43979">
        <ele>1100.6</ele>
        <time>2018-08-19T12:09:53.000Z</time>
      </trkpt>
      <trkpt lat="45.31679" lon="4.4398">
        <ele>1100.7</ele>
        <time>2018-08-19T12:09:54.000Z</time>
      </trkpt>
      <trkpt lat="45.3168" lon="4.43982">
        <ele>1100.7</ele>
        <time>2018-08-19T12:09:55.000Z</time>
      </trkpt>
      <trkpt lat="45.31681" lon="4.43983">
        <ele>1100.7</ele>
        <time>2018-08-19T12:09:56.000Z</time>
      </trkpt>
      <trkpt lat="45.31682" lon="4.43984">
        <ele>1100.7</ele>
        <time>2018-08-19T12:09:57.000Z</time>
      </trkpt>
      <trkpt lat="45.31683" lon="4.43985">
        <ele>1100.7</ele>
        <time>2018-08-19T12:09:58.000Z</time>
      </trkpt>
      <trkpt lat="45.31684" lon="4.43986">
        <ele>1100.7</ele>
        <time>2018-08-19T12:09:59.000Z</time>
      </trkpt>
      <trkpt lat="45.31685" lon="4.43987">
        <ele>1100.7</ele>
        <time>2018-08-19T12:10:00.000Z</time>
      </trkpt>
      <trkpt lat="45.31686" lon="4.43988">
        <ele>1100.6</ele>
        <time>2018-08-19T12:10:01.000Z</time>
      </trkpt>
      <trkpt lat="45.31687" lon="4.43989">
        <ele>1100.6</ele>
        <time>2018-08-19T12:10:02.000Z</time>
      </trkpt>
      <trkpt lat="45.31688" lon="4.4399">
        <ele>1100.6</ele>
        <time>2018-08-19T12:10:03.000Z</time>
      </trkpt>
      <trkpt lat="45.31689" lon="4.43991">
        <ele>1100.6</ele>
        <time>2018-08-19T12:10:04.000Z</time>
      </trkpt>
      <trkpt lat="45.3169" lon="4.43992">
        <ele>1100.6</ele>
        <time>2018-08-19T12:10:05.000Z</time>
      </trkpt>
      <trkpt lat="45.31691" lon="4.43993">
        <ele>1100.6</ele>
        <time>2018-08-19T12:10:06.000Z</time>
      </trkpt>
      <trkpt lat="45.31692" lon="4.43994">
        <ele>1100.7</ele>
        <time>2018-08-19T12:10:07.000Z</time>
      </trkpt>
      <trkpt lat="45.31693" lon="4.43995">
        <ele>1100.7</ele>
        <time>2018-08-19T12:10:08.000Z</time>
      </trkpt>
      <trkpt lat="45.31693" lon="4.43997">
        <ele>1100.8</ele>
        <time>2018-08-19T12:10:09.000Z</time>
      </trkpt>
      <trkpt lat="45.31694" lon="4.43998">
        <ele>1100.9</ele>
        <time>2018-08-19T12:10:10.000Z</time>
      </trkpt>
      <trkpt lat="45.31695" lon="4.43999">
        <ele>1100.9</ele>
        <time>2018-08-19T12:10:11.000Z</time>
      </trkpt>
      <trkpt lat="45.31695" lon="4.44001">
        <ele>1101</ele>
        <time>2018-08-19T12:10:12.000Z</time>
      </trkpt>
      <trkpt lat="45.31696" lon="4.44002">
        <ele>1101.1</ele>
        <time>2018-08-19T12:10:13.000Z</time>
      </trkpt>
      <trkpt lat="45.31696" lon="4.44004">
        <ele>1101.2</ele>
        <time>2018-08-19T12:10:14.000Z</time>
      </trkpt>
      <trkpt lat="45.31697" lon="4.44005">
        <ele>1101.2</ele>
        <time>2018-08-19T12:10:15.000Z</time>
      </trkpt>
      <trkpt lat="45.31698" lon="4.44006">
        <ele>1101.3</ele>
        <time>2018-08-19T12:10:16.000Z</time>
      </trkpt>
      <trkpt lat="45.31699" lon="4.44008">
        <ele>1101.4</ele>
        <time>2018-08-19T12:10:17.000Z</time>
      </trkpt>
      <trkpt lat="45.31699" lon="4.44009">
        <ele>1101.4</ele>
        <time>2018-08-19T12:10:18.000Z</time>
      </trkpt>
      <trkpt lat="45.317" lon="4.4401">
        <ele>1101.5</ele>
        <time>2018-08-19T12:10:19.000Z</time>
      </trkpt>
      <trkpt lat="45.31701" lon="4.44011">
        <ele>1101.5</ele>
        <time>2018-08-19T12:10:20.000Z</time>
      </trkpt>
      <trkpt lat="45.31702" lon="4.44013">
        <ele>1101.5</ele>
        <time>2018-08-19T12:10:21.000Z</time>
      </trkpt>
      <trkpt lat="45.31703" lon="4.44014">
        <ele>1101.6</ele>
        <time>2018-08-19T12:10:22.000Z</time>
      </trkpt>
      <trkpt lat="45.31704" lon="4.44015">
        <ele>1101.6</ele>
        <time>2018-08-19T12:10:23.000Z</time>
      </trkpt>
      <trkpt lat="45.31705" lon="4.44016">
        <ele>1101.7</ele>
        <time>2018-08-19T12:10:24.000Z</time>
      </trkpt>
      <trkpt lat="45.31706" lon="4.44017">
        <ele>1101.7</ele>
        <time>2018-08-19T12:10:25.000Z</time>
      </trkpt>
      <trkpt lat="45.31707" lon="4.44019">
        <ele>1101.8</ele>
        <time>2018-08-19T12:10:26.000Z</time>
      </trkpt>
      <trkpt lat="45.31708" lon="4.4402">
        <ele>1101.8</ele>
        <time>2018-08-19T12:10:27.000Z</time>
      </trkpt>
      <trkpt lat="45.31709" lon="4.44021">
        <ele>1101.9</ele>
        <time>2018-08-19T12:10:28.000Z</time>
      </trkpt>
      <trkpt lat="45.31709" lon="4.44022">
        <ele>1101.9</ele>
        <time>2018-08-19T12:10:29.000Z</time>
      </trkpt>
      <trkpt lat="45.3171" lon="4.44024">
        <ele>1102</ele>
        <time>2018-08-19T12:10:30.000Z</time>
      </trkpt>
      <trkpt lat="45.31711" lon="4.44025">
        <ele>1102.1</ele>
        <time>2018-08-19T12:10:31.000Z</time>
      </trkpt>
      <trkpt lat="45.31711" lon="4.44026">
        <ele>1102.2</ele>
        <time>2018-08-19T12:10:32.000Z</time>
      </trkpt>
      <trkpt lat="45.31712" lon="4.44028">
        <ele>1102.3</ele>
        <time>2018-08-19T12:10:33.000Z</time>
      </trkpt>
      <trkpt lat="45.31713" lon="4.44029">
        <ele>1102.4</ele>
        <time>2018-08-19T12:10:34.000Z</time>
      </trkpt>
      <trkpt lat="45.31713" lon="4.44031">
        <ele>1102.5</ele>
        <time>2018-08-19T12:10:35.000Z</time>
      </trkpt>
      <trkpt lat="45.31714" lon="4.44032">
        <ele>1102.6</ele>
        <time>2018-08-19T12:10:36.000Z</time>
      </trkpt>
      <trkpt lat="45.31714" lon="4.44033">
        <ele>1102.7</ele>
        <time>2018-08-19T12:10:37.000Z</time>
      </trkpt>
      <trkpt lat="45.31715" lon="4.44035">
        <ele>1102.8</ele>
        <time>2018-08-19T12:10:38.000Z</time>
      </trkpt>
      <trkpt lat="45.31715" lon="4.44036">
        <ele>1102.9</ele>
        <time>2018-08-19T12:10:39.000Z</time>
      </trkpt>
      <trkpt lat="45.31716" lon="4.44038">
        <ele>1103</ele>
        <time>2018-08-19T12:10:40.000Z</time>
      </trkpt>
      <trkpt lat="45.31717" lon="4.44039">
        <ele>1103.1</ele>
        <time>2018-08-19T12:10:41.000Z</time>
      </trkpt>
      <trkpt lat="45.31717" lon="4.44041">
        <ele>1103.2</ele>
        <time>2018-08-19T12:10:42.000Z</time>
      </trkpt>
      <trkpt lat="45.31718" lon="4.44042">
        <ele>1103.3</ele>
        <time>2018-08-19T12:10:43.000Z</time>
      </trkpt>
      <trkpt lat="45.31719" lon="4.44044">
        <ele>1103.4</ele>
        <time>2018-08-19T12:10:44.000Z</time>
      </trkpt>
      <trkpt lat="45.31719" lon="4.44045">
        <ele>1103.5</ele>
        <time>2018-08-19T12:10:45.000Z</time>
      </trkpt>
      <trkpt lat="45.3172" lon="4.44047">
        <ele>1103.6</ele>
        <time>2018-08-19T12:10:46.000Z</time>
      </trkpt>
      <trkpt lat="45.3172" lon="4.44048">
        <ele>1103.7</ele>
        <time>2018-08-19T12:10:47.000Z</time>
      </trkpt>
      <trkpt lat="45.31721" lon="4.4405">
        <ele>1103.8</ele>
        <time>2018-08-19T12:10:48.000Z</time>
      </trkpt>
      <trkpt lat="45.31722" lon="4.44051">
        <ele>1103.9</ele>
        <time>2018-08-19T12:10:49.000Z</time>
      </trkpt>
      <trkpt lat="45.31722" lon="4.44053">
        <ele>1104</ele>
        <time>2018-08-19T12:10:50.000Z</time>
      </trkpt>
      <trkpt lat="45.31723" lon="4.44054">
        <ele>1104.1</ele>
        <time>2018-08-19T12:10:51.000Z</time>
      </trkpt>
      <trkpt lat="45.31724" lon="4.44055">
        <ele>1104.2</ele>
        <time>2018-08-19T12:10:52.000Z</time>
      </trkpt>
      <trkpt lat="45.31724" lon="4.44057">
        <ele>1104.4</ele>
        <time>2018-08-19T12:10:53.000Z</time>
      </trkpt>
      <trkpt lat="45.31725" lon="4.44058">
        <ele>1104.5</ele>
        <time>2018-08-19T12:10:54.000Z</time>
      </trkpt>
      <trkpt lat="45.31725" lon="4.44059">
        <ele>1104.6</ele>
        <time>2018-08-19T12:10:55.000Z</time>
      </trkpt>
      <trkpt lat="45.31726" lon="4.44061">
        <ele>1104.7</ele>
        <time>2018-08-19T12:10:56.000Z</time>
      </trkpt>
      <trkpt lat="45.31726" lon="4.44062">
        <ele>1104.8</ele>
        <time>2018-08-19T12:10:57.000Z</time>
      </trkpt>
      <trkpt lat="45.31727" lon="4.44064">
        <ele>1104.9</ele>
        <time>2018-08-19T12:10:58.000Z</time>
      </trkpt>
      <trkpt lat="45.31727" lon="4.44065">
        <ele>1105</ele>
        <time>2018-08-19T12:10:59.000Z</time>
      </trkpt>
      <trkpt lat="45.31728" lon="4.44066">
        <ele>1105.1</ele>
        <time>2018-08-19T12:11:00.000Z</time>
      </trkpt>
      <trkpt lat="45.31728" lon="4.44067">
        <ele>1105.2</ele>
        <time>2018-08-19T12:11:01.000Z</time>
      </trkpt>
      <trkpt lat="45.31729" lon="4.44069">
        <ele>1105.3</ele>
        <time>2018-08-19T12:11:02.000Z</time>
      </trkpt>
      <trkpt lat="45.3173" lon="4.4407">
        <ele>1105.4</ele>
        <time>2018-08-19T12:11:03.000Z</time>
      </trkpt>
      <trkpt lat="45.3173" lon="4.44071">
        <ele>1105.5</ele>
        <time>2018-08-19T12:11:04.000Z</time>
      </trkpt>
      <trkpt lat="45.31731" lon="4.44073">
        <ele>1105.6</ele>
        <time>2018-08-19T12:11:05.000Z</time>
      </trkpt>
      <trkpt lat="45.31731" lon="4.44074">
        <ele>1105.8</ele>
        <time>2018-08-19T12:11:06.000Z</time>
      </trkpt>
      <trkpt lat="45.31732" lon="4.44076">
        <ele>1105.9</ele>
        <time>2018-08-19T12:11:07.000Z</time>
      </trkpt>
      <trkpt lat="45.31732" lon="4.44077">
        <ele>1106</ele>
        <time>2018-08-19T12:11:08.000Z</time>
      </trkpt>
      <trkpt lat="45.31733" lon="4.44078">
        <ele>1106.1</ele>
        <time>2018-08-19T12:11:09.000Z</time>
      </trkpt>
      <trkpt lat="45.31734" lon="4.4408">
        <ele>1106.2</ele>
        <time>2018-08-19T12:11:10.000Z</time>
      </trkpt>
      <trkpt lat="45.31734" lon="4.44081">
        <ele>1106.4</ele>
        <time>2018-08-19T12:11:11.000Z</time>
      </trkpt>
      <trkpt lat="45.31735" lon="4.44083">
        <ele>1106.5</ele>
        <time>2018-08-19T12:11:12.000Z</time>
      </trkpt>
      <trkpt lat="45.31735" lon="4.44084">
        <ele>1106.6</ele>
        <time>2018-08-19T12:11:13.000Z</time>
      </trkpt>
      <trkpt lat="45.31736" lon="4.44086">
        <ele>1106.6</ele>
        <time>2018-08-19T12:11:14.000Z</time>
      </trkpt>
      <trkpt lat="45.31736" lon="4.44087">
        <ele>1106.6</ele>
        <time>2018-08-19T12:11:15.000Z</time>
      </trkpt>
      <trkpt lat="45.31737" lon="4.44089">
        <ele>1106.7</ele>
        <time>2018-08-19T12:11:16.000Z</time>
      </trkpt>
      <trkpt lat="45.31737" lon="4.4409">
        <ele>1106.7</ele>
        <time>2018-08-19T12:11:17.000Z</time>
      </trkpt>
      <trkpt lat="45.31738" lon="4.44092">
        <ele>1106.7</ele>
        <time>2018-08-19T12:11:18.000Z</time>
      </trkpt>
      <trkpt lat="45.31738" lon="4.44093">
        <ele>1106.8</ele>
        <time>2018-08-19T12:11:19.000Z</time>
      </trkpt>
      <trkpt lat="45.31739" lon="4.44095">
        <ele>1106.8</ele>
        <time>2018-08-19T12:11:20.000Z</time>
      </trkpt>
      <trkpt lat="45.31739" lon="4.44096">
        <ele>1106.8</ele>
        <time>2018-08-19T12:11:21.000Z</time>
      </trkpt>
      <trkpt lat="45.3174" lon="4.44098">
        <ele>1106.9</ele>
        <time>2018-08-19T12:11:22.000Z</time>
      </trkpt>
      <trkpt lat="45.3174" lon="4.44099">
        <ele>1106.9</ele>
        <time>2018-08-19T12:11:23.000Z</time>
      </trkpt>
      <trkpt lat="45.31741" lon="4.44101">
        <ele>1106.9</ele>
        <time>2018-08-19T12:11:24.000Z</time>
      </trkpt>
      <trkpt lat="45.31741" lon="4.44102">
        <ele>1107</ele>
        <time>2018-08-19T12:11:25.000Z</time>
      </trkpt>
      <trkpt lat="45.31741" lon="4.44104">
        <ele>1107</ele>
        <time>2018-08-19T12:11:26.000Z</time>
      </trkpt>
      <trkpt lat="45.31742" lon="4.44105">
        <ele>1107</ele>
        <time>2018-08-19T12:11:27.000Z</time>
      </trkpt>
      <trkpt lat="45.31742" lon="4.44107">
        <ele>1107</ele>
        <time>2018-08-19T12:11:28.000Z</time>
      </trkpt>
      <trkpt lat="45.31743" lon="4.44108">
        <ele>1107.1</ele>
        <time>2018-08-19T12:11:29.000Z</time>
      </trkpt>
      <trkpt lat="45.31743" lon="4.4411">
        <ele>1107.1</ele>
        <time>2018-08-19T12:11:30.000Z</time>
      </trkpt>
      <trkpt lat="45.31743" lon="4.44111">
        <ele>1107.1</ele>
        <time>2018-08-19T12:11:31.000Z</time>
      </trkpt>
      <trkpt lat="45.31744" lon="4.44113">
        <ele>1107.1</ele>
        <time>2018-08-19T12:11:32.000Z</time>
      </trkpt>
      <trkpt lat="45.31744" lon="4.44114">
        <ele>1107.1</ele>
        <time>2018-08-19T12:11:33.000Z</time>
      </trkpt>
      <trkpt lat="45.31744" lon="4.44116">
        <ele>1107.2</ele>
        <time>2018-08-19T12:11:34.000Z</time>
      </trkpt>
      <trkpt lat="45.31745" lon="4.44117">
        <ele>1107.2</ele>
        <time>2018-08-19T12:11:35.000Z</time>
      </trkpt>
      <trkpt lat="45.31745" lon="4.44119">
        <ele>1107.2</ele>
        <time>2018-08-19T12:11:36.000Z</time>
      </trkpt>
      <trkpt lat="45.31745" lon="4.4412">
        <ele>1107.2</ele>
        <time>2018-08-19T12:11:37.000Z</time>
      </trkpt>
      <trkpt lat="45.31746" lon="4.44122">
        <ele>1107.2</ele>
        <time>2018-08-19T12:11:38.000Z</time>
      </trkpt>
      <trkpt lat="45.31746" lon="4.44123">
        <ele>1107.3</ele>
        <time>2018-08-19T12:11:39.000Z</time>
      </trkpt>
      <trkpt lat="45.31746" lon="4.44125">
        <ele>1107.3</ele>
        <time>2018-08-19T12:11:40.000Z</time>
      </trkpt>
      <trkpt lat="45.31747" lon="4.44126">
        <ele>1107.3</ele>
        <time>2018-08-19T12:11:41.000Z</time>
      </trkpt>
      <trkpt lat="45.31747" lon="4.44128">
        <ele>1107.3</ele>
        <time>2018-08-19T12:11:42.000Z</time>
      </trkpt>
      <trkpt lat="45.31748" lon="4.44129">
        <ele>1107.3</ele>
        <time>2018-08-19T12:11:43.000Z</time>
      </trkpt>
      <trkpt lat="45.31748" lon="4.4413">
        <ele>1107.3</ele>
        <time>2018-08-19T12:11:44.000Z</time>
      </trkpt>
      <trkpt lat="45.31749" lon="4.44131">
        <ele>1107.3</ele>
        <time>2018-08-19T12:11:45.000Z</time>
      </trkpt>
      <trkpt lat="45.31749" lon="4.44133">
        <ele>1107.3</ele>
        <time>2018-08-19T12:11:46.000Z</time>
      </trkpt>
      <trkpt lat="45.3175" lon="4.44134">
        <ele>1107.2</ele>
        <time>2018-08-19T12:11:47.000Z</time>
      </trkpt>
      <trkpt lat="45.3175" lon="4.44135">
        <ele>1107.2</ele>
        <time>2018-08-19T12:11:48.000Z</time>
      </trkpt>
      <trkpt lat="45.31751" lon="4.44136">
        <ele>1107.2</ele>
        <time>2018-08-19T12:11:49.000Z</time>
      </trkpt>
      <trkpt lat="45.31751" lon="4.44137">
        <ele>1107.2</ele>
        <time>2018-08-19T12:11:50.000Z</time>
      </trkpt>
      <trkpt lat="45.31752" lon="4.44139">
        <ele>1107.3</ele>
        <time>2018-08-19T12:11:51.000Z</time>
      </trkpt>
      <trkpt lat="45.31752" lon="4.4414">
        <ele>1107.3</ele>
        <time>2018-08-19T12:11:52.000Z</time>
      </trkpt>
      <trkpt lat="45.31752" lon="4.44141">
        <ele>1107.3</ele>
        <time>2018-08-19T12:11:53.000Z</time>
      </trkpt>
      <trkpt lat="45.31753" lon="4.44143">
        <ele>1107.3</ele>
        <time>2018-08-19T12:11:54.000Z</time>
      </trkpt>
      <trkpt lat="45.31753" lon="4.44144">
        <ele>1107.4</ele>
        <time>2018-08-19T12:11:55.000Z</time>
      </trkpt>
      <trkpt lat="45.31753" lon="4.44146">
        <ele>1107.4</ele>
        <time>2018-08-19T12:11:56.000Z</time>
      </trkpt>
      <trkpt lat="45.31753" lon="4.44147">
        <ele>1107.4</ele>
        <time>2018-08-19T12:11:57.000Z</time>
      </trkpt>
      <trkpt lat="45.31754" lon="4.44148">
        <ele>1107.5</ele>
        <time>2018-08-19T12:11:58.000Z</time>
      </trkpt>
      <trkpt lat="45.31754" lon="4.44149">
        <ele>1107.5</ele>
        <time>2018-08-19T12:11:59.000Z</time>
      </trkpt>
      <trkpt lat="45.31754" lon="4.44151">
        <ele>1107.5</ele>
        <time>2018-08-19T12:12:00.000Z</time>
      </trkpt>
      <trkpt lat="45.31754" lon="4.44152">
        <ele>1107.5</ele>
        <time>2018-08-19T12:12:01.000Z</time>
      </trkpt>
      <trkpt lat="45.31755" lon="4.44153">
        <ele>1107.5</ele>
        <time>2018-08-19T12:12:02.000Z</time>
      </trkpt>
      <trkpt lat="45.31755" lon="4.44154">
        <ele>1107.6</ele>
        <time>2018-08-19T12:12:03.000Z</time>
      </trkpt>
      <trkpt lat="45.31755" lon="4.44155">
        <ele>1107.6</ele>
        <time>2018-08-19T12:12:04.000Z</time>
      </trkpt>
      <trkpt lat="45.31756" lon="4.44156">
        <ele>1107.6</ele>
        <time>2018-08-19T12:12:05.000Z</time>
      </trkpt>
      <trkpt lat="45.31756" lon="4.44157">
        <ele>1107.6</ele>
        <time>2018-08-19T12:12:06.000Z</time>
      </trkpt>
      <trkpt lat="45.31756" lon="4.44158">
        <ele>1107.7</ele>
        <time>2018-08-19T12:12:07.000Z</time>
      </trkpt>
      <trkpt lat="45.31757" lon="4.44159">
        <ele>1107.7</ele>
        <time>2018-08-19T12:12:08.000Z</time>
      </trkpt>
      <trkpt lat="45.31757" lon="4.44161">
        <ele>1107.7</ele>
        <time>2018-08-19T12:12:09.000Z</time>
      </trkpt>
      <trkpt lat="45.31758" lon="4.44162">
        <ele>1107.8</ele>
        <time>2018-08-19T12:12:10.000Z</time>
      </trkpt>
      <trkpt lat="45.31758" lon="4.44163">
        <ele>1107.8</ele>
        <time>2018-08-19T12:12:11.000Z</time>
      </trkpt>
      <trkpt lat="45.31759" lon="4.44165">
        <ele>1107.8</ele>
        <time>2018-08-19T12:12:12.000Z</time>
      </trkpt>
      <trkpt lat="45.3176" lon="4.44166">
        <ele>1107.9</ele>
        <time>2018-08-19T12:12:13.000Z</time>
      </trkpt>
      <trkpt lat="45.3176" lon="4.44168">
        <ele>1107.9</ele>
        <time>2018-08-19T12:12:14.000Z</time>
      </trkpt>
      <trkpt lat="45.31761" lon="4.4417">
        <ele>1108</ele>
        <time>2018-08-19T12:12:15.000Z</time>
      </trkpt>
      <trkpt lat="45.31761" lon="4.44171">
        <ele>1108.1</ele>
        <time>2018-08-19T12:12:16.000Z</time>
      </trkpt>
      <trkpt lat="45.31762" lon="4.44173">
        <ele>1108.2</ele>
        <time>2018-08-19T12:12:17.000Z</time>
      </trkpt>
      <trkpt lat="45.31763" lon="4.44175">
        <ele>1108.3</ele>
        <time>2018-08-19T12:12:18.000Z</time>
      </trkpt>
      <trkpt lat="45.31763" lon="4.44176">
        <ele>1108.4</ele>
        <time>2018-08-19T12:12:19.000Z</time>
      </trkpt>
      <trkpt lat="45.31764" lon="4.44178">
        <ele>1108.4</ele>
        <time>2018-08-19T12:12:20.000Z</time>
      </trkpt>
      <trkpt lat="45.31765" lon="4.4418">
        <ele>1108.5</ele>
        <time>2018-08-19T12:12:21.000Z</time>
      </trkpt>
      <trkpt lat="45.31765" lon="4.44181">
        <ele>1108.6</ele>
        <time>2018-08-19T12:12:22.000Z</time>
      </trkpt>
      <trkpt lat="45.31766" lon="4.44183">
        <ele>1108.7</ele>
        <time>2018-08-19T12:12:23.000Z</time>
      </trkpt>
      <trkpt lat="45.31766" lon="4.44185">
        <ele>1108.8</ele>
        <time>2018-08-19T12:12:24.000Z</time>
      </trkpt>
      <trkpt lat="45.31767" lon="4.44186">
        <ele>1108.8</ele>
        <time>2018-08-19T12:12:25.000Z</time>
      </trkpt>
      <trkpt lat="45.31767" lon="4.44188">
        <ele>1108.9</ele>
        <time>2018-08-19T12:12:26.000Z</time>
      </trkpt>
      <trkpt lat="45.31768" lon="4.4419">
        <ele>1109</ele>
        <time>2018-08-19T12:12:27.000Z</time>
      </trkpt>
      <trkpt lat="45.31768" lon="4.44191">
        <ele>1109.1</ele>
        <time>2018-08-19T12:12:28.000Z</time>
      </trkpt>
      <trkpt lat="45.31768" lon="4.44193">
        <ele>1109.1</ele>
        <time>2018-08-19T12:12:29.000Z</time>
      </trkpt>
      <trkpt lat="45.31769" lon="4.44194">
        <ele>1109.2</ele>
        <time>2018-08-19T12:12:30.000Z</time>
      </trkpt>
      <trkpt lat="45.31769" lon="4.44195">
        <ele>1109.3</ele>
        <time>2018-08-19T12:12:31.000Z</time>
      </trkpt>
      <trkpt lat="45.3177" lon="4.44197">
        <ele>1109.3</ele>
        <time>2018-08-19T12:12:32.000Z</time>
      </trkpt>
      <trkpt lat="45.3177" lon="4.44198">
        <ele>1109.4</ele>
        <time>2018-08-19T12:12:33.000Z</time>
      </trkpt>
      <trkpt lat="45.3177" lon="4.442">
        <ele>1109.5</ele>
        <time>2018-08-19T12:12:34.000Z</time>
      </trkpt>
      <trkpt lat="45.31771" lon="4.44201">
        <ele>1109.5</ele>
        <time>2018-08-19T12:12:35.000Z</time>
      </trkpt>
      <trkpt lat="45.31771" lon="4.44203">
        <ele>1109.6</ele>
        <time>2018-08-19T12:12:36.000Z</time>
      </trkpt>
      <trkpt lat="45.31771" lon="4.44204">
        <ele>1109.6</ele>
        <time>2018-08-19T12:12:37.000Z</time>
      </trkpt>
      <trkpt lat="45.31772" lon="4.44205">
        <ele>1109.7</ele>
        <time>2018-08-19T12:12:38.000Z</time>
      </trkpt>
      <trkpt lat="45.31772" lon="4.44207">
        <ele>1109.8</ele>
        <time>2018-08-19T12:12:39.000Z</time>
      </trkpt>
      <trkpt lat="45.31773" lon="4.44208">
        <ele>1109.8</ele>
        <time>2018-08-19T12:12:40.000Z</time>
      </trkpt>
      <trkpt lat="45.31773" lon="4.4421">
        <ele>1109.9</ele>
        <time>2018-08-19T12:12:41.000Z</time>
      </trkpt>
      <trkpt lat="45.31774" lon="4.44211">
        <ele>1109.9</ele>
        <time>2018-08-19T12:12:42.000Z</time>
      </trkpt>
      <trkpt lat="45.31774" lon="4.44213">
        <ele>1110</ele>
        <time>2018-08-19T12:12:43.000Z</time>
      </trkpt>
      <trkpt lat="45.31774" lon="4.44214">
        <ele>1110.1</ele>
        <time>2018-08-19T12:12:44.000Z</time>
      </trkpt>
      <trkpt lat="45.31774" lon="4.44216">
        <ele>1110.1</ele>
        <time>2018-08-19T12:12:45.000Z</time>
      </trkpt>
      <trkpt lat="45.31774" lon="4.44217">
        <ele>1110.2</ele>
        <time>2018-08-19T12:12:46.000Z</time>
      </trkpt>
      <trkpt lat="45.31774" lon="4.44219">
        <ele>1110.3</ele>
        <time>2018-08-19T12:12:47.000Z</time>
      </trkpt>
      <trkpt lat="45.31773" lon="4.4422">
        <ele>1110.4</ele>
        <time>2018-08-19T12:12:48.000Z</time>
      </trkpt>
      <trkpt lat="45.31773" lon="4.44221">
        <ele>1110.5</ele>
        <time>2018-08-19T12:12:49.000Z</time>
      </trkpt>
      <trkpt lat="45.31773" lon="4.44223">
        <ele>1110.5</ele>
        <time>2018-08-19T12:12:50.000Z</time>
      </trkpt>
      <trkpt lat="45.31773" lon="4.44224">
        <ele>1110.6</ele>
        <time>2018-08-19T12:12:51.000Z</time>
      </trkpt>
      <trkpt lat="45.31772" lon="4.44225">
        <ele>1110.7</ele>
        <time>2018-08-19T12:12:52.000Z</time>
      </trkpt>
      <trkpt lat="45.31772" lon="4.44227">
        <ele>1110.8</ele>
        <time>2018-08-19T12:12:53.000Z</time>
      </trkpt>
      <trkpt lat="45.31772" lon="4.44228">
        <ele>1110.8</ele>
        <time>2018-08-19T12:12:54.000Z</time>
      </trkpt>
      <trkpt lat="45.31772" lon="4.44229">
        <ele>1110.9</ele>
        <time>2018-08-19T12:12:55.000Z</time>
      </trkpt>
      <trkpt lat="45.31772" lon="4.4423">
        <ele>1110.9</ele>
        <time>2018-08-19T12:12:56.000Z</time>
      </trkpt>
      <trkpt lat="45.31772" lon="4.44232">
        <ele>1111</ele>
        <time>2018-08-19T12:12:57.000Z</time>
      </trkpt>
      <trkpt lat="45.31773" lon="4.44233">
        <ele>1111.1</ele>
        <time>2018-08-19T12:12:58.000Z</time>
      </trkpt>
      <trkpt lat="45.31773" lon="4.44234">
        <ele>1111.1</ele>
        <time>2018-08-19T12:12:59.000Z</time>
      </trkpt>
      <trkpt lat="45.31773" lon="4.44235">
        <ele>1111.2</ele>
        <time>2018-08-19T12:13:00.000Z</time>
      </trkpt>
      <trkpt lat="45.31773" lon="4.44237">
        <ele>1111.2</ele>
        <time>2018-08-19T12:13:01.000Z</time>
      </trkpt>
      <trkpt lat="45.31774" lon="4.44238">
        <ele>1111.3</ele>
        <time>2018-08-19T12:13:02.000Z</time>
      </trkpt>
      <trkpt lat="45.31774" lon="4.4424">
        <ele>1111.3</ele>
        <time>2018-08-19T12:13:03.000Z</time>
      </trkpt>
      <trkpt lat="45.31774" lon="4.44241">
        <ele>1111.4</ele>
        <time>2018-08-19T12:13:04.000Z</time>
      </trkpt>
      <trkpt lat="45.31775" lon="4.44243">
        <ele>1111.4</ele>
        <time>2018-08-19T12:13:05.000Z</time>
      </trkpt>
      <trkpt lat="45.31775" lon="4.44244">
        <ele>1111.5</ele>
        <time>2018-08-19T12:13:06.000Z</time>
      </trkpt>
      <trkpt lat="45.31776" lon="4.44246">
        <ele>1111.6</ele>
        <time>2018-08-19T12:13:07.000Z</time>
      </trkpt>
      <trkpt lat="45.31776" lon="4.44248">
        <ele>1111.6</ele>
        <time>2018-08-19T12:13:08.000Z</time>
      </trkpt>
      <trkpt lat="45.31777" lon="4.44249">
        <ele>1111.7</ele>
        <time>2018-08-19T12:13:09.000Z</time>
      </trkpt>
      <trkpt lat="45.31777" lon="4.44251">
        <ele>1111.7</ele>
        <time>2018-08-19T12:13:10.000Z</time>
      </trkpt>
      <trkpt lat="45.31778" lon="4.44253">
        <ele>1111.8</ele>
        <time>2018-08-19T12:13:11.000Z</time>
      </trkpt>
      <trkpt lat="45.31779" lon="4.44254">
        <ele>1111.8</ele>
        <time>2018-08-19T12:13:12.000Z</time>
      </trkpt>
      <trkpt lat="45.31779" lon="4.44256">
        <ele>1111.9</ele>
        <time>2018-08-19T12:13:13.000Z</time>
      </trkpt>
      <trkpt lat="45.3178" lon="4.44258">
        <ele>1111.9</ele>
        <time>2018-08-19T12:13:14.000Z</time>
      </trkpt>
      <trkpt lat="45.3178" lon="4.44259">
        <ele>1111.9</ele>
        <time>2018-08-19T12:13:15.000Z</time>
      </trkpt>
      <trkpt lat="45.31781" lon="4.44261">
        <ele>1112</ele>
        <time>2018-08-19T12:13:16.000Z</time>
      </trkpt>
      <trkpt lat="45.31782" lon="4.44263">
        <ele>1112</ele>
        <time>2018-08-19T12:13:17.000Z</time>
      </trkpt>
      <trkpt lat="45.31782" lon="4.44264">
        <ele>1112.1</ele>
        <time>2018-08-19T12:13:18.000Z</time>
      </trkpt>
      <trkpt lat="45.31783" lon="4.44266">
        <ele>1112.1</ele>
        <time>2018-08-19T12:13:19.000Z</time>
      </trkpt>
      <trkpt lat="45.31783" lon="4.44267">
        <ele>1112.1</ele>
        <time>2018-08-19T12:13:20.000Z</time>
      </trkpt>
      <trkpt lat="45.31784" lon="4.44269">
        <ele>1112.1</ele>
        <time>2018-08-19T12:13:21.000Z</time>
      </trkpt>
      <trkpt lat="45.31784" lon="4.4427">
        <ele>1112.2</ele>
        <time>2018-08-19T12:13:22.000Z</time>
      </trkpt>
      <trkpt lat="45.31785" lon="4.44271">
        <ele>1112.2</ele>
        <time>2018-08-19T12:13:23.000Z</time>
      </trkpt>
      <trkpt lat="45.31786" lon="4.44273">
        <ele>1112.2</ele>
        <time>2018-08-19T12:13:24.000Z</time>
      </trkpt>
      <trkpt lat="45.31786" lon="4.44274">
        <ele>1112.2</ele>
        <time>2018-08-19T12:13:25.000Z</time>
      </trkpt>
      <trkpt lat="45.31787" lon="4.44275">
        <ele>1112.2</ele>
        <time>2018-08-19T12:13:26.000Z</time>
      </trkpt>
      <trkpt lat="45.31787" lon="4.44277">
        <ele>1112.2</ele>
        <time>2018-08-19T12:13:27.000Z</time>
      </trkpt>
      <trkpt lat="45.31788" lon="4.44278">
        <ele>1112.2</ele>
        <time>2018-08-19T12:13:28.000Z</time>
      </trkpt>
      <trkpt lat="45.31789" lon="4.44279">
        <ele>1112.2</ele>
        <time>2018-08-19T12:13:29.000Z</time>
      </trkpt>
      <trkpt lat="45.3179" lon="4.4428">
        <ele>1112.2</ele>
        <time>2018-08-19T12:13:30.000Z</time>
      </trkpt>
      <trkpt lat="45.3179" lon="4.44282">
        <ele>1112.2</ele>
        <time>2018-08-19T12:13:31.000Z</time>
      </trkpt>
      <trkpt lat="45.31791" lon="4.44283">
        <ele>1112.2</ele>
        <time>2018-08-19T12:13:32.000Z</time>
      </trkpt>
      <trkpt lat="45.31792" lon="4.44284">
        <ele>1112.2</ele>
        <time>2018-08-19T12:13:33.000Z</time>
      </trkpt>
      <trkpt lat="45.31793" lon="4.44285">
        <ele>1112.2</ele>
        <time>2018-08-19T12:13:34.000Z</time>
      </trkpt>
      <trkpt lat="45.31794" lon="4.44287">
        <ele>1112.2</ele>
        <time>2018-08-19T12:13:35.000Z</time>
      </trkpt>
      <trkpt lat="45.31794" lon="4.44288">
        <ele>1112.2</ele>
        <time>2018-08-19T12:13:36.000Z</time>
      </trkpt>
      <trkpt lat="45.31795" lon="4.44289">
        <ele>1112.2</ele>
        <time>2018-08-19T12:13:37.000Z</time>
      </trkpt>
      <trkpt lat="45.31796" lon="4.4429">
        <ele>1112.1</ele>
        <time>2018-08-19T12:13:38.000Z</time>
      </trkpt>
      <trkpt lat="45.31797" lon="4.44292">
        <ele>1112.1</ele>
        <time>2018-08-19T12:13:39.000Z</time>
      </trkpt>
      <trkpt lat="45.31798" lon="4.44293">
        <ele>1112.1</ele>
        <time>2018-08-19T12:13:40.000Z</time>
      </trkpt>
      <trkpt lat="45.31799" lon="4.44294">
        <ele>1112.1</ele>
        <time>2018-08-19T12:13:41.000Z</time>
      </trkpt>
      <trkpt lat="45.318" lon="4.44296">
        <ele>1112.1</ele>
        <time>2018-08-19T12:13:42.000Z</time>
      </trkpt>
      <trkpt lat="45.318" lon="4.44297">
        <ele>1112</ele>
        <time>2018-08-19T12:13:43.000Z</time>
      </trkpt>
      <trkpt lat="45.31801" lon="4.44298">
        <ele>1112</ele>
        <time>2018-08-19T12:13:44.000Z</time>
      </trkpt>
      <trkpt lat="45.31802" lon="4.443">
        <ele>1112</ele>
        <time>2018-08-19T12:13:45.000Z</time>
      </trkpt>
      <trkpt lat="45.31802" lon="4.44301">
        <ele>1112</ele>
        <time>2018-08-19T12:13:46.000Z</time>
      </trkpt>
      <trkpt lat="45.31803" lon="4.44302">
        <ele>1112</ele>
        <time>2018-08-19T12:13:47.000Z</time>
      </trkpt>
      <trkpt lat="45.31804" lon="4.44304">
        <ele>1112</ele>
        <time>2018-08-19T12:13:48.000Z</time>
      </trkpt>
      <trkpt lat="45.31804" lon="4.44305">
        <ele>1112</ele>
        <time>2018-08-19T12:13:49.000Z</time>
      </trkpt>
      <trkpt lat="45.31805" lon="4.44307">
        <ele>1112</ele>
        <time>2018-08-19T12:13:50.000Z</time>
      </trkpt>
      <trkpt lat="45.31806" lon="4.44308">
        <ele>1112</ele>
        <time>2018-08-19T12:13:51.000Z</time>
      </trkpt>
      <trkpt lat="45.31806" lon="4.44309">
        <ele>1111.9</ele>
        <time>2018-08-19T12:13:52.000Z</time>
      </trkpt>
      <trkpt lat="45.31807" lon="4.44311">
        <ele>1111.9</ele>
        <time>2018-08-19T12:13:53.000Z</time>
      </trkpt>
      <trkpt lat="45.31807" lon="4.44312">
        <ele>1111.9</ele>
        <time>2018-08-19T12:13:54.000Z</time>
      </trkpt>
      <trkpt lat="45.31808" lon="4.44314">
        <ele>1111.9</ele>
        <time>2018-08-19T12:13:55.000Z</time>
      </trkpt>
      <trkpt lat="45.31808" lon="4.44315">
        <ele>1111.9</ele>
        <time>2018-08-19T12:13:56.000Z</time>
      </trkpt>
      <trkpt lat="45.31809" lon="4.44316">
        <ele>1111.9</ele>
        <time>2018-08-19T12:13:57.000Z</time>
      </trkpt>
      <trkpt lat="45.31809" lon="4.44318">
        <ele>1111.9</ele>
        <time>2018-08-19T12:13:58.000Z</time>
      </trkpt>
      <trkpt lat="45.3181" lon="4.44319">
        <ele>1111.9</ele>
        <time>2018-08-19T12:13:59.000Z</time>
      </trkpt>
      <trkpt lat="45.3181" lon="4.4432">
        <ele>1111.9</ele>
        <time>2018-08-19T12:14:00.000Z</time>
      </trkpt>
      <trkpt lat="45.31811" lon="4.44322">
        <ele>1111.9</ele>
        <time>2018-08-19T12:14:01.000Z</time>
      </trkpt>
      <trkpt lat="45.31811" lon="4.44323">
        <ele>1111.9</ele>
        <time>2018-08-19T12:14:02.000Z</time>
      </trkpt>
      <trkpt lat="45.31811" lon="4.44325">
        <ele>1111.9</ele>
        <time>2018-08-19T12:14:03.000Z</time>
      </trkpt>
      <trkpt lat="45.31812" lon="4.44326">
        <ele>1111.9</ele>
        <time>2018-08-19T12:14:04.000Z</time>
      </trkpt>
      <trkpt lat="45.31812" lon="4.44328">
        <ele>1111.9</ele>
        <time>2018-08-19T12:14:05.000Z</time>
      </trkpt>
      <trkpt lat="45.31812" lon="4.4433">
        <ele>1111.9</ele>
        <time>2018-08-19T12:14:06.000Z</time>
      </trkpt>
      <trkpt lat="45.31813" lon="4.44331">
        <ele>1111.9</ele>
        <time>2018-08-19T12:14:07.000Z</time>
      </trkpt>
      <trkpt lat="45.31813" lon="4.44333">
        <ele>1111.9</ele>
        <time>2018-08-19T12:14:08.000Z</time>
      </trkpt>
      <trkpt lat="45.31813" lon="4.44334">
        <ele>1112</ele>
        <time>2018-08-19T12:14:09.000Z</time>
      </trkpt>
      <trkpt lat="45.31814" lon="4.44336">
        <ele>1112.1</ele>
        <time>2018-08-19T12:14:10.000Z</time>
      </trkpt>
      <trkpt lat="45.31814" lon="4.44337">
        <ele>1112.1</ele>
        <time>2018-08-19T12:14:11.000Z</time>
      </trkpt>
      <trkpt lat="45.31814" lon="4.44339">
        <ele>1112.2</ele>
        <time>2018-08-19T12:14:12.000Z</time>
      </trkpt>
      <trkpt lat="45.31815" lon="4.4434">
        <ele>1112.3</ele>
        <time>2018-08-19T12:14:13.000Z</time>
      </trkpt>
      <trkpt lat="45.31815" lon="4.44341">
        <ele>1112.3</ele>
        <time>2018-08-19T12:14:14.000Z</time>
      </trkpt>
      <trkpt lat="45.31816" lon="4.44343">
        <ele>1112.4</ele>
        <time>2018-08-19T12:14:15.000Z</time>
      </trkpt>
      <trkpt lat="45.31816" lon="4.44344">
        <ele>1112.4</ele>
        <time>2018-08-19T12:14:16.000Z</time>
      </trkpt>
      <trkpt lat="45.31816" lon="4.44345">
        <ele>1112.5</ele>
        <time>2018-08-19T12:14:17.000Z</time>
      </trkpt>
      <trkpt lat="45.31817" lon="4.44347">
        <ele>1112.5</ele>
        <time>2018-08-19T12:14:18.000Z</time>
      </trkpt>
      <trkpt lat="45.31817" lon="4.44348">
        <ele>1112.6</ele>
        <time>2018-08-19T12:14:19.000Z</time>
      </trkpt>
      <trkpt lat="45.31817" lon="4.44349">
        <ele>1112.6</ele>
        <time>2018-08-19T12:14:20.000Z</time>
      </trkpt>
      <trkpt lat="45.31818" lon="4.44351">
        <ele>1112.7</ele>
        <time>2018-08-19T12:14:21.000Z</time>
      </trkpt>
      <trkpt lat="45.31818" lon="4.44352">
        <ele>1112.8</ele>
        <time>2018-08-19T12:14:22.000Z</time>
      </trkpt>
      <trkpt lat="45.31818" lon="4.44353">
        <ele>1112.8</ele>
        <time>2018-08-19T12:14:23.000Z</time>
      </trkpt>
      <trkpt lat="45.31818" lon="4.44355">
        <ele>1112.9</ele>
        <time>2018-08-19T12:14:24.000Z</time>
      </trkpt>
      <trkpt lat="45.31818" lon="4.44356">
        <ele>1113</ele>
        <time>2018-08-19T12:14:25.000Z</time>
      </trkpt>
      <trkpt lat="45.31819" lon="4.44357">
        <ele>1113.1</ele>
        <time>2018-08-19T12:14:26.000Z</time>
      </trkpt>
      <trkpt lat="45.31819" lon="4.44359">
        <ele>1113.1</ele>
        <time>2018-08-19T12:14:27.000Z</time>
      </trkpt>
      <trkpt lat="45.31819" lon="4.4436">
        <ele>1113.2</ele>
        <time>2018-08-19T12:14:28.000Z</time>
      </trkpt>
      <trkpt lat="45.3182" lon="4.44362">
        <ele>1113.3</ele>
        <time>2018-08-19T12:14:29.000Z</time>
      </trkpt>
      <trkpt lat="45.3182" lon="4.44363">
        <ele>1113.3</ele>
        <time>2018-08-19T12:14:30.000Z</time>
      </trkpt>
      <trkpt lat="45.3182" lon="4.44365">
        <ele>1113.4</ele>
        <time>2018-08-19T12:14:31.000Z</time>
      </trkpt>
      <trkpt lat="45.31821" lon="4.44366">
        <ele>1113.4</ele>
        <time>2018-08-19T12:14:32.000Z</time>
      </trkpt>
      <trkpt lat="45.31822" lon="4.44368">
        <ele>1113.4</ele>
        <time>2018-08-19T12:14:33.000Z</time>
      </trkpt>
      <trkpt lat="45.31822" lon="4.44369">
        <ele>1113.5</ele>
        <time>2018-08-19T12:14:34.000Z</time>
      </trkpt>
      <trkpt lat="45.31823" lon="4.44371">
        <ele>1113.5</ele>
        <time>2018-08-19T12:14:35.000Z</time>
      </trkpt>
      <trkpt lat="45.31824" lon="4.44372">
        <ele>1113.5</ele>
        <time>2018-08-19T12:14:36.000Z</time>
      </trkpt>
      <trkpt lat="45.31824" lon="4.44373">
        <ele>1113.5</ele>
        <time>2018-08-19T12:14:37.000Z</time>
      </trkpt>
      <trkpt lat="45.31825" lon="4.44375">
        <ele>1113.5</ele>
        <time>2018-08-19T12:14:38.000Z</time>
      </trkpt>
      <trkpt lat="45.31825" lon="4.44376">
        <ele>1113.5</ele>
        <time>2018-08-19T12:14:39.000Z</time>
      </trkpt>
      <trkpt lat="45.31826" lon="4.44377">
        <ele>1113.5</ele>
        <time>2018-08-19T12:14:40.000Z</time>
      </trkpt>
      <trkpt lat="45.31827" lon="4.44378">
        <ele>1113.5</ele>
        <time>2018-08-19T12:14:41.000Z</time>
      </trkpt>
      <trkpt lat="45.31827" lon="4.44379">
        <ele>1113.5</ele>
        <time>2018-08-19T12:14:42.000Z</time>
      </trkpt>
      <trkpt lat="45.31828" lon="4.44381">
        <ele>1113.5</ele>
        <time>2018-08-19T12:14:43.000Z</time>
      </trkpt>
      <trkpt lat="45.31828" lon="4.44382">
        <ele>1113.6</ele>
        <time>2018-08-19T12:14:44.000Z</time>
      </trkpt>
      <trkpt lat="45.31829" lon="4.44384">
        <ele>1113.6</ele>
        <time>2018-08-19T12:14:45.000Z</time>
      </trkpt>
      <trkpt lat="45.31829" lon="4.44385">
        <ele>1113.6</ele>
        <time>2018-08-19T12:14:46.000Z</time>
      </trkpt>
      <trkpt lat="45.3183" lon="4.44387">
        <ele>1113.7</ele>
        <time>2018-08-19T12:14:47.000Z</time>
      </trkpt>
      <trkpt lat="45.3183" lon="4.44388">
        <ele>1113.7</ele>
        <time>2018-08-19T12:14:48.000Z</time>
      </trkpt>
      <trkpt lat="45.31831" lon="4.4439">
        <ele>1113.7</ele>
        <time>2018-08-19T12:14:49.000Z</time>
      </trkpt>
      <trkpt lat="45.31831" lon="4.44391">
        <ele>1113.8</ele>
        <time>2018-08-19T12:14:50.000Z</time>
      </trkpt>
      <trkpt lat="45.31832" lon="4.44393">
        <ele>1113.8</ele>
        <time>2018-08-19T12:14:51.000Z</time>
      </trkpt>
      <trkpt lat="45.31832" lon="4.44394">
        <ele>1113.9</ele>
        <time>2018-08-19T12:14:52.000Z</time>
      </trkpt>
      <trkpt lat="45.31832" lon="4.44396">
        <ele>1113.9</ele>
        <time>2018-08-19T12:14:53.000Z</time>
      </trkpt>
      <trkpt lat="45.31833" lon="4.44398">
        <ele>1113.9</ele>
        <time>2018-08-19T12:14:54.000Z</time>
      </trkpt>
      <trkpt lat="45.31833" lon="4.444">
        <ele>1114</ele>
        <time>2018-08-19T12:14:55.000Z</time>
      </trkpt>
      <trkpt lat="45.31834" lon="4.44401">
        <ele>1114</ele>
        <time>2018-08-19T12:14:56.000Z</time>
      </trkpt>
      <trkpt lat="45.31835" lon="4.44403">
        <ele>1114</ele>
        <time>2018-08-19T12:14:57.000Z</time>
      </trkpt>
      <trkpt lat="45.31835" lon="4.44405">
        <ele>1114.1</ele>
        <time>2018-08-19T12:14:58.000Z</time>
      </trkpt>
      <trkpt lat="45.31836" lon="4.44407">
        <ele>1114.1</ele>
        <time>2018-08-19T12:14:59.000Z</time>
      </trkpt>
      <trkpt lat="45.31836" lon="4.44409">
        <ele>1114.2</ele>
        <time>2018-08-19T12:15:00.000Z</time>
      </trkpt>
      <trkpt lat="45.31837" lon="4.44411">
        <ele>1114.2</ele>
        <time>2018-08-19T12:15:01.000Z</time>
      </trkpt>
      <trkpt lat="45.31837" lon="4.44412">
        <ele>1114.2</ele>
        <time>2018-08-19T12:15:02.000Z</time>
      </trkpt>
      <trkpt lat="45.31838" lon="4.44414">
        <ele>1114.2</ele>
        <time>2018-08-19T12:15:03.000Z</time>
      </trkpt>
      <trkpt lat="45.31839" lon="4.44415">
        <ele>1114.2</ele>
        <time>2018-08-19T12:15:04.000Z</time>
      </trkpt>
      <trkpt lat="45.31839" lon="4.44417">
        <ele>1114.2</ele>
        <time>2018-08-19T12:15:05.000Z</time>
      </trkpt>
      <trkpt lat="45.3184" lon="4.44418">
        <ele>1114.2</ele>
        <time>2018-08-19T12:15:06.000Z</time>
      </trkpt>
      <trkpt lat="45.31841" lon="4.44419">
        <ele>1114.2</ele>
        <time>2018-08-19T12:15:07.000Z</time>
      </trkpt>
      <trkpt lat="45.31841" lon="4.44421">
        <ele>1114.2</ele>
        <time>2018-08-19T12:15:08.000Z</time>
      </trkpt>
      <trkpt lat="45.31842" lon="4.44422">
        <ele>1114.2</ele>
        <time>2018-08-19T12:15:09.000Z</time>
      </trkpt>
      <trkpt lat="45.31843" lon="4.44423">
        <ele>1114.2</ele>
        <time>2018-08-19T12:15:10.000Z</time>
      </trkpt>
      <trkpt lat="45.31843" lon="4.44424">
        <ele>1114.1</ele>
        <time>2018-08-19T12:15:11.000Z</time>
      </trkpt>
      <trkpt lat="45.31844" lon="4.44425">
        <ele>1114.1</ele>
        <time>2018-08-19T12:15:12.000Z</time>
      </trkpt>
      <trkpt lat="45.31845" lon="4.44426">
        <ele>1114.1</ele>
        <time>2018-08-19T12:15:13.000Z</time>
      </trkpt>
      <trkpt lat="45.31845" lon="4.44427">
        <ele>1114.1</ele>
        <time>2018-08-19T12:15:14.000Z</time>
      </trkpt>
      <trkpt lat="45.31846" lon="4.44429">
        <ele>1114.1</ele>
        <time>2018-08-19T12:15:15.000Z</time>
      </trkpt>
      <trkpt lat="45.31847" lon="4.4443">
        <ele>1114.1</ele>
        <time>2018-08-19T12:15:16.000Z</time>
      </trkpt>
      <trkpt lat="45.31847" lon="4.44431">
        <ele>1114.1</ele>
        <time>2018-08-19T12:15:17.000Z</time>
      </trkpt>
      <trkpt lat="45.31848" lon="4.44432">
        <ele>1114.1</ele>
        <time>2018-08-19T12:15:18.000Z</time>
      </trkpt>
      <trkpt lat="45.31848" lon="4.44433">
        <ele>1114.1</ele>
        <time>2018-08-19T12:15:19.000Z</time>
      </trkpt>
      <trkpt lat="45.31849" lon="4.44435">
        <ele>1114.1</ele>
        <time>2018-08-19T12:15:20.000Z</time>
      </trkpt>
      <trkpt lat="45.31849" lon="4.44436">
        <ele>1114.1</ele>
        <time>2018-08-19T12:15:21.000Z</time>
      </trkpt>
      <trkpt lat="45.3185" lon="4.44437">
        <ele>1114.1</ele>
        <time>2018-08-19T12:15:22.000Z</time>
      </trkpt>
      <trkpt lat="45.31851" lon="4.44438">
        <ele>1114.1</ele>
        <time>2018-08-19T12:15:23.000Z</time>
      </trkpt>
      <trkpt lat="45.31851" lon="4.4444">
        <ele>1114.2</ele>
        <time>2018-08-19T12:15:24.000Z</time>
      </trkpt>
      <trkpt lat="45.31852" lon="4.44441">
        <ele>1114.2</ele>
        <time>2018-08-19T12:15:25.000Z</time>
      </trkpt>
      <trkpt lat="45.31852" lon="4.44442">
        <ele>1114.2</ele>
        <time>2018-08-19T12:15:26.000Z</time>
      </trkpt>
      <trkpt lat="45.31852" lon="4.44444">
        <ele>1114.3</ele>
        <time>2018-08-19T12:15:27.000Z</time>
      </trkpt>
      <trkpt lat="45.31853" lon="4.44445">
        <ele>1114.3</ele>
        <time>2018-08-19T12:15:28.000Z</time>
      </trkpt>
      <trkpt lat="45.31853" lon="4.44446">
        <ele>1114.3</ele>
        <time>2018-08-19T12:15:29.000Z</time>
      </trkpt>
      <trkpt lat="45.31854" lon="4.44448">
        <ele>1114.4</ele>
        <time>2018-08-19T12:15:30.000Z</time>
      </trkpt>
      <trkpt lat="45.31854" lon="4.44449">
        <ele>1114.4</ele>
        <time>2018-08-19T12:15:31.000Z</time>
      </trkpt>
      <trkpt lat="45.31855" lon="4.4445">
        <ele>1114.4</ele>
        <time>2018-08-19T12:15:32.000Z</time>
      </trkpt>
      <trkpt lat="45.31855" lon="4.44452">
        <ele>1114.5</ele>
        <time>2018-08-19T12:15:33.000Z</time>
      </trkpt>
      <trkpt lat="45.31855" lon="4.44453">
        <ele>1114.5</ele>
        <time>2018-08-19T12:15:34.000Z</time>
      </trkpt>
      <trkpt lat="45.31856" lon="4.44454">
        <ele>1114.6</ele>
        <time>2018-08-19T12:15:35.000Z</time>
      </trkpt>
      <trkpt lat="45.31856" lon="4.44456">
        <ele>1114.6</ele>
        <time>2018-08-19T12:15:36.000Z</time>
      </trkpt>
      <trkpt lat="45.31856" lon="4.44457">
        <ele>1114.6</ele>
        <time>2018-08-19T12:15:37.000Z</time>
      </trkpt>
      <trkpt lat="45.31857" lon="4.44458">
        <ele>1114.7</ele>
        <time>2018-08-19T12:15:38.000Z</time>
      </trkpt>
      <trkpt lat="45.31857" lon="4.4446">
        <ele>1114.8</ele>
        <time>2018-08-19T12:15:39.000Z</time>
      </trkpt>
      <trkpt lat="45.31857" lon="4.44461">
        <ele>1114.8</ele>
        <time>2018-08-19T12:15:40.000Z</time>
      </trkpt>
      <trkpt lat="45.31858" lon="4.44462">
        <ele>1114.9</ele>
        <time>2018-08-19T12:15:41.000Z</time>
      </trkpt>
      <trkpt lat="45.31858" lon="4.44464">
        <ele>1114.9</ele>
        <time>2018-08-19T12:15:42.000Z</time>
      </trkpt>
      <trkpt lat="45.31858" lon="4.44465">
        <ele>1115</ele>
        <time>2018-08-19T12:15:43.000Z</time>
      </trkpt>
      <trkpt lat="45.31858" lon="4.44466">
        <ele>1115</ele>
        <time>2018-08-19T12:15:44.000Z</time>
      </trkpt>
      <trkpt lat="45.31859" lon="4.44468">
        <ele>1115.1</ele>
        <time>2018-08-19T12:15:45.000Z</time>
      </trkpt>
      <trkpt lat="45.31859" lon="4.44469">
        <ele>1115.2</ele>
        <time>2018-08-19T12:15:46.000Z</time>
      </trkpt>
      <trkpt lat="45.31859" lon="4.4447">
        <ele>1115.2</ele>
        <time>2018-08-19T12:15:47.000Z</time>
      </trkpt>
      <trkpt lat="45.3186" lon="4.44472">
        <ele>1115.3</ele>
        <time>2018-08-19T12:15:48.000Z</time>
      </trkpt>
      <trkpt lat="45.3186" lon="4.44473">
        <ele>1115.3</ele>
        <time>2018-08-19T12:15:49.000Z</time>
      </trkpt>
      <trkpt lat="45.3186" lon="4.44474">
        <ele>1115.4</ele>
        <time>2018-08-19T12:15:50.000Z</time>
      </trkpt>
      <trkpt lat="45.3186" lon="4.44476">
        <ele>1115.4</ele>
        <time>2018-08-19T12:15:51.000Z</time>
      </trkpt>
      <trkpt lat="45.31861" lon="4.44477">
        <ele>1115.5</ele>
        <time>2018-08-19T12:15:52.000Z</time>
      </trkpt>
      <trkpt lat="45.31861" lon="4.44479">
        <ele>1115.6</ele>
        <time>2018-08-19T12:15:53.000Z</time>
      </trkpt>
      <trkpt lat="45.31861" lon="4.4448">
        <ele>1115.6</ele>
        <time>2018-08-19T12:15:54.000Z</time>
      </trkpt>
      <trkpt lat="45.31862" lon="4.44482">
        <ele>1115.7</ele>
        <time>2018-08-19T12:15:55.000Z</time>
      </trkpt>
      <trkpt lat="45.31862" lon="4.44483">
        <ele>1115.8</ele>
        <time>2018-08-19T12:15:56.000Z</time>
      </trkpt>
      <trkpt lat="45.31862" lon="4.44485">
        <ele>1115.8</ele>
        <time>2018-08-19T12:15:57.000Z</time>
      </trkpt>
      <trkpt lat="45.31863" lon="4.44487">
        <ele>1115.9</ele>
        <time>2018-08-19T12:15:58.000Z</time>
      </trkpt>
      <trkpt lat="45.31863" lon="4.44488">
        <ele>1115.9</ele>
        <time>2018-08-19T12:15:59.000Z</time>
      </trkpt>
      <trkpt lat="45.31864" lon="4.4449">
        <ele>1116</ele>
        <time>2018-08-19T12:16:00.000Z</time>
      </trkpt>
      <trkpt lat="45.31865" lon="4.44491">
        <ele>1116</ele>
        <time>2018-08-19T12:16:01.000Z</time>
      </trkpt>
      <trkpt lat="45.31865" lon="4.44492">
        <ele>1116</ele>
        <time>2018-08-19T12:16:02.000Z</time>
      </trkpt>
      <trkpt lat="45.31866" lon="4.44494">
        <ele>1116</ele>
        <time>2018-08-19T12:16:03.000Z</time>
      </trkpt>
      <trkpt lat="45.31867" lon="4.44495">
        <ele>1116.1</ele>
        <time>2018-08-19T12:16:04.000Z</time>
      </trkpt>
      <trkpt lat="45.31867" lon="4.44496">
        <ele>1116.1</ele>
        <time>2018-08-19T12:16:05.000Z</time>
      </trkpt>
      <trkpt lat="45.31868" lon="4.44498">
        <ele>1116.1</ele>
        <time>2018-08-19T12:16:06.000Z</time>
      </trkpt>
      <trkpt lat="45.31869" lon="4.44499">
        <ele>1116.1</ele>
        <time>2018-08-19T12:16:07.000Z</time>
      </trkpt>
      <trkpt lat="45.31869" lon="4.445">
        <ele>1116.1</ele>
        <time>2018-08-19T12:16:08.000Z</time>
      </trkpt>
      <trkpt lat="45.31869" lon="4.44502">
        <ele>1116.2</ele>
        <time>2018-08-19T12:16:09.000Z</time>
      </trkpt>
      <trkpt lat="45.3187" lon="4.44503">
        <ele>1116.2</ele>
        <time>2018-08-19T12:16:10.000Z</time>
      </trkpt>
      <trkpt lat="45.3187" lon="4.44504">
        <ele>1116.2</ele>
        <time>2018-08-19T12:16:11.000Z</time>
      </trkpt>
      <trkpt lat="45.3187" lon="4.44506">
        <ele>1116.3</ele>
        <time>2018-08-19T12:16:12.000Z</time>
      </trkpt>
      <trkpt lat="45.3187" lon="4.44507">
        <ele>1116.3</ele>
        <time>2018-08-19T12:16:13.000Z</time>
      </trkpt>
      <trkpt lat="45.3187" lon="4.44509">
        <ele>1116.4</ele>
        <time>2018-08-19T12:16:14.000Z</time>
      </trkpt>
      <trkpt lat="45.3187" lon="4.4451">
        <ele>1116.4</ele>
        <time>2018-08-19T12:16:15.000Z</time>
      </trkpt>
      <trkpt lat="45.3187" lon="4.44511">
        <ele>1116.5</ele>
        <time>2018-08-19T12:16:16.000Z</time>
      </trkpt>
      <trkpt lat="45.3187" lon="4.44513">
        <ele>1116.6</ele>
        <time>2018-08-19T12:16:17.000Z</time>
      </trkpt>
      <trkpt lat="45.3187" lon="4.44514">
        <ele>1116.6</ele>
        <time>2018-08-19T12:16:18.000Z</time>
      </trkpt>
      <trkpt lat="45.3187" lon="4.44516">
        <ele>1116.7</ele>
        <time>2018-08-19T12:16:19.000Z</time>
      </trkpt>
      <trkpt lat="45.3187" lon="4.44517">
        <ele>1116.7</ele>
        <time>2018-08-19T12:16:20.000Z</time>
      </trkpt>
      <trkpt lat="45.31871" lon="4.44519">
        <ele>1116.8</ele>
        <time>2018-08-19T12:16:21.000Z</time>
      </trkpt>
      <trkpt lat="45.31871" lon="4.4452">
        <ele>1116.8</ele>
        <time>2018-08-19T12:16:22.000Z</time>
      </trkpt>
      <trkpt lat="45.31871" lon="4.44522">
        <ele>1116.8</ele>
        <time>2018-08-19T12:16:23.000Z</time>
      </trkpt>
      <trkpt lat="45.31871" lon="4.44523">
        <ele>1116.9</ele>
        <time>2018-08-19T12:16:24.000Z</time>
      </trkpt>
      <trkpt lat="45.31872" lon="4.44525">
        <ele>1116.9</ele>
        <time>2018-08-19T12:16:25.000Z</time>
      </trkpt>
      <trkpt lat="45.31872" lon="4.44527">
        <ele>1116.9</ele>
        <time>2018-08-19T12:16:26.000Z</time>
      </trkpt>
      <trkpt lat="45.31873" lon="4.44528">
        <ele>1116.9</ele>
        <time>2018-08-19T12:16:27.000Z</time>
      </trkpt>
      <trkpt lat="45.31873" lon="4.4453">
        <ele>1116.9</ele>
        <time>2018-08-19T12:16:28.000Z</time>
      </trkpt>
      <trkpt lat="45.31874" lon="4.44531">
        <ele>1116.9</ele>
        <time>2018-08-19T12:16:29.000Z</time>
      </trkpt>
      <trkpt lat="45.31874" lon="4.44532">
        <ele>1116.9</ele>
        <time>2018-08-19T12:16:30.000Z</time>
      </trkpt>
      <trkpt lat="45.31875" lon="4.44534">
        <ele>1116.9</ele>
        <time>2018-08-19T12:16:31.000Z</time>
      </trkpt>
      <trkpt lat="45.31876" lon="4.44535">
        <ele>1116.9</ele>
        <time>2018-08-19T12:16:32.000Z</time>
      </trkpt>
      <trkpt lat="45.31876" lon="4.44537">
        <ele>1116.9</ele>
        <time>2018-08-19T12:16:33.000Z</time>
      </trkpt>
      <trkpt lat="45.31877" lon="4.44538">
        <ele>1116.9</ele>
        <time>2018-08-19T12:16:34.000Z</time>
      </trkpt>
      <trkpt lat="45.31877" lon="4.44539">
        <ele>1116.9</ele>
        <time>2018-08-19T12:16:35.000Z</time>
      </trkpt>
      <trkpt lat="45.31878" lon="4.4454">
        <ele>1116.9</ele>
        <time>2018-08-19T12:16:36.000Z</time>
      </trkpt>
      <trkpt lat="45.31878" lon="4.44541">
        <ele>1116.9</ele>
        <time>2018-08-19T12:16:37.000Z</time>
      </trkpt>
      <trkpt lat="45.31879" lon="4.44542">
        <ele>1116.9</ele>
        <time>2018-08-19T12:16:38.000Z</time>
      </trkpt>
      <trkpt lat="45.3188" lon="4.44544">
        <ele>1116.9</ele>
        <time>2018-08-19T12:16:39.000Z</time>
      </trkpt>
      <trkpt lat="45.3188" lon="4.44545">
        <ele>1116.9</ele>
        <time>2018-08-19T12:16:40.000Z</time>
      </trkpt>
      <trkpt lat="45.31881" lon="4.44546">
        <ele>1116.9</ele>
        <time>2018-08-19T12:16:41.000Z</time>
      </trkpt>
      <trkpt lat="45.31881" lon="4.44547">
        <ele>1116.8</ele>
        <time>2018-08-19T12:16:42.000Z</time>
      </trkpt>
      <trkpt lat="45.31882" lon="4.44548">
        <ele>1116.8</ele>
        <time>2018-08-19T12:16:43.000Z</time>
      </trkpt>
      <trkpt lat="45.31882" lon="4.44549">
        <ele>1116.8</ele>
        <time>2018-08-19T12:16:44.000Z</time>
      </trkpt>
      <trkpt lat="45.31883" lon="4.4455">
        <ele>1116.8</ele>
        <time>2018-08-19T12:16:45.000Z</time>
      </trkpt>
      <trkpt lat="45.31884" lon="4.44552">
        <ele>1116.8</ele>
        <time>2018-08-19T12:16:46.000Z</time>
      </trkpt>
      <trkpt lat="45.31884" lon="4.44553">
        <ele>1116.8</ele>
        <time>2018-08-19T12:16:47.000Z</time>
      </trkpt>
      <trkpt lat="45.31885" lon="4.44555">
        <ele>1116.8</ele>
        <time>2018-08-19T12:16:48.000Z</time>
      </trkpt>
      <trkpt lat="45.31885" lon="4.44556">
        <ele>1116.8</ele>
        <time>2018-08-19T12:16:49.000Z</time>
      </trkpt>
      <trkpt lat="45.31886" lon="4.44557">
        <ele>1116.8</ele>
        <time>2018-08-19T12:16:50.000Z</time>
      </trkpt>
      <trkpt lat="45.31887" lon="4.44559">
        <ele>1116.8</ele>
        <time>2018-08-19T12:16:51.000Z</time>
      </trkpt>
      <trkpt lat="45.31887" lon="4.4456">
        <ele>1116.8</ele>
        <time>2018-08-19T12:16:52.000Z</time>
      </trkpt>
      <trkpt lat="45.31888" lon="4.44562">
        <ele>1116.8</ele>
        <time>2018-08-19T12:16:53.000Z</time>
      </trkpt>
      <trkpt lat="45.31889" lon="4.44563">
        <ele>1116.8</ele>
        <time>2018-08-19T12:16:54.000Z</time>
      </trkpt>
      <trkpt lat="45.3189" lon="4.44564">
        <ele>1116.8</ele>
        <time>2018-08-19T12:16:55.000Z</time>
      </trkpt>
      <trkpt lat="45.3189" lon="4.44566">
        <ele>1116.7</ele>
        <time>2018-08-19T12:16:56.000Z</time>
      </trkpt>
      <trkpt lat="45.31891" lon="4.44567">
        <ele>1116.7</ele>
        <time>2018-08-19T12:16:57.000Z</time>
      </trkpt>
      <trkpt lat="45.31892" lon="4.44568">
        <ele>1116.7</ele>
        <time>2018-08-19T12:16:58.000Z</time>
      </trkpt>
      <trkpt lat="45.31892" lon="4.44569">
        <ele>1116.7</ele>
        <time>2018-08-19T12:16:59.000Z</time>
      </trkpt>
      <trkpt lat="45.31893" lon="4.44571">
        <ele>1116.7</ele>
        <time>2018-08-19T12:17:00.000Z</time>
      </trkpt>
      <trkpt lat="45.31894" lon="4.44572">
        <ele>1116.7</ele>
        <time>2018-08-19T12:17:01.000Z</time>
      </trkpt>
      <trkpt lat="45.31894" lon="4.44573">
        <ele>1116.7</ele>
        <time>2018-08-19T12:17:02.000Z</time>
      </trkpt>
      <trkpt lat="45.31895" lon="4.44574">
        <ele>1116.7</ele>
        <time>2018-08-19T12:17:03.000Z</time>
      </trkpt>
      <trkpt lat="45.31895" lon="4.44576">
        <ele>1116.7</ele>
        <time>2018-08-19T12:17:04.000Z</time>
      </trkpt>
      <trkpt lat="45.31896" lon="4.44577">
        <ele>1116.7</ele>
        <time>2018-08-19T12:17:05.000Z</time>
      </trkpt>
      <trkpt lat="45.31896" lon="4.44578">
        <ele>1116.8</ele>
        <time>2018-08-19T12:17:06.000Z</time>
      </trkpt>
      <trkpt lat="45.31897" lon="4.4458">
        <ele>1116.8</ele>
        <time>2018-08-19T12:17:07.000Z</time>
      </trkpt>
      <trkpt lat="45.31897" lon="4.44581">
        <ele>1116.8</ele>
        <time>2018-08-19T12:17:08.000Z</time>
      </trkpt>
      <trkpt lat="45.31898" lon="4.44582">
        <ele>1116.8</ele>
        <time>2018-08-19T12:17:09.000Z</time>
      </trkpt>
      <trkpt lat="45.31898" lon="4.44583">
        <ele>1116.8</ele>
        <time>2018-08-19T12:17:10.000Z</time>
      </trkpt>
      <trkpt lat="45.31899" lon="4.44585">
        <ele>1116.8</ele>
        <time>2018-08-19T12:17:11.000Z</time>
      </trkpt>
      <trkpt lat="45.319" lon="4.44586">
        <ele>1116.8</ele>
        <time>2018-08-19T12:17:12.000Z</time>
      </trkpt>
      <trkpt lat="45.319" lon="4.44587">
        <ele>1116.9</ele>
        <time>2018-08-19T12:17:13.000Z</time>
      </trkpt>
      <trkpt lat="45.31901" lon="4.44589">
        <ele>1116.9</ele>
        <time>2018-08-19T12:17:14.000Z</time>
      </trkpt>
      <trkpt lat="45.31901" lon="4.4459">
        <ele>1117</ele>
        <time>2018-08-19T12:17:15.000Z</time>
      </trkpt>
      <trkpt lat="45.31902" lon="4.44591">
        <ele>1117</ele>
        <time>2018-08-19T12:17:16.000Z</time>
      </trkpt>
      <trkpt lat="45.31902" lon="4.44592">
        <ele>1117</ele>
        <time>2018-08-19T12:17:17.000Z</time>
      </trkpt>
      <trkpt lat="45.31902" lon="4.44592">
        <ele>1117.1</ele>
        <time>2018-08-19T12:17:18.000Z</time>
      </trkpt>
      <trkpt lat="45.31903" lon="4.44593">
        <ele>1117.1</ele>
        <time>2018-08-19T12:17:19.000Z</time>
      </trkpt>
      <trkpt lat="45.31903" lon="4.44593">
        <ele>1117.1</ele>
        <time>2018-08-19T12:17:20.000Z</time>
      </trkpt>
      <trkpt lat="45.31903" lon="4.44594">
        <ele>1117.1</ele>
        <time>2018-08-19T12:17:21.000Z</time>
      </trkpt>
      <trkpt lat="45.31903" lon="4.44597">
        <ele>1117.3</ele>
        <time>2018-08-19T12:17:22.000Z</time>
      </trkpt>
      <trkpt lat="45.31904" lon="4.44599">
        <ele>1117.4</ele>
        <time>2018-08-19T12:17:23.000Z</time>
      </trkpt>
      <trkpt lat="45.31905" lon="4.446">
        <ele>1117.4</ele>
        <time>2018-08-19T12:17:24.000Z</time>
      </trkpt>
      <trkpt lat="45.31905" lon="4.44601">
        <ele>1117.5</ele>
        <time>2018-08-19T12:17:25.000Z</time>
      </trkpt>
      <trkpt lat="45.31905" lon="4.44603">
        <ele>1117.6</ele>
        <time>2018-08-19T12:17:26.000Z</time>
      </trkpt>
      <trkpt lat="45.31906" lon="4.44604">
        <ele>1117.6</ele>
        <time>2018-08-19T12:17:27.000Z</time>
      </trkpt>
      <trkpt lat="45.31906" lon="4.44606">
        <ele>1117.7</ele>
        <time>2018-08-19T12:17:28.000Z</time>
      </trkpt>
      <trkpt lat="45.31906" lon="4.44607">
        <ele>1117.8</ele>
        <time>2018-08-19T12:17:29.000Z</time>
      </trkpt>
      <trkpt lat="45.31906" lon="4.44609">
        <ele>1117.9</ele>
        <time>2018-08-19T12:17:30.000Z</time>
      </trkpt>
      <trkpt lat="45.31906" lon="4.4461">
        <ele>1118</ele>
        <time>2018-08-19T12:17:31.000Z</time>
      </trkpt>
      <trkpt lat="45.31906" lon="4.44611">
        <ele>1118.1</ele>
        <time>2018-08-19T12:17:32.000Z</time>
      </trkpt>
      <trkpt lat="45.31906" lon="4.44612">
        <ele>1118.2</ele>
        <time>2018-08-19T12:17:33.000Z</time>
      </trkpt>
      <trkpt lat="45.31906" lon="4.44612">
        <ele>1118.2</ele>
        <time>2018-08-19T12:17:34.000Z</time>
      </trkpt>
      <trkpt lat="45.31906" lon="4.44613">
        <ele>1118.2</ele>
        <time>2018-08-19T12:17:35.000Z</time>
      </trkpt>
      <trkpt lat="45.31906" lon="4.44613">
        <ele>1118.2</ele>
        <time>2018-08-19T12:17:36.000Z</time>
      </trkpt>
      <trkpt lat="45.31906" lon="4.44613">
        <ele>1118.2</ele>
        <time>2018-08-19T12:17:37.000Z</time>
      </trkpt>
      <trkpt lat="45.31906" lon="4.44613">
        <ele>1118.2</ele>
        <time>2018-08-19T12:17:38.000Z</time>
      </trkpt>
      <trkpt lat="45.31906" lon="4.44613">
        <ele>1118.2</ele>
        <time>2018-08-19T12:17:39.000Z</time>
      </trkpt>
      <trkpt lat="45.31906" lon="4.44613">
        <ele>1118.3</ele>
        <time>2018-08-19T12:17:40.000Z</time>
      </trkpt>
      <trkpt lat="45.31906" lon="4.44614">
        <ele>1118.3</ele>
        <time>2018-08-19T12:17:41.000Z</time>
      </trkpt>
      <trkpt lat="45.31906" lon="4.44615">
        <ele>1118.4</ele>
        <time>2018-08-19T12:17:42.000Z</time>
      </trkpt>
      <trkpt lat="45.31906" lon="4.44617">
        <ele>1118.6</ele>
        <time>2018-08-19T12:17:43.000Z</time>
      </trkpt>
      <trkpt lat="45.31905" lon="4.44618">
        <ele>1118.7</ele>
        <time>2018-08-19T12:17:44.000Z</time>
      </trkpt>
      <trkpt lat="45.31905" lon="4.4462">
        <ele>1118.8</ele>
        <time>2018-08-19T12:17:45.000Z</time>
      </trkpt>
      <trkpt lat="45.31905" lon="4.44621">
        <ele>1118.9</ele>
        <time>2018-08-19T12:17:46.000Z</time>
      </trkpt>
      <trkpt lat="45.31905" lon="4.44622">
        <ele>1119</ele>
        <time>2018-08-19T12:17:47.000Z</time>
      </trkpt>
      <trkpt lat="45.31906" lon="4.44624">
        <ele>1119.1</ele>
        <time>2018-08-19T12:17:48.000Z</time>
      </trkpt>
      <trkpt lat="45.31906" lon="4.44625">
        <ele>1119.2</ele>
        <time>2018-08-19T12:17:49.000Z</time>
      </trkpt>
      <trkpt lat="45.31906" lon="4.44627">
        <ele>1119.3</ele>
        <time>2018-08-19T12:17:50.000Z</time>
      </trkpt>
      <trkpt lat="45.31906" lon="4.44628">
        <ele>1119.4</ele>
        <time>2018-08-19T12:17:51.000Z</time>
      </trkpt>
      <trkpt lat="45.31906" lon="4.44629">
        <ele>1119.5</ele>
        <time>2018-08-19T12:17:52.000Z</time>
      </trkpt>
      <trkpt lat="45.31906" lon="4.44631">
        <ele>1119.6</ele>
        <time>2018-08-19T12:17:53.000Z</time>
      </trkpt>
      <trkpt lat="45.31906" lon="4.44632">
        <ele>1119.7</ele>
        <time>2018-08-19T12:17:54.000Z</time>
      </trkpt>
      <trkpt lat="45.31906" lon="4.44634">
        <ele>1119.8</ele>
        <time>2018-08-19T12:17:55.000Z</time>
      </trkpt>
      <trkpt lat="45.31906" lon="4.44635">
        <ele>1119.9</ele>
        <time>2018-08-19T12:17:56.000Z</time>
      </trkpt>
      <trkpt lat="45.31906" lon="4.44636">
        <ele>1120</ele>
        <time>2018-08-19T12:17:57.000Z</time>
      </trkpt>
      <trkpt lat="45.31906" lon="4.44637">
        <ele>1120</ele>
        <time>2018-08-19T12:17:58.000Z</time>
      </trkpt>
      <trkpt lat="45.31906" lon="4.44638">
        <ele>1120.1</ele>
        <time>2018-08-19T12:17:59.000Z</time>
      </trkpt>
      <trkpt lat="45.31906" lon="4.44639">
        <ele>1120.2</ele>
        <time>2018-08-19T12:18:00.000Z</time>
      </trkpt>
      <trkpt lat="45.31906" lon="4.4464">
        <ele>1120.3</ele>
        <time>2018-08-19T12:18:01.000Z</time>
      </trkpt>
      <trkpt lat="45.31906" lon="4.44641">
        <ele>1120.4</ele>
        <time>2018-08-19T12:18:02.000Z</time>
      </trkpt>
      <trkpt lat="45.31906" lon="4.44642">
        <ele>1120.5</ele>
        <time>2018-08-19T12:18:03.000Z</time>
      </trkpt>
      <trkpt lat="45.31906" lon="4.44644">
        <ele>1120.6</ele>
        <time>2018-08-19T12:18:04.000Z</time>
      </trkpt>
      <trkpt lat="45.31906" lon="4.44646">
        <ele>1120.7</ele>
        <time>2018-08-19T12:18:05.000Z</time>
      </trkpt>
      <trkpt lat="45.31906" lon="4.44647">
        <ele>1120.8</ele>
        <time>2018-08-19T12:18:06.000Z</time>
      </trkpt>
      <trkpt lat="45.31906" lon="4.44648">
        <ele>1120.9</ele>
        <time>2018-08-19T12:18:07.000Z</time>
      </trkpt>
      <trkpt lat="45.31906" lon="4.4465">
        <ele>1121</ele>
        <time>2018-08-19T12:18:08.000Z</time>
      </trkpt>
      <trkpt lat="45.31907" lon="4.44651">
        <ele>1121</ele>
        <time>2018-08-19T12:18:09.000Z</time>
      </trkpt>
      <trkpt lat="45.31907" lon="4.44652">
        <ele>1121.1</ele>
        <time>2018-08-19T12:18:10.000Z</time>
      </trkpt>
      <trkpt lat="45.31907" lon="4.44653">
        <ele>1121.2</ele>
        <time>2018-08-19T12:18:11.000Z</time>
      </trkpt>
      <trkpt lat="45.31907" lon="4.44655">
        <ele>1121.2</ele>
        <time>2018-08-19T12:18:12.000Z</time>
      </trkpt>
      <trkpt lat="45.31908" lon="4.44656">
        <ele>1121.2</ele>
        <time>2018-08-19T12:18:13.000Z</time>
      </trkpt>
      <trkpt lat="45.31908" lon="4.44657">
        <ele>1121.3</ele>
        <time>2018-08-19T12:18:14.000Z</time>
      </trkpt>
      <trkpt lat="45.31909" lon="4.44658">
        <ele>1121.3</ele>
        <time>2018-08-19T12:18:15.000Z</time>
      </trkpt>
      <trkpt lat="45.31909" lon="4.44659">
        <ele>1121.4</ele>
        <time>2018-08-19T12:18:16.000Z</time>
      </trkpt>
      <trkpt lat="45.31909" lon="4.4466">
        <ele>1121.4</ele>
        <time>2018-08-19T12:18:17.000Z</time>
      </trkpt>
      <trkpt lat="45.3191" lon="4.44661">
        <ele>1121.4</ele>
        <time>2018-08-19T12:18:18.000Z</time>
      </trkpt>
      <trkpt lat="45.3191" lon="4.44662">
        <ele>1121.5</ele>
        <time>2018-08-19T12:18:19.000Z</time>
      </trkpt>
      <trkpt lat="45.31911" lon="4.44664">
        <ele>1121.5</ele>
        <time>2018-08-19T12:18:20.000Z</time>
      </trkpt>
      <trkpt lat="45.31911" lon="4.44665">
        <ele>1121.6</ele>
        <time>2018-08-19T12:18:21.000Z</time>
      </trkpt>
      <trkpt lat="45.31911" lon="4.44666">
        <ele>1121.6</ele>
        <time>2018-08-19T12:18:22.000Z</time>
      </trkpt>
      <trkpt lat="45.31912" lon="4.44667">
        <ele>1121.7</ele>
        <time>2018-08-19T12:18:23.000Z</time>
      </trkpt>
      <trkpt lat="45.31912" lon="4.44669">
        <ele>1121.8</ele>
        <time>2018-08-19T12:18:24.000Z</time>
      </trkpt>
      <trkpt lat="45.31912" lon="4.4467">
        <ele>1121.8</ele>
        <time>2018-08-19T12:18:25.000Z</time>
      </trkpt>
      <trkpt lat="45.31912" lon="4.44671">
        <ele>1121.9</ele>
        <time>2018-08-19T12:18:26.000Z</time>
      </trkpt>
      <trkpt lat="45.31913" lon="4.44672">
        <ele>1122</ele>
        <time>2018-08-19T12:18:27.000Z</time>
      </trkpt>
      <trkpt lat="45.31913" lon="4.44674">
        <ele>1122.1</ele>
        <time>2018-08-19T12:18:28.000Z</time>
      </trkpt>
      <trkpt lat="45.31913" lon="4.44675">
        <ele>1122.2</ele>
        <time>2018-08-19T12:18:29.000Z</time>
      </trkpt>
      <trkpt lat="45.31914" lon="4.44676">
        <ele>1122.3</ele>
        <time>2018-08-19T12:18:30.000Z</time>
      </trkpt>
      <trkpt lat="45.31914" lon="4.44677">
        <ele>1122.4</ele>
        <time>2018-08-19T12:18:31.000Z</time>
      </trkpt>
      <trkpt lat="45.31914" lon="4.44679">
        <ele>1122.5</ele>
        <time>2018-08-19T12:18:32.000Z</time>
      </trkpt>
      <trkpt lat="45.31914" lon="4.4468">
        <ele>1122.5</ele>
        <time>2018-08-19T12:18:33.000Z</time>
      </trkpt>
      <trkpt lat="45.31915" lon="4.44681">
        <ele>1122.6</ele>
        <time>2018-08-19T12:18:34.000Z</time>
      </trkpt>
      <trkpt lat="45.31915" lon="4.44682">
        <ele>1122.7</ele>
        <time>2018-08-19T12:18:35.000Z</time>
      </trkpt>
      <trkpt lat="45.31915" lon="4.44684">
        <ele>1122.8</ele>
        <time>2018-08-19T12:18:36.000Z</time>
      </trkpt>
      <trkpt lat="45.31916" lon="4.44685">
        <ele>1122.9</ele>
        <time>2018-08-19T12:18:37.000Z</time>
      </trkpt>
      <trkpt lat="45.31916" lon="4.44686">
        <ele>1123</ele>
        <time>2018-08-19T12:18:38.000Z</time>
      </trkpt>
      <trkpt lat="45.31916" lon="4.44687">
        <ele>1123</ele>
        <time>2018-08-19T12:18:39.000Z</time>
      </trkpt>
      <trkpt lat="45.31917" lon="4.44689">
        <ele>1123.1</ele>
        <time>2018-08-19T12:18:40.000Z</time>
      </trkpt>
      <trkpt lat="45.31917" lon="4.4469">
        <ele>1123.2</ele>
        <time>2018-08-19T12:18:41.000Z</time>
      </trkpt>
      <trkpt lat="45.31918" lon="4.44691">
        <ele>1123.3</ele>
        <time>2018-08-19T12:18:42.000Z</time>
      </trkpt>
      <trkpt lat="45.31918" lon="4.44692">
        <ele>1123.4</ele>
        <time>2018-08-19T12:18:43.000Z</time>
      </trkpt>
      <trkpt lat="45.31918" lon="4.44694">
        <ele>1123.5</ele>
        <time>2018-08-19T12:18:44.000Z</time>
      </trkpt>
      <trkpt lat="45.31919" lon="4.44695">
        <ele>1123.6</ele>
        <time>2018-08-19T12:18:45.000Z</time>
      </trkpt>
      <trkpt lat="45.31919" lon="4.44696">
        <ele>1123.7</ele>
        <time>2018-08-19T12:18:46.000Z</time>
      </trkpt>
      <trkpt lat="45.31919" lon="4.44698">
        <ele>1123.8</ele>
        <time>2018-08-19T12:18:47.000Z</time>
      </trkpt>
      <trkpt lat="45.3192" lon="4.44699">
        <ele>1123.9</ele>
        <time>2018-08-19T12:18:48.000Z</time>
      </trkpt>
      <trkpt lat="45.3192" lon="4.447">
        <ele>1124</ele>
        <time>2018-08-19T12:18:49.000Z</time>
      </trkpt>
      <trkpt lat="45.3192" lon="4.44702">
        <ele>1124.1</ele>
        <time>2018-08-19T12:18:50.000Z</time>
      </trkpt>
      <trkpt lat="45.3192" lon="4.44703">
        <ele>1124.2</ele>
        <time>2018-08-19T12:18:51.000Z</time>
      </trkpt>
      <trkpt lat="45.3192" lon="4.44704">
        <ele>1124.3</ele>
        <time>2018-08-19T12:18:52.000Z</time>
      </trkpt>
      <trkpt lat="45.31921" lon="4.44706">
        <ele>1124.4</ele>
        <time>2018-08-19T12:18:53.000Z</time>
      </trkpt>
      <trkpt lat="45.31921" lon="4.44707">
        <ele>1124.6</ele>
        <time>2018-08-19T12:18:54.000Z</time>
      </trkpt>
      <trkpt lat="45.31921" lon="4.44708">
        <ele>1124.7</ele>
        <time>2018-08-19T12:18:55.000Z</time>
      </trkpt>
      <trkpt lat="45.31921" lon="4.4471">
        <ele>1124.8</ele>
        <time>2018-08-19T12:18:56.000Z</time>
      </trkpt>
      <trkpt lat="45.31922" lon="4.44711">
        <ele>1124.9</ele>
        <time>2018-08-19T12:18:57.000Z</time>
      </trkpt>
      <trkpt lat="45.31922" lon="4.44712">
        <ele>1125</ele>
        <time>2018-08-19T12:18:58.000Z</time>
      </trkpt>
      <trkpt lat="45.31922" lon="4.44714">
        <ele>1125.1</ele>
        <time>2018-08-19T12:18:59.000Z</time>
      </trkpt>
      <trkpt lat="45.31922" lon="4.44715">
        <ele>1125.2</ele>
        <time>2018-08-19T12:19:00.000Z</time>
      </trkpt>
      <trkpt lat="45.31923" lon="4.44716">
        <ele>1125.3</ele>
        <time>2018-08-19T12:19:01.000Z</time>
      </trkpt>
      <trkpt lat="45.31923" lon="4.44718">
        <ele>1125.4</ele>
        <time>2018-08-19T12:19:02.000Z</time>
      </trkpt>
      <trkpt lat="45.31923" lon="4.44719">
        <ele>1125.5</ele>
        <time>2018-08-19T12:19:03.000Z</time>
      </trkpt>
      <trkpt lat="45.31924" lon="4.4472">
        <ele>1125.6</ele>
        <time>2018-08-19T12:19:04.000Z</time>
      </trkpt>
      <trkpt lat="45.31924" lon="4.44722">
        <ele>1125.7</ele>
        <time>2018-08-19T12:19:05.000Z</time>
      </trkpt>
      <trkpt lat="45.31925" lon="4.44723">
        <ele>1125.8</ele>
        <time>2018-08-19T12:19:06.000Z</time>
      </trkpt>
      <trkpt lat="45.31925" lon="4.44724">
        <ele>1125.9</ele>
        <time>2018-08-19T12:19:07.000Z</time>
      </trkpt>
      <trkpt lat="45.31925" lon="4.44725">
        <ele>1126</ele>
        <time>2018-08-19T12:19:08.000Z</time>
      </trkpt>
      <trkpt lat="45.31926" lon="4.44727">
        <ele>1126.1</ele>
        <time>2018-08-19T12:19:09.000Z</time>
      </trkpt>
      <trkpt lat="45.31926" lon="4.44728">
        <ele>1126.2</ele>
        <time>2018-08-19T12:19:10.000Z</time>
      </trkpt>
      <trkpt lat="45.31927" lon="4.44729">
        <ele>1126.3</ele>
        <time>2018-08-19T12:19:11.000Z</time>
      </trkpt>
      <trkpt lat="45.31927" lon="4.4473">
        <ele>1126.4</ele>
        <time>2018-08-19T12:19:12.000Z</time>
      </trkpt>
      <trkpt lat="45.31928" lon="4.44732">
        <ele>1126.5</ele>
        <time>2018-08-19T12:19:13.000Z</time>
      </trkpt>
      <trkpt lat="45.31928" lon="4.44733">
        <ele>1126.5</ele>
        <time>2018-08-19T12:19:14.000Z</time>
      </trkpt>
      <trkpt lat="45.31928" lon="4.44734">
        <ele>1126.6</ele>
        <time>2018-08-19T12:19:15.000Z</time>
      </trkpt>
      <trkpt lat="45.31929" lon="4.44736">
        <ele>1126.7</ele>
        <time>2018-08-19T12:19:16.000Z</time>
      </trkpt>
      <trkpt lat="45.31929" lon="4.44737">
        <ele>1126.8</ele>
        <time>2018-08-19T12:19:17.000Z</time>
      </trkpt>
      <trkpt lat="45.3193" lon="4.44738">
        <ele>1126.9</ele>
        <time>2018-08-19T12:19:18.000Z</time>
      </trkpt>
      <trkpt lat="45.31931" lon="4.4474">
        <ele>1127</ele>
        <time>2018-08-19T12:19:19.000Z</time>
      </trkpt>
      <trkpt lat="45.31931" lon="4.44741">
        <ele>1127.1</ele>
        <time>2018-08-19T12:19:20.000Z</time>
      </trkpt>
      <trkpt lat="45.31932" lon="4.44742">
        <ele>1127.2</ele>
        <time>2018-08-19T12:19:21.000Z</time>
      </trkpt>
      <trkpt lat="45.31932" lon="4.44744">
        <ele>1127.3</ele>
        <time>2018-08-19T12:19:22.000Z</time>
      </trkpt>
      <trkpt lat="45.31933" lon="4.44745">
        <ele>1127.4</ele>
        <time>2018-08-19T12:19:23.000Z</time>
      </trkpt>
      <trkpt lat="45.31933" lon="4.44747">
        <ele>1127.5</ele>
        <time>2018-08-19T12:19:24.000Z</time>
      </trkpt>
      <trkpt lat="45.31933" lon="4.44748">
        <ele>1127.7</ele>
        <time>2018-08-19T12:19:25.000Z</time>
      </trkpt>
      <trkpt lat="45.31934" lon="4.4475">
        <ele>1127.8</ele>
        <time>2018-08-19T12:19:26.000Z</time>
      </trkpt>
      <trkpt lat="45.31934" lon="4.44752">
        <ele>1127.9</ele>
        <time>2018-08-19T12:19:27.000Z</time>
      </trkpt>
      <trkpt lat="45.31934" lon="4.44753">
        <ele>1128.1</ele>
        <time>2018-08-19T12:19:28.000Z</time>
      </trkpt>
      <trkpt lat="45.31934" lon="4.44755">
        <ele>1128.2</ele>
        <time>2018-08-19T12:19:29.000Z</time>
      </trkpt>
      <trkpt lat="45.31934" lon="4.44757">
        <ele>1128.3</ele>
        <time>2018-08-19T12:19:30.000Z</time>
      </trkpt>
      <trkpt lat="45.31934" lon="4.44758">
        <ele>1128.5</ele>
        <time>2018-08-19T12:19:31.000Z</time>
      </trkpt>
      <trkpt lat="45.31934" lon="4.4476">
        <ele>1128.6</ele>
        <time>2018-08-19T12:19:32.000Z</time>
      </trkpt>
      <trkpt lat="45.31934" lon="4.44761">
        <ele>1128.8</ele>
        <time>2018-08-19T12:19:33.000Z</time>
      </trkpt>
      <trkpt lat="45.31934" lon="4.44763">
        <ele>1128.9</ele>
        <time>2018-08-19T12:19:34.000Z</time>
      </trkpt>
      <trkpt lat="45.31934" lon="4.44765">
        <ele>1129</ele>
        <time>2018-08-19T12:19:35.000Z</time>
      </trkpt>
      <trkpt lat="45.31934" lon="4.44766">
        <ele>1129.2</ele>
        <time>2018-08-19T12:19:36.000Z</time>
      </trkpt>
      <trkpt lat="45.31933" lon="4.44768">
        <ele>1129.3</ele>
        <time>2018-08-19T12:19:37.000Z</time>
      </trkpt>
      <trkpt lat="45.31933" lon="4.44769">
        <ele>1129.4</ele>
        <time>2018-08-19T12:19:38.000Z</time>
      </trkpt>
      <trkpt lat="45.31933" lon="4.4477">
        <ele>1129.6</ele>
        <time>2018-08-19T12:19:39.000Z</time>
      </trkpt>
      <trkpt lat="45.31933" lon="4.44772">
        <ele>1129.7</ele>
        <time>2018-08-19T12:19:40.000Z</time>
      </trkpt>
      <trkpt lat="45.31933" lon="4.44773">
        <ele>1129.9</ele>
        <time>2018-08-19T12:19:41.000Z</time>
      </trkpt>
      <trkpt lat="45.31932" lon="4.44775">
        <ele>1130</ele>
        <time>2018-08-19T12:19:42.000Z</time>
      </trkpt>
      <trkpt lat="45.31932" lon="4.44776">
        <ele>1130.1</ele>
        <time>2018-08-19T12:19:43.000Z</time>
      </trkpt>
      <trkpt lat="45.31932" lon="4.44777">
        <ele>1130.3</ele>
        <time>2018-08-19T12:19:44.000Z</time>
      </trkpt>
      <trkpt lat="45.31932" lon="4.44779">
        <ele>1130.4</ele>
        <time>2018-08-19T12:19:45.000Z</time>
      </trkpt>
      <trkpt lat="45.31931" lon="4.4478">
        <ele>1130.5</ele>
        <time>2018-08-19T12:19:46.000Z</time>
      </trkpt>
      <trkpt lat="45.31931" lon="4.44781">
        <ele>1130.7</ele>
        <time>2018-08-19T12:19:47.000Z</time>
      </trkpt>
      <trkpt lat="45.31931" lon="4.44782">
        <ele>1130.8</ele>
        <time>2018-08-19T12:19:48.000Z</time>
      </trkpt>
      <trkpt lat="45.3193" lon="4.44784">
        <ele>1130.9</ele>
        <time>2018-08-19T12:19:49.000Z</time>
      </trkpt>
      <trkpt lat="45.3193" lon="4.44785">
        <ele>1131</ele>
        <time>2018-08-19T12:19:50.000Z</time>
      </trkpt>
      <trkpt lat="45.3193" lon="4.44786">
        <ele>1131.2</ele>
        <time>2018-08-19T12:19:51.000Z</time>
      </trkpt>
      <trkpt lat="45.3193" lon="4.44788">
        <ele>1131.3</ele>
        <time>2018-08-19T12:19:52.000Z</time>
      </trkpt>
      <trkpt lat="45.3193" lon="4.44789">
        <ele>1131.4</ele>
        <time>2018-08-19T12:19:53.000Z</time>
      </trkpt>
      <trkpt lat="45.31929" lon="4.4479">
        <ele>1131.5</ele>
        <time>2018-08-19T12:19:54.000Z</time>
      </trkpt>
      <trkpt lat="45.31929" lon="4.44791">
        <ele>1131.6</ele>
        <time>2018-08-19T12:19:55.000Z</time>
      </trkpt>
      <trkpt lat="45.31929" lon="4.44792">
        <ele>1131.7</ele>
        <time>2018-08-19T12:19:56.000Z</time>
      </trkpt>
      <trkpt lat="45.31929" lon="4.44793">
        <ele>1131.8</ele>
        <time>2018-08-19T12:19:57.000Z</time>
      </trkpt>
      <trkpt lat="45.31929" lon="4.44794">
        <ele>1131.9</ele>
        <time>2018-08-19T12:19:58.000Z</time>
      </trkpt>
      <trkpt lat="45.31929" lon="4.44794">
        <ele>1131.9</ele>
        <time>2018-08-19T12:19:59.000Z</time>
      </trkpt>
      <trkpt lat="45.31929" lon="4.44795">
        <ele>1132</ele>
        <time>2018-08-19T12:20:00.000Z</time>
      </trkpt>
      <trkpt lat="45.31929" lon="4.44796">
        <ele>1132.1</ele>
        <time>2018-08-19T12:20:01.000Z</time>
      </trkpt>
      <trkpt lat="45.31928" lon="4.44798">
        <ele>1132.2</ele>
        <time>2018-08-19T12:20:02.000Z</time>
      </trkpt>
      <trkpt lat="45.31928" lon="4.44799">
        <ele>1132.4</ele>
        <time>2018-08-19T12:20:03.000Z</time>
      </trkpt>
      <trkpt lat="45.31928" lon="4.448">
        <ele>1132.5</ele>
        <time>2018-08-19T12:20:04.000Z</time>
      </trkpt>
      <trkpt lat="45.31928" lon="4.44802">
        <ele>1132.6</ele>
        <time>2018-08-19T12:20:05.000Z</time>
      </trkpt>
      <trkpt lat="45.31928" lon="4.44803">
        <ele>1132.7</ele>
        <time>2018-08-19T12:20:06.000Z</time>
      </trkpt>
      <trkpt lat="45.31928" lon="4.44804">
        <ele>1132.8</ele>
        <time>2018-08-19T12:20:07.000Z</time>
      </trkpt>
      <trkpt lat="45.31928" lon="4.44805">
        <ele>1133</ele>
        <time>2018-08-19T12:20:08.000Z</time>
      </trkpt>
      <trkpt lat="45.31928" lon="4.44807">
        <ele>1133.1</ele>
        <time>2018-08-19T12:20:09.000Z</time>
      </trkpt>
      <trkpt lat="45.31928" lon="4.44808">
        <ele>1133.2</ele>
        <time>2018-08-19T12:20:10.000Z</time>
      </trkpt>
      <trkpt lat="45.31927" lon="4.44809">
        <ele>1133.3</ele>
        <time>2018-08-19T12:20:11.000Z</time>
      </trkpt>
      <trkpt lat="45.31927" lon="4.4481">
        <ele>1133.4</ele>
        <time>2018-08-19T12:20:12.000Z</time>
      </trkpt>
      <trkpt lat="45.31927" lon="4.44812">
        <ele>1133.5</ele>
        <time>2018-08-19T12:20:13.000Z</time>
      </trkpt>
      <trkpt lat="45.31927" lon="4.44813">
        <ele>1133.6</ele>
        <time>2018-08-19T12:20:14.000Z</time>
      </trkpt>
      <trkpt lat="45.31926" lon="4.44814">
        <ele>1133.8</ele>
        <time>2018-08-19T12:20:15.000Z</time>
      </trkpt>
      <trkpt lat="45.31926" lon="4.44816">
        <ele>1133.9</ele>
        <time>2018-08-19T12:20:16.000Z</time>
      </trkpt>
      <trkpt lat="45.31926" lon="4.44817">
        <ele>1134.1</ele>
        <time>2018-08-19T12:20:17.000Z</time>
      </trkpt>
      <trkpt lat="45.31925" lon="4.44819">
        <ele>1134.2</ele>
        <time>2018-08-19T12:20:18.000Z</time>
      </trkpt>
      <trkpt lat="45.31925" lon="4.4482">
        <ele>1134.4</ele>
        <time>2018-08-19T12:20:19.000Z</time>
      </trkpt>
      <trkpt lat="45.31925" lon="4.44822">
        <ele>1134.5</ele>
        <time>2018-08-19T12:20:20.000Z</time>
      </trkpt>
      <trkpt lat="45.31924" lon="4.44823">
        <ele>1134.7</ele>
        <time>2018-08-19T12:20:21.000Z</time>
      </trkpt>
      <trkpt lat="45.31924" lon="4.44824">
        <ele>1134.8</ele>
        <time>2018-08-19T12:20:22.000Z</time>
      </trkpt>
      <trkpt lat="45.31924" lon="4.44825">
        <ele>1134.9</ele>
        <time>2018-08-19T12:20:23.000Z</time>
      </trkpt>
      <trkpt lat="45.31924" lon="4.44826">
        <ele>1135</ele>
        <time>2018-08-19T12:20:24.000Z</time>
      </trkpt>
      <trkpt lat="45.31923" lon="4.44827">
        <ele>1135</ele>
        <time>2018-08-19T12:20:25.000Z</time>
      </trkpt>
      <trkpt lat="45.31923" lon="4.44827">
        <ele>1135.1</ele>
        <time>2018-08-19T12:20:26.000Z</time>
      </trkpt>
      <trkpt lat="45.31923" lon="4.44828">
        <ele>1135.2</ele>
        <time>2018-08-19T12:20:27.000Z</time>
      </trkpt>
      <trkpt lat="45.31923" lon="4.4483">
        <ele>1135.3</ele>
        <time>2018-08-19T12:20:28.000Z</time>
      </trkpt>
      <trkpt lat="45.31923" lon="4.44831">
        <ele>1135.4</ele>
        <time>2018-08-19T12:20:29.000Z</time>
      </trkpt>
      <trkpt lat="45.31923" lon="4.44832">
        <ele>1135.5</ele>
        <time>2018-08-19T12:20:30.000Z</time>
      </trkpt>
      <trkpt lat="45.31923" lon="4.44834">
        <ele>1135.6</ele>
        <time>2018-08-19T12:20:31.000Z</time>
      </trkpt>
      <trkpt lat="45.31923" lon="4.44835">
        <ele>1135.7</ele>
        <time>2018-08-19T12:20:32.000Z</time>
      </trkpt>
      <trkpt lat="45.31922" lon="4.44836">
        <ele>1135.8</ele>
        <time>2018-08-19T12:20:33.000Z</time>
      </trkpt>
      <trkpt lat="45.31922" lon="4.44837">
        <ele>1135.8</ele>
        <time>2018-08-19T12:20:34.000Z</time>
      </trkpt>
      <trkpt lat="45.31922" lon="4.44838">
        <ele>1135.9</ele>
        <time>2018-08-19T12:20:35.000Z</time>
      </trkpt>
      <trkpt lat="45.31921" lon="4.4484">
        <ele>1136</ele>
        <time>2018-08-19T12:20:36.000Z</time>
      </trkpt>
      <trkpt lat="45.31921" lon="4.44841">
        <ele>1136</ele>
        <time>2018-08-19T12:20:37.000Z</time>
      </trkpt>
      <trkpt lat="45.3192" lon="4.44842">
        <ele>1136.1</ele>
        <time>2018-08-19T12:20:38.000Z</time>
      </trkpt>
      <trkpt lat="45.31919" lon="4.44844">
        <ele>1136.2</ele>
        <time>2018-08-19T12:20:39.000Z</time>
      </trkpt>
      <trkpt lat="45.31919" lon="4.44845">
        <ele>1136.3</ele>
        <time>2018-08-19T12:20:40.000Z</time>
      </trkpt>
      <trkpt lat="45.31918" lon="4.44846">
        <ele>1136.3</ele>
        <time>2018-08-19T12:20:41.000Z</time>
      </trkpt>
      <trkpt lat="45.31918" lon="4.44847">
        <ele>1136.4</ele>
        <time>2018-08-19T12:20:42.000Z</time>
      </trkpt>
      <trkpt lat="45.31918" lon="4.44848">
        <ele>1136.5</ele>
        <time>2018-08-19T12:20:43.000Z</time>
      </trkpt>
      <trkpt lat="45.31917" lon="4.44848">
        <ele>1136.5</ele>
        <time>2018-08-19T12:20:44.000Z</time>
      </trkpt>
      <trkpt lat="45.31917" lon="4.44849">
        <ele>1136.5</ele>
        <time>2018-08-19T12:20:45.000Z</time>
      </trkpt>
      <trkpt lat="45.31917" lon="4.44849">
        <ele>1136.5</ele>
        <time>2018-08-19T12:20:46.000Z</time>
      </trkpt>
      <trkpt lat="45.31917" lon="4.44849">
        <ele>1136.6</ele>
        <time>2018-08-19T12:20:47.000Z</time>
      </trkpt>
      <trkpt lat="45.31917" lon="4.4485">
        <ele>1136.6</ele>
        <time>2018-08-19T12:20:48.000Z</time>
      </trkpt>
      <trkpt lat="45.31917" lon="4.4485">
        <ele>1136.6</ele>
        <time>2018-08-19T12:20:49.000Z</time>
      </trkpt>
      <trkpt lat="45.31917" lon="4.4485">
        <ele>1136.6</ele>
        <time>2018-08-19T12:20:50.000Z</time>
      </trkpt>
      <trkpt lat="45.31917" lon="4.4485">
        <ele>1136.6</ele>
        <time>2018-08-19T12:20:51.000Z</time>
      </trkpt>
      <trkpt lat="45.31917" lon="4.4485">
        <ele>1136.6</ele>
        <time>2018-08-19T12:20:52.000Z</time>
      </trkpt>
      <trkpt lat="45.31917" lon="4.4485">
        <ele>1136.6</ele>
        <time>2018-08-19T12:20:53.000Z</time>
      </trkpt>
      <trkpt lat="45.31917" lon="4.4485">
        <ele>1136.6</ele>
        <time>2018-08-19T12:20:54.000Z</time>
      </trkpt>
      <trkpt lat="45.31917" lon="4.4485">
        <ele>1136.6</ele>
        <time>2018-08-19T12:20:55.000Z</time>
      </trkpt>
      <trkpt lat="45.31917" lon="4.44851">
        <ele>1136.6</ele>
        <time>2018-08-19T12:20:56.000Z</time>
      </trkpt>
      <trkpt lat="45.31917" lon="4.44851">
        <ele>1136.6</ele>
        <time>2018-08-19T12:20:57.000Z</time>
      </trkpt>
      <trkpt lat="45.31917" lon="4.44851">
        <ele>1136.6</ele>
        <time>2018-08-19T12:20:58.000Z</time>
      </trkpt>
      <trkpt lat="45.31917" lon="4.44851">
        <ele>1136.6</ele>
        <time>2018-08-19T12:20:59.000Z</time>
      </trkpt>
      <trkpt lat="45.31917" lon="4.44852">
        <ele>1136.6</ele>
        <time>2018-08-19T12:21:00.000Z</time>
      </trkpt>
      <trkpt lat="45.31917" lon="4.44852">
        <ele>1136.6</ele>
        <time>2018-08-19T12:21:01.000Z</time>
      </trkpt>
      <trkpt lat="45.31917" lon="4.44852">
        <ele>1136.7</ele>
        <time>2018-08-19T12:21:02.000Z</time>
      </trkpt>
      <trkpt lat="45.31917" lon="4.44853">
        <ele>1136.7</ele>
        <time>2018-08-19T12:21:03.000Z</time>
      </trkpt>
      <trkpt lat="45.31917" lon="4.44855">
        <ele>1136.8</ele>
        <time>2018-08-19T12:21:04.000Z</time>
      </trkpt>
      <trkpt lat="45.31916" lon="4.44857">
        <ele>1136.9</ele>
        <time>2018-08-19T12:21:05.000Z</time>
      </trkpt>
      <trkpt lat="45.31916" lon="4.44859">
        <ele>1137</ele>
        <time>2018-08-19T12:21:06.000Z</time>
      </trkpt>
      <trkpt lat="45.31915" lon="4.4486">
        <ele>1137</ele>
        <time>2018-08-19T12:21:07.000Z</time>
      </trkpt>
      <trkpt lat="45.31915" lon="4.44861">
        <ele>1137.1</ele>
        <time>2018-08-19T12:21:08.000Z</time>
      </trkpt>
      <trkpt lat="45.31914" lon="4.44862">
        <ele>1137.2</ele>
        <time>2018-08-19T12:21:09.000Z</time>
      </trkpt>
      <trkpt lat="45.31914" lon="4.44863">
        <ele>1137.3</ele>
        <time>2018-08-19T12:21:10.000Z</time>
      </trkpt>
      <trkpt lat="45.31914" lon="4.44864">
        <ele>1137.3</ele>
        <time>2018-08-19T12:21:11.000Z</time>
      </trkpt>
      <trkpt lat="45.31913" lon="4.44865">
        <ele>1137.4</ele>
        <time>2018-08-19T12:21:12.000Z</time>
      </trkpt>
      <trkpt lat="45.31913" lon="4.44866">
        <ele>1137.5</ele>
        <time>2018-08-19T12:21:13.000Z</time>
      </trkpt>
      <trkpt lat="45.31912" lon="4.44867">
        <ele>1137.5</ele>
        <time>2018-08-19T12:21:14.000Z</time>
      </trkpt>
      <trkpt lat="45.31912" lon="4.44868">
        <ele>1137.6</ele>
        <time>2018-08-19T12:21:15.000Z</time>
      </trkpt>
      <trkpt lat="45.31911" lon="4.44868">
        <ele>1137.7</ele>
        <time>2018-08-19T12:21:16.000Z</time>
      </trkpt>
      <trkpt lat="45.31911" lon="4.44869">
        <ele>1137.8</ele>
        <time>2018-08-19T12:21:17.000Z</time>
      </trkpt>
      <trkpt lat="45.3191" lon="4.4487">
        <ele>1137.8</ele>
        <time>2018-08-19T12:21:18.000Z</time>
      </trkpt>
      <trkpt lat="45.31909" lon="4.44871">
        <ele>1137.9</ele>
        <time>2018-08-19T12:21:19.000Z</time>
      </trkpt>
      <trkpt lat="45.31908" lon="4.44872">
        <ele>1138</ele>
        <time>2018-08-19T12:21:20.000Z</time>
      </trkpt>
      <trkpt lat="45.31908" lon="4.44873">
        <ele>1138.1</ele>
        <time>2018-08-19T12:21:21.000Z</time>
      </trkpt>
      <trkpt lat="45.31907" lon="4.44874">
        <ele>1138.2</ele>
        <time>2018-08-19T12:21:22.000Z</time>
      </trkpt>
      <trkpt lat="45.31906" lon="4.44875">
        <ele>1138.4</ele>
        <time>2018-08-19T12:21:23.000Z</time>
      </trkpt>
      <trkpt lat="45.31905" lon="4.44876">
        <ele>1138.5</ele>
        <time>2018-08-19T12:21:24.000Z</time>
      </trkpt>
      <trkpt lat="45.31904" lon="4.44877">
        <ele>1138.6</ele>
        <time>2018-08-19T12:21:25.000Z</time>
      </trkpt>
      <trkpt lat="45.31903" lon="4.44878">
        <ele>1138.7</ele>
        <time>2018-08-19T12:21:26.000Z</time>
      </trkpt>
      <trkpt lat="45.31902" lon="4.44879">
        <ele>1138.8</ele>
        <time>2018-08-19T12:21:27.000Z</time>
      </trkpt>
      <trkpt lat="45.31901" lon="4.4488">
        <ele>1138.9</ele>
        <time>2018-08-19T12:21:28.000Z</time>
      </trkpt>
      <trkpt lat="45.31901" lon="4.44881">
        <ele>1139</ele>
        <time>2018-08-19T12:21:29.000Z</time>
      </trkpt>
      <trkpt lat="45.319" lon="4.44882">
        <ele>1139.1</ele>
        <time>2018-08-19T12:21:30.000Z</time>
      </trkpt>
      <trkpt lat="45.31899" lon="4.44883">
        <ele>1139.3</ele>
        <time>2018-08-19T12:21:31.000Z</time>
      </trkpt>
      <trkpt lat="45.31898" lon="4.44884">
        <ele>1139.4</ele>
        <time>2018-08-19T12:21:32.000Z</time>
      </trkpt>
      <trkpt lat="45.31897" lon="4.44885">
        <ele>1139.5</ele>
        <time>2018-08-19T12:21:33.000Z</time>
      </trkpt>
      <trkpt lat="45.31896" lon="4.44886">
        <ele>1139.6</ele>
        <time>2018-08-19T12:21:34.000Z</time>
      </trkpt>
      <trkpt lat="45.31895" lon="4.44887">
        <ele>1139.7</ele>
        <time>2018-08-19T12:21:35.000Z</time>
      </trkpt>
      <trkpt lat="45.31894" lon="4.44888">
        <ele>1139.9</ele>
        <time>2018-08-19T12:21:36.000Z</time>
      </trkpt>
      <trkpt lat="45.31893" lon="4.44889">
        <ele>1140</ele>
        <time>2018-08-19T12:21:37.000Z</time>
      </trkpt>
      <trkpt lat="45.31892" lon="4.4489">
        <ele>1140.1</ele>
        <time>2018-08-19T12:21:38.000Z</time>
      </trkpt>
      <trkpt lat="45.31892" lon="4.44891">
        <ele>1140.2</ele>
        <time>2018-08-19T12:21:39.000Z</time>
      </trkpt>
      <trkpt lat="45.31891" lon="4.44893">
        <ele>1140.4</ele>
        <time>2018-08-19T12:21:40.000Z</time>
      </trkpt>
      <trkpt lat="45.3189" lon="4.44894">
        <ele>1140.5</ele>
        <time>2018-08-19T12:21:41.000Z</time>
      </trkpt>
      <trkpt lat="45.31889" lon="4.44895">
        <ele>1140.6</ele>
        <time>2018-08-19T12:21:42.000Z</time>
      </trkpt>
      <trkpt lat="45.31889" lon="4.44896">
        <ele>1140.7</ele>
        <time>2018-08-19T12:21:43.000Z</time>
      </trkpt>
      <trkpt lat="45.31888" lon="4.44896">
        <ele>1140.8</ele>
        <time>2018-08-19T12:21:44.000Z</time>
      </trkpt>
      <trkpt lat="45.31887" lon="4.44897">
        <ele>1140.9</ele>
        <time>2018-08-19T12:21:45.000Z</time>
      </trkpt>
      <trkpt lat="45.31887" lon="4.44898">
        <ele>1140.9</ele>
        <time>2018-08-19T12:21:46.000Z</time>
      </trkpt>
      <trkpt lat="45.31887" lon="4.44898">
        <ele>1141</ele>
        <time>2018-08-19T12:21:47.000Z</time>
      </trkpt>
      <trkpt lat="45.31886" lon="4.44899">
        <ele>1141</ele>
        <time>2018-08-19T12:21:48.000Z</time>
      </trkpt>
      <trkpt lat="45.31886" lon="4.44899">
        <ele>1141.1</ele>
        <time>2018-08-19T12:21:49.000Z</time>
      </trkpt>
      <trkpt lat="45.31886" lon="4.44899">
        <ele>1141.1</ele>
        <time>2018-08-19T12:21:50.000Z</time>
      </trkpt>
      <trkpt lat="45.31885" lon="4.44899">
        <ele>1141.1</ele>
        <time>2018-08-19T12:21:51.000Z</time>
      </trkpt>
      <trkpt lat="45.31885" lon="4.449">
        <ele>1141.2</ele>
        <time>2018-08-19T12:21:52.000Z</time>
      </trkpt>
      <trkpt lat="45.31885" lon="4.449">
        <ele>1141.2</ele>
        <time>2018-08-19T12:21:53.000Z</time>
      </trkpt>
      <trkpt lat="45.31884" lon="4.449">
        <ele>1141.3</ele>
        <time>2018-08-19T12:21:54.000Z</time>
      </trkpt>
      <trkpt lat="45.31883" lon="4.44902">
        <ele>1141.5</ele>
        <time>2018-08-19T12:21:55.000Z</time>
      </trkpt>
      <trkpt lat="45.31882" lon="4.44903">
        <ele>1141.6</ele>
        <time>2018-08-19T12:21:56.000Z</time>
      </trkpt>
      <trkpt lat="45.31881" lon="4.44904">
        <ele>1141.8</ele>
        <time>2018-08-19T12:21:57.000Z</time>
      </trkpt>
      <trkpt lat="45.3188" lon="4.44905">
        <ele>1141.9</ele>
        <time>2018-08-19T12:21:58.000Z</time>
      </trkpt>
      <trkpt lat="45.3188" lon="4.44905">
        <ele>1141.9</ele>
        <time>2018-08-19T12:21:59.000Z</time>
      </trkpt>
      <trkpt lat="45.3188" lon="4.44906">
        <ele>1142</ele>
        <time>2018-08-19T12:22:00.000Z</time>
      </trkpt>
      <trkpt lat="45.3188" lon="4.44906">
        <ele>1142</ele>
        <time>2018-08-19T12:22:01.000Z</time>
      </trkpt>
      <trkpt lat="45.31879" lon="4.44906">
        <ele>1142</ele>
        <time>2018-08-19T12:22:02.000Z</time>
      </trkpt>
      <trkpt lat="45.31879" lon="4.44907">
        <ele>1142.1</ele>
        <time>2018-08-19T12:22:03.000Z</time>
      </trkpt>
      <trkpt lat="45.31878" lon="4.44908">
        <ele>1142.3</ele>
        <time>2018-08-19T12:22:04.000Z</time>
      </trkpt>
      <trkpt lat="45.31876" lon="4.44909">
        <ele>1142.5</ele>
        <time>2018-08-19T12:22:05.000Z</time>
      </trkpt>
      <trkpt lat="45.31875" lon="4.4491">
        <ele>1142.7</ele>
        <time>2018-08-19T12:22:06.000Z</time>
      </trkpt>
      <trkpt lat="45.31874" lon="4.44911">
        <ele>1142.8</ele>
        <time>2018-08-19T12:22:07.000Z</time>
      </trkpt>
      <trkpt lat="45.31873" lon="4.44912">
        <ele>1143</ele>
        <time>2018-08-19T12:22:08.000Z</time>
      </trkpt>
      <trkpt lat="45.31871" lon="4.44913">
        <ele>1143.1</ele>
        <time>2018-08-19T12:22:09.000Z</time>
      </trkpt>
      <trkpt lat="45.3187" lon="4.44913">
        <ele>1143.3</ele>
        <time>2018-08-19T12:22:10.000Z</time>
      </trkpt>
      <trkpt lat="45.3187" lon="4.44914">
        <ele>1143.4</ele>
        <time>2018-08-19T12:22:11.000Z</time>
      </trkpt>
      <trkpt lat="45.31869" lon="4.44915">
        <ele>1143.5</ele>
        <time>2018-08-19T12:22:12.000Z</time>
      </trkpt>
      <trkpt lat="45.31868" lon="4.44915">
        <ele>1143.6</ele>
        <time>2018-08-19T12:22:13.000Z</time>
      </trkpt>
      <trkpt lat="45.31867" lon="4.44916">
        <ele>1143.7</ele>
        <time>2018-08-19T12:22:14.000Z</time>
      </trkpt>
      <trkpt lat="45.31866" lon="4.44916">
        <ele>1143.8</ele>
        <time>2018-08-19T12:22:15.000Z</time>
      </trkpt>
      <trkpt lat="45.31865" lon="4.44917">
        <ele>1144</ele>
        <time>2018-08-19T12:22:16.000Z</time>
      </trkpt>
      <trkpt lat="45.31864" lon="4.44917">
        <ele>1144.1</ele>
        <time>2018-08-19T12:22:17.000Z</time>
      </trkpt>
      <trkpt lat="45.31863" lon="4.44918">
        <ele>1144.1</ele>
        <time>2018-08-19T12:22:18.000Z</time>
      </trkpt>
      <trkpt lat="45.31862" lon="4.44918">
        <ele>1144.2</ele>
        <time>2018-08-19T12:22:19.000Z</time>
      </trkpt>
      <trkpt lat="45.31861" lon="4.44919">
        <ele>1144.3</ele>
        <time>2018-08-19T12:22:20.000Z</time>
      </trkpt>
      <trkpt lat="45.3186" lon="4.4492">
        <ele>1144.4</ele>
        <time>2018-08-19T12:22:21.000Z</time>
      </trkpt>
      <trkpt lat="45.31859" lon="4.4492">
        <ele>1144.5</ele>
        <time>2018-08-19T12:22:22.000Z</time>
      </trkpt>
      <trkpt lat="45.31859" lon="4.44921">
        <ele>1144.6</ele>
        <time>2018-08-19T12:22:23.000Z</time>
      </trkpt>
      <trkpt lat="45.31858" lon="4.44922">
        <ele>1144.7</ele>
        <time>2018-08-19T12:22:24.000Z</time>
      </trkpt>
      <trkpt lat="45.31857" lon="4.44923">
        <ele>1144.7</ele>
        <time>2018-08-19T12:22:25.000Z</time>
      </trkpt>
      <trkpt lat="45.31856" lon="4.44924">
        <ele>1144.8</ele>
        <time>2018-08-19T12:22:26.000Z</time>
      </trkpt>
      <trkpt lat="45.31856" lon="4.44925">
        <ele>1144.9</ele>
        <time>2018-08-19T12:22:27.000Z</time>
      </trkpt>
      <trkpt lat="45.31855" lon="4.44925">
        <ele>1144.9</ele>
        <time>2018-08-19T12:22:28.000Z</time>
      </trkpt>
      <trkpt lat="45.31854" lon="4.44926">
        <ele>1145</ele>
        <time>2018-08-19T12:22:29.000Z</time>
      </trkpt>
      <trkpt lat="45.31853" lon="4.44927">
        <ele>1145.1</ele>
        <time>2018-08-19T12:22:30.000Z</time>
      </trkpt>
      <trkpt lat="45.31853" lon="4.44928">
        <ele>1145.2</ele>
        <time>2018-08-19T12:22:31.000Z</time>
      </trkpt>
      <trkpt lat="45.31852" lon="4.44929">
        <ele>1145.3</ele>
        <time>2018-08-19T12:22:32.000Z</time>
      </trkpt>
      <trkpt lat="45.31851" lon="4.4493">
        <ele>1145.3</ele>
        <time>2018-08-19T12:22:33.000Z</time>
      </trkpt>
      <trkpt lat="45.3185" lon="4.4493">
        <ele>1145.4</ele>
        <time>2018-08-19T12:22:34.000Z</time>
      </trkpt>
      <trkpt lat="45.31849" lon="4.44931">
        <ele>1145.5</ele>
        <time>2018-08-19T12:22:35.000Z</time>
      </trkpt>
      <trkpt lat="45.31849" lon="4.44931">
        <ele>1145.6</ele>
        <time>2018-08-19T12:22:36.000Z</time>
      </trkpt>
      <trkpt lat="45.31848" lon="4.44932">
        <ele>1145.7</ele>
        <time>2018-08-19T12:22:37.000Z</time>
      </trkpt>
      <trkpt lat="45.31847" lon="4.44932">
        <ele>1145.8</ele>
        <time>2018-08-19T12:22:38.000Z</time>
      </trkpt>
      <trkpt lat="45.31846" lon="4.44933">
        <ele>1145.9</ele>
        <time>2018-08-19T12:22:39.000Z</time>
      </trkpt>
      <trkpt lat="45.31845" lon="4.44934">
        <ele>1146</ele>
        <time>2018-08-19T12:22:40.000Z</time>
      </trkpt>
      <trkpt lat="45.31844" lon="4.44934">
        <ele>1146</ele>
        <time>2018-08-19T12:22:41.000Z</time>
      </trkpt>
      <trkpt lat="45.31844" lon="4.44935">
        <ele>1146.1</ele>
        <time>2018-08-19T12:22:42.000Z</time>
      </trkpt>
      <trkpt lat="45.31843" lon="4.44936">
        <ele>1146.2</ele>
        <time>2018-08-19T12:22:43.000Z</time>
      </trkpt>
      <trkpt lat="45.31842" lon="4.44936">
        <ele>1146.3</ele>
        <time>2018-08-19T12:22:44.000Z</time>
      </trkpt>
      <trkpt lat="45.31842" lon="4.44937">
        <ele>1146.3</ele>
        <time>2018-08-19T12:22:45.000Z</time>
      </trkpt>
      <trkpt lat="45.31842" lon="4.44937">
        <ele>1146.4</ele>
        <time>2018-08-19T12:22:46.000Z</time>
      </trkpt>
      <trkpt lat="45.31841" lon="4.44939">
        <ele>1146.4</ele>
        <time>2018-08-19T12:22:47.000Z</time>
      </trkpt>
      <trkpt lat="45.3184" lon="4.4494">
        <ele>1146.5</ele>
        <time>2018-08-19T12:22:48.000Z</time>
      </trkpt>
      <trkpt lat="45.31839" lon="4.44942">
        <ele>1146.7</ele>
        <time>2018-08-19T12:22:49.000Z</time>
      </trkpt>
      <trkpt lat="45.31838" lon="4.44943">
        <ele>1146.8</ele>
        <time>2018-08-19T12:22:50.000Z</time>
      </trkpt>
      <trkpt lat="45.31837" lon="4.44944">
        <ele>1146.9</ele>
        <time>2018-08-19T12:22:51.000Z</time>
      </trkpt>
      <trkpt lat="45.31836" lon="4.44946">
        <ele>1147</ele>
        <time>2018-08-19T12:22:52.000Z</time>
      </trkpt>
      <trkpt lat="45.31835" lon="4.44947">
        <ele>1147.1</ele>
        <time>2018-08-19T12:22:53.000Z</time>
      </trkpt>
      <trkpt lat="45.31834" lon="4.44948">
        <ele>1147.3</ele>
        <time>2018-08-19T12:22:54.000Z</time>
      </trkpt>
      <trkpt lat="45.31833" lon="4.44949">
        <ele>1147.4</ele>
        <time>2018-08-19T12:22:55.000Z</time>
      </trkpt>
      <trkpt lat="45.31833" lon="4.4495">
        <ele>1147.4</ele>
        <time>2018-08-19T12:22:56.000Z</time>
      </trkpt>
      <trkpt lat="45.31832" lon="4.44951">
        <ele>1147.5</ele>
        <time>2018-08-19T12:22:57.000Z</time>
      </trkpt>
      <trkpt lat="45.31831" lon="4.44952">
        <ele>1147.6</ele>
        <time>2018-08-19T12:22:58.000Z</time>
      </trkpt>
      <trkpt lat="45.3183" lon="4.44953">
        <ele>1147.6</ele>
        <time>2018-08-19T12:22:59.000Z</time>
      </trkpt>
      <trkpt lat="45.31829" lon="4.44954">
        <ele>1147.7</ele>
        <time>2018-08-19T12:23:00.000Z</time>
      </trkpt>
      <trkpt lat="45.31828" lon="4.44955">
        <ele>1147.7</ele>
        <time>2018-08-19T12:23:01.000Z</time>
      </trkpt>
      <trkpt lat="45.31827" lon="4.44956">
        <ele>1147.8</ele>
        <time>2018-08-19T12:23:02.000Z</time>
      </trkpt>
      <trkpt lat="45.31826" lon="4.44957">
        <ele>1147.8</ele>
        <time>2018-08-19T12:23:03.000Z</time>
      </trkpt>
      <trkpt lat="45.31825" lon="4.44957">
        <ele>1147.9</ele>
        <time>2018-08-19T12:23:04.000Z</time>
      </trkpt>
      <trkpt lat="45.31824" lon="4.44958">
        <ele>1147.9</ele>
        <time>2018-08-19T12:23:05.000Z</time>
      </trkpt>
      <trkpt lat="45.31823" lon="4.44959">
        <ele>1148</ele>
        <time>2018-08-19T12:23:06.000Z</time>
      </trkpt>
      <trkpt lat="45.31822" lon="4.4496">
        <ele>1148</ele>
        <time>2018-08-19T12:23:07.000Z</time>
      </trkpt>
      <trkpt lat="45.31821" lon="4.4496">
        <ele>1148.1</ele>
        <time>2018-08-19T12:23:08.000Z</time>
      </trkpt>
      <trkpt lat="45.3182" lon="4.44961">
        <ele>1148.2</ele>
        <time>2018-08-19T12:23:09.000Z</time>
      </trkpt>
      <trkpt lat="45.31819" lon="4.44962">
        <ele>1148.2</ele>
        <time>2018-08-19T12:23:10.000Z</time>
      </trkpt>
      <trkpt lat="45.31818" lon="4.44963">
        <ele>1148.3</ele>
        <time>2018-08-19T12:23:11.000Z</time>
      </trkpt>
      <trkpt lat="45.31817" lon="4.44964">
        <ele>1148.3</ele>
        <time>2018-08-19T12:23:12.000Z</time>
      </trkpt>
      <trkpt lat="45.31816" lon="4.44964">
        <ele>1148.4</ele>
        <time>2018-08-19T12:23:13.000Z</time>
      </trkpt>
      <trkpt lat="45.31815" lon="4.44965">
        <ele>1148.4</ele>
        <time>2018-08-19T12:23:14.000Z</time>
      </trkpt>
      <trkpt lat="45.31814" lon="4.44966">
        <ele>1148.5</ele>
        <time>2018-08-19T12:23:15.000Z</time>
      </trkpt>
      <trkpt lat="45.31813" lon="4.44967">
        <ele>1148.6</ele>
        <time>2018-08-19T12:23:16.000Z</time>
      </trkpt>
      <trkpt lat="45.31812" lon="4.44968">
        <ele>1148.6</ele>
        <time>2018-08-19T12:23:17.000Z</time>
      </trkpt>
      <trkpt lat="45.3181" lon="4.44969">
        <ele>1148.7</ele>
        <time>2018-08-19T12:23:18.000Z</time>
      </trkpt>
      <trkpt lat="45.31809" lon="4.44969">
        <ele>1148.7</ele>
        <time>2018-08-19T12:23:19.000Z</time>
      </trkpt>
      <trkpt lat="45.31809" lon="4.4497">
        <ele>1148.8</ele>
        <time>2018-08-19T12:23:20.000Z</time>
      </trkpt>
      <trkpt lat="45.31808" lon="4.44971">
        <ele>1148.8</ele>
        <time>2018-08-19T12:23:21.000Z</time>
      </trkpt>
      <trkpt lat="45.31807" lon="4.44973">
        <ele>1148.8</ele>
        <time>2018-08-19T12:23:22.000Z</time>
      </trkpt>
      <trkpt lat="45.31806" lon="4.44974">
        <ele>1148.9</ele>
        <time>2018-08-19T12:23:23.000Z</time>
      </trkpt>
      <trkpt lat="45.31805" lon="4.44975">
        <ele>1148.9</ele>
        <time>2018-08-19T12:23:24.000Z</time>
      </trkpt>
      <trkpt lat="45.31804" lon="4.44976">
        <ele>1149</ele>
        <time>2018-08-19T12:23:25.000Z</time>
      </trkpt>
      <trkpt lat="45.31803" lon="4.44977">
        <ele>1149</ele>
        <time>2018-08-19T12:23:26.000Z</time>
      </trkpt>
      <trkpt lat="45.31802" lon="4.44978">
        <ele>1149</ele>
        <time>2018-08-19T12:23:27.000Z</time>
      </trkpt>
      <trkpt lat="45.31801" lon="4.44979">
        <ele>1149.1</ele>
        <time>2018-08-19T12:23:28.000Z</time>
      </trkpt>
      <trkpt lat="45.318" lon="4.4498">
        <ele>1149.1</ele>
        <time>2018-08-19T12:23:29.000Z</time>
      </trkpt>
      <trkpt lat="45.318" lon="4.44981">
        <ele>1149.2</ele>
        <time>2018-08-19T12:23:30.000Z</time>
      </trkpt>
      <trkpt lat="45.31799" lon="4.44982">
        <ele>1149.2</ele>
        <time>2018-08-19T12:23:31.000Z</time>
      </trkpt>
      <trkpt lat="45.31798" lon="4.44982">
        <ele>1149.3</ele>
        <time>2018-08-19T12:23:32.000Z</time>
      </trkpt>
      <trkpt lat="45.31797" lon="4.44983">
        <ele>1149.3</ele>
        <time>2018-08-19T12:23:33.000Z</time>
      </trkpt>
      <trkpt lat="45.31796" lon="4.44984">
        <ele>1149.3</ele>
        <time>2018-08-19T12:23:34.000Z</time>
      </trkpt>
      <trkpt lat="45.31795" lon="4.44985">
        <ele>1149.4</ele>
        <time>2018-08-19T12:23:35.000Z</time>
      </trkpt>
      <trkpt lat="45.31794" lon="4.44986">
        <ele>1149.4</ele>
        <time>2018-08-19T12:23:36.000Z</time>
      </trkpt>
      <trkpt lat="45.31793" lon="4.44987">
        <ele>1149.5</ele>
        <time>2018-08-19T12:23:37.000Z</time>
      </trkpt>
      <trkpt lat="45.31792" lon="4.44988">
        <ele>1149.5</ele>
        <time>2018-08-19T12:23:38.000Z</time>
      </trkpt>
      <trkpt lat="45.31791" lon="4.44989">
        <ele>1149.5</ele>
        <time>2018-08-19T12:23:39.000Z</time>
      </trkpt>
      <trkpt lat="45.3179" lon="4.4499">
        <ele>1149.6</ele>
        <time>2018-08-19T12:23:40.000Z</time>
      </trkpt>
      <trkpt lat="45.31789" lon="4.44991">
        <ele>1149.6</ele>
        <time>2018-08-19T12:23:41.000Z</time>
      </trkpt>
      <trkpt lat="45.31788" lon="4.44992">
        <ele>1149.6</ele>
        <time>2018-08-19T12:23:42.000Z</time>
      </trkpt>
      <trkpt lat="45.31787" lon="4.44993">
        <ele>1149.7</ele>
        <time>2018-08-19T12:23:43.000Z</time>
      </trkpt>
      <trkpt lat="45.31787" lon="4.44994">
        <ele>1149.7</ele>
        <time>2018-08-19T12:23:44.000Z</time>
      </trkpt>
      <trkpt lat="45.31786" lon="4.44995">
        <ele>1149.7</ele>
        <time>2018-08-19T12:23:45.000Z</time>
      </trkpt>
      <trkpt lat="45.31785" lon="4.44995">
        <ele>1149.8</ele>
        <time>2018-08-19T12:23:46.000Z</time>
      </trkpt>
      <trkpt lat="45.31784" lon="4.44996">
        <ele>1149.8</ele>
        <time>2018-08-19T12:23:47.000Z</time>
      </trkpt>
      <trkpt lat="45.31783" lon="4.44997">
        <ele>1149.8</ele>
        <time>2018-08-19T12:23:48.000Z</time>
      </trkpt>
      <trkpt lat="45.31782" lon="4.44998">
        <ele>1149.9</ele>
        <time>2018-08-19T12:23:49.000Z</time>
      </trkpt>
      <trkpt lat="45.31781" lon="4.44998">
        <ele>1149.9</ele>
        <time>2018-08-19T12:23:50.000Z</time>
      </trkpt>
      <trkpt lat="45.3178" lon="4.44999">
        <ele>1149.9</ele>
        <time>2018-08-19T12:23:51.000Z</time>
      </trkpt>
      <trkpt lat="45.31779" lon="4.44999">
        <ele>1150</ele>
        <time>2018-08-19T12:23:52.000Z</time>
      </trkpt>
      <trkpt lat="45.31778" lon="4.45">
        <ele>1150</ele>
        <time>2018-08-19T12:23:53.000Z</time>
      </trkpt>
      <trkpt lat="45.31777" lon="4.45">
        <ele>1150</ele>
        <time>2018-08-19T12:23:54.000Z</time>
      </trkpt>
      <trkpt lat="45.31776" lon="4.45001">
        <ele>1150</ele>
        <time>2018-08-19T12:23:55.000Z</time>
      </trkpt>
      <trkpt lat="45.31775" lon="4.45001">
        <ele>1150.1</ele>
        <time>2018-08-19T12:23:56.000Z</time>
      </trkpt>
      <trkpt lat="45.31774" lon="4.45001">
        <ele>1150.1</ele>
        <time>2018-08-19T12:23:57.000Z</time>
      </trkpt>
      <trkpt lat="45.31773" lon="4.45001">
        <ele>1150.1</ele>
        <time>2018-08-19T12:23:58.000Z</time>
      </trkpt>
      <trkpt lat="45.31772" lon="4.45002">
        <ele>1150.1</ele>
        <time>2018-08-19T12:23:59.000Z</time>
      </trkpt>
      <trkpt lat="45.31771" lon="4.45002">
        <ele>1150.1</ele>
        <time>2018-08-19T12:24:00.000Z</time>
      </trkpt>
      <trkpt lat="45.3177" lon="4.45003">
        <ele>1150.1</ele>
        <time>2018-08-19T12:24:01.000Z</time>
      </trkpt>
      <trkpt lat="45.31769" lon="4.45004">
        <ele>1150.1</ele>
        <time>2018-08-19T12:24:02.000Z</time>
      </trkpt>
      <trkpt lat="45.31768" lon="4.45005">
        <ele>1150.1</ele>
        <time>2018-08-19T12:24:03.000Z</time>
      </trkpt>
      <trkpt lat="45.31767" lon="4.45005">
        <ele>1150.1</ele>
        <time>2018-08-19T12:24:04.000Z</time>
      </trkpt>
      <trkpt lat="45.31766" lon="4.45006">
        <ele>1150.1</ele>
        <time>2018-08-19T12:24:05.000Z</time>
      </trkpt>
      <trkpt lat="45.31765" lon="4.45007">
        <ele>1150.1</ele>
        <time>2018-08-19T12:24:06.000Z</time>
      </trkpt>
      <trkpt lat="45.31764" lon="4.45009">
        <ele>1150.1</ele>
        <time>2018-08-19T12:24:07.000Z</time>
      </trkpt>
      <trkpt lat="45.31763" lon="4.4501">
        <ele>1150</ele>
        <time>2018-08-19T12:24:08.000Z</time>
      </trkpt>
      <trkpt lat="45.31762" lon="4.45011">
        <ele>1150</ele>
        <time>2018-08-19T12:24:09.000Z</time>
      </trkpt>
      <trkpt lat="45.31761" lon="4.45012">
        <ele>1150</ele>
        <time>2018-08-19T12:24:10.000Z</time>
      </trkpt>
      <trkpt lat="45.3176" lon="4.45013">
        <ele>1150</ele>
        <time>2018-08-19T12:24:11.000Z</time>
      </trkpt>
      <trkpt lat="45.3176" lon="4.45015">
        <ele>1150</ele>
        <time>2018-08-19T12:24:12.000Z</time>
      </trkpt>
      <trkpt lat="45.31759" lon="4.45016">
        <ele>1150</ele>
        <time>2018-08-19T12:24:13.000Z</time>
      </trkpt>
      <trkpt lat="45.31758" lon="4.45017">
        <ele>1150</ele>
        <time>2018-08-19T12:24:14.000Z</time>
      </trkpt>
      <trkpt lat="45.31757" lon="4.45019">
        <ele>1150</ele>
        <time>2018-08-19T12:24:15.000Z</time>
      </trkpt>
      <trkpt lat="45.31756" lon="4.4502">
        <ele>1150</ele>
        <time>2018-08-19T12:24:16.000Z</time>
      </trkpt>
      <trkpt lat="45.31755" lon="4.45021">
        <ele>1150</ele>
        <time>2018-08-19T12:24:17.000Z</time>
      </trkpt>
      <trkpt lat="45.31754" lon="4.45023">
        <ele>1150</ele>
        <time>2018-08-19T12:24:18.000Z</time>
      </trkpt>
      <trkpt lat="45.31753" lon="4.45024">
        <ele>1150</ele>
        <time>2018-08-19T12:24:19.000Z</time>
      </trkpt>
      <trkpt lat="45.31752" lon="4.45025">
        <ele>1150</ele>
        <time>2018-08-19T12:24:20.000Z</time>
      </trkpt>
      <trkpt lat="45.31751" lon="4.45026">
        <ele>1150</ele>
        <time>2018-08-19T12:24:21.000Z</time>
      </trkpt>
      <trkpt lat="45.3175" lon="4.45028">
        <ele>1150</ele>
        <time>2018-08-19T12:24:22.000Z</time>
      </trkpt>
      <trkpt lat="45.31749" lon="4.45029">
        <ele>1150.1</ele>
        <time>2018-08-19T12:24:23.000Z</time>
      </trkpt>
      <trkpt lat="45.31748" lon="4.4503">
        <ele>1150.2</ele>
        <time>2018-08-19T12:24:24.000Z</time>
      </trkpt>
      <trkpt lat="45.31747" lon="4.45031">
        <ele>1150.3</ele>
        <time>2018-08-19T12:24:25.000Z</time>
      </trkpt>
      <trkpt lat="45.31746" lon="4.45033">
        <ele>1150.4</ele>
        <time>2018-08-19T12:24:26.000Z</time>
      </trkpt>
      <trkpt lat="45.31745" lon="4.45034">
        <ele>1150.4</ele>
        <time>2018-08-19T12:24:27.000Z</time>
      </trkpt>
      <trkpt lat="45.31745" lon="4.45035">
        <ele>1150.5</ele>
        <time>2018-08-19T12:24:28.000Z</time>
      </trkpt>
      <trkpt lat="45.31744" lon="4.45036">
        <ele>1150.6</ele>
        <time>2018-08-19T12:24:29.000Z</time>
      </trkpt>
      <trkpt lat="45.31743" lon="4.45037">
        <ele>1150.7</ele>
        <time>2018-08-19T12:24:30.000Z</time>
      </trkpt>
      <trkpt lat="45.31742" lon="4.45038">
        <ele>1150.7</ele>
        <time>2018-08-19T12:24:31.000Z</time>
      </trkpt>
      <trkpt lat="45.31741" lon="4.45039">
        <ele>1150.8</ele>
        <time>2018-08-19T12:24:32.000Z</time>
      </trkpt>
      <trkpt lat="45.31741" lon="4.4504">
        <ele>1150.9</ele>
        <time>2018-08-19T12:24:33.000Z</time>
      </trkpt>
      <trkpt lat="45.3174" lon="4.45041">
        <ele>1150.9</ele>
        <time>2018-08-19T12:24:34.000Z</time>
      </trkpt>
      <trkpt lat="45.31739" lon="4.45042">
        <ele>1151</ele>
        <time>2018-08-19T12:24:35.000Z</time>
      </trkpt>
      <trkpt lat="45.31739" lon="4.45043">
        <ele>1151</ele>
        <time>2018-08-19T12:24:36.000Z</time>
      </trkpt>
      <trkpt lat="45.31738" lon="4.45044">
        <ele>1151.1</ele>
        <time>2018-08-19T12:24:37.000Z</time>
      </trkpt>
      <trkpt lat="45.31737" lon="4.45045">
        <ele>1151.2</ele>
        <time>2018-08-19T12:24:38.000Z</time>
      </trkpt>
      <trkpt lat="45.31736" lon="4.45046">
        <ele>1151.2</ele>
        <time>2018-08-19T12:24:39.000Z</time>
      </trkpt>
      <trkpt lat="45.31736" lon="4.45047">
        <ele>1151.3</ele>
        <time>2018-08-19T12:24:40.000Z</time>
      </trkpt>
      <trkpt lat="45.31735" lon="4.45048">
        <ele>1151.3</ele>
        <time>2018-08-19T12:24:41.000Z</time>
      </trkpt>
      <trkpt lat="45.31734" lon="4.45049">
        <ele>1151.4</ele>
        <time>2018-08-19T12:24:42.000Z</time>
      </trkpt>
      <trkpt lat="45.31734" lon="4.4505">
        <ele>1151.4</ele>
        <time>2018-08-19T12:24:43.000Z</time>
      </trkpt>
      <trkpt lat="45.31733" lon="4.45051">
        <ele>1151.5</ele>
        <time>2018-08-19T12:24:44.000Z</time>
      </trkpt>
      <trkpt lat="45.31732" lon="4.45052">
        <ele>1151.6</ele>
        <time>2018-08-19T12:24:45.000Z</time>
      </trkpt>
      <trkpt lat="45.31731" lon="4.45054">
        <ele>1151.6</ele>
        <time>2018-08-19T12:24:46.000Z</time>
      </trkpt>
      <trkpt lat="45.31731" lon="4.45055">
        <ele>1151.7</ele>
        <time>2018-08-19T12:24:47.000Z</time>
      </trkpt>
      <trkpt lat="45.3173" lon="4.45056">
        <ele>1151.7</ele>
        <time>2018-08-19T12:24:48.000Z</time>
      </trkpt>
      <trkpt lat="45.31729" lon="4.45057">
        <ele>1151.8</ele>
        <time>2018-08-19T12:24:49.000Z</time>
      </trkpt>
      <trkpt lat="45.31728" lon="4.45058">
        <ele>1151.8</ele>
        <time>2018-08-19T12:24:50.000Z</time>
      </trkpt>
      <trkpt lat="45.31728" lon="4.45059">
        <ele>1151.9</ele>
        <time>2018-08-19T12:24:51.000Z</time>
      </trkpt>
      <trkpt lat="45.31727" lon="4.4506">
        <ele>1152</ele>
        <time>2018-08-19T12:24:52.000Z</time>
      </trkpt>
      <trkpt lat="45.31726" lon="4.45061">
        <ele>1152</ele>
        <time>2018-08-19T12:24:53.000Z</time>
      </trkpt>
      <trkpt lat="45.31726" lon="4.45062">
        <ele>1152.1</ele>
        <time>2018-08-19T12:24:54.000Z</time>
      </trkpt>
      <trkpt lat="45.31725" lon="4.45063">
        <ele>1152.1</ele>
        <time>2018-08-19T12:24:55.000Z</time>
      </trkpt>
      <trkpt lat="45.31724" lon="4.45064">
        <ele>1152.2</ele>
        <time>2018-08-19T12:24:56.000Z</time>
      </trkpt>
      <trkpt lat="45.31723" lon="4.45065">
        <ele>1152.2</ele>
        <time>2018-08-19T12:24:57.000Z</time>
      </trkpt>
      <trkpt lat="45.31723" lon="4.45066">
        <ele>1152.3</ele>
        <time>2018-08-19T12:24:58.000Z</time>
      </trkpt>
      <trkpt lat="45.31722" lon="4.45067">
        <ele>1152.4</ele>
        <time>2018-08-19T12:24:59.000Z</time>
      </trkpt>
      <trkpt lat="45.31721" lon="4.45068">
        <ele>1152.4</ele>
        <time>2018-08-19T12:25:00.000Z</time>
      </trkpt>
      <trkpt lat="45.31721" lon="4.45068">
        <ele>1152.5</ele>
        <time>2018-08-19T12:25:01.000Z</time>
      </trkpt>
      <trkpt lat="45.3172" lon="4.45069">
        <ele>1152.6</ele>
        <time>2018-08-19T12:25:02.000Z</time>
      </trkpt>
      <trkpt lat="45.31719" lon="4.4507">
        <ele>1152.6</ele>
        <time>2018-08-19T12:25:03.000Z</time>
      </trkpt>
      <trkpt lat="45.31718" lon="4.45071">
        <ele>1152.7</ele>
        <time>2018-08-19T12:25:04.000Z</time>
      </trkpt>
      <trkpt lat="45.31717" lon="4.45072">
        <ele>1152.8</ele>
        <time>2018-08-19T12:25:05.000Z</time>
      </trkpt>
      <trkpt lat="45.31717" lon="4.45073">
        <ele>1152.9</ele>
        <time>2018-08-19T12:25:06.000Z</time>
      </trkpt>
      <trkpt lat="45.31716" lon="4.45073">
        <ele>1152.9</ele>
        <time>2018-08-19T12:25:07.000Z</time>
      </trkpt>
      <trkpt lat="45.31715" lon="4.45074">
        <ele>1153</ele>
        <time>2018-08-19T12:25:08.000Z</time>
      </trkpt>
      <trkpt lat="45.31714" lon="4.45075">
        <ele>1153.1</ele>
        <time>2018-08-19T12:25:09.000Z</time>
      </trkpt>
      <trkpt lat="45.31713" lon="4.45076">
        <ele>1153.2</ele>
        <time>2018-08-19T12:25:10.000Z</time>
      </trkpt>
      <trkpt lat="45.31712" lon="4.45077">
        <ele>1153.3</ele>
        <time>2018-08-19T12:25:11.000Z</time>
      </trkpt>
      <trkpt lat="45.31711" lon="4.45078">
        <ele>1153.4</ele>
        <time>2018-08-19T12:25:12.000Z</time>
      </trkpt>
      <trkpt lat="45.3171" lon="4.45079">
        <ele>1153.5</ele>
        <time>2018-08-19T12:25:13.000Z</time>
      </trkpt>
      <trkpt lat="45.31709" lon="4.4508">
        <ele>1153.6</ele>
        <time>2018-08-19T12:25:14.000Z</time>
      </trkpt>
      <trkpt lat="45.31708" lon="4.45081">
        <ele>1153.7</ele>
        <time>2018-08-19T12:25:15.000Z</time>
      </trkpt>
      <trkpt lat="45.31707" lon="4.45082">
        <ele>1153.7</ele>
        <time>2018-08-19T12:25:16.000Z</time>
      </trkpt>
      <trkpt lat="45.31706" lon="4.45083">
        <ele>1153.8</ele>
        <time>2018-08-19T12:25:17.000Z</time>
      </trkpt>
      <trkpt lat="45.31706" lon="4.45083">
        <ele>1153.8</ele>
        <time>2018-08-19T12:25:18.000Z</time>
      </trkpt>
      <trkpt lat="45.31706" lon="4.45083">
        <ele>1153.9</ele>
        <time>2018-08-19T12:25:19.000Z</time>
      </trkpt>
      <trkpt lat="45.31705" lon="4.45084">
        <ele>1153.9</ele>
        <time>2018-08-19T12:25:20.000Z</time>
      </trkpt>
      <trkpt lat="45.31705" lon="4.45085">
        <ele>1153.9</ele>
        <time>2018-08-19T12:25:21.000Z</time>
      </trkpt>
      <trkpt lat="45.31704" lon="4.45086">
        <ele>1153.9</ele>
        <time>2018-08-19T12:25:22.000Z</time>
      </trkpt>
      <trkpt lat="45.31703" lon="4.45087">
        <ele>1154</ele>
        <time>2018-08-19T12:25:23.000Z</time>
      </trkpt>
      <trkpt lat="45.31702" lon="4.45088">
        <ele>1154</ele>
        <time>2018-08-19T12:25:24.000Z</time>
      </trkpt>
      <trkpt lat="45.31701" lon="4.4509">
        <ele>1154</ele>
        <time>2018-08-19T12:25:25.000Z</time>
      </trkpt>
      <trkpt lat="45.31701" lon="4.45091">
        <ele>1154</ele>
        <time>2018-08-19T12:25:26.000Z</time>
      </trkpt>
      <trkpt lat="45.317" lon="4.45092">
        <ele>1154</ele>
        <time>2018-08-19T12:25:27.000Z</time>
      </trkpt>
      <trkpt lat="45.317" lon="4.45093">
        <ele>1154</ele>
        <time>2018-08-19T12:25:28.000Z</time>
      </trkpt>
      <trkpt lat="45.31699" lon="4.45094">
        <ele>1153.9</ele>
        <time>2018-08-19T12:25:29.000Z</time>
      </trkpt>
      <trkpt lat="45.31699" lon="4.45095">
        <ele>1153.9</ele>
        <time>2018-08-19T12:25:30.000Z</time>
      </trkpt>
      <trkpt lat="45.31699" lon="4.45096">
        <ele>1153.9</ele>
        <time>2018-08-19T12:25:31.000Z</time>
      </trkpt>
      <trkpt lat="45.31698" lon="4.45098">
        <ele>1153.9</ele>
        <time>2018-08-19T12:25:32.000Z</time>
      </trkpt>
      <trkpt lat="45.31697" lon="4.45099">
        <ele>1153.9</ele>
        <time>2018-08-19T12:25:33.000Z</time>
      </trkpt>
      <trkpt lat="45.31696" lon="4.451">
        <ele>1153.9</ele>
        <time>2018-08-19T12:25:34.000Z</time>
      </trkpt>
      <trkpt lat="45.31696" lon="4.45101">
        <ele>1154</ele>
        <time>2018-08-19T12:25:35.000Z</time>
      </trkpt>
      <trkpt lat="45.31695" lon="4.45103">
        <ele>1154</ele>
        <time>2018-08-19T12:25:36.000Z</time>
      </trkpt>
      <trkpt lat="45.31694" lon="4.45104">
        <ele>1154.1</ele>
        <time>2018-08-19T12:25:37.000Z</time>
      </trkpt>
      <trkpt lat="45.31693" lon="4.45105">
        <ele>1154.1</ele>
        <time>2018-08-19T12:25:38.000Z</time>
      </trkpt>
      <trkpt lat="45.31691" lon="4.45107">
        <ele>1154.1</ele>
        <time>2018-08-19T12:25:39.000Z</time>
      </trkpt>
      <trkpt lat="45.3169" lon="4.45108">
        <ele>1154.2</ele>
        <time>2018-08-19T12:25:40.000Z</time>
      </trkpt>
      <trkpt lat="45.31689" lon="4.45109">
        <ele>1154.2</ele>
        <time>2018-08-19T12:25:41.000Z</time>
      </trkpt>
      <trkpt lat="45.31688" lon="4.4511">
        <ele>1154.3</ele>
        <time>2018-08-19T12:25:42.000Z</time>
      </trkpt>
      <trkpt lat="45.31687" lon="4.45111">
        <ele>1154.4</ele>
        <time>2018-08-19T12:25:43.000Z</time>
      </trkpt>
      <trkpt lat="45.31686" lon="4.45112">
        <ele>1154.5</ele>
        <time>2018-08-19T12:25:44.000Z</time>
      </trkpt>
      <trkpt lat="45.31685" lon="4.45113">
        <ele>1154.5</ele>
        <time>2018-08-19T12:25:45.000Z</time>
      </trkpt>
      <trkpt lat="45.31684" lon="4.45114">
        <ele>1154.6</ele>
        <time>2018-08-19T12:25:46.000Z</time>
      </trkpt>
      <trkpt lat="45.31682" lon="4.45116">
        <ele>1154.7</ele>
        <time>2018-08-19T12:25:47.000Z</time>
      </trkpt>
      <trkpt lat="45.31681" lon="4.45117">
        <ele>1154.7</ele>
        <time>2018-08-19T12:25:48.000Z</time>
      </trkpt>
      <trkpt lat="45.3168" lon="4.45119">
        <ele>1154.8</ele>
        <time>2018-08-19T12:25:49.000Z</time>
      </trkpt>
      <trkpt lat="45.31679" lon="4.4512">
        <ele>1154.8</ele>
        <time>2018-08-19T12:25:50.000Z</time>
      </trkpt>
      <trkpt lat="45.31678" lon="4.45121">
        <ele>1154.9</ele>
        <time>2018-08-19T12:25:51.000Z</time>
      </trkpt>
      <trkpt lat="45.31677" lon="4.45122">
        <ele>1154.9</ele>
        <time>2018-08-19T12:25:52.000Z</time>
      </trkpt>
      <trkpt lat="45.31677" lon="4.45123">
        <ele>1154.9</ele>
        <time>2018-08-19T12:25:53.000Z</time>
      </trkpt>
      <trkpt lat="45.31676" lon="4.45123">
        <ele>1154.9</ele>
        <time>2018-08-19T12:25:54.000Z</time>
      </trkpt>
      <trkpt lat="45.31676" lon="4.45123">
        <ele>1154.9</ele>
        <time>2018-08-19T12:25:55.000Z</time>
      </trkpt>
      <trkpt lat="45.31676" lon="4.45123">
        <ele>1154.9</ele>
        <time>2018-08-19T12:25:56.000Z</time>
      </trkpt>
      <trkpt lat="45.31676" lon="4.45124">
        <ele>1154.9</ele>
        <time>2018-08-19T12:25:57.000Z</time>
      </trkpt>
      <trkpt lat="45.31676" lon="4.45124">
        <ele>1154.9</ele>
        <time>2018-08-19T12:25:58.000Z</time>
      </trkpt>
      <trkpt lat="45.31676" lon="4.45124">
        <ele>1154.9</ele>
        <time>2018-08-19T12:25:59.000Z</time>
      </trkpt>
      <trkpt lat="45.31676" lon="4.45124">
        <ele>1154.9</ele>
        <time>2018-08-19T12:26:00.000Z</time>
      </trkpt>
      <trkpt lat="45.31676" lon="4.45124">
        <ele>1154.9</ele>
        <time>2018-08-19T12:26:01.000Z</time>
      </trkpt>
      <trkpt lat="45.31676" lon="4.45124">
        <ele>1154.9</ele>
        <time>2018-08-19T12:26:02.000Z</time>
      </trkpt>
      <trkpt lat="45.31676" lon="4.45124">
        <ele>1154.9</ele>
        <time>2018-08-19T12:26:03.000Z</time>
      </trkpt>
      <trkpt lat="45.31676" lon="4.45124">
        <ele>1154.9</ele>
        <time>2018-08-19T12:26:04.000Z</time>
      </trkpt>
      <trkpt lat="45.31676" lon="4.45124">
        <ele>1154.9</ele>
        <time>2018-08-19T12:26:05.000Z</time>
      </trkpt>
      <trkpt lat="45.31676" lon="4.45124">
        <ele>1154.9</ele>
        <time>2018-08-19T12:26:06.000Z</time>
      </trkpt>
      <trkpt lat="45.31676" lon="4.45124">
        <ele>1154.9</ele>
        <time>2018-08-19T12:26:07.000Z</time>
      </trkpt>
      <trkpt lat="45.31675" lon="4.45125">
        <ele>1154.9</ele>
        <time>2018-08-19T12:26:08.000Z</time>
      </trkpt>
      <trkpt lat="45.31675" lon="4.45126">
        <ele>1154.9</ele>
        <time>2018-08-19T12:26:09.000Z</time>
      </trkpt>
      <trkpt lat="45.31674" lon="4.45127">
        <ele>1154.9</ele>
        <time>2018-08-19T12:26:10.000Z</time>
      </trkpt>
      <trkpt lat="45.31673" lon="4.45128">
        <ele>1154.9</ele>
        <time>2018-08-19T12:26:11.000Z</time>
      </trkpt>
      <trkpt lat="45.31673" lon="4.4513">
        <ele>1154.9</ele>
        <time>2018-08-19T12:26:12.000Z</time>
      </trkpt>
      <trkpt lat="45.31672" lon="4.45131">
        <ele>1154.9</ele>
        <time>2018-08-19T12:26:13.000Z</time>
      </trkpt>
      <trkpt lat="45.31671" lon="4.45132">
        <ele>1154.9</ele>
        <time>2018-08-19T12:26:14.000Z</time>
      </trkpt>
      <trkpt lat="45.31671" lon="4.45134">
        <ele>1154.9</ele>
        <time>2018-08-19T12:26:15.000Z</time>
      </trkpt>
      <trkpt lat="45.3167" lon="4.45135">
        <ele>1154.8</ele>
        <time>2018-08-19T12:26:16.000Z</time>
      </trkpt>
      <trkpt lat="45.31669" lon="4.45137">
        <ele>1154.8</ele>
        <time>2018-08-19T12:26:17.000Z</time>
      </trkpt>
      <trkpt lat="45.31669" lon="4.45138">
        <ele>1154.8</ele>
        <time>2018-08-19T12:26:18.000Z</time>
      </trkpt>
      <trkpt lat="45.31668" lon="4.4514">
        <ele>1154.8</ele>
        <time>2018-08-19T12:26:19.000Z</time>
      </trkpt>
      <trkpt lat="45.31668" lon="4.45141">
        <ele>1154.7</ele>
        <time>2018-08-19T12:26:20.000Z</time>
      </trkpt>
      <trkpt lat="45.31667" lon="4.45143">
        <ele>1154.7</ele>
        <time>2018-08-19T12:26:21.000Z</time>
      </trkpt>
      <trkpt lat="45.31666" lon="4.45144">
        <ele>1154.7</ele>
        <time>2018-08-19T12:26:22.000Z</time>
      </trkpt>
      <trkpt lat="45.31666" lon="4.45146">
        <ele>1154.7</ele>
        <time>2018-08-19T12:26:23.000Z</time>
      </trkpt>
      <trkpt lat="45.31665" lon="4.45147">
        <ele>1154.7</ele>
        <time>2018-08-19T12:26:24.000Z</time>
      </trkpt>
      <trkpt lat="45.31664" lon="4.45149">
        <ele>1154.7</ele>
        <time>2018-08-19T12:26:25.000Z</time>
      </trkpt>
      <trkpt lat="45.31664" lon="4.4515">
        <ele>1154.7</ele>
        <time>2018-08-19T12:26:26.000Z</time>
      </trkpt>
      <trkpt lat="45.31663" lon="4.45151">
        <ele>1154.7</ele>
        <time>2018-08-19T12:26:27.000Z</time>
      </trkpt>
      <trkpt lat="45.31662" lon="4.45153">
        <ele>1154.7</ele>
        <time>2018-08-19T12:26:28.000Z</time>
      </trkpt>
      <trkpt lat="45.31661" lon="4.45154">
        <ele>1154.7</ele>
        <time>2018-08-19T12:26:29.000Z</time>
      </trkpt>
      <trkpt lat="45.31661" lon="4.45155">
        <ele>1154.7</ele>
        <time>2018-08-19T12:26:30.000Z</time>
      </trkpt>
      <trkpt lat="45.3166" lon="4.45156">
        <ele>1154.8</ele>
        <time>2018-08-19T12:26:31.000Z</time>
      </trkpt>
      <trkpt lat="45.31659" lon="4.45158">
        <ele>1154.8</ele>
        <time>2018-08-19T12:26:32.000Z</time>
      </trkpt>
      <trkpt lat="45.31658" lon="4.45159">
        <ele>1154.8</ele>
        <time>2018-08-19T12:26:33.000Z</time>
      </trkpt>
      <trkpt lat="45.31658" lon="4.4516">
        <ele>1154.8</ele>
        <time>2018-08-19T12:26:34.000Z</time>
      </trkpt>
      <trkpt lat="45.31657" lon="4.45161">
        <ele>1154.8</ele>
        <time>2018-08-19T12:26:35.000Z</time>
      </trkpt>
      <trkpt lat="45.31656" lon="4.45163">
        <ele>1154.8</ele>
        <time>2018-08-19T12:26:36.000Z</time>
      </trkpt>
      <trkpt lat="45.31655" lon="4.45164">
        <ele>1154.8</ele>
        <time>2018-08-19T12:26:37.000Z</time>
      </trkpt>
      <trkpt lat="45.31655" lon="4.45165">
        <ele>1154.9</ele>
        <time>2018-08-19T12:26:38.000Z</time>
      </trkpt>
      <trkpt lat="45.31654" lon="4.45166">
        <ele>1154.9</ele>
        <time>2018-08-19T12:26:39.000Z</time>
      </trkpt>
      <trkpt lat="45.31653" lon="4.45168">
        <ele>1154.9</ele>
        <time>2018-08-19T12:26:40.000Z</time>
      </trkpt>
      <trkpt lat="45.31652" lon="4.45169">
        <ele>1154.9</ele>
        <time>2018-08-19T12:26:41.000Z</time>
      </trkpt>
      <trkpt lat="45.31651" lon="4.45171">
        <ele>1154.8</ele>
        <time>2018-08-19T12:26:42.000Z</time>
      </trkpt>
      <trkpt lat="45.31651" lon="4.45172">
        <ele>1154.8</ele>
        <time>2018-08-19T12:26:43.000Z</time>
      </trkpt>
      <trkpt lat="45.3165" lon="4.45173">
        <ele>1154.8</ele>
        <time>2018-08-19T12:26:44.000Z</time>
      </trkpt>
      <trkpt lat="45.31649" lon="4.45175">
        <ele>1154.8</ele>
        <time>2018-08-19T12:26:45.000Z</time>
      </trkpt>
      <trkpt lat="45.31649" lon="4.45177">
        <ele>1154.7</ele>
        <time>2018-08-19T12:26:46.000Z</time>
      </trkpt>
      <trkpt lat="45.31648" lon="4.45178">
        <ele>1154.7</ele>
        <time>2018-08-19T12:26:47.000Z</time>
      </trkpt>
      <trkpt lat="45.31647" lon="4.4518">
        <ele>1154.6</ele>
        <time>2018-08-19T12:26:48.000Z</time>
      </trkpt>
      <trkpt lat="45.31647" lon="4.45181">
        <ele>1154.6</ele>
        <time>2018-08-19T12:26:49.000Z</time>
      </trkpt>
      <trkpt lat="45.31646" lon="4.45183">
        <ele>1154.5</ele>
        <time>2018-08-19T12:26:50.000Z</time>
      </trkpt>
      <trkpt lat="45.31646" lon="4.45185">
        <ele>1154.4</ele>
        <time>2018-08-19T12:26:51.000Z</time>
      </trkpt>
      <trkpt lat="45.31645" lon="4.45186">
        <ele>1154.3</ele>
        <time>2018-08-19T12:26:52.000Z</time>
      </trkpt>
      <trkpt lat="45.31645" lon="4.45188">
        <ele>1154.2</ele>
        <time>2018-08-19T12:26:53.000Z</time>
      </trkpt>
      <trkpt lat="45.31644" lon="4.4519">
        <ele>1154.1</ele>
        <time>2018-08-19T12:26:54.000Z</time>
      </trkpt>
      <trkpt lat="45.31644" lon="4.45192">
        <ele>1154.1</ele>
        <time>2018-08-19T12:26:55.000Z</time>
      </trkpt>
      <trkpt lat="45.31643" lon="4.45193">
        <ele>1154</ele>
        <time>2018-08-19T12:26:56.000Z</time>
      </trkpt>
      <trkpt lat="45.31643" lon="4.45195">
        <ele>1153.9</ele>
        <time>2018-08-19T12:26:57.000Z</time>
      </trkpt>
      <trkpt lat="45.31642" lon="4.45197">
        <ele>1153.9</ele>
        <time>2018-08-19T12:26:58.000Z</time>
      </trkpt>
      <trkpt lat="45.31642" lon="4.45198">
        <ele>1153.8</ele>
        <time>2018-08-19T12:26:59.000Z</time>
      </trkpt>
      <trkpt lat="45.31641" lon="4.45199">
        <ele>1153.8</ele>
        <time>2018-08-19T12:27:00.000Z</time>
      </trkpt>
      <trkpt lat="45.3164" lon="4.45201">
        <ele>1153.8</ele>
        <time>2018-08-19T12:27:01.000Z</time>
      </trkpt>
      <trkpt lat="45.3164" lon="4.45202">
        <ele>1153.8</ele>
        <time>2018-08-19T12:27:02.000Z</time>
      </trkpt>
      <trkpt lat="45.31639" lon="4.45203">
        <ele>1153.8</ele>
        <time>2018-08-19T12:27:03.000Z</time>
      </trkpt>
      <trkpt lat="45.31638" lon="4.45205">
        <ele>1153.8</ele>
        <time>2018-08-19T12:27:04.000Z</time>
      </trkpt>
      <trkpt lat="45.31637" lon="4.45206">
        <ele>1153.8</ele>
        <time>2018-08-19T12:27:05.000Z</time>
      </trkpt>
      <trkpt lat="45.31636" lon="4.45207">
        <ele>1153.8</ele>
        <time>2018-08-19T12:27:06.000Z</time>
      </trkpt>
      <trkpt lat="45.31636" lon="4.45208">
        <ele>1153.8</ele>
        <time>2018-08-19T12:27:07.000Z</time>
      </trkpt>
      <trkpt lat="45.31635" lon="4.4521">
        <ele>1153.9</ele>
        <time>2018-08-19T12:27:08.000Z</time>
      </trkpt>
      <trkpt lat="45.31634" lon="4.45211">
        <ele>1153.9</ele>
        <time>2018-08-19T12:27:09.000Z</time>
      </trkpt>
      <trkpt lat="45.31633" lon="4.45212">
        <ele>1153.9</ele>
        <time>2018-08-19T12:27:10.000Z</time>
      </trkpt>
      <trkpt lat="45.31632" lon="4.45214">
        <ele>1153.9</ele>
        <time>2018-08-19T12:27:11.000Z</time>
      </trkpt>
      <trkpt lat="45.31632" lon="4.45215">
        <ele>1153.9</ele>
        <time>2018-08-19T12:27:12.000Z</time>
      </trkpt>
      <trkpt lat="45.31631" lon="4.45217">
        <ele>1153.9</ele>
        <time>2018-08-19T12:27:13.000Z</time>
      </trkpt>
      <trkpt lat="45.3163" lon="4.45218">
        <ele>1153.8</ele>
        <time>2018-08-19T12:27:14.000Z</time>
      </trkpt>
      <trkpt lat="45.3163" lon="4.4522">
        <ele>1153.8</ele>
        <time>2018-08-19T12:27:15.000Z</time>
      </trkpt>
      <trkpt lat="45.31629" lon="4.45221">
        <ele>1153.8</ele>
        <time>2018-08-19T12:27:16.000Z</time>
      </trkpt>
      <trkpt lat="45.31629" lon="4.45223">
        <ele>1153.7</ele>
        <time>2018-08-19T12:27:17.000Z</time>
      </trkpt>
      <trkpt lat="45.31628" lon="4.45224">
        <ele>1153.7</ele>
        <time>2018-08-19T12:27:18.000Z</time>
      </trkpt>
      <trkpt lat="45.31628" lon="4.45226">
        <ele>1153.6</ele>
        <time>2018-08-19T12:27:19.000Z</time>
      </trkpt>
      <trkpt lat="45.31627" lon="4.45227">
        <ele>1153.6</ele>
        <time>2018-08-19T12:27:20.000Z</time>
      </trkpt>
      <trkpt lat="45.31626" lon="4.45229">
        <ele>1153.6</ele>
        <time>2018-08-19T12:27:21.000Z</time>
      </trkpt>
      <trkpt lat="45.31626" lon="4.4523">
        <ele>1153.5</ele>
        <time>2018-08-19T12:27:22.000Z</time>
      </trkpt>
      <trkpt lat="45.31625" lon="4.45232">
        <ele>1153.5</ele>
        <time>2018-08-19T12:27:23.000Z</time>
      </trkpt>
      <trkpt lat="45.31624" lon="4.45233">
        <ele>1153.5</ele>
        <time>2018-08-19T12:27:24.000Z</time>
      </trkpt>
      <trkpt lat="45.31623" lon="4.45235">
        <ele>1153.6</ele>
        <time>2018-08-19T12:27:25.000Z</time>
      </trkpt>
      <trkpt lat="45.31622" lon="4.45236">
        <ele>1153.6</ele>
        <time>2018-08-19T12:27:26.000Z</time>
      </trkpt>
      <trkpt lat="45.31621" lon="4.45238">
        <ele>1153.6</ele>
        <time>2018-08-19T12:27:27.000Z</time>
      </trkpt>
      <trkpt lat="45.3162" lon="4.4524">
        <ele>1153.6</ele>
        <time>2018-08-19T12:27:28.000Z</time>
      </trkpt>
      <trkpt lat="45.31619" lon="4.45241">
        <ele>1153.7</ele>
        <time>2018-08-19T12:27:29.000Z</time>
      </trkpt>
      <trkpt lat="45.31618" lon="4.45243">
        <ele>1153.7</ele>
        <time>2018-08-19T12:27:30.000Z</time>
      </trkpt>
      <trkpt lat="45.31617" lon="4.45244">
        <ele>1153.8</ele>
        <time>2018-08-19T12:27:31.000Z</time>
      </trkpt>
      <trkpt lat="45.31616" lon="4.45246">
        <ele>1153.8</ele>
        <time>2018-08-19T12:27:32.000Z</time>
      </trkpt>
      <trkpt lat="45.31616" lon="4.45247">
        <ele>1153.8</ele>
        <time>2018-08-19T12:27:33.000Z</time>
      </trkpt>
      <trkpt lat="45.31615" lon="4.45249">
        <ele>1153.8</ele>
        <time>2018-08-19T12:27:34.000Z</time>
      </trkpt>
      <trkpt lat="45.31614" lon="4.4525">
        <ele>1153.9</ele>
        <time>2018-08-19T12:27:35.000Z</time>
      </trkpt>
      <trkpt lat="45.31613" lon="4.45252">
        <ele>1153.9</ele>
        <time>2018-08-19T12:27:36.000Z</time>
      </trkpt>
      <trkpt lat="45.31612" lon="4.45253">
        <ele>1154</ele>
        <time>2018-08-19T12:27:37.000Z</time>
      </trkpt>
      <trkpt lat="45.31611" lon="4.45255">
        <ele>1154</ele>
        <time>2018-08-19T12:27:38.000Z</time>
      </trkpt>
      <trkpt lat="45.31611" lon="4.45256">
        <ele>1154</ele>
        <time>2018-08-19T12:27:39.000Z</time>
      </trkpt>
      <trkpt lat="45.3161" lon="4.45257">
        <ele>1154.1</ele>
        <time>2018-08-19T12:27:40.000Z</time>
      </trkpt>
      <trkpt lat="45.31609" lon="4.45259">
        <ele>1154.1</ele>
        <time>2018-08-19T12:27:41.000Z</time>
      </trkpt>
      <trkpt lat="45.31609" lon="4.4526">
        <ele>1154.1</ele>
        <time>2018-08-19T12:27:42.000Z</time>
      </trkpt>
      <trkpt lat="45.31608" lon="4.45262">
        <ele>1154.1</ele>
        <time>2018-08-19T12:27:43.000Z</time>
      </trkpt>
      <trkpt lat="45.31607" lon="4.45263">
        <ele>1154.2</ele>
        <time>2018-08-19T12:27:44.000Z</time>
      </trkpt>
      <trkpt lat="45.31607" lon="4.45265">
        <ele>1154.2</ele>
        <time>2018-08-19T12:27:45.000Z</time>
      </trkpt>
      <trkpt lat="45.31606" lon="4.45266">
        <ele>1154.2</ele>
        <time>2018-08-19T12:27:46.000Z</time>
      </trkpt>
      <trkpt lat="45.31606" lon="4.45268">
        <ele>1154.2</ele>
        <time>2018-08-19T12:27:47.000Z</time>
      </trkpt>
      <trkpt lat="45.31605" lon="4.45269">
        <ele>1154.2</ele>
        <time>2018-08-19T12:27:48.000Z</time>
      </trkpt>
      <trkpt lat="45.31605" lon="4.45271">
        <ele>1154.2</ele>
        <time>2018-08-19T12:27:49.000Z</time>
      </trkpt>
      <trkpt lat="45.31604" lon="4.45272">
        <ele>1154.1</ele>
        <time>2018-08-19T12:27:50.000Z</time>
      </trkpt>
      <trkpt lat="45.31604" lon="4.45274">
        <ele>1154.1</ele>
        <time>2018-08-19T12:27:51.000Z</time>
      </trkpt>
      <trkpt lat="45.31603" lon="4.45275">
        <ele>1154.1</ele>
        <time>2018-08-19T12:27:52.000Z</time>
      </trkpt>
      <trkpt lat="45.31603" lon="4.45277">
        <ele>1154.1</ele>
        <time>2018-08-19T12:27:53.000Z</time>
      </trkpt>
      <trkpt lat="45.31602" lon="4.45278">
        <ele>1154</ele>
        <time>2018-08-19T12:27:54.000Z</time>
      </trkpt>
      <trkpt lat="45.31602" lon="4.4528">
        <ele>1154</ele>
        <time>2018-08-19T12:27:55.000Z</time>
      </trkpt>
      <trkpt lat="45.31601" lon="4.45282">
        <ele>1154</ele>
        <time>2018-08-19T12:27:56.000Z</time>
      </trkpt>
      <trkpt lat="45.31601" lon="4.45284">
        <ele>1153.9</ele>
        <time>2018-08-19T12:27:57.000Z</time>
      </trkpt>
      <trkpt lat="45.31601" lon="4.45285">
        <ele>1153.9</ele>
        <time>2018-08-19T12:27:58.000Z</time>
      </trkpt>
      <trkpt lat="45.316" lon="4.45287">
        <ele>1153.8</ele>
        <time>2018-08-19T12:27:59.000Z</time>
      </trkpt>
      <trkpt lat="45.316" lon="4.45289">
        <ele>1153.7</ele>
        <time>2018-08-19T12:28:00.000Z</time>
      </trkpt>
      <trkpt lat="45.316" lon="4.45291">
        <ele>1153.7</ele>
        <time>2018-08-19T12:28:01.000Z</time>
      </trkpt>
      <trkpt lat="45.31599" lon="4.45293">
        <ele>1153.6</ele>
        <time>2018-08-19T12:28:02.000Z</time>
      </trkpt>
      <trkpt lat="45.31599" lon="4.45295">
        <ele>1153.6</ele>
        <time>2018-08-19T12:28:03.000Z</time>
      </trkpt>
      <trkpt lat="45.31599" lon="4.45296">
        <ele>1153.5</ele>
        <time>2018-08-19T12:28:04.000Z</time>
      </trkpt>
      <trkpt lat="45.31598" lon="4.45298">
        <ele>1153.5</ele>
        <time>2018-08-19T12:28:05.000Z</time>
      </trkpt>
      <trkpt lat="45.31598" lon="4.453">
        <ele>1153.4</ele>
        <time>2018-08-19T12:28:06.000Z</time>
      </trkpt>
      <trkpt lat="45.31598" lon="4.45302">
        <ele>1153.4</ele>
        <time>2018-08-19T12:28:07.000Z</time>
      </trkpt>
      <trkpt lat="45.31597" lon="4.45304">
        <ele>1153.4</ele>
        <time>2018-08-19T12:28:08.000Z</time>
      </trkpt>
      <trkpt lat="45.31597" lon="4.45305">
        <ele>1153.4</ele>
        <time>2018-08-19T12:28:09.000Z</time>
      </trkpt>
      <trkpt lat="45.31596" lon="4.45307">
        <ele>1153.3</ele>
        <time>2018-08-19T12:28:10.000Z</time>
      </trkpt>
      <trkpt lat="45.31596" lon="4.45309">
        <ele>1153.3</ele>
        <time>2018-08-19T12:28:11.000Z</time>
      </trkpt>
      <trkpt lat="45.31595" lon="4.4531">
        <ele>1153.3</ele>
        <time>2018-08-19T12:28:12.000Z</time>
      </trkpt>
      <trkpt lat="45.31594" lon="4.45312">
        <ele>1153.3</ele>
        <time>2018-08-19T12:28:13.000Z</time>
      </trkpt>
      <trkpt lat="45.31594" lon="4.45313">
        <ele>1153.4</ele>
        <time>2018-08-19T12:28:14.000Z</time>
      </trkpt>
      <trkpt lat="45.31593" lon="4.45315">
        <ele>1153.4</ele>
        <time>2018-08-19T12:28:15.000Z</time>
      </trkpt>
      <trkpt lat="45.31592" lon="4.45316">
        <ele>1153.4</ele>
        <time>2018-08-19T12:28:16.000Z</time>
      </trkpt>
      <trkpt lat="45.31592" lon="4.45318">
        <ele>1153.5</ele>
        <time>2018-08-19T12:28:17.000Z</time>
      </trkpt>
      <trkpt lat="45.31591" lon="4.45319">
        <ele>1153.5</ele>
        <time>2018-08-19T12:28:18.000Z</time>
      </trkpt>
      <trkpt lat="45.3159" lon="4.45321">
        <ele>1153.5</ele>
        <time>2018-08-19T12:28:19.000Z</time>
      </trkpt>
      <trkpt lat="45.3159" lon="4.45322">
        <ele>1153.6</ele>
        <time>2018-08-19T12:28:20.000Z</time>
      </trkpt>
      <trkpt lat="45.31589" lon="4.45324">
        <ele>1153.6</ele>
        <time>2018-08-19T12:28:21.000Z</time>
      </trkpt>
      <trkpt lat="45.31588" lon="4.45325">
        <ele>1153.7</ele>
        <time>2018-08-19T12:28:22.000Z</time>
      </trkpt>
      <trkpt lat="45.31587" lon="4.45326">
        <ele>1153.8</ele>
        <time>2018-08-19T12:28:23.000Z</time>
      </trkpt>
      <trkpt lat="45.31586" lon="4.45328">
        <ele>1153.8</ele>
        <time>2018-08-19T12:28:24.000Z</time>
      </trkpt>
      <trkpt lat="45.31585" lon="4.45329">
        <ele>1153.9</ele>
        <time>2018-08-19T12:28:25.000Z</time>
      </trkpt>
      <trkpt lat="45.31584" lon="4.45331">
        <ele>1154</ele>
        <time>2018-08-19T12:28:26.000Z</time>
      </trkpt>
      <trkpt lat="45.31583" lon="4.45332">
        <ele>1154.1</ele>
        <time>2018-08-19T12:28:27.000Z</time>
      </trkpt>
      <trkpt lat="45.31582" lon="4.45334">
        <ele>1154.1</ele>
        <time>2018-08-19T12:28:28.000Z</time>
      </trkpt>
      <trkpt lat="45.31581" lon="4.45335">
        <ele>1154.1</ele>
        <time>2018-08-19T12:28:29.000Z</time>
      </trkpt>
      <trkpt lat="45.31581" lon="4.45337">
        <ele>1154.1</ele>
        <time>2018-08-19T12:28:30.000Z</time>
      </trkpt>
      <trkpt lat="45.3158" lon="4.45338">
        <ele>1154.1</ele>
        <time>2018-08-19T12:28:31.000Z</time>
      </trkpt>
      <trkpt lat="45.31579" lon="4.45339">
        <ele>1154.2</ele>
        <time>2018-08-19T12:28:32.000Z</time>
      </trkpt>
      <trkpt lat="45.31578" lon="4.45341">
        <ele>1154.2</ele>
        <time>2018-08-19T12:28:33.000Z</time>
      </trkpt>
      <trkpt lat="45.31577" lon="4.45342">
        <ele>1154.2</ele>
        <time>2018-08-19T12:28:34.000Z</time>
      </trkpt>
      <trkpt lat="45.31576" lon="4.45344">
        <ele>1154.3</ele>
        <time>2018-08-19T12:28:35.000Z</time>
      </trkpt>
      <trkpt lat="45.31575" lon="4.45345">
        <ele>1154.3</ele>
        <time>2018-08-19T12:28:36.000Z</time>
      </trkpt>
      <trkpt lat="45.31574" lon="4.45346">
        <ele>1154.3</ele>
        <time>2018-08-19T12:28:37.000Z</time>
      </trkpt>
      <trkpt lat="45.31573" lon="4.45347">
        <ele>1154.4</ele>
        <time>2018-08-19T12:28:38.000Z</time>
      </trkpt>
      <trkpt lat="45.31572" lon="4.45349">
        <ele>1154.4</ele>
        <time>2018-08-19T12:28:39.000Z</time>
      </trkpt>
      <trkpt lat="45.31571" lon="4.4535">
        <ele>1154.5</ele>
        <time>2018-08-19T12:28:40.000Z</time>
      </trkpt>
      <trkpt lat="45.3157" lon="4.45351">
        <ele>1154.5</ele>
        <time>2018-08-19T12:28:41.000Z</time>
      </trkpt>
      <trkpt lat="45.31569" lon="4.45352">
        <ele>1154.5</ele>
        <time>2018-08-19T12:28:42.000Z</time>
      </trkpt>
      <trkpt lat="45.31568" lon="4.45353">
        <ele>1154.6</ele>
        <time>2018-08-19T12:28:43.000Z</time>
      </trkpt>
      <trkpt lat="45.31567" lon="4.45354">
        <ele>1154.7</ele>
        <time>2018-08-19T12:28:44.000Z</time>
      </trkpt>
      <trkpt lat="45.31566" lon="4.45355">
        <ele>1154.7</ele>
        <time>2018-08-19T12:28:45.000Z</time>
      </trkpt>
      <trkpt lat="45.31565" lon="4.45356">
        <ele>1154.8</ele>
        <time>2018-08-19T12:28:46.000Z</time>
      </trkpt>
      <trkpt lat="45.31564" lon="4.45357">
        <ele>1154.8</ele>
        <time>2018-08-19T12:28:47.000Z</time>
      </trkpt>
      <trkpt lat="45.31563" lon="4.45358">
        <ele>1154.9</ele>
        <time>2018-08-19T12:28:48.000Z</time>
      </trkpt>
      <trkpt lat="45.31562" lon="4.45359">
        <ele>1155</ele>
        <time>2018-08-19T12:28:49.000Z</time>
      </trkpt>
      <trkpt lat="45.31561" lon="4.4536">
        <ele>1155.1</ele>
        <time>2018-08-19T12:28:50.000Z</time>
      </trkpt>
      <trkpt lat="45.3156" lon="4.45361">
        <ele>1155.1</ele>
        <time>2018-08-19T12:28:51.000Z</time>
      </trkpt>
      <trkpt lat="45.31559" lon="4.45362">
        <ele>1155.2</ele>
        <time>2018-08-19T12:28:52.000Z</time>
      </trkpt>
      <trkpt lat="45.31558" lon="4.45363">
        <ele>1155.3</ele>
        <time>2018-08-19T12:28:53.000Z</time>
      </trkpt>
      <trkpt lat="45.31557" lon="4.45364">
        <ele>1155.3</ele>
        <time>2018-08-19T12:28:54.000Z</time>
      </trkpt>
      <trkpt lat="45.31556" lon="4.45365">
        <ele>1155.4</ele>
        <time>2018-08-19T12:28:55.000Z</time>
      </trkpt>
      <trkpt lat="45.31555" lon="4.45366">
        <ele>1155.5</ele>
        <time>2018-08-19T12:28:56.000Z</time>
      </trkpt>
      <trkpt lat="45.31554" lon="4.45367">
        <ele>1155.5</ele>
        <time>2018-08-19T12:28:57.000Z</time>
      </trkpt>
      <trkpt lat="45.31553" lon="4.45369">
        <ele>1155.6</ele>
        <time>2018-08-19T12:28:58.000Z</time>
      </trkpt>
      <trkpt lat="45.31552" lon="4.4537">
        <ele>1155.7</ele>
        <time>2018-08-19T12:28:59.000Z</time>
      </trkpt>
      <trkpt lat="45.31551" lon="4.45372">
        <ele>1155.7</ele>
        <time>2018-08-19T12:29:00.000Z</time>
      </trkpt>
      <trkpt lat="45.3155" lon="4.45373">
        <ele>1155.8</ele>
        <time>2018-08-19T12:29:01.000Z</time>
      </trkpt>
      <trkpt lat="45.31549" lon="4.45374">
        <ele>1155.9</ele>
        <time>2018-08-19T12:29:02.000Z</time>
      </trkpt>
      <trkpt lat="45.31548" lon="4.45376">
        <ele>1155.9</ele>
        <time>2018-08-19T12:29:03.000Z</time>
      </trkpt>
      <trkpt lat="45.31547" lon="4.45377">
        <ele>1156</ele>
        <time>2018-08-19T12:29:04.000Z</time>
      </trkpt>
      <trkpt lat="45.31546" lon="4.45379">
        <ele>1156</ele>
        <time>2018-08-19T12:29:05.000Z</time>
      </trkpt>
      <trkpt lat="45.31545" lon="4.4538">
        <ele>1156.1</ele>
        <time>2018-08-19T12:29:06.000Z</time>
      </trkpt>
      <trkpt lat="45.31544" lon="4.45381">
        <ele>1156.1</ele>
        <time>2018-08-19T12:29:07.000Z</time>
      </trkpt>
      <trkpt lat="45.31544" lon="4.45383">
        <ele>1156.2</ele>
        <time>2018-08-19T12:29:08.000Z</time>
      </trkpt>
      <trkpt lat="45.31543" lon="4.45384">
        <ele>1156.2</ele>
        <time>2018-08-19T12:29:09.000Z</time>
      </trkpt>
      <trkpt lat="45.31542" lon="4.45385">
        <ele>1156.3</ele>
        <time>2018-08-19T12:29:10.000Z</time>
      </trkpt>
      <trkpt lat="45.31542" lon="4.45387">
        <ele>1156.3</ele>
        <time>2018-08-19T12:29:11.000Z</time>
      </trkpt>
      <trkpt lat="45.31541" lon="4.45388">
        <ele>1156.3</ele>
        <time>2018-08-19T12:29:12.000Z</time>
      </trkpt>
      <trkpt lat="45.3154" lon="4.4539">
        <ele>1156.3</ele>
        <time>2018-08-19T12:29:13.000Z</time>
      </trkpt>
      <trkpt lat="45.3154" lon="4.45391">
        <ele>1156.3</ele>
        <time>2018-08-19T12:29:14.000Z</time>
      </trkpt>
      <trkpt lat="45.31539" lon="4.45393">
        <ele>1156.3</ele>
        <time>2018-08-19T12:29:15.000Z</time>
      </trkpt>
      <trkpt lat="45.31539" lon="4.45394">
        <ele>1156.3</ele>
        <time>2018-08-19T12:29:16.000Z</time>
      </trkpt>
      <trkpt lat="45.31539" lon="4.45396">
        <ele>1156.3</ele>
        <time>2018-08-19T12:29:17.000Z</time>
      </trkpt>
      <trkpt lat="45.31539" lon="4.45398">
        <ele>1156.2</ele>
        <time>2018-08-19T12:29:18.000Z</time>
      </trkpt>
      <trkpt lat="45.31539" lon="4.45399">
        <ele>1156.2</ele>
        <time>2018-08-19T12:29:19.000Z</time>
      </trkpt>
      <trkpt lat="45.31538" lon="4.45401">
        <ele>1156.1</ele>
        <time>2018-08-19T12:29:20.000Z</time>
      </trkpt>
      <trkpt lat="45.31538" lon="4.45403">
        <ele>1156</ele>
        <time>2018-08-19T12:29:21.000Z</time>
      </trkpt>
      <trkpt lat="45.31539" lon="4.45404">
        <ele>1156</ele>
        <time>2018-08-19T12:29:22.000Z</time>
      </trkpt>
      <trkpt lat="45.31539" lon="4.45406">
        <ele>1155.9</ele>
        <time>2018-08-19T12:29:23.000Z</time>
      </trkpt>
      <trkpt lat="45.31539" lon="4.45408">
        <ele>1155.8</ele>
        <time>2018-08-19T12:29:24.000Z</time>
      </trkpt>
      <trkpt lat="45.31538" lon="4.45409">
        <ele>1155.8</ele>
        <time>2018-08-19T12:29:25.000Z</time>
      </trkpt>
      <trkpt lat="45.31538" lon="4.45411">
        <ele>1155.7</ele>
        <time>2018-08-19T12:29:26.000Z</time>
      </trkpt>
      <trkpt lat="45.31537" lon="4.45413">
        <ele>1155.8</ele>
        <time>2018-08-19T12:29:27.000Z</time>
      </trkpt>
      <trkpt lat="45.31537" lon="4.45415">
        <ele>1155.8</ele>
        <time>2018-08-19T12:29:28.000Z</time>
      </trkpt>
      <trkpt lat="45.31536" lon="4.45416">
        <ele>1155.8</ele>
        <time>2018-08-19T12:29:29.000Z</time>
      </trkpt>
      <trkpt lat="45.31535" lon="4.45417">
        <ele>1155.9</ele>
        <time>2018-08-19T12:29:30.000Z</time>
      </trkpt>
      <trkpt lat="45.31534" lon="4.45419">
        <ele>1156</ele>
        <time>2018-08-19T12:29:31.000Z</time>
      </trkpt>
      <trkpt lat="45.31533" lon="4.4542">
        <ele>1156.2</ele>
        <time>2018-08-19T12:29:32.000Z</time>
      </trkpt>
      <trkpt lat="45.31532" lon="4.45421">
        <ele>1156.3</ele>
        <time>2018-08-19T12:29:33.000Z</time>
      </trkpt>
      <trkpt lat="45.31531" lon="4.45422">
        <ele>1156.4</ele>
        <time>2018-08-19T12:29:34.000Z</time>
      </trkpt>
      <trkpt lat="45.3153" lon="4.45423">
        <ele>1156.6</ele>
        <time>2018-08-19T12:29:35.000Z</time>
      </trkpt>
      <trkpt lat="45.31529" lon="4.45424">
        <ele>1156.7</ele>
        <time>2018-08-19T12:29:36.000Z</time>
      </trkpt>
      <trkpt lat="45.31528" lon="4.45425">
        <ele>1156.9</ele>
        <time>2018-08-19T12:29:37.000Z</time>
      </trkpt>
      <trkpt lat="45.31527" lon="4.45425">
        <ele>1157</ele>
        <time>2018-08-19T12:29:38.000Z</time>
      </trkpt>
      <trkpt lat="45.31526" lon="4.45426">
        <ele>1157.2</ele>
        <time>2018-08-19T12:29:39.000Z</time>
      </trkpt>
      <trkpt lat="45.31525" lon="4.45427">
        <ele>1157.3</ele>
        <time>2018-08-19T12:29:40.000Z</time>
      </trkpt>
      <trkpt lat="45.31524" lon="4.45428">
        <ele>1157.4</ele>
        <time>2018-08-19T12:29:41.000Z</time>
      </trkpt>
      <trkpt lat="45.31523" lon="4.45429">
        <ele>1157.5</ele>
        <time>2018-08-19T12:29:42.000Z</time>
      </trkpt>
      <trkpt lat="45.31522" lon="4.4543">
        <ele>1157.6</ele>
        <time>2018-08-19T12:29:43.000Z</time>
      </trkpt>
      <trkpt lat="45.31521" lon="4.45431">
        <ele>1157.8</ele>
        <time>2018-08-19T12:29:44.000Z</time>
      </trkpt>
      <trkpt lat="45.3152" lon="4.45433">
        <ele>1157.9</ele>
        <time>2018-08-19T12:29:45.000Z</time>
      </trkpt>
      <trkpt lat="45.31519" lon="4.45434">
        <ele>1158</ele>
        <time>2018-08-19T12:29:46.000Z</time>
      </trkpt>
      <trkpt lat="45.31517" lon="4.45435">
        <ele>1158.2</ele>
        <time>2018-08-19T12:29:47.000Z</time>
      </trkpt>
      <trkpt lat="45.31516" lon="4.45437">
        <ele>1158.3</ele>
        <time>2018-08-19T12:29:48.000Z</time>
      </trkpt>
      <trkpt lat="45.31515" lon="4.45439">
        <ele>1158.5</ele>
        <time>2018-08-19T12:29:49.000Z</time>
      </trkpt>
      <trkpt lat="45.31514" lon="4.4544">
        <ele>1158.6</ele>
        <time>2018-08-19T12:29:50.000Z</time>
      </trkpt>
      <trkpt lat="45.31512" lon="4.45441">
        <ele>1158.7</ele>
        <time>2018-08-19T12:29:51.000Z</time>
      </trkpt>
      <trkpt lat="45.31512" lon="4.45443">
        <ele>1158.8</ele>
        <time>2018-08-19T12:29:52.000Z</time>
      </trkpt>
      <trkpt lat="45.31511" lon="4.45444">
        <ele>1158.9</ele>
        <time>2018-08-19T12:29:53.000Z</time>
      </trkpt>
      <trkpt lat="45.3151" lon="4.45445">
        <ele>1159</ele>
        <time>2018-08-19T12:29:54.000Z</time>
      </trkpt>
      <trkpt lat="45.31509" lon="4.45446">
        <ele>1159</ele>
        <time>2018-08-19T12:29:55.000Z</time>
      </trkpt>
      <trkpt lat="45.31509" lon="4.45447">
        <ele>1159.1</ele>
        <time>2018-08-19T12:29:56.000Z</time>
      </trkpt>
      <trkpt lat="45.31508" lon="4.45449">
        <ele>1159.2</ele>
        <time>2018-08-19T12:29:57.000Z</time>
      </trkpt>
      <trkpt lat="45.31507" lon="4.4545">
        <ele>1159.2</ele>
        <time>2018-08-19T12:29:58.000Z</time>
      </trkpt>
      <trkpt lat="45.31507" lon="4.45451">
        <ele>1159.3</ele>
        <time>2018-08-19T12:29:59.000Z</time>
      </trkpt>
      <trkpt lat="45.31506" lon="4.45453">
        <ele>1159.4</ele>
        <time>2018-08-19T12:30:00.000Z</time>
      </trkpt>
      <trkpt lat="45.31505" lon="4.45454">
        <ele>1159.5</ele>
        <time>2018-08-19T12:30:01.000Z</time>
      </trkpt>
      <trkpt lat="45.31504" lon="4.45455">
        <ele>1159.5</ele>
        <time>2018-08-19T12:30:02.000Z</time>
      </trkpt>
      <trkpt lat="45.31503" lon="4.45456">
        <ele>1159.6</ele>
        <time>2018-08-19T12:30:03.000Z</time>
      </trkpt>
      <trkpt lat="45.31502" lon="4.45457">
        <ele>1159.7</ele>
        <time>2018-08-19T12:30:04.000Z</time>
      </trkpt>
      <trkpt lat="45.31502" lon="4.45458">
        <ele>1159.8</ele>
        <time>2018-08-19T12:30:05.000Z</time>
      </trkpt>
      <trkpt lat="45.31501" lon="4.45459">
        <ele>1159.9</ele>
        <time>2018-08-19T12:30:06.000Z</time>
      </trkpt>
      <trkpt lat="45.315" lon="4.4546">
        <ele>1160</ele>
        <time>2018-08-19T12:30:07.000Z</time>
      </trkpt>
      <trkpt lat="45.31499" lon="4.45461">
        <ele>1160.1</ele>
        <time>2018-08-19T12:30:08.000Z</time>
      </trkpt>
      <trkpt lat="45.31498" lon="4.45462">
        <ele>1160.1</ele>
        <time>2018-08-19T12:30:09.000Z</time>
      </trkpt>
      <trkpt lat="45.31497" lon="4.45463">
        <ele>1160.2</ele>
        <time>2018-08-19T12:30:10.000Z</time>
      </trkpt>
      <trkpt lat="45.31496" lon="4.45464">
        <ele>1160.3</ele>
        <time>2018-08-19T12:30:11.000Z</time>
      </trkpt>
      <trkpt lat="45.31495" lon="4.45465">
        <ele>1160.4</ele>
        <time>2018-08-19T12:30:12.000Z</time>
      </trkpt>
      <trkpt lat="45.31495" lon="4.45466">
        <ele>1160.5</ele>
        <time>2018-08-19T12:30:13.000Z</time>
      </trkpt>
      <trkpt lat="45.31494" lon="4.45467">
        <ele>1160.6</ele>
        <time>2018-08-19T12:30:14.000Z</time>
      </trkpt>
      <trkpt lat="45.31492" lon="4.45469">
        <ele>1160.7</ele>
        <time>2018-08-19T12:30:15.000Z</time>
      </trkpt>
      <trkpt lat="45.31491" lon="4.4547">
        <ele>1160.8</ele>
        <time>2018-08-19T12:30:16.000Z</time>
      </trkpt>
      <trkpt lat="45.3149" lon="4.45472">
        <ele>1160.9</ele>
        <time>2018-08-19T12:30:17.000Z</time>
      </trkpt>
      <trkpt lat="45.31489" lon="4.45473">
        <ele>1161</ele>
        <time>2018-08-19T12:30:18.000Z</time>
      </trkpt>
      <trkpt lat="45.31488" lon="4.45474">
        <ele>1161</ele>
        <time>2018-08-19T12:30:19.000Z</time>
      </trkpt>
      <trkpt lat="45.31487" lon="4.45476">
        <ele>1161.1</ele>
        <time>2018-08-19T12:30:20.000Z</time>
      </trkpt>
      <trkpt lat="45.31486" lon="4.45477">
        <ele>1161.2</ele>
        <time>2018-08-19T12:30:21.000Z</time>
      </trkpt>
      <trkpt lat="45.31485" lon="4.45478">
        <ele>1161.3</ele>
        <time>2018-08-19T12:30:22.000Z</time>
      </trkpt>
      <trkpt lat="45.31485" lon="4.45479">
        <ele>1161.3</ele>
        <time>2018-08-19T12:30:23.000Z</time>
      </trkpt>
      <trkpt lat="45.31484" lon="4.4548">
        <ele>1161.4</ele>
        <time>2018-08-19T12:30:24.000Z</time>
      </trkpt>
      <trkpt lat="45.31484" lon="4.45482">
        <ele>1161.4</ele>
        <time>2018-08-19T12:30:25.000Z</time>
      </trkpt>
      <trkpt lat="45.31483" lon="4.45483">
        <ele>1161.4</ele>
        <time>2018-08-19T12:30:26.000Z</time>
      </trkpt>
      <trkpt lat="45.31483" lon="4.45485">
        <ele>1161.4</ele>
        <time>2018-08-19T12:30:27.000Z</time>
      </trkpt>
      <trkpt lat="45.31482" lon="4.45486">
        <ele>1161.4</ele>
        <time>2018-08-19T12:30:28.000Z</time>
      </trkpt>
      <trkpt lat="45.31482" lon="4.45488">
        <ele>1161.4</ele>
        <time>2018-08-19T12:30:29.000Z</time>
      </trkpt>
      <trkpt lat="45.31482" lon="4.4549">
        <ele>1161.4</ele>
        <time>2018-08-19T12:30:30.000Z</time>
      </trkpt>
      <trkpt lat="45.31482" lon="4.45492">
        <ele>1161.4</ele>
        <time>2018-08-19T12:30:31.000Z</time>
      </trkpt>
      <trkpt lat="45.31482" lon="4.45494">
        <ele>1161.4</ele>
        <time>2018-08-19T12:30:32.000Z</time>
      </trkpt>
      <trkpt lat="45.31481" lon="4.45496">
        <ele>1161.3</ele>
        <time>2018-08-19T12:30:33.000Z</time>
      </trkpt>
      <trkpt lat="45.31481" lon="4.45498">
        <ele>1161.3</ele>
        <time>2018-08-19T12:30:34.000Z</time>
      </trkpt>
      <trkpt lat="45.31481" lon="4.455">
        <ele>1161.3</ele>
        <time>2018-08-19T12:30:35.000Z</time>
      </trkpt>
      <trkpt lat="45.31481" lon="4.45502">
        <ele>1161.2</ele>
        <time>2018-08-19T12:30:36.000Z</time>
      </trkpt>
      <trkpt lat="45.3148" lon="4.45503">
        <ele>1161.2</ele>
        <time>2018-08-19T12:30:37.000Z</time>
      </trkpt>
      <trkpt lat="45.3148" lon="4.45505">
        <ele>1161.1</ele>
        <time>2018-08-19T12:30:38.000Z</time>
      </trkpt>
      <trkpt lat="45.31479" lon="4.45507">
        <ele>1161</ele>
        <time>2018-08-19T12:30:39.000Z</time>
      </trkpt>
      <trkpt lat="45.31479" lon="4.45509">
        <ele>1161</ele>
        <time>2018-08-19T12:30:40.000Z</time>
      </trkpt>
      <trkpt lat="45.31479" lon="4.4551">
        <ele>1160.9</ele>
        <time>2018-08-19T12:30:41.000Z</time>
      </trkpt>
      <trkpt lat="45.31478" lon="4.45512">
        <ele>1160.9</ele>
        <time>2018-08-19T12:30:42.000Z</time>
      </trkpt>
      <trkpt lat="45.31478" lon="4.45514">
        <ele>1160.8</ele>
        <time>2018-08-19T12:30:43.000Z</time>
      </trkpt>
      <trkpt lat="45.31477" lon="4.45516">
        <ele>1160.8</ele>
        <time>2018-08-19T12:30:44.000Z</time>
      </trkpt>
      <trkpt lat="45.31476" lon="4.45517">
        <ele>1160.7</ele>
        <time>2018-08-19T12:30:45.000Z</time>
      </trkpt>
      <trkpt lat="45.31476" lon="4.45519">
        <ele>1160.7</ele>
        <time>2018-08-19T12:30:46.000Z</time>
      </trkpt>
      <trkpt lat="45.31475" lon="4.45521">
        <ele>1160.6</ele>
        <time>2018-08-19T12:30:47.000Z</time>
      </trkpt>
      <trkpt lat="45.31475" lon="4.45522">
        <ele>1160.6</ele>
        <time>2018-08-19T12:30:48.000Z</time>
      </trkpt>
      <trkpt lat="45.31474" lon="4.45524">
        <ele>1160.5</ele>
        <time>2018-08-19T12:30:49.000Z</time>
      </trkpt>
      <trkpt lat="45.31474" lon="4.45526">
        <ele>1160.4</ele>
        <time>2018-08-19T12:30:50.000Z</time>
      </trkpt>
      <trkpt lat="45.31473" lon="4.45528">
        <ele>1160.4</ele>
        <time>2018-08-19T12:30:51.000Z</time>
      </trkpt>
      <trkpt lat="45.31472" lon="4.45529">
        <ele>1160.3</ele>
        <time>2018-08-19T12:30:52.000Z</time>
      </trkpt>
      <trkpt lat="45.31472" lon="4.45531">
        <ele>1160.3</ele>
        <time>2018-08-19T12:30:53.000Z</time>
      </trkpt>
      <trkpt lat="45.31471" lon="4.45533">
        <ele>1160.2</ele>
        <time>2018-08-19T12:30:54.000Z</time>
      </trkpt>
      <trkpt lat="45.31471" lon="4.45535">
        <ele>1160.1</ele>
        <time>2018-08-19T12:30:55.000Z</time>
      </trkpt>
      <trkpt lat="45.3147" lon="4.45536">
        <ele>1160.1</ele>
        <time>2018-08-19T12:30:56.000Z</time>
      </trkpt>
      <trkpt lat="45.3147" lon="4.45538">
        <ele>1160</ele>
        <time>2018-08-19T12:30:57.000Z</time>
      </trkpt>
      <trkpt lat="45.31469" lon="4.4554">
        <ele>1159.9</ele>
        <time>2018-08-19T12:30:58.000Z</time>
      </trkpt>
      <trkpt lat="45.31468" lon="4.45542">
        <ele>1159.9</ele>
        <time>2018-08-19T12:30:59.000Z</time>
      </trkpt>
      <trkpt lat="45.31468" lon="4.45543">
        <ele>1159.8</ele>
        <time>2018-08-19T12:31:00.000Z</time>
      </trkpt>
      <trkpt lat="45.31467" lon="4.45545">
        <ele>1159.7</ele>
        <time>2018-08-19T12:31:01.000Z</time>
      </trkpt>
      <trkpt lat="45.31467" lon="4.45547">
        <ele>1159.6</ele>
        <time>2018-08-19T12:31:02.000Z</time>
      </trkpt>
      <trkpt lat="45.31466" lon="4.45549">
        <ele>1159.5</ele>
        <time>2018-08-19T12:31:03.000Z</time>
      </trkpt>
      <trkpt lat="45.31466" lon="4.45551">
        <ele>1159.4</ele>
        <time>2018-08-19T12:31:04.000Z</time>
      </trkpt>
      <trkpt lat="45.31465" lon="4.45552">
        <ele>1159.3</ele>
        <time>2018-08-19T12:31:05.000Z</time>
      </trkpt>
      <trkpt lat="45.31465" lon="4.45554">
        <ele>1159.3</ele>
        <time>2018-08-19T12:31:06.000Z</time>
      </trkpt>
      <trkpt lat="45.31464" lon="4.45556">
        <ele>1159.2</ele>
        <time>2018-08-19T12:31:07.000Z</time>
      </trkpt>
      <trkpt lat="45.31464" lon="4.45558">
        <ele>1159.1</ele>
        <time>2018-08-19T12:31:08.000Z</time>
      </trkpt>
      <trkpt lat="45.31463" lon="4.45559">
        <ele>1159</ele>
        <time>2018-08-19T12:31:09.000Z</time>
      </trkpt>
      <trkpt lat="45.31463" lon="4.45561">
        <ele>1158.9</ele>
        <time>2018-08-19T12:31:10.000Z</time>
      </trkpt>
      <trkpt lat="45.31462" lon="4.45563">
        <ele>1158.8</ele>
        <time>2018-08-19T12:31:11.000Z</time>
      </trkpt>
      <trkpt lat="45.31462" lon="4.45565">
        <ele>1158.7</ele>
        <time>2018-08-19T12:31:12.000Z</time>
      </trkpt>
      <trkpt lat="45.31461" lon="4.45566">
        <ele>1158.7</ele>
        <time>2018-08-19T12:31:13.000Z</time>
      </trkpt>
      <trkpt lat="45.3146" lon="4.45568">
        <ele>1158.6</ele>
        <time>2018-08-19T12:31:14.000Z</time>
      </trkpt>
      <trkpt lat="45.31459" lon="4.4557">
        <ele>1158.5</ele>
        <time>2018-08-19T12:31:15.000Z</time>
      </trkpt>
      <trkpt lat="45.31459" lon="4.45571">
        <ele>1158.4</ele>
        <time>2018-08-19T12:31:16.000Z</time>
      </trkpt>
      <trkpt lat="45.31458" lon="4.45573">
        <ele>1158.3</ele>
        <time>2018-08-19T12:31:17.000Z</time>
      </trkpt>
      <trkpt lat="45.31457" lon="4.45575">
        <ele>1158.3</ele>
        <time>2018-08-19T12:31:18.000Z</time>
      </trkpt>
      <trkpt lat="45.31456" lon="4.45576">
        <ele>1158.2</ele>
        <time>2018-08-19T12:31:19.000Z</time>
      </trkpt>
      <trkpt lat="45.31456" lon="4.45578">
        <ele>1158.1</ele>
        <time>2018-08-19T12:31:20.000Z</time>
      </trkpt>
      <trkpt lat="45.31455" lon="4.4558">
        <ele>1158</ele>
        <time>2018-08-19T12:31:21.000Z</time>
      </trkpt>
      <trkpt lat="45.31454" lon="4.45582">
        <ele>1157.9</ele>
        <time>2018-08-19T12:31:22.000Z</time>
      </trkpt>
      <trkpt lat="45.31454" lon="4.45583">
        <ele>1157.8</ele>
        <time>2018-08-19T12:31:23.000Z</time>
      </trkpt>
      <trkpt lat="45.31453" lon="4.45585">
        <ele>1157.7</ele>
        <time>2018-08-19T12:31:24.000Z</time>
      </trkpt>
      <trkpt lat="45.31453" lon="4.45587">
        <ele>1157.7</ele>
        <time>2018-08-19T12:31:25.000Z</time>
      </trkpt>
      <trkpt lat="45.31452" lon="4.45589">
        <ele>1157.6</ele>
        <time>2018-08-19T12:31:26.000Z</time>
      </trkpt>
      <trkpt lat="45.31451" lon="4.45591">
        <ele>1157.6</ele>
        <time>2018-08-19T12:31:27.000Z</time>
      </trkpt>
      <trkpt lat="45.31451" lon="4.45593">
        <ele>1157.5</ele>
        <time>2018-08-19T12:31:28.000Z</time>
      </trkpt>
      <trkpt lat="45.3145" lon="4.45595">
        <ele>1157.5</ele>
        <time>2018-08-19T12:31:29.000Z</time>
      </trkpt>
      <trkpt lat="45.3145" lon="4.45597">
        <ele>1157.5</ele>
        <time>2018-08-19T12:31:30.000Z</time>
      </trkpt>
      <trkpt lat="45.31449" lon="4.45598">
        <ele>1157.4</ele>
        <time>2018-08-19T12:31:31.000Z</time>
      </trkpt>
      <trkpt lat="45.31448" lon="4.456">
        <ele>1157.4</ele>
        <time>2018-08-19T12:31:32.000Z</time>
      </trkpt>
      <trkpt lat="45.31448" lon="4.45602">
        <ele>1157.3</ele>
        <time>2018-08-19T12:31:33.000Z</time>
      </trkpt>
      <trkpt lat="45.31447" lon="4.45603">
        <ele>1157.3</ele>
        <time>2018-08-19T12:31:34.000Z</time>
      </trkpt>
      <trkpt lat="45.31446" lon="4.45605">
        <ele>1157.3</ele>
        <time>2018-08-19T12:31:35.000Z</time>
      </trkpt>
      <trkpt lat="45.31446" lon="4.45606">
        <ele>1157.3</ele>
        <time>2018-08-19T12:31:36.000Z</time>
      </trkpt>
      <trkpt lat="45.31445" lon="4.45607">
        <ele>1157.3</ele>
        <time>2018-08-19T12:31:37.000Z</time>
      </trkpt>
      <trkpt lat="45.31444" lon="4.45609">
        <ele>1157.2</ele>
        <time>2018-08-19T12:31:38.000Z</time>
      </trkpt>
      <trkpt lat="45.31443" lon="4.4561">
        <ele>1157.2</ele>
        <time>2018-08-19T12:31:39.000Z</time>
      </trkpt>
      <trkpt lat="45.31443" lon="4.45612">
        <ele>1157.2</ele>
        <time>2018-08-19T12:31:40.000Z</time>
      </trkpt>
      <trkpt lat="45.31442" lon="4.45613">
        <ele>1157.2</ele>
        <time>2018-08-19T12:31:41.000Z</time>
      </trkpt>
      <trkpt lat="45.31441" lon="4.45615">
        <ele>1157.1</ele>
        <time>2018-08-19T12:31:42.000Z</time>
      </trkpt>
      <trkpt lat="45.31441" lon="4.45617">
        <ele>1157.1</ele>
        <time>2018-08-19T12:31:43.000Z</time>
      </trkpt>
      <trkpt lat="45.3144" lon="4.45618">
        <ele>1157</ele>
        <time>2018-08-19T12:31:44.000Z</time>
      </trkpt>
      <trkpt lat="45.31439" lon="4.4562">
        <ele>1157</ele>
        <time>2018-08-19T12:31:45.000Z</time>
      </trkpt>
      <trkpt lat="45.31439" lon="4.45622">
        <ele>1157</ele>
        <time>2018-08-19T12:31:46.000Z</time>
      </trkpt>
      <trkpt lat="45.31438" lon="4.45624">
        <ele>1156.9</ele>
        <time>2018-08-19T12:31:47.000Z</time>
      </trkpt>
      <trkpt lat="45.31438" lon="4.45625">
        <ele>1156.9</ele>
        <time>2018-08-19T12:31:48.000Z</time>
      </trkpt>
      <trkpt lat="45.31437" lon="4.45627">
        <ele>1156.8</ele>
        <time>2018-08-19T12:31:49.000Z</time>
      </trkpt>
      <trkpt lat="45.31436" lon="4.45629">
        <ele>1156.8</ele>
        <time>2018-08-19T12:31:50.000Z</time>
      </trkpt>
      <trkpt lat="45.31436" lon="4.4563">
        <ele>1156.7</ele>
        <time>2018-08-19T12:31:51.000Z</time>
      </trkpt>
      <trkpt lat="45.31435" lon="4.45632">
        <ele>1156.7</ele>
        <time>2018-08-19T12:31:52.000Z</time>
      </trkpt>
      <trkpt lat="45.31435" lon="4.45634">
        <ele>1156.6</ele>
        <time>2018-08-19T12:31:53.000Z</time>
      </trkpt>
      <trkpt lat="45.31434" lon="4.45635">
        <ele>1156.6</ele>
        <time>2018-08-19T12:31:54.000Z</time>
      </trkpt>
      <trkpt lat="45.31433" lon="4.45637">
        <ele>1156.6</ele>
        <time>2018-08-19T12:31:55.000Z</time>
      </trkpt>
      <trkpt lat="45.31433" lon="4.45639">
        <ele>1156.5</ele>
        <time>2018-08-19T12:31:56.000Z</time>
      </trkpt>
      <trkpt lat="45.31432" lon="4.4564">
        <ele>1156.5</ele>
        <time>2018-08-19T12:31:57.000Z</time>
      </trkpt>
      <trkpt lat="45.31431" lon="4.45642">
        <ele>1156.4</ele>
        <time>2018-08-19T12:31:58.000Z</time>
      </trkpt>
      <trkpt lat="45.31431" lon="4.45643">
        <ele>1156.4</ele>
        <time>2018-08-19T12:31:59.000Z</time>
      </trkpt>
      <trkpt lat="45.3143" lon="4.45645">
        <ele>1156.4</ele>
        <time>2018-08-19T12:32:00.000Z</time>
      </trkpt>
      <trkpt lat="45.31429" lon="4.45647">
        <ele>1156.3</ele>
        <time>2018-08-19T12:32:01.000Z</time>
      </trkpt>
      <trkpt lat="45.31429" lon="4.45648">
        <ele>1156.3</ele>
        <time>2018-08-19T12:32:02.000Z</time>
      </trkpt>
      <trkpt lat="45.31428" lon="4.4565">
        <ele>1156.2</ele>
        <time>2018-08-19T12:32:03.000Z</time>
      </trkpt>
      <trkpt lat="45.31428" lon="4.45652">
        <ele>1156.2</ele>
        <time>2018-08-19T12:32:04.000Z</time>
      </trkpt>
      <trkpt lat="45.31427" lon="4.45653">
        <ele>1156.1</ele>
        <time>2018-08-19T12:32:05.000Z</time>
      </trkpt>
      <trkpt lat="45.31426" lon="4.45655">
        <ele>1156.1</ele>
        <time>2018-08-19T12:32:06.000Z</time>
      </trkpt>
      <trkpt lat="45.31426" lon="4.45657">
        <ele>1156</ele>
        <time>2018-08-19T12:32:07.000Z</time>
      </trkpt>
      <trkpt lat="45.31426" lon="4.45659">
        <ele>1156</ele>
        <time>2018-08-19T12:32:08.000Z</time>
      </trkpt>
      <trkpt lat="45.31425" lon="4.4566">
        <ele>1155.9</ele>
        <time>2018-08-19T12:32:09.000Z</time>
      </trkpt>
      <trkpt lat="45.31425" lon="4.45662">
        <ele>1155.8</ele>
        <time>2018-08-19T12:32:10.000Z</time>
      </trkpt>
      <trkpt lat="45.31425" lon="4.45664">
        <ele>1155.7</ele>
        <time>2018-08-19T12:32:11.000Z</time>
      </trkpt>
      <trkpt lat="45.31424" lon="4.45666">
        <ele>1155.7</ele>
        <time>2018-08-19T12:32:12.000Z</time>
      </trkpt>
      <trkpt lat="45.31424" lon="4.45668">
        <ele>1155.6</ele>
        <time>2018-08-19T12:32:13.000Z</time>
      </trkpt>
      <trkpt lat="45.31424" lon="4.45669">
        <ele>1155.5</ele>
        <time>2018-08-19T12:32:14.000Z</time>
      </trkpt>
      <trkpt lat="45.31424" lon="4.45671">
        <ele>1155.4</ele>
        <time>2018-08-19T12:32:15.000Z</time>
      </trkpt>
      <trkpt lat="45.31424" lon="4.45673">
        <ele>1155.3</ele>
        <time>2018-08-19T12:32:16.000Z</time>
      </trkpt>
      <trkpt lat="45.31423" lon="4.45675">
        <ele>1155.2</ele>
        <time>2018-08-19T12:32:17.000Z</time>
      </trkpt>
      <trkpt lat="45.31423" lon="4.45677">
        <ele>1155.1</ele>
        <time>2018-08-19T12:32:18.000Z</time>
      </trkpt>
      <trkpt lat="45.31423" lon="4.45679">
        <ele>1155</ele>
        <time>2018-08-19T12:32:19.000Z</time>
      </trkpt>
      <trkpt lat="45.31423" lon="4.45681">
        <ele>1154.9</ele>
        <time>2018-08-19T12:32:20.000Z</time>
      </trkpt>
      <trkpt lat="45.31423" lon="4.45683">
        <ele>1154.8</ele>
        <time>2018-08-19T12:32:21.000Z</time>
      </trkpt>
      <trkpt lat="45.31423" lon="4.45684">
        <ele>1154.7</ele>
        <time>2018-08-19T12:32:22.000Z</time>
      </trkpt>
      <trkpt lat="45.31423" lon="4.45686">
        <ele>1154.6</ele>
        <time>2018-08-19T12:32:23.000Z</time>
      </trkpt>
      <trkpt lat="45.31423" lon="4.45688">
        <ele>1154.4</ele>
        <time>2018-08-19T12:32:24.000Z</time>
      </trkpt>
      <trkpt lat="45.31423" lon="4.4569">
        <ele>1154.3</ele>
        <time>2018-08-19T12:32:25.000Z</time>
      </trkpt>
      <trkpt lat="45.31423" lon="4.45692">
        <ele>1154.2</ele>
        <time>2018-08-19T12:32:26.000Z</time>
      </trkpt>
      <trkpt lat="45.31424" lon="4.45694">
        <ele>1154.1</ele>
        <time>2018-08-19T12:32:27.000Z</time>
      </trkpt>
      <trkpt lat="45.31424" lon="4.45696">
        <ele>1154</ele>
        <time>2018-08-19T12:32:28.000Z</time>
      </trkpt>
      <trkpt lat="45.31424" lon="4.45698">
        <ele>1153.9</ele>
        <time>2018-08-19T12:32:29.000Z</time>
      </trkpt>
      <trkpt lat="45.31424" lon="4.457">
        <ele>1153.8</ele>
        <time>2018-08-19T12:32:30.000Z</time>
      </trkpt>
      <trkpt lat="45.31424" lon="4.45702">
        <ele>1153.7</ele>
        <time>2018-08-19T12:32:31.000Z</time>
      </trkpt>
      <trkpt lat="45.31424" lon="4.45704">
        <ele>1153.5</ele>
        <time>2018-08-19T12:32:32.000Z</time>
      </trkpt>
      <trkpt lat="45.31424" lon="4.45706">
        <ele>1153.4</ele>
        <time>2018-08-19T12:32:33.000Z</time>
      </trkpt>
      <trkpt lat="45.31425" lon="4.45708">
        <ele>1153.3</ele>
        <time>2018-08-19T12:32:34.000Z</time>
      </trkpt>
      <trkpt lat="45.31425" lon="4.4571">
        <ele>1153.2</ele>
        <time>2018-08-19T12:32:35.000Z</time>
      </trkpt>
      <trkpt lat="45.31425" lon="4.45712">
        <ele>1153.1</ele>
        <time>2018-08-19T12:32:36.000Z</time>
      </trkpt>
      <trkpt lat="45.31425" lon="4.45714">
        <ele>1153</ele>
        <time>2018-08-19T12:32:37.000Z</time>
      </trkpt>
      <trkpt lat="45.31425" lon="4.45716">
        <ele>1152.8</ele>
        <time>2018-08-19T12:32:38.000Z</time>
      </trkpt>
      <trkpt lat="45.31425" lon="4.45718">
        <ele>1152.7</ele>
        <time>2018-08-19T12:32:39.000Z</time>
      </trkpt>
      <trkpt lat="45.31425" lon="4.45719">
        <ele>1152.6</ele>
        <time>2018-08-19T12:32:40.000Z</time>
      </trkpt>
      <trkpt lat="45.31426" lon="4.45721">
        <ele>1152.5</ele>
        <time>2018-08-19T12:32:41.000Z</time>
      </trkpt>
      <trkpt lat="45.31426" lon="4.45723">
        <ele>1152.4</ele>
        <time>2018-08-19T12:32:42.000Z</time>
      </trkpt>
      <trkpt lat="45.31426" lon="4.45725">
        <ele>1152.3</ele>
        <time>2018-08-19T12:32:43.000Z</time>
      </trkpt>
      <trkpt lat="45.31426" lon="4.45727">
        <ele>1152.2</ele>
        <time>2018-08-19T12:32:44.000Z</time>
      </trkpt>
      <trkpt lat="45.31426" lon="4.45729">
        <ele>1152.1</ele>
        <time>2018-08-19T12:32:45.000Z</time>
      </trkpt>
      <trkpt lat="45.31426" lon="4.45731">
        <ele>1151.9</ele>
        <time>2018-08-19T12:32:46.000Z</time>
      </trkpt>
      <trkpt lat="45.31426" lon="4.45733">
        <ele>1151.8</ele>
        <time>2018-08-19T12:32:47.000Z</time>
      </trkpt>
      <trkpt lat="45.31426" lon="4.45735">
        <ele>1151.7</ele>
        <time>2018-08-19T12:32:48.000Z</time>
      </trkpt>
      <trkpt lat="45.31425" lon="4.45737">
        <ele>1151.6</ele>
        <time>2018-08-19T12:32:49.000Z</time>
      </trkpt>
      <trkpt lat="45.31425" lon="4.45739">
        <ele>1151.5</ele>
        <time>2018-08-19T12:32:50.000Z</time>
      </trkpt>
      <trkpt lat="45.31425" lon="4.45741">
        <ele>1151.4</ele>
        <time>2018-08-19T12:32:51.000Z</time>
      </trkpt>
      <trkpt lat="45.31425" lon="4.45743">
        <ele>1151.3</ele>
        <time>2018-08-19T12:32:52.000Z</time>
      </trkpt>
      <trkpt lat="45.31424" lon="4.45744">
        <ele>1151.2</ele>
        <time>2018-08-19T12:32:53.000Z</time>
      </trkpt>
      <trkpt lat="45.31424" lon="4.45746">
        <ele>1151.1</ele>
        <time>2018-08-19T12:32:54.000Z</time>
      </trkpt>
      <trkpt lat="45.31424" lon="4.45748">
        <ele>1151</ele>
        <time>2018-08-19T12:32:55.000Z</time>
      </trkpt>
      <trkpt lat="45.31423" lon="4.4575">
        <ele>1150.9</ele>
        <time>2018-08-19T12:32:56.000Z</time>
      </trkpt>
      <trkpt lat="45.31423" lon="4.45752">
        <ele>1150.9</ele>
        <time>2018-08-19T12:32:57.000Z</time>
      </trkpt>
      <trkpt lat="45.31423" lon="4.45753">
        <ele>1150.9</ele>
        <time>2018-08-19T12:32:58.000Z</time>
      </trkpt>
      <trkpt lat="45.31422" lon="4.45755">
        <ele>1150.8</ele>
        <time>2018-08-19T12:32:59.000Z</time>
      </trkpt>
      <trkpt lat="45.31422" lon="4.45757">
        <ele>1150.8</ele>
        <time>2018-08-19T12:33:00.000Z</time>
      </trkpt>
      <trkpt lat="45.31422" lon="4.45759">
        <ele>1150.8</ele>
        <time>2018-08-19T12:33:01.000Z</time>
      </trkpt>
      <trkpt lat="45.31422" lon="4.45761">
        <ele>1150.7</ele>
        <time>2018-08-19T12:33:02.000Z</time>
      </trkpt>
      <trkpt lat="45.31422" lon="4.45763">
        <ele>1150.7</ele>
        <time>2018-08-19T12:33:03.000Z</time>
      </trkpt>
      <trkpt lat="45.31422" lon="4.45764">
        <ele>1150.6</ele>
        <time>2018-08-19T12:33:04.000Z</time>
      </trkpt>
      <trkpt lat="45.31421" lon="4.45766">
        <ele>1150.6</ele>
        <time>2018-08-19T12:33:05.000Z</time>
      </trkpt>
      <trkpt lat="45.31421" lon="4.45768">
        <ele>1150.6</ele>
        <time>2018-08-19T12:33:06.000Z</time>
      </trkpt>
      <trkpt lat="45.31421" lon="4.4577">
        <ele>1150.5</ele>
        <time>2018-08-19T12:33:07.000Z</time>
      </trkpt>
      <trkpt lat="45.31421" lon="4.45772">
        <ele>1150.5</ele>
        <time>2018-08-19T12:33:08.000Z</time>
      </trkpt>
      <trkpt lat="45.31422" lon="4.45774">
        <ele>1150.4</ele>
        <time>2018-08-19T12:33:09.000Z</time>
      </trkpt>
      <trkpt lat="45.31422" lon="4.45776">
        <ele>1150.4</ele>
        <time>2018-08-19T12:33:10.000Z</time>
      </trkpt>
      <trkpt lat="45.31422" lon="4.45778">
        <ele>1150.4</ele>
        <time>2018-08-19T12:33:11.000Z</time>
      </trkpt>
      <trkpt lat="45.31422" lon="4.4578">
        <ele>1150.3</ele>
        <time>2018-08-19T12:33:12.000Z</time>
      </trkpt>
      <trkpt lat="45.31422" lon="4.45782">
        <ele>1150.3</ele>
        <time>2018-08-19T12:33:13.000Z</time>
      </trkpt>
      <trkpt lat="45.31422" lon="4.45784">
        <ele>1150.2</ele>
        <time>2018-08-19T12:33:14.000Z</time>
      </trkpt>
      <trkpt lat="45.31422" lon="4.45786">
        <ele>1150.2</ele>
        <time>2018-08-19T12:33:15.000Z</time>
      </trkpt>
      <trkpt lat="45.31423" lon="4.45788">
        <ele>1150.2</ele>
        <time>2018-08-19T12:33:16.000Z</time>
      </trkpt>
      <trkpt lat="45.31423" lon="4.4579">
        <ele>1150.1</ele>
        <time>2018-08-19T12:33:17.000Z</time>
      </trkpt>
      <trkpt lat="45.31423" lon="4.45792">
        <ele>1150.1</ele>
        <time>2018-08-19T12:33:18.000Z</time>
      </trkpt>
      <trkpt lat="45.31423" lon="4.45793">
        <ele>1150</ele>
        <time>2018-08-19T12:33:19.000Z</time>
      </trkpt>
      <trkpt lat="45.31423" lon="4.45795">
        <ele>1150</ele>
        <time>2018-08-19T12:33:20.000Z</time>
      </trkpt>
      <trkpt lat="45.31423" lon="4.45797">
        <ele>1150</ele>
        <time>2018-08-19T12:33:21.000Z</time>
      </trkpt>
      <trkpt lat="45.31423" lon="4.45799">
        <ele>1149.9</ele>
        <time>2018-08-19T12:33:22.000Z</time>
      </trkpt>
      <trkpt lat="45.31423" lon="4.45801">
        <ele>1149.9</ele>
        <time>2018-08-19T12:33:23.000Z</time>
      </trkpt>
      <trkpt lat="45.31423" lon="4.45803">
        <ele>1149.9</ele>
        <time>2018-08-19T12:33:24.000Z</time>
      </trkpt>
      <trkpt lat="45.31423" lon="4.45804">
        <ele>1149.8</ele>
        <time>2018-08-19T12:33:25.000Z</time>
      </trkpt>
      <trkpt lat="45.31424" lon="4.45806">
        <ele>1149.8</ele>
        <time>2018-08-19T12:33:26.000Z</time>
      </trkpt>
      <trkpt lat="45.31424" lon="4.45808">
        <ele>1149.8</ele>
        <time>2018-08-19T12:33:27.000Z</time>
      </trkpt>
      <trkpt lat="45.31424" lon="4.4581">
        <ele>1149.7</ele>
        <time>2018-08-19T12:33:28.000Z</time>
      </trkpt>
      <trkpt lat="45.31424" lon="4.45812">
        <ele>1149.7</ele>
        <time>2018-08-19T12:33:29.000Z</time>
      </trkpt>
      <trkpt lat="45.31424" lon="4.45814">
        <ele>1149.7</ele>
        <time>2018-08-19T12:33:30.000Z</time>
      </trkpt>
      <trkpt lat="45.31424" lon="4.45816">
        <ele>1149.6</ele>
        <time>2018-08-19T12:33:31.000Z</time>
      </trkpt>
      <trkpt lat="45.31425" lon="4.45818">
        <ele>1149.6</ele>
        <time>2018-08-19T12:33:32.000Z</time>
      </trkpt>
      <trkpt lat="45.31425" lon="4.4582">
        <ele>1149.6</ele>
        <time>2018-08-19T12:33:33.000Z</time>
      </trkpt>
      <trkpt lat="45.31425" lon="4.45822">
        <ele>1149.5</ele>
        <time>2018-08-19T12:33:34.000Z</time>
      </trkpt>
      <trkpt lat="45.31425" lon="4.45823">
        <ele>1149.5</ele>
        <time>2018-08-19T12:33:35.000Z</time>
      </trkpt>
      <trkpt lat="45.31425" lon="4.45825">
        <ele>1149.5</ele>
        <time>2018-08-19T12:33:36.000Z</time>
      </trkpt>
      <trkpt lat="45.31425" lon="4.45827">
        <ele>1149.4</ele>
        <time>2018-08-19T12:33:37.000Z</time>
      </trkpt>
      <trkpt lat="45.31425" lon="4.45829">
        <ele>1149.4</ele>
        <time>2018-08-19T12:33:38.000Z</time>
      </trkpt>
      <trkpt lat="45.31425" lon="4.45831">
        <ele>1149.4</ele>
        <time>2018-08-19T12:33:39.000Z</time>
      </trkpt>
      <trkpt lat="45.31425" lon="4.45833">
        <ele>1149.3</ele>
        <time>2018-08-19T12:33:40.000Z</time>
      </trkpt>
      <trkpt lat="45.31425" lon="4.45835">
        <ele>1149.4</ele>
        <time>2018-08-19T12:33:41.000Z</time>
      </trkpt>
      <trkpt lat="45.31426" lon="4.45837">
        <ele>1149.4</ele>
        <time>2018-08-19T12:33:42.000Z</time>
      </trkpt>
      <trkpt lat="45.31426" lon="4.45838">
        <ele>1149.5</ele>
        <time>2018-08-19T12:33:43.000Z</time>
      </trkpt>
      <trkpt lat="45.31426" lon="4.4584">
        <ele>1149.6</ele>
        <time>2018-08-19T12:33:44.000Z</time>
      </trkpt>
      <trkpt lat="45.31426" lon="4.45842">
        <ele>1149.7</ele>
        <time>2018-08-19T12:33:45.000Z</time>
      </trkpt>
      <trkpt lat="45.31426" lon="4.45844">
        <ele>1149.7</ele>
        <time>2018-08-19T12:33:46.000Z</time>
      </trkpt>
      <trkpt lat="45.31426" lon="4.45846">
        <ele>1149.8</ele>
        <time>2018-08-19T12:33:47.000Z</time>
      </trkpt>
      <trkpt lat="45.31426" lon="4.45848">
        <ele>1149.9</ele>
        <time>2018-08-19T12:33:48.000Z</time>
      </trkpt>
      <trkpt lat="45.31426" lon="4.4585">
        <ele>1150</ele>
        <time>2018-08-19T12:33:49.000Z</time>
      </trkpt>
      <trkpt lat="45.31426" lon="4.45852">
        <ele>1150</ele>
        <time>2018-08-19T12:33:50.000Z</time>
      </trkpt>
      <trkpt lat="45.31426" lon="4.45854">
        <ele>1150.1</ele>
        <time>2018-08-19T12:33:51.000Z</time>
      </trkpt>
      <trkpt lat="45.31427" lon="4.45855">
        <ele>1150.2</ele>
        <time>2018-08-19T12:33:52.000Z</time>
      </trkpt>
      <trkpt lat="45.31427" lon="4.45857">
        <ele>1150.3</ele>
        <time>2018-08-19T12:33:53.000Z</time>
      </trkpt>
      <trkpt lat="45.31427" lon="4.45859">
        <ele>1150.3</ele>
        <time>2018-08-19T12:33:54.000Z</time>
      </trkpt>
      <trkpt lat="45.31427" lon="4.45861">
        <ele>1150.4</ele>
        <time>2018-08-19T12:33:55.000Z</time>
      </trkpt>
      <trkpt lat="45.31427" lon="4.45863">
        <ele>1150.5</ele>
        <time>2018-08-19T12:33:56.000Z</time>
      </trkpt>
      <trkpt lat="45.31427" lon="4.45865">
        <ele>1150.6</ele>
        <time>2018-08-19T12:33:57.000Z</time>
      </trkpt>
      <trkpt lat="45.31427" lon="4.45867">
        <ele>1150.6</ele>
        <time>2018-08-19T12:33:58.000Z</time>
      </trkpt>
      <trkpt lat="45.31427" lon="4.45869">
        <ele>1150.7</ele>
        <time>2018-08-19T12:33:59.000Z</time>
      </trkpt>
      <trkpt lat="45.31427" lon="4.45871">
        <ele>1150.8</ele>
        <time>2018-08-19T12:34:00.000Z</time>
      </trkpt>
      <trkpt lat="45.31427" lon="4.45872">
        <ele>1150.9</ele>
        <time>2018-08-19T12:34:01.000Z</time>
      </trkpt>
      <trkpt lat="45.31428" lon="4.45874">
        <ele>1150.9</ele>
        <time>2018-08-19T12:34:02.000Z</time>
      </trkpt>
      <trkpt lat="45.31428" lon="4.45876">
        <ele>1151</ele>
        <time>2018-08-19T12:34:03.000Z</time>
      </trkpt>
      <trkpt lat="45.31428" lon="4.45878">
        <ele>1151.1</ele>
        <time>2018-08-19T12:34:04.000Z</time>
      </trkpt>
      <trkpt lat="45.31428" lon="4.4588">
        <ele>1151.1</ele>
        <time>2018-08-19T12:34:05.000Z</time>
      </trkpt>
      <trkpt lat="45.31428" lon="4.45882">
        <ele>1151.2</ele>
        <time>2018-08-19T12:34:06.000Z</time>
      </trkpt>
      <trkpt lat="45.31428" lon="4.45884">
        <ele>1151.3</ele>
        <time>2018-08-19T12:34:07.000Z</time>
      </trkpt>
      <trkpt lat="45.31428" lon="4.45886">
        <ele>1151.4</ele>
        <time>2018-08-19T12:34:08.000Z</time>
      </trkpt>
      <trkpt lat="45.31428" lon="4.45887">
        <ele>1151.4</ele>
        <time>2018-08-19T12:34:09.000Z</time>
      </trkpt>
      <trkpt lat="45.31428" lon="4.45889">
        <ele>1151.5</ele>
        <time>2018-08-19T12:34:10.000Z</time>
      </trkpt>
      <trkpt lat="45.31428" lon="4.45891">
        <ele>1151.6</ele>
        <time>2018-08-19T12:34:11.000Z</time>
      </trkpt>
      <trkpt lat="45.31428" lon="4.45893">
        <ele>1151.6</ele>
        <time>2018-08-19T12:34:12.000Z</time>
      </trkpt>
      <trkpt lat="45.31428" lon="4.45895">
        <ele>1151.7</ele>
        <time>2018-08-19T12:34:13.000Z</time>
      </trkpt>
      <trkpt lat="45.31428" lon="4.45897">
        <ele>1151.8</ele>
        <time>2018-08-19T12:34:14.000Z</time>
      </trkpt>
      <trkpt lat="45.31428" lon="4.45898">
        <ele>1151.9</ele>
        <time>2018-08-19T12:34:15.000Z</time>
      </trkpt>
      <trkpt lat="45.31429" lon="4.459">
        <ele>1151.9</ele>
        <time>2018-08-19T12:34:16.000Z</time>
      </trkpt>
      <trkpt lat="45.31429" lon="4.45902">
        <ele>1152</ele>
        <time>2018-08-19T12:34:17.000Z</time>
      </trkpt>
      <trkpt lat="45.31429" lon="4.45904">
        <ele>1152.1</ele>
        <time>2018-08-19T12:34:18.000Z</time>
      </trkpt>
      <trkpt lat="45.31429" lon="4.45905">
        <ele>1152.1</ele>
        <time>2018-08-19T12:34:19.000Z</time>
      </trkpt>
      <trkpt lat="45.31429" lon="4.45907">
        <ele>1152.2</ele>
        <time>2018-08-19T12:34:20.000Z</time>
      </trkpt>
      <trkpt lat="45.31429" lon="4.45909">
        <ele>1152.3</ele>
        <time>2018-08-19T12:34:21.000Z</time>
      </trkpt>
      <trkpt lat="45.31429" lon="4.45911">
        <ele>1152.3</ele>
        <time>2018-08-19T12:34:22.000Z</time>
      </trkpt>
      <trkpt lat="45.31429" lon="4.45912">
        <ele>1152.4</ele>
        <time>2018-08-19T12:34:23.000Z</time>
      </trkpt>
      <trkpt lat="45.31429" lon="4.45914">
        <ele>1152.5</ele>
        <time>2018-08-19T12:34:24.000Z</time>
      </trkpt>
      <trkpt lat="45.31429" lon="4.45916">
        <ele>1152.6</ele>
        <time>2018-08-19T12:34:25.000Z</time>
      </trkpt>
      <trkpt lat="45.31429" lon="4.45918">
        <ele>1152.6</ele>
        <time>2018-08-19T12:34:26.000Z</time>
      </trkpt>
      <trkpt lat="45.31429" lon="4.45919">
        <ele>1152.6</ele>
        <time>2018-08-19T12:34:27.000Z</time>
      </trkpt>
      <trkpt lat="45.31429" lon="4.4592">
        <ele>1152.6</ele>
        <time>2018-08-19T12:34:28.000Z</time>
      </trkpt>
      <trkpt lat="45.31429" lon="4.45921">
        <ele>1152.6</ele>
        <time>2018-08-19T12:34:29.000Z</time>
      </trkpt>
      <trkpt lat="45.3143" lon="4.45922">
        <ele>1152.6</ele>
        <time>2018-08-19T12:34:30.000Z</time>
      </trkpt>
      <trkpt lat="45.3143" lon="4.45923">
        <ele>1152.6</ele>
        <time>2018-08-19T12:34:31.000Z</time>
      </trkpt>
      <trkpt lat="45.3143" lon="4.45923">
        <ele>1152.6</ele>
        <time>2018-08-19T12:34:32.000Z</time>
      </trkpt>
      <trkpt lat="45.3143" lon="4.45923">
        <ele>1152.7</ele>
        <time>2018-08-19T12:34:33.000Z</time>
      </trkpt>
      <trkpt lat="45.3143" lon="4.45923">
        <ele>1152.7</ele>
        <time>2018-08-19T12:34:34.000Z</time>
      </trkpt>
      <trkpt lat="45.3143" lon="4.45923">
        <ele>1152.7</ele>
        <time>2018-08-19T12:34:35.000Z</time>
      </trkpt>
      <trkpt lat="45.3143" lon="4.45923">
        <ele>1152.7</ele>
        <time>2018-08-19T12:34:36.000Z</time>
      </trkpt>
      <trkpt lat="45.3143" lon="4.45923">
        <ele>1152.7</ele>
        <time>2018-08-19T12:34:37.000Z</time>
      </trkpt>
      <trkpt lat="45.3143" lon="4.45923">
        <ele>1152.7</ele>
        <time>2018-08-19T12:34:38.000Z</time>
      </trkpt>
      <trkpt lat="45.3143" lon="4.45923">
        <ele>1152.7</ele>
        <time>2018-08-19T12:34:39.000Z</time>
      </trkpt>
      <trkpt lat="45.3143" lon="4.45923">
        <ele>1152.7</ele>
        <time>2018-08-19T12:34:40.000Z</time>
      </trkpt>
      <trkpt lat="45.3143" lon="4.45923">
        <ele>1152.7</ele>
        <time>2018-08-19T12:34:41.000Z</time>
      </trkpt>
      <trkpt lat="45.3143" lon="4.45923">
        <ele>1152.7</ele>
        <time>2018-08-19T12:34:42.000Z</time>
      </trkpt>
      <trkpt lat="45.3143" lon="4.45923">
        <ele>1152.7</ele>
        <time>2018-08-19T12:34:43.000Z</time>
      </trkpt>
      <trkpt lat="45.3143" lon="4.45923">
        <ele>1152.7</ele>
        <time>2018-08-19T12:34:44.000Z</time>
      </trkpt>
      <trkpt lat="45.3143" lon="4.45923">
        <ele>1152.7</ele>
        <time>2018-08-19T12:34:45.000Z</time>
      </trkpt>
      <trkpt lat="45.3143" lon="4.45923">
        <ele>1152.7</ele>
        <time>2018-08-19T12:34:46.000Z</time>
      </trkpt>
      <trkpt lat="45.3143" lon="4.45923">
        <ele>1152.7</ele>
        <time>2018-08-19T12:34:47.000Z</time>
      </trkpt>
      <trkpt lat="45.3143" lon="4.45923">
        <ele>1152.7</ele>
        <time>2018-08-19T12:34:48.000Z</time>
      </trkpt>
      <trkpt lat="45.3143" lon="4.45923">
        <ele>1152.7</ele>
        <time>2018-08-19T12:34:49.000Z</time>
      </trkpt>
      <trkpt lat="45.3143" lon="4.45923">
        <ele>1152.7</ele>
        <time>2018-08-19T12:34:50.000Z</time>
      </trkpt>
      <trkpt lat="45.3143" lon="4.45923">
        <ele>1152.7</ele>
        <time>2018-08-19T12:34:51.000Z</time>
      </trkpt>
      <trkpt lat="45.3143" lon="4.45923">
        <ele>1152.7</ele>
        <time>2018-08-19T12:34:52.000Z</time>
      </trkpt>
      <trkpt lat="45.3143" lon="4.45923">
        <ele>1152.7</ele>
        <time>2018-08-19T12:34:53.000Z</time>
      </trkpt>
      <trkpt lat="45.3143" lon="4.45923">
        <ele>1152.7</ele>
        <time>2018-08-19T12:34:54.000Z</time>
      </trkpt>
      <trkpt lat="45.3143" lon="4.45923">
        <ele>1152.7</ele>
        <time>2018-08-19T12:34:55.000Z</time>
      </trkpt>
      <trkpt lat="45.3143" lon="4.45923">
        <ele>1152.7</ele>
        <time>2018-08-19T12:34:56.000Z</time>
      </trkpt>
      <trkpt lat="45.3143" lon="4.45923">
        <ele>1152.7</ele>
        <time>2018-08-19T12:34:57.000Z</time>
      </trkpt>
      <trkpt lat="45.3143" lon="4.45923">
        <ele>1152.7</ele>
        <time>2018-08-19T12:34:58.000Z</time>
      </trkpt>
      <trkpt lat="45.3143" lon="4.45923">
        <ele>1152.7</ele>
        <time>2018-08-19T12:34:59.000Z</time>
      </trkpt>
      <trkpt lat="45.3143" lon="4.45923">
        <ele>1152.7</ele>
        <time>2018-08-19T12:35:00.000Z</time>
      </trkpt>
      <trkpt lat="45.3143" lon="4.45923">
        <ele>1152.7</ele>
        <time>2018-08-19T12:35:01.000Z</time>
      </trkpt>
      <trkpt lat="45.3143" lon="4.45923">
        <ele>1152.7</ele>
        <time>2018-08-19T12:35:02.000Z</time>
      </trkpt>
      <trkpt lat="45.3143" lon="4.45923">
        <ele>1152.7</ele>
        <time>2018-08-19T12:35:03.000Z</time>
      </trkpt>
      <trkpt lat="45.3143" lon="4.45923">
        <ele>1152.7</ele>
        <time>2018-08-19T12:35:04.000Z</time>
      </trkpt>
      <trkpt lat="45.3143" lon="4.45923">
        <ele>1152.7</ele>
        <time>2018-08-19T12:35:05.000Z</time>
      </trkpt>
      <trkpt lat="45.3143" lon="4.45923">
        <ele>1152.7</ele>
        <time>2018-08-19T12:35:06.000Z</time>
      </trkpt>
      <trkpt lat="45.3143" lon="4.45923">
        <ele>1152.7</ele>
        <time>2018-08-19T12:35:07.000Z</time>
      </trkpt>
      <trkpt lat="45.3143" lon="4.45923">
        <ele>1152.7</ele>
        <time>2018-08-19T12:35:08.000Z</time>
      </trkpt>
      <trkpt lat="45.3143" lon="4.45923">
        <ele>1152.7</ele>
        <time>2018-08-19T12:35:09.000Z</time>
      </trkpt>
      <trkpt lat="45.3143" lon="4.45923">
        <ele>1152.7</ele>
        <time>2018-08-19T12:35:10.000Z</time>
      </trkpt>
      <trkpt lat="45.3143" lon="4.45923">
        <ele>1152.7</ele>
        <time>2018-08-19T12:35:11.000Z</time>
      </trkpt>
      <trkpt lat="45.3143" lon="4.45923">
        <ele>1152.7</ele>
        <time>2018-08-19T12:35:12.000Z</time>
      </trkpt>
      <trkpt lat="45.3143" lon="4.45923">
        <ele>1152.7</ele>
        <time>2018-08-19T12:35:13.000Z</time>
      </trkpt>
      <trkpt lat="45.3143" lon="4.45923">
        <ele>1152.7</ele>
        <time>2018-08-19T12:35:14.000Z</time>
      </trkpt>
      <trkpt lat="45.3143" lon="4.45923">
        <ele>1152.7</ele>
        <time>2018-08-19T12:35:15.000Z</time>
      </trkpt>
      <trkpt lat="45.3143" lon="4.45923">
        <ele>1152.7</ele>
        <time>2018-08-19T12:35:16.000Z</time>
      </trkpt>
      <trkpt lat="45.3143" lon="4.45923">
        <ele>1152.7</ele>
        <time>2018-08-19T12:35:17.000Z</time>
      </trkpt>
      <trkpt lat="45.3143" lon="4.45923">
        <ele>1152.7</ele>
        <time>2018-08-19T12:35:18.000Z</time>
      </trkpt>
      <trkpt lat="45.3143" lon="4.45923">
        <ele>1152.7</ele>
        <time>2018-08-19T12:35:19.000Z</time>
      </trkpt>
      <trkpt lat="45.3143" lon="4.45923">
        <ele>1152.7</ele>
        <time>2018-08-19T12:35:20.000Z</time>
      </trkpt>
      <trkpt lat="45.3143" lon="4.45923">
        <ele>1152.7</ele>
        <time>2018-08-19T12:35:21.000Z</time>
      </trkpt>
      <trkpt lat="45.3143" lon="4.45923">
        <ele>1152.7</ele>
        <time>2018-08-19T12:35:22.000Z</time>
      </trkpt>
      <trkpt lat="45.3143" lon="4.45923">
        <ele>1152.7</ele>
        <time>2018-08-19T12:35:23.000Z</time>
      </trkpt>
      <trkpt lat="45.3143" lon="4.45923">
        <ele>1152.7</ele>
        <time>2018-08-19T12:35:24.000Z</time>
      </trkpt>
      <trkpt lat="45.3143" lon="4.45923">
        <ele>1152.6</ele>
        <time>2018-08-19T12:35:25.000Z</time>
      </trkpt>
      <trkpt lat="45.3143" lon="4.45924">
        <ele>1152.7</ele>
        <time>2018-08-19T12:35:26.000Z</time>
      </trkpt>
      <trkpt lat="45.3143" lon="4.45925">
        <ele>1152.6</ele>
        <time>2018-08-19T12:35:27.000Z</time>
      </trkpt>
      <trkpt lat="45.3143" lon="4.45926">
        <ele>1152.6</ele>
        <time>2018-08-19T12:35:28.000Z</time>
      </trkpt>
      <trkpt lat="45.31429" lon="4.45928">
        <ele>1152.6</ele>
        <time>2018-08-19T12:35:29.000Z</time>
      </trkpt>
      <trkpt lat="45.31429" lon="4.45929">
        <ele>1152.6</ele>
        <time>2018-08-19T12:35:30.000Z</time>
      </trkpt>
      <trkpt lat="45.31429" lon="4.45931">
        <ele>1152.6</ele>
        <time>2018-08-19T12:35:31.000Z</time>
      </trkpt>
      <trkpt lat="45.31428" lon="4.45933">
        <ele>1152.5</ele>
        <time>2018-08-19T12:35:32.000Z</time>
      </trkpt>
      <trkpt lat="45.31428" lon="4.45934">
        <ele>1152.5</ele>
        <time>2018-08-19T12:35:33.000Z</time>
      </trkpt>
      <trkpt lat="45.31427" lon="4.45936">
        <ele>1152.5</ele>
        <time>2018-08-19T12:35:34.000Z</time>
      </trkpt>
      <trkpt lat="45.31427" lon="4.45937">
        <ele>1152.4</ele>
        <time>2018-08-19T12:35:35.000Z</time>
      </trkpt>
      <trkpt lat="45.31426" lon="4.45939">
        <ele>1152.4</ele>
        <time>2018-08-19T12:35:36.000Z</time>
      </trkpt>
      <trkpt lat="45.31426" lon="4.45941">
        <ele>1152.4</ele>
        <time>2018-08-19T12:35:37.000Z</time>
      </trkpt>
      <trkpt lat="45.31425" lon="4.45942">
        <ele>1152.3</ele>
        <time>2018-08-19T12:35:38.000Z</time>
      </trkpt>
      <trkpt lat="45.31425" lon="4.45944">
        <ele>1152.3</ele>
        <time>2018-08-19T12:35:39.000Z</time>
      </trkpt>
      <trkpt lat="45.31425" lon="4.45945">
        <ele>1152.3</ele>
        <time>2018-08-19T12:35:40.000Z</time>
      </trkpt>
      <trkpt lat="45.31424" lon="4.45947">
        <ele>1152.2</ele>
        <time>2018-08-19T12:35:41.000Z</time>
      </trkpt>
      <trkpt lat="45.31424" lon="4.45949">
        <ele>1152.2</ele>
        <time>2018-08-19T12:35:42.000Z</time>
      </trkpt>
      <trkpt lat="45.31423" lon="4.4595">
        <ele>1152.1</ele>
        <time>2018-08-19T12:35:43.000Z</time>
      </trkpt>
      <trkpt lat="45.31423" lon="4.45952">
        <ele>1152.1</ele>
        <time>2018-08-19T12:35:44.000Z</time>
      </trkpt>
      <trkpt lat="45.31422" lon="4.45953">
        <ele>1152</ele>
        <time>2018-08-19T12:35:45.000Z</time>
      </trkpt>
      <trkpt lat="45.31422" lon="4.45955">
        <ele>1152</ele>
        <time>2018-08-19T12:35:46.000Z</time>
      </trkpt>
      <trkpt lat="45.31422" lon="4.45957">
        <ele>1151.9</ele>
        <time>2018-08-19T12:35:47.000Z</time>
      </trkpt>
      <trkpt lat="45.31421" lon="4.45958">
        <ele>1151.9</ele>
        <time>2018-08-19T12:35:48.000Z</time>
      </trkpt>
      <trkpt lat="45.31421" lon="4.4596">
        <ele>1151.9</ele>
        <time>2018-08-19T12:35:49.000Z</time>
      </trkpt>
      <trkpt lat="45.3142" lon="4.45961">
        <ele>1151.8</ele>
        <time>2018-08-19T12:35:50.000Z</time>
      </trkpt>
      <trkpt lat="45.3142" lon="4.45963">
        <ele>1151.8</ele>
        <time>2018-08-19T12:35:51.000Z</time>
      </trkpt>
      <trkpt lat="45.3142" lon="4.45965">
        <ele>1151.7</ele>
        <time>2018-08-19T12:35:52.000Z</time>
      </trkpt>
      <trkpt lat="45.31419" lon="4.45966">
        <ele>1151.7</ele>
        <time>2018-08-19T12:35:53.000Z</time>
      </trkpt>
      <trkpt lat="45.31419" lon="4.45968">
        <ele>1151.6</ele>
        <time>2018-08-19T12:35:54.000Z</time>
      </trkpt>
      <trkpt lat="45.31419" lon="4.4597">
        <ele>1151.6</ele>
        <time>2018-08-19T12:35:55.000Z</time>
      </trkpt>
      <trkpt lat="45.31418" lon="4.45971">
        <ele>1151.5</ele>
        <time>2018-08-19T12:35:56.000Z</time>
      </trkpt>
      <trkpt lat="45.31418" lon="4.45973">
        <ele>1151.5</ele>
        <time>2018-08-19T12:35:57.000Z</time>
      </trkpt>
      <trkpt lat="45.31418" lon="4.45975">
        <ele>1151.4</ele>
        <time>2018-08-19T12:35:58.000Z</time>
      </trkpt>
      <trkpt lat="45.31417" lon="4.45976">
        <ele>1151.4</ele>
        <time>2018-08-19T12:35:59.000Z</time>
      </trkpt>
      <trkpt lat="45.31417" lon="4.45978">
        <ele>1151.3</ele>
        <time>2018-08-19T12:36:00.000Z</time>
      </trkpt>
      <trkpt lat="45.31417" lon="4.4598">
        <ele>1151.3</ele>
        <time>2018-08-19T12:36:01.000Z</time>
      </trkpt>
      <trkpt lat="45.31417" lon="4.45981">
        <ele>1151.2</ele>
        <time>2018-08-19T12:36:02.000Z</time>
      </trkpt>
      <trkpt lat="45.31416" lon="4.45983">
        <ele>1151.1</ele>
        <time>2018-08-19T12:36:03.000Z</time>
      </trkpt>
      <trkpt lat="45.31416" lon="4.45985">
        <ele>1151.1</ele>
        <time>2018-08-19T12:36:04.000Z</time>
      </trkpt>
      <trkpt lat="45.31416" lon="4.45987">
        <ele>1151</ele>
        <time>2018-08-19T12:36:05.000Z</time>
      </trkpt>
      <trkpt lat="45.31415" lon="4.45988">
        <ele>1151</ele>
        <time>2018-08-19T12:36:06.000Z</time>
      </trkpt>
      <trkpt lat="45.31415" lon="4.4599">
        <ele>1150.9</ele>
        <time>2018-08-19T12:36:07.000Z</time>
      </trkpt>
      <trkpt lat="45.31415" lon="4.45992">
        <ele>1150.9</ele>
        <time>2018-08-19T12:36:08.000Z</time>
      </trkpt>
      <trkpt lat="45.31414" lon="4.45994">
        <ele>1150.8</ele>
        <time>2018-08-19T12:36:09.000Z</time>
      </trkpt>
      <trkpt lat="45.31414" lon="4.45996">
        <ele>1150.8</ele>
        <time>2018-08-19T12:36:10.000Z</time>
      </trkpt>
      <trkpt lat="45.31414" lon="4.45997">
        <ele>1150.7</ele>
        <time>2018-08-19T12:36:11.000Z</time>
      </trkpt>
      <trkpt lat="45.31413" lon="4.45999">
        <ele>1150.7</ele>
        <time>2018-08-19T12:36:12.000Z</time>
      </trkpt>
      <trkpt lat="45.31413" lon="4.46001">
        <ele>1150.7</ele>
        <time>2018-08-19T12:36:13.000Z</time>
      </trkpt>
      <trkpt lat="45.31413" lon="4.46003">
        <ele>1150.7</ele>
        <time>2018-08-19T12:36:14.000Z</time>
      </trkpt>
      <trkpt lat="45.31412" lon="4.46005">
        <ele>1150.7</ele>
        <time>2018-08-19T12:36:15.000Z</time>
      </trkpt>
      <trkpt lat="45.31412" lon="4.46006">
        <ele>1150.8</ele>
        <time>2018-08-19T12:36:16.000Z</time>
      </trkpt>
      <trkpt lat="45.31411" lon="4.46008">
        <ele>1150.8</ele>
        <time>2018-08-19T12:36:17.000Z</time>
      </trkpt>
      <trkpt lat="45.31411" lon="4.4601">
        <ele>1150.8</ele>
        <time>2018-08-19T12:36:18.000Z</time>
      </trkpt>
      <trkpt lat="45.31411" lon="4.46012">
        <ele>1150.8</ele>
        <time>2018-08-19T12:36:19.000Z</time>
      </trkpt>
      <trkpt lat="45.3141" lon="4.46014">
        <ele>1150.9</ele>
        <time>2018-08-19T12:36:20.000Z</time>
      </trkpt>
      <trkpt lat="45.3141" lon="4.46016">
        <ele>1150.9</ele>
        <time>2018-08-19T12:36:21.000Z</time>
      </trkpt>
      <trkpt lat="45.31409" lon="4.46018">
        <ele>1150.9</ele>
        <time>2018-08-19T12:36:22.000Z</time>
      </trkpt>
      <trkpt lat="45.31409" lon="4.46019">
        <ele>1151</ele>
        <time>2018-08-19T12:36:23.000Z</time>
      </trkpt>
      <trkpt lat="45.31409" lon="4.46021">
        <ele>1151</ele>
        <time>2018-08-19T12:36:24.000Z</time>
      </trkpt>
      <trkpt lat="45.31408" lon="4.46023">
        <ele>1151</ele>
        <time>2018-08-19T12:36:25.000Z</time>
      </trkpt>
      <trkpt lat="45.31408" lon="4.46025">
        <ele>1151</ele>
        <time>2018-08-19T12:36:26.000Z</time>
      </trkpt>
      <trkpt lat="45.31407" lon="4.46026">
        <ele>1151.1</ele>
        <time>2018-08-19T12:36:27.000Z</time>
      </trkpt>
      <trkpt lat="45.31407" lon="4.46028">
        <ele>1151.1</ele>
        <time>2018-08-19T12:36:28.000Z</time>
      </trkpt>
      <trkpt lat="45.31406" lon="4.4603">
        <ele>1151.1</ele>
        <time>2018-08-19T12:36:29.000Z</time>
      </trkpt>
      <trkpt lat="45.31406" lon="4.46032">
        <ele>1151.1</ele>
        <time>2018-08-19T12:36:30.000Z</time>
      </trkpt>
      <trkpt lat="45.31406" lon="4.46033">
        <ele>1151.1</ele>
        <time>2018-08-19T12:36:31.000Z</time>
      </trkpt>
      <trkpt lat="45.31405" lon="4.46035">
        <ele>1151.2</ele>
        <time>2018-08-19T12:36:32.000Z</time>
      </trkpt>
      <trkpt lat="45.31405" lon="4.46037">
        <ele>1151.2</ele>
        <time>2018-08-19T12:36:33.000Z</time>
      </trkpt>
      <trkpt lat="45.31405" lon="4.46039">
        <ele>1151.2</ele>
        <time>2018-08-19T12:36:34.000Z</time>
      </trkpt>
      <trkpt lat="45.31405" lon="4.4604">
        <ele>1151.3</ele>
        <time>2018-08-19T12:36:35.000Z</time>
      </trkpt>
      <trkpt lat="45.31405" lon="4.46042">
        <ele>1151.3</ele>
        <time>2018-08-19T12:36:36.000Z</time>
      </trkpt>
      <trkpt lat="45.31404" lon="4.46044">
        <ele>1151.4</ele>
        <time>2018-08-19T12:36:37.000Z</time>
      </trkpt>
      <trkpt lat="45.31404" lon="4.46046">
        <ele>1151.5</ele>
        <time>2018-08-19T12:36:38.000Z</time>
      </trkpt>
      <trkpt lat="45.31404" lon="4.46048">
        <ele>1151.5</ele>
        <time>2018-08-19T12:36:39.000Z</time>
      </trkpt>
      <trkpt lat="45.31404" lon="4.46049">
        <ele>1151.6</ele>
        <time>2018-08-19T12:36:40.000Z</time>
      </trkpt>
      <trkpt lat="45.31404" lon="4.46051">
        <ele>1151.6</ele>
        <time>2018-08-19T12:36:41.000Z</time>
      </trkpt>
      <trkpt lat="45.31404" lon="4.46053">
        <ele>1151.7</ele>
        <time>2018-08-19T12:36:42.000Z</time>
      </trkpt>
      <trkpt lat="45.31404" lon="4.46055">
        <ele>1151.8</ele>
        <time>2018-08-19T12:36:43.000Z</time>
      </trkpt>
      <trkpt lat="45.31404" lon="4.46057">
        <ele>1151.8</ele>
        <time>2018-08-19T12:36:44.000Z</time>
      </trkpt>
      <trkpt lat="45.31404" lon="4.46059">
        <ele>1151.9</ele>
        <time>2018-08-19T12:36:45.000Z</time>
      </trkpt>
      <trkpt lat="45.31404" lon="4.4606">
        <ele>1152</ele>
        <time>2018-08-19T12:36:46.000Z</time>
      </trkpt>
      <trkpt lat="45.31404" lon="4.46062">
        <ele>1152</ele>
        <time>2018-08-19T12:36:47.000Z</time>
      </trkpt>
      <trkpt lat="45.31404" lon="4.46064">
        <ele>1152.1</ele>
        <time>2018-08-19T12:36:48.000Z</time>
      </trkpt>
      <trkpt lat="45.31404" lon="4.46066">
        <ele>1152.2</ele>
        <time>2018-08-19T12:36:49.000Z</time>
      </trkpt>
      <trkpt lat="45.31404" lon="4.46068">
        <ele>1152.2</ele>
        <time>2018-08-19T12:36:50.000Z</time>
      </trkpt>
      <trkpt lat="45.31405" lon="4.46069">
        <ele>1152.3</ele>
        <time>2018-08-19T12:36:51.000Z</time>
      </trkpt>
      <trkpt lat="45.31405" lon="4.46071">
        <ele>1152.4</ele>
        <time>2018-08-19T12:36:52.000Z</time>
      </trkpt>
      <trkpt lat="45.31405" lon="4.46073">
        <ele>1152.5</ele>
        <time>2018-08-19T12:36:53.000Z</time>
      </trkpt>
      <trkpt lat="45.31405" lon="4.46075">
        <ele>1152.6</ele>
        <time>2018-08-19T12:36:54.000Z</time>
      </trkpt>
      <trkpt lat="45.31405" lon="4.46076">
        <ele>1152.6</ele>
        <time>2018-08-19T12:36:55.000Z</time>
      </trkpt>
      <trkpt lat="45.31405" lon="4.46078">
        <ele>1152.7</ele>
        <time>2018-08-19T12:36:56.000Z</time>
      </trkpt>
      <trkpt lat="45.31405" lon="4.4608">
        <ele>1152.8</ele>
        <time>2018-08-19T12:36:57.000Z</time>
      </trkpt>
      <trkpt lat="45.31405" lon="4.46082">
        <ele>1152.9</ele>
        <time>2018-08-19T12:36:58.000Z</time>
      </trkpt>
      <trkpt lat="45.31406" lon="4.46084">
        <ele>1152.9</ele>
        <time>2018-08-19T12:36:59.000Z</time>
      </trkpt>
      <trkpt lat="45.31406" lon="4.46086">
        <ele>1152.9</ele>
        <time>2018-08-19T12:37:00.000Z</time>
      </trkpt>
      <trkpt lat="45.31406" lon="4.46087">
        <ele>1153</ele>
        <time>2018-08-19T12:37:01.000Z</time>
      </trkpt>
      <trkpt lat="45.31406" lon="4.46089">
        <ele>1153</ele>
        <time>2018-08-19T12:37:02.000Z</time>
      </trkpt>
      <trkpt lat="45.31406" lon="4.46091">
        <ele>1153</ele>
        <time>2018-08-19T12:37:03.000Z</time>
      </trkpt>
      <trkpt lat="45.31406" lon="4.46093">
        <ele>1153</ele>
        <time>2018-08-19T12:37:04.000Z</time>
      </trkpt>
      <trkpt lat="45.31406" lon="4.46095">
        <ele>1153.1</ele>
        <time>2018-08-19T12:37:05.000Z</time>
      </trkpt>
      <trkpt lat="45.31406" lon="4.46097">
        <ele>1153.1</ele>
        <time>2018-08-19T12:37:06.000Z</time>
      </trkpt>
      <trkpt lat="45.31407" lon="4.46099">
        <ele>1153.1</ele>
        <time>2018-08-19T12:37:07.000Z</time>
      </trkpt>
      <trkpt lat="45.31407" lon="4.46101">
        <ele>1153.2</ele>
        <time>2018-08-19T12:37:08.000Z</time>
      </trkpt>
      <trkpt lat="45.31407" lon="4.46102">
        <ele>1153.2</ele>
        <time>2018-08-19T12:37:09.000Z</time>
      </trkpt>
      <trkpt lat="45.31407" lon="4.46104">
        <ele>1153.2</ele>
        <time>2018-08-19T12:37:10.000Z</time>
      </trkpt>
      <trkpt lat="45.31407" lon="4.46106">
        <ele>1153.3</ele>
        <time>2018-08-19T12:37:11.000Z</time>
      </trkpt>
      <trkpt lat="45.31408" lon="4.46108">
        <ele>1153.3</ele>
        <time>2018-08-19T12:37:12.000Z</time>
      </trkpt>
      <trkpt lat="45.31408" lon="4.4611">
        <ele>1153.3</ele>
        <time>2018-08-19T12:37:13.000Z</time>
      </trkpt>
      <trkpt lat="45.31408" lon="4.46112">
        <ele>1153.4</ele>
        <time>2018-08-19T12:37:14.000Z</time>
      </trkpt>
      <trkpt lat="45.31408" lon="4.46114">
        <ele>1153.4</ele>
        <time>2018-08-19T12:37:15.000Z</time>
      </trkpt>
      <trkpt lat="45.31409" lon="4.46115">
        <ele>1153.4</ele>
        <time>2018-08-19T12:37:16.000Z</time>
      </trkpt>
      <trkpt lat="45.31409" lon="4.46117">
        <ele>1153.5</ele>
        <time>2018-08-19T12:37:17.000Z</time>
      </trkpt>
      <trkpt lat="45.31409" lon="4.46119">
        <ele>1153.5</ele>
        <time>2018-08-19T12:37:18.000Z</time>
      </trkpt>
      <trkpt lat="45.31409" lon="4.46121">
        <ele>1153.6</ele>
        <time>2018-08-19T12:37:19.000Z</time>
      </trkpt>
      <trkpt lat="45.3141" lon="4.46123">
        <ele>1153.6</ele>
        <time>2018-08-19T12:37:20.000Z</time>
      </trkpt>
      <trkpt lat="45.3141" lon="4.46125">
        <ele>1153.7</ele>
        <time>2018-08-19T12:37:21.000Z</time>
      </trkpt>
      <trkpt lat="45.3141" lon="4.46126">
        <ele>1153.7</ele>
        <time>2018-08-19T12:37:22.000Z</time>
      </trkpt>
      <trkpt lat="45.31411" lon="4.46128">
        <ele>1153.8</ele>
        <time>2018-08-19T12:37:23.000Z</time>
      </trkpt>
      <trkpt lat="45.31411" lon="4.4613">
        <ele>1153.9</ele>
        <time>2018-08-19T12:37:24.000Z</time>
      </trkpt>
      <trkpt lat="45.31411" lon="4.46132">
        <ele>1153.9</ele>
        <time>2018-08-19T12:37:25.000Z</time>
      </trkpt>
      <trkpt lat="45.31411" lon="4.46134">
        <ele>1153.9</ele>
        <time>2018-08-19T12:37:26.000Z</time>
      </trkpt>
      <trkpt lat="45.31412" lon="4.46135">
        <ele>1154</ele>
        <time>2018-08-19T12:37:27.000Z</time>
      </trkpt>
      <trkpt lat="45.31412" lon="4.46137">
        <ele>1154</ele>
        <time>2018-08-19T12:37:28.000Z</time>
      </trkpt>
      <trkpt lat="45.31412" lon="4.46139">
        <ele>1154.1</ele>
        <time>2018-08-19T12:37:29.000Z</time>
      </trkpt>
      <trkpt lat="45.31412" lon="4.46141">
        <ele>1154.1</ele>
        <time>2018-08-19T12:37:30.000Z</time>
      </trkpt>
      <trkpt lat="45.31412" lon="4.46143">
        <ele>1154.1</ele>
        <time>2018-08-19T12:37:31.000Z</time>
      </trkpt>
      <trkpt lat="45.31412" lon="4.46144">
        <ele>1154.2</ele>
        <time>2018-08-19T12:37:32.000Z</time>
      </trkpt>
      <trkpt lat="45.31413" lon="4.46146">
        <ele>1154.2</ele>
        <time>2018-08-19T12:37:33.000Z</time>
      </trkpt>
      <trkpt lat="45.31413" lon="4.46148">
        <ele>1154.2</ele>
        <time>2018-08-19T12:37:34.000Z</time>
      </trkpt>
      <trkpt lat="45.31413" lon="4.4615">
        <ele>1154.3</ele>
        <time>2018-08-19T12:37:35.000Z</time>
      </trkpt>
      <trkpt lat="45.31413" lon="4.46152">
        <ele>1154.3</ele>
        <time>2018-08-19T12:37:36.000Z</time>
      </trkpt>
      <trkpt lat="45.31413" lon="4.46154">
        <ele>1154.3</ele>
        <time>2018-08-19T12:37:37.000Z</time>
      </trkpt>
      <trkpt lat="45.31413" lon="4.46156">
        <ele>1154.3</ele>
        <time>2018-08-19T12:37:38.000Z</time>
      </trkpt>
      <trkpt lat="45.31413" lon="4.46157">
        <ele>1154.3</ele>
        <time>2018-08-19T12:37:39.000Z</time>
      </trkpt>
      <trkpt lat="45.31413" lon="4.46159">
        <ele>1154.4</ele>
        <time>2018-08-19T12:37:40.000Z</time>
      </trkpt>
      <trkpt lat="45.31413" lon="4.46161">
        <ele>1154.4</ele>
        <time>2018-08-19T12:37:41.000Z</time>
      </trkpt>
      <trkpt lat="45.31413" lon="4.46163">
        <ele>1154.4</ele>
        <time>2018-08-19T12:37:42.000Z</time>
      </trkpt>
      <trkpt lat="45.31413" lon="4.46165">
        <ele>1154.5</ele>
        <time>2018-08-19T12:37:43.000Z</time>
      </trkpt>
      <trkpt lat="45.31413" lon="4.46167">
        <ele>1154.5</ele>
        <time>2018-08-19T12:37:44.000Z</time>
      </trkpt>
      <trkpt lat="45.31414" lon="4.46169">
        <ele>1154.5</ele>
        <time>2018-08-19T12:37:45.000Z</time>
      </trkpt>
      <trkpt lat="45.31414" lon="4.4617">
        <ele>1154.5</ele>
        <time>2018-08-19T12:37:46.000Z</time>
      </trkpt>
      <trkpt lat="45.31414" lon="4.46172">
        <ele>1154.4</ele>
        <time>2018-08-19T12:37:47.000Z</time>
      </trkpt>
      <trkpt lat="45.31414" lon="4.46174">
        <ele>1154.4</ele>
        <time>2018-08-19T12:37:48.000Z</time>
      </trkpt>
      <trkpt lat="45.31414" lon="4.46176">
        <ele>1154.3</ele>
        <time>2018-08-19T12:37:49.000Z</time>
      </trkpt>
      <trkpt lat="45.31415" lon="4.46178">
        <ele>1154.3</ele>
        <time>2018-08-19T12:37:50.000Z</time>
      </trkpt>
      <trkpt lat="45.31415" lon="4.4618">
        <ele>1154.2</ele>
        <time>2018-08-19T12:37:51.000Z</time>
      </trkpt>
      <trkpt lat="45.31415" lon="4.46182">
        <ele>1154.2</ele>
        <time>2018-08-19T12:37:52.000Z</time>
      </trkpt>
      <trkpt lat="45.31415" lon="4.46184">
        <ele>1154.1</ele>
        <time>2018-08-19T12:37:53.000Z</time>
      </trkpt>
      <trkpt lat="45.31415" lon="4.46186">
        <ele>1154.1</ele>
        <time>2018-08-19T12:37:54.000Z</time>
      </trkpt>
      <trkpt lat="45.31415" lon="4.46187">
        <ele>1154</ele>
        <time>2018-08-19T12:37:55.000Z</time>
      </trkpt>
      <trkpt lat="45.31415" lon="4.46189">
        <ele>1154</ele>
        <time>2018-08-19T12:37:56.000Z</time>
      </trkpt>
      <trkpt lat="45.31415" lon="4.46191">
        <ele>1153.9</ele>
        <time>2018-08-19T12:37:57.000Z</time>
      </trkpt>
      <trkpt lat="45.31415" lon="4.46193">
        <ele>1153.9</ele>
        <time>2018-08-19T12:37:58.000Z</time>
      </trkpt>
      <trkpt lat="45.31415" lon="4.46195">
        <ele>1153.8</ele>
        <time>2018-08-19T12:37:59.000Z</time>
      </trkpt>
      <trkpt lat="45.31416" lon="4.46197">
        <ele>1153.7</ele>
        <time>2018-08-19T12:38:00.000Z</time>
      </trkpt>
      <trkpt lat="45.31416" lon="4.46199">
        <ele>1153.7</ele>
        <time>2018-08-19T12:38:01.000Z</time>
      </trkpt>
      <trkpt lat="45.31416" lon="4.46201">
        <ele>1153.6</ele>
        <time>2018-08-19T12:38:02.000Z</time>
      </trkpt>
      <trkpt lat="45.31416" lon="4.46203">
        <ele>1153.5</ele>
        <time>2018-08-19T12:38:03.000Z</time>
      </trkpt>
      <trkpt lat="45.31416" lon="4.46204">
        <ele>1153.5</ele>
        <time>2018-08-19T12:38:04.000Z</time>
      </trkpt>
      <trkpt lat="45.31416" lon="4.46206">
        <ele>1153.4</ele>
        <time>2018-08-19T12:38:05.000Z</time>
      </trkpt>
      <trkpt lat="45.31416" lon="4.46208">
        <ele>1153.3</ele>
        <time>2018-08-19T12:38:06.000Z</time>
      </trkpt>
      <trkpt lat="45.31416" lon="4.4621">
        <ele>1153.3</ele>
        <time>2018-08-19T12:38:07.000Z</time>
      </trkpt>
      <trkpt lat="45.31416" lon="4.46212">
        <ele>1153.2</ele>
        <time>2018-08-19T12:38:08.000Z</time>
      </trkpt>
      <trkpt lat="45.31416" lon="4.46214">
        <ele>1153.1</ele>
        <time>2018-08-19T12:38:09.000Z</time>
      </trkpt>
      <trkpt lat="45.31416" lon="4.46215">
        <ele>1153.1</ele>
        <time>2018-08-19T12:38:10.000Z</time>
      </trkpt>
      <trkpt lat="45.31416" lon="4.46217">
        <ele>1153</ele>
        <time>2018-08-19T12:38:11.000Z</time>
      </trkpt>
      <trkpt lat="45.31416" lon="4.46219">
        <ele>1153</ele>
        <time>2018-08-19T12:38:12.000Z</time>
      </trkpt>
      <trkpt lat="45.31416" lon="4.4622">
        <ele>1152.9</ele>
        <time>2018-08-19T12:38:13.000Z</time>
      </trkpt>
      <trkpt lat="45.31416" lon="4.46222">
        <ele>1152.8</ele>
        <time>2018-08-19T12:38:14.000Z</time>
      </trkpt>
      <trkpt lat="45.31416" lon="4.46224">
        <ele>1152.8</ele>
        <time>2018-08-19T12:38:15.000Z</time>
      </trkpt>
      <trkpt lat="45.31416" lon="4.46226">
        <ele>1152.7</ele>
        <time>2018-08-19T12:38:16.000Z</time>
      </trkpt>
      <trkpt lat="45.31416" lon="4.46227">
        <ele>1152.7</ele>
        <time>2018-08-19T12:38:17.000Z</time>
      </trkpt>
      <trkpt lat="45.31416" lon="4.46229">
        <ele>1152.6</ele>
        <time>2018-08-19T12:38:18.000Z</time>
      </trkpt>
      <trkpt lat="45.31416" lon="4.46231">
        <ele>1152.6</ele>
        <time>2018-08-19T12:38:19.000Z</time>
      </trkpt>
      <trkpt lat="45.31416" lon="4.46233">
        <ele>1152.5</ele>
        <time>2018-08-19T12:38:20.000Z</time>
      </trkpt>
      <trkpt lat="45.31416" lon="4.46235">
        <ele>1152.4</ele>
        <time>2018-08-19T12:38:21.000Z</time>
      </trkpt>
      <trkpt lat="45.31416" lon="4.46237">
        <ele>1152.3</ele>
        <time>2018-08-19T12:38:22.000Z</time>
      </trkpt>
      <trkpt lat="45.31416" lon="4.46239">
        <ele>1152.3</ele>
        <time>2018-08-19T12:38:23.000Z</time>
      </trkpt>
      <trkpt lat="45.31416" lon="4.46241">
        <ele>1152.2</ele>
        <time>2018-08-19T12:38:24.000Z</time>
      </trkpt>
      <trkpt lat="45.31416" lon="4.46243">
        <ele>1152.1</ele>
        <time>2018-08-19T12:38:25.000Z</time>
      </trkpt>
      <trkpt lat="45.31415" lon="4.46244">
        <ele>1152</ele>
        <time>2018-08-19T12:38:26.000Z</time>
      </trkpt>
      <trkpt lat="45.31415" lon="4.46246">
        <ele>1151.9</ele>
        <time>2018-08-19T12:38:27.000Z</time>
      </trkpt>
      <trkpt lat="45.31415" lon="4.46248">
        <ele>1151.8</ele>
        <time>2018-08-19T12:38:28.000Z</time>
      </trkpt>
      <trkpt lat="45.31415" lon="4.4625">
        <ele>1151.7</ele>
        <time>2018-08-19T12:38:29.000Z</time>
      </trkpt>
      <trkpt lat="45.31415" lon="4.46252">
        <ele>1151.6</ele>
        <time>2018-08-19T12:38:30.000Z</time>
      </trkpt>
      <trkpt lat="45.31415" lon="4.46253">
        <ele>1151.4</ele>
        <time>2018-08-19T12:38:31.000Z</time>
      </trkpt>
      <trkpt lat="45.31414" lon="4.46255">
        <ele>1151.3</ele>
        <time>2018-08-19T12:38:32.000Z</time>
      </trkpt>
      <trkpt lat="45.31414" lon="4.46257">
        <ele>1151.1</ele>
        <time>2018-08-19T12:38:33.000Z</time>
      </trkpt>
      <trkpt lat="45.31414" lon="4.46259">
        <ele>1151</ele>
        <time>2018-08-19T12:38:34.000Z</time>
      </trkpt>
      <trkpt lat="45.31414" lon="4.4626">
        <ele>1150.8</ele>
        <time>2018-08-19T12:38:35.000Z</time>
      </trkpt>
      <trkpt lat="45.31414" lon="4.46262">
        <ele>1150.7</ele>
        <time>2018-08-19T12:38:36.000Z</time>
      </trkpt>
      <trkpt lat="45.31414" lon="4.46264">
        <ele>1150.5</ele>
        <time>2018-08-19T12:38:37.000Z</time>
      </trkpt>
      <trkpt lat="45.31414" lon="4.46266">
        <ele>1150.4</ele>
        <time>2018-08-19T12:38:38.000Z</time>
      </trkpt>
      <trkpt lat="45.31414" lon="4.46268">
        <ele>1150.3</ele>
        <time>2018-08-19T12:38:39.000Z</time>
      </trkpt>
      <trkpt lat="45.31414" lon="4.46269">
        <ele>1150.2</ele>
        <time>2018-08-19T12:38:40.000Z</time>
      </trkpt>
      <trkpt lat="45.31414" lon="4.46271">
        <ele>1150.1</ele>
        <time>2018-08-19T12:38:41.000Z</time>
      </trkpt>
      <trkpt lat="45.31414" lon="4.46273">
        <ele>1150</ele>
        <time>2018-08-19T12:38:42.000Z</time>
      </trkpt>
      <trkpt lat="45.31415" lon="4.46275">
        <ele>1149.9</ele>
        <time>2018-08-19T12:38:43.000Z</time>
      </trkpt>
      <trkpt lat="45.31415" lon="4.46276">
        <ele>1149.9</ele>
        <time>2018-08-19T12:38:44.000Z</time>
      </trkpt>
      <trkpt lat="45.31416" lon="4.46278">
        <ele>1149.9</ele>
        <time>2018-08-19T12:38:45.000Z</time>
      </trkpt>
      <trkpt lat="45.31416" lon="4.4628">
        <ele>1149.8</ele>
        <time>2018-08-19T12:38:46.000Z</time>
      </trkpt>
      <trkpt lat="45.31417" lon="4.46281">
        <ele>1149.8</ele>
        <time>2018-08-19T12:38:47.000Z</time>
      </trkpt>
      <trkpt lat="45.31418" lon="4.46283">
        <ele>1149.7</ele>
        <time>2018-08-19T12:38:48.000Z</time>
      </trkpt>
      <trkpt lat="45.31418" lon="4.46285">
        <ele>1149.7</ele>
        <time>2018-08-19T12:38:49.000Z</time>
      </trkpt>
      <trkpt lat="45.31419" lon="4.46286">
        <ele>1149.7</ele>
        <time>2018-08-19T12:38:50.000Z</time>
      </trkpt>
      <trkpt lat="45.3142" lon="4.46288">
        <ele>1149.6</ele>
        <time>2018-08-19T12:38:51.000Z</time>
      </trkpt>
      <trkpt lat="45.3142" lon="4.4629">
        <ele>1149.6</ele>
        <time>2018-08-19T12:38:52.000Z</time>
      </trkpt>
      <trkpt lat="45.31421" lon="4.46291">
        <ele>1149.6</ele>
        <time>2018-08-19T12:38:53.000Z</time>
      </trkpt>
      <trkpt lat="45.31422" lon="4.46293">
        <ele>1149.5</ele>
        <time>2018-08-19T12:38:54.000Z</time>
      </trkpt>
      <trkpt lat="45.31423" lon="4.46294">
        <ele>1149.5</ele>
        <time>2018-08-19T12:38:55.000Z</time>
      </trkpt>
      <trkpt lat="45.31423" lon="4.46296">
        <ele>1149.5</ele>
        <time>2018-08-19T12:38:56.000Z</time>
      </trkpt>
      <trkpt lat="45.31424" lon="4.46298">
        <ele>1149.5</ele>
        <time>2018-08-19T12:38:57.000Z</time>
      </trkpt>
      <trkpt lat="45.31425" lon="4.46299">
        <ele>1149.5</ele>
        <time>2018-08-19T12:38:58.000Z</time>
      </trkpt>
      <trkpt lat="45.31426" lon="4.46301">
        <ele>1149.5</ele>
        <time>2018-08-19T12:38:59.000Z</time>
      </trkpt>
      <trkpt lat="45.31427" lon="4.46302">
        <ele>1149.5</ele>
        <time>2018-08-19T12:39:00.000Z</time>
      </trkpt>
      <trkpt lat="45.31428" lon="4.46303">
        <ele>1149.5</ele>
        <time>2018-08-19T12:39:01.000Z</time>
      </trkpt>
      <trkpt lat="45.31428" lon="4.46305">
        <ele>1149.5</ele>
        <time>2018-08-19T12:39:02.000Z</time>
      </trkpt>
      <trkpt lat="45.31429" lon="4.46306">
        <ele>1149.5</ele>
        <time>2018-08-19T12:39:03.000Z</time>
      </trkpt>
      <trkpt lat="45.3143" lon="4.46308">
        <ele>1149.5</ele>
        <time>2018-08-19T12:39:04.000Z</time>
      </trkpt>
      <trkpt lat="45.31431" lon="4.46309">
        <ele>1149.5</ele>
        <time>2018-08-19T12:39:05.000Z</time>
      </trkpt>
      <trkpt lat="45.31432" lon="4.4631">
        <ele>1149.5</ele>
        <time>2018-08-19T12:39:06.000Z</time>
      </trkpt>
      <trkpt lat="45.31433" lon="4.46312">
        <ele>1149.4</ele>
        <time>2018-08-19T12:39:07.000Z</time>
      </trkpt>
      <trkpt lat="45.31433" lon="4.46314">
        <ele>1149.4</ele>
        <time>2018-08-19T12:39:08.000Z</time>
      </trkpt>
      <trkpt lat="45.31434" lon="4.46316">
        <ele>1149.4</ele>
        <time>2018-08-19T12:39:09.000Z</time>
      </trkpt>
      <trkpt lat="45.31435" lon="4.46317">
        <ele>1149.3</ele>
        <time>2018-08-19T12:39:10.000Z</time>
      </trkpt>
      <trkpt lat="45.31435" lon="4.46319">
        <ele>1149.3</ele>
        <time>2018-08-19T12:39:11.000Z</time>
      </trkpt>
      <trkpt lat="45.31436" lon="4.46321">
        <ele>1149.2</ele>
        <time>2018-08-19T12:39:12.000Z</time>
      </trkpt>
      <trkpt lat="45.31437" lon="4.46323">
        <ele>1149.1</ele>
        <time>2018-08-19T12:39:13.000Z</time>
      </trkpt>
      <trkpt lat="45.31437" lon="4.46325">
        <ele>1149.1</ele>
        <time>2018-08-19T12:39:14.000Z</time>
      </trkpt>
      <trkpt lat="45.31438" lon="4.46327">
        <ele>1149</ele>
        <time>2018-08-19T12:39:15.000Z</time>
      </trkpt>
      <trkpt lat="45.31439" lon="4.46329">
        <ele>1149</ele>
        <time>2018-08-19T12:39:16.000Z</time>
      </trkpt>
      <trkpt lat="45.31439" lon="4.46331">
        <ele>1148.9</ele>
        <time>2018-08-19T12:39:17.000Z</time>
      </trkpt>
      <trkpt lat="45.3144" lon="4.46333">
        <ele>1148.8</ele>
        <time>2018-08-19T12:39:18.000Z</time>
      </trkpt>
      <trkpt lat="45.31441" lon="4.46335">
        <ele>1148.8</ele>
        <time>2018-08-19T12:39:19.000Z</time>
      </trkpt>
      <trkpt lat="45.31441" lon="4.46337">
        <ele>1148.8</ele>
        <time>2018-08-19T12:39:20.000Z</time>
      </trkpt>
      <trkpt lat="45.31442" lon="4.46339">
        <ele>1148.7</ele>
        <time>2018-08-19T12:39:21.000Z</time>
      </trkpt>
      <trkpt lat="45.31442" lon="4.46341">
        <ele>1148.7</ele>
        <time>2018-08-19T12:39:22.000Z</time>
      </trkpt>
      <trkpt lat="45.31442" lon="4.46343">
        <ele>1148.6</ele>
        <time>2018-08-19T12:39:23.000Z</time>
      </trkpt>
      <trkpt lat="45.31443" lon="4.46345">
        <ele>1148.6</ele>
        <time>2018-08-19T12:39:24.000Z</time>
      </trkpt>
      <trkpt lat="45.31443" lon="4.46346">
        <ele>1148.5</ele>
        <time>2018-08-19T12:39:25.000Z</time>
      </trkpt>
      <trkpt lat="45.31443" lon="4.46348">
        <ele>1148.5</ele>
        <time>2018-08-19T12:39:26.000Z</time>
      </trkpt>
      <trkpt lat="45.31444" lon="4.4635">
        <ele>1148.4</ele>
        <time>2018-08-19T12:39:27.000Z</time>
      </trkpt>
      <trkpt lat="45.31444" lon="4.46352">
        <ele>1148.4</ele>
        <time>2018-08-19T12:39:28.000Z</time>
      </trkpt>
      <trkpt lat="45.31444" lon="4.46354">
        <ele>1148.3</ele>
        <time>2018-08-19T12:39:29.000Z</time>
      </trkpt>
      <trkpt lat="45.31445" lon="4.46356">
        <ele>1148.3</ele>
        <time>2018-08-19T12:39:30.000Z</time>
      </trkpt>
      <trkpt lat="45.31445" lon="4.46358">
        <ele>1148.2</ele>
        <time>2018-08-19T12:39:31.000Z</time>
      </trkpt>
      <trkpt lat="45.31446" lon="4.46359">
        <ele>1148.2</ele>
        <time>2018-08-19T12:39:32.000Z</time>
      </trkpt>
      <trkpt lat="45.31446" lon="4.46361">
        <ele>1148.2</ele>
        <time>2018-08-19T12:39:33.000Z</time>
      </trkpt>
      <trkpt lat="45.31446" lon="4.46363">
        <ele>1148.1</ele>
        <time>2018-08-19T12:39:34.000Z</time>
      </trkpt>
      <trkpt lat="45.31447" lon="4.46365">
        <ele>1148.1</ele>
        <time>2018-08-19T12:39:35.000Z</time>
      </trkpt>
      <trkpt lat="45.31447" lon="4.46366">
        <ele>1148.1</ele>
        <time>2018-08-19T12:39:36.000Z</time>
      </trkpt>
      <trkpt lat="45.31448" lon="4.46368">
        <ele>1148</ele>
        <time>2018-08-19T12:39:37.000Z</time>
      </trkpt>
      <trkpt lat="45.31448" lon="4.46369">
        <ele>1148</ele>
        <time>2018-08-19T12:39:38.000Z</time>
      </trkpt>
      <trkpt lat="45.31449" lon="4.46371">
        <ele>1148</ele>
        <time>2018-08-19T12:39:39.000Z</time>
      </trkpt>
      <trkpt lat="45.3145" lon="4.46373">
        <ele>1148</ele>
        <time>2018-08-19T12:39:40.000Z</time>
      </trkpt>
      <trkpt lat="45.3145" lon="4.46374">
        <ele>1148</ele>
        <time>2018-08-19T12:39:41.000Z</time>
      </trkpt>
      <trkpt lat="45.31451" lon="4.46376">
        <ele>1147.9</ele>
        <time>2018-08-19T12:39:42.000Z</time>
      </trkpt>
      <trkpt lat="45.31451" lon="4.46377">
        <ele>1147.9</ele>
        <time>2018-08-19T12:39:43.000Z</time>
      </trkpt>
      <trkpt lat="45.31452" lon="4.46379">
        <ele>1147.9</ele>
        <time>2018-08-19T12:39:44.000Z</time>
      </trkpt>
      <trkpt lat="45.31453" lon="4.46381">
        <ele>1147.9</ele>
        <time>2018-08-19T12:39:45.000Z</time>
      </trkpt>
      <trkpt lat="45.31453" lon="4.46382">
        <ele>1147.9</ele>
        <time>2018-08-19T12:39:46.000Z</time>
      </trkpt>
      <trkpt lat="45.31454" lon="4.46384">
        <ele>1147.8</ele>
        <time>2018-08-19T12:39:47.000Z</time>
      </trkpt>
      <trkpt lat="45.31454" lon="4.46385">
        <ele>1147.8</ele>
        <time>2018-08-19T12:39:48.000Z</time>
      </trkpt>
      <trkpt lat="45.31455" lon="4.46387">
        <ele>1147.8</ele>
        <time>2018-08-19T12:39:49.000Z</time>
      </trkpt>
      <trkpt lat="45.31456" lon="4.46388">
        <ele>1147.8</ele>
        <time>2018-08-19T12:39:50.000Z</time>
      </trkpt>
      <trkpt lat="45.31457" lon="4.4639">
        <ele>1147.8</ele>
        <time>2018-08-19T12:39:51.000Z</time>
      </trkpt>
      <trkpt lat="45.31457" lon="4.46391">
        <ele>1147.8</ele>
        <time>2018-08-19T12:39:52.000Z</time>
      </trkpt>
      <trkpt lat="45.31458" lon="4.46392">
        <ele>1147.8</ele>
        <time>2018-08-19T12:39:53.000Z</time>
      </trkpt>
      <trkpt lat="45.31459" lon="4.46394">
        <ele>1147.8</ele>
        <time>2018-08-19T12:39:54.000Z</time>
      </trkpt>
      <trkpt lat="45.3146" lon="4.46395">
        <ele>1147.8</ele>
        <time>2018-08-19T12:39:55.000Z</time>
      </trkpt>
      <trkpt lat="45.3146" lon="4.46396">
        <ele>1147.8</ele>
        <time>2018-08-19T12:39:56.000Z</time>
      </trkpt>
      <trkpt lat="45.31461" lon="4.46397">
        <ele>1147.8</ele>
        <time>2018-08-19T12:39:57.000Z</time>
      </trkpt>
      <trkpt lat="45.31462" lon="4.46398">
        <ele>1147.8</ele>
        <time>2018-08-19T12:39:58.000Z</time>
      </trkpt>
      <trkpt lat="45.31463" lon="4.46399">
        <ele>1147.9</ele>
        <time>2018-08-19T12:39:59.000Z</time>
      </trkpt>
      <trkpt lat="45.31464" lon="4.464">
        <ele>1147.9</ele>
        <time>2018-08-19T12:40:00.000Z</time>
      </trkpt>
      <trkpt lat="45.31465" lon="4.46401">
        <ele>1148</ele>
        <time>2018-08-19T12:40:01.000Z</time>
      </trkpt>
      <trkpt lat="45.31466" lon="4.46402">
        <ele>1148</ele>
        <time>2018-08-19T12:40:02.000Z</time>
      </trkpt>
      <trkpt lat="45.31467" lon="4.46403">
        <ele>1148.1</ele>
        <time>2018-08-19T12:40:03.000Z</time>
      </trkpt>
      <trkpt lat="45.31468" lon="4.46403">
        <ele>1148.1</ele>
        <time>2018-08-19T12:40:04.000Z</time>
      </trkpt>
      <trkpt lat="45.3147" lon="4.46404">
        <ele>1148.2</ele>
        <time>2018-08-19T12:40:05.000Z</time>
      </trkpt>
      <trkpt lat="45.31471" lon="4.46404">
        <ele>1148.3</ele>
        <time>2018-08-19T12:40:06.000Z</time>
      </trkpt>
      <trkpt lat="45.31472" lon="4.46405">
        <ele>1148.3</ele>
        <time>2018-08-19T12:40:07.000Z</time>
      </trkpt>
      <trkpt lat="45.31473" lon="4.46406">
        <ele>1148.4</ele>
        <time>2018-08-19T12:40:08.000Z</time>
      </trkpt>
      <trkpt lat="45.31474" lon="4.46406">
        <ele>1148.5</ele>
        <time>2018-08-19T12:40:09.000Z</time>
      </trkpt>
      <trkpt lat="45.31475" lon="4.46407">
        <ele>1148.5</ele>
        <time>2018-08-19T12:40:10.000Z</time>
      </trkpt>
      <trkpt lat="45.31477" lon="4.46407">
        <ele>1148.6</ele>
        <time>2018-08-19T12:40:11.000Z</time>
      </trkpt>
      <trkpt lat="45.31478" lon="4.46408">
        <ele>1148.7</ele>
        <time>2018-08-19T12:40:12.000Z</time>
      </trkpt>
      <trkpt lat="45.31479" lon="4.46409">
        <ele>1148.7</ele>
        <time>2018-08-19T12:40:13.000Z</time>
      </trkpt>
      <trkpt lat="45.3148" lon="4.46409">
        <ele>1148.8</ele>
        <time>2018-08-19T12:40:14.000Z</time>
      </trkpt>
      <trkpt lat="45.31481" lon="4.4641">
        <ele>1148.9</ele>
        <time>2018-08-19T12:40:15.000Z</time>
      </trkpt>
      <trkpt lat="45.31483" lon="4.46411">
        <ele>1148.9</ele>
        <time>2018-08-19T12:40:16.000Z</time>
      </trkpt>
      <trkpt lat="45.31484" lon="4.46412">
        <ele>1149</ele>
        <time>2018-08-19T12:40:17.000Z</time>
      </trkpt>
      <trkpt lat="45.31485" lon="4.46412">
        <ele>1149</ele>
        <time>2018-08-19T12:40:18.000Z</time>
      </trkpt>
      <trkpt lat="45.31486" lon="4.46413">
        <ele>1149.1</ele>
        <time>2018-08-19T12:40:19.000Z</time>
      </trkpt>
      <trkpt lat="45.31487" lon="4.46414">
        <ele>1149.1</ele>
        <time>2018-08-19T12:40:20.000Z</time>
      </trkpt>
      <trkpt lat="45.31488" lon="4.46415">
        <ele>1149.2</ele>
        <time>2018-08-19T12:40:21.000Z</time>
      </trkpt>
      <trkpt lat="45.3149" lon="4.46416">
        <ele>1149.2</ele>
        <time>2018-08-19T12:40:22.000Z</time>
      </trkpt>
      <trkpt lat="45.31491" lon="4.46417">
        <ele>1149.2</ele>
        <time>2018-08-19T12:40:23.000Z</time>
      </trkpt>
      <trkpt lat="45.31492" lon="4.46418">
        <ele>1149.4</ele>
        <time>2018-08-19T12:40:24.000Z</time>
      </trkpt>
      <trkpt lat="45.31493" lon="4.46419">
        <ele>1149.5</ele>
        <time>2018-08-19T12:40:25.000Z</time>
      </trkpt>
      <trkpt lat="45.31494" lon="4.4642">
        <ele>1149.6</ele>
        <time>2018-08-19T12:40:26.000Z</time>
      </trkpt>
      <trkpt lat="45.31496" lon="4.46421">
        <ele>1149.7</ele>
        <time>2018-08-19T12:40:27.000Z</time>
      </trkpt>
      <trkpt lat="45.31497" lon="4.46422">
        <ele>1149.9</ele>
        <time>2018-08-19T12:40:28.000Z</time>
      </trkpt>
      <trkpt lat="45.31498" lon="4.46423">
        <ele>1150</ele>
        <time>2018-08-19T12:40:29.000Z</time>
      </trkpt>
      <trkpt lat="45.31499" lon="4.46424">
        <ele>1150.1</ele>
        <time>2018-08-19T12:40:30.000Z</time>
      </trkpt>
      <trkpt lat="45.315" lon="4.46425">
        <ele>1150.2</ele>
        <time>2018-08-19T12:40:31.000Z</time>
      </trkpt>
      <trkpt lat="45.31502" lon="4.46426">
        <ele>1150.3</ele>
        <time>2018-08-19T12:40:32.000Z</time>
      </trkpt>
      <trkpt lat="45.31503" lon="4.46428">
        <ele>1150.4</ele>
        <time>2018-08-19T12:40:33.000Z</time>
      </trkpt>
      <trkpt lat="45.31504" lon="4.46429">
        <ele>1150.5</ele>
        <time>2018-08-19T12:40:34.000Z</time>
      </trkpt>
      <trkpt lat="45.31505" lon="4.4643">
        <ele>1150.6</ele>
        <time>2018-08-19T12:40:35.000Z</time>
      </trkpt>
      <trkpt lat="45.31507" lon="4.46431">
        <ele>1150.7</ele>
        <time>2018-08-19T12:40:36.000Z</time>
      </trkpt>
      <trkpt lat="45.31508" lon="4.46432">
        <ele>1150.8</ele>
        <time>2018-08-19T12:40:37.000Z</time>
      </trkpt>
      <trkpt lat="45.31509" lon="4.46434">
        <ele>1150.9</ele>
        <time>2018-08-19T12:40:38.000Z</time>
      </trkpt>
      <trkpt lat="45.3151" lon="4.46435">
        <ele>1151</ele>
        <time>2018-08-19T12:40:39.000Z</time>
      </trkpt>
      <trkpt lat="45.31512" lon="4.46436">
        <ele>1151.1</ele>
        <time>2018-08-19T12:40:40.000Z</time>
      </trkpt>
      <trkpt lat="45.31513" lon="4.46437">
        <ele>1151.2</ele>
        <time>2018-08-19T12:40:41.000Z</time>
      </trkpt>
      <trkpt lat="45.31514" lon="4.46439">
        <ele>1151.2</ele>
        <time>2018-08-19T12:40:42.000Z</time>
      </trkpt>
      <trkpt lat="45.31515" lon="4.4644">
        <ele>1151.3</ele>
        <time>2018-08-19T12:40:43.000Z</time>
      </trkpt>
      <trkpt lat="45.31517" lon="4.46441">
        <ele>1151.4</ele>
        <time>2018-08-19T12:40:44.000Z</time>
      </trkpt>
      <trkpt lat="45.31518" lon="4.46443">
        <ele>1151.4</ele>
        <time>2018-08-19T12:40:45.000Z</time>
      </trkpt>
      <trkpt lat="45.31519" lon="4.46444">
        <ele>1151.5</ele>
        <time>2018-08-19T12:40:46.000Z</time>
      </trkpt>
      <trkpt lat="45.31521" lon="4.46445">
        <ele>1151.6</ele>
        <time>2018-08-19T12:40:47.000Z</time>
      </trkpt>
      <trkpt lat="45.31522" lon="4.46447">
        <ele>1151.6</ele>
        <time>2018-08-19T12:40:48.000Z</time>
      </trkpt>
      <trkpt lat="45.31523" lon="4.46448">
        <ele>1151.7</ele>
        <time>2018-08-19T12:40:49.000Z</time>
      </trkpt>
      <trkpt lat="45.31524" lon="4.4645">
        <ele>1151.7</ele>
        <time>2018-08-19T12:40:50.000Z</time>
      </trkpt>
      <trkpt lat="45.31526" lon="4.46451">
        <ele>1151.8</ele>
        <time>2018-08-19T12:40:51.000Z</time>
      </trkpt>
      <trkpt lat="45.31527" lon="4.46453">
        <ele>1151.8</ele>
        <time>2018-08-19T12:40:52.000Z</time>
      </trkpt>
      <trkpt lat="45.31528" lon="4.46455">
        <ele>1151.9</ele>
        <time>2018-08-19T12:40:53.000Z</time>
      </trkpt>
      <trkpt lat="45.31529" lon="4.46456">
        <ele>1151.9</ele>
        <time>2018-08-19T12:40:54.000Z</time>
      </trkpt>
      <trkpt lat="45.31531" lon="4.46458">
        <ele>1151.9</ele>
        <time>2018-08-19T12:40:55.000Z</time>
      </trkpt>
      <trkpt lat="45.31532" lon="4.4646">
        <ele>1151.9</ele>
        <time>2018-08-19T12:40:56.000Z</time>
      </trkpt>
      <trkpt lat="45.31533" lon="4.46462">
        <ele>1151.9</ele>
        <time>2018-08-19T12:40:57.000Z</time>
      </trkpt>
      <trkpt lat="45.31534" lon="4.46464">
        <ele>1152</ele>
        <time>2018-08-19T12:40:58.000Z</time>
      </trkpt>
      <trkpt lat="45.31534" lon="4.46466">
        <ele>1152</ele>
        <time>2018-08-19T12:40:59.000Z</time>
      </trkpt>
      <trkpt lat="45.31535" lon="4.46468">
        <ele>1151.9</ele>
        <time>2018-08-19T12:41:00.000Z</time>
      </trkpt>
      <trkpt lat="45.31536" lon="4.4647">
        <ele>1151.9</ele>
        <time>2018-08-19T12:41:01.000Z</time>
      </trkpt>
      <trkpt lat="45.31536" lon="4.46472">
        <ele>1151.9</ele>
        <time>2018-08-19T12:41:02.000Z</time>
      </trkpt>
      <trkpt lat="45.31537" lon="4.46474">
        <ele>1151.9</ele>
        <time>2018-08-19T12:41:03.000Z</time>
      </trkpt>
      <trkpt lat="45.31537" lon="4.46476">
        <ele>1151.9</ele>
        <time>2018-08-19T12:41:04.000Z</time>
      </trkpt>
      <trkpt lat="45.31538" lon="4.46478">
        <ele>1151.9</ele>
        <time>2018-08-19T12:41:05.000Z</time>
      </trkpt>
      <trkpt lat="45.31539" lon="4.4648">
        <ele>1151.8</ele>
        <time>2018-08-19T12:41:06.000Z</time>
      </trkpt>
      <trkpt lat="45.31539" lon="4.46481">
        <ele>1151.8</ele>
        <time>2018-08-19T12:41:07.000Z</time>
      </trkpt>
      <trkpt lat="45.3154" lon="4.46483">
        <ele>1151.8</ele>
        <time>2018-08-19T12:41:08.000Z</time>
      </trkpt>
      <trkpt lat="45.31541" lon="4.46485">
        <ele>1151.8</ele>
        <time>2018-08-19T12:41:09.000Z</time>
      </trkpt>
      <trkpt lat="45.31541" lon="4.46487">
        <ele>1151.7</ele>
        <time>2018-08-19T12:41:10.000Z</time>
      </trkpt>
      <trkpt lat="45.31542" lon="4.46488">
        <ele>1151.7</ele>
        <time>2018-08-19T12:41:11.000Z</time>
      </trkpt>
      <trkpt lat="45.31543" lon="4.4649">
        <ele>1151.7</ele>
        <time>2018-08-19T12:41:12.000Z</time>
      </trkpt>
      <trkpt lat="45.31544" lon="4.46492">
        <ele>1151.6</ele>
        <time>2018-08-19T12:41:13.000Z</time>
      </trkpt>
      <trkpt lat="45.31544" lon="4.46493">
        <ele>1151.6</ele>
        <time>2018-08-19T12:41:14.000Z</time>
      </trkpt>
      <trkpt lat="45.31545" lon="4.46495">
        <ele>1151.6</ele>
        <time>2018-08-19T12:41:15.000Z</time>
      </trkpt>
      <trkpt lat="45.31546" lon="4.46497">
        <ele>1151.5</ele>
        <time>2018-08-19T12:41:16.000Z</time>
      </trkpt>
      <trkpt lat="45.31547" lon="4.46498">
        <ele>1151.5</ele>
        <time>2018-08-19T12:41:17.000Z</time>
      </trkpt>
      <trkpt lat="45.31548" lon="4.465">
        <ele>1151.4</ele>
        <time>2018-08-19T12:41:18.000Z</time>
      </trkpt>
      <trkpt lat="45.31549" lon="4.46501">
        <ele>1151.4</ele>
        <time>2018-08-19T12:41:19.000Z</time>
      </trkpt>
      <trkpt lat="45.3155" lon="4.46503">
        <ele>1151.4</ele>
        <time>2018-08-19T12:41:20.000Z</time>
      </trkpt>
      <trkpt lat="45.31552" lon="4.46504">
        <ele>1151.5</ele>
        <time>2018-08-19T12:41:21.000Z</time>
      </trkpt>
      <trkpt lat="45.31553" lon="4.46506">
        <ele>1151.5</ele>
        <time>2018-08-19T12:41:22.000Z</time>
      </trkpt>
      <trkpt lat="45.31554" lon="4.46507">
        <ele>1151.5</ele>
        <time>2018-08-19T12:41:23.000Z</time>
      </trkpt>
      <trkpt lat="45.31555" lon="4.46509">
        <ele>1151.5</ele>
        <time>2018-08-19T12:41:24.000Z</time>
      </trkpt>
      <trkpt lat="45.31556" lon="4.4651">
        <ele>1151.5</ele>
        <time>2018-08-19T12:41:25.000Z</time>
      </trkpt>
      <trkpt lat="45.31557" lon="4.46511">
        <ele>1151.5</ele>
        <time>2018-08-19T12:41:26.000Z</time>
      </trkpt>
      <trkpt lat="45.31559" lon="4.46512">
        <ele>1151.5</ele>
        <time>2018-08-19T12:41:27.000Z</time>
      </trkpt>
      <trkpt lat="45.3156" lon="4.46513">
        <ele>1151.5</ele>
        <time>2018-08-19T12:41:28.000Z</time>
      </trkpt>
      <trkpt lat="45.31561" lon="4.46514">
        <ele>1151.4</ele>
        <time>2018-08-19T12:41:29.000Z</time>
      </trkpt>
      <trkpt lat="45.31562" lon="4.46515">
        <ele>1151.4</ele>
        <time>2018-08-19T12:41:30.000Z</time>
      </trkpt>
      <trkpt lat="45.31564" lon="4.46516">
        <ele>1151.4</ele>
        <time>2018-08-19T12:41:31.000Z</time>
      </trkpt>
      <trkpt lat="45.31565" lon="4.46517">
        <ele>1151.4</ele>
        <time>2018-08-19T12:41:32.000Z</time>
      </trkpt>
      <trkpt lat="45.31567" lon="4.46518">
        <ele>1151.4</ele>
        <time>2018-08-19T12:41:33.000Z</time>
      </trkpt>
      <trkpt lat="45.31568" lon="4.46518">
        <ele>1151.3</ele>
        <time>2018-08-19T12:41:34.000Z</time>
      </trkpt>
      <trkpt lat="45.31569" lon="4.46519">
        <ele>1151.3</ele>
        <time>2018-08-19T12:41:35.000Z</time>
      </trkpt>
      <trkpt lat="45.31571" lon="4.4652">
        <ele>1151.3</ele>
        <time>2018-08-19T12:41:36.000Z</time>
      </trkpt>
      <trkpt lat="45.31572" lon="4.46521">
        <ele>1151.3</ele>
        <time>2018-08-19T12:41:37.000Z</time>
      </trkpt>
      <trkpt lat="45.31574" lon="4.46521">
        <ele>1151.2</ele>
        <time>2018-08-19T12:41:38.000Z</time>
      </trkpt>
      <trkpt lat="45.31575" lon="4.46522">
        <ele>1151.2</ele>
        <time>2018-08-19T12:41:39.000Z</time>
      </trkpt>
      <trkpt lat="45.31576" lon="4.46522">
        <ele>1151.2</ele>
        <time>2018-08-19T12:41:40.000Z</time>
      </trkpt>
      <trkpt lat="45.31578" lon="4.46523">
        <ele>1151.1</ele>
        <time>2018-08-19T12:41:41.000Z</time>
      </trkpt>
      <trkpt lat="45.31579" lon="4.46524">
        <ele>1151.1</ele>
        <time>2018-08-19T12:41:42.000Z</time>
      </trkpt>
      <trkpt lat="45.31581" lon="4.46524">
        <ele>1151.1</ele>
        <time>2018-08-19T12:41:43.000Z</time>
      </trkpt>
      <trkpt lat="45.31582" lon="4.46525">
        <ele>1151</ele>
        <time>2018-08-19T12:41:44.000Z</time>
      </trkpt>
      <trkpt lat="45.31584" lon="4.46526">
        <ele>1151</ele>
        <time>2018-08-19T12:41:45.000Z</time>
      </trkpt>
      <trkpt lat="45.31585" lon="4.46526">
        <ele>1151</ele>
        <time>2018-08-19T12:41:46.000Z</time>
      </trkpt>
      <trkpt lat="45.31586" lon="4.46527">
        <ele>1150.9</ele>
        <time>2018-08-19T12:41:47.000Z</time>
      </trkpt>
      <trkpt lat="45.31588" lon="4.46527">
        <ele>1150.9</ele>
        <time>2018-08-19T12:41:48.000Z</time>
      </trkpt>
      <trkpt lat="45.31589" lon="4.46528">
        <ele>1150.9</ele>
        <time>2018-08-19T12:41:49.000Z</time>
      </trkpt>
      <trkpt lat="45.31591" lon="4.46529">
        <ele>1150.9</ele>
        <time>2018-08-19T12:41:50.000Z</time>
      </trkpt>
      <trkpt lat="45.31592" lon="4.46529">
        <ele>1150.8</ele>
        <time>2018-08-19T12:41:51.000Z</time>
      </trkpt>
      <trkpt lat="45.31593" lon="4.4653">
        <ele>1150.8</ele>
        <time>2018-08-19T12:41:52.000Z</time>
      </trkpt>
      <trkpt lat="45.31595" lon="4.4653">
        <ele>1150.8</ele>
        <time>2018-08-19T12:41:53.000Z</time>
      </trkpt>
      <trkpt lat="45.31596" lon="4.46531">
        <ele>1150.7</ele>
        <time>2018-08-19T12:41:54.000Z</time>
      </trkpt>
      <trkpt lat="45.31597" lon="4.46532">
        <ele>1150.7</ele>
        <time>2018-08-19T12:41:55.000Z</time>
      </trkpt>
      <trkpt lat="45.31599" lon="4.46532">
        <ele>1150.6</ele>
        <time>2018-08-19T12:41:56.000Z</time>
      </trkpt>
      <trkpt lat="45.316" lon="4.46533">
        <ele>1150.6</ele>
        <time>2018-08-19T12:41:57.000Z</time>
      </trkpt>
      <trkpt lat="45.31602" lon="4.46534">
        <ele>1150.6</ele>
        <time>2018-08-19T12:41:58.000Z</time>
      </trkpt>
      <trkpt lat="45.31603" lon="4.46534">
        <ele>1150.5</ele>
        <time>2018-08-19T12:41:59.000Z</time>
      </trkpt>
      <trkpt lat="45.31604" lon="4.46535">
        <ele>1150.5</ele>
        <time>2018-08-19T12:42:00.000Z</time>
      </trkpt>
      <trkpt lat="45.31606" lon="4.46536">
        <ele>1150.4</ele>
        <time>2018-08-19T12:42:01.000Z</time>
      </trkpt>
      <trkpt lat="45.31607" lon="4.46537">
        <ele>1150.4</ele>
        <time>2018-08-19T12:42:02.000Z</time>
      </trkpt>
      <trkpt lat="45.31609" lon="4.46537">
        <ele>1150.3</ele>
        <time>2018-08-19T12:42:03.000Z</time>
      </trkpt>
      <trkpt lat="45.3161" lon="4.46538">
        <ele>1150.3</ele>
        <time>2018-08-19T12:42:04.000Z</time>
      </trkpt>
      <trkpt lat="45.31611" lon="4.46539">
        <ele>1150.2</ele>
        <time>2018-08-19T12:42:05.000Z</time>
      </trkpt>
      <trkpt lat="45.31613" lon="4.4654">
        <ele>1150.2</ele>
        <time>2018-08-19T12:42:06.000Z</time>
      </trkpt>
      <trkpt lat="45.31614" lon="4.46541">
        <ele>1150.1</ele>
        <time>2018-08-19T12:42:07.000Z</time>
      </trkpt>
      <trkpt lat="45.31615" lon="4.46542">
        <ele>1150</ele>
        <time>2018-08-19T12:42:08.000Z</time>
      </trkpt>
      <trkpt lat="45.31617" lon="4.46543">
        <ele>1150</ele>
        <time>2018-08-19T12:42:09.000Z</time>
      </trkpt>
      <trkpt lat="45.31618" lon="4.46544">
        <ele>1149.9</ele>
        <time>2018-08-19T12:42:10.000Z</time>
      </trkpt>
      <trkpt lat="45.31619" lon="4.46545">
        <ele>1149.8</ele>
        <time>2018-08-19T12:42:11.000Z</time>
      </trkpt>
      <trkpt lat="45.31621" lon="4.46546">
        <ele>1149.8</ele>
        <time>2018-08-19T12:42:12.000Z</time>
      </trkpt>
      <trkpt lat="45.31622" lon="4.46547">
        <ele>1149.7</ele>
        <time>2018-08-19T12:42:13.000Z</time>
      </trkpt>
      <trkpt lat="45.31623" lon="4.46549">
        <ele>1149.6</ele>
        <time>2018-08-19T12:42:14.000Z</time>
      </trkpt>
      <trkpt lat="45.31625" lon="4.4655">
        <ele>1149.5</ele>
        <time>2018-08-19T12:42:15.000Z</time>
      </trkpt>
      <trkpt lat="45.31626" lon="4.46551">
        <ele>1149.4</ele>
        <time>2018-08-19T12:42:16.000Z</time>
      </trkpt>
      <trkpt lat="45.31627" lon="4.46553">
        <ele>1149.3</ele>
        <time>2018-08-19T12:42:17.000Z</time>
      </trkpt>
      <trkpt lat="45.31628" lon="4.46554">
        <ele>1149.2</ele>
        <time>2018-08-19T12:42:18.000Z</time>
      </trkpt>
      <trkpt lat="45.31629" lon="4.46556">
        <ele>1149.2</ele>
        <time>2018-08-19T12:42:19.000Z</time>
      </trkpt>
      <trkpt lat="45.31631" lon="4.46557">
        <ele>1149.1</ele>
        <time>2018-08-19T12:42:20.000Z</time>
      </trkpt>
      <trkpt lat="45.31632" lon="4.46559">
        <ele>1149</ele>
        <time>2018-08-19T12:42:21.000Z</time>
      </trkpt>
      <trkpt lat="45.31633" lon="4.46561">
        <ele>1148.9</ele>
        <time>2018-08-19T12:42:22.000Z</time>
      </trkpt>
      <trkpt lat="45.31633" lon="4.46562">
        <ele>1148.8</ele>
        <time>2018-08-19T12:42:23.000Z</time>
      </trkpt>
      <trkpt lat="45.31634" lon="4.46564">
        <ele>1148.7</ele>
        <time>2018-08-19T12:42:24.000Z</time>
      </trkpt>
      <trkpt lat="45.31635" lon="4.46566">
        <ele>1148.6</ele>
        <time>2018-08-19T12:42:25.000Z</time>
      </trkpt>
      <trkpt lat="45.31636" lon="4.46568">
        <ele>1148.5</ele>
        <time>2018-08-19T12:42:26.000Z</time>
      </trkpt>
      <trkpt lat="45.31636" lon="4.4657">
        <ele>1148.3</ele>
        <time>2018-08-19T12:42:27.000Z</time>
      </trkpt>
      <trkpt lat="45.31637" lon="4.46571">
        <ele>1148.2</ele>
        <time>2018-08-19T12:42:28.000Z</time>
      </trkpt>
      <trkpt lat="45.31638" lon="4.46573">
        <ele>1148.1</ele>
        <time>2018-08-19T12:42:29.000Z</time>
      </trkpt>
      <trkpt lat="45.31638" lon="4.46575">
        <ele>1148</ele>
        <time>2018-08-19T12:42:30.000Z</time>
      </trkpt>
      <trkpt lat="45.31639" lon="4.46577">
        <ele>1147.9</ele>
        <time>2018-08-19T12:42:31.000Z</time>
      </trkpt>
      <trkpt lat="45.31639" lon="4.46579">
        <ele>1147.8</ele>
        <time>2018-08-19T12:42:32.000Z</time>
      </trkpt>
      <trkpt lat="45.3164" lon="4.46581">
        <ele>1147.7</ele>
        <time>2018-08-19T12:42:33.000Z</time>
      </trkpt>
      <trkpt lat="45.3164" lon="4.46582">
        <ele>1147.6</ele>
        <time>2018-08-19T12:42:34.000Z</time>
      </trkpt>
      <trkpt lat="45.31641" lon="4.46584">
        <ele>1147.6</ele>
        <time>2018-08-19T12:42:35.000Z</time>
      </trkpt>
      <trkpt lat="45.31641" lon="4.46586">
        <ele>1147.6</ele>
        <time>2018-08-19T12:42:36.000Z</time>
      </trkpt>
      <trkpt lat="45.31642" lon="4.46588">
        <ele>1147.6</ele>
        <time>2018-08-19T12:42:37.000Z</time>
      </trkpt>
      <trkpt lat="45.31642" lon="4.4659">
        <ele>1147.6</ele>
        <time>2018-08-19T12:42:38.000Z</time>
      </trkpt>
      <trkpt lat="45.31643" lon="4.46592">
        <ele>1147.7</ele>
        <time>2018-08-19T12:42:39.000Z</time>
      </trkpt>
      <trkpt lat="45.31643" lon="4.46594">
        <ele>1147.7</ele>
        <time>2018-08-19T12:42:40.000Z</time>
      </trkpt>
      <trkpt lat="45.31643" lon="4.46596">
        <ele>1147.7</ele>
        <time>2018-08-19T12:42:41.000Z</time>
      </trkpt>
      <trkpt lat="45.31644" lon="4.46598">
        <ele>1147.8</ele>
        <time>2018-08-19T12:42:42.000Z</time>
      </trkpt>
      <trkpt lat="45.31644" lon="4.466">
        <ele>1147.8</ele>
        <time>2018-08-19T12:42:43.000Z</time>
      </trkpt>
      <trkpt lat="45.31645" lon="4.46602">
        <ele>1147.8</ele>
        <time>2018-08-19T12:42:44.000Z</time>
      </trkpt>
      <trkpt lat="45.31645" lon="4.46604">
        <ele>1147.8</ele>
        <time>2018-08-19T12:42:45.000Z</time>
      </trkpt>
      <trkpt lat="45.31645" lon="4.46606">
        <ele>1147.9</ele>
        <time>2018-08-19T12:42:46.000Z</time>
      </trkpt>
      <trkpt lat="45.31646" lon="4.46608">
        <ele>1147.9</ele>
        <time>2018-08-19T12:42:47.000Z</time>
      </trkpt>
      <trkpt lat="45.31646" lon="4.4661">
        <ele>1147.9</ele>
        <time>2018-08-19T12:42:48.000Z</time>
      </trkpt>
      <trkpt lat="45.31647" lon="4.46612">
        <ele>1148</ele>
        <time>2018-08-19T12:42:49.000Z</time>
      </trkpt>
      <trkpt lat="45.31647" lon="4.46614">
        <ele>1148</ele>
        <time>2018-08-19T12:42:50.000Z</time>
      </trkpt>
      <trkpt lat="45.31647" lon="4.46615">
        <ele>1148</ele>
        <time>2018-08-19T12:42:51.000Z</time>
      </trkpt>
      <trkpt lat="45.31648" lon="4.46617">
        <ele>1148.1</ele>
        <time>2018-08-19T12:42:52.000Z</time>
      </trkpt>
      <trkpt lat="45.31648" lon="4.46619">
        <ele>1148.1</ele>
        <time>2018-08-19T12:42:53.000Z</time>
      </trkpt>
      <trkpt lat="45.31649" lon="4.46621">
        <ele>1148.2</ele>
        <time>2018-08-19T12:42:54.000Z</time>
      </trkpt>
      <trkpt lat="45.31649" lon="4.46623">
        <ele>1148.2</ele>
        <time>2018-08-19T12:42:55.000Z</time>
      </trkpt>
      <trkpt lat="45.3165" lon="4.46625">
        <ele>1148.2</ele>
        <time>2018-08-19T12:42:56.000Z</time>
      </trkpt>
      <trkpt lat="45.3165" lon="4.46627">
        <ele>1148.3</ele>
        <time>2018-08-19T12:42:57.000Z</time>
      </trkpt>
      <trkpt lat="45.31651" lon="4.46629">
        <ele>1148.3</ele>
        <time>2018-08-19T12:42:58.000Z</time>
      </trkpt>
      <trkpt lat="45.31651" lon="4.46631">
        <ele>1148.3</ele>
        <time>2018-08-19T12:42:59.000Z</time>
      </trkpt>
      <trkpt lat="45.31652" lon="4.46633">
        <ele>1148.4</ele>
        <time>2018-08-19T12:43:00.000Z</time>
      </trkpt>
      <trkpt lat="45.31652" lon="4.46635">
        <ele>1148.4</ele>
        <time>2018-08-19T12:43:01.000Z</time>
      </trkpt>
      <trkpt lat="45.31653" lon="4.46637">
        <ele>1148.4</ele>
        <time>2018-08-19T12:43:02.000Z</time>
      </trkpt>
      <trkpt lat="45.31653" lon="4.46639">
        <ele>1148.5</ele>
        <time>2018-08-19T12:43:03.000Z</time>
      </trkpt>
      <trkpt lat="45.31654" lon="4.46641">
        <ele>1148.5</ele>
        <time>2018-08-19T12:43:04.000Z</time>
      </trkpt>
      <trkpt lat="45.31654" lon="4.46643">
        <ele>1148.6</ele>
        <time>2018-08-19T12:43:05.000Z</time>
      </trkpt>
      <trkpt lat="45.31655" lon="4.46645">
        <ele>1148.6</ele>
        <time>2018-08-19T12:43:06.000Z</time>
      </trkpt>
      <trkpt lat="45.31655" lon="4.46647">
        <ele>1148.7</ele>
        <time>2018-08-19T12:43:07.000Z</time>
      </trkpt>
      <trkpt lat="45.31655" lon="4.46649">
        <ele>1148.7</ele>
        <time>2018-08-19T12:43:08.000Z</time>
      </trkpt>
      <trkpt lat="45.31656" lon="4.4665">
        <ele>1148.7</ele>
        <time>2018-08-19T12:43:09.000Z</time>
      </trkpt>
      <trkpt lat="45.31656" lon="4.46652">
        <ele>1148.8</ele>
        <time>2018-08-19T12:43:10.000Z</time>
      </trkpt>
      <trkpt lat="45.31657" lon="4.46654">
        <ele>1148.8</ele>
        <time>2018-08-19T12:43:11.000Z</time>
      </trkpt>
      <trkpt lat="45.31657" lon="4.46656">
        <ele>1148.9</ele>
        <time>2018-08-19T12:43:12.000Z</time>
      </trkpt>
      <trkpt lat="45.31658" lon="4.46658">
        <ele>1148.9</ele>
        <time>2018-08-19T12:43:13.000Z</time>
      </trkpt>
      <trkpt lat="45.31658" lon="4.4666">
        <ele>1149</ele>
        <time>2018-08-19T12:43:14.000Z</time>
      </trkpt>
      <trkpt lat="45.31659" lon="4.46662">
        <ele>1149</ele>
        <time>2018-08-19T12:43:15.000Z</time>
      </trkpt>
      <trkpt lat="45.31659" lon="4.46664">
        <ele>1149.1</ele>
        <time>2018-08-19T12:43:16.000Z</time>
      </trkpt>
      <trkpt lat="45.3166" lon="4.46666">
        <ele>1149.1</ele>
        <time>2018-08-19T12:43:17.000Z</time>
      </trkpt>
      <trkpt lat="45.31661" lon="4.46668">
        <ele>1149.3</ele>
        <time>2018-08-19T12:43:18.000Z</time>
      </trkpt>
      <trkpt lat="45.31661" lon="4.4667">
        <ele>1149.5</ele>
        <time>2018-08-19T12:43:19.000Z</time>
      </trkpt>
      <trkpt lat="45.31662" lon="4.46672">
        <ele>1149.8</ele>
        <time>2018-08-19T12:43:20.000Z</time>
      </trkpt>
      <trkpt lat="45.31662" lon="4.46674">
        <ele>1150</ele>
        <time>2018-08-19T12:43:21.000Z</time>
      </trkpt>
      <trkpt lat="45.31663" lon="4.46675">
        <ele>1150.2</ele>
        <time>2018-08-19T12:43:22.000Z</time>
      </trkpt>
      <trkpt lat="45.31663" lon="4.46677">
        <ele>1150.5</ele>
        <time>2018-08-19T12:43:23.000Z</time>
      </trkpt>
      <trkpt lat="45.31664" lon="4.46679">
        <ele>1150.7</ele>
        <time>2018-08-19T12:43:24.000Z</time>
      </trkpt>
      <trkpt lat="45.31664" lon="4.46681">
        <ele>1150.9</ele>
        <time>2018-08-19T12:43:25.000Z</time>
      </trkpt>
      <trkpt lat="45.31665" lon="4.46683">
        <ele>1151.2</ele>
        <time>2018-08-19T12:43:26.000Z</time>
      </trkpt>
      <trkpt lat="45.31665" lon="4.46685">
        <ele>1151.4</ele>
        <time>2018-08-19T12:43:27.000Z</time>
      </trkpt>
      <trkpt lat="45.31666" lon="4.46687">
        <ele>1151.6</ele>
        <time>2018-08-19T12:43:28.000Z</time>
      </trkpt>
      <trkpt lat="45.31666" lon="4.46688">
        <ele>1151.9</ele>
        <time>2018-08-19T12:43:29.000Z</time>
      </trkpt>
      <trkpt lat="45.31666" lon="4.4669">
        <ele>1152.1</ele>
        <time>2018-08-19T12:43:30.000Z</time>
      </trkpt>
      <trkpt lat="45.31667" lon="4.46692">
        <ele>1152.3</ele>
        <time>2018-08-19T12:43:31.000Z</time>
      </trkpt>
      <trkpt lat="45.31667" lon="4.46694">
        <ele>1152.6</ele>
        <time>2018-08-19T12:43:32.000Z</time>
      </trkpt>
      <trkpt lat="45.31668" lon="4.46696">
        <ele>1152.8</ele>
        <time>2018-08-19T12:43:33.000Z</time>
      </trkpt>
      <trkpt lat="45.31668" lon="4.46698">
        <ele>1153.1</ele>
        <time>2018-08-19T12:43:34.000Z</time>
      </trkpt>
      <trkpt lat="45.31668" lon="4.46699">
        <ele>1153.3</ele>
        <time>2018-08-19T12:43:35.000Z</time>
      </trkpt>
      <trkpt lat="45.31669" lon="4.46701">
        <ele>1153.5</ele>
        <time>2018-08-19T12:43:36.000Z</time>
      </trkpt>
      <trkpt lat="45.31669" lon="4.46703">
        <ele>1153.8</ele>
        <time>2018-08-19T12:43:37.000Z</time>
      </trkpt>
      <trkpt lat="45.31669" lon="4.46705">
        <ele>1154</ele>
        <time>2018-08-19T12:43:38.000Z</time>
      </trkpt>
      <trkpt lat="45.3167" lon="4.46706">
        <ele>1154.3</ele>
        <time>2018-08-19T12:43:39.000Z</time>
      </trkpt>
      <trkpt lat="45.3167" lon="4.46708">
        <ele>1154.5</ele>
        <time>2018-08-19T12:43:40.000Z</time>
      </trkpt>
      <trkpt lat="45.3167" lon="4.4671">
        <ele>1154.7</ele>
        <time>2018-08-19T12:43:41.000Z</time>
      </trkpt>
      <trkpt lat="45.31671" lon="4.46712">
        <ele>1155</ele>
        <time>2018-08-19T12:43:42.000Z</time>
      </trkpt>
      <trkpt lat="45.31671" lon="4.46713">
        <ele>1155.2</ele>
        <time>2018-08-19T12:43:43.000Z</time>
      </trkpt>
      <trkpt lat="45.31671" lon="4.46715">
        <ele>1155.4</ele>
        <time>2018-08-19T12:43:44.000Z</time>
      </trkpt>
      <trkpt lat="45.31671" lon="4.46717">
        <ele>1155.6</ele>
        <time>2018-08-19T12:43:45.000Z</time>
      </trkpt>
      <trkpt lat="45.31671" lon="4.46719">
        <ele>1155.9</ele>
        <time>2018-08-19T12:43:46.000Z</time>
      </trkpt>
      <trkpt lat="45.31672" lon="4.4672">
        <ele>1156.1</ele>
        <time>2018-08-19T12:43:47.000Z</time>
      </trkpt>
      <trkpt lat="45.31672" lon="4.46722">
        <ele>1156.3</ele>
        <time>2018-08-19T12:43:48.000Z</time>
      </trkpt>
      <trkpt lat="45.31672" lon="4.46724">
        <ele>1156.5</ele>
        <time>2018-08-19T12:43:49.000Z</time>
      </trkpt>
      <trkpt lat="45.31672" lon="4.46725">
        <ele>1156.8</ele>
        <time>2018-08-19T12:43:50.000Z</time>
      </trkpt>
      <trkpt lat="45.31672" lon="4.46727">
        <ele>1157</ele>
        <time>2018-08-19T12:43:51.000Z</time>
      </trkpt>
      <trkpt lat="45.31673" lon="4.46729">
        <ele>1157.2</ele>
        <time>2018-08-19T12:43:52.000Z</time>
      </trkpt>
      <trkpt lat="45.31673" lon="4.46731">
        <ele>1157.5</ele>
        <time>2018-08-19T12:43:53.000Z</time>
      </trkpt>
      <trkpt lat="45.31673" lon="4.46732">
        <ele>1157.7</ele>
        <time>2018-08-19T12:43:54.000Z</time>
      </trkpt>
      <trkpt lat="45.31673" lon="4.46734">
        <ele>1157.9</ele>
        <time>2018-08-19T12:43:55.000Z</time>
      </trkpt>
      <trkpt lat="45.31673" lon="4.46736">
        <ele>1158.2</ele>
        <time>2018-08-19T12:43:56.000Z</time>
      </trkpt>
      <trkpt lat="45.31674" lon="4.46738">
        <ele>1158.4</ele>
        <time>2018-08-19T12:43:57.000Z</time>
      </trkpt>
      <trkpt lat="45.31674" lon="4.46739">
        <ele>1158.6</ele>
        <time>2018-08-19T12:43:58.000Z</time>
      </trkpt>
      <trkpt lat="45.31674" lon="4.46741">
        <ele>1158.8</ele>
        <time>2018-08-19T12:43:59.000Z</time>
      </trkpt>
      <trkpt lat="45.31674" lon="4.46743">
        <ele>1159.1</ele>
        <time>2018-08-19T12:44:00.000Z</time>
      </trkpt>
      <trkpt lat="45.31675" lon="4.46745">
        <ele>1159.3</ele>
        <time>2018-08-19T12:44:01.000Z</time>
      </trkpt>
      <trkpt lat="45.31675" lon="4.46746">
        <ele>1159.5</ele>
        <time>2018-08-19T12:44:02.000Z</time>
      </trkpt>
      <trkpt lat="45.31675" lon="4.46748">
        <ele>1159.7</ele>
        <time>2018-08-19T12:44:03.000Z</time>
      </trkpt>
      <trkpt lat="45.31676" lon="4.4675">
        <ele>1159.9</ele>
        <time>2018-08-19T12:44:04.000Z</time>
      </trkpt>
      <trkpt lat="45.31676" lon="4.46751">
        <ele>1160.1</ele>
        <time>2018-08-19T12:44:05.000Z</time>
      </trkpt>
      <trkpt lat="45.31676" lon="4.46753">
        <ele>1160.2</ele>
        <time>2018-08-19T12:44:06.000Z</time>
      </trkpt>
      <trkpt lat="45.31677" lon="4.46754">
        <ele>1160.4</ele>
        <time>2018-08-19T12:44:07.000Z</time>
      </trkpt>
      <trkpt lat="45.31677" lon="4.46756">
        <ele>1160.5</ele>
        <time>2018-08-19T12:44:08.000Z</time>
      </trkpt>
      <trkpt lat="45.31678" lon="4.46757">
        <ele>1160.6</ele>
        <time>2018-08-19T12:44:09.000Z</time>
      </trkpt>
      <trkpt lat="45.31678" lon="4.46758">
        <ele>1160.7</ele>
        <time>2018-08-19T12:44:10.000Z</time>
      </trkpt>
      <trkpt lat="45.31678" lon="4.4676">
        <ele>1160.8</ele>
        <time>2018-08-19T12:44:11.000Z</time>
      </trkpt>
      <trkpt lat="45.31678" lon="4.46761">
        <ele>1160.9</ele>
        <time>2018-08-19T12:44:12.000Z</time>
      </trkpt>
      <trkpt lat="45.31679" lon="4.46762">
        <ele>1161</ele>
        <time>2018-08-19T12:44:13.000Z</time>
      </trkpt>
      <trkpt lat="45.31679" lon="4.46763">
        <ele>1161.1</ele>
        <time>2018-08-19T12:44:14.000Z</time>
      </trkpt>
      <trkpt lat="45.31679" lon="4.46764">
        <ele>1161.2</ele>
        <time>2018-08-19T12:44:15.000Z</time>
      </trkpt>
      <trkpt lat="45.3168" lon="4.46766">
        <ele>1161.3</ele>
        <time>2018-08-19T12:44:16.000Z</time>
      </trkpt>
      <trkpt lat="45.3168" lon="4.46767">
        <ele>1161.4</ele>
        <time>2018-08-19T12:44:17.000Z</time>
      </trkpt>
      <trkpt lat="45.3168" lon="4.46769">
        <ele>1161.5</ele>
        <time>2018-08-19T12:44:18.000Z</time>
      </trkpt>
      <trkpt lat="45.31681" lon="4.46771">
        <ele>1161.7</ele>
        <time>2018-08-19T12:44:19.000Z</time>
      </trkpt>
      <trkpt lat="45.31681" lon="4.46772">
        <ele>1161.8</ele>
        <time>2018-08-19T12:44:20.000Z</time>
      </trkpt>
      <trkpt lat="45.31682" lon="4.46774">
        <ele>1162</ele>
        <time>2018-08-19T12:44:21.000Z</time>
      </trkpt>
      <trkpt lat="45.31682" lon="4.46776">
        <ele>1162.1</ele>
        <time>2018-08-19T12:44:22.000Z</time>
      </trkpt>
      <trkpt lat="45.31683" lon="4.46778">
        <ele>1162.3</ele>
        <time>2018-08-19T12:44:23.000Z</time>
      </trkpt>
      <trkpt lat="45.31683" lon="4.4678">
        <ele>1162.4</ele>
        <time>2018-08-19T12:44:24.000Z</time>
      </trkpt>
      <trkpt lat="45.31684" lon="4.46781">
        <ele>1162.6</ele>
        <time>2018-08-19T12:44:25.000Z</time>
      </trkpt>
      <trkpt lat="45.31684" lon="4.46783">
        <ele>1162.7</ele>
        <time>2018-08-19T12:44:26.000Z</time>
      </trkpt>
      <trkpt lat="45.31685" lon="4.46785">
        <ele>1162.9</ele>
        <time>2018-08-19T12:44:27.000Z</time>
      </trkpt>
      <trkpt lat="45.31686" lon="4.46787">
        <ele>1163</ele>
        <time>2018-08-19T12:44:28.000Z</time>
      </trkpt>
      <trkpt lat="45.31686" lon="4.46789">
        <ele>1163.1</ele>
        <time>2018-08-19T12:44:29.000Z</time>
      </trkpt>
      <trkpt lat="45.31687" lon="4.4679">
        <ele>1163.3</ele>
        <time>2018-08-19T12:44:30.000Z</time>
      </trkpt>
      <trkpt lat="45.31688" lon="4.46792">
        <ele>1163.4</ele>
        <time>2018-08-19T12:44:31.000Z</time>
      </trkpt>
      <trkpt lat="45.31688" lon="4.46794">
        <ele>1163.5</ele>
        <time>2018-08-19T12:44:32.000Z</time>
      </trkpt>
      <trkpt lat="45.31689" lon="4.46795">
        <ele>1163.6</ele>
        <time>2018-08-19T12:44:33.000Z</time>
      </trkpt>
      <trkpt lat="45.31689" lon="4.46796">
        <ele>1163.7</ele>
        <time>2018-08-19T12:44:34.000Z</time>
      </trkpt>
      <trkpt lat="45.3169" lon="4.46797">
        <ele>1163.8</ele>
        <time>2018-08-19T12:44:35.000Z</time>
      </trkpt>
      <trkpt lat="45.3169" lon="4.46798">
        <ele>1163.9</ele>
        <time>2018-08-19T12:44:36.000Z</time>
      </trkpt>
      <trkpt lat="45.31691" lon="4.46799">
        <ele>1164</ele>
        <time>2018-08-19T12:44:37.000Z</time>
      </trkpt>
      <trkpt lat="45.31691" lon="4.468">
        <ele>1164</ele>
        <time>2018-08-19T12:44:38.000Z</time>
      </trkpt>
      <trkpt lat="45.31692" lon="4.46801">
        <ele>1164.1</ele>
        <time>2018-08-19T12:44:39.000Z</time>
      </trkpt>
      <trkpt lat="45.31693" lon="4.46802">
        <ele>1164.2</ele>
        <time>2018-08-19T12:44:40.000Z</time>
      </trkpt>
      <trkpt lat="45.31693" lon="4.46803">
        <ele>1164.3</ele>
        <time>2018-08-19T12:44:41.000Z</time>
      </trkpt>
      <trkpt lat="45.31694" lon="4.46804">
        <ele>1164.3</ele>
        <time>2018-08-19T12:44:42.000Z</time>
      </trkpt>
      <trkpt lat="45.31695" lon="4.46805">
        <ele>1164.4</ele>
        <time>2018-08-19T12:44:43.000Z</time>
      </trkpt>
      <trkpt lat="45.31695" lon="4.46807">
        <ele>1164.5</ele>
        <time>2018-08-19T12:44:44.000Z</time>
      </trkpt>
      <trkpt lat="45.31696" lon="4.46808">
        <ele>1164.6</ele>
        <time>2018-08-19T12:44:45.000Z</time>
      </trkpt>
      <trkpt lat="45.31697" lon="4.46809">
        <ele>1164.7</ele>
        <time>2018-08-19T12:44:46.000Z</time>
      </trkpt>
      <trkpt lat="45.31698" lon="4.46811">
        <ele>1164.8</ele>
        <time>2018-08-19T12:44:47.000Z</time>
      </trkpt>
      <trkpt lat="45.31699" lon="4.46812">
        <ele>1164.9</ele>
        <time>2018-08-19T12:44:48.000Z</time>
      </trkpt>
      <trkpt lat="45.317" lon="4.46813">
        <ele>1165</ele>
        <time>2018-08-19T12:44:49.000Z</time>
      </trkpt>
      <trkpt lat="45.31701" lon="4.46814">
        <ele>1165.1</ele>
        <time>2018-08-19T12:44:50.000Z</time>
      </trkpt>
      <trkpt lat="45.31702" lon="4.46815">
        <ele>1165.2</ele>
        <time>2018-08-19T12:44:51.000Z</time>
      </trkpt>
      <trkpt lat="45.31703" lon="4.46817">
        <ele>1165.2</ele>
        <time>2018-08-19T12:44:52.000Z</time>
      </trkpt>
      <trkpt lat="45.31705" lon="4.46818">
        <ele>1165.3</ele>
        <time>2018-08-19T12:44:53.000Z</time>
      </trkpt>
      <trkpt lat="45.31706" lon="4.46819">
        <ele>1165.4</ele>
        <time>2018-08-19T12:44:54.000Z</time>
      </trkpt>
      <trkpt lat="45.31707" lon="4.4682">
        <ele>1165.4</ele>
        <time>2018-08-19T12:44:55.000Z</time>
      </trkpt>
      <trkpt lat="45.31708" lon="4.46821">
        <ele>1165.5</ele>
        <time>2018-08-19T12:44:56.000Z</time>
      </trkpt>
      <trkpt lat="45.3171" lon="4.46822">
        <ele>1165.6</ele>
        <time>2018-08-19T12:44:57.000Z</time>
      </trkpt>
      <trkpt lat="45.31711" lon="4.46823">
        <ele>1165.7</ele>
        <time>2018-08-19T12:44:58.000Z</time>
      </trkpt>
      <trkpt lat="45.31712" lon="4.46824">
        <ele>1165.7</ele>
        <time>2018-08-19T12:44:59.000Z</time>
      </trkpt>
      <trkpt lat="45.31714" lon="4.46825">
        <ele>1165.8</ele>
        <time>2018-08-19T12:45:00.000Z</time>
      </trkpt>
      <trkpt lat="45.31715" lon="4.46827">
        <ele>1165.9</ele>
        <time>2018-08-19T12:45:01.000Z</time>
      </trkpt>
      <trkpt lat="45.31716" lon="4.46828">
        <ele>1166</ele>
        <time>2018-08-19T12:45:02.000Z</time>
      </trkpt>
      <trkpt lat="45.31718" lon="4.4683">
        <ele>1166.1</ele>
        <time>2018-08-19T12:45:03.000Z</time>
      </trkpt>
      <trkpt lat="45.31719" lon="4.46831">
        <ele>1166.2</ele>
        <time>2018-08-19T12:45:04.000Z</time>
      </trkpt>
      <trkpt lat="45.3172" lon="4.46832">
        <ele>1166.3</ele>
        <time>2018-08-19T12:45:05.000Z</time>
      </trkpt>
      <trkpt lat="45.31721" lon="4.46834">
        <ele>1166.4</ele>
        <time>2018-08-19T12:45:06.000Z</time>
      </trkpt>
      <trkpt lat="45.31723" lon="4.46836">
        <ele>1166.6</ele>
        <time>2018-08-19T12:45:07.000Z</time>
      </trkpt>
      <trkpt lat="45.31724" lon="4.46837">
        <ele>1166.7</ele>
        <time>2018-08-19T12:45:08.000Z</time>
      </trkpt>
      <trkpt lat="45.31725" lon="4.46839">
        <ele>1166.8</ele>
        <time>2018-08-19T12:45:09.000Z</time>
      </trkpt>
      <trkpt lat="45.31726" lon="4.4684">
        <ele>1167</ele>
        <time>2018-08-19T12:45:10.000Z</time>
      </trkpt>
      <trkpt lat="45.31727" lon="4.46842">
        <ele>1167.1</ele>
        <time>2018-08-19T12:45:11.000Z</time>
      </trkpt>
      <trkpt lat="45.31728" lon="4.46844">
        <ele>1167.3</ele>
        <time>2018-08-19T12:45:12.000Z</time>
      </trkpt>
      <trkpt lat="45.31729" lon="4.46845">
        <ele>1167.4</ele>
        <time>2018-08-19T12:45:13.000Z</time>
      </trkpt>
      <trkpt lat="45.3173" lon="4.46847">
        <ele>1167.6</ele>
        <time>2018-08-19T12:45:14.000Z</time>
      </trkpt>
      <trkpt lat="45.31731" lon="4.46848">
        <ele>1167.7</ele>
        <time>2018-08-19T12:45:15.000Z</time>
      </trkpt>
      <trkpt lat="45.31731" lon="4.4685">
        <ele>1167.8</ele>
        <time>2018-08-19T12:45:16.000Z</time>
      </trkpt>
      <trkpt lat="45.31732" lon="4.46851">
        <ele>1168</ele>
        <time>2018-08-19T12:45:17.000Z</time>
      </trkpt>
      <trkpt lat="45.31733" lon="4.46853">
        <ele>1168.1</ele>
        <time>2018-08-19T12:45:18.000Z</time>
      </trkpt>
      <trkpt lat="45.31733" lon="4.46854">
        <ele>1168.3</ele>
        <time>2018-08-19T12:45:19.000Z</time>
      </trkpt>
      <trkpt lat="45.31734" lon="4.46856">
        <ele>1168.4</ele>
        <time>2018-08-19T12:45:20.000Z</time>
      </trkpt>
      <trkpt lat="45.31734" lon="4.46857">
        <ele>1168.5</ele>
        <time>2018-08-19T12:45:21.000Z</time>
      </trkpt>
      <trkpt lat="45.31734" lon="4.46858">
        <ele>1168.6</ele>
        <time>2018-08-19T12:45:22.000Z</time>
      </trkpt>
      <trkpt lat="45.31735" lon="4.4686">
        <ele>1168.8</ele>
        <time>2018-08-19T12:45:23.000Z</time>
      </trkpt>
      <trkpt lat="45.31735" lon="4.46861">
        <ele>1168.9</ele>
        <time>2018-08-19T12:45:24.000Z</time>
      </trkpt>
      <trkpt lat="45.31735" lon="4.46863">
        <ele>1169</ele>
        <time>2018-08-19T12:45:25.000Z</time>
      </trkpt>
      <trkpt lat="45.31736" lon="4.46864">
        <ele>1169.2</ele>
        <time>2018-08-19T12:45:26.000Z</time>
      </trkpt>
      <trkpt lat="45.31736" lon="4.46866">
        <ele>1169.3</ele>
        <time>2018-08-19T12:45:27.000Z</time>
      </trkpt>
      <trkpt lat="45.31736" lon="4.46867">
        <ele>1169.5</ele>
        <time>2018-08-19T12:45:28.000Z</time>
      </trkpt>
      <trkpt lat="45.31737" lon="4.46869">
        <ele>1169.6</ele>
        <time>2018-08-19T12:45:29.000Z</time>
      </trkpt>
      <trkpt lat="45.31737" lon="4.46871">
        <ele>1169.8</ele>
        <time>2018-08-19T12:45:30.000Z</time>
      </trkpt>
      <trkpt lat="45.31738" lon="4.46872">
        <ele>1170</ele>
        <time>2018-08-19T12:45:31.000Z</time>
      </trkpt>
      <trkpt lat="45.31738" lon="4.46874">
        <ele>1170.1</ele>
        <time>2018-08-19T12:45:32.000Z</time>
      </trkpt>
      <trkpt lat="45.31738" lon="4.46876">
        <ele>1170.3</ele>
        <time>2018-08-19T12:45:33.000Z</time>
      </trkpt>
      <trkpt lat="45.31739" lon="4.46878">
        <ele>1170.5</ele>
        <time>2018-08-19T12:45:34.000Z</time>
      </trkpt>
      <trkpt lat="45.31739" lon="4.4688">
        <ele>1170.7</ele>
        <time>2018-08-19T12:45:35.000Z</time>
      </trkpt>
      <trkpt lat="45.3174" lon="4.46882">
        <ele>1170.8</ele>
        <time>2018-08-19T12:45:36.000Z</time>
      </trkpt>
      <trkpt lat="45.3174" lon="4.46884">
        <ele>1171</ele>
        <time>2018-08-19T12:45:37.000Z</time>
      </trkpt>
      <trkpt lat="45.3174" lon="4.46885">
        <ele>1171.2</ele>
        <time>2018-08-19T12:45:38.000Z</time>
      </trkpt>
      <trkpt lat="45.31741" lon="4.46887">
        <ele>1171.4</ele>
        <time>2018-08-19T12:45:39.000Z</time>
      </trkpt>
      <trkpt lat="45.31741" lon="4.46889">
        <ele>1171.5</ele>
        <time>2018-08-19T12:45:40.000Z</time>
      </trkpt>
      <trkpt lat="45.31741" lon="4.46891">
        <ele>1171.7</ele>
        <time>2018-08-19T12:45:41.000Z</time>
      </trkpt>
      <trkpt lat="45.31741" lon="4.46893">
        <ele>1171.9</ele>
        <time>2018-08-19T12:45:42.000Z</time>
      </trkpt>
      <trkpt lat="45.31741" lon="4.46895">
        <ele>1172.1</ele>
        <time>2018-08-19T12:45:43.000Z</time>
      </trkpt>
      <trkpt lat="45.31742" lon="4.46897">
        <ele>1172.3</ele>
        <time>2018-08-19T12:45:44.000Z</time>
      </trkpt>
      <trkpt lat="45.31742" lon="4.46898">
        <ele>1172.4</ele>
        <time>2018-08-19T12:45:45.000Z</time>
      </trkpt>
      <trkpt lat="45.31742" lon="4.469">
        <ele>1172.6</ele>
        <time>2018-08-19T12:45:46.000Z</time>
      </trkpt>
      <trkpt lat="45.31742" lon="4.46902">
        <ele>1172.8</ele>
        <time>2018-08-19T12:45:47.000Z</time>
      </trkpt>
      <trkpt lat="45.31742" lon="4.46904">
        <ele>1172.9</ele>
        <time>2018-08-19T12:45:48.000Z</time>
      </trkpt>
      <trkpt lat="45.31742" lon="4.46906">
        <ele>1173.1</ele>
        <time>2018-08-19T12:45:49.000Z</time>
      </trkpt>
      <trkpt lat="45.31742" lon="4.46907">
        <ele>1173.3</ele>
        <time>2018-08-19T12:45:50.000Z</time>
      </trkpt>
      <trkpt lat="45.31742" lon="4.46909">
        <ele>1173.5</ele>
        <time>2018-08-19T12:45:51.000Z</time>
      </trkpt>
      <trkpt lat="45.31741" lon="4.46911">
        <ele>1173.7</ele>
        <time>2018-08-19T12:45:52.000Z</time>
      </trkpt>
      <trkpt lat="45.31741" lon="4.46913">
        <ele>1173.8</ele>
        <time>2018-08-19T12:45:53.000Z</time>
      </trkpt>
      <trkpt lat="45.31741" lon="4.46915">
        <ele>1174</ele>
        <time>2018-08-19T12:45:54.000Z</time>
      </trkpt>
      <trkpt lat="45.31741" lon="4.46917">
        <ele>1174.2</ele>
        <time>2018-08-19T12:45:55.000Z</time>
      </trkpt>
      <trkpt lat="45.31741" lon="4.46919">
        <ele>1174.4</ele>
        <time>2018-08-19T12:45:56.000Z</time>
      </trkpt>
      <trkpt lat="45.31742" lon="4.46921">
        <ele>1174.6</ele>
        <time>2018-08-19T12:45:57.000Z</time>
      </trkpt>
      <trkpt lat="45.31743" lon="4.46923">
        <ele>1174.8</ele>
        <time>2018-08-19T12:45:58.000Z</time>
      </trkpt>
      <trkpt lat="45.31744" lon="4.46926">
        <ele>1175</ele>
        <time>2018-08-19T12:45:59.000Z</time>
      </trkpt>
      <trkpt lat="45.31744" lon="4.46928">
        <ele>1175.3</ele>
        <time>2018-08-19T12:46:00.000Z</time>
      </trkpt>
      <trkpt lat="45.31745" lon="4.4693">
        <ele>1175.4</ele>
        <time>2018-08-19T12:46:01.000Z</time>
      </trkpt>
      <trkpt lat="45.31746" lon="4.46932">
        <ele>1175.6</ele>
        <time>2018-08-19T12:46:02.000Z</time>
      </trkpt>
      <trkpt lat="45.31746" lon="4.46933">
        <ele>1175.7</ele>
        <time>2018-08-19T12:46:03.000Z</time>
      </trkpt>
      <trkpt lat="45.31746" lon="4.46935">
        <ele>1175.9</ele>
        <time>2018-08-19T12:46:04.000Z</time>
      </trkpt>
      <trkpt lat="45.31746" lon="4.46936">
        <ele>1176</ele>
        <time>2018-08-19T12:46:05.000Z</time>
      </trkpt>
      <trkpt lat="45.31746" lon="4.46938">
        <ele>1176.2</ele>
        <time>2018-08-19T12:46:06.000Z</time>
      </trkpt>
      <trkpt lat="45.31746" lon="4.4694">
        <ele>1176.3</ele>
        <time>2018-08-19T12:46:07.000Z</time>
      </trkpt>
      <trkpt lat="45.31746" lon="4.46941">
        <ele>1176.5</ele>
        <time>2018-08-19T12:46:08.000Z</time>
      </trkpt>
      <trkpt lat="45.31747" lon="4.46943">
        <ele>1176.7</ele>
        <time>2018-08-19T12:46:09.000Z</time>
      </trkpt>
      <trkpt lat="45.31747" lon="4.46945">
        <ele>1176.9</ele>
        <time>2018-08-19T12:46:10.000Z</time>
      </trkpt>
      <trkpt lat="45.31747" lon="4.46947">
        <ele>1177</ele>
        <time>2018-08-19T12:46:11.000Z</time>
      </trkpt>
      <trkpt lat="45.31747" lon="4.46949">
        <ele>1177.2</ele>
        <time>2018-08-19T12:46:12.000Z</time>
      </trkpt>
      <trkpt lat="45.31747" lon="4.46951">
        <ele>1177.4</ele>
        <time>2018-08-19T12:46:13.000Z</time>
      </trkpt>
      <trkpt lat="45.31748" lon="4.46953">
        <ele>1177.6</ele>
        <time>2018-08-19T12:46:14.000Z</time>
      </trkpt>
      <trkpt lat="45.31748" lon="4.46955">
        <ele>1177.7</ele>
        <time>2018-08-19T12:46:15.000Z</time>
      </trkpt>
      <trkpt lat="45.31748" lon="4.46956">
        <ele>1177.9</ele>
        <time>2018-08-19T12:46:16.000Z</time>
      </trkpt>
      <trkpt lat="45.31748" lon="4.46958">
        <ele>1178</ele>
        <time>2018-08-19T12:46:17.000Z</time>
      </trkpt>
      <trkpt lat="45.31749" lon="4.46959">
        <ele>1178.1</ele>
        <time>2018-08-19T12:46:18.000Z</time>
      </trkpt>
      <trkpt lat="45.31749" lon="4.46961">
        <ele>1178.3</ele>
        <time>2018-08-19T12:46:19.000Z</time>
      </trkpt>
      <trkpt lat="45.31749" lon="4.46963">
        <ele>1178.4</ele>
        <time>2018-08-19T12:46:20.000Z</time>
      </trkpt>
      <trkpt lat="45.31749" lon="4.46964">
        <ele>1178.6</ele>
        <time>2018-08-19T12:46:21.000Z</time>
      </trkpt>
      <trkpt lat="45.31749" lon="4.46966">
        <ele>1178.7</ele>
        <time>2018-08-19T12:46:22.000Z</time>
      </trkpt>
      <trkpt lat="45.3175" lon="4.46967">
        <ele>1178.9</ele>
        <time>2018-08-19T12:46:23.000Z</time>
      </trkpt>
      <trkpt lat="45.3175" lon="4.46969">
        <ele>1179</ele>
        <time>2018-08-19T12:46:24.000Z</time>
      </trkpt>
      <trkpt lat="45.3175" lon="4.4697">
        <ele>1179.2</ele>
        <time>2018-08-19T12:46:25.000Z</time>
      </trkpt>
      <trkpt lat="45.3175" lon="4.46972">
        <ele>1179.3</ele>
        <time>2018-08-19T12:46:26.000Z</time>
      </trkpt>
      <trkpt lat="45.3175" lon="4.46973">
        <ele>1179.4</ele>
        <time>2018-08-19T12:46:27.000Z</time>
      </trkpt>
      <trkpt lat="45.31751" lon="4.46975">
        <ele>1179.6</ele>
        <time>2018-08-19T12:46:28.000Z</time>
      </trkpt>
      <trkpt lat="45.31751" lon="4.46977">
        <ele>1179.7</ele>
        <time>2018-08-19T12:46:29.000Z</time>
      </trkpt>
      <trkpt lat="45.31752" lon="4.46978">
        <ele>1179.8</ele>
        <time>2018-08-19T12:46:30.000Z</time>
      </trkpt>
      <trkpt lat="45.31752" lon="4.4698">
        <ele>1179.9</ele>
        <time>2018-08-19T12:46:31.000Z</time>
      </trkpt>
      <trkpt lat="45.31753" lon="4.46982">
        <ele>1180.1</ele>
        <time>2018-08-19T12:46:32.000Z</time>
      </trkpt>
      <trkpt lat="45.31754" lon="4.46983">
        <ele>1180.2</ele>
        <time>2018-08-19T12:46:33.000Z</time>
      </trkpt>
      <trkpt lat="45.31755" lon="4.46985">
        <ele>1180.3</ele>
        <time>2018-08-19T12:46:34.000Z</time>
      </trkpt>
      <trkpt lat="45.31756" lon="4.46987">
        <ele>1180.4</ele>
        <time>2018-08-19T12:46:35.000Z</time>
      </trkpt>
      <trkpt lat="45.31757" lon="4.46989">
        <ele>1180.5</ele>
        <time>2018-08-19T12:46:36.000Z</time>
      </trkpt>
      <trkpt lat="45.31758" lon="4.4699">
        <ele>1180.6</ele>
        <time>2018-08-19T12:46:37.000Z</time>
      </trkpt>
      <trkpt lat="45.31759" lon="4.46992">
        <ele>1180.7</ele>
        <time>2018-08-19T12:46:38.000Z</time>
      </trkpt>
      <trkpt lat="45.3176" lon="4.46994">
        <ele>1180.8</ele>
        <time>2018-08-19T12:46:39.000Z</time>
      </trkpt>
      <trkpt lat="45.31761" lon="4.46996">
        <ele>1180.9</ele>
        <time>2018-08-19T12:46:40.000Z</time>
      </trkpt>
      <trkpt lat="45.31762" lon="4.46997">
        <ele>1181</ele>
        <time>2018-08-19T12:46:41.000Z</time>
      </trkpt>
      <trkpt lat="45.31763" lon="4.46999">
        <ele>1181.1</ele>
        <time>2018-08-19T12:46:42.000Z</time>
      </trkpt>
      <trkpt lat="45.31764" lon="4.47">
        <ele>1181.2</ele>
        <time>2018-08-19T12:46:43.000Z</time>
      </trkpt>
      <trkpt lat="45.31764" lon="4.47002">
        <ele>1181.3</ele>
        <time>2018-08-19T12:46:44.000Z</time>
      </trkpt>
      <trkpt lat="45.31765" lon="4.47003">
        <ele>1181.3</ele>
        <time>2018-08-19T12:46:45.000Z</time>
      </trkpt>
      <trkpt lat="45.31766" lon="4.47005">
        <ele>1181.4</ele>
        <time>2018-08-19T12:46:46.000Z</time>
      </trkpt>
      <trkpt lat="45.31766" lon="4.47006">
        <ele>1181.5</ele>
        <time>2018-08-19T12:46:47.000Z</time>
      </trkpt>
      <trkpt lat="45.31767" lon="4.47008">
        <ele>1181.6</ele>
        <time>2018-08-19T12:46:48.000Z</time>
      </trkpt>
      <trkpt lat="45.31768" lon="4.47009">
        <ele>1181.6</ele>
        <time>2018-08-19T12:46:49.000Z</time>
      </trkpt>
      <trkpt lat="45.31769" lon="4.4701">
        <ele>1181.7</ele>
        <time>2018-08-19T12:46:50.000Z</time>
      </trkpt>
      <trkpt lat="45.31769" lon="4.47012">
        <ele>1181.7</ele>
        <time>2018-08-19T12:46:51.000Z</time>
      </trkpt>
      <trkpt lat="45.3177" lon="4.47013">
        <ele>1181.8</ele>
        <time>2018-08-19T12:46:52.000Z</time>
      </trkpt>
      <trkpt lat="45.31771" lon="4.47014">
        <ele>1181.9</ele>
        <time>2018-08-19T12:46:53.000Z</time>
      </trkpt>
      <trkpt lat="45.31771" lon="4.47016">
        <ele>1181.9</ele>
        <time>2018-08-19T12:46:54.000Z</time>
      </trkpt>
      <trkpt lat="45.31772" lon="4.47017">
        <ele>1182</ele>
        <time>2018-08-19T12:46:55.000Z</time>
      </trkpt>
      <trkpt lat="45.31773" lon="4.47018">
        <ele>1182.1</ele>
        <time>2018-08-19T12:46:56.000Z</time>
      </trkpt>
      <trkpt lat="45.31774" lon="4.4702">
        <ele>1182.1</ele>
        <time>2018-08-19T12:46:57.000Z</time>
      </trkpt>
      <trkpt lat="45.31774" lon="4.47021">
        <ele>1182.2</ele>
        <time>2018-08-19T12:46:58.000Z</time>
      </trkpt>
      <trkpt lat="45.31775" lon="4.47022">
        <ele>1182.3</ele>
        <time>2018-08-19T12:46:59.000Z</time>
      </trkpt>
      <trkpt lat="45.31776" lon="4.47024">
        <ele>1182.3</ele>
        <time>2018-08-19T12:47:00.000Z</time>
      </trkpt>
      <trkpt lat="45.31777" lon="4.47025">
        <ele>1182.4</ele>
        <time>2018-08-19T12:47:01.000Z</time>
      </trkpt>
      <trkpt lat="45.31777" lon="4.47026">
        <ele>1182.5</ele>
        <time>2018-08-19T12:47:02.000Z</time>
      </trkpt>
      <trkpt lat="45.31778" lon="4.47028">
        <ele>1182.5</ele>
        <time>2018-08-19T12:47:03.000Z</time>
      </trkpt>
      <trkpt lat="45.31779" lon="4.47029">
        <ele>1182.6</ele>
        <time>2018-08-19T12:47:04.000Z</time>
      </trkpt>
      <trkpt lat="45.3178" lon="4.4703">
        <ele>1182.7</ele>
        <time>2018-08-19T12:47:05.000Z</time>
      </trkpt>
      <trkpt lat="45.3178" lon="4.47032">
        <ele>1182.7</ele>
        <time>2018-08-19T12:47:06.000Z</time>
      </trkpt>
      <trkpt lat="45.31781" lon="4.47033">
        <ele>1182.8</ele>
        <time>2018-08-19T12:47:07.000Z</time>
      </trkpt>
      <trkpt lat="45.31782" lon="4.47034">
        <ele>1182.8</ele>
        <time>2018-08-19T12:47:08.000Z</time>
      </trkpt>
      <trkpt lat="45.31782" lon="4.47035">
        <ele>1182.9</ele>
        <time>2018-08-19T12:47:09.000Z</time>
      </trkpt>
      <trkpt lat="45.31783" lon="4.47036">
        <ele>1183</ele>
        <time>2018-08-19T12:47:10.000Z</time>
      </trkpt>
      <trkpt lat="45.31784" lon="4.47037">
        <ele>1183</ele>
        <time>2018-08-19T12:47:11.000Z</time>
      </trkpt>
      <trkpt lat="45.31785" lon="4.47039">
        <ele>1183.1</ele>
        <time>2018-08-19T12:47:12.000Z</time>
      </trkpt>
      <trkpt lat="45.31786" lon="4.4704">
        <ele>1183.1</ele>
        <time>2018-08-19T12:47:13.000Z</time>
      </trkpt>
      <trkpt lat="45.31786" lon="4.47041">
        <ele>1183.2</ele>
        <time>2018-08-19T12:47:14.000Z</time>
      </trkpt>
      <trkpt lat="45.31786" lon="4.47041">
        <ele>1183.2</ele>
        <time>2018-08-19T12:47:15.000Z</time>
      </trkpt>
      <trkpt lat="45.31787" lon="4.47041">
        <ele>1183.2</ele>
        <time>2018-08-19T12:47:16.000Z</time>
      </trkpt>
      <trkpt lat="45.31787" lon="4.47041">
        <ele>1183.2</ele>
        <time>2018-08-19T12:47:17.000Z</time>
      </trkpt>
      <trkpt lat="45.31787" lon="4.47041">
        <ele>1183.2</ele>
        <time>2018-08-19T12:47:18.000Z</time>
      </trkpt>
      <trkpt lat="45.31787" lon="4.47041">
        <ele>1183.2</ele>
        <time>2018-08-19T12:47:19.000Z</time>
      </trkpt>
      <trkpt lat="45.31788" lon="4.47042">
        <ele>1183.2</ele>
        <time>2018-08-19T12:47:20.000Z</time>
      </trkpt>
      <trkpt lat="45.31789" lon="4.47043">
        <ele>1183.3</ele>
        <time>2018-08-19T12:47:21.000Z</time>
      </trkpt>
      <trkpt lat="45.3179" lon="4.47045">
        <ele>1183.3</ele>
        <time>2018-08-19T12:47:22.000Z</time>
      </trkpt>
      <trkpt lat="45.31791" lon="4.47046">
        <ele>1183.4</ele>
        <time>2018-08-19T12:47:23.000Z</time>
      </trkpt>
      <trkpt lat="45.31791" lon="4.47047">
        <ele>1183.4</ele>
        <time>2018-08-19T12:47:24.000Z</time>
      </trkpt>
      <trkpt lat="45.31792" lon="4.47047">
        <ele>1183.5</ele>
        <time>2018-08-19T12:47:25.000Z</time>
      </trkpt>
      <trkpt lat="45.31793" lon="4.47048">
        <ele>1183.5</ele>
        <time>2018-08-19T12:47:26.000Z</time>
      </trkpt>
      <trkpt lat="45.31793" lon="4.47049">
        <ele>1183.6</ele>
        <time>2018-08-19T12:47:27.000Z</time>
      </trkpt>
      <trkpt lat="45.31794" lon="4.4705">
        <ele>1183.6</ele>
        <time>2018-08-19T12:47:28.000Z</time>
      </trkpt>
      <trkpt lat="45.31795" lon="4.47052">
        <ele>1183.7</ele>
        <time>2018-08-19T12:47:29.000Z</time>
      </trkpt>
      <trkpt lat="45.31796" lon="4.47053">
        <ele>1183.7</ele>
        <time>2018-08-19T12:47:30.000Z</time>
      </trkpt>
      <trkpt lat="45.31797" lon="4.47054">
        <ele>1183.8</ele>
        <time>2018-08-19T12:47:31.000Z</time>
      </trkpt>
      <trkpt lat="45.31798" lon="4.47055">
        <ele>1183.8</ele>
        <time>2018-08-19T12:47:32.000Z</time>
      </trkpt>
      <trkpt lat="45.31799" lon="4.47056">
        <ele>1183.9</ele>
        <time>2018-08-19T12:47:33.000Z</time>
      </trkpt>
      <trkpt lat="45.318" lon="4.47057">
        <ele>1184</ele>
        <time>2018-08-19T12:47:34.000Z</time>
      </trkpt>
      <trkpt lat="45.31801" lon="4.47058">
        <ele>1184</ele>
        <time>2018-08-19T12:47:35.000Z</time>
      </trkpt>
      <trkpt lat="45.31802" lon="4.47059">
        <ele>1184.1</ele>
        <time>2018-08-19T12:47:36.000Z</time>
      </trkpt>
      <trkpt lat="45.31803" lon="4.4706">
        <ele>1184.1</ele>
        <time>2018-08-19T12:47:37.000Z</time>
      </trkpt>
      <trkpt lat="45.31803" lon="4.47061">
        <ele>1184.2</ele>
        <time>2018-08-19T12:47:38.000Z</time>
      </trkpt>
      <trkpt lat="45.31804" lon="4.47062">
        <ele>1184.2</ele>
        <time>2018-08-19T12:47:39.000Z</time>
      </trkpt>
      <trkpt lat="45.31805" lon="4.47063">
        <ele>1184.2</ele>
        <time>2018-08-19T12:47:40.000Z</time>
      </trkpt>
      <trkpt lat="45.31806" lon="4.47063">
        <ele>1184.2</ele>
        <time>2018-08-19T12:47:41.000Z</time>
      </trkpt>
      <trkpt lat="45.31806" lon="4.47064">
        <ele>1184.3</ele>
        <time>2018-08-19T12:47:42.000Z</time>
      </trkpt>
      <trkpt lat="45.31807" lon="4.47064">
        <ele>1184.3</ele>
        <time>2018-08-19T12:47:43.000Z</time>
      </trkpt>
      <trkpt lat="45.31807" lon="4.47065">
        <ele>1184.3</ele>
        <time>2018-08-19T12:47:44.000Z</time>
      </trkpt>
      <trkpt lat="45.31807" lon="4.47065">
        <ele>1184.3</ele>
        <time>2018-08-19T12:47:45.000Z</time>
      </trkpt>
      <trkpt lat="45.31807" lon="4.47065">
        <ele>1184.3</ele>
        <time>2018-08-19T12:47:46.000Z</time>
      </trkpt>
      <trkpt lat="45.31808" lon="4.47065">
        <ele>1184.3</ele>
        <time>2018-08-19T12:47:47.000Z</time>
      </trkpt>
      <trkpt lat="45.31808" lon="4.47065">
        <ele>1184.3</ele>
        <time>2018-08-19T12:47:48.000Z</time>
      </trkpt>
      <trkpt lat="45.31808" lon="4.47065">
        <ele>1184.3</ele>
        <time>2018-08-19T12:47:49.000Z</time>
      </trkpt>
      <trkpt lat="45.31808" lon="4.47065">
        <ele>1184.3</ele>
        <time>2018-08-19T12:47:50.000Z</time>
      </trkpt>
      <trkpt lat="45.31808" lon="4.47065">
        <ele>1184.3</ele>
        <time>2018-08-19T12:47:51.000Z</time>
      </trkpt>
      <trkpt lat="45.31808" lon="4.47065">
        <ele>1184.3</ele>
        <time>2018-08-19T12:47:52.000Z</time>
      </trkpt>
      <trkpt lat="45.31809" lon="4.47065">
        <ele>1184.3</ele>
        <time>2018-08-19T12:47:53.000Z</time>
      </trkpt>
      <trkpt lat="45.31809" lon="4.47066">
        <ele>1184.3</ele>
        <time>2018-08-19T12:47:54.000Z</time>
      </trkpt>
      <trkpt lat="45.3181" lon="4.47067">
        <ele>1184.4</ele>
        <time>2018-08-19T12:47:55.000Z</time>
      </trkpt>
      <trkpt lat="45.31811" lon="4.47068">
        <ele>1184.4</ele>
        <time>2018-08-19T12:47:56.000Z</time>
      </trkpt>
      <trkpt lat="45.31812" lon="4.47069">
        <ele>1184.5</ele>
        <time>2018-08-19T12:47:57.000Z</time>
      </trkpt>
      <trkpt lat="45.31813" lon="4.4707">
        <ele>1184.5</ele>
        <time>2018-08-19T12:47:58.000Z</time>
      </trkpt>
      <trkpt lat="45.31814" lon="4.47071">
        <ele>1184.6</ele>
        <time>2018-08-19T12:47:59.000Z</time>
      </trkpt>
      <trkpt lat="45.31815" lon="4.47072">
        <ele>1184.6</ele>
        <time>2018-08-19T12:48:00.000Z</time>
      </trkpt>
      <trkpt lat="45.31816" lon="4.47073">
        <ele>1184.7</ele>
        <time>2018-08-19T12:48:01.000Z</time>
      </trkpt>
      <trkpt lat="45.31816" lon="4.47073">
        <ele>1184.7</ele>
        <time>2018-08-19T12:48:02.000Z</time>
      </trkpt>
      <trkpt lat="45.31817" lon="4.47074">
        <ele>1184.7</ele>
        <time>2018-08-19T12:48:03.000Z</time>
      </trkpt>
      <trkpt lat="45.31818" lon="4.47075">
        <ele>1184.8</ele>
        <time>2018-08-19T12:48:04.000Z</time>
      </trkpt>
      <trkpt lat="45.31819" lon="4.47076">
        <ele>1184.8</ele>
        <time>2018-08-19T12:48:05.000Z</time>
      </trkpt>
      <trkpt lat="45.31819" lon="4.47077">
        <ele>1184.9</ele>
        <time>2018-08-19T12:48:06.000Z</time>
      </trkpt>
      <trkpt lat="45.3182" lon="4.47078">
        <ele>1184.9</ele>
        <time>2018-08-19T12:48:07.000Z</time>
      </trkpt>
      <trkpt lat="45.31821" lon="4.47078">
        <ele>1185</ele>
        <time>2018-08-19T12:48:08.000Z</time>
      </trkpt>
      <trkpt lat="45.31821" lon="4.47079">
        <ele>1185.1</ele>
        <time>2018-08-19T12:48:09.000Z</time>
      </trkpt>
      <trkpt lat="45.31822" lon="4.4708">
        <ele>1185.1</ele>
        <time>2018-08-19T12:48:10.000Z</time>
      </trkpt>
      <trkpt lat="45.31823" lon="4.47081">
        <ele>1185.2</ele>
        <time>2018-08-19T12:48:11.000Z</time>
      </trkpt>
      <trkpt lat="45.31824" lon="4.47082">
        <ele>1185.2</ele>
        <time>2018-08-19T12:48:12.000Z</time>
      </trkpt>
      <trkpt lat="45.31824" lon="4.47083">
        <ele>1185.3</ele>
        <time>2018-08-19T12:48:13.000Z</time>
      </trkpt>
      <trkpt lat="45.31825" lon="4.47084">
        <ele>1185.3</ele>
        <time>2018-08-19T12:48:14.000Z</time>
      </trkpt>
      <trkpt lat="45.31826" lon="4.47085">
        <ele>1185.4</ele>
        <time>2018-08-19T12:48:15.000Z</time>
      </trkpt>
      <trkpt lat="45.31827" lon="4.47086">
        <ele>1185.4</ele>
        <time>2018-08-19T12:48:16.000Z</time>
      </trkpt>
      <trkpt lat="45.31828" lon="4.47087">
        <ele>1185.5</ele>
        <time>2018-08-19T12:48:17.000Z</time>
      </trkpt>
      <trkpt lat="45.31829" lon="4.47088">
        <ele>1185.5</ele>
        <time>2018-08-19T12:48:18.000Z</time>
      </trkpt>
      <trkpt lat="45.3183" lon="4.4709">
        <ele>1185.6</ele>
        <time>2018-08-19T12:48:19.000Z</time>
      </trkpt>
      <trkpt lat="45.31831" lon="4.47091">
        <ele>1185.6</ele>
        <time>2018-08-19T12:48:20.000Z</time>
      </trkpt>
      <trkpt lat="45.31832" lon="4.47092">
        <ele>1185.7</ele>
        <time>2018-08-19T12:48:21.000Z</time>
      </trkpt>
      <trkpt lat="45.31833" lon="4.47093">
        <ele>1185.7</ele>
        <time>2018-08-19T12:48:22.000Z</time>
      </trkpt>
      <trkpt lat="45.31834" lon="4.47094">
        <ele>1185.7</ele>
        <time>2018-08-19T12:48:23.000Z</time>
      </trkpt>
      <trkpt lat="45.31836" lon="4.47096">
        <ele>1185.7</ele>
        <time>2018-08-19T12:48:24.000Z</time>
      </trkpt>
      <trkpt lat="45.31837" lon="4.47097">
        <ele>1185.7</ele>
        <time>2018-08-19T12:48:25.000Z</time>
      </trkpt>
      <trkpt lat="45.31838" lon="4.47098">
        <ele>1185.7</ele>
        <time>2018-08-19T12:48:26.000Z</time>
      </trkpt>
      <trkpt lat="45.31839" lon="4.47099">
        <ele>1185.8</ele>
        <time>2018-08-19T12:48:27.000Z</time>
      </trkpt>
      <trkpt lat="45.3184" lon="4.471">
        <ele>1185.8</ele>
        <time>2018-08-19T12:48:28.000Z</time>
      </trkpt>
      <trkpt lat="45.31841" lon="4.47102">
        <ele>1185.8</ele>
        <time>2018-08-19T12:48:29.000Z</time>
      </trkpt>
      <trkpt lat="45.31842" lon="4.47103">
        <ele>1185.8</ele>
        <time>2018-08-19T12:48:30.000Z</time>
      </trkpt>
      <trkpt lat="45.31843" lon="4.47104">
        <ele>1185.8</ele>
        <time>2018-08-19T12:48:31.000Z</time>
      </trkpt>
      <trkpt lat="45.31844" lon="4.47105">
        <ele>1185.7</ele>
        <time>2018-08-19T12:48:32.000Z</time>
      </trkpt>
      <trkpt lat="45.31845" lon="4.47106">
        <ele>1185.7</ele>
        <time>2018-08-19T12:48:33.000Z</time>
      </trkpt>
      <trkpt lat="45.31846" lon="4.47107">
        <ele>1185.7</ele>
        <time>2018-08-19T12:48:34.000Z</time>
      </trkpt>
      <trkpt lat="45.31847" lon="4.47108">
        <ele>1185.7</ele>
        <time>2018-08-19T12:48:35.000Z</time>
      </trkpt>
      <trkpt lat="45.31849" lon="4.47109">
        <ele>1185.7</ele>
        <time>2018-08-19T12:48:36.000Z</time>
      </trkpt>
      <trkpt lat="45.3185" lon="4.4711">
        <ele>1185.7</ele>
        <time>2018-08-19T12:48:37.000Z</time>
      </trkpt>
      <trkpt lat="45.31851" lon="4.47111">
        <ele>1185.7</ele>
        <time>2018-08-19T12:48:38.000Z</time>
      </trkpt>
      <trkpt lat="45.31852" lon="4.47112">
        <ele>1185.7</ele>
        <time>2018-08-19T12:48:39.000Z</time>
      </trkpt>
      <trkpt lat="45.31853" lon="4.47113">
        <ele>1185.7</ele>
        <time>2018-08-19T12:48:40.000Z</time>
      </trkpt>
      <trkpt lat="45.31854" lon="4.47115">
        <ele>1185.7</ele>
        <time>2018-08-19T12:48:41.000Z</time>
      </trkpt>
      <trkpt lat="45.31855" lon="4.47116">
        <ele>1185.7</ele>
        <time>2018-08-19T12:48:42.000Z</time>
      </trkpt>
      <trkpt lat="45.31856" lon="4.47117">
        <ele>1185.7</ele>
        <time>2018-08-19T12:48:43.000Z</time>
      </trkpt>
      <trkpt lat="45.31857" lon="4.47118">
        <ele>1185.7</ele>
        <time>2018-08-19T12:48:44.000Z</time>
      </trkpt>
      <trkpt lat="45.31858" lon="4.4712">
        <ele>1185.7</ele>
        <time>2018-08-19T12:48:45.000Z</time>
      </trkpt>
      <trkpt lat="45.31859" lon="4.47121">
        <ele>1185.7</ele>
        <time>2018-08-19T12:48:46.000Z</time>
      </trkpt>
      <trkpt lat="45.3186" lon="4.47122">
        <ele>1185.7</ele>
        <time>2018-08-19T12:48:47.000Z</time>
      </trkpt>
      <trkpt lat="45.31861" lon="4.47123">
        <ele>1185.7</ele>
        <time>2018-08-19T12:48:48.000Z</time>
      </trkpt>
      <trkpt lat="45.31862" lon="4.47125">
        <ele>1185.7</ele>
        <time>2018-08-19T12:48:49.000Z</time>
      </trkpt>
      <trkpt lat="45.31863" lon="4.47126">
        <ele>1185.7</ele>
        <time>2018-08-19T12:48:50.000Z</time>
      </trkpt>
      <trkpt lat="45.31864" lon="4.47127">
        <ele>1185.7</ele>
        <time>2018-08-19T12:48:51.000Z</time>
      </trkpt>
      <trkpt lat="45.31865" lon="4.47128">
        <ele>1185.7</ele>
        <time>2018-08-19T12:48:52.000Z</time>
      </trkpt>
      <trkpt lat="45.31866" lon="4.4713">
        <ele>1185.7</ele>
        <time>2018-08-19T12:48:53.000Z</time>
      </trkpt>
      <trkpt lat="45.31868" lon="4.47131">
        <ele>1185.7</ele>
        <time>2018-08-19T12:48:54.000Z</time>
      </trkpt>
      <trkpt lat="45.31869" lon="4.47132">
        <ele>1185.7</ele>
        <time>2018-08-19T12:48:55.000Z</time>
      </trkpt>
      <trkpt lat="45.3187" lon="4.47134">
        <ele>1185.8</ele>
        <time>2018-08-19T12:48:56.000Z</time>
      </trkpt>
      <trkpt lat="45.3187" lon="4.47135">
        <ele>1185.8</ele>
        <time>2018-08-19T12:48:57.000Z</time>
      </trkpt>
      <trkpt lat="45.31871" lon="4.47136">
        <ele>1185.8</ele>
        <time>2018-08-19T12:48:58.000Z</time>
      </trkpt>
      <trkpt lat="45.31872" lon="4.47138">
        <ele>1185.8</ele>
        <time>2018-08-19T12:48:59.000Z</time>
      </trkpt>
      <trkpt lat="45.31873" lon="4.47139">
        <ele>1185.8</ele>
        <time>2018-08-19T12:49:00.000Z</time>
      </trkpt>
      <trkpt lat="45.31874" lon="4.4714">
        <ele>1185.9</ele>
        <time>2018-08-19T12:49:01.000Z</time>
      </trkpt>
      <trkpt lat="45.31875" lon="4.47142">
        <ele>1185.9</ele>
        <time>2018-08-19T12:49:02.000Z</time>
      </trkpt>
      <trkpt lat="45.31875" lon="4.47143">
        <ele>1185.9</ele>
        <time>2018-08-19T12:49:03.000Z</time>
      </trkpt>
      <trkpt lat="45.31876" lon="4.47145">
        <ele>1186</ele>
        <time>2018-08-19T12:49:04.000Z</time>
      </trkpt>
      <trkpt lat="45.31877" lon="4.47146">
        <ele>1186</ele>
        <time>2018-08-19T12:49:05.000Z</time>
      </trkpt>
      <trkpt lat="45.31878" lon="4.47148">
        <ele>1186</ele>
        <time>2018-08-19T12:49:06.000Z</time>
      </trkpt>
      <trkpt lat="45.31878" lon="4.47149">
        <ele>1186.1</ele>
        <time>2018-08-19T12:49:07.000Z</time>
      </trkpt>
      <trkpt lat="45.31879" lon="4.4715">
        <ele>1186.1</ele>
        <time>2018-08-19T12:49:08.000Z</time>
      </trkpt>
      <trkpt lat="45.3188" lon="4.47152">
        <ele>1186.1</ele>
        <time>2018-08-19T12:49:09.000Z</time>
      </trkpt>
      <trkpt lat="45.31881" lon="4.47153">
        <ele>1186.1</ele>
        <time>2018-08-19T12:49:10.000Z</time>
      </trkpt>
      <trkpt lat="45.31882" lon="4.47154">
        <ele>1186.1</ele>
        <time>2018-08-19T12:49:11.000Z</time>
      </trkpt>
      <trkpt lat="45.31882" lon="4.47156">
        <ele>1186.2</ele>
        <time>2018-08-19T12:49:12.000Z</time>
      </trkpt>
      <trkpt lat="45.31883" lon="4.47157">
        <ele>1186.2</ele>
        <time>2018-08-19T12:49:13.000Z</time>
      </trkpt>
      <trkpt lat="45.31884" lon="4.47158">
        <ele>1186.2</ele>
        <time>2018-08-19T12:49:14.000Z</time>
      </trkpt>
      <trkpt lat="45.31885" lon="4.4716">
        <ele>1186.2</ele>
        <time>2018-08-19T12:49:15.000Z</time>
      </trkpt>
      <trkpt lat="45.31886" lon="4.47161">
        <ele>1186.2</ele>
        <time>2018-08-19T12:49:16.000Z</time>
      </trkpt>
      <trkpt lat="45.31887" lon="4.47162">
        <ele>1186.2</ele>
        <time>2018-08-19T12:49:17.000Z</time>
      </trkpt>
      <trkpt lat="45.31888" lon="4.47164">
        <ele>1186.2</ele>
        <time>2018-08-19T12:49:18.000Z</time>
      </trkpt>
      <trkpt lat="45.31888" lon="4.47165">
        <ele>1186.3</ele>
        <time>2018-08-19T12:49:19.000Z</time>
      </trkpt>
      <trkpt lat="45.31889" lon="4.47166">
        <ele>1186.3</ele>
        <time>2018-08-19T12:49:20.000Z</time>
      </trkpt>
      <trkpt lat="45.3189" lon="4.47167">
        <ele>1186.2</ele>
        <time>2018-08-19T12:49:21.000Z</time>
      </trkpt>
      <trkpt lat="45.31891" lon="4.47169">
        <ele>1186.2</ele>
        <time>2018-08-19T12:49:22.000Z</time>
      </trkpt>
      <trkpt lat="45.31892" lon="4.4717">
        <ele>1186.1</ele>
        <time>2018-08-19T12:49:23.000Z</time>
      </trkpt>
      <trkpt lat="45.31892" lon="4.47171">
        <ele>1186.1</ele>
        <time>2018-08-19T12:49:24.000Z</time>
      </trkpt>
      <trkpt lat="45.31893" lon="4.47172">
        <ele>1186.1</ele>
        <time>2018-08-19T12:49:25.000Z</time>
      </trkpt>
      <trkpt lat="45.31894" lon="4.47174">
        <ele>1186</ele>
        <time>2018-08-19T12:49:26.000Z</time>
      </trkpt>
      <trkpt lat="45.31894" lon="4.47175">
        <ele>1185.9</ele>
        <time>2018-08-19T12:49:27.000Z</time>
      </trkpt>
      <trkpt lat="45.31895" lon="4.47176">
        <ele>1185.9</ele>
        <time>2018-08-19T12:49:28.000Z</time>
      </trkpt>
      <trkpt lat="45.31896" lon="4.47178">
        <ele>1185.8</ele>
        <time>2018-08-19T12:49:29.000Z</time>
      </trkpt>
      <trkpt lat="45.31897" lon="4.47179">
        <ele>1185.8</ele>
        <time>2018-08-19T12:49:30.000Z</time>
      </trkpt>
      <trkpt lat="45.31898" lon="4.4718">
        <ele>1185.7</ele>
        <time>2018-08-19T12:49:31.000Z</time>
      </trkpt>
      <trkpt lat="45.31899" lon="4.47182">
        <ele>1185.6</ele>
        <time>2018-08-19T12:49:32.000Z</time>
      </trkpt>
      <trkpt lat="45.319" lon="4.47183">
        <ele>1185.5</ele>
        <time>2018-08-19T12:49:33.000Z</time>
      </trkpt>
      <trkpt lat="45.31901" lon="4.47185">
        <ele>1185.4</ele>
        <time>2018-08-19T12:49:34.000Z</time>
      </trkpt>
      <trkpt lat="45.31903" lon="4.47186">
        <ele>1185.3</ele>
        <time>2018-08-19T12:49:35.000Z</time>
      </trkpt>
      <trkpt lat="45.31904" lon="4.47188">
        <ele>1185.2</ele>
        <time>2018-08-19T12:49:36.000Z</time>
      </trkpt>
      <trkpt lat="45.31905" lon="4.47189">
        <ele>1185.1</ele>
        <time>2018-08-19T12:49:37.000Z</time>
      </trkpt>
      <trkpt lat="45.31906" lon="4.4719">
        <ele>1185</ele>
        <time>2018-08-19T12:49:38.000Z</time>
      </trkpt>
      <trkpt lat="45.31907" lon="4.47191">
        <ele>1184.9</ele>
        <time>2018-08-19T12:49:39.000Z</time>
      </trkpt>
      <trkpt lat="45.31908" lon="4.47192">
        <ele>1184.8</ele>
        <time>2018-08-19T12:49:40.000Z</time>
      </trkpt>
      <trkpt lat="45.31909" lon="4.47194">
        <ele>1184.7</ele>
        <time>2018-08-19T12:49:41.000Z</time>
      </trkpt>
      <trkpt lat="45.3191" lon="4.47195">
        <ele>1184.6</ele>
        <time>2018-08-19T12:49:42.000Z</time>
      </trkpt>
      <trkpt lat="45.31911" lon="4.47196">
        <ele>1184.5</ele>
        <time>2018-08-19T12:49:43.000Z</time>
      </trkpt>
      <trkpt lat="45.31912" lon="4.47197">
        <ele>1184.4</ele>
        <time>2018-08-19T12:49:44.000Z</time>
      </trkpt>
      <trkpt lat="45.31913" lon="4.47199">
        <ele>1184.3</ele>
        <time>2018-08-19T12:49:45.000Z</time>
      </trkpt>
      <trkpt lat="45.31914" lon="4.472">
        <ele>1184.2</ele>
        <time>2018-08-19T12:49:46.000Z</time>
      </trkpt>
      <trkpt lat="45.31916" lon="4.47201">
        <ele>1184.1</ele>
        <time>2018-08-19T12:49:47.000Z</time>
      </trkpt>
      <trkpt lat="45.31917" lon="4.47203">
        <ele>1184</ele>
        <time>2018-08-19T12:49:48.000Z</time>
      </trkpt>
      <trkpt lat="45.31918" lon="4.47204">
        <ele>1183.9</ele>
        <time>2018-08-19T12:49:49.000Z</time>
      </trkpt>
      <trkpt lat="45.31919" lon="4.47206">
        <ele>1183.8</ele>
        <time>2018-08-19T12:49:50.000Z</time>
      </trkpt>
      <trkpt lat="45.3192" lon="4.47207">
        <ele>1183.7</ele>
        <time>2018-08-19T12:49:51.000Z</time>
      </trkpt>
      <trkpt lat="45.31921" lon="4.47208">
        <ele>1183.6</ele>
        <time>2018-08-19T12:49:52.000Z</time>
      </trkpt>
      <trkpt lat="45.31922" lon="4.47209">
        <ele>1183.6</ele>
        <time>2018-08-19T12:49:53.000Z</time>
      </trkpt>
      <trkpt lat="45.31923" lon="4.47211">
        <ele>1183.5</ele>
        <time>2018-08-19T12:49:54.000Z</time>
      </trkpt>
      <trkpt lat="45.31924" lon="4.47212">
        <ele>1183.4</ele>
        <time>2018-08-19T12:49:55.000Z</time>
      </trkpt>
      <trkpt lat="45.31925" lon="4.47213">
        <ele>1183.3</ele>
        <time>2018-08-19T12:49:56.000Z</time>
      </trkpt>
      <trkpt lat="45.31926" lon="4.47215">
        <ele>1183.2</ele>
        <time>2018-08-19T12:49:57.000Z</time>
      </trkpt>
      <trkpt lat="45.31927" lon="4.47216">
        <ele>1183.1</ele>
        <time>2018-08-19T12:49:58.000Z</time>
      </trkpt>
      <trkpt lat="45.31928" lon="4.47217">
        <ele>1183</ele>
        <time>2018-08-19T12:49:59.000Z</time>
      </trkpt>
      <trkpt lat="45.31929" lon="4.47218">
        <ele>1182.9</ele>
        <time>2018-08-19T12:50:00.000Z</time>
      </trkpt>
      <trkpt lat="45.31931" lon="4.4722">
        <ele>1182.8</ele>
        <time>2018-08-19T12:50:01.000Z</time>
      </trkpt>
      <trkpt lat="45.31932" lon="4.47221">
        <ele>1182.8</ele>
        <time>2018-08-19T12:50:02.000Z</time>
      </trkpt>
      <trkpt lat="45.31933" lon="4.47222">
        <ele>1182.7</ele>
        <time>2018-08-19T12:50:03.000Z</time>
      </trkpt>
      <trkpt lat="45.31934" lon="4.47223">
        <ele>1182.6</ele>
        <time>2018-08-19T12:50:04.000Z</time>
      </trkpt>
      <trkpt lat="45.31935" lon="4.47225">
        <ele>1182.5</ele>
        <time>2018-08-19T12:50:05.000Z</time>
      </trkpt>
      <trkpt lat="45.31936" lon="4.47226">
        <ele>1182.4</ele>
        <time>2018-08-19T12:50:06.000Z</time>
      </trkpt>
      <trkpt lat="45.31937" lon="4.47227">
        <ele>1182.3</ele>
        <time>2018-08-19T12:50:07.000Z</time>
      </trkpt>
      <trkpt lat="45.31938" lon="4.47229">
        <ele>1182.2</ele>
        <time>2018-08-19T12:50:08.000Z</time>
      </trkpt>
      <trkpt lat="45.31939" lon="4.4723">
        <ele>1182.1</ele>
        <time>2018-08-19T12:50:09.000Z</time>
      </trkpt>
      <trkpt lat="45.3194" lon="4.47231">
        <ele>1182</ele>
        <time>2018-08-19T12:50:10.000Z</time>
      </trkpt>
      <trkpt lat="45.31941" lon="4.47233">
        <ele>1181.9</ele>
        <time>2018-08-19T12:50:11.000Z</time>
      </trkpt>
      <trkpt lat="45.31942" lon="4.47234">
        <ele>1181.9</ele>
        <time>2018-08-19T12:50:12.000Z</time>
      </trkpt>
      <trkpt lat="45.31943" lon="4.47235">
        <ele>1181.8</ele>
        <time>2018-08-19T12:50:13.000Z</time>
      </trkpt>
      <trkpt lat="45.31944" lon="4.47237">
        <ele>1181.7</ele>
        <time>2018-08-19T12:50:14.000Z</time>
      </trkpt>
      <trkpt lat="45.31945" lon="4.47238">
        <ele>1181.6</ele>
        <time>2018-08-19T12:50:15.000Z</time>
      </trkpt>
      <trkpt lat="45.31946" lon="4.4724">
        <ele>1181.5</ele>
        <time>2018-08-19T12:50:16.000Z</time>
      </trkpt>
      <trkpt lat="45.31947" lon="4.47241">
        <ele>1181.5</ele>
        <time>2018-08-19T12:50:17.000Z</time>
      </trkpt>
      <trkpt lat="45.31948" lon="4.47243">
        <ele>1181.4</ele>
        <time>2018-08-19T12:50:18.000Z</time>
      </trkpt>
      <trkpt lat="45.31948" lon="4.47244">
        <ele>1181.3</ele>
        <time>2018-08-19T12:50:19.000Z</time>
      </trkpt>
      <trkpt lat="45.31949" lon="4.47246">
        <ele>1181.3</ele>
        <time>2018-08-19T12:50:20.000Z</time>
      </trkpt>
      <trkpt lat="45.3195" lon="4.47248">
        <ele>1181.2</ele>
        <time>2018-08-19T12:50:21.000Z</time>
      </trkpt>
      <trkpt lat="45.31951" lon="4.47249">
        <ele>1181.1</ele>
        <time>2018-08-19T12:50:22.000Z</time>
      </trkpt>
      <trkpt lat="45.31952" lon="4.47251">
        <ele>1181.1</ele>
        <time>2018-08-19T12:50:23.000Z</time>
      </trkpt>
      <trkpt lat="45.31953" lon="4.47252">
        <ele>1181</ele>
        <time>2018-08-19T12:50:24.000Z</time>
      </trkpt>
      <trkpt lat="45.31953" lon="4.47254">
        <ele>1180.9</ele>
        <time>2018-08-19T12:50:25.000Z</time>
      </trkpt>
      <trkpt lat="45.31954" lon="4.47255">
        <ele>1180.9</ele>
        <time>2018-08-19T12:50:26.000Z</time>
      </trkpt>
      <trkpt lat="45.31955" lon="4.47257">
        <ele>1180.8</ele>
        <time>2018-08-19T12:50:27.000Z</time>
      </trkpt>
      <trkpt lat="45.31956" lon="4.47259">
        <ele>1180.8</ele>
        <time>2018-08-19T12:50:28.000Z</time>
      </trkpt>
      <trkpt lat="45.31956" lon="4.47261">
        <ele>1180.7</ele>
        <time>2018-08-19T12:50:29.000Z</time>
      </trkpt>
      <trkpt lat="45.31957" lon="4.47262">
        <ele>1180.7</ele>
        <time>2018-08-19T12:50:30.000Z</time>
      </trkpt>
      <trkpt lat="45.31957" lon="4.47264">
        <ele>1180.7</ele>
        <time>2018-08-19T12:50:31.000Z</time>
      </trkpt>
      <trkpt lat="45.31958" lon="4.47266">
        <ele>1180.6</ele>
        <time>2018-08-19T12:50:32.000Z</time>
      </trkpt>
      <trkpt lat="45.31958" lon="4.47268">
        <ele>1180.6</ele>
        <time>2018-08-19T12:50:33.000Z</time>
      </trkpt>
      <trkpt lat="45.31959" lon="4.4727">
        <ele>1180.6</ele>
        <time>2018-08-19T12:50:34.000Z</time>
      </trkpt>
      <trkpt lat="45.31959" lon="4.47272">
        <ele>1180.6</ele>
        <time>2018-08-19T12:50:35.000Z</time>
      </trkpt>
      <trkpt lat="45.31959" lon="4.47273">
        <ele>1180.6</ele>
        <time>2018-08-19T12:50:36.000Z</time>
      </trkpt>
      <trkpt lat="45.3196" lon="4.47275">
        <ele>1180.6</ele>
        <time>2018-08-19T12:50:37.000Z</time>
      </trkpt>
      <trkpt lat="45.3196" lon="4.47276">
        <ele>1180.6</ele>
        <time>2018-08-19T12:50:38.000Z</time>
      </trkpt>
      <trkpt lat="45.3196" lon="4.47278">
        <ele>1180.5</ele>
        <time>2018-08-19T12:50:39.000Z</time>
      </trkpt>
      <trkpt lat="45.3196" lon="4.47279">
        <ele>1180.5</ele>
        <time>2018-08-19T12:50:40.000Z</time>
      </trkpt>
      <trkpt lat="45.3196" lon="4.47281">
        <ele>1180.5</ele>
        <time>2018-08-19T12:50:41.000Z</time>
      </trkpt>
      <trkpt lat="45.3196" lon="4.47283">
        <ele>1180.6</ele>
        <time>2018-08-19T12:50:42.000Z</time>
      </trkpt>
      <trkpt lat="45.3196" lon="4.47284">
        <ele>1180.6</ele>
        <time>2018-08-19T12:50:43.000Z</time>
      </trkpt>
      <trkpt lat="45.3196" lon="4.47286">
        <ele>1180.6</ele>
        <time>2018-08-19T12:50:44.000Z</time>
      </trkpt>
      <trkpt lat="45.3196" lon="4.47288">
        <ele>1180.6</ele>
        <time>2018-08-19T12:50:45.000Z</time>
      </trkpt>
      <trkpt lat="45.31961" lon="4.47289">
        <ele>1180.6</ele>
        <time>2018-08-19T12:50:46.000Z</time>
      </trkpt>
      <trkpt lat="45.31961" lon="4.47291">
        <ele>1180.6</ele>
        <time>2018-08-19T12:50:47.000Z</time>
      </trkpt>
      <trkpt lat="45.31961" lon="4.47293">
        <ele>1180.6</ele>
        <time>2018-08-19T12:50:48.000Z</time>
      </trkpt>
      <trkpt lat="45.31962" lon="4.47295">
        <ele>1180.6</ele>
        <time>2018-08-19T12:50:49.000Z</time>
      </trkpt>
      <trkpt lat="45.31962" lon="4.47297">
        <ele>1180.5</ele>
        <time>2018-08-19T12:50:50.000Z</time>
      </trkpt>
      <trkpt lat="45.31962" lon="4.47299">
        <ele>1180.5</ele>
        <time>2018-08-19T12:50:51.000Z</time>
      </trkpt>
      <trkpt lat="45.31962" lon="4.473">
        <ele>1180.5</ele>
        <time>2018-08-19T12:50:52.000Z</time>
      </trkpt>
      <trkpt lat="45.31963" lon="4.47302">
        <ele>1180.6</ele>
        <time>2018-08-19T12:50:53.000Z</time>
      </trkpt>
      <trkpt lat="45.31963" lon="4.47304">
        <ele>1180.6</ele>
        <time>2018-08-19T12:50:54.000Z</time>
      </trkpt>
      <trkpt lat="45.31963" lon="4.47306">
        <ele>1180.6</ele>
        <time>2018-08-19T12:50:55.000Z</time>
      </trkpt>
      <trkpt lat="45.31963" lon="4.47308">
        <ele>1180.6</ele>
        <time>2018-08-19T12:50:56.000Z</time>
      </trkpt>
      <trkpt lat="45.31963" lon="4.4731">
        <ele>1180.6</ele>
        <time>2018-08-19T12:50:57.000Z</time>
      </trkpt>
      <trkpt lat="45.31963" lon="4.47311">
        <ele>1180.6</ele>
        <time>2018-08-19T12:50:58.000Z</time>
      </trkpt>
      <trkpt lat="45.31964" lon="4.47313">
        <ele>1180.6</ele>
        <time>2018-08-19T12:50:59.000Z</time>
      </trkpt>
      <trkpt lat="45.31964" lon="4.47315">
        <ele>1180.6</ele>
        <time>2018-08-19T12:51:00.000Z</time>
      </trkpt>
      <trkpt lat="45.31964" lon="4.47317">
        <ele>1180.6</ele>
        <time>2018-08-19T12:51:01.000Z</time>
      </trkpt>
      <trkpt lat="45.31964" lon="4.47319">
        <ele>1180.6</ele>
        <time>2018-08-19T12:51:02.000Z</time>
      </trkpt>
      <trkpt lat="45.31965" lon="4.47321">
        <ele>1180.6</ele>
        <time>2018-08-19T12:51:03.000Z</time>
      </trkpt>
      <trkpt lat="45.31965" lon="4.47323">
        <ele>1180.6</ele>
        <time>2018-08-19T12:51:04.000Z</time>
      </trkpt>
      <trkpt lat="45.31965" lon="4.47325">
        <ele>1180.6</ele>
        <time>2018-08-19T12:51:05.000Z</time>
      </trkpt>
      <trkpt lat="45.31965" lon="4.47327">
        <ele>1180.6</ele>
        <time>2018-08-19T12:51:06.000Z</time>
      </trkpt>
      <trkpt lat="45.31966" lon="4.47329">
        <ele>1180.6</ele>
        <time>2018-08-19T12:51:07.000Z</time>
      </trkpt>
      <trkpt lat="45.31966" lon="4.47331">
        <ele>1180.6</ele>
        <time>2018-08-19T12:51:08.000Z</time>
      </trkpt>
      <trkpt lat="45.31966" lon="4.47333">
        <ele>1180.6</ele>
        <time>2018-08-19T12:51:09.000Z</time>
      </trkpt>
      <trkpt lat="45.31967" lon="4.47335">
        <ele>1180.6</ele>
        <time>2018-08-19T12:51:10.000Z</time>
      </trkpt>
      <trkpt lat="45.31967" lon="4.47336">
        <ele>1180.6</ele>
        <time>2018-08-19T12:51:11.000Z</time>
      </trkpt>
      <trkpt lat="45.31968" lon="4.47338">
        <ele>1180.6</ele>
        <time>2018-08-19T12:51:12.000Z</time>
      </trkpt>
      <trkpt lat="45.31968" lon="4.4734">
        <ele>1180.6</ele>
        <time>2018-08-19T12:51:13.000Z</time>
      </trkpt>
      <trkpt lat="45.31968" lon="4.47342">
        <ele>1180.6</ele>
        <time>2018-08-19T12:51:14.000Z</time>
      </trkpt>
      <trkpt lat="45.31969" lon="4.47343">
        <ele>1180.6</ele>
        <time>2018-08-19T12:51:15.000Z</time>
      </trkpt>
      <trkpt lat="45.31969" lon="4.47345">
        <ele>1180.6</ele>
        <time>2018-08-19T12:51:16.000Z</time>
      </trkpt>
      <trkpt lat="45.31969" lon="4.47347">
        <ele>1180.6</ele>
        <time>2018-08-19T12:51:17.000Z</time>
      </trkpt>
      <trkpt lat="45.31969" lon="4.47348">
        <ele>1180.6</ele>
        <time>2018-08-19T12:51:18.000Z</time>
      </trkpt>
      <trkpt lat="45.3197" lon="4.4735">
        <ele>1180.6</ele>
        <time>2018-08-19T12:51:19.000Z</time>
      </trkpt>
      <trkpt lat="45.3197" lon="4.47352">
        <ele>1180.6</ele>
        <time>2018-08-19T12:51:20.000Z</time>
      </trkpt>
      <trkpt lat="45.3197" lon="4.47354">
        <ele>1180.7</ele>
        <time>2018-08-19T12:51:21.000Z</time>
      </trkpt>
      <trkpt lat="45.31971" lon="4.47356">
        <ele>1180.7</ele>
        <time>2018-08-19T12:51:22.000Z</time>
      </trkpt>
      <trkpt lat="45.31971" lon="4.47357">
        <ele>1180.7</ele>
        <time>2018-08-19T12:51:23.000Z</time>
      </trkpt>
      <trkpt lat="45.31971" lon="4.47359">
        <ele>1180.7</ele>
        <time>2018-08-19T12:51:24.000Z</time>
      </trkpt>
      <trkpt lat="45.31971" lon="4.47361">
        <ele>1180.7</ele>
        <time>2018-08-19T12:51:25.000Z</time>
      </trkpt>
      <trkpt lat="45.31972" lon="4.47363">
        <ele>1180.7</ele>
        <time>2018-08-19T12:51:26.000Z</time>
      </trkpt>
      <trkpt lat="45.31972" lon="4.47365">
        <ele>1180.7</ele>
        <time>2018-08-19T12:51:27.000Z</time>
      </trkpt>
      <trkpt lat="45.31972" lon="4.47366">
        <ele>1180.7</ele>
        <time>2018-08-19T12:51:28.000Z</time>
      </trkpt>
      <trkpt lat="45.31972" lon="4.47368">
        <ele>1180.7</ele>
        <time>2018-08-19T12:51:29.000Z</time>
      </trkpt>
      <trkpt lat="45.31973" lon="4.4737">
        <ele>1180.8</ele>
        <time>2018-08-19T12:51:30.000Z</time>
      </trkpt>
      <trkpt lat="45.31973" lon="4.47372">
        <ele>1180.8</ele>
        <time>2018-08-19T12:51:31.000Z</time>
      </trkpt>
      <trkpt lat="45.31973" lon="4.47374">
        <ele>1180.8</ele>
        <time>2018-08-19T12:51:32.000Z</time>
      </trkpt>
      <trkpt lat="45.31974" lon="4.47375">
        <ele>1180.8</ele>
        <time>2018-08-19T12:51:33.000Z</time>
      </trkpt>
      <trkpt lat="45.31974" lon="4.47377">
        <ele>1180.8</ele>
        <time>2018-08-19T12:51:34.000Z</time>
      </trkpt>
      <trkpt lat="45.31974" lon="4.47379">
        <ele>1180.8</ele>
        <time>2018-08-19T12:51:35.000Z</time>
      </trkpt>
      <trkpt lat="45.31975" lon="4.47381">
        <ele>1180.8</ele>
        <time>2018-08-19T12:51:36.000Z</time>
      </trkpt>
      <trkpt lat="45.31975" lon="4.47382">
        <ele>1180.9</ele>
        <time>2018-08-19T12:51:37.000Z</time>
      </trkpt>
      <trkpt lat="45.31975" lon="4.47384">
        <ele>1180.9</ele>
        <time>2018-08-19T12:51:38.000Z</time>
      </trkpt>
      <trkpt lat="45.31976" lon="4.47386">
        <ele>1180.9</ele>
        <time>2018-08-19T12:51:39.000Z</time>
      </trkpt>
      <trkpt lat="45.31976" lon="4.47387">
        <ele>1180.9</ele>
        <time>2018-08-19T12:51:40.000Z</time>
      </trkpt>
      <trkpt lat="45.31976" lon="4.47389">
        <ele>1180.9</ele>
        <time>2018-08-19T12:51:41.000Z</time>
      </trkpt>
      <trkpt lat="45.31977" lon="4.4739">
        <ele>1180.9</ele>
        <time>2018-08-19T12:51:42.000Z</time>
      </trkpt>
      <trkpt lat="45.31977" lon="4.47392">
        <ele>1180.9</ele>
        <time>2018-08-19T12:51:43.000Z</time>
      </trkpt>
      <trkpt lat="45.31977" lon="4.47394">
        <ele>1180.9</ele>
        <time>2018-08-19T12:51:44.000Z</time>
      </trkpt>
      <trkpt lat="45.31978" lon="4.47395">
        <ele>1181</ele>
        <time>2018-08-19T12:51:45.000Z</time>
      </trkpt>
      <trkpt lat="45.31978" lon="4.47397">
        <ele>1181</ele>
        <time>2018-08-19T12:51:46.000Z</time>
      </trkpt>
      <trkpt lat="45.31978" lon="4.47398">
        <ele>1181</ele>
        <time>2018-08-19T12:51:47.000Z</time>
      </trkpt>
      <trkpt lat="45.31979" lon="4.474">
        <ele>1181</ele>
        <time>2018-08-19T12:51:48.000Z</time>
      </trkpt>
      <trkpt lat="45.31979" lon="4.47402">
        <ele>1181</ele>
        <time>2018-08-19T12:51:49.000Z</time>
      </trkpt>
      <trkpt lat="45.3198" lon="4.47403">
        <ele>1181</ele>
        <time>2018-08-19T12:51:50.000Z</time>
      </trkpt>
      <trkpt lat="45.3198" lon="4.47405">
        <ele>1181.1</ele>
        <time>2018-08-19T12:51:51.000Z</time>
      </trkpt>
      <trkpt lat="45.3198" lon="4.47407">
        <ele>1181.1</ele>
        <time>2018-08-19T12:51:52.000Z</time>
      </trkpt>
      <trkpt lat="45.31981" lon="4.47408">
        <ele>1181.1</ele>
        <time>2018-08-19T12:51:53.000Z</time>
      </trkpt>
      <trkpt lat="45.31981" lon="4.4741">
        <ele>1181.1</ele>
        <time>2018-08-19T12:51:54.000Z</time>
      </trkpt>
      <trkpt lat="45.31982" lon="4.47412">
        <ele>1181.1</ele>
        <time>2018-08-19T12:51:55.000Z</time>
      </trkpt>
      <trkpt lat="45.31983" lon="4.47414">
        <ele>1181.2</ele>
        <time>2018-08-19T12:51:56.000Z</time>
      </trkpt>
      <trkpt lat="45.31983" lon="4.47416">
        <ele>1181.2</ele>
        <time>2018-08-19T12:51:57.000Z</time>
      </trkpt>
      <trkpt lat="45.31984" lon="4.47418">
        <ele>1181.3</ele>
        <time>2018-08-19T12:51:58.000Z</time>
      </trkpt>
      <trkpt lat="45.31985" lon="4.47419">
        <ele>1181.5</ele>
        <time>2018-08-19T12:51:59.000Z</time>
      </trkpt>
      <trkpt lat="45.31985" lon="4.47421">
        <ele>1181.6</ele>
        <time>2018-08-19T12:52:00.000Z</time>
      </trkpt>
      <trkpt lat="45.31986" lon="4.47423">
        <ele>1181.8</ele>
        <time>2018-08-19T12:52:01.000Z</time>
      </trkpt>
      <trkpt lat="45.31987" lon="4.47425">
        <ele>1181.9</ele>
        <time>2018-08-19T12:52:02.000Z</time>
      </trkpt>
      <trkpt lat="45.31988" lon="4.47426">
        <ele>1182.1</ele>
        <time>2018-08-19T12:52:03.000Z</time>
      </trkpt>
      <trkpt lat="45.31988" lon="4.47428">
        <ele>1182.2</ele>
        <time>2018-08-19T12:52:04.000Z</time>
      </trkpt>
      <trkpt lat="45.31989" lon="4.4743">
        <ele>1182.4</ele>
        <time>2018-08-19T12:52:05.000Z</time>
      </trkpt>
      <trkpt lat="45.3199" lon="4.47431">
        <ele>1182.5</ele>
        <time>2018-08-19T12:52:06.000Z</time>
      </trkpt>
      <trkpt lat="45.31991" lon="4.47433">
        <ele>1182.7</ele>
        <time>2018-08-19T12:52:07.000Z</time>
      </trkpt>
      <trkpt lat="45.31992" lon="4.47434">
        <ele>1182.8</ele>
        <time>2018-08-19T12:52:08.000Z</time>
      </trkpt>
      <trkpt lat="45.31992" lon="4.47436">
        <ele>1182.9</ele>
        <time>2018-08-19T12:52:09.000Z</time>
      </trkpt>
      <trkpt lat="45.31993" lon="4.47437">
        <ele>1183</ele>
        <time>2018-08-19T12:52:10.000Z</time>
      </trkpt>
      <trkpt lat="45.31994" lon="4.47438">
        <ele>1183.2</ele>
        <time>2018-08-19T12:52:11.000Z</time>
      </trkpt>
      <trkpt lat="45.31995" lon="4.4744">
        <ele>1183.3</ele>
        <time>2018-08-19T12:52:12.000Z</time>
      </trkpt>
      <trkpt lat="45.31996" lon="4.47441">
        <ele>1183.4</ele>
        <time>2018-08-19T12:52:13.000Z</time>
      </trkpt>
      <trkpt lat="45.31996" lon="4.47442">
        <ele>1183.5</ele>
        <time>2018-08-19T12:52:14.000Z</time>
      </trkpt>
      <trkpt lat="45.31997" lon="4.47443">
        <ele>1183.6</ele>
        <time>2018-08-19T12:52:15.000Z</time>
      </trkpt>
      <trkpt lat="45.31998" lon="4.47444">
        <ele>1183.7</ele>
        <time>2018-08-19T12:52:16.000Z</time>
      </trkpt>
      <trkpt lat="45.32" lon="4.47445">
        <ele>1183.8</ele>
        <time>2018-08-19T12:52:17.000Z</time>
      </trkpt>
      <trkpt lat="45.32001" lon="4.47446">
        <ele>1183.8</ele>
        <time>2018-08-19T12:52:18.000Z</time>
      </trkpt>
      <trkpt lat="45.32002" lon="4.47447">
        <ele>1183.9</ele>
        <time>2018-08-19T12:52:19.000Z</time>
      </trkpt>
      <trkpt lat="45.32002" lon="4.47448">
        <ele>1184</ele>
        <time>2018-08-19T12:52:20.000Z</time>
      </trkpt>
      <trkpt lat="45.32003" lon="4.4745">
        <ele>1184.1</ele>
        <time>2018-08-19T12:52:21.000Z</time>
      </trkpt>
      <trkpt lat="45.32004" lon="4.47451">
        <ele>1184.2</ele>
        <time>2018-08-19T12:52:22.000Z</time>
      </trkpt>
      <trkpt lat="45.32005" lon="4.47452">
        <ele>1184.3</ele>
        <time>2018-08-19T12:52:23.000Z</time>
      </trkpt>
      <trkpt lat="45.32006" lon="4.47453">
        <ele>1184.4</ele>
        <time>2018-08-19T12:52:24.000Z</time>
      </trkpt>
      <trkpt lat="45.32007" lon="4.47454">
        <ele>1184.5</ele>
        <time>2018-08-19T12:52:25.000Z</time>
      </trkpt>
      <trkpt lat="45.32008" lon="4.47455">
        <ele>1184.6</ele>
        <time>2018-08-19T12:52:26.000Z</time>
      </trkpt>
      <trkpt lat="45.32009" lon="4.47456">
        <ele>1184.7</ele>
        <time>2018-08-19T12:52:27.000Z</time>
      </trkpt>
      <trkpt lat="45.3201" lon="4.47457">
        <ele>1184.7</ele>
        <time>2018-08-19T12:52:28.000Z</time>
      </trkpt>
      <trkpt lat="45.32011" lon="4.47458">
        <ele>1184.8</ele>
        <time>2018-08-19T12:52:29.000Z</time>
      </trkpt>
      <trkpt lat="45.32012" lon="4.47459">
        <ele>1184.9</ele>
        <time>2018-08-19T12:52:30.000Z</time>
      </trkpt>
      <trkpt lat="45.32013" lon="4.4746">
        <ele>1185</ele>
        <time>2018-08-19T12:52:31.000Z</time>
      </trkpt>
      <trkpt lat="45.32014" lon="4.47461">
        <ele>1185</ele>
        <time>2018-08-19T12:52:32.000Z</time>
      </trkpt>
      <trkpt lat="45.32015" lon="4.47462">
        <ele>1185.1</ele>
        <time>2018-08-19T12:52:33.000Z</time>
      </trkpt>
      <trkpt lat="45.32016" lon="4.47462">
        <ele>1185.2</ele>
        <time>2018-08-19T12:52:34.000Z</time>
      </trkpt>
      <trkpt lat="45.32017" lon="4.47463">
        <ele>1185.2</ele>
        <time>2018-08-19T12:52:35.000Z</time>
      </trkpt>
      <trkpt lat="45.32018" lon="4.47464">
        <ele>1185.3</ele>
        <time>2018-08-19T12:52:36.000Z</time>
      </trkpt>
      <trkpt lat="45.32019" lon="4.47465">
        <ele>1185.4</ele>
        <time>2018-08-19T12:52:37.000Z</time>
      </trkpt>
      <trkpt lat="45.32021" lon="4.47466">
        <ele>1185.4</ele>
        <time>2018-08-19T12:52:38.000Z</time>
      </trkpt>
      <trkpt lat="45.32022" lon="4.47467">
        <ele>1185.5</ele>
        <time>2018-08-19T12:52:39.000Z</time>
      </trkpt>
      <trkpt lat="45.32023" lon="4.47468">
        <ele>1185.6</ele>
        <time>2018-08-19T12:52:40.000Z</time>
      </trkpt>
      <trkpt lat="45.32024" lon="4.4747">
        <ele>1185.6</ele>
        <time>2018-08-19T12:52:41.000Z</time>
      </trkpt>
      <trkpt lat="45.32026" lon="4.47471">
        <ele>1185.7</ele>
        <time>2018-08-19T12:52:42.000Z</time>
      </trkpt>
      <trkpt lat="45.32027" lon="4.47472">
        <ele>1185.8</ele>
        <time>2018-08-19T12:52:43.000Z</time>
      </trkpt>
      <trkpt lat="45.32028" lon="4.47473">
        <ele>1185.8</ele>
        <time>2018-08-19T12:52:44.000Z</time>
      </trkpt>
      <trkpt lat="45.32029" lon="4.47474">
        <ele>1185.9</ele>
        <time>2018-08-19T12:52:45.000Z</time>
      </trkpt>
      <trkpt lat="45.3203" lon="4.47476">
        <ele>1186</ele>
        <time>2018-08-19T12:52:46.000Z</time>
      </trkpt>
      <trkpt lat="45.32032" lon="4.47477">
        <ele>1186.1</ele>
        <time>2018-08-19T12:52:47.000Z</time>
      </trkpt>
      <trkpt lat="45.32033" lon="4.47478">
        <ele>1186.1</ele>
        <time>2018-08-19T12:52:48.000Z</time>
      </trkpt>
      <trkpt lat="45.32034" lon="4.4748">
        <ele>1186.2</ele>
        <time>2018-08-19T12:52:49.000Z</time>
      </trkpt>
      <trkpt lat="45.32035" lon="4.47481">
        <ele>1186.3</ele>
        <time>2018-08-19T12:52:50.000Z</time>
      </trkpt>
      <trkpt lat="45.32036" lon="4.47482">
        <ele>1186.4</ele>
        <time>2018-08-19T12:52:51.000Z</time>
      </trkpt>
      <trkpt lat="45.32037" lon="4.47484">
        <ele>1186.4</ele>
        <time>2018-08-19T12:52:52.000Z</time>
      </trkpt>
      <trkpt lat="45.32038" lon="4.47485">
        <ele>1186.5</ele>
        <time>2018-08-19T12:52:53.000Z</time>
      </trkpt>
      <trkpt lat="45.32039" lon="4.47486">
        <ele>1186.6</ele>
        <time>2018-08-19T12:52:54.000Z</time>
      </trkpt>
      <trkpt lat="45.32039" lon="4.47488">
        <ele>1186.7</ele>
        <time>2018-08-19T12:52:55.000Z</time>
      </trkpt>
      <trkpt lat="45.3204" lon="4.47489">
        <ele>1186.8</ele>
        <time>2018-08-19T12:52:56.000Z</time>
      </trkpt>
      <trkpt lat="45.32041" lon="4.47491">
        <ele>1186.8</ele>
        <time>2018-08-19T12:52:57.000Z</time>
      </trkpt>
      <trkpt lat="45.32042" lon="4.47492">
        <ele>1186.9</ele>
        <time>2018-08-19T12:52:58.000Z</time>
      </trkpt>
      <trkpt lat="45.32042" lon="4.47494">
        <ele>1187</ele>
        <time>2018-08-19T12:52:59.000Z</time>
      </trkpt>
      <trkpt lat="45.32043" lon="4.47495">
        <ele>1187.1</ele>
        <time>2018-08-19T12:53:00.000Z</time>
      </trkpt>
      <trkpt lat="45.32044" lon="4.47497">
        <ele>1187.2</ele>
        <time>2018-08-19T12:53:01.000Z</time>
      </trkpt>
      <trkpt lat="45.32044" lon="4.47498">
        <ele>1187.3</ele>
        <time>2018-08-19T12:53:02.000Z</time>
      </trkpt>
      <trkpt lat="45.32045" lon="4.475">
        <ele>1187.4</ele>
        <time>2018-08-19T12:53:03.000Z</time>
      </trkpt>
      <trkpt lat="45.32045" lon="4.47501">
        <ele>1187.4</ele>
        <time>2018-08-19T12:53:04.000Z</time>
      </trkpt>
      <trkpt lat="45.32046" lon="4.47503">
        <ele>1187.4</ele>
        <time>2018-08-19T12:53:05.000Z</time>
      </trkpt>
      <trkpt lat="45.32047" lon="4.47505">
        <ele>1187.5</ele>
        <time>2018-08-19T12:53:06.000Z</time>
      </trkpt>
      <trkpt lat="45.32048" lon="4.47506">
        <ele>1187.5</ele>
        <time>2018-08-19T12:53:07.000Z</time>
      </trkpt>
      <trkpt lat="45.32048" lon="4.47508">
        <ele>1187.5</ele>
        <time>2018-08-19T12:53:08.000Z</time>
      </trkpt>
      <trkpt lat="45.32049" lon="4.4751">
        <ele>1187.6</ele>
        <time>2018-08-19T12:53:09.000Z</time>
      </trkpt>
      <trkpt lat="45.3205" lon="4.47511">
        <ele>1187.6</ele>
        <time>2018-08-19T12:53:10.000Z</time>
      </trkpt>
      <trkpt lat="45.32051" lon="4.47513">
        <ele>1187.6</ele>
        <time>2018-08-19T12:53:11.000Z</time>
      </trkpt>
      <trkpt lat="45.32051" lon="4.47515">
        <ele>1187.6</ele>
        <time>2018-08-19T12:53:12.000Z</time>
      </trkpt>
      <trkpt lat="45.32052" lon="4.47516">
        <ele>1187.7</ele>
        <time>2018-08-19T12:53:13.000Z</time>
      </trkpt>
      <trkpt lat="45.32053" lon="4.47518">
        <ele>1187.7</ele>
        <time>2018-08-19T12:53:14.000Z</time>
      </trkpt>
      <trkpt lat="45.32053" lon="4.47519">
        <ele>1187.7</ele>
        <time>2018-08-19T12:53:15.000Z</time>
      </trkpt>
      <trkpt lat="45.32054" lon="4.4752">
        <ele>1187.7</ele>
        <time>2018-08-19T12:53:16.000Z</time>
      </trkpt>
      <trkpt lat="45.32055" lon="4.47522">
        <ele>1187.7</ele>
        <time>2018-08-19T12:53:17.000Z</time>
      </trkpt>
      <trkpt lat="45.32055" lon="4.47523">
        <ele>1187.7</ele>
        <time>2018-08-19T12:53:18.000Z</time>
      </trkpt>
      <trkpt lat="45.32056" lon="4.47523">
        <ele>1187.7</ele>
        <time>2018-08-19T12:53:19.000Z</time>
      </trkpt>
      <trkpt lat="45.32056" lon="4.47524">
        <ele>1187.7</ele>
        <time>2018-08-19T12:53:20.000Z</time>
      </trkpt>
      <trkpt lat="45.32056" lon="4.47524">
        <ele>1187.7</ele>
        <time>2018-08-19T12:53:21.000Z</time>
      </trkpt>
      <trkpt lat="45.32057" lon="4.47525">
        <ele>1187.7</ele>
        <time>2018-08-19T12:53:22.000Z</time>
      </trkpt>
      <trkpt lat="45.32057" lon="4.47525">
        <ele>1187.7</ele>
        <time>2018-08-19T12:53:23.000Z</time>
      </trkpt>
      <trkpt lat="45.32057" lon="4.47525">
        <ele>1187.7</ele>
        <time>2018-08-19T12:53:24.000Z</time>
      </trkpt>
      <trkpt lat="45.32057" lon="4.47525">
        <ele>1187.7</ele>
        <time>2018-08-19T12:53:25.000Z</time>
      </trkpt>
      <trkpt lat="45.32057" lon="4.47525">
        <ele>1187.7</ele>
        <time>2018-08-19T12:53:26.000Z</time>
      </trkpt>
      <trkpt lat="45.32058" lon="4.47525">
        <ele>1187.7</ele>
        <time>2018-08-19T12:53:27.000Z</time>
      </trkpt>
      <trkpt lat="45.32058" lon="4.47524">
        <ele>1187.7</ele>
        <time>2018-08-19T12:53:28.000Z</time>
      </trkpt>
      <trkpt lat="45.32058" lon="4.47524">
        <ele>1187.7</ele>
        <time>2018-08-19T12:53:29.000Z</time>
      </trkpt>
      <trkpt lat="45.32058" lon="4.47524">
        <ele>1187.7</ele>
        <time>2018-08-19T12:53:30.000Z</time>
      </trkpt>
      <trkpt lat="45.32058" lon="4.47524">
        <ele>1187.7</ele>
        <time>2018-08-19T12:53:31.000Z</time>
      </trkpt>
      <trkpt lat="45.32058" lon="4.47524">
        <ele>1187.7</ele>
        <time>2018-08-19T12:53:32.000Z</time>
      </trkpt>
      <trkpt lat="45.32058" lon="4.47524">
        <ele>1187.7</ele>
        <time>2018-08-19T12:53:33.000Z</time>
      </trkpt>
      <trkpt lat="45.32058" lon="4.47524">
        <ele>1187.7</ele>
        <time>2018-08-19T12:53:34.000Z</time>
      </trkpt>
      <trkpt lat="45.32058" lon="4.47524">
        <ele>1187.7</ele>
        <time>2018-08-19T12:53:35.000Z</time>
      </trkpt>
      <trkpt lat="45.32058" lon="4.47524">
        <ele>1187.7</ele>
        <time>2018-08-19T12:53:36.000Z</time>
      </trkpt>
      <trkpt lat="45.32058" lon="4.47523">
        <ele>1187.7</ele>
        <time>2018-08-19T12:53:37.000Z</time>
      </trkpt>
      <trkpt lat="45.32058" lon="4.47522">
        <ele>1187.6</ele>
        <time>2018-08-19T12:53:38.000Z</time>
      </trkpt>
      <trkpt lat="45.32057" lon="4.47521">
        <ele>1187.6</ele>
        <time>2018-08-19T12:53:39.000Z</time>
      </trkpt>
      <trkpt lat="45.32057" lon="4.4752">
        <ele>1187.6</ele>
        <time>2018-08-19T12:53:40.000Z</time>
      </trkpt>
      <trkpt lat="45.32057" lon="4.4752">
        <ele>1187.6</ele>
        <time>2018-08-19T12:53:41.000Z</time>
      </trkpt>
      <trkpt lat="45.32057" lon="4.47519">
        <ele>1187.5</ele>
        <time>2018-08-19T12:53:42.000Z</time>
      </trkpt>
      <trkpt lat="45.32057" lon="4.47519">
        <ele>1187.5</ele>
        <time>2018-08-19T12:53:43.000Z</time>
      </trkpt>
      <trkpt lat="45.32057" lon="4.47518">
        <ele>1187.5</ele>
        <time>2018-08-19T12:53:44.000Z</time>
      </trkpt>
      <trkpt lat="45.32057" lon="4.47518">
        <ele>1187.5</ele>
        <time>2018-08-19T12:53:45.000Z</time>
      </trkpt>
      <trkpt lat="45.32057" lon="4.47518">
        <ele>1187.5</ele>
        <time>2018-08-19T12:53:46.000Z</time>
      </trkpt>
      <trkpt lat="45.32057" lon="4.47518">
        <ele>1187.5</ele>
        <time>2018-08-19T12:53:47.000Z</time>
      </trkpt>
      <trkpt lat="45.32057" lon="4.47518">
        <ele>1187.5</ele>
        <time>2018-08-19T12:53:48.000Z</time>
      </trkpt>
      <trkpt lat="45.32057" lon="4.47518">
        <ele>1187.5</ele>
        <time>2018-08-19T12:53:49.000Z</time>
      </trkpt>
      <trkpt lat="45.32057" lon="4.47518">
        <ele>1187.5</ele>
        <time>2018-08-19T12:53:50.000Z</time>
      </trkpt>
      <trkpt lat="45.32057" lon="4.47518">
        <ele>1187.5</ele>
        <time>2018-08-19T12:53:51.000Z</time>
      </trkpt>
      <trkpt lat="45.32057" lon="4.47518">
        <ele>1187.5</ele>
        <time>2018-08-19T12:53:52.000Z</time>
      </trkpt>
      <trkpt lat="45.32057" lon="4.47518">
        <ele>1187.5</ele>
        <time>2018-08-19T12:53:53.000Z</time>
      </trkpt>
      <trkpt lat="45.32057" lon="4.47518">
        <ele>1187.5</ele>
        <time>2018-08-19T12:53:54.000Z</time>
      </trkpt>
      <trkpt lat="45.32057" lon="4.47518">
        <ele>1187.5</ele>
        <time>2018-08-19T12:53:55.000Z</time>
      </trkpt>
      <trkpt lat="45.32057" lon="4.47518">
        <ele>1187.5</ele>
        <time>2018-08-19T12:53:56.000Z</time>
      </trkpt>
      <trkpt lat="45.32057" lon="4.47518">
        <ele>1187.5</ele>
        <time>2018-08-19T12:53:57.000Z</time>
      </trkpt>
      <trkpt lat="45.32057" lon="4.47518">
        <ele>1187.5</ele>
        <time>2018-08-19T12:53:58.000Z</time>
      </trkpt>
      <trkpt lat="45.32057" lon="4.47518">
        <ele>1187.5</ele>
        <time>2018-08-19T12:53:59.000Z</time>
      </trkpt>
      <trkpt lat="45.32057" lon="4.47518">
        <ele>1187.5</ele>
        <time>2018-08-19T12:54:00.000Z</time>
      </trkpt>
      <trkpt lat="45.32057" lon="4.47518">
        <ele>1187.5</ele>
        <time>2018-08-19T12:54:01.000Z</time>
      </trkpt>
      <trkpt lat="45.32057" lon="4.47519">
        <ele>1187.6</ele>
        <time>2018-08-19T12:54:02.000Z</time>
      </trkpt>
      <trkpt lat="45.32057" lon="4.4752">
        <ele>1187.6</ele>
        <time>2018-08-19T12:54:03.000Z</time>
      </trkpt>
      <trkpt lat="45.32057" lon="4.4752">
        <ele>1187.6</ele>
        <time>2018-08-19T12:54:04.000Z</time>
      </trkpt>
      <trkpt lat="45.32057" lon="4.4752">
        <ele>1187.6</ele>
        <time>2018-08-19T12:54:05.000Z</time>
      </trkpt>
      <trkpt lat="45.32057" lon="4.47523">
        <ele>1187.7</ele>
        <time>2018-08-19T12:54:06.000Z</time>
      </trkpt>
      <trkpt lat="45.32057" lon="4.47523">
        <ele>1187.7</ele>
        <time>2018-08-19T12:54:07.000Z</time>
      </trkpt>
      <trkpt lat="45.32057" lon="4.47525">
        <ele>1187.7</ele>
        <time>2018-08-19T12:54:08.000Z</time>
      </trkpt>
      <trkpt lat="45.32057" lon="4.47527">
        <ele>1187.8</ele>
        <time>2018-08-19T12:54:09.000Z</time>
      </trkpt>
      <trkpt lat="45.32058" lon="4.47529">
        <ele>1187.8</ele>
        <time>2018-08-19T12:54:10.000Z</time>
      </trkpt>
      <trkpt lat="45.32058" lon="4.4753">
        <ele>1187.9</ele>
        <time>2018-08-19T12:54:11.000Z</time>
      </trkpt>
      <trkpt lat="45.32058" lon="4.47532">
        <ele>1187.9</ele>
        <time>2018-08-19T12:54:12.000Z</time>
      </trkpt>
      <trkpt lat="45.32059" lon="4.47534">
        <ele>1187.9</ele>
        <time>2018-08-19T12:54:13.000Z</time>
      </trkpt>
      <trkpt lat="45.3206" lon="4.47536">
        <ele>1188</ele>
        <time>2018-08-19T12:54:14.000Z</time>
      </trkpt>
      <trkpt lat="45.3206" lon="4.47538">
        <ele>1188</ele>
        <time>2018-08-19T12:54:15.000Z</time>
      </trkpt>
      <trkpt lat="45.32061" lon="4.47539">
        <ele>1188</ele>
        <time>2018-08-19T12:54:16.000Z</time>
      </trkpt>
      <trkpt lat="45.32062" lon="4.47541">
        <ele>1188</ele>
        <time>2018-08-19T12:54:17.000Z</time>
      </trkpt>
      <trkpt lat="45.32062" lon="4.47543">
        <ele>1188.1</ele>
        <time>2018-08-19T12:54:18.000Z</time>
      </trkpt>
      <trkpt lat="45.32063" lon="4.47545">
        <ele>1188.1</ele>
        <time>2018-08-19T12:54:19.000Z</time>
      </trkpt>
      <trkpt lat="45.32063" lon="4.47546">
        <ele>1188.1</ele>
        <time>2018-08-19T12:54:20.000Z</time>
      </trkpt>
      <trkpt lat="45.32064" lon="4.47548">
        <ele>1188.1</ele>
        <time>2018-08-19T12:54:21.000Z</time>
      </trkpt>
      <trkpt lat="45.32064" lon="4.4755">
        <ele>1188.1</ele>
        <time>2018-08-19T12:54:22.000Z</time>
      </trkpt>
      <trkpt lat="45.32065" lon="4.47551">
        <ele>1188.2</ele>
        <time>2018-08-19T12:54:23.000Z</time>
      </trkpt>
      <trkpt lat="45.32065" lon="4.47553">
        <ele>1188.2</ele>
        <time>2018-08-19T12:54:24.000Z</time>
      </trkpt>
      <trkpt lat="45.32066" lon="4.47555">
        <ele>1188.2</ele>
        <time>2018-08-19T12:54:25.000Z</time>
      </trkpt>
      <trkpt lat="45.32067" lon="4.47556">
        <ele>1188.2</ele>
        <time>2018-08-19T12:54:26.000Z</time>
      </trkpt>
      <trkpt lat="45.32067" lon="4.47558">
        <ele>1188.2</ele>
        <time>2018-08-19T12:54:27.000Z</time>
      </trkpt>
      <trkpt lat="45.32068" lon="4.47559">
        <ele>1188.3</ele>
        <time>2018-08-19T12:54:28.000Z</time>
      </trkpt>
      <trkpt lat="45.32068" lon="4.47561">
        <ele>1188.3</ele>
        <time>2018-08-19T12:54:29.000Z</time>
      </trkpt>
      <trkpt lat="45.32069" lon="4.47563">
        <ele>1188.3</ele>
        <time>2018-08-19T12:54:30.000Z</time>
      </trkpt>
      <trkpt lat="45.32069" lon="4.47564">
        <ele>1188.3</ele>
        <time>2018-08-19T12:54:31.000Z</time>
      </trkpt>
      <trkpt lat="45.3207" lon="4.47566">
        <ele>1188.3</ele>
        <time>2018-08-19T12:54:32.000Z</time>
      </trkpt>
      <trkpt lat="45.32071" lon="4.47568">
        <ele>1188.3</ele>
        <time>2018-08-19T12:54:33.000Z</time>
      </trkpt>
      <trkpt lat="45.32071" lon="4.47569">
        <ele>1188.4</ele>
        <time>2018-08-19T12:54:34.000Z</time>
      </trkpt>
      <trkpt lat="45.32072" lon="4.47571">
        <ele>1188.4</ele>
        <time>2018-08-19T12:54:35.000Z</time>
      </trkpt>
      <trkpt lat="45.32072" lon="4.47573">
        <ele>1188.4</ele>
        <time>2018-08-19T12:54:36.000Z</time>
      </trkpt>
      <trkpt lat="45.32073" lon="4.47575">
        <ele>1188.4</ele>
        <time>2018-08-19T12:54:37.000Z</time>
      </trkpt>
      <trkpt lat="45.32073" lon="4.47576">
        <ele>1188.4</ele>
        <time>2018-08-19T12:54:38.000Z</time>
      </trkpt>
      <trkpt lat="45.32074" lon="4.47578">
        <ele>1188.4</ele>
        <time>2018-08-19T12:54:39.000Z</time>
      </trkpt>
      <trkpt lat="45.32075" lon="4.4758">
        <ele>1188.4</ele>
        <time>2018-08-19T12:54:40.000Z</time>
      </trkpt>
      <trkpt lat="45.32075" lon="4.47582">
        <ele>1188.4</ele>
        <time>2018-08-19T12:54:41.000Z</time>
      </trkpt>
      <trkpt lat="45.32076" lon="4.47583">
        <ele>1188.5</ele>
        <time>2018-08-19T12:54:42.000Z</time>
      </trkpt>
      <trkpt lat="45.32076" lon="4.47585">
        <ele>1188.5</ele>
        <time>2018-08-19T12:54:43.000Z</time>
      </trkpt>
      <trkpt lat="45.32077" lon="4.47587">
        <ele>1188.6</ele>
        <time>2018-08-19T12:54:44.000Z</time>
      </trkpt>
      <trkpt lat="45.32077" lon="4.47588">
        <ele>1188.6</ele>
        <time>2018-08-19T12:54:45.000Z</time>
      </trkpt>
      <trkpt lat="45.32078" lon="4.4759">
        <ele>1188.7</ele>
        <time>2018-08-19T12:54:46.000Z</time>
      </trkpt>
      <trkpt lat="45.32078" lon="4.47592">
        <ele>1188.8</ele>
        <time>2018-08-19T12:54:47.000Z</time>
      </trkpt>
      <trkpt lat="45.32079" lon="4.47593">
        <ele>1188.8</ele>
        <time>2018-08-19T12:54:48.000Z</time>
      </trkpt>
      <trkpt lat="45.32079" lon="4.47595">
        <ele>1188.9</ele>
        <time>2018-08-19T12:54:49.000Z</time>
      </trkpt>
      <trkpt lat="45.3208" lon="4.47596">
        <ele>1189</ele>
        <time>2018-08-19T12:54:50.000Z</time>
      </trkpt>
      <trkpt lat="45.3208" lon="4.47598">
        <ele>1189</ele>
        <time>2018-08-19T12:54:51.000Z</time>
      </trkpt>
      <trkpt lat="45.3208" lon="4.476">
        <ele>1189.1</ele>
        <time>2018-08-19T12:54:52.000Z</time>
      </trkpt>
      <trkpt lat="45.32081" lon="4.47601">
        <ele>1189.2</ele>
        <time>2018-08-19T12:54:53.000Z</time>
      </trkpt>
      <trkpt lat="45.32081" lon="4.47603">
        <ele>1189.3</ele>
        <time>2018-08-19T12:54:54.000Z</time>
      </trkpt>
      <trkpt lat="45.32081" lon="4.47604">
        <ele>1189.3</ele>
        <time>2018-08-19T12:54:55.000Z</time>
      </trkpt>
      <trkpt lat="45.32082" lon="4.47605">
        <ele>1189.4</ele>
        <time>2018-08-19T12:54:56.000Z</time>
      </trkpt>
      <trkpt lat="45.32082" lon="4.47607">
        <ele>1189.5</ele>
        <time>2018-08-19T12:54:57.000Z</time>
      </trkpt>
      <trkpt lat="45.32083" lon="4.47608">
        <ele>1189.5</ele>
        <time>2018-08-19T12:54:58.000Z</time>
      </trkpt>
      <trkpt lat="45.32083" lon="4.4761">
        <ele>1189.6</ele>
        <time>2018-08-19T12:54:59.000Z</time>
      </trkpt>
      <trkpt lat="45.32083" lon="4.47611">
        <ele>1189.7</ele>
        <time>2018-08-19T12:55:00.000Z</time>
      </trkpt>
      <trkpt lat="45.32084" lon="4.47613">
        <ele>1189.7</ele>
        <time>2018-08-19T12:55:01.000Z</time>
      </trkpt>
      <trkpt lat="45.32084" lon="4.47614">
        <ele>1189.8</ele>
        <time>2018-08-19T12:55:02.000Z</time>
      </trkpt>
      <trkpt lat="45.32085" lon="4.47615">
        <ele>1189.9</ele>
        <time>2018-08-19T12:55:03.000Z</time>
      </trkpt>
      <trkpt lat="45.32085" lon="4.47617">
        <ele>1189.9</ele>
        <time>2018-08-19T12:55:04.000Z</time>
      </trkpt>
      <trkpt lat="45.32086" lon="4.47618">
        <ele>1190</ele>
        <time>2018-08-19T12:55:05.000Z</time>
      </trkpt>
      <trkpt lat="45.32086" lon="4.4762">
        <ele>1190</ele>
        <time>2018-08-19T12:55:06.000Z</time>
      </trkpt>
      <trkpt lat="45.32087" lon="4.47621">
        <ele>1190.1</ele>
        <time>2018-08-19T12:55:07.000Z</time>
      </trkpt>
      <trkpt lat="45.32087" lon="4.47622">
        <ele>1190.1</ele>
        <time>2018-08-19T12:55:08.000Z</time>
      </trkpt>
      <trkpt lat="45.32088" lon="4.47624">
        <ele>1190.2</ele>
        <time>2018-08-19T12:55:09.000Z</time>
      </trkpt>
      <trkpt lat="45.32089" lon="4.47625">
        <ele>1190.2</ele>
        <time>2018-08-19T12:55:10.000Z</time>
      </trkpt>
      <trkpt lat="45.32089" lon="4.47626">
        <ele>1190.3</ele>
        <time>2018-08-19T12:55:11.000Z</time>
      </trkpt>
      <trkpt lat="45.3209" lon="4.47627">
        <ele>1190.3</ele>
        <time>2018-08-19T12:55:12.000Z</time>
      </trkpt>
      <trkpt lat="45.32091" lon="4.47629">
        <ele>1190.4</ele>
        <time>2018-08-19T12:55:13.000Z</time>
      </trkpt>
      <trkpt lat="45.32091" lon="4.4763">
        <ele>1190.4</ele>
        <time>2018-08-19T12:55:14.000Z</time>
      </trkpt>
      <trkpt lat="45.32092" lon="4.47631">
        <ele>1190.5</ele>
        <time>2018-08-19T12:55:15.000Z</time>
      </trkpt>
      <trkpt lat="45.32092" lon="4.47632">
        <ele>1190.5</ele>
        <time>2018-08-19T12:55:16.000Z</time>
      </trkpt>
      <trkpt lat="45.32093" lon="4.47633">
        <ele>1190.5</ele>
        <time>2018-08-19T12:55:17.000Z</time>
      </trkpt>
      <trkpt lat="45.32094" lon="4.47635">
        <ele>1190.6</ele>
        <time>2018-08-19T12:55:18.000Z</time>
      </trkpt>
      <trkpt lat="45.32094" lon="4.47636">
        <ele>1190.6</ele>
        <time>2018-08-19T12:55:19.000Z</time>
      </trkpt>
      <trkpt lat="45.32095" lon="4.47637">
        <ele>1190.7</ele>
        <time>2018-08-19T12:55:20.000Z</time>
      </trkpt>
      <trkpt lat="45.32096" lon="4.47638">
        <ele>1190.7</ele>
        <time>2018-08-19T12:55:21.000Z</time>
      </trkpt>
      <trkpt lat="45.32096" lon="4.4764">
        <ele>1190.8</ele>
        <time>2018-08-19T12:55:22.000Z</time>
      </trkpt>
      <trkpt lat="45.32097" lon="4.47641">
        <ele>1190.8</ele>
        <time>2018-08-19T12:55:23.000Z</time>
      </trkpt>
      <trkpt lat="45.32098" lon="4.47642">
        <ele>1190.9</ele>
        <time>2018-08-19T12:55:24.000Z</time>
      </trkpt>
      <trkpt lat="45.32098" lon="4.47644">
        <ele>1190.9</ele>
        <time>2018-08-19T12:55:25.000Z</time>
      </trkpt>
      <trkpt lat="45.32099" lon="4.47645">
        <ele>1191</ele>
        <time>2018-08-19T12:55:26.000Z</time>
      </trkpt>
      <trkpt lat="45.321" lon="4.47647">
        <ele>1191</ele>
        <time>2018-08-19T12:55:27.000Z</time>
      </trkpt>
      <trkpt lat="45.32101" lon="4.47648">
        <ele>1191.1</ele>
        <time>2018-08-19T12:55:28.000Z</time>
      </trkpt>
      <trkpt lat="45.32101" lon="4.47649">
        <ele>1191.1</ele>
        <time>2018-08-19T12:55:29.000Z</time>
      </trkpt>
      <trkpt lat="45.32102" lon="4.47651">
        <ele>1191.2</ele>
        <time>2018-08-19T12:55:30.000Z</time>
      </trkpt>
      <trkpt lat="45.32103" lon="4.47652">
        <ele>1191.2</ele>
        <time>2018-08-19T12:55:31.000Z</time>
      </trkpt>
      <trkpt lat="45.32103" lon="4.47654">
        <ele>1191.3</ele>
        <time>2018-08-19T12:55:32.000Z</time>
      </trkpt>
      <trkpt lat="45.32104" lon="4.47655">
        <ele>1191.3</ele>
        <time>2018-08-19T12:55:33.000Z</time>
      </trkpt>
      <trkpt lat="45.32105" lon="4.47656">
        <ele>1191.4</ele>
        <time>2018-08-19T12:55:34.000Z</time>
      </trkpt>
      <trkpt lat="45.32106" lon="4.47658">
        <ele>1191.4</ele>
        <time>2018-08-19T12:55:35.000Z</time>
      </trkpt>
      <trkpt lat="45.32106" lon="4.47659">
        <ele>1191.4</ele>
        <time>2018-08-19T12:55:36.000Z</time>
      </trkpt>
      <trkpt lat="45.32107" lon="4.4766">
        <ele>1191.5</ele>
        <time>2018-08-19T12:55:37.000Z</time>
      </trkpt>
      <trkpt lat="45.32108" lon="4.47661">
        <ele>1191.5</ele>
        <time>2018-08-19T12:55:38.000Z</time>
      </trkpt>
      <trkpt lat="45.32109" lon="4.47662">
        <ele>1191.5</ele>
        <time>2018-08-19T12:55:39.000Z</time>
      </trkpt>
      <trkpt lat="45.3211" lon="4.47663">
        <ele>1191.5</ele>
        <time>2018-08-19T12:55:40.000Z</time>
      </trkpt>
      <trkpt lat="45.32111" lon="4.47664">
        <ele>1191.5</ele>
        <time>2018-08-19T12:55:41.000Z</time>
      </trkpt>
      <trkpt lat="45.32112" lon="4.47665">
        <ele>1191.5</ele>
        <time>2018-08-19T12:55:42.000Z</time>
      </trkpt>
      <trkpt lat="45.32114" lon="4.47666">
        <ele>1191.5</ele>
        <time>2018-08-19T12:55:43.000Z</time>
      </trkpt>
      <trkpt lat="45.32115" lon="4.47667">
        <ele>1191.5</ele>
        <time>2018-08-19T12:55:44.000Z</time>
      </trkpt>
      <trkpt lat="45.32116" lon="4.47668">
        <ele>1191.5</ele>
        <time>2018-08-19T12:55:45.000Z</time>
      </trkpt>
      <trkpt lat="45.32117" lon="4.47669">
        <ele>1191.6</ele>
        <time>2018-08-19T12:55:46.000Z</time>
      </trkpt>
      <trkpt lat="45.32118" lon="4.47669">
        <ele>1191.6</ele>
        <time>2018-08-19T12:55:47.000Z</time>
      </trkpt>
      <trkpt lat="45.32119" lon="4.4767">
        <ele>1191.6</ele>
        <time>2018-08-19T12:55:48.000Z</time>
      </trkpt>
      <trkpt lat="45.3212" lon="4.47671">
        <ele>1191.6</ele>
        <time>2018-08-19T12:55:49.000Z</time>
      </trkpt>
      <trkpt lat="45.32121" lon="4.47672">
        <ele>1191.7</ele>
        <time>2018-08-19T12:55:50.000Z</time>
      </trkpt>
      <trkpt lat="45.32122" lon="4.47673">
        <ele>1191.7</ele>
        <time>2018-08-19T12:55:51.000Z</time>
      </trkpt>
      <trkpt lat="45.32123" lon="4.47674">
        <ele>1191.7</ele>
        <time>2018-08-19T12:55:52.000Z</time>
      </trkpt>
      <trkpt lat="45.32124" lon="4.47675">
        <ele>1191.7</ele>
        <time>2018-08-19T12:55:53.000Z</time>
      </trkpt>
      <trkpt lat="45.32125" lon="4.47675">
        <ele>1191.7</ele>
        <time>2018-08-19T12:55:54.000Z</time>
      </trkpt>
      <trkpt lat="45.32126" lon="4.47676">
        <ele>1191.8</ele>
        <time>2018-08-19T12:55:55.000Z</time>
      </trkpt>
      <trkpt lat="45.32127" lon="4.47677">
        <ele>1191.8</ele>
        <time>2018-08-19T12:55:56.000Z</time>
      </trkpt>
      <trkpt lat="45.32128" lon="4.47678">
        <ele>1191.8</ele>
        <time>2018-08-19T12:55:57.000Z</time>
      </trkpt>
      <trkpt lat="45.32129" lon="4.47679">
        <ele>1191.8</ele>
        <time>2018-08-19T12:55:58.000Z</time>
      </trkpt>
      <trkpt lat="45.32131" lon="4.4768">
        <ele>1191.8</ele>
        <time>2018-08-19T12:55:59.000Z</time>
      </trkpt>
      <trkpt lat="45.32132" lon="4.47681">
        <ele>1191.8</ele>
        <time>2018-08-19T12:56:00.000Z</time>
      </trkpt>
      <trkpt lat="45.32133" lon="4.47682">
        <ele>1191.8</ele>
        <time>2018-08-19T12:56:01.000Z</time>
      </trkpt>
      <trkpt lat="45.32134" lon="4.47683">
        <ele>1191.9</ele>
        <time>2018-08-19T12:56:02.000Z</time>
      </trkpt>
      <trkpt lat="45.32135" lon="4.47684">
        <ele>1191.9</ele>
        <time>2018-08-19T12:56:03.000Z</time>
      </trkpt>
      <trkpt lat="45.32137" lon="4.47685">
        <ele>1191.9</ele>
        <time>2018-08-19T12:56:04.000Z</time>
      </trkpt>
      <trkpt lat="45.32138" lon="4.47686">
        <ele>1191.9</ele>
        <time>2018-08-19T12:56:05.000Z</time>
      </trkpt>
      <trkpt lat="45.32139" lon="4.47687">
        <ele>1191.9</ele>
        <time>2018-08-19T12:56:06.000Z</time>
      </trkpt>
      <trkpt lat="45.3214" lon="4.47688">
        <ele>1191.9</ele>
        <time>2018-08-19T12:56:07.000Z</time>
      </trkpt>
      <trkpt lat="45.32141" lon="4.47688">
        <ele>1191.9</ele>
        <time>2018-08-19T12:56:08.000Z</time>
      </trkpt>
      <trkpt lat="45.32142" lon="4.47689">
        <ele>1191.9</ele>
        <time>2018-08-19T12:56:09.000Z</time>
      </trkpt>
      <trkpt lat="45.32144" lon="4.4769">
        <ele>1191.9</ele>
        <time>2018-08-19T12:56:10.000Z</time>
      </trkpt>
      <trkpt lat="45.32145" lon="4.4769">
        <ele>1191.9</ele>
        <time>2018-08-19T12:56:11.000Z</time>
      </trkpt>
      <trkpt lat="45.32146" lon="4.4769">
        <ele>1191.8</ele>
        <time>2018-08-19T12:56:12.000Z</time>
      </trkpt>
      <trkpt lat="45.32147" lon="4.47691">
        <ele>1191.8</ele>
        <time>2018-08-19T12:56:13.000Z</time>
      </trkpt>
      <trkpt lat="45.32148" lon="4.47691">
        <ele>1191.8</ele>
        <time>2018-08-19T12:56:14.000Z</time>
      </trkpt>
      <trkpt lat="45.32149" lon="4.47692">
        <ele>1191.8</ele>
        <time>2018-08-19T12:56:15.000Z</time>
      </trkpt>
      <trkpt lat="45.32151" lon="4.47693">
        <ele>1191.8</ele>
        <time>2018-08-19T12:56:16.000Z</time>
      </trkpt>
      <trkpt lat="45.32152" lon="4.47695">
        <ele>1191.8</ele>
        <time>2018-08-19T12:56:17.000Z</time>
      </trkpt>
      <trkpt lat="45.32154" lon="4.47696">
        <ele>1191.8</ele>
        <time>2018-08-19T12:56:18.000Z</time>
      </trkpt>
      <trkpt lat="45.32155" lon="4.47697">
        <ele>1191.8</ele>
        <time>2018-08-19T12:56:19.000Z</time>
      </trkpt>
      <trkpt lat="45.32156" lon="4.47698">
        <ele>1191.8</ele>
        <time>2018-08-19T12:56:20.000Z</time>
      </trkpt>
      <trkpt lat="45.32157" lon="4.47699">
        <ele>1191.8</ele>
        <time>2018-08-19T12:56:21.000Z</time>
      </trkpt>
      <trkpt lat="45.32158" lon="4.47699">
        <ele>1191.8</ele>
        <time>2018-08-19T12:56:22.000Z</time>
      </trkpt>
      <trkpt lat="45.3216" lon="4.477">
        <ele>1191.8</ele>
        <time>2018-08-19T12:56:23.000Z</time>
      </trkpt>
      <trkpt lat="45.32161" lon="4.47701">
        <ele>1191.8</ele>
        <time>2018-08-19T12:56:24.000Z</time>
      </trkpt>
      <trkpt lat="45.32162" lon="4.47702">
        <ele>1191.8</ele>
        <time>2018-08-19T12:56:25.000Z</time>
      </trkpt>
      <trkpt lat="45.32164" lon="4.47704">
        <ele>1191.8</ele>
        <time>2018-08-19T12:56:26.000Z</time>
      </trkpt>
      <trkpt lat="45.32165" lon="4.47705">
        <ele>1191.8</ele>
        <time>2018-08-19T12:56:27.000Z</time>
      </trkpt>
      <trkpt lat="45.32167" lon="4.47706">
        <ele>1191.8</ele>
        <time>2018-08-19T12:56:28.000Z</time>
      </trkpt>
      <trkpt lat="45.32168" lon="4.47707">
        <ele>1191.8</ele>
        <time>2018-08-19T12:56:29.000Z</time>
      </trkpt>
      <trkpt lat="45.32169" lon="4.47708">
        <ele>1191.8</ele>
        <time>2018-08-19T12:56:30.000Z</time>
      </trkpt>
      <trkpt lat="45.3217" lon="4.47709">
        <ele>1191.7</ele>
        <time>2018-08-19T12:56:31.000Z</time>
      </trkpt>
      <trkpt lat="45.32172" lon="4.4771">
        <ele>1191.7</ele>
        <time>2018-08-19T12:56:32.000Z</time>
      </trkpt>
      <trkpt lat="45.32173" lon="4.47711">
        <ele>1191.7</ele>
        <time>2018-08-19T12:56:33.000Z</time>
      </trkpt>
      <trkpt lat="45.32174" lon="4.47712">
        <ele>1191.6</ele>
        <time>2018-08-19T12:56:34.000Z</time>
      </trkpt>
      <trkpt lat="45.32175" lon="4.47713">
        <ele>1191.6</ele>
        <time>2018-08-19T12:56:35.000Z</time>
      </trkpt>
      <trkpt lat="45.32176" lon="4.47714">
        <ele>1191.6</ele>
        <time>2018-08-19T12:56:36.000Z</time>
      </trkpt>
      <trkpt lat="45.32177" lon="4.47715">
        <ele>1191.6</ele>
        <time>2018-08-19T12:56:37.000Z</time>
      </trkpt>
      <trkpt lat="45.32178" lon="4.47716">
        <ele>1191.5</ele>
        <time>2018-08-19T12:56:38.000Z</time>
      </trkpt>
      <trkpt lat="45.32179" lon="4.47717">
        <ele>1191.5</ele>
        <time>2018-08-19T12:56:39.000Z</time>
      </trkpt>
      <trkpt lat="45.3218" lon="4.47718">
        <ele>1191.5</ele>
        <time>2018-08-19T12:56:40.000Z</time>
      </trkpt>
      <trkpt lat="45.32181" lon="4.47719">
        <ele>1191.5</ele>
        <time>2018-08-19T12:56:41.000Z</time>
      </trkpt>
      <trkpt lat="45.32182" lon="4.4772">
        <ele>1191.5</ele>
        <time>2018-08-19T12:56:42.000Z</time>
      </trkpt>
      <trkpt lat="45.32183" lon="4.47721">
        <ele>1191.4</ele>
        <time>2018-08-19T12:56:43.000Z</time>
      </trkpt>
      <trkpt lat="45.32184" lon="4.47722">
        <ele>1191.4</ele>
        <time>2018-08-19T12:56:44.000Z</time>
      </trkpt>
      <trkpt lat="45.32186" lon="4.47723">
        <ele>1191.4</ele>
        <time>2018-08-19T12:56:45.000Z</time>
      </trkpt>
      <trkpt lat="45.32187" lon="4.47725">
        <ele>1191.4</ele>
        <time>2018-08-19T12:56:46.000Z</time>
      </trkpt>
      <trkpt lat="45.32188" lon="4.47726">
        <ele>1191.4</ele>
        <time>2018-08-19T12:56:47.000Z</time>
      </trkpt>
      <trkpt lat="45.32189" lon="4.47727">
        <ele>1191.4</ele>
        <time>2018-08-19T12:56:48.000Z</time>
      </trkpt>
      <trkpt lat="45.3219" lon="4.47729">
        <ele>1191.3</ele>
        <time>2018-08-19T12:56:49.000Z</time>
      </trkpt>
      <trkpt lat="45.32192" lon="4.4773">
        <ele>1191.3</ele>
        <time>2018-08-19T12:56:50.000Z</time>
      </trkpt>
      <trkpt lat="45.32193" lon="4.47731">
        <ele>1191.2</ele>
        <time>2018-08-19T12:56:51.000Z</time>
      </trkpt>
      <trkpt lat="45.32194" lon="4.47732">
        <ele>1191.2</ele>
        <time>2018-08-19T12:56:52.000Z</time>
      </trkpt>
      <trkpt lat="45.32196" lon="4.47733">
        <ele>1191.1</ele>
        <time>2018-08-19T12:56:53.000Z</time>
      </trkpt>
      <trkpt lat="45.32197" lon="4.47734">
        <ele>1191.1</ele>
        <time>2018-08-19T12:56:54.000Z</time>
      </trkpt>
      <trkpt lat="45.32199" lon="4.47735">
        <ele>1191</ele>
        <time>2018-08-19T12:56:55.000Z</time>
      </trkpt>
      <trkpt lat="45.322" lon="4.47736">
        <ele>1190.9</ele>
        <time>2018-08-19T12:56:56.000Z</time>
      </trkpt>
      <trkpt lat="45.32201" lon="4.47737">
        <ele>1190.9</ele>
        <time>2018-08-19T12:56:57.000Z</time>
      </trkpt>
      <trkpt lat="45.32203" lon="4.47738">
        <ele>1190.8</ele>
        <time>2018-08-19T12:56:58.000Z</time>
      </trkpt>
      <trkpt lat="45.32204" lon="4.47739">
        <ele>1190.7</ele>
        <time>2018-08-19T12:56:59.000Z</time>
      </trkpt>
      <trkpt lat="45.32206" lon="4.4774">
        <ele>1190.6</ele>
        <time>2018-08-19T12:57:00.000Z</time>
      </trkpt>
      <trkpt lat="45.32207" lon="4.4774">
        <ele>1190.5</ele>
        <time>2018-08-19T12:57:01.000Z</time>
      </trkpt>
      <trkpt lat="45.32208" lon="4.47741">
        <ele>1190.5</ele>
        <time>2018-08-19T12:57:02.000Z</time>
      </trkpt>
      <trkpt lat="45.3221" lon="4.47742">
        <ele>1190.4</ele>
        <time>2018-08-19T12:57:03.000Z</time>
      </trkpt>
      <trkpt lat="45.32211" lon="4.47742">
        <ele>1190.3</ele>
        <time>2018-08-19T12:57:04.000Z</time>
      </trkpt>
      <trkpt lat="45.32212" lon="4.47743">
        <ele>1190.2</ele>
        <time>2018-08-19T12:57:05.000Z</time>
      </trkpt>
      <trkpt lat="45.32213" lon="4.47744">
        <ele>1190.2</ele>
        <time>2018-08-19T12:57:06.000Z</time>
      </trkpt>
      <trkpt lat="45.32215" lon="4.47745">
        <ele>1190.1</ele>
        <time>2018-08-19T12:57:07.000Z</time>
      </trkpt>
      <trkpt lat="45.32216" lon="4.47746">
        <ele>1190</ele>
        <time>2018-08-19T12:57:08.000Z</time>
      </trkpt>
      <trkpt lat="45.32218" lon="4.47747">
        <ele>1189.9</ele>
        <time>2018-08-19T12:57:09.000Z</time>
      </trkpt>
      <trkpt lat="45.32219" lon="4.47748">
        <ele>1189.9</ele>
        <time>2018-08-19T12:57:10.000Z</time>
      </trkpt>
      <trkpt lat="45.32221" lon="4.47749">
        <ele>1189.8</ele>
        <time>2018-08-19T12:57:11.000Z</time>
      </trkpt>
      <trkpt lat="45.32222" lon="4.4775">
        <ele>1189.7</ele>
        <time>2018-08-19T12:57:12.000Z</time>
      </trkpt>
      <trkpt lat="45.32223" lon="4.47751">
        <ele>1189.7</ele>
        <time>2018-08-19T12:57:13.000Z</time>
      </trkpt>
      <trkpt lat="45.32224" lon="4.47752">
        <ele>1189.6</ele>
        <time>2018-08-19T12:57:14.000Z</time>
      </trkpt>
      <trkpt lat="45.32225" lon="4.47753">
        <ele>1189.5</ele>
        <time>2018-08-19T12:57:15.000Z</time>
      </trkpt>
      <trkpt lat="45.32226" lon="4.47754">
        <ele>1189.4</ele>
        <time>2018-08-19T12:57:16.000Z</time>
      </trkpt>
      <trkpt lat="45.32227" lon="4.47755">
        <ele>1189.4</ele>
        <time>2018-08-19T12:57:17.000Z</time>
      </trkpt>
      <trkpt lat="45.32228" lon="4.47755">
        <ele>1189.3</ele>
        <time>2018-08-19T12:57:18.000Z</time>
      </trkpt>
      <trkpt lat="45.32229" lon="4.47756">
        <ele>1189.2</ele>
        <time>2018-08-19T12:57:19.000Z</time>
      </trkpt>
      <trkpt lat="45.3223" lon="4.47756">
        <ele>1189.1</ele>
        <time>2018-08-19T12:57:20.000Z</time>
      </trkpt>
      <trkpt lat="45.32232" lon="4.47757">
        <ele>1189</ele>
        <time>2018-08-19T12:57:21.000Z</time>
      </trkpt>
      <trkpt lat="45.32233" lon="4.47758">
        <ele>1188.9</ele>
        <time>2018-08-19T12:57:22.000Z</time>
      </trkpt>
      <trkpt lat="45.32234" lon="4.47759">
        <ele>1188.8</ele>
        <time>2018-08-19T12:57:23.000Z</time>
      </trkpt>
      <trkpt lat="45.32235" lon="4.4776">
        <ele>1188.8</ele>
        <time>2018-08-19T12:57:24.000Z</time>
      </trkpt>
      <trkpt lat="45.32236" lon="4.47761">
        <ele>1188.7</ele>
        <time>2018-08-19T12:57:25.000Z</time>
      </trkpt>
      <trkpt lat="45.32238" lon="4.47762">
        <ele>1188.6</ele>
        <time>2018-08-19T12:57:26.000Z</time>
      </trkpt>
      <trkpt lat="45.32239" lon="4.47763">
        <ele>1188.5</ele>
        <time>2018-08-19T12:57:27.000Z</time>
      </trkpt>
      <trkpt lat="45.3224" lon="4.47764">
        <ele>1188.4</ele>
        <time>2018-08-19T12:57:28.000Z</time>
      </trkpt>
      <trkpt lat="45.32242" lon="4.47765">
        <ele>1188.2</ele>
        <time>2018-08-19T12:57:29.000Z</time>
      </trkpt>
      <trkpt lat="45.32243" lon="4.47766">
        <ele>1188.1</ele>
        <time>2018-08-19T12:57:30.000Z</time>
      </trkpt>
      <trkpt lat="45.32245" lon="4.47766">
        <ele>1188</ele>
        <time>2018-08-19T12:57:31.000Z</time>
      </trkpt>
      <trkpt lat="45.32246" lon="4.47767">
        <ele>1187.8</ele>
        <time>2018-08-19T12:57:32.000Z</time>
      </trkpt>
      <trkpt lat="45.32248" lon="4.47768">
        <ele>1187.7</ele>
        <time>2018-08-19T12:57:33.000Z</time>
      </trkpt>
      <trkpt lat="45.32249" lon="4.47769">
        <ele>1187.5</ele>
        <time>2018-08-19T12:57:34.000Z</time>
      </trkpt>
      <trkpt lat="45.32251" lon="4.47769">
        <ele>1187.4</ele>
        <time>2018-08-19T12:57:35.000Z</time>
      </trkpt>
      <trkpt lat="45.32252" lon="4.4777">
        <ele>1187.2</ele>
        <time>2018-08-19T12:57:36.000Z</time>
      </trkpt>
      <trkpt lat="45.32254" lon="4.47771">
        <ele>1187</ele>
        <time>2018-08-19T12:57:37.000Z</time>
      </trkpt>
      <trkpt lat="45.32255" lon="4.47772">
        <ele>1186.8</ele>
        <time>2018-08-19T12:57:38.000Z</time>
      </trkpt>
      <trkpt lat="45.32257" lon="4.47773">
        <ele>1186.7</ele>
        <time>2018-08-19T12:57:39.000Z</time>
      </trkpt>
      <trkpt lat="45.32258" lon="4.47774">
        <ele>1186.5</ele>
        <time>2018-08-19T12:57:40.000Z</time>
      </trkpt>
      <trkpt lat="45.32259" lon="4.47775">
        <ele>1186.4</ele>
        <time>2018-08-19T12:57:41.000Z</time>
      </trkpt>
      <trkpt lat="45.32261" lon="4.47776">
        <ele>1186.2</ele>
        <time>2018-08-19T12:57:42.000Z</time>
      </trkpt>
      <trkpt lat="45.32262" lon="4.47776">
        <ele>1186.1</ele>
        <time>2018-08-19T12:57:43.000Z</time>
      </trkpt>
      <trkpt lat="45.32263" lon="4.47777">
        <ele>1185.9</ele>
        <time>2018-08-19T12:57:44.000Z</time>
      </trkpt>
      <trkpt lat="45.32264" lon="4.47778">
        <ele>1185.8</ele>
        <time>2018-08-19T12:57:45.000Z</time>
      </trkpt>
      <trkpt lat="45.32265" lon="4.47779">
        <ele>1185.7</ele>
        <time>2018-08-19T12:57:46.000Z</time>
      </trkpt>
      <trkpt lat="45.32267" lon="4.4778">
        <ele>1185.5</ele>
        <time>2018-08-19T12:57:47.000Z</time>
      </trkpt>
      <trkpt lat="45.32268" lon="4.47781">
        <ele>1185.3</ele>
        <time>2018-08-19T12:57:48.000Z</time>
      </trkpt>
      <trkpt lat="45.3227" lon="4.47782">
        <ele>1185.1</ele>
        <time>2018-08-19T12:57:49.000Z</time>
      </trkpt>
      <trkpt lat="45.32271" lon="4.47783">
        <ele>1185</ele>
        <time>2018-08-19T12:57:50.000Z</time>
      </trkpt>
      <trkpt lat="45.32272" lon="4.47783">
        <ele>1184.9</ele>
        <time>2018-08-19T12:57:51.000Z</time>
      </trkpt>
      <trkpt lat="45.32272" lon="4.47783">
        <ele>1184.9</ele>
        <time>2018-08-19T12:57:52.000Z</time>
      </trkpt>
      <trkpt lat="45.32273" lon="4.47783">
        <ele>1184.8</ele>
        <time>2018-08-19T12:57:53.000Z</time>
      </trkpt>
      <trkpt lat="45.32274" lon="4.47784">
        <ele>1184.7</ele>
        <time>2018-08-19T12:57:54.000Z</time>
      </trkpt>
      <trkpt lat="45.32275" lon="4.47785">
        <ele>1184.5</ele>
        <time>2018-08-19T12:57:55.000Z</time>
      </trkpt>
      <trkpt lat="45.32276" lon="4.47786">
        <ele>1184.4</ele>
        <time>2018-08-19T12:57:56.000Z</time>
      </trkpt>
      <trkpt lat="45.32278" lon="4.47787">
        <ele>1184.2</ele>
        <time>2018-08-19T12:57:57.000Z</time>
      </trkpt>
      <trkpt lat="45.32279" lon="4.47788">
        <ele>1184.1</ele>
        <time>2018-08-19T12:57:58.000Z</time>
      </trkpt>
      <trkpt lat="45.32281" lon="4.47789">
        <ele>1183.9</ele>
        <time>2018-08-19T12:57:59.000Z</time>
      </trkpt>
      <trkpt lat="45.32282" lon="4.4779">
        <ele>1183.7</ele>
        <time>2018-08-19T12:58:00.000Z</time>
      </trkpt>
      <trkpt lat="45.32284" lon="4.47791">
        <ele>1183.6</ele>
        <time>2018-08-19T12:58:01.000Z</time>
      </trkpt>
      <trkpt lat="45.32285" lon="4.47792">
        <ele>1183.4</ele>
        <time>2018-08-19T12:58:02.000Z</time>
      </trkpt>
      <trkpt lat="45.32287" lon="4.47792">
        <ele>1183.2</ele>
        <time>2018-08-19T12:58:03.000Z</time>
      </trkpt>
      <trkpt lat="45.32288" lon="4.47793">
        <ele>1183</ele>
        <time>2018-08-19T12:58:04.000Z</time>
      </trkpt>
      <trkpt lat="45.3229" lon="4.47794">
        <ele>1182.8</ele>
        <time>2018-08-19T12:58:05.000Z</time>
      </trkpt>
      <trkpt lat="45.32291" lon="4.47794">
        <ele>1182.7</ele>
        <time>2018-08-19T12:58:06.000Z</time>
      </trkpt>
      <trkpt lat="45.32292" lon="4.47795">
        <ele>1182.5</ele>
        <time>2018-08-19T12:58:07.000Z</time>
      </trkpt>
      <trkpt lat="45.32294" lon="4.47796">
        <ele>1182.3</ele>
        <time>2018-08-19T12:58:08.000Z</time>
      </trkpt>
      <trkpt lat="45.32295" lon="4.47797">
        <ele>1182.2</ele>
        <time>2018-08-19T12:58:09.000Z</time>
      </trkpt>
      <trkpt lat="45.32296" lon="4.47798">
        <ele>1182</ele>
        <time>2018-08-19T12:58:10.000Z</time>
      </trkpt>
      <trkpt lat="45.32298" lon="4.47798">
        <ele>1181.9</ele>
        <time>2018-08-19T12:58:11.000Z</time>
      </trkpt>
      <trkpt lat="45.32299" lon="4.47799">
        <ele>1181.8</ele>
        <time>2018-08-19T12:58:12.000Z</time>
      </trkpt>
      <trkpt lat="45.323" lon="4.478">
        <ele>1181.6</ele>
        <time>2018-08-19T12:58:13.000Z</time>
      </trkpt>
      <trkpt lat="45.32301" lon="4.47801">
        <ele>1181.5</ele>
        <time>2018-08-19T12:58:14.000Z</time>
      </trkpt>
      <trkpt lat="45.32302" lon="4.47802">
        <ele>1181.4</ele>
        <time>2018-08-19T12:58:15.000Z</time>
      </trkpt>
      <trkpt lat="45.32303" lon="4.47803">
        <ele>1181.3</ele>
        <time>2018-08-19T12:58:16.000Z</time>
      </trkpt>
      <trkpt lat="45.32304" lon="4.47804">
        <ele>1181.2</ele>
        <time>2018-08-19T12:58:17.000Z</time>
      </trkpt>
      <trkpt lat="45.32305" lon="4.47805">
        <ele>1181</ele>
        <time>2018-08-19T12:58:18.000Z</time>
      </trkpt>
      <trkpt lat="45.32306" lon="4.47807">
        <ele>1180.9</ele>
        <time>2018-08-19T12:58:19.000Z</time>
      </trkpt>
      <trkpt lat="45.32307" lon="4.47808">
        <ele>1180.8</ele>
        <time>2018-08-19T12:58:20.000Z</time>
      </trkpt>
      <trkpt lat="45.32308" lon="4.47809">
        <ele>1180.7</ele>
        <time>2018-08-19T12:58:21.000Z</time>
      </trkpt>
      <trkpt lat="45.32309" lon="4.4781">
        <ele>1180.6</ele>
        <time>2018-08-19T12:58:22.000Z</time>
      </trkpt>
      <trkpt lat="45.32311" lon="4.47811">
        <ele>1180.5</ele>
        <time>2018-08-19T12:58:23.000Z</time>
      </trkpt>
      <trkpt lat="45.32312" lon="4.47813">
        <ele>1180.4</ele>
        <time>2018-08-19T12:58:24.000Z</time>
      </trkpt>
      <trkpt lat="45.32313" lon="4.47814">
        <ele>1180.3</ele>
        <time>2018-08-19T12:58:25.000Z</time>
      </trkpt>
      <trkpt lat="45.32314" lon="4.47815">
        <ele>1180.1</ele>
        <time>2018-08-19T12:58:26.000Z</time>
      </trkpt>
      <trkpt lat="45.32315" lon="4.47816">
        <ele>1180</ele>
        <time>2018-08-19T12:58:27.000Z</time>
      </trkpt>
      <trkpt lat="45.32316" lon="4.47818">
        <ele>1179.9</ele>
        <time>2018-08-19T12:58:28.000Z</time>
      </trkpt>
      <trkpt lat="45.32317" lon="4.47819">
        <ele>1179.8</ele>
        <time>2018-08-19T12:58:29.000Z</time>
      </trkpt>
      <trkpt lat="45.32319" lon="4.4782">
        <ele>1179.6</ele>
        <time>2018-08-19T12:58:30.000Z</time>
      </trkpt>
      <trkpt lat="45.3232" lon="4.47821">
        <ele>1179.5</ele>
        <time>2018-08-19T12:58:31.000Z</time>
      </trkpt>
      <trkpt lat="45.32321" lon="4.47823">
        <ele>1179.4</ele>
        <time>2018-08-19T12:58:32.000Z</time>
      </trkpt>
      <trkpt lat="45.32322" lon="4.47824">
        <ele>1179.3</ele>
        <time>2018-08-19T12:58:33.000Z</time>
      </trkpt>
      <trkpt lat="45.32323" lon="4.47825">
        <ele>1179.1</ele>
        <time>2018-08-19T12:58:34.000Z</time>
      </trkpt>
      <trkpt lat="45.32324" lon="4.47826">
        <ele>1179</ele>
        <time>2018-08-19T12:58:35.000Z</time>
      </trkpt>
      <trkpt lat="45.32325" lon="4.47828">
        <ele>1178.9</ele>
        <time>2018-08-19T12:58:36.000Z</time>
      </trkpt>
      <trkpt lat="45.32327" lon="4.47829">
        <ele>1178.8</ele>
        <time>2018-08-19T12:58:37.000Z</time>
      </trkpt>
      <trkpt lat="45.32328" lon="4.4783">
        <ele>1178.7</ele>
        <time>2018-08-19T12:58:38.000Z</time>
      </trkpt>
      <trkpt lat="45.32329" lon="4.47831">
        <ele>1178.5</ele>
        <time>2018-08-19T12:58:39.000Z</time>
      </trkpt>
      <trkpt lat="45.3233" lon="4.47832">
        <ele>1178.4</ele>
        <time>2018-08-19T12:58:40.000Z</time>
      </trkpt>
      <trkpt lat="45.32331" lon="4.47834">
        <ele>1178.3</ele>
        <time>2018-08-19T12:58:41.000Z</time>
      </trkpt>
      <trkpt lat="45.32332" lon="4.47835">
        <ele>1178.2</ele>
        <time>2018-08-19T12:58:42.000Z</time>
      </trkpt>
      <trkpt lat="45.32333" lon="4.47836">
        <ele>1178.1</ele>
        <time>2018-08-19T12:58:43.000Z</time>
      </trkpt>
      <trkpt lat="45.32334" lon="4.47837">
        <ele>1178</ele>
        <time>2018-08-19T12:58:44.000Z</time>
      </trkpt>
      <trkpt lat="45.32335" lon="4.47838">
        <ele>1177.9</ele>
        <time>2018-08-19T12:58:45.000Z</time>
      </trkpt>
      <trkpt lat="45.32336" lon="4.47839">
        <ele>1177.9</ele>
        <time>2018-08-19T12:58:46.000Z</time>
      </trkpt>
      <trkpt lat="45.32337" lon="4.47841">
        <ele>1177.8</ele>
        <time>2018-08-19T12:58:47.000Z</time>
      </trkpt>
      <trkpt lat="45.32338" lon="4.47842">
        <ele>1177.7</ele>
        <time>2018-08-19T12:58:48.000Z</time>
      </trkpt>
      <trkpt lat="45.3234" lon="4.47843">
        <ele>1177.6</ele>
        <time>2018-08-19T12:58:49.000Z</time>
      </trkpt>
      <trkpt lat="45.32341" lon="4.47844">
        <ele>1177.6</ele>
        <time>2018-08-19T12:58:50.000Z</time>
      </trkpt>
      <trkpt lat="45.32342" lon="4.47845">
        <ele>1177.5</ele>
        <time>2018-08-19T12:58:51.000Z</time>
      </trkpt>
      <trkpt lat="45.32343" lon="4.47847">
        <ele>1177.4</ele>
        <time>2018-08-19T12:58:52.000Z</time>
      </trkpt>
      <trkpt lat="45.32344" lon="4.47848">
        <ele>1177.4</ele>
        <time>2018-08-19T12:58:53.000Z</time>
      </trkpt>
      <trkpt lat="45.32345" lon="4.47849">
        <ele>1177.3</ele>
        <time>2018-08-19T12:58:54.000Z</time>
      </trkpt>
      <trkpt lat="45.32346" lon="4.4785">
        <ele>1177.2</ele>
        <time>2018-08-19T12:58:55.000Z</time>
      </trkpt>
      <trkpt lat="45.32347" lon="4.47851">
        <ele>1177.2</ele>
        <time>2018-08-19T12:58:56.000Z</time>
      </trkpt>
      <trkpt lat="45.32348" lon="4.47853">
        <ele>1177.1</ele>
        <time>2018-08-19T12:58:57.000Z</time>
      </trkpt>
      <trkpt lat="45.32349" lon="4.47854">
        <ele>1177</ele>
        <time>2018-08-19T12:58:58.000Z</time>
      </trkpt>
      <trkpt lat="45.3235" lon="4.47855">
        <ele>1176.9</ele>
        <time>2018-08-19T12:58:59.000Z</time>
      </trkpt>
      <trkpt lat="45.32351" lon="4.47856">
        <ele>1176.9</ele>
        <time>2018-08-19T12:59:00.000Z</time>
      </trkpt>
      <trkpt lat="45.32352" lon="4.47857">
        <ele>1176.8</ele>
        <time>2018-08-19T12:59:01.000Z</time>
      </trkpt>
      <trkpt lat="45.32353" lon="4.47858">
        <ele>1176.7</ele>
        <time>2018-08-19T12:59:02.000Z</time>
      </trkpt>
      <trkpt lat="45.32354" lon="4.47859">
        <ele>1176.6</ele>
        <time>2018-08-19T12:59:03.000Z</time>
      </trkpt>
      <trkpt lat="45.32355" lon="4.4786">
        <ele>1176.5</ele>
        <time>2018-08-19T12:59:04.000Z</time>
      </trkpt>
      <trkpt lat="45.32356" lon="4.47861">
        <ele>1176.5</ele>
        <time>2018-08-19T12:59:05.000Z</time>
      </trkpt>
      <trkpt lat="45.32357" lon="4.47862">
        <ele>1176.4</ele>
        <time>2018-08-19T12:59:06.000Z</time>
      </trkpt>
      <trkpt lat="45.32358" lon="4.47863">
        <ele>1176.3</ele>
        <time>2018-08-19T12:59:07.000Z</time>
      </trkpt>
      <trkpt lat="45.32359" lon="4.47864">
        <ele>1176.2</ele>
        <time>2018-08-19T12:59:08.000Z</time>
      </trkpt>
      <trkpt lat="45.3236" lon="4.47865">
        <ele>1176.1</ele>
        <time>2018-08-19T12:59:09.000Z</time>
      </trkpt>
      <trkpt lat="45.32361" lon="4.47866">
        <ele>1176</ele>
        <time>2018-08-19T12:59:10.000Z</time>
      </trkpt>
      <trkpt lat="45.32363" lon="4.47867">
        <ele>1175.9</ele>
        <time>2018-08-19T12:59:11.000Z</time>
      </trkpt>
      <trkpt lat="45.32364" lon="4.47868">
        <ele>1175.8</ele>
        <time>2018-08-19T12:59:12.000Z</time>
      </trkpt>
      <trkpt lat="45.32365" lon="4.4787">
        <ele>1175.6</ele>
        <time>2018-08-19T12:59:13.000Z</time>
      </trkpt>
      <trkpt lat="45.32367" lon="4.47871">
        <ele>1175.5</ele>
        <time>2018-08-19T12:59:14.000Z</time>
      </trkpt>
      <trkpt lat="45.32368" lon="4.47872">
        <ele>1175.4</ele>
        <time>2018-08-19T12:59:15.000Z</time>
      </trkpt>
      <trkpt lat="45.32369" lon="4.47873">
        <ele>1175.3</ele>
        <time>2018-08-19T12:59:16.000Z</time>
      </trkpt>
      <trkpt lat="45.32371" lon="4.47874">
        <ele>1175.1</ele>
        <time>2018-08-19T12:59:17.000Z</time>
      </trkpt>
      <trkpt lat="45.32372" lon="4.47876">
        <ele>1175</ele>
        <time>2018-08-19T12:59:18.000Z</time>
      </trkpt>
      <trkpt lat="45.32373" lon="4.47877">
        <ele>1174.9</ele>
        <time>2018-08-19T12:59:19.000Z</time>
      </trkpt>
      <trkpt lat="45.32374" lon="4.47878">
        <ele>1174.8</ele>
        <time>2018-08-19T12:59:20.000Z</time>
      </trkpt>
      <trkpt lat="45.32375" lon="4.47879">
        <ele>1174.7</ele>
        <time>2018-08-19T12:59:21.000Z</time>
      </trkpt>
      <trkpt lat="45.32376" lon="4.4788">
        <ele>1174.6</ele>
        <time>2018-08-19T12:59:22.000Z</time>
      </trkpt>
      <trkpt lat="45.32377" lon="4.47881">
        <ele>1174.5</ele>
        <time>2018-08-19T12:59:23.000Z</time>
      </trkpt>
      <trkpt lat="45.32378" lon="4.47882">
        <ele>1174.4</ele>
        <time>2018-08-19T12:59:24.000Z</time>
      </trkpt>
      <trkpt lat="45.32379" lon="4.47883">
        <ele>1174.4</ele>
        <time>2018-08-19T12:59:25.000Z</time>
      </trkpt>
      <trkpt lat="45.32379" lon="4.47884">
        <ele>1174.3</ele>
        <time>2018-08-19T12:59:26.000Z</time>
      </trkpt>
      <trkpt lat="45.3238" lon="4.47885">
        <ele>1174.2</ele>
        <time>2018-08-19T12:59:27.000Z</time>
      </trkpt>
      <trkpt lat="45.32381" lon="4.47887">
        <ele>1174.1</ele>
        <time>2018-08-19T12:59:28.000Z</time>
      </trkpt>
      <trkpt lat="45.32382" lon="4.47888">
        <ele>1174</ele>
        <time>2018-08-19T12:59:29.000Z</time>
      </trkpt>
      <trkpt lat="45.32383" lon="4.47889">
        <ele>1173.9</ele>
        <time>2018-08-19T12:59:30.000Z</time>
      </trkpt>
      <trkpt lat="45.32384" lon="4.4789">
        <ele>1173.8</ele>
        <time>2018-08-19T12:59:31.000Z</time>
      </trkpt>
      <trkpt lat="45.32386" lon="4.47891">
        <ele>1173.6</ele>
        <time>2018-08-19T12:59:32.000Z</time>
      </trkpt>
      <trkpt lat="45.32387" lon="4.47893">
        <ele>1173.5</ele>
        <time>2018-08-19T12:59:33.000Z</time>
      </trkpt>
      <trkpt lat="45.32388" lon="4.47894">
        <ele>1173.4</ele>
        <time>2018-08-19T12:59:34.000Z</time>
      </trkpt>
      <trkpt lat="45.32389" lon="4.47895">
        <ele>1173.2</ele>
        <time>2018-08-19T12:59:35.000Z</time>
      </trkpt>
      <trkpt lat="45.3239" lon="4.47897">
        <ele>1173.1</ele>
        <time>2018-08-19T12:59:36.000Z</time>
      </trkpt>
      <trkpt lat="45.32391" lon="4.47898">
        <ele>1173</ele>
        <time>2018-08-19T12:59:37.000Z</time>
      </trkpt>
      <trkpt lat="45.32393" lon="4.479">
        <ele>1172.8</ele>
        <time>2018-08-19T12:59:38.000Z</time>
      </trkpt>
      <trkpt lat="45.32394" lon="4.47901">
        <ele>1172.7</ele>
        <time>2018-08-19T12:59:39.000Z</time>
      </trkpt>
      <trkpt lat="45.32395" lon="4.47903">
        <ele>1172.6</ele>
        <time>2018-08-19T12:59:40.000Z</time>
      </trkpt>
      <trkpt lat="45.32395" lon="4.47904">
        <ele>1172.5</ele>
        <time>2018-08-19T12:59:41.000Z</time>
      </trkpt>
      <trkpt lat="45.32396" lon="4.47906">
        <ele>1172.4</ele>
        <time>2018-08-19T12:59:42.000Z</time>
      </trkpt>
      <trkpt lat="45.32397" lon="4.47907">
        <ele>1172.3</ele>
        <time>2018-08-19T12:59:43.000Z</time>
      </trkpt>
      <trkpt lat="45.32398" lon="4.47909">
        <ele>1172.2</ele>
        <time>2018-08-19T12:59:44.000Z</time>
      </trkpt>
      <trkpt lat="45.32399" lon="4.4791">
        <ele>1172.1</ele>
        <time>2018-08-19T12:59:45.000Z</time>
      </trkpt>
      <trkpt lat="45.32399" lon="4.47912">
        <ele>1172</ele>
        <time>2018-08-19T12:59:46.000Z</time>
      </trkpt>
      <trkpt lat="45.324" lon="4.47913">
        <ele>1171.9</ele>
        <time>2018-08-19T12:59:47.000Z</time>
      </trkpt>
      <trkpt lat="45.324" lon="4.47915">
        <ele>1171.8</ele>
        <time>2018-08-19T12:59:48.000Z</time>
      </trkpt>
      <trkpt lat="45.32401" lon="4.47917">
        <ele>1171.7</ele>
        <time>2018-08-19T12:59:49.000Z</time>
      </trkpt>
      <trkpt lat="45.32402" lon="4.47918">
        <ele>1171.7</ele>
        <time>2018-08-19T12:59:50.000Z</time>
      </trkpt>
      <trkpt lat="45.32402" lon="4.4792">
        <ele>1171.6</ele>
        <time>2018-08-19T12:59:51.000Z</time>
      </trkpt>
      <trkpt lat="45.32403" lon="4.47921">
        <ele>1171.6</ele>
        <time>2018-08-19T12:59:52.000Z</time>
      </trkpt>
      <trkpt lat="45.32404" lon="4.47923">
        <ele>1171.5</ele>
        <time>2018-08-19T12:59:53.000Z</time>
      </trkpt>
      <trkpt lat="45.32405" lon="4.47925">
        <ele>1171.5</ele>
        <time>2018-08-19T12:59:54.000Z</time>
      </trkpt>
      <trkpt lat="45.32406" lon="4.47927">
        <ele>1171.5</ele>
        <time>2018-08-19T12:59:55.000Z</time>
      </trkpt>
      <trkpt lat="45.32406" lon="4.47928">
        <ele>1171.4</ele>
        <time>2018-08-19T12:59:56.000Z</time>
      </trkpt>
      <trkpt lat="45.32407" lon="4.4793">
        <ele>1171.4</ele>
        <time>2018-08-19T12:59:57.000Z</time>
      </trkpt>
      <trkpt lat="45.32408" lon="4.47932">
        <ele>1171.3</ele>
        <time>2018-08-19T12:59:58.000Z</time>
      </trkpt>
      <trkpt lat="45.32409" lon="4.47934">
        <ele>1171.3</ele>
        <time>2018-08-19T12:59:59.000Z</time>
      </trkpt>
      <trkpt lat="45.3241" lon="4.47936">
        <ele>1171.2</ele>
        <time>2018-08-19T13:00:00.000Z</time>
      </trkpt>
      <trkpt lat="45.32411" lon="4.47937">
        <ele>1171.1</ele>
        <time>2018-08-19T13:00:01.000Z</time>
      </trkpt>
      <trkpt lat="45.32412" lon="4.47939">
        <ele>1171.1</ele>
        <time>2018-08-19T13:00:02.000Z</time>
      </trkpt>
      <trkpt lat="45.32412" lon="4.47941">
        <ele>1171.1</ele>
        <time>2018-08-19T13:00:03.000Z</time>
      </trkpt>
      <trkpt lat="45.32413" lon="4.47943">
        <ele>1171</ele>
        <time>2018-08-19T13:00:04.000Z</time>
      </trkpt>
      <trkpt lat="45.32414" lon="4.47944">
        <ele>1171</ele>
        <time>2018-08-19T13:00:05.000Z</time>
      </trkpt>
      <trkpt lat="45.32415" lon="4.47946">
        <ele>1170.9</ele>
        <time>2018-08-19T13:00:06.000Z</time>
      </trkpt>
      <trkpt lat="45.32415" lon="4.47948">
        <ele>1170.9</ele>
        <time>2018-08-19T13:00:07.000Z</time>
      </trkpt>
      <trkpt lat="45.32416" lon="4.47949">
        <ele>1170.9</ele>
        <time>2018-08-19T13:00:08.000Z</time>
      </trkpt>
      <trkpt lat="45.32416" lon="4.47951">
        <ele>1170.9</ele>
        <time>2018-08-19T13:00:09.000Z</time>
      </trkpt>
      <trkpt lat="45.32417" lon="4.47952">
        <ele>1170.9</ele>
        <time>2018-08-19T13:00:10.000Z</time>
      </trkpt>
      <trkpt lat="45.32417" lon="4.47954">
        <ele>1170.8</ele>
        <time>2018-08-19T13:00:11.000Z</time>
      </trkpt>
      <trkpt lat="45.32418" lon="4.47955">
        <ele>1170.8</ele>
        <time>2018-08-19T13:00:12.000Z</time>
      </trkpt>
      <trkpt lat="45.32418" lon="4.47957">
        <ele>1170.7</ele>
        <time>2018-08-19T13:00:13.000Z</time>
      </trkpt>
      <trkpt lat="45.32419" lon="4.47959">
        <ele>1170.7</ele>
        <time>2018-08-19T13:00:14.000Z</time>
      </trkpt>
      <trkpt lat="45.3242" lon="4.4796">
        <ele>1170.6</ele>
        <time>2018-08-19T13:00:15.000Z</time>
      </trkpt>
      <trkpt lat="45.32421" lon="4.47962">
        <ele>1170.5</ele>
        <time>2018-08-19T13:00:16.000Z</time>
      </trkpt>
      <trkpt lat="45.32422" lon="4.47964">
        <ele>1170.4</ele>
        <time>2018-08-19T13:00:17.000Z</time>
      </trkpt>
      <trkpt lat="45.32422" lon="4.47966">
        <ele>1170.3</ele>
        <time>2018-08-19T13:00:18.000Z</time>
      </trkpt>
      <trkpt lat="45.32423" lon="4.47967">
        <ele>1170.3</ele>
        <time>2018-08-19T13:00:19.000Z</time>
      </trkpt>
      <trkpt lat="45.32424" lon="4.47969">
        <ele>1170.2</ele>
        <time>2018-08-19T13:00:20.000Z</time>
      </trkpt>
      <trkpt lat="45.32425" lon="4.47971">
        <ele>1170.1</ele>
        <time>2018-08-19T13:00:21.000Z</time>
      </trkpt>
      <trkpt lat="45.32426" lon="4.47972">
        <ele>1170</ele>
        <time>2018-08-19T13:00:22.000Z</time>
      </trkpt>
      <trkpt lat="45.32427" lon="4.47974">
        <ele>1170</ele>
        <time>2018-08-19T13:00:23.000Z</time>
      </trkpt>
      <trkpt lat="45.32427" lon="4.47975">
        <ele>1169.9</ele>
        <time>2018-08-19T13:00:24.000Z</time>
      </trkpt>
      <trkpt lat="45.32428" lon="4.47977">
        <ele>1169.8</ele>
        <time>2018-08-19T13:00:25.000Z</time>
      </trkpt>
      <trkpt lat="45.32429" lon="4.47978">
        <ele>1169.8</ele>
        <time>2018-08-19T13:00:26.000Z</time>
      </trkpt>
      <trkpt lat="45.32429" lon="4.4798">
        <ele>1169.7</ele>
        <time>2018-08-19T13:00:27.000Z</time>
      </trkpt>
      <trkpt lat="45.3243" lon="4.47982">
        <ele>1169.6</ele>
        <time>2018-08-19T13:00:28.000Z</time>
      </trkpt>
      <trkpt lat="45.32431" lon="4.47984">
        <ele>1169.6</ele>
        <time>2018-08-19T13:00:29.000Z</time>
      </trkpt>
      <trkpt lat="45.32431" lon="4.47986">
        <ele>1169.6</ele>
        <time>2018-08-19T13:00:30.000Z</time>
      </trkpt>
      <trkpt lat="45.32432" lon="4.47987">
        <ele>1169.5</ele>
        <time>2018-08-19T13:00:31.000Z</time>
      </trkpt>
      <trkpt lat="45.32432" lon="4.47989">
        <ele>1169.5</ele>
        <time>2018-08-19T13:00:32.000Z</time>
      </trkpt>
      <trkpt lat="45.32433" lon="4.47991">
        <ele>1169.4</ele>
        <time>2018-08-19T13:00:33.000Z</time>
      </trkpt>
      <trkpt lat="45.32433" lon="4.47993">
        <ele>1169.4</ele>
        <time>2018-08-19T13:00:34.000Z</time>
      </trkpt>
      <trkpt lat="45.32434" lon="4.47995">
        <ele>1169.4</ele>
        <time>2018-08-19T13:00:35.000Z</time>
      </trkpt>
      <trkpt lat="45.32434" lon="4.47997">
        <ele>1169.4</ele>
        <time>2018-08-19T13:00:36.000Z</time>
      </trkpt>
      <trkpt lat="45.32435" lon="4.47999">
        <ele>1169.4</ele>
        <time>2018-08-19T13:00:37.000Z</time>
      </trkpt>
      <trkpt lat="45.32435" lon="4.48">
        <ele>1169.3</ele>
        <time>2018-08-19T13:00:38.000Z</time>
      </trkpt>
      <trkpt lat="45.32436" lon="4.48002">
        <ele>1169.1</ele>
        <time>2018-08-19T13:00:39.000Z</time>
      </trkpt>
      <trkpt lat="45.32436" lon="4.48004">
        <ele>1169</ele>
        <time>2018-08-19T13:00:40.000Z</time>
      </trkpt>
      <trkpt lat="45.32436" lon="4.48006">
        <ele>1168.8</ele>
        <time>2018-08-19T13:00:41.000Z</time>
      </trkpt>
      <trkpt lat="45.32437" lon="4.48008">
        <ele>1168.6</ele>
        <time>2018-08-19T13:00:42.000Z</time>
      </trkpt>
      <trkpt lat="45.32437" lon="4.48009">
        <ele>1168.5</ele>
        <time>2018-08-19T13:00:43.000Z</time>
      </trkpt>
      <trkpt lat="45.32438" lon="4.48011">
        <ele>1168.3</ele>
        <time>2018-08-19T13:00:44.000Z</time>
      </trkpt>
      <trkpt lat="45.32438" lon="4.48013">
        <ele>1168.1</ele>
        <time>2018-08-19T13:00:45.000Z</time>
      </trkpt>
      <trkpt lat="45.32438" lon="4.48015">
        <ele>1168</ele>
        <time>2018-08-19T13:00:46.000Z</time>
      </trkpt>
      <trkpt lat="45.32439" lon="4.48017">
        <ele>1167.8</ele>
        <time>2018-08-19T13:00:47.000Z</time>
      </trkpt>
      <trkpt lat="45.32439" lon="4.48018">
        <ele>1167.6</ele>
        <time>2018-08-19T13:00:48.000Z</time>
      </trkpt>
      <trkpt lat="45.3244" lon="4.4802">
        <ele>1167.5</ele>
        <time>2018-08-19T13:00:49.000Z</time>
      </trkpt>
      <trkpt lat="45.3244" lon="4.48022">
        <ele>1167.3</ele>
        <time>2018-08-19T13:00:50.000Z</time>
      </trkpt>
      <trkpt lat="45.32441" lon="4.48023">
        <ele>1167.1</ele>
        <time>2018-08-19T13:00:51.000Z</time>
      </trkpt>
      <trkpt lat="45.32441" lon="4.48025">
        <ele>1167</ele>
        <time>2018-08-19T13:00:52.000Z</time>
      </trkpt>
      <trkpt lat="45.32442" lon="4.48027">
        <ele>1166.8</ele>
        <time>2018-08-19T13:00:53.000Z</time>
      </trkpt>
      <trkpt lat="45.32442" lon="4.48028">
        <ele>1166.6</ele>
        <time>2018-08-19T13:00:54.000Z</time>
      </trkpt>
      <trkpt lat="45.32443" lon="4.4803">
        <ele>1166.4</ele>
        <time>2018-08-19T13:00:55.000Z</time>
      </trkpt>
      <trkpt lat="45.32443" lon="4.48032">
        <ele>1166.3</ele>
        <time>2018-08-19T13:00:56.000Z</time>
      </trkpt>
      <trkpt lat="45.32444" lon="4.48034">
        <ele>1166.1</ele>
        <time>2018-08-19T13:00:57.000Z</time>
      </trkpt>
      <trkpt lat="45.32444" lon="4.48035">
        <ele>1165.9</ele>
        <time>2018-08-19T13:00:58.000Z</time>
      </trkpt>
      <trkpt lat="45.32445" lon="4.48037">
        <ele>1165.7</ele>
        <time>2018-08-19T13:00:59.000Z</time>
      </trkpt>
      <trkpt lat="45.32445" lon="4.48039">
        <ele>1165.6</ele>
        <time>2018-08-19T13:01:00.000Z</time>
      </trkpt>
      <trkpt lat="45.32446" lon="4.4804">
        <ele>1165.4</ele>
        <time>2018-08-19T13:01:01.000Z</time>
      </trkpt>
      <trkpt lat="45.32447" lon="4.48042">
        <ele>1165.2</ele>
        <time>2018-08-19T13:01:02.000Z</time>
      </trkpt>
      <trkpt lat="45.32447" lon="4.48044">
        <ele>1165</ele>
        <time>2018-08-19T13:01:03.000Z</time>
      </trkpt>
      <trkpt lat="45.32448" lon="4.48046">
        <ele>1164.8</ele>
        <time>2018-08-19T13:01:04.000Z</time>
      </trkpt>
      <trkpt lat="45.32448" lon="4.48048">
        <ele>1164.7</ele>
        <time>2018-08-19T13:01:05.000Z</time>
      </trkpt>
      <trkpt lat="45.32449" lon="4.48049">
        <ele>1164.5</ele>
        <time>2018-08-19T13:01:06.000Z</time>
      </trkpt>
      <trkpt lat="45.3245" lon="4.48051">
        <ele>1164.3</ele>
        <time>2018-08-19T13:01:07.000Z</time>
      </trkpt>
      <trkpt lat="45.3245" lon="4.48053">
        <ele>1164.2</ele>
        <time>2018-08-19T13:01:08.000Z</time>
      </trkpt>
      <trkpt lat="45.32451" lon="4.48055">
        <ele>1164</ele>
        <time>2018-08-19T13:01:09.000Z</time>
      </trkpt>
      <trkpt lat="45.32451" lon="4.48057">
        <ele>1163.8</ele>
        <time>2018-08-19T13:01:10.000Z</time>
      </trkpt>
      <trkpt lat="45.32451" lon="4.48058">
        <ele>1163.7</ele>
        <time>2018-08-19T13:01:11.000Z</time>
      </trkpt>
      <trkpt lat="45.32452" lon="4.4806">
        <ele>1163.5</ele>
        <time>2018-08-19T13:01:12.000Z</time>
      </trkpt>
      <trkpt lat="45.32452" lon="4.48062">
        <ele>1163.4</ele>
        <time>2018-08-19T13:01:13.000Z</time>
      </trkpt>
      <trkpt lat="45.32453" lon="4.48064">
        <ele>1163.2</ele>
        <time>2018-08-19T13:01:14.000Z</time>
      </trkpt>
      <trkpt lat="45.32453" lon="4.48066">
        <ele>1163.1</ele>
        <time>2018-08-19T13:01:15.000Z</time>
      </trkpt>
      <trkpt lat="45.32453" lon="4.48068">
        <ele>1162.9</ele>
        <time>2018-08-19T13:01:16.000Z</time>
      </trkpt>
      <trkpt lat="45.32454" lon="4.48069">
        <ele>1162.8</ele>
        <time>2018-08-19T13:01:17.000Z</time>
      </trkpt>
      <trkpt lat="45.32454" lon="4.48071">
        <ele>1162.7</ele>
        <time>2018-08-19T13:01:18.000Z</time>
      </trkpt>
      <trkpt lat="45.32454" lon="4.48073">
        <ele>1162.5</ele>
        <time>2018-08-19T13:01:19.000Z</time>
      </trkpt>
      <trkpt lat="45.32454" lon="4.48075">
        <ele>1162.4</ele>
        <time>2018-08-19T13:01:20.000Z</time>
      </trkpt>
      <trkpt lat="45.32455" lon="4.48077">
        <ele>1162.3</ele>
        <time>2018-08-19T13:01:21.000Z</time>
      </trkpt>
      <trkpt lat="45.32455" lon="4.48078">
        <ele>1162.1</ele>
        <time>2018-08-19T13:01:22.000Z</time>
      </trkpt>
      <trkpt lat="45.32455" lon="4.4808">
        <ele>1162</ele>
        <time>2018-08-19T13:01:23.000Z</time>
      </trkpt>
      <trkpt lat="45.32456" lon="4.48082">
        <ele>1161.9</ele>
        <time>2018-08-19T13:01:24.000Z</time>
      </trkpt>
      <trkpt lat="45.32456" lon="4.48084">
        <ele>1161.7</ele>
        <time>2018-08-19T13:01:25.000Z</time>
      </trkpt>
      <trkpt lat="45.32457" lon="4.48085">
        <ele>1161.5</ele>
        <time>2018-08-19T13:01:26.000Z</time>
      </trkpt>
      <trkpt lat="45.32457" lon="4.48087">
        <ele>1161.3</ele>
        <time>2018-08-19T13:01:27.000Z</time>
      </trkpt>
      <trkpt lat="45.32457" lon="4.48089">
        <ele>1161</ele>
        <time>2018-08-19T13:01:28.000Z</time>
      </trkpt>
      <trkpt lat="45.32458" lon="4.4809">
        <ele>1160.8</ele>
        <time>2018-08-19T13:01:29.000Z</time>
      </trkpt>
      <trkpt lat="45.32458" lon="4.48092">
        <ele>1160.5</ele>
        <time>2018-08-19T13:01:30.000Z</time>
      </trkpt>
      <trkpt lat="45.32459" lon="4.48094">
        <ele>1160.3</ele>
        <time>2018-08-19T13:01:31.000Z</time>
      </trkpt>
      <trkpt lat="45.32459" lon="4.48096">
        <ele>1160</ele>
        <time>2018-08-19T13:01:32.000Z</time>
      </trkpt>
      <trkpt lat="45.3246" lon="4.48097">
        <ele>1159.7</ele>
        <time>2018-08-19T13:01:33.000Z</time>
      </trkpt>
      <trkpt lat="45.3246" lon="4.48099">
        <ele>1159.5</ele>
        <time>2018-08-19T13:01:34.000Z</time>
      </trkpt>
      <trkpt lat="45.32461" lon="4.48101">
        <ele>1159.2</ele>
        <time>2018-08-19T13:01:35.000Z</time>
      </trkpt>
      <trkpt lat="45.32461" lon="4.48103">
        <ele>1158.9</ele>
        <time>2018-08-19T13:01:36.000Z</time>
      </trkpt>
      <trkpt lat="45.32462" lon="4.48105">
        <ele>1158.6</ele>
        <time>2018-08-19T13:01:37.000Z</time>
      </trkpt>
      <trkpt lat="45.32462" lon="4.48107">
        <ele>1158.3</ele>
        <time>2018-08-19T13:01:38.000Z</time>
      </trkpt>
      <trkpt lat="45.32463" lon="4.48109">
        <ele>1158.1</ele>
        <time>2018-08-19T13:01:39.000Z</time>
      </trkpt>
      <trkpt lat="45.32464" lon="4.48111">
        <ele>1157.8</ele>
        <time>2018-08-19T13:01:40.000Z</time>
      </trkpt>
      <trkpt lat="45.32464" lon="4.48113">
        <ele>1157.5</ele>
        <time>2018-08-19T13:01:41.000Z</time>
      </trkpt>
      <trkpt lat="45.32465" lon="4.48114">
        <ele>1157.2</ele>
        <time>2018-08-19T13:01:42.000Z</time>
      </trkpt>
      <trkpt lat="45.32466" lon="4.48116">
        <ele>1156.9</ele>
        <time>2018-08-19T13:01:43.000Z</time>
      </trkpt>
      <trkpt lat="45.32466" lon="4.48118">
        <ele>1156.7</ele>
        <time>2018-08-19T13:01:44.000Z</time>
      </trkpt>
      <trkpt lat="45.32467" lon="4.48119">
        <ele>1156.4</ele>
        <time>2018-08-19T13:01:45.000Z</time>
      </trkpt>
      <trkpt lat="45.32468" lon="4.48121">
        <ele>1156.1</ele>
        <time>2018-08-19T13:01:46.000Z</time>
      </trkpt>
      <trkpt lat="45.32469" lon="4.48122">
        <ele>1155.9</ele>
        <time>2018-08-19T13:01:47.000Z</time>
      </trkpt>
      <trkpt lat="45.3247" lon="4.48124">
        <ele>1155.6</ele>
        <time>2018-08-19T13:01:48.000Z</time>
      </trkpt>
      <trkpt lat="45.3247" lon="4.48125">
        <ele>1155.4</ele>
        <time>2018-08-19T13:01:49.000Z</time>
      </trkpt>
      <trkpt lat="45.32471" lon="4.48126">
        <ele>1155.1</ele>
        <time>2018-08-19T13:01:50.000Z</time>
      </trkpt>
      <trkpt lat="45.32472" lon="4.48128">
        <ele>1154.9</ele>
        <time>2018-08-19T13:01:51.000Z</time>
      </trkpt>
      <trkpt lat="45.32473" lon="4.48129">
        <ele>1154.6</ele>
        <time>2018-08-19T13:01:52.000Z</time>
      </trkpt>
      <trkpt lat="45.32474" lon="4.4813">
        <ele>1154.4</ele>
        <time>2018-08-19T13:01:53.000Z</time>
      </trkpt>
      <trkpt lat="45.32475" lon="4.48131">
        <ele>1154.1</ele>
        <time>2018-08-19T13:01:54.000Z</time>
      </trkpt>
      <trkpt lat="45.32476" lon="4.48133">
        <ele>1153.9</ele>
        <time>2018-08-19T13:01:55.000Z</time>
      </trkpt>
      <trkpt lat="45.32477" lon="4.48134">
        <ele>1153.6</ele>
        <time>2018-08-19T13:01:56.000Z</time>
      </trkpt>
      <trkpt lat="45.32478" lon="4.48135">
        <ele>1153.4</ele>
        <time>2018-08-19T13:01:57.000Z</time>
      </trkpt>
      <trkpt lat="45.32479" lon="4.48136">
        <ele>1153.2</ele>
        <time>2018-08-19T13:01:58.000Z</time>
      </trkpt>
      <trkpt lat="45.3248" lon="4.48137">
        <ele>1152.9</ele>
        <time>2018-08-19T13:01:59.000Z</time>
      </trkpt>
      <trkpt lat="45.32481" lon="4.48138">
        <ele>1152.7</ele>
        <time>2018-08-19T13:02:00.000Z</time>
      </trkpt>
      <trkpt lat="45.32482" lon="4.48139">
        <ele>1152.5</ele>
        <time>2018-08-19T13:02:01.000Z</time>
      </trkpt>
      <trkpt lat="45.32483" lon="4.4814">
        <ele>1152.2</ele>
        <time>2018-08-19T13:02:02.000Z</time>
      </trkpt>
      <trkpt lat="45.32484" lon="4.48141">
        <ele>1152</ele>
        <time>2018-08-19T13:02:03.000Z</time>
      </trkpt>
      <trkpt lat="45.32485" lon="4.48142">
        <ele>1151.8</ele>
        <time>2018-08-19T13:02:04.000Z</time>
      </trkpt>
      <trkpt lat="45.32486" lon="4.48142">
        <ele>1151.6</ele>
        <time>2018-08-19T13:02:05.000Z</time>
      </trkpt>
      <trkpt lat="45.32487" lon="4.48143">
        <ele>1151.4</ele>
        <time>2018-08-19T13:02:06.000Z</time>
      </trkpt>
      <trkpt lat="45.32488" lon="4.48144">
        <ele>1151.1</ele>
        <time>2018-08-19T13:02:07.000Z</time>
      </trkpt>
      <trkpt lat="45.32489" lon="4.48145">
        <ele>1150.9</ele>
        <time>2018-08-19T13:02:08.000Z</time>
      </trkpt>
      <trkpt lat="45.3249" lon="4.48146">
        <ele>1150.7</ele>
        <time>2018-08-19T13:02:09.000Z</time>
      </trkpt>
      <trkpt lat="45.32491" lon="4.48146">
        <ele>1150.5</ele>
        <time>2018-08-19T13:02:10.000Z</time>
      </trkpt>
      <trkpt lat="45.32492" lon="4.48147">
        <ele>1150.3</ele>
        <time>2018-08-19T13:02:11.000Z</time>
      </trkpt>
      <trkpt lat="45.32494" lon="4.48148">
        <ele>1150.1</ele>
        <time>2018-08-19T13:02:12.000Z</time>
      </trkpt>
      <trkpt lat="45.32495" lon="4.48148">
        <ele>1149.8</ele>
        <time>2018-08-19T13:02:13.000Z</time>
      </trkpt>
      <trkpt lat="45.32496" lon="4.48149">
        <ele>1149.6</ele>
        <time>2018-08-19T13:02:14.000Z</time>
      </trkpt>
      <trkpt lat="45.32497" lon="4.4815">
        <ele>1149.4</ele>
        <time>2018-08-19T13:02:15.000Z</time>
      </trkpt>
      <trkpt lat="45.32498" lon="4.4815">
        <ele>1149.2</ele>
        <time>2018-08-19T13:02:16.000Z</time>
      </trkpt>
      <trkpt lat="45.325" lon="4.48151">
        <ele>1149</ele>
        <time>2018-08-19T13:02:17.000Z</time>
      </trkpt>
      <trkpt lat="45.32501" lon="4.48151">
        <ele>1148.8</ele>
        <time>2018-08-19T13:02:18.000Z</time>
      </trkpt>
      <trkpt lat="45.32502" lon="4.48152">
        <ele>1148.6</ele>
        <time>2018-08-19T13:02:19.000Z</time>
      </trkpt>
      <trkpt lat="45.32503" lon="4.48152">
        <ele>1148.4</ele>
        <time>2018-08-19T13:02:20.000Z</time>
      </trkpt>
      <trkpt lat="45.32505" lon="4.48153">
        <ele>1148.2</ele>
        <time>2018-08-19T13:02:21.000Z</time>
      </trkpt>
      <trkpt lat="45.32506" lon="4.48153">
        <ele>1148</ele>
        <time>2018-08-19T13:02:22.000Z</time>
      </trkpt>
      <trkpt lat="45.32507" lon="4.48154">
        <ele>1147.8</ele>
        <time>2018-08-19T13:02:23.000Z</time>
      </trkpt>
      <trkpt lat="45.32509" lon="4.48154">
        <ele>1147.6</ele>
        <time>2018-08-19T13:02:24.000Z</time>
      </trkpt>
      <trkpt lat="45.3251" lon="4.48155">
        <ele>1147.4</ele>
        <time>2018-08-19T13:02:25.000Z</time>
      </trkpt>
      <trkpt lat="45.32511" lon="4.48155">
        <ele>1147.2</ele>
        <time>2018-08-19T13:02:26.000Z</time>
      </trkpt>
      <trkpt lat="45.32513" lon="4.48156">
        <ele>1147.1</ele>
        <time>2018-08-19T13:02:27.000Z</time>
      </trkpt>
      <trkpt lat="45.32514" lon="4.48156">
        <ele>1146.9</ele>
        <time>2018-08-19T13:02:28.000Z</time>
      </trkpt>
      <trkpt lat="45.32515" lon="4.48156">
        <ele>1146.7</ele>
        <time>2018-08-19T13:02:29.000Z</time>
      </trkpt>
      <trkpt lat="45.32517" lon="4.48157">
        <ele>1146.5</ele>
        <time>2018-08-19T13:02:30.000Z</time>
      </trkpt>
      <trkpt lat="45.32518" lon="4.48157">
        <ele>1146.4</ele>
        <time>2018-08-19T13:02:31.000Z</time>
      </trkpt>
      <trkpt lat="45.32519" lon="4.48157">
        <ele>1146.2</ele>
        <time>2018-08-19T13:02:32.000Z</time>
      </trkpt>
      <trkpt lat="45.32521" lon="4.48157">
        <ele>1146</ele>
        <time>2018-08-19T13:02:33.000Z</time>
      </trkpt>
      <trkpt lat="45.32522" lon="4.48158">
        <ele>1145.9</ele>
        <time>2018-08-19T13:02:34.000Z</time>
      </trkpt>
      <trkpt lat="45.32523" lon="4.48158">
        <ele>1145.7</ele>
        <time>2018-08-19T13:02:35.000Z</time>
      </trkpt>
      <trkpt lat="45.32525" lon="4.48158">
        <ele>1145.6</ele>
        <time>2018-08-19T13:02:36.000Z</time>
      </trkpt>
      <trkpt lat="45.32526" lon="4.48158">
        <ele>1145.4</ele>
        <time>2018-08-19T13:02:37.000Z</time>
      </trkpt>
      <trkpt lat="45.32527" lon="4.48159">
        <ele>1145.2</ele>
        <time>2018-08-19T13:02:38.000Z</time>
      </trkpt>
      <trkpt lat="45.32529" lon="4.48159">
        <ele>1145.1</ele>
        <time>2018-08-19T13:02:39.000Z</time>
      </trkpt>
      <trkpt lat="45.3253" lon="4.48159">
        <ele>1144.9</ele>
        <time>2018-08-19T13:02:40.000Z</time>
      </trkpt>
      <trkpt lat="45.32531" lon="4.48159">
        <ele>1144.8</ele>
        <time>2018-08-19T13:02:41.000Z</time>
      </trkpt>
      <trkpt lat="45.32533" lon="4.48159">
        <ele>1144.6</ele>
        <time>2018-08-19T13:02:42.000Z</time>
      </trkpt>
      <trkpt lat="45.32534" lon="4.4816">
        <ele>1144.5</ele>
        <time>2018-08-19T13:02:43.000Z</time>
      </trkpt>
      <trkpt lat="45.32535" lon="4.4816">
        <ele>1144.3</ele>
        <time>2018-08-19T13:02:44.000Z</time>
      </trkpt>
      <trkpt lat="45.32536" lon="4.4816">
        <ele>1144.1</ele>
        <time>2018-08-19T13:02:45.000Z</time>
      </trkpt>
      <trkpt lat="45.32538" lon="4.48161">
        <ele>1144</ele>
        <time>2018-08-19T13:02:46.000Z</time>
      </trkpt>
      <trkpt lat="45.32539" lon="4.48161">
        <ele>1143.8</ele>
        <time>2018-08-19T13:02:47.000Z</time>
      </trkpt>
      <trkpt lat="45.3254" lon="4.48161">
        <ele>1143.7</ele>
        <time>2018-08-19T13:02:48.000Z</time>
      </trkpt>
      <trkpt lat="45.32542" lon="4.48162">
        <ele>1143.5</ele>
        <time>2018-08-19T13:02:49.000Z</time>
      </trkpt>
      <trkpt lat="45.32543" lon="4.48162">
        <ele>1143.4</ele>
        <time>2018-08-19T13:02:50.000Z</time>
      </trkpt>
      <trkpt lat="45.32544" lon="4.48162">
        <ele>1143.2</ele>
        <time>2018-08-19T13:02:51.000Z</time>
      </trkpt>
      <trkpt lat="45.32545" lon="4.48162">
        <ele>1143.1</ele>
        <time>2018-08-19T13:02:52.000Z</time>
      </trkpt>
      <trkpt lat="45.32547" lon="4.48163">
        <ele>1142.9</ele>
        <time>2018-08-19T13:02:53.000Z</time>
      </trkpt>
      <trkpt lat="45.32548" lon="4.48163">
        <ele>1142.8</ele>
        <time>2018-08-19T13:02:54.000Z</time>
      </trkpt>
      <trkpt lat="45.32549" lon="4.48163">
        <ele>1142.6</ele>
        <time>2018-08-19T13:02:55.000Z</time>
      </trkpt>
      <trkpt lat="45.32551" lon="4.48163">
        <ele>1142.5</ele>
        <time>2018-08-19T13:02:56.000Z</time>
      </trkpt>
      <trkpt lat="45.32552" lon="4.48163">
        <ele>1142.4</ele>
        <time>2018-08-19T13:02:57.000Z</time>
      </trkpt>
      <trkpt lat="45.32553" lon="4.48163">
        <ele>1142.2</ele>
        <time>2018-08-19T13:02:58.000Z</time>
      </trkpt>
      <trkpt lat="45.32555" lon="4.48163">
        <ele>1142.1</ele>
        <time>2018-08-19T13:02:59.000Z</time>
      </trkpt>
      <trkpt lat="45.32556" lon="4.48162">
        <ele>1142</ele>
        <time>2018-08-19T13:03:00.000Z</time>
      </trkpt>
      <trkpt lat="45.32557" lon="4.48162">
        <ele>1141.9</ele>
        <time>2018-08-19T13:03:01.000Z</time>
      </trkpt>
      <trkpt lat="45.32559" lon="4.48162">
        <ele>1141.8</ele>
        <time>2018-08-19T13:03:02.000Z</time>
      </trkpt>
      <trkpt lat="45.3256" lon="4.48161">
        <ele>1141.7</ele>
        <time>2018-08-19T13:03:03.000Z</time>
      </trkpt>
      <trkpt lat="45.32562" lon="4.48161">
        <ele>1141.6</ele>
        <time>2018-08-19T13:03:04.000Z</time>
      </trkpt>
      <trkpt lat="45.32563" lon="4.48161">
        <ele>1141.5</ele>
        <time>2018-08-19T13:03:05.000Z</time>
      </trkpt>
      <trkpt lat="45.32564" lon="4.4816">
        <ele>1141.4</ele>
        <time>2018-08-19T13:03:06.000Z</time>
      </trkpt>
      <trkpt lat="45.32566" lon="4.4816">
        <ele>1141.3</ele>
        <time>2018-08-19T13:03:07.000Z</time>
      </trkpt>
      <trkpt lat="45.32567" lon="4.48159">
        <ele>1141.2</ele>
        <time>2018-08-19T13:03:08.000Z</time>
      </trkpt>
      <trkpt lat="45.32568" lon="4.48159">
        <ele>1141.1</ele>
        <time>2018-08-19T13:03:09.000Z</time>
      </trkpt>
      <trkpt lat="45.3257" lon="4.48158">
        <ele>1141</ele>
        <time>2018-08-19T13:03:10.000Z</time>
      </trkpt>
      <trkpt lat="45.32571" lon="4.48158">
        <ele>1140.9</ele>
        <time>2018-08-19T13:03:11.000Z</time>
      </trkpt>
      <trkpt lat="45.32572" lon="4.48157">
        <ele>1140.8</ele>
        <time>2018-08-19T13:03:12.000Z</time>
      </trkpt>
      <trkpt lat="45.32574" lon="4.48156">
        <ele>1140.7</ele>
        <time>2018-08-19T13:03:13.000Z</time>
      </trkpt>
      <trkpt lat="45.32575" lon="4.48156">
        <ele>1140.7</ele>
        <time>2018-08-19T13:03:14.000Z</time>
      </trkpt>
      <trkpt lat="45.32576" lon="4.48155">
        <ele>1140.6</ele>
        <time>2018-08-19T13:03:15.000Z</time>
      </trkpt>
      <trkpt lat="45.32577" lon="4.48154">
        <ele>1140.5</ele>
        <time>2018-08-19T13:03:16.000Z</time>
      </trkpt>
      <trkpt lat="45.32579" lon="4.48154">
        <ele>1140.4</ele>
        <time>2018-08-19T13:03:17.000Z</time>
      </trkpt>
      <trkpt lat="45.3258" lon="4.48153">
        <ele>1140.4</ele>
        <time>2018-08-19T13:03:18.000Z</time>
      </trkpt>
      <trkpt lat="45.32581" lon="4.48152">
        <ele>1140.3</ele>
        <time>2018-08-19T13:03:19.000Z</time>
      </trkpt>
      <trkpt lat="45.32582" lon="4.48151">
        <ele>1140.2</ele>
        <time>2018-08-19T13:03:20.000Z</time>
      </trkpt>
      <trkpt lat="45.32583" lon="4.4815">
        <ele>1140.2</ele>
        <time>2018-08-19T13:03:21.000Z</time>
      </trkpt>
      <trkpt lat="45.32585" lon="4.48149">
        <ele>1140.3</ele>
        <time>2018-08-19T13:03:22.000Z</time>
      </trkpt>
      <trkpt lat="45.32586" lon="4.48148">
        <ele>1140.4</ele>
        <time>2018-08-19T13:03:23.000Z</time>
      </trkpt>
      <trkpt lat="45.32587" lon="4.48147">
        <ele>1140.5</ele>
        <time>2018-08-19T13:03:24.000Z</time>
      </trkpt>
      <trkpt lat="45.32588" lon="4.48146">
        <ele>1140.6</ele>
        <time>2018-08-19T13:03:25.000Z</time>
      </trkpt>
      <trkpt lat="45.32589" lon="4.48145">
        <ele>1140.7</ele>
        <time>2018-08-19T13:03:26.000Z</time>
      </trkpt>
      <trkpt lat="45.3259" lon="4.48144">
        <ele>1140.9</ele>
        <time>2018-08-19T13:03:27.000Z</time>
      </trkpt>
      <trkpt lat="45.32591" lon="4.48143">
        <ele>1141</ele>
        <time>2018-08-19T13:03:28.000Z</time>
      </trkpt>
      <trkpt lat="45.32592" lon="4.48141">
        <ele>1141.1</ele>
        <time>2018-08-19T13:03:29.000Z</time>
      </trkpt>
      <trkpt lat="45.32593" lon="4.4814">
        <ele>1141.2</ele>
        <time>2018-08-19T13:03:30.000Z</time>
      </trkpt>
      <trkpt lat="45.32594" lon="4.48138">
        <ele>1141.3</ele>
        <time>2018-08-19T13:03:31.000Z</time>
      </trkpt>
      <trkpt lat="45.32595" lon="4.48137">
        <ele>1141.4</ele>
        <time>2018-08-19T13:03:32.000Z</time>
      </trkpt>
      <trkpt lat="45.32595" lon="4.48135">
        <ele>1141.6</ele>
        <time>2018-08-19T13:03:33.000Z</time>
      </trkpt>
      <trkpt lat="45.32596" lon="4.48133">
        <ele>1141.7</ele>
        <time>2018-08-19T13:03:34.000Z</time>
      </trkpt>
      <trkpt lat="45.32596" lon="4.48132">
        <ele>1141.8</ele>
        <time>2018-08-19T13:03:35.000Z</time>
      </trkpt>
      <trkpt lat="45.32597" lon="4.4813">
        <ele>1141.9</ele>
        <time>2018-08-19T13:03:36.000Z</time>
      </trkpt>
      <trkpt lat="45.32597" lon="4.48128">
        <ele>1142</ele>
        <time>2018-08-19T13:03:37.000Z</time>
      </trkpt>
      <trkpt lat="45.32598" lon="4.48126">
        <ele>1142.1</ele>
        <time>2018-08-19T13:03:38.000Z</time>
      </trkpt>
      <trkpt lat="45.32598" lon="4.48125">
        <ele>1142.2</ele>
        <time>2018-08-19T13:03:39.000Z</time>
      </trkpt>
      <trkpt lat="45.32599" lon="4.48123">
        <ele>1142.3</ele>
        <time>2018-08-19T13:03:40.000Z</time>
      </trkpt>
      <trkpt lat="45.32599" lon="4.48122">
        <ele>1142.4</ele>
        <time>2018-08-19T13:03:41.000Z</time>
      </trkpt>
      <trkpt lat="45.326" lon="4.4812">
        <ele>1142.4</ele>
        <time>2018-08-19T13:03:42.000Z</time>
      </trkpt>
      <trkpt lat="45.32601" lon="4.48119">
        <ele>1142.5</ele>
        <time>2018-08-19T13:03:43.000Z</time>
      </trkpt>
      <trkpt lat="45.32602" lon="4.48119">
        <ele>1142.6</ele>
        <time>2018-08-19T13:03:44.000Z</time>
      </trkpt>
      <trkpt lat="45.32603" lon="4.48118">
        <ele>1142.6</ele>
        <time>2018-08-19T13:03:45.000Z</time>
      </trkpt>
      <trkpt lat="45.32604" lon="4.48118">
        <ele>1142.6</ele>
        <time>2018-08-19T13:03:46.000Z</time>
      </trkpt>
      <trkpt lat="45.32606" lon="4.48117">
        <ele>1142.6</ele>
        <time>2018-08-19T13:03:47.000Z</time>
      </trkpt>
      <trkpt lat="45.32607" lon="4.48117">
        <ele>1142.6</ele>
        <time>2018-08-19T13:03:48.000Z</time>
      </trkpt>
      <trkpt lat="45.32608" lon="4.48117">
        <ele>1142.6</ele>
        <time>2018-08-19T13:03:49.000Z</time>
      </trkpt>
      <trkpt lat="45.3261" lon="4.48117">
        <ele>1142.6</ele>
        <time>2018-08-19T13:03:50.000Z</time>
      </trkpt>
      <trkpt lat="45.32611" lon="4.48117">
        <ele>1142.7</ele>
        <time>2018-08-19T13:03:51.000Z</time>
      </trkpt>
      <trkpt lat="45.32612" lon="4.48117">
        <ele>1142.7</ele>
        <time>2018-08-19T13:03:52.000Z</time>
      </trkpt>
      <trkpt lat="45.32613" lon="4.48117">
        <ele>1142.7</ele>
        <time>2018-08-19T13:03:53.000Z</time>
      </trkpt>
      <trkpt lat="45.32614" lon="4.48117">
        <ele>1142.7</ele>
        <time>2018-08-19T13:03:54.000Z</time>
      </trkpt>
      <trkpt lat="45.32616" lon="4.48117">
        <ele>1142.7</ele>
        <time>2018-08-19T13:03:55.000Z</time>
      </trkpt>
      <trkpt lat="45.32617" lon="4.48117">
        <ele>1142.7</ele>
        <time>2018-08-19T13:03:56.000Z</time>
      </trkpt>
      <trkpt lat="45.32618" lon="4.48117">
        <ele>1142.7</ele>
        <time>2018-08-19T13:03:57.000Z</time>
      </trkpt>
      <trkpt lat="45.32619" lon="4.48117">
        <ele>1142.7</ele>
        <time>2018-08-19T13:03:58.000Z</time>
      </trkpt>
      <trkpt lat="45.3262" lon="4.48117">
        <ele>1142.7</ele>
        <time>2018-08-19T13:03:59.000Z</time>
      </trkpt>
      <trkpt lat="45.32621" lon="4.48118">
        <ele>1142.7</ele>
        <time>2018-08-19T13:04:00.000Z</time>
      </trkpt>
      <trkpt lat="45.32622" lon="4.48118">
        <ele>1142.7</ele>
        <time>2018-08-19T13:04:01.000Z</time>
      </trkpt>
      <trkpt lat="45.32623" lon="4.48118">
        <ele>1142.7</ele>
        <time>2018-08-19T13:04:02.000Z</time>
      </trkpt>
      <trkpt lat="45.32624" lon="4.48118">
        <ele>1142.7</ele>
        <time>2018-08-19T13:04:03.000Z</time>
      </trkpt>
      <trkpt lat="45.32624" lon="4.48119">
        <ele>1142.6</ele>
        <time>2018-08-19T13:04:04.000Z</time>
      </trkpt>
      <trkpt lat="45.32624" lon="4.48119">
        <ele>1142.6</ele>
        <time>2018-08-19T13:04:05.000Z</time>
      </trkpt>
      <trkpt lat="45.32624" lon="4.48119">
        <ele>1142.6</ele>
        <time>2018-08-19T13:04:06.000Z</time>
      </trkpt>
      <trkpt lat="45.32624" lon="4.4812">
        <ele>1142.6</ele>
        <time>2018-08-19T13:04:07.000Z</time>
      </trkpt>
      <trkpt lat="45.32624" lon="4.4812">
        <ele>1142.6</ele>
        <time>2018-08-19T13:04:08.000Z</time>
      </trkpt>
      <trkpt lat="45.32624" lon="4.4812">
        <ele>1142.6</ele>
        <time>2018-08-19T13:04:09.000Z</time>
      </trkpt>
      <trkpt lat="45.32624" lon="4.4812">
        <ele>1142.6</ele>
        <time>2018-08-19T13:04:10.000Z</time>
      </trkpt>
      <trkpt lat="45.32624" lon="4.4812">
        <ele>1142.6</ele>
        <time>2018-08-19T13:04:11.000Z</time>
      </trkpt>
      <trkpt lat="45.32624" lon="4.48119">
        <ele>1142.6</ele>
        <time>2018-08-19T13:04:12.000Z</time>
      </trkpt>
      <trkpt lat="45.32625" lon="4.48119">
        <ele>1142.6</ele>
        <time>2018-08-19T13:04:13.000Z</time>
      </trkpt>
      <trkpt lat="45.32626" lon="4.48119">
        <ele>1142.7</ele>
        <time>2018-08-19T13:04:14.000Z</time>
      </trkpt>
      <trkpt lat="45.32627" lon="4.48119">
        <ele>1142.7</ele>
        <time>2018-08-19T13:04:15.000Z</time>
      </trkpt>
      <trkpt lat="45.32627" lon="4.48119">
        <ele>1142.7</ele>
        <time>2018-08-19T13:04:16.000Z</time>
      </trkpt>
      <trkpt lat="45.32628" lon="4.4812">
        <ele>1142.6</ele>
        <time>2018-08-19T13:04:17.000Z</time>
      </trkpt>
      <trkpt lat="45.32628" lon="4.4812">
        <ele>1142.6</ele>
        <time>2018-08-19T13:04:18.000Z</time>
      </trkpt>
      <trkpt lat="45.32628" lon="4.4812">
        <ele>1142.6</ele>
        <time>2018-08-19T13:04:19.000Z</time>
      </trkpt>
      <trkpt lat="45.32628" lon="4.48121">
        <ele>1142.6</ele>
        <time>2018-08-19T13:04:20.000Z</time>
      </trkpt>
      <trkpt lat="45.32628" lon="4.48121">
        <ele>1142.6</ele>
        <time>2018-08-19T13:04:21.000Z</time>
      </trkpt>
      <trkpt lat="45.32628" lon="4.48121">
        <ele>1142.6</ele>
        <time>2018-08-19T13:04:22.000Z</time>
      </trkpt>
      <trkpt lat="45.32628" lon="4.48121">
        <ele>1142.6</ele>
        <time>2018-08-19T13:04:23.000Z</time>
      </trkpt>
      <trkpt lat="45.32628" lon="4.48121">
        <ele>1142.6</ele>
        <time>2018-08-19T13:04:24.000Z</time>
      </trkpt>
      <trkpt lat="45.32628" lon="4.48121">
        <ele>1142.6</ele>
        <time>2018-08-19T13:04:25.000Z</time>
      </trkpt>
      <trkpt lat="45.32628" lon="4.48121">
        <ele>1142.6</ele>
        <time>2018-08-19T13:04:26.000Z</time>
      </trkpt>
      <trkpt lat="45.32628" lon="4.48121">
        <ele>1142.6</ele>
        <time>2018-08-19T13:04:27.000Z</time>
      </trkpt>
      <trkpt lat="45.32628" lon="4.48121">
        <ele>1142.6</ele>
        <time>2018-08-19T13:04:28.000Z</time>
      </trkpt>
      <trkpt lat="45.32628" lon="4.48121">
        <ele>1142.6</ele>
        <time>2018-08-19T13:04:29.000Z</time>
      </trkpt>
      <trkpt lat="45.32628" lon="4.48121">
        <ele>1142.6</ele>
        <time>2018-08-19T13:04:30.000Z</time>
      </trkpt>
      <trkpt lat="45.32628" lon="4.48121">
        <ele>1142.6</ele>
        <time>2018-08-19T13:04:31.000Z</time>
      </trkpt>
      <trkpt lat="45.32628" lon="4.48121">
        <ele>1142.6</ele>
        <time>2018-08-19T13:04:32.000Z</time>
      </trkpt>
      <trkpt lat="45.32628" lon="4.48121">
        <ele>1142.6</ele>
        <time>2018-08-19T13:04:33.000Z</time>
      </trkpt>
      <trkpt lat="45.32628" lon="4.48121">
        <ele>1142.6</ele>
        <time>2018-08-19T13:04:34.000Z</time>
      </trkpt>
      <trkpt lat="45.32628" lon="4.48121">
        <ele>1142.6</ele>
        <time>2018-08-19T13:04:35.000Z</time>
      </trkpt>
      <trkpt lat="45.32628" lon="4.48121">
        <ele>1142.6</ele>
        <time>2018-08-19T13:04:36.000Z</time>
      </trkpt>
      <trkpt lat="45.32628" lon="4.48121">
        <ele>1142.6</ele>
        <time>2018-08-19T13:04:37.000Z</time>
      </trkpt>
      <trkpt lat="45.32628" lon="4.48121">
        <ele>1142.6</ele>
        <time>2018-08-19T13:04:38.000Z</time>
      </trkpt>
      <trkpt lat="45.32628" lon="4.48121">
        <ele>1142.6</ele>
        <time>2018-08-19T13:04:39.000Z</time>
      </trkpt>
      <trkpt lat="45.32628" lon="4.48121">
        <ele>1142.6</ele>
        <time>2018-08-19T13:04:40.000Z</time>
      </trkpt>
      <trkpt lat="45.32628" lon="4.48121">
        <ele>1142.6</ele>
        <time>2018-08-19T13:04:41.000Z</time>
      </trkpt>
    </trkseg>
  </trk>
</gpx>